<?xml version='1.0' encoding='UTF-8'?><gpx version="1.1" creator="JPX - https://github.com/jenetics/jpx" xmlns="http://www.topografix.com/GPX/1/1"><trk><trkseg><trkpt lat="43.6668673057029" lon="10.649658282916715"><ele>14.000000000000002</ele><time>2026-04-04T07:40:18.999Z</time></trkpt><trkpt lat="43.66683981588374" lon="10.649737402802401"><ele>14.0</ele><time>2026-04-04T07:40:20.999Z</time></trkpt><trkpt lat="43.666789911022946" lon="10.649796673187378"><ele>14.0</ele><time>2026-04-04T07:42:07.999Z</time></trkpt><trkpt lat="43.66676225319853" lon="10.649877563080167"><ele>14.0</ele><time>2026-04-04T07:42:15.999Z</time></trkpt><trkpt lat="43.66677910896581" lon="10.650021129203482"><ele>14.000000000000002</ele><time>2026-04-04T07:47:11Z</time></trkpt><trkpt lat="43.66678441741431" lon="10.650183056105961"><ele>14.0</ele><time>2026-04-04T07:47:13Z</time></trkpt><trkpt lat="43.66677352798889" lon="10.650318535572636"><ele>14.0</ele><time>2026-04-04T07:47:15Z</time></trkpt><trkpt lat="43.66677199264422" lon="10.650426985714336"><ele>14.0</ele><time>2026-04-04T07:47:17Z</time></trkpt><trkpt lat="43.66677116857051" lon="10.650520537841345"><ele>14.0</ele><time>2026-04-04T07:47:19Z</time></trkpt><trkpt lat="43.6667656920536" lon="10.650621420598943"><ele>14.0</ele><time>2026-04-04T07:47:21Z</time></trkpt><trkpt lat="43.66674505364515" lon="10.650714554047502"><ele>14.0</ele><time>2026-04-04T07:47:24Z</time></trkpt><trkpt lat="43.66667270752047" lon="10.650769661339734"><ele>14.0</ele><time>2026-04-04T07:47:31Z</time></trkpt><trkpt lat="43.6666031158355" lon="10.65077061962951"><ele>14.0</ele><time>2026-04-04T07:47:38Z</time></trkpt><trkpt lat="43.66654487553398" lon="10.650911482121488"><ele>14.0</ele><time>2026-04-04T07:47:44Z</time></trkpt><trkpt lat="43.666530212311685" lon="10.651049344112815"><ele>14.0</ele><time>2026-04-04T07:47:45Z</time></trkpt><trkpt lat="43.6665220170603" lon="10.65120516321435"><ele>14.0</ele><time>2026-04-04T07:47:46Z</time></trkpt><trkpt lat="43.66650330606961" lon="10.651373650890465"><ele>14.0</ele><time>2026-04-04T07:47:47Z</time></trkpt><trkpt lat="43.6664863171007" lon="10.651569644095288"><ele>13.666666666666668</ele><time>2026-04-04T07:47:48Z</time></trkpt><trkpt lat="43.666448523536985" lon="10.651771700976063"><ele>13.333333333333332</ele><time>2026-04-04T07:47:49Z</time></trkpt><trkpt lat="43.666395978923234" lon="10.65200023657653"><ele>13.0</ele><time>2026-04-04T07:47:50Z</time></trkpt><trkpt lat="43.66634711366502" lon="10.652234511944553"><ele>13.0</ele><time>2026-04-04T07:47:51Z</time></trkpt><trkpt lat="43.666287690629254" lon="10.652471084447871"><ele>13.0</ele><time>2026-04-04T07:47:52Z</time></trkpt><trkpt lat="43.66623300333471" lon="10.65269008010642"><ele>13.0</ele><time>2026-04-04T07:47:53Z</time></trkpt><trkpt lat="43.66618002848285" lon="10.652876294372206"><ele>13.25</ele><time>2026-04-04T07:47:54Z</time></trkpt><trkpt lat="43.666130377576266" lon="10.653045174722019"><ele>13.5</ele><time>2026-04-04T07:47:55Z</time></trkpt><trkpt lat="43.66610241028189" lon="10.653221288084804"><ele>13.75</ele><time>2026-04-04T07:47:56Z</time></trkpt><trkpt lat="43.666093318352544" lon="10.65340084562312"><ele>14.0</ele><time>2026-04-04T07:47:57Z</time></trkpt><trkpt lat="43.66609210066818" lon="10.653573673929271"><ele>13.75</ele><time>2026-04-04T07:47:58Z</time></trkpt><trkpt lat="43.66609672118127" lon="10.653747257498589"><ele>13.5</ele><time>2026-04-04T07:47:58.999Z</time></trkpt><trkpt lat="43.66610389381826" lon="10.653921959699082"><ele>13.25</ele><time>2026-04-04T07:47:59.999Z</time></trkpt><trkpt lat="43.666113049731855" lon="10.654098649768423"><ele>13.0</ele><time>2026-04-04T07:48:00.999Z</time></trkpt><trkpt lat="43.66612359439477" lon="10.654276176883407"><ele>12.8</ele><time>2026-04-04T07:48:01.999Z</time></trkpt><trkpt lat="43.66613258089514" lon="10.654441945123299"><ele>12.600000000000001</ele><time>2026-04-04T07:48:02.999Z</time></trkpt><trkpt lat="43.66613670900518" lon="10.654587572019189"><ele>12.399999999999999</ele><time>2026-04-04T07:48:03.999Z</time></trkpt><trkpt lat="43.66613813469839" lon="10.654720592842624"><ele>12.2</ele><time>2026-04-04T07:48:04.999Z</time></trkpt><trkpt lat="43.66613662361561" lon="10.654840755949143"><ele>12.0</ele><time>2026-04-04T07:48:05.999Z</time></trkpt><trkpt lat="43.666131092578055" lon="10.65494980167872"><ele>12.0</ele><time>2026-04-04T07:48:06.999Z</time></trkpt><trkpt lat="43.6661203423731" lon="10.655056668904182"><ele>12.0</ele><time>2026-04-04T07:48:07.999Z</time></trkpt><trkpt lat="43.66606883137309" lon="10.65528028067612"><ele>12.0</ele><time>2026-04-04T07:48:09.999Z</time></trkpt><trkpt lat="43.66600503848278" lon="10.65537709459947"><ele>12.0</ele><time>2026-04-04T07:48:10.999Z</time></trkpt><trkpt lat="43.665934495877" lon="10.655466930569174"><ele>12.0</ele><time>2026-04-04T07:48:11.999Z</time></trkpt><trkpt lat="43.66584793540514" lon="10.655546278878912"><ele>12.399999999999999</ele><time>2026-04-04T07:48:12.999Z</time></trkpt><trkpt lat="43.66575048020507" lon="10.655597145629757"><ele>12.799999999999999</ele><time>2026-04-04T07:48:13.999Z</time></trkpt><trkpt lat="43.665654053676896" lon="10.655650740471085"><ele>13.2</ele><time>2026-04-04T07:48:14.999Z</time></trkpt><trkpt lat="43.66556666364282" lon="10.65573186354916"><ele>13.6</ele><time>2026-04-04T07:48:15.999Z</time></trkpt><trkpt lat="43.66549921517083" lon="10.655845778985363"><ele>14.0</ele><time>2026-04-04T07:48:16.999Z</time></trkpt><trkpt lat="43.66544151439249" lon="10.655971313636623"><ele>14.0</ele><time>2026-04-04T07:48:17.999Z</time></trkpt><trkpt lat="43.66539666615136" lon="10.65611242567231"><ele>14.0</ele><time>2026-04-04T07:48:18.999Z</time></trkpt><trkpt lat="43.665361921545696" lon="10.656268786592316"><ele>14.0</ele><time>2026-04-04T07:48:19.999Z</time></trkpt><trkpt lat="43.665335778927236" lon="10.656437484894711"><ele>14.0</ele><time>2026-04-04T07:48:20.999Z</time></trkpt><trkpt lat="43.665305383653255" lon="10.656586670778132"><ele>14.0</ele><time>2026-04-04T07:48:21.999Z</time></trkpt><trkpt lat="43.665279734934515" lon="10.656743255911952"><ele>14.0</ele><time>2026-04-04T07:48:22.999Z</time></trkpt><trkpt lat="43.665253661771324" lon="10.656899719170328"><ele>14.0</ele><time>2026-04-04T07:48:23.999Z</time></trkpt><trkpt lat="43.665227403563485" lon="10.657053939499269"><ele>14.0</ele><time>2026-04-04T07:48:24.999Z</time></trkpt><trkpt lat="43.66520190830182" lon="10.657199202597756"><ele>14.000000000000002</ele><time>2026-04-04T07:48:25.999Z</time></trkpt><trkpt lat="43.66517918232504" lon="10.657326404543852"><ele>14.0</ele><time>2026-04-04T07:48:26.999Z</time></trkpt><trkpt lat="43.6651588981857" lon="10.657436843740873"><ele>14.0</ele><time>2026-04-04T07:48:27.999Z</time></trkpt><trkpt lat="43.66513734554933" lon="10.657542031930296"><ele>14.0</ele><time>2026-04-04T07:48:28.999Z</time></trkpt><trkpt lat="43.66511207413306" lon="10.657650695222518"><ele>14.000000000000002</ele><time>2026-04-04T07:48:29.999Z</time></trkpt><trkpt lat="43.66508002047757" lon="10.657748720130481"><ele>14.0</ele><time>2026-04-04T07:48:30.999Z</time></trkpt><trkpt lat="43.66503151365034" lon="10.657820683333584"><ele>14.000000000000002</ele><time>2026-04-04T07:48:31.999Z</time></trkpt><trkpt lat="43.664964065480135" lon="10.657861104721613"><ele>14.0</ele><time>2026-04-04T07:48:32.999Z</time></trkpt><trkpt lat="43.66487968352185" lon="10.657867844792639"><ele>14.0</ele><time>2026-04-04T07:48:33.999Z</time></trkpt><trkpt lat="43.66478685773913" lon="10.657846230955323"><ele>14.0</ele><time>2026-04-04T07:48:34.999Z</time></trkpt><trkpt lat="43.66470048859425" lon="10.657847657927043"><ele>14.000000000000002</ele><time>2026-04-04T07:48:35.999Z</time></trkpt><trkpt lat="43.66462535079106" lon="10.65786515806127"><ele>14.0</ele><time>2026-04-04T07:48:36.999Z</time></trkpt><trkpt lat="43.66455634120793" lon="10.657881748473063"><ele>14.0</ele><time>2026-04-04T07:48:37.999Z</time></trkpt><trkpt lat="43.66447942221206" lon="10.65787724489161"><ele>13.999999999999998</ele><time>2026-04-04T07:48:38.999Z</time></trkpt><trkpt lat="43.66440009983822" lon="10.657851237295363"><ele>13.999999999999998</ele><time>2026-04-04T07:48:39.999Z</time></trkpt><trkpt lat="43.66431034602653" lon="10.657815143526022"><ele>14.0</ele><time>2026-04-04T07:48:40.999Z</time></trkpt><trkpt lat="43.66421030176424" lon="10.657762236013717"><ele>14.0</ele><time>2026-04-04T07:48:41.999Z</time></trkpt><trkpt lat="43.664097962853916" lon="10.657703708480067"><ele>14.333333333333334</ele><time>2026-04-04T07:48:42.999Z</time></trkpt><trkpt lat="43.66397117715412" lon="10.65762970439517"><ele>14.666666666666668</ele><time>2026-04-04T07:48:43.999Z</time></trkpt><trkpt lat="43.66382610848488" lon="10.657581887066106"><ele>15.0</ele><time>2026-04-04T07:48:44.999Z</time></trkpt><trkpt lat="43.66366476366432" lon="10.657539312345676"><ele>14.666666666666668</ele><time>2026-04-04T07:48:45.999Z</time></trkpt><trkpt lat="43.66347684642174" lon="10.657523263325125"><ele>14.333333333333334</ele><time>2026-04-04T07:48:46.999Z</time></trkpt><trkpt lat="43.663290651743395" lon="10.657504417680105"><ele>14.0</ele><time>2026-04-04T07:48:47.999Z</time></trkpt><trkpt lat="43.663115401731154" lon="10.657497660767111"><ele>14.0</ele><time>2026-04-04T07:48:48.999Z</time></trkpt><trkpt lat="43.662951208117065" lon="10.657498156948279"><ele>14.0</ele><time>2026-04-04T07:48:49.999Z</time></trkpt><trkpt lat="43.66279275373137" lon="10.657504812497512"><ele>14.0</ele><time>2026-04-04T07:48:50.999Z</time></trkpt><trkpt lat="43.662639808912246" lon="10.657512196901767"><ele>13.666666666666668</ele><time>2026-04-04T07:48:51.999Z</time></trkpt><trkpt lat="43.66248472361856" lon="10.657518600063533"><ele>13.333333333333332</ele><time>2026-04-04T07:48:52.999Z</time></trkpt><trkpt lat="43.66232283808775" lon="10.657525325492756"><ele>13.0</ele><time>2026-04-04T07:48:53.999Z</time></trkpt><trkpt lat="43.66215435620588" lon="10.657533422982096"><ele>13.0</ele><time>2026-04-04T07:48:54.999Z</time></trkpt><trkpt lat="43.66198381239597" lon="10.6575421622793"><ele>13.0</ele><time>2026-04-04T07:48:55.999Z</time></trkpt><trkpt lat="43.66181278316115" lon="10.657552078517242"><ele>13.0</ele><time>2026-04-04T07:48:56.999Z</time></trkpt><trkpt lat="43.66164086954901" lon="10.657560736551213"><ele>13.0</ele><time>2026-04-04T07:48:57.999Z</time></trkpt><trkpt lat="43.661466403868445" lon="10.657570325152689"><ele>13.0</ele><time>2026-04-04T07:48:58.999Z</time></trkpt><trkpt lat="43.661288084618036" lon="10.657578949566334"><ele>13.0</ele><time>2026-04-04T07:49:00Z</time></trkpt><trkpt lat="43.66110809364821" lon="10.657587249502715"><ele>13.0</ele><time>2026-04-04T07:49:01Z</time></trkpt><trkpt lat="43.660924593123916" lon="10.6575960084894"><ele>13.0</ele><time>2026-04-04T07:49:02Z</time></trkpt><trkpt lat="43.66073864707042" lon="10.657605439431931"><ele>13.0</ele><time>2026-04-04T07:49:03Z</time></trkpt><trkpt lat="43.66055512536722" lon="10.657612118308172"><ele>13.0</ele><time>2026-04-04T07:49:04Z</time></trkpt><trkpt lat="43.66037327026072" lon="10.657621890897166"><ele>13.0</ele><time>2026-04-04T07:49:05Z</time></trkpt><trkpt lat="43.660188277469686" lon="10.657632282298863"><ele>13.0</ele><time>2026-04-04T07:49:06Z</time></trkpt><trkpt lat="43.66000469150803" lon="10.657642787558528"><ele>13.0</ele><time>2026-04-04T07:49:07Z</time></trkpt><trkpt lat="43.659822084041" lon="10.657651501682532"><ele>13.0</ele><time>2026-04-04T07:49:08Z</time></trkpt><trkpt lat="43.65963412787924" lon="10.657660981208052"><ele>13.0</ele><time>2026-04-04T07:49:09Z</time></trkpt><trkpt lat="43.6594508816877" lon="10.657670513322559"><ele>13.666666666666666</ele><time>2026-04-04T07:49:10Z</time></trkpt><trkpt lat="43.659267192200346" lon="10.657681130808331"><ele>14.333333333333332</ele><time>2026-04-04T07:49:11Z</time></trkpt><trkpt lat="43.65908605250493" lon="10.657689854981518"><ele>15.0</ele><time>2026-04-04T07:49:12Z</time></trkpt><trkpt lat="43.65891088990041" lon="10.657698114781821"><ele>15.0</ele><time>2026-04-04T07:49:13Z</time></trkpt><trkpt lat="43.658736712323474" lon="10.657707165844133"><ele>15.0</ele><time>2026-04-04T07:49:14Z</time></trkpt><trkpt lat="43.65856646654674" lon="10.657713604615752"><ele>15.0</ele><time>2026-04-04T07:49:15Z</time></trkpt><trkpt lat="43.658397599438686" lon="10.657722461718045"><ele>15.0</ele><time>2026-04-04T07:49:16Z</time></trkpt><trkpt lat="43.65822517997001" lon="10.657731084449729"><ele>15.0</ele><time>2026-04-04T07:49:17Z</time></trkpt><trkpt lat="43.658053205107855" lon="10.657740236045418"><ele>15.0</ele><time>2026-04-04T07:49:18Z</time></trkpt><trkpt lat="43.65788144943949" lon="10.65775067614628"><ele>15.333333333333332</ele><time>2026-04-04T07:49:19Z</time></trkpt><trkpt lat="43.65770670842788" lon="10.657760377412952"><ele>15.666666666666666</ele><time>2026-04-04T07:49:20Z</time></trkpt><trkpt lat="43.657537168902834" lon="10.657768844828611"><ele>16.0</ele><time>2026-04-04T07:49:21Z</time></trkpt><trkpt lat="43.65736295593373" lon="10.65777482751691"><ele>16.0</ele><time>2026-04-04T07:49:22Z</time></trkpt><trkpt lat="43.65718853895144" lon="10.657778658707452"><ele>16.0</ele><time>2026-04-04T07:49:23Z</time></trkpt><trkpt lat="43.65701383991683" lon="10.657777215418873"><ele>16.0</ele><time>2026-04-04T07:49:24Z</time></trkpt><trkpt lat="43.656839323056786" lon="10.65776168065085"><ele>16.0</ele><time>2026-04-04T07:49:25Z</time></trkpt><trkpt lat="43.65666375651259" lon="10.657730395397472"><ele>16.0</ele><time>2026-04-04T07:49:26Z</time></trkpt><trkpt lat="43.65649209136339" lon="10.6576772764611"><ele>16.0</ele><time>2026-04-04T07:49:27Z</time></trkpt><trkpt lat="43.65632283383053" lon="10.657604739810076"><ele>16.0</ele><time>2026-04-04T07:49:28Z</time></trkpt><trkpt lat="43.65615712736791" lon="10.657511002503833"><ele>16.0</ele><time>2026-04-04T07:49:29Z</time></trkpt><trkpt lat="43.65599664169055" lon="10.65740453575541"><ele>16.0</ele><time>2026-04-04T07:49:30Z</time></trkpt><trkpt lat="43.65583878531787" lon="10.65727569706772"><ele>15.666666666666666</ele><time>2026-04-04T07:49:31Z</time></trkpt><trkpt lat="43.6556858394665" lon="10.657121662104156"><ele>15.333333333333332</ele><time>2026-04-04T07:49:32Z</time></trkpt><trkpt lat="43.65554728042581" lon="10.656954698060174"><ele>15.0</ele><time>2026-04-04T07:49:33Z</time></trkpt><trkpt lat="43.655427831915745" lon="10.656791882269076"><ele>15.0</ele><time>2026-04-04T07:49:34Z</time></trkpt><trkpt lat="43.65531664552859" lon="10.65663642539754"><ele>15.0</ele><time>2026-04-04T07:49:35Z</time></trkpt><trkpt lat="43.65521281221532" lon="10.656488171122792"><ele>15.0</ele><time>2026-04-04T07:49:36Z</time></trkpt><trkpt lat="43.655118977310536" lon="10.656347063913442"><ele>15.0</ele><time>2026-04-04T07:49:37Z</time></trkpt><trkpt lat="43.65503817149137" lon="10.656203697337796"><ele>15.0</ele><time>2026-04-04T07:49:38Z</time></trkpt><trkpt lat="43.65497913327697" lon="10.656046657869576"><ele>15.0</ele><time>2026-04-04T07:49:39Z</time></trkpt><trkpt lat="43.65496706620535" lon="10.655857352513527"><ele>15.0</ele><time>2026-04-04T07:49:40Z</time></trkpt><trkpt lat="43.65494809829884" lon="10.655680114633368"><ele>15.0</ele><time>2026-04-04T07:49:41Z</time></trkpt><trkpt lat="43.65490967387355" lon="10.655514164735937"><ele>15.0</ele><time>2026-04-04T07:49:42Z</time></trkpt><trkpt lat="43.65484546715691" lon="10.655375090183831"><ele>15.0</ele><time>2026-04-04T07:49:43Z</time></trkpt><trkpt lat="43.65476323510811" lon="10.655254921375974"><ele>15.0</ele><time>2026-04-04T07:49:44Z</time></trkpt><trkpt lat="43.6546764778183" lon="10.655148831731296"><ele>15.0</ele><time>2026-04-04T07:49:45Z</time></trkpt><trkpt lat="43.65458461213959" lon="10.655044739851778"><ele>15.0</ele><time>2026-04-04T07:49:46Z</time></trkpt><trkpt lat="43.65448722221446" lon="10.654956132264893"><ele>15.0</ele><time>2026-04-04T07:49:47Z</time></trkpt><trkpt lat="43.654384185568404" lon="10.654902578633962"><ele>15.0</ele><time>2026-04-04T07:49:48Z</time></trkpt><trkpt lat="43.6542811740729" lon="10.654887471494439"><ele>15.0</ele><time>2026-04-04T07:49:49Z</time></trkpt><trkpt lat="43.65418375676708" lon="10.654911201736926"><ele>15.0</ele><time>2026-04-04T07:49:50Z</time></trkpt><trkpt lat="43.654094973291805" lon="10.6549711022371"><ele>15.0</ele><time>2026-04-04T07:49:51Z</time></trkpt><trkpt lat="43.65402561241804" lon="10.655041937252113"><ele>15.0</ele><time>2026-04-04T07:49:52Z</time></trkpt><trkpt lat="43.6539718175203" lon="10.65510868998172"><ele>15.0</ele><time>2026-04-04T07:49:53Z</time></trkpt><trkpt lat="43.65394118545792" lon="10.655205544763174"><ele>15.0</ele><time>2026-04-04T07:49:54Z</time></trkpt><trkpt lat="43.65391498638942" lon="10.655291014429228"><ele>15.0</ele><time>2026-04-04T07:49:55Z</time></trkpt><trkpt lat="43.65374280877263" lon="10.655234884738894"><ele>15.0</ele><time>2026-04-04T07:49:56Z</time></trkpt><trkpt lat="43.653650894792825" lon="10.655186784290127"><ele>15.0</ele><time>2026-04-04T07:49:57Z</time></trkpt><trkpt lat="43.65354850967002" lon="10.655157608717841"><ele>15.0</ele><time>2026-04-04T07:49:58Z</time></trkpt><trkpt lat="43.65345315780758" lon="10.65511858517203"><ele>15.0</ele><time>2026-04-04T07:49:59Z</time></trkpt><trkpt lat="43.65337782239401" lon="10.655098212969513"><ele>15.0</ele><time>2026-04-04T07:50:00Z</time></trkpt><trkpt lat="43.65331112320429" lon="10.65508892657259"><ele>15.0</ele><time>2026-04-04T07:50:01Z</time></trkpt><trkpt lat="43.65324268370304" lon="10.65508060890794"><ele>15.666666666666666</ele><time>2026-04-04T07:50:02Z</time></trkpt><trkpt lat="43.65316779593087" lon="10.655073546610465"><ele>16.333333333333332</ele><time>2026-04-04T07:50:03Z</time></trkpt><trkpt lat="43.65308678551429" lon="10.655070284207518"><ele>17.0</ele><time>2026-04-04T07:50:03.999Z</time></trkpt><trkpt lat="43.653002663593" lon="10.655072610444517"><ele>17.666666666666664</ele><time>2026-04-04T07:50:04.999Z</time></trkpt><trkpt lat="43.65292218965538" lon="10.655079591125993"><ele>18.333333333333332</ele><time>2026-04-04T07:50:05.999Z</time></trkpt><trkpt lat="43.65284710771158" lon="10.655089756886284"><ele>19.0</ele><time>2026-04-04T07:50:06.999Z</time></trkpt><trkpt lat="43.65277368010051" lon="10.655103975215496"><ele>19.5</ele><time>2026-04-04T07:50:07.999Z</time></trkpt><trkpt lat="43.65269181696815" lon="10.655119416859982"><ele>20.0</ele><time>2026-04-04T07:50:08.999Z</time></trkpt><trkpt lat="43.65260712067373" lon="10.655137093758995"><ele>20.5</ele><time>2026-04-04T07:50:09.999Z</time></trkpt><trkpt lat="43.652522997417805" lon="10.655162789647061"><ele>21.0</ele><time>2026-04-04T07:50:10.999Z</time></trkpt><trkpt lat="43.652442265470036" lon="10.655191234776856"><ele>21.5</ele><time>2026-04-04T07:50:11.999Z</time></trkpt><trkpt lat="43.652357622751346" lon="10.655225068984926"><ele>22.0</ele><time>2026-04-04T07:50:12.999Z</time></trkpt><trkpt lat="43.65227317042503" lon="10.655263519176478"><ele>22.333333333333332</ele><time>2026-04-04T07:50:13.999Z</time></trkpt><trkpt lat="43.65219117447081" lon="10.655299614473291"><ele>22.666666666666664</ele><time>2026-04-04T07:50:14.999Z</time></trkpt><trkpt lat="43.652111517410326" lon="10.655337558640365"><ele>23.0</ele><time>2026-04-04T07:50:15.999Z</time></trkpt><trkpt lat="43.65203148447378" lon="10.655375050275357"><ele>23.333333333333332</ele><time>2026-04-04T07:50:16.999Z</time></trkpt><trkpt lat="43.651954184372634" lon="10.65541186286786"><ele>23.666666666666668</ele><time>2026-04-04T07:50:17.999Z</time></trkpt><trkpt lat="43.65187501139983" lon="10.655451988891357"><ele>24.0</ele><time>2026-04-04T07:50:18.999Z</time></trkpt><trkpt lat="43.65179307331438" lon="10.655492812201105"><ele>24.333333333333332</ele><time>2026-04-04T07:50:19.999Z</time></trkpt><trkpt lat="43.65170506788929" lon="10.655537169481438"><ele>24.666666666666664</ele><time>2026-04-04T07:50:20.999Z</time></trkpt><trkpt lat="43.651619390400704" lon="10.65558080212401"><ele>25.0</ele><time>2026-04-04T07:50:21.999Z</time></trkpt><trkpt lat="43.65153599816106" lon="10.655622713487455"><ele>25.333333333333332</ele><time>2026-04-04T07:50:22.999Z</time></trkpt><trkpt lat="43.65145551147073" lon="10.655660928732688"><ele>25.666666666666664</ele><time>2026-04-04T07:50:23.999Z</time></trkpt><trkpt lat="43.65137890697217" lon="10.65569761128698"><ele>26.0</ele><time>2026-04-04T07:50:24.999Z</time></trkpt><trkpt lat="43.651310022298425" lon="10.655730221501008"><ele>26.0</ele><time>2026-04-04T07:50:25.999Z</time></trkpt><trkpt lat="43.65123437526655" lon="10.655766890690156"><ele>26.0</ele><time>2026-04-04T07:50:26.999Z</time></trkpt><trkpt lat="43.65115091124387" lon="10.65580629714674"><ele>26.0</ele><time>2026-04-04T07:50:27.999Z</time></trkpt><trkpt lat="43.65106014954426" lon="10.655851586218331"><ele>26.0</ele><time>2026-04-04T07:50:28.999Z</time></trkpt><trkpt lat="43.65095993155654" lon="10.655900416203522"><ele>26.0</ele><time>2026-04-04T07:50:29.999Z</time></trkpt><trkpt lat="43.65086315882941" lon="10.655943687579047"><ele>26.4</ele><time>2026-04-04T07:50:30.999Z</time></trkpt><trkpt lat="43.65077608718325" lon="10.655985614388069"><ele>26.8</ele><time>2026-04-04T07:50:31.999Z</time></trkpt><trkpt lat="43.65068053306636" lon="10.656025507303967"><ele>27.199999999999996</ele><time>2026-04-04T07:50:32.999Z</time></trkpt><trkpt lat="43.650577464945" lon="10.656048370341585"><ele>27.599999999999998</ele><time>2026-04-04T07:50:33.999Z</time></trkpt><trkpt lat="43.65047292411759" lon="10.65609981658878"><ele>28.0</ele><time>2026-04-04T07:50:34.999Z</time></trkpt><trkpt lat="43.65036475808344" lon="10.656123980509115"><ele>28.5</ele><time>2026-04-04T07:50:35.999Z</time></trkpt><trkpt lat="43.65024638388595" lon="10.65614067773376"><ele>29.0</ele><time>2026-04-04T07:50:36.999Z</time></trkpt><trkpt lat="43.650131146875545" lon="10.656140527829985"><ele>29.5</ele><time>2026-04-04T07:50:37.999Z</time></trkpt><trkpt lat="43.65001260513532" lon="10.656140111977935"><ele>30.0</ele><time>2026-04-04T07:50:38.999Z</time></trkpt><trkpt lat="43.649880549445406" lon="10.656133347431954"><ele>30.0</ele><time>2026-04-04T07:50:39.999Z</time></trkpt><trkpt lat="43.64974350706326" lon="10.65612311735425"><ele>30.0</ele><time>2026-04-04T07:50:40.999Z</time></trkpt><trkpt lat="43.6496057751757" lon="10.65610702542701"><ele>30.0</ele><time>2026-04-04T07:50:41.999Z</time></trkpt><trkpt lat="43.64946651696147" lon="10.656088709025727"><ele>30.0</ele><time>2026-04-04T07:50:42.999Z</time></trkpt><trkpt lat="43.64931485801564" lon="10.656060502731982"><ele>29.333333333333336</ele><time>2026-04-04T07:50:43.999Z</time></trkpt><trkpt lat="43.64916199906601" lon="10.656031591471383"><ele>28.666666666666668</ele><time>2026-04-04T07:50:44.999Z</time></trkpt><trkpt lat="43.6490096701525" lon="10.656001654020011"><ele>28.0</ele><time>2026-04-04T07:50:45.999Z</time></trkpt><trkpt lat="43.648846676399955" lon="10.655968452653962"><ele>28.0</ele><time>2026-04-04T07:50:46.999Z</time></trkpt><trkpt lat="43.64868787150206" lon="10.655938965050535"><ele>28.0</ele><time>2026-04-04T07:50:47.999Z</time></trkpt><trkpt lat="43.64853245520824" lon="10.655910730447266"><ele>28.0</ele><time>2026-04-04T07:50:48.999Z</time></trkpt><trkpt lat="43.64838425254655" lon="10.655879501591864"><ele>28.75</ele><time>2026-04-04T07:50:49.999Z</time></trkpt><trkpt lat="43.64823828434632" lon="10.655838623297628"><ele>29.5</ele><time>2026-04-04T07:50:50.999Z</time></trkpt><trkpt lat="43.64809638351942" lon="10.65578552952767"><ele>30.25</ele><time>2026-04-04T07:50:51.999Z</time></trkpt><trkpt lat="43.64795994896786" lon="10.655730438078049"><ele>31.0</ele><time>2026-04-04T07:50:52.999Z</time></trkpt><trkpt lat="43.647823915268745" lon="10.655668393970135"><ele>31.0</ele><time>2026-04-04T07:50:53.999Z</time></trkpt><trkpt lat="43.64769124162576" lon="10.655600382520577"><ele>31.0</ele><time>2026-04-04T07:50:54.999Z</time></trkpt><trkpt lat="43.64755894575231" lon="10.655521587041264"><ele>31.0</ele><time>2026-04-04T07:50:55.999Z</time></trkpt><trkpt lat="43.6474296200809" lon="10.655429403357296"><ele>31.0</ele><time>2026-04-04T07:50:56.999Z</time></trkpt><trkpt lat="43.64730583674394" lon="10.655311878406463"><ele>31.333333333333336</ele><time>2026-04-04T07:50:57.999Z</time></trkpt><trkpt lat="43.6471824654165" lon="10.655200408720294"><ele>31.666666666666664</ele><time>2026-04-04T07:50:58.999Z</time></trkpt><trkpt lat="43.647057140576905" lon="10.655074922109344"><ele>32.0</ele><time>2026-04-04T07:50:59.999Z</time></trkpt><trkpt lat="43.64693541374484" lon="10.654941023999156"><ele>31.333333333333332</ele><time>2026-04-04T07:51:00.999Z</time></trkpt><trkpt lat="43.64681491659295" lon="10.65479363011173"><ele>30.666666666666664</ele><time>2026-04-04T07:51:01.999Z</time></trkpt><trkpt lat="43.646696919383736" lon="10.654634746481918"><ele>30.0</ele><time>2026-04-04T07:51:02.999Z</time></trkpt><trkpt lat="43.64658035058621" lon="10.654460627188435"><ele>28.666666666666664</ele><time>2026-04-04T07:51:03.999Z</time></trkpt><trkpt lat="43.64646606501784" lon="10.654270691835247"><ele>27.333333333333332</ele><time>2026-04-04T07:51:05Z</time></trkpt><trkpt lat="43.646364195539505" lon="10.65407061620695"><ele>26.0</ele><time>2026-04-04T07:51:06Z</time></trkpt><trkpt lat="43.64627062815823" lon="10.653860758075998"><ele>26.0</ele><time>2026-04-04T07:51:07Z</time></trkpt><trkpt lat="43.646185881548085" lon="10.65364839630399"><ele>26.0</ele><time>2026-04-04T07:51:08Z</time></trkpt><trkpt lat="43.64610733681387" lon="10.653427883515544"><ele>26.0</ele><time>2026-04-04T07:51:09Z</time></trkpt><trkpt lat="43.64603274505131" lon="10.653203962198436"><ele>24.333333333333332</ele><time>2026-04-04T07:51:10Z</time></trkpt><trkpt lat="43.64595348741566" lon="10.652982684232944"><ele>22.666666666666664</ele><time>2026-04-04T07:51:11Z</time></trkpt><trkpt lat="43.64587499829179" lon="10.652751287413423"><ele>21.0</ele><time>2026-04-04T07:51:12Z</time></trkpt><trkpt lat="43.64580552143652" lon="10.652532456724579"><ele>19.666666666666668</ele><time>2026-04-04T07:51:13Z</time></trkpt><trkpt lat="43.645724026706006" lon="10.65230815672209"><ele>18.333333333333336</ele><time>2026-04-04T07:51:14Z</time></trkpt><trkpt lat="43.64564599818349" lon="10.652077324770751"><ele>17.0</ele><time>2026-04-04T07:51:15Z</time></trkpt><trkpt lat="43.645569448908255" lon="10.651849479784856"><ele>16.0</ele><time>2026-04-04T07:51:16Z</time></trkpt><trkpt lat="43.645491027710264" lon="10.651621373154326"><ele>15.0</ele><time>2026-04-04T07:51:17Z</time></trkpt><trkpt lat="43.64541047817297" lon="10.65138068245689"><ele>14.0</ele><time>2026-04-04T07:51:18Z</time></trkpt><trkpt lat="43.64532323450579" lon="10.651150424560196"><ele>15.666666666666668</ele><time>2026-04-04T07:51:19Z</time></trkpt><trkpt lat="43.64522614960513" lon="10.650919784980804"><ele>17.333333333333332</ele><time>2026-04-04T07:51:20Z</time></trkpt><trkpt lat="43.64511449321856" lon="10.650707951354482"><ele>19.0</ele><time>2026-04-04T07:51:21Z</time></trkpt><trkpt lat="43.64498110609782" lon="10.650510408329035"><ele>19.0</ele><time>2026-04-04T07:51:22Z</time></trkpt><trkpt lat="43.64483016856487" lon="10.650322335320476"><ele>19.0</ele><time>2026-04-04T07:51:23Z</time></trkpt><trkpt lat="43.64466701684974" lon="10.650149994145366"><ele>19.0</ele><time>2026-04-04T07:51:24Z</time></trkpt><trkpt lat="43.644490310083924" lon="10.649996813677483"><ele>20.0</ele><time>2026-04-04T07:51:25Z</time></trkpt><trkpt lat="43.644313902238075" lon="10.649857405847744"><ele>21.0</ele><time>2026-04-04T07:51:26Z</time></trkpt><trkpt lat="43.64412099025251" lon="10.649759710754214"><ele>22.0</ele><time>2026-04-04T07:51:27Z</time></trkpt><trkpt lat="43.643912925297904" lon="10.649695965016411"><ele>22.0</ele><time>2026-04-04T07:51:28Z</time></trkpt><trkpt lat="43.643721329428" lon="10.649667556071043"><ele>22.0</ele><time>2026-04-04T07:51:29Z</time></trkpt><trkpt lat="43.643536730454265" lon="10.649665954317253"><ele>22.0</ele><time>2026-04-04T07:51:30Z</time></trkpt><trkpt lat="43.64336182765277" lon="10.649671993476257"><ele>22.0</ele><time>2026-04-04T07:51:31Z</time></trkpt><trkpt lat="43.64316654939812" lon="10.64971448078881"><ele>22.0</ele><time>2026-04-04T07:51:32Z</time></trkpt><trkpt lat="43.6429721787671" lon="10.649780493302012"><ele>22.0</ele><time>2026-04-04T07:51:33Z</time></trkpt><trkpt lat="43.642791988477406" lon="10.649845806570763"><ele>22.0</ele><time>2026-04-04T07:51:34Z</time></trkpt><trkpt lat="43.64262476205209" lon="10.649900281579692"><ele>22.0</ele><time>2026-04-04T07:51:35Z</time></trkpt><trkpt lat="43.642465793305455" lon="10.649950811686763"><ele>22.0</ele><time>2026-04-04T07:51:36Z</time></trkpt><trkpt lat="43.642318110871976" lon="10.650001279749356"><ele>22.0</ele><time>2026-04-04T07:51:37Z</time></trkpt><trkpt lat="43.64216883199801" lon="10.65005196961618"><ele>22.0</ele><time>2026-04-04T07:51:38Z</time></trkpt><trkpt lat="43.6420253658064" lon="10.650102639889163"><ele>22.0</ele><time>2026-04-04T07:51:39Z</time></trkpt><trkpt lat="43.64187598451773" lon="10.650150346488159"><ele>22.666666666666664</ele><time>2026-04-04T07:51:40Z</time></trkpt><trkpt lat="43.64172179875314" lon="10.650194479936836"><ele>23.333333333333332</ele><time>2026-04-04T07:51:41Z</time></trkpt><trkpt lat="43.64156210030916" lon="10.650237474453924"><ele>24.0</ele><time>2026-04-04T07:51:42Z</time></trkpt><trkpt lat="43.641408063413905" lon="10.650277354776627"><ele>24.0</ele><time>2026-04-04T07:51:43Z</time></trkpt><trkpt lat="43.641254533194015" lon="10.650324507748516"><ele>24.0</ele><time>2026-04-04T07:51:44Z</time></trkpt><trkpt lat="43.64109587837086" lon="10.650373555547668"><ele>24.0</ele><time>2026-04-04T07:51:45Z</time></trkpt><trkpt lat="43.64093906457434" lon="10.650412577378331"><ele>24.0</ele><time>2026-04-04T07:51:46Z</time></trkpt><trkpt lat="43.64078163290509" lon="10.650444866366108"><ele>24.0</ele><time>2026-04-04T07:51:47Z</time></trkpt><trkpt lat="43.64062418577708" lon="10.650474055093456"><ele>24.0</ele><time>2026-04-04T07:51:48Z</time></trkpt><trkpt lat="43.640466187283" lon="10.650506479859443"><ele>24.0</ele><time>2026-04-04T07:51:49Z</time></trkpt><trkpt lat="43.64031650537898" lon="10.65054392269984"><ele>24.0</ele><time>2026-04-04T07:51:50Z</time></trkpt><trkpt lat="43.64017725203445" lon="10.65059088603083"><ele>24.0</ele><time>2026-04-04T07:51:51Z</time></trkpt><trkpt lat="43.640051534810446" lon="10.650644612347374"><ele>24.0</ele><time>2026-04-04T07:51:52Z</time></trkpt><trkpt lat="43.63993376822278" lon="10.650694565288044"><ele>23.799999999999997</ele><time>2026-04-04T07:51:53Z</time></trkpt><trkpt lat="43.63982764270933" lon="10.65073735069023"><ele>23.599999999999998</ele><time>2026-04-04T07:51:54Z</time></trkpt><trkpt lat="43.639728146743" lon="10.650774620465297"><ele>23.4</ele><time>2026-04-04T07:51:55Z</time></trkpt><trkpt lat="43.63962457012485" lon="10.650801606557765"><ele>23.2</ele><time>2026-04-04T07:51:56Z</time></trkpt><trkpt lat="43.63952118180801" lon="10.650796064682053"><ele>23.0</ele><time>2026-04-04T07:51:57Z</time></trkpt><trkpt lat="43.63943252395276" lon="10.650829841097206"><ele>23.25</ele><time>2026-04-04T07:51:58Z</time></trkpt><trkpt lat="43.639367922097456" lon="10.650937400245903"><ele>23.5</ele><time>2026-04-04T07:51:59Z</time></trkpt><trkpt lat="43.63932265435051" lon="10.651083044923936"><ele>23.75</ele><time>2026-04-04T07:52:00Z</time></trkpt><trkpt lat="43.639252053867864" lon="10.651234635183533"><ele>24.0</ele><time>2026-04-04T07:52:01Z</time></trkpt><trkpt lat="43.63914729607148" lon="10.651372749282679"><ele>24.0</ele><time>2026-04-04T07:52:02Z</time></trkpt><trkpt lat="43.63904044239667" lon="10.651506439350163"><ele>24.0</ele><time>2026-04-04T07:52:03Z</time></trkpt><trkpt lat="43.63894203266945" lon="10.651633053153835"><ele>24.0</ele><time>2026-04-04T07:52:04Z</time></trkpt><trkpt lat="43.638842090753364" lon="10.65175437325097"><ele>24.0</ele><time>2026-04-04T07:52:04.999Z</time></trkpt><trkpt lat="43.638741627531466" lon="10.651876975304772"><ele>24.0</ele><time>2026-04-04T07:52:05.999Z</time></trkpt><trkpt lat="43.63863947086896" lon="10.651998893421764"><ele>24.0</ele><time>2026-04-04T07:52:06.999Z</time></trkpt><trkpt lat="43.63853748929589" lon="10.652112713039458"><ele>24.0</ele><time>2026-04-04T07:52:07.999Z</time></trkpt><trkpt lat="43.638435968301756" lon="10.652227070225509"><ele>24.0</ele><time>2026-04-04T07:52:08.999Z</time></trkpt><trkpt lat="43.6383342307614" lon="10.652347550292857"><ele>24.0</ele><time>2026-04-04T07:52:09.999Z</time></trkpt><trkpt lat="43.638228194100414" lon="10.652468582959205"><ele>24.0</ele><time>2026-04-04T07:52:10.999Z</time></trkpt><trkpt lat="43.638118279305644" lon="10.652590428102348"><ele>24.0</ele><time>2026-04-04T07:52:11.999Z</time></trkpt><trkpt lat="43.63800771510914" lon="10.652714678850481"><ele>24.0</ele><time>2026-04-04T07:52:12.999Z</time></trkpt><trkpt lat="43.63789712503777" lon="10.652844505455388"><ele>24.5</ele><time>2026-04-04T07:52:13.999Z</time></trkpt><trkpt lat="43.637787950650015" lon="10.652977754830934"><ele>25.0</ele><time>2026-04-04T07:52:14.999Z</time></trkpt><trkpt lat="43.63767763275121" lon="10.653116003280473"><ele>25.5</ele><time>2026-04-04T07:52:15.999Z</time></trkpt><trkpt lat="43.6375688077051" lon="10.653258653915017"><ele>26.0</ele><time>2026-04-04T07:52:16.999Z</time></trkpt><trkpt lat="43.637459662537815" lon="10.653401418604318"><ele>26.0</ele><time>2026-04-04T07:52:17.999Z</time></trkpt><trkpt lat="43.63734961909737" lon="10.653540853392572"><ele>26.0</ele><time>2026-04-04T07:52:18.999Z</time></trkpt><trkpt lat="43.637240126874644" lon="10.653679650765687"><ele>26.0</ele><time>2026-04-04T07:52:19.999Z</time></trkpt><trkpt lat="43.637131305498876" lon="10.653824323696227"><ele>26.0</ele><time>2026-04-04T07:52:20.999Z</time></trkpt><trkpt lat="43.63702137511031" lon="10.653969218797661"><ele>25.333333333333332</ele><time>2026-04-04T07:52:21.999Z</time></trkpt><trkpt lat="43.636911229308694" lon="10.654115731802513"><ele>24.666666666666664</ele><time>2026-04-04T07:52:22.999Z</time></trkpt><trkpt lat="43.63679728306344" lon="10.654263703829313"><ele>24.0</ele><time>2026-04-04T07:52:23.999Z</time></trkpt><trkpt lat="43.636685673852824" lon="10.654412934034955"><ele>25.666666666666664</ele><time>2026-04-04T07:52:24.999Z</time></trkpt><trkpt lat="43.63657158706766" lon="10.654557761676006"><ele>27.333333333333332</ele><time>2026-04-04T07:52:25.999Z</time></trkpt><trkpt lat="43.63645793489528" lon="10.654706967229808"><ele>29.0</ele><time>2026-04-04T07:52:26.999Z</time></trkpt><trkpt lat="43.636340082009745" lon="10.654855493413903"><ele>29.0</ele><time>2026-04-04T07:52:27.999Z</time></trkpt><trkpt lat="43.63622254400797" lon="10.655001999379472"><ele>29.0</ele><time>2026-04-04T07:52:28.999Z</time></trkpt><trkpt lat="43.636100217680514" lon="10.655148393508483"><ele>29.0</ele><time>2026-04-04T07:52:29.999Z</time></trkpt><trkpt lat="43.635968767287515" lon="10.655284554783186"><ele>28.333333333333332</ele><time>2026-04-04T07:52:30.999Z</time></trkpt><trkpt lat="43.635827568456875" lon="10.65540796368947"><ele>27.666666666666664</ele><time>2026-04-04T07:52:31.999Z</time></trkpt><trkpt lat="43.63567699048621" lon="10.65552331409059"><ele>27.0</ele><time>2026-04-04T07:52:32.999Z</time></trkpt><trkpt lat="43.63552329349054" lon="10.655636967380323"><ele>27.0</ele><time>2026-04-04T07:52:33.999Z</time></trkpt><trkpt lat="43.63537135899196" lon="10.655749676530549"><ele>27.0</ele><time>2026-04-04T07:52:34.999Z</time></trkpt><trkpt lat="43.63522011312242" lon="10.655860486009514"><ele>27.0</ele><time>2026-04-04T07:52:35.999Z</time></trkpt><trkpt lat="43.63506933062961" lon="10.655975504252872"><ele>27.0</ele><time>2026-04-04T07:52:36.999Z</time></trkpt><trkpt lat="43.634917725500586" lon="10.656093349368112"><ele>27.0</ele><time>2026-04-04T07:52:37.999Z</time></trkpt><trkpt lat="43.634765425126204" lon="10.656212345339204"><ele>27.0</ele><time>2026-04-04T07:52:38.999Z</time></trkpt><trkpt lat="43.63461477759224" lon="10.656328994359367"><ele>26.666666666666664</ele><time>2026-04-04T07:52:39.999Z</time></trkpt><trkpt lat="43.63446069425709" lon="10.656446625731201"><ele>26.333333333333332</ele><time>2026-04-04T07:52:40.999Z</time></trkpt><trkpt lat="43.63430942356269" lon="10.656564268265157"><ele>26.0</ele><time>2026-04-04T07:52:41.999Z</time></trkpt><trkpt lat="43.63415633787901" lon="10.656681618382898"><ele>26.0</ele><time>2026-04-04T07:52:42.999Z</time></trkpt><trkpt lat="43.63400970209973" lon="10.656798087473849"><ele>26.0</ele><time>2026-04-04T07:52:43.999Z</time></trkpt><trkpt lat="43.633860618414616" lon="10.656915520230735"><ele>26.0</ele><time>2026-04-04T07:52:44.999Z</time></trkpt><trkpt lat="43.633710682664244" lon="10.65703399200541"><ele>25.666666666666664</ele><time>2026-04-04T07:52:45.999Z</time></trkpt><trkpt lat="43.63356038849569" lon="10.657147167410434"><ele>25.333333333333336</ele><time>2026-04-04T07:52:46.999Z</time></trkpt><trkpt lat="43.633411615597474" lon="10.657258324733117"><ele>25.0</ele><time>2026-04-04T07:52:47.999Z</time></trkpt><trkpt lat="43.633265820893044" lon="10.657372013592866"><ele>25.0</ele><time>2026-04-04T07:52:48.999Z</time></trkpt><trkpt lat="43.633114113862916" lon="10.657492239989992"><ele>25.0</ele><time>2026-04-04T07:52:49.999Z</time></trkpt><trkpt lat="43.632958512649296" lon="10.657614208664256"><ele>25.0</ele><time>2026-04-04T07:52:50.999Z</time></trkpt><trkpt lat="43.632803689836415" lon="10.657733319805335"><ele>24.333333333333336</ele><time>2026-04-04T07:52:51.999Z</time></trkpt><trkpt lat="43.63264721563822" lon="10.657857365404798"><ele>23.666666666666668</ele><time>2026-04-04T07:52:52.999Z</time></trkpt><trkpt lat="43.632487305116925" lon="10.6579791834339"><ele>23.0</ele><time>2026-04-04T07:52:53.999Z</time></trkpt><trkpt lat="43.63233013007202" lon="10.658100192424389"><ele>23.0</ele><time>2026-04-04T07:52:54.999Z</time></trkpt><trkpt lat="43.63216865033817" lon="10.658222453854624"><ele>23.0</ele><time>2026-04-04T07:52:55.999Z</time></trkpt><trkpt lat="43.6320014131215" lon="10.658346417625676"><ele>23.0</ele><time>2026-04-04T07:52:56.999Z</time></trkpt><trkpt lat="43.63183103735279" lon="10.658465850593757"><ele>22.666666666666668</ele><time>2026-04-04T07:52:57.999Z</time></trkpt><trkpt lat="43.63165832814627" lon="10.658576801047067"><ele>22.333333333333332</ele><time>2026-04-04T07:52:58.999Z</time></trkpt><trkpt lat="43.63148918453206" lon="10.658686519133308"><ele>22.0</ele><time>2026-04-04T07:52:59.999Z</time></trkpt><trkpt lat="43.63131765780659" lon="10.658788367036315"><ele>22.666666666666664</ele><time>2026-04-04T07:53:00.999Z</time></trkpt><trkpt lat="43.63114576105875" lon="10.658883310417696"><ele>23.333333333333332</ele><time>2026-04-04T07:53:01.999Z</time></trkpt><trkpt lat="43.63097722183365" lon="10.658974474610824"><ele>24.0</ele><time>2026-04-04T07:53:02.999Z</time></trkpt><trkpt lat="43.630810520319244" lon="10.659058781955661"><ele>24.0</ele><time>2026-04-04T07:53:03.999Z</time></trkpt><trkpt lat="43.63064426802867" lon="10.659141452691827"><ele>24.0</ele><time>2026-04-04T07:53:04.999Z</time></trkpt><trkpt lat="43.630465870317806" lon="10.659223963620686"><ele>24.0</ele><time>2026-04-04T07:53:05.999Z</time></trkpt><trkpt lat="43.63028839101203" lon="10.6593027974164"><ele>24.333333333333336</ele><time>2026-04-04T07:53:06.999Z</time></trkpt><trkpt lat="43.6301086541357" lon="10.659374086624382"><ele>24.666666666666668</ele><time>2026-04-04T07:53:07.999Z</time></trkpt><trkpt lat="43.62993724880836" lon="10.659442350695796"><ele>25.0</ele><time>2026-04-04T07:53:08.999Z</time></trkpt><trkpt lat="43.62976108519445" lon="10.65950477239805"><ele>25.333333333333336</ele><time>2026-04-04T07:53:10Z</time></trkpt><trkpt lat="43.62958739136029" lon="10.65956068664839"><ele>25.666666666666664</ele><time>2026-04-04T07:53:11Z</time></trkpt><trkpt lat="43.629412557072186" lon="10.659617893770065"><ele>26.0</ele><time>2026-04-04T07:53:12Z</time></trkpt><trkpt lat="43.629245086117535" lon="10.659669639511344"><ele>26.0</ele><time>2026-04-04T07:53:13Z</time></trkpt><trkpt lat="43.62907746763673" lon="10.659719091387123"><ele>26.0</ele><time>2026-04-04T07:53:14Z</time></trkpt><trkpt lat="43.628913820937896" lon="10.659761276111762"><ele>26.0</ele><time>2026-04-04T07:53:15Z</time></trkpt><trkpt lat="43.62875831309674" lon="10.659791175975398"><ele>26.25</ele><time>2026-04-04T07:53:16Z</time></trkpt><trkpt lat="43.62861946059751" lon="10.659821038520434"><ele>26.5</ele><time>2026-04-04T07:53:17Z</time></trkpt><trkpt lat="43.62849116691378" lon="10.659819646433"><ele>26.75</ele><time>2026-04-04T07:53:18Z</time></trkpt><trkpt lat="43.62837498176737" lon="10.659780047827754"><ele>27.0</ele><time>2026-04-04T07:53:19Z</time></trkpt><trkpt lat="43.62825668633075" lon="10.659687560806123"><ele>27.0</ele><time>2026-04-04T07:53:20Z</time></trkpt><trkpt lat="43.628142949231595" lon="10.6595699993496"><ele>27.0</ele><time>2026-04-04T07:53:21Z</time></trkpt><trkpt lat="43.62805303310137" lon="10.659416920017094"><ele>27.0</ele><time>2026-04-04T07:53:22Z</time></trkpt><trkpt lat="43.62793657745012" lon="10.658971656525319"><ele>27.333333333333336</ele><time>2026-04-04T07:53:24Z</time></trkpt><trkpt lat="43.62789862734185" lon="10.658720705321395"><ele>27.666666666666668</ele><time>2026-04-04T07:53:25Z</time></trkpt><trkpt lat="43.62786752085881" lon="10.658505500429722"><ele>28.0</ele><time>2026-04-04T07:53:26Z</time></trkpt><trkpt lat="43.62783614790431" lon="10.65830286599557"><ele>28.25</ele><time>2026-04-04T07:53:27Z</time></trkpt><trkpt lat="43.62780397126079" lon="10.658104568360908"><ele>28.5</ele><time>2026-04-04T07:53:28Z</time></trkpt><trkpt lat="43.62777324487056" lon="10.657912429635164"><ele>28.75</ele><time>2026-04-04T07:53:29Z</time></trkpt><trkpt lat="43.62774253054224" lon="10.657723836924779"><ele>29.0</ele><time>2026-04-04T07:53:30Z</time></trkpt><trkpt lat="43.62771177923231" lon="10.657536442024103"><ele>29.0</ele><time>2026-04-04T07:53:31Z</time></trkpt><trkpt lat="43.62767825984203" lon="10.657353041452284"><ele>29.0</ele><time>2026-04-04T07:53:32Z</time></trkpt><trkpt lat="43.627641089627694" lon="10.657163715915507"><ele>29.0</ele><time>2026-04-04T07:53:33Z</time></trkpt><trkpt lat="43.62760659761108" lon="10.6569784611497"><ele>29.0</ele><time>2026-04-04T07:53:34Z</time></trkpt><trkpt lat="43.62755677342826" lon="10.656790724065253"><ele>29.333333333333332</ele><time>2026-04-04T07:53:35Z</time></trkpt><trkpt lat="43.62750360479563" lon="10.656602240467588"><ele>29.666666666666664</ele><time>2026-04-04T07:53:36Z</time></trkpt><trkpt lat="43.627444115940776" lon="10.65640782470871"><ele>30.0</ele><time>2026-04-04T07:53:37Z</time></trkpt><trkpt lat="43.62737351825373" lon="10.656207780212881"><ele>29.333333333333336</ele><time>2026-04-04T07:53:38Z</time></trkpt><trkpt lat="43.627299534257574" lon="10.656010314837319"><ele>28.666666666666668</ele><time>2026-04-04T07:53:39Z</time></trkpt><trkpt lat="43.627219339126" lon="10.655814459383182"><ele>28.0</ele><time>2026-04-04T07:53:40Z</time></trkpt><trkpt lat="43.62713325784859" lon="10.655618230006345"><ele>28.0</ele><time>2026-04-04T07:53:41Z</time></trkpt><trkpt lat="43.62704256738294" lon="10.655424961586137"><ele>28.0</ele><time>2026-04-04T07:53:42Z</time></trkpt><trkpt lat="43.626944137027486" lon="10.655239363763952"><ele>28.0</ele><time>2026-04-04T07:53:43Z</time></trkpt><trkpt lat="43.62684164560335" lon="10.65505955344702"><ele>27.0</ele><time>2026-04-04T07:53:44Z</time></trkpt><trkpt lat="43.626734212757384" lon="10.654881385177008"><ele>26.0</ele><time>2026-04-04T07:53:45Z</time></trkpt><trkpt lat="43.6266215924238" lon="10.654707653642529"><ele>25.0</ele><time>2026-04-04T07:53:46Z</time></trkpt><trkpt lat="43.62650313746374" lon="10.654532926859858"><ele>24.333333333333336</ele><time>2026-04-04T07:53:47Z</time></trkpt><trkpt lat="43.62638010755397" lon="10.654373354025946"><ele>23.666666666666668</ele><time>2026-04-04T07:53:48Z</time></trkpt><trkpt lat="43.62625284511924" lon="10.654223667083786"><ele>23.0</ele><time>2026-04-04T07:53:49Z</time></trkpt><trkpt lat="43.62611946051898" lon="10.654086953918025"><ele>23.0</ele><time>2026-04-04T07:53:50Z</time></trkpt><trkpt lat="43.62598610880226" lon="10.653951273172746"><ele>23.0</ele><time>2026-04-04T07:53:51Z</time></trkpt><trkpt lat="43.62584344422812" lon="10.653808328707003"><ele>23.0</ele><time>2026-04-04T07:53:52Z</time></trkpt><trkpt lat="43.62569845772998" lon="10.653670904105121"><ele>23.0</ele><time>2026-04-04T07:53:53Z</time></trkpt><trkpt lat="43.62555564284269" lon="10.653535900820705"><ele>23.0</ele><time>2026-04-04T07:53:54Z</time></trkpt><trkpt lat="43.625416720234206" lon="10.653394000163392"><ele>23.0</ele><time>2026-04-04T07:53:55Z</time></trkpt><trkpt lat="43.625280537925995" lon="10.653252996872974"><ele>22.666666666666668</ele><time>2026-04-04T07:53:56Z</time></trkpt><trkpt lat="43.62515109538358" lon="10.653095934568212"><ele>22.333333333333332</ele><time>2026-04-04T07:53:57Z</time></trkpt><trkpt lat="43.62503381894621" lon="10.652910769625803"><ele>22.0</ele><time>2026-04-04T07:53:58Z</time></trkpt><trkpt lat="43.62490885034203" lon="10.652739062866337"><ele>22.0</ele><time>2026-04-04T07:53:59Z</time></trkpt><trkpt lat="43.624798127230335" lon="10.652538460042097"><ele>22.0</ele><time>2026-04-04T07:54:00Z</time></trkpt><trkpt lat="43.624689191349866" lon="10.652349164014792"><ele>22.0</ele><time>2026-04-04T07:54:01Z</time></trkpt><trkpt lat="43.62457888123075" lon="10.652160267357331"><ele>21.666666666666664</ele><time>2026-04-04T07:54:02Z</time></trkpt><trkpt lat="43.62446597516004" lon="10.651968727552719"><ele>21.333333333333332</ele><time>2026-04-04T07:54:03Z</time></trkpt><trkpt lat="43.624351202816946" lon="10.651775941899151"><ele>21.0</ele><time>2026-04-04T07:54:04Z</time></trkpt><trkpt lat="43.62423821798137" lon="10.651585115650569"><ele>21.666666666666668</ele><time>2026-04-04T07:54:05Z</time></trkpt><trkpt lat="43.624122499734675" lon="10.65139524500145"><ele>22.333333333333336</ele><time>2026-04-04T07:54:05.999Z</time></trkpt><trkpt lat="43.624003844259384" lon="10.651199709509788"><ele>23.0</ele><time>2026-04-04T07:54:06.999Z</time></trkpt><trkpt lat="43.623886284980706" lon="10.651004559963503"><ele>23.0</ele><time>2026-04-04T07:54:07.999Z</time></trkpt><trkpt lat="43.62376910480242" lon="10.650803887299334"><ele>23.0</ele><time>2026-04-04T07:54:08.999Z</time></trkpt><trkpt lat="43.62365128506063" lon="10.650605204852136"><ele>23.0</ele><time>2026-04-04T07:54:09.999Z</time></trkpt><trkpt lat="43.623531736741235" lon="10.650404355281594"><ele>22.666666666666668</ele><time>2026-04-04T07:54:10.999Z</time></trkpt><trkpt lat="43.62341085381896" lon="10.650202533179735"><ele>22.333333333333332</ele><time>2026-04-04T07:54:11.999Z</time></trkpt><trkpt lat="43.623288766226295" lon="10.650001993152907"><ele>22.0</ele><time>2026-04-04T07:54:12.999Z</time></trkpt><trkpt lat="43.62316785666167" lon="10.649801680991567"><ele>22.0</ele><time>2026-04-04T07:54:13.999Z</time></trkpt><trkpt lat="43.6230483069554" lon="10.649602162328797"><ele>22.0</ele><time>2026-04-04T07:54:14.999Z</time></trkpt><trkpt lat="43.62292885866667" lon="10.649400526531927"><ele>22.0</ele><time>2026-04-04T07:54:15.999Z</time></trkpt><trkpt lat="43.62281022605005" lon="10.649201898860094"><ele>22.0</ele><time>2026-04-04T07:54:16.999Z</time></trkpt><trkpt lat="43.622690709588014" lon="10.649001193049502"><ele>22.0</ele><time>2026-04-04T07:54:17.999Z</time></trkpt><trkpt lat="43.62257276435738" lon="10.648803301560918"><ele>22.0</ele><time>2026-04-04T07:54:18.999Z</time></trkpt><trkpt lat="43.62245473163381" lon="10.648603027862713"><ele>22.0</ele><time>2026-04-04T07:54:19.999Z</time></trkpt><trkpt lat="43.62233533969302" lon="10.648401427258495"><ele>22.0</ele><time>2026-04-04T07:54:20.999Z</time></trkpt><trkpt lat="43.6222151895279" lon="10.648199170617866"><ele>22.0</ele><time>2026-04-04T07:54:21.999Z</time></trkpt><trkpt lat="43.62209369911303" lon="10.647996542789983"><ele>22.0</ele><time>2026-04-04T07:54:22.999Z</time></trkpt><trkpt lat="43.62197352486215" lon="10.64779715004834"><ele>22.0</ele><time>2026-04-04T07:54:23.999Z</time></trkpt><trkpt lat="43.62185451174324" lon="10.647595020158997"><ele>22.0</ele><time>2026-04-04T07:54:24.999Z</time></trkpt><trkpt lat="43.621737893216086" lon="10.647400316193986"><ele>21.666666666666664</ele><time>2026-04-04T07:54:25.999Z</time></trkpt><trkpt lat="43.62162172629243" lon="10.64720707038419"><ele>21.333333333333332</ele><time>2026-04-04T07:54:26.999Z</time></trkpt><trkpt lat="43.6215061526805" lon="10.647013607648429"><ele>21.0</ele><time>2026-04-04T07:54:27.999Z</time></trkpt><trkpt lat="43.62138504425195" lon="10.646823762429463"><ele>21.0</ele><time>2026-04-04T07:54:28.999Z</time></trkpt><trkpt lat="43.621270841255146" lon="10.646632250149167"><ele>21.0</ele><time>2026-04-04T07:54:29.999Z</time></trkpt><trkpt lat="43.62115474407166" lon="10.64644478619007"><ele>21.0</ele><time>2026-04-04T07:54:30.999Z</time></trkpt><trkpt lat="43.62103613342548" lon="10.64626575591141"><ele>21.0</ele><time>2026-04-04T07:54:31.999Z</time></trkpt><trkpt lat="43.620905390378624" lon="10.646109600941337"><ele>21.0</ele><time>2026-04-04T07:54:32.999Z</time></trkpt><trkpt lat="43.620757111370736" lon="10.645986606946483"><ele>21.0</ele><time>2026-04-04T07:54:33.999Z</time></trkpt><trkpt lat="43.62060045423564" lon="10.645871493581637"><ele>21.0</ele><time>2026-04-04T07:54:34.999Z</time></trkpt><trkpt lat="43.620447657106325" lon="10.645770312726267"><ele>21.0</ele><time>2026-04-04T07:54:35.999Z</time></trkpt><trkpt lat="43.62030740700738" lon="10.64568284271056"><ele>21.0</ele><time>2026-04-04T07:54:36.999Z</time></trkpt><trkpt lat="43.62018842660526" lon="10.645604992373343"><ele>21.200000000000003</ele><time>2026-04-04T07:54:37.999Z</time></trkpt><trkpt lat="43.620086449057226" lon="10.64553712657025"><ele>21.400000000000002</ele><time>2026-04-04T07:54:38.999Z</time></trkpt><trkpt lat="43.620000186872076" lon="10.645478589650537"><ele>21.6</ele><time>2026-04-04T07:54:39.999Z</time></trkpt><trkpt lat="43.61992713579341" lon="10.645431137923529"><ele>21.8</ele><time>2026-04-04T07:54:40.999Z</time></trkpt><trkpt lat="43.61983612403692" lon="10.645367865506612"><ele>22.0</ele><time>2026-04-04T07:54:42.999Z</time></trkpt><trkpt lat="43.61977087140167" lon="10.645315961657198"><ele>22.285714285714285</ele><time>2026-04-04T07:54:47.999Z</time></trkpt><trkpt lat="43.6196975402823" lon="10.645210582750243"><ele>22.57142857142857</ele><time>2026-04-04T07:54:49.999Z</time></trkpt><trkpt lat="43.61965368636349" lon="10.645142092631403"><ele>22.857142857142854</ele><time>2026-04-04T07:54:50.999Z</time></trkpt><trkpt lat="43.619597514205715" lon="10.64508783979621"><ele>23.142857142857142</ele><time>2026-04-04T07:54:51.999Z</time></trkpt><trkpt lat="43.619597992359104" lon="10.644992190872475"><ele>23.428571428571427</ele><time>2026-04-04T07:54:52.999Z</time></trkpt><trkpt lat="43.61958160069716" lon="10.64490572945337"><ele>23.71428571428571</ele><time>2026-04-04T07:54:53.999Z</time></trkpt><trkpt lat="43.61956351340261" lon="10.644806476990198"><ele>24.0</ele><time>2026-04-04T07:54:54.999Z</time></trkpt><trkpt lat="43.61954663799214" lon="10.644704965746"><ele>23.999999999999996</ele><time>2026-04-04T07:54:55.999Z</time></trkpt><trkpt lat="43.61953100842406" lon="10.64461094889644"><ele>24.0</ele><time>2026-04-04T07:54:56.999Z</time></trkpt><trkpt lat="43.61951553208165" lon="10.644517853735941"><ele>24.0</ele><time>2026-04-04T07:54:57.999Z</time></trkpt><trkpt lat="43.61950013983327" lon="10.644425264288707"><ele>24.0</ele><time>2026-04-04T07:54:58.999Z</time></trkpt><trkpt lat="43.61948224663189" lon="10.644332881096696"><ele>24.0</ele><time>2026-04-04T07:54:59.999Z</time></trkpt><trkpt lat="43.61946238326748" lon="10.644239828238945"><ele>23.999999999999996</ele><time>2026-04-04T07:55:00.999Z</time></trkpt><trkpt lat="43.61942869000799" lon="10.644150560920888"><ele>24.0</ele><time>2026-04-04T07:55:01.999Z</time></trkpt><trkpt lat="43.61938458269199" lon="10.644062615417877"><ele>23.666666666666668</ele><time>2026-04-04T07:55:02.999Z</time></trkpt><trkpt lat="43.61932889437188" lon="10.643976264616239"><ele>23.333333333333332</ele><time>2026-04-04T07:55:03.999Z</time></trkpt><trkpt lat="43.61925353340792" lon="10.643901813335836"><ele>23.0</ele><time>2026-04-04T07:55:04.999Z</time></trkpt><trkpt lat="43.6191613454011" lon="10.6438842378412"><ele>22.666666666666664</ele><time>2026-04-04T07:55:05.999Z</time></trkpt><trkpt lat="43.61908823239991" lon="10.643826152123271"><ele>22.333333333333332</ele><time>2026-04-04T07:55:06.999Z</time></trkpt><trkpt lat="43.61901750605839" lon="10.643787744461855"><ele>22.0</ele><time>2026-04-04T07:55:07.999Z</time></trkpt><trkpt lat="43.61894471263105" lon="10.643749034565007"><ele>22.0</ele><time>2026-04-04T07:55:08.999Z</time></trkpt><trkpt lat="43.61886901553291" lon="10.643709325798811"><ele>22.0</ele><time>2026-04-04T07:55:09.999Z</time></trkpt><trkpt lat="43.618796032470684" lon="10.643671040926044"><ele>22.0</ele><time>2026-04-04T07:55:10.999Z</time></trkpt><trkpt lat="43.61872256053732" lon="10.643632499403733"><ele>22.0</ele><time>2026-04-04T07:55:11.999Z</time></trkpt><trkpt lat="43.618586037196344" lon="10.64355426976409"><ele>22.0</ele><time>2026-04-04T07:55:13.999Z</time></trkpt><trkpt lat="43.6185204435453" lon="10.643506552682583"><ele>22.0</ele><time>2026-04-04T07:55:14.999Z</time></trkpt><trkpt lat="43.61847406274136" lon="10.643444901575554"><ele>22.0</ele><time>2026-04-04T07:55:16Z</time></trkpt><trkpt lat="43.61846222248245" lon="10.643358204465285"><ele>22.0</ele><time>2026-04-04T07:55:17Z</time></trkpt><trkpt lat="43.61847535086947" lon="10.643257081568429"><ele>22.0</ele><time>2026-04-04T07:55:18Z</time></trkpt><trkpt lat="43.61850102166764" lon="10.64315210448628"><ele>22.0</ele><time>2026-04-04T07:55:19Z</time></trkpt><trkpt lat="43.61852569071663" lon="10.643032511211228"><ele>22.0</ele><time>2026-04-04T07:55:20Z</time></trkpt><trkpt lat="43.61855961008056" lon="10.642917619099332"><ele>22.0</ele><time>2026-04-04T07:55:21Z</time></trkpt><trkpt lat="43.61860293995784" lon="10.64279880863594"><ele>22.0</ele><time>2026-04-04T07:55:22Z</time></trkpt><trkpt lat="43.61867273967923" lon="10.642709719689321"><ele>22.0</ele><time>2026-04-04T07:55:23Z</time></trkpt><trkpt lat="43.61873891075658" lon="10.642611482647762"><ele>22.0</ele><time>2026-04-04T07:55:24Z</time></trkpt><trkpt lat="43.618798106510006" lon="10.642532876327953"><ele>22.0</ele><time>2026-04-04T07:55:25Z</time></trkpt><trkpt lat="43.618848893526845" lon="10.642454484957723"><ele>22.0</ele><time>2026-04-04T07:55:26Z</time></trkpt><trkpt lat="43.61889787658329" lon="10.64237850183611"><ele>22.0</ele><time>2026-04-04T07:55:27Z</time></trkpt><trkpt lat="43.618939707999814" lon="10.64230000955582"><ele>22.0</ele><time>2026-04-04T07:55:28Z</time></trkpt><trkpt lat="43.618974484827326" lon="10.642213128367398"><ele>22.0</ele><time>2026-04-04T07:55:29Z</time></trkpt><trkpt lat="43.619003002913495" lon="10.642115839166896"><ele>22.0</ele><time>2026-04-04T07:55:30Z</time></trkpt><trkpt lat="43.61901915160625" lon="10.642015158942343"><ele>22.0</ele><time>2026-04-04T07:55:31Z</time></trkpt><trkpt lat="43.61902681021198" lon="10.641912595156413"><ele>22.0</ele><time>2026-04-04T07:55:32Z</time></trkpt><trkpt lat="43.61903113950512" lon="10.641816399332791"><ele>22.0</ele><time>2026-04-04T07:55:33Z</time></trkpt><trkpt lat="43.619036810133345" lon="10.641722550017096"><ele>22.166666666666664</ele><time>2026-04-04T07:55:34Z</time></trkpt><trkpt lat="43.61903819690718" lon="10.641623217112173"><ele>22.333333333333332</ele><time>2026-04-04T07:55:35Z</time></trkpt><trkpt lat="43.61905700882586" lon="10.641509902995741"><ele>22.5</ele><time>2026-04-04T07:55:36Z</time></trkpt><trkpt lat="43.61904321825879" lon="10.641396234721594"><ele>22.666666666666668</ele><time>2026-04-04T07:55:37Z</time></trkpt><trkpt lat="43.61904872379484" lon="10.641291723593211"><ele>22.833333333333336</ele><time>2026-04-04T07:55:38Z</time></trkpt><trkpt lat="43.61905127220515" lon="10.641183584101162"><ele>23.0</ele><time>2026-04-04T07:55:39Z</time></trkpt><trkpt lat="43.61905256397515" lon="10.64106367328917"><ele>23.166666666666668</ele><time>2026-04-04T07:55:40Z</time></trkpt><trkpt lat="43.61905346646792" lon="10.640943668024173"><ele>23.333333333333336</ele><time>2026-04-04T07:55:41Z</time></trkpt><trkpt lat="43.61905412894098" lon="10.640821617724624"><ele>23.5</ele><time>2026-04-04T07:55:42Z</time></trkpt><trkpt lat="43.619057292597766" lon="10.640699606046482"><ele>23.666666666666668</ele><time>2026-04-04T07:55:43Z</time></trkpt><trkpt lat="43.6190605468736" lon="10.640573388734618"><ele>23.833333333333332</ele><time>2026-04-04T07:55:44Z</time></trkpt><trkpt lat="43.61906494771856" lon="10.640446773971775"><ele>24.0</ele><time>2026-04-04T07:55:45Z</time></trkpt><trkpt lat="43.61906580183037" lon="10.640316079431189"><ele>24.4</ele><time>2026-04-04T07:55:46Z</time></trkpt><trkpt lat="43.61906730448633" lon="10.640183255190617"><ele>24.799999999999997</ele><time>2026-04-04T07:55:47Z</time></trkpt><trkpt lat="43.61907239730792" lon="10.64005038119958"><ele>25.200000000000003</ele><time>2026-04-04T07:55:48Z</time></trkpt><trkpt lat="43.61907383907239" lon="10.639925097259507"><ele>25.6</ele><time>2026-04-04T07:55:49Z</time></trkpt><trkpt lat="43.619075641861805" lon="10.639793979165715"><ele>26.0</ele><time>2026-04-04T07:55:50Z</time></trkpt><trkpt lat="43.61907720421723" lon="10.63966355841037"><ele>26.0</ele><time>2026-04-04T07:55:51Z</time></trkpt><trkpt lat="43.619079796463645" lon="10.639530996398426"><ele>26.0</ele><time>2026-04-04T07:55:52Z</time></trkpt><trkpt lat="43.61908325210284" lon="10.63940090860594"><ele>26.0</ele><time>2026-04-04T07:55:53Z</time></trkpt><trkpt lat="43.61908637720805" lon="10.639266729645692"><ele>26.0</ele><time>2026-04-04T07:55:54Z</time></trkpt><trkpt lat="43.619093473250196" lon="10.638980877360458"><ele>25.833333333333332</ele><time>2026-04-04T07:55:56Z</time></trkpt><trkpt lat="43.6190972973171" lon="10.638857201385884"><ele>25.666666666666664</ele><time>2026-04-04T07:55:57Z</time></trkpt><trkpt lat="43.619098061256835" lon="10.638749525808974"><ele>25.5</ele><time>2026-04-04T07:55:58Z</time></trkpt><trkpt lat="43.61909786983317" lon="10.638640833150337"><ele>25.333333333333336</ele><time>2026-04-04T07:55:59Z</time></trkpt><trkpt lat="43.61910268737682" lon="10.638544836127709"><ele>25.166666666666668</ele><time>2026-04-04T07:56:00Z</time></trkpt><trkpt lat="43.61909624661751" lon="10.638413123832143"><ele>25.0</ele><time>2026-04-04T07:56:02Z</time></trkpt><trkpt lat="43.61890891795043" lon="10.638338738015486"><ele>25.000000000000004</ele><time>2026-04-04T07:56:05Z</time></trkpt><trkpt lat="43.61882202639802" lon="10.63833081928776"><ele>25.0</ele><time>2026-04-04T07:56:06Z</time></trkpt><trkpt lat="43.61872679718662" lon="10.638281548382524"><ele>25.0</ele><time>2026-04-04T07:56:07Z</time></trkpt><trkpt lat="43.61863703960561" lon="10.638253987412348"><ele>25.0</ele><time>2026-04-04T07:56:07.999Z</time></trkpt><trkpt lat="43.61854578740086" lon="10.638225967532518"><ele>25.000000000000004</ele><time>2026-04-04T07:56:08.999Z</time></trkpt><trkpt lat="43.61847408312056" lon="10.638203950069316"><ele>25.0</ele><time>2026-04-04T07:56:09.999Z</time></trkpt><trkpt lat="43.61839543956718" lon="10.638179801769885"><ele>25.000000000000004</ele><time>2026-04-04T07:56:10.999Z</time></trkpt><trkpt lat="43.61831628248483" lon="10.638155486902846"><ele>25.0</ele><time>2026-04-04T07:56:11.999Z</time></trkpt><trkpt lat="43.618240164996585" lon="10.638131958401905"><ele>25.0</ele><time>2026-04-04T07:56:12.999Z</time></trkpt><trkpt lat="43.61816525189083" lon="10.638108802183714"><ele>25.0</ele><time>2026-04-04T07:56:13.999Z</time></trkpt><trkpt lat="43.61809754964503" lon="10.638087874888685"><ele>25.000000000000004</ele><time>2026-04-04T07:56:14.999Z</time></trkpt><trkpt lat="43.61803239645957" lon="10.638067735530187"><ele>25.0</ele><time>2026-04-04T07:56:15.999Z</time></trkpt><trkpt lat="43.617922002031385" lon="10.638033611736935"><ele>25.000000000000004</ele><time>2026-04-04T07:56:17.999Z</time></trkpt><trkpt lat="43.61783032312509" lon="10.63800527310525"><ele>25.0</ele><time>2026-04-04T07:56:19.999Z</time></trkpt><trkpt lat="43.61776275214824" lon="10.638007506241928"><ele>25.0</ele><time>2026-04-04T07:56:22.999Z</time></trkpt><trkpt lat="43.617675847986824" lon="10.637974278789972"><ele>25.0</ele><time>2026-04-04T07:56:32.999Z</time></trkpt><trkpt lat="43.61761408361568" lon="10.637926697745616"><ele>25.000000000000004</ele><time>2026-04-04T07:56:36.999Z</time></trkpt><trkpt lat="43.617538267912764" lon="10.63785719533377"><ele>25.0</ele><time>2026-04-04T07:56:39.999Z</time></trkpt><trkpt lat="43.617419701379944" lon="10.638025524120142"><ele>25.25</ele><time>2026-04-04T07:56:40.999Z</time></trkpt><trkpt lat="43.61735991535095" lon="10.638136353330077"><ele>25.5</ele><time>2026-04-04T07:56:41.999Z</time></trkpt><trkpt lat="43.61727272961803" lon="10.638245987603995"><ele>25.75</ele><time>2026-04-04T07:56:42.999Z</time></trkpt><trkpt lat="43.61718790207496" lon="10.638358321451639"><ele>26.0</ele><time>2026-04-04T07:56:43.999Z</time></trkpt><trkpt lat="43.61710577968777" lon="10.638468040208961"><ele>26.0</ele><time>2026-04-04T07:56:44.999Z</time></trkpt><trkpt lat="43.61702447233043" lon="10.638575890434128"><ele>26.0</ele><time>2026-04-04T07:56:45.999Z</time></trkpt><trkpt lat="43.616945857159806" lon="10.638681233643766"><ele>26.0</ele><time>2026-04-04T07:56:46.999Z</time></trkpt><trkpt lat="43.616867447689955" lon="10.638782359365154"><ele>26.0</ele><time>2026-04-04T07:56:47.999Z</time></trkpt><trkpt lat="43.61678664846407" lon="10.63888646112852"><ele>26.0</ele><time>2026-04-04T07:56:48.999Z</time></trkpt><trkpt lat="43.616697204250436" lon="10.638984176475368"><ele>25.75</ele><time>2026-04-04T07:56:49.999Z</time></trkpt><trkpt lat="43.61660336555924" lon="10.639076021929293"><ele>25.5</ele><time>2026-04-04T07:56:50.999Z</time></trkpt><trkpt lat="43.61650808592526" lon="10.639165442749533"><ele>25.25</ele><time>2026-04-04T07:56:51.999Z</time></trkpt><trkpt lat="43.61647215869104" lon="10.639319320557544"><ele>25.0</ele><time>2026-04-04T07:56:52.999Z</time></trkpt><trkpt lat="43.61640514134746" lon="10.639449518310302"><ele>25.0</ele><time>2026-04-04T07:56:53.999Z</time></trkpt><trkpt lat="43.61632543917732" lon="10.639573444993008"><ele>25.0</ele><time>2026-04-04T07:56:54.999Z</time></trkpt><trkpt lat="43.61624050853761" lon="10.639695264859395"><ele>25.0</ele><time>2026-04-04T07:56:55.999Z</time></trkpt><trkpt lat="43.61618637747952" lon="10.639846585016972"><ele>25.0</ele><time>2026-04-04T07:56:56.999Z</time></trkpt><trkpt lat="43.61611562360662" lon="10.639982119534203"><ele>25.0</ele><time>2026-04-04T07:56:57.999Z</time></trkpt><trkpt lat="43.616042133559546" lon="10.64011489594203"><ele>25.0</ele><time>2026-04-04T07:56:58.999Z</time></trkpt><trkpt lat="43.61596646743009" lon="10.640245434033705"><ele>25.0</ele><time>2026-04-04T07:56:59.999Z</time></trkpt><trkpt lat="43.61587104569745" lon="10.640348346684945"><ele>25.0</ele><time>2026-04-04T07:57:00.999Z</time></trkpt><trkpt lat="43.61578143657925" lon="10.64046590599297"><ele>25.5</ele><time>2026-04-04T07:57:01.999Z</time></trkpt><trkpt lat="43.615671171812124" lon="10.640547104762879"><ele>26.0</ele><time>2026-04-04T07:57:02.999Z</time></trkpt><trkpt lat="43.61555352246402" lon="10.640638389355635"><ele>26.5</ele><time>2026-04-04T07:57:03.999Z</time></trkpt><trkpt lat="43.61543454784662" lon="10.640743812565363"><ele>27.0</ele><time>2026-04-04T07:57:04.999Z</time></trkpt><trkpt lat="43.61531012331951" lon="10.640829517737654"><ele>27.0</ele><time>2026-04-04T07:57:05.999Z</time></trkpt><trkpt lat="43.615190101169524" lon="10.640912766901776"><ele>27.0</ele><time>2026-04-04T07:57:06.999Z</time></trkpt><trkpt lat="43.615076312382946" lon="10.640996776726606"><ele>27.0</ele><time>2026-04-04T07:57:07.999Z</time></trkpt><trkpt lat="43.61495946450962" lon="10.641079922332501"><ele>27.0</ele><time>2026-04-04T07:57:08.999Z</time></trkpt><trkpt lat="43.61484251140955" lon="10.641166072151986"><ele>26.666666666666664</ele><time>2026-04-04T07:57:09.999Z</time></trkpt><trkpt lat="43.61471723228613" lon="10.641253837426582"><ele>26.333333333333332</ele><time>2026-04-04T07:57:10.999Z</time></trkpt><trkpt lat="43.614584775175985" lon="10.641343994056745"><ele>26.0</ele><time>2026-04-04T07:57:11.999Z</time></trkpt><trkpt lat="43.6144382154234" lon="10.641441938472893"><ele>25.666666666666664</ele><time>2026-04-04T07:57:12.999Z</time></trkpt><trkpt lat="43.614278951316656" lon="10.64151223291238"><ele>25.333333333333336</ele><time>2026-04-04T07:57:13.999Z</time></trkpt><trkpt lat="43.614150883762306" lon="10.641600876182133"><ele>25.0</ele><time>2026-04-04T07:57:14.999Z</time></trkpt><trkpt lat="43.614017461690615" lon="10.64165557294968"><ele>25.0</ele><time>2026-04-04T07:57:15.999Z</time></trkpt><trkpt lat="43.613886418454186" lon="10.641700005673542"><ele>25.0</ele><time>2026-04-04T07:57:16.999Z</time></trkpt><trkpt lat="43.613760676299904" lon="10.641737402954464"><ele>25.0</ele><time>2026-04-04T07:57:17.999Z</time></trkpt><trkpt lat="43.61363470037725" lon="10.64178297724466"><ele>25.0</ele><time>2026-04-04T07:57:18.999Z</time></trkpt><trkpt lat="43.61351244823227" lon="10.641837221451997"><ele>25.25</ele><time>2026-04-04T07:57:19.999Z</time></trkpt><trkpt lat="43.61339019646997" lon="10.641899274560107"><ele>25.5</ele><time>2026-04-04T07:57:20.999Z</time></trkpt><trkpt lat="43.613267021477036" lon="10.641972629840978"><ele>25.75</ele><time>2026-04-04T07:57:22Z</time></trkpt><trkpt lat="43.613144450357204" lon="10.642069841496962"><ele>26.0</ele><time>2026-04-04T07:57:23Z</time></trkpt><trkpt lat="43.61302619257686" lon="10.642179126834098"><ele>26.5</ele><time>2026-04-04T07:57:24Z</time></trkpt><trkpt lat="43.61290839655143" lon="10.64229339377377"><ele>27.0</ele><time>2026-04-04T07:57:25Z</time></trkpt><trkpt lat="43.612787270336696" lon="10.642408885257755"><ele>27.5</ele><time>2026-04-04T07:57:26Z</time></trkpt><trkpt lat="43.61264424065802" lon="10.642484178871756"><ele>28.0</ele><time>2026-04-04T07:57:27Z</time></trkpt><trkpt lat="43.612479030634255" lon="10.642541270535563"><ele>28.333333333333336</ele><time>2026-04-04T07:57:28Z</time></trkpt><trkpt lat="43.612313210047695" lon="10.642588009698722"><ele>28.666666666666664</ele><time>2026-04-04T07:57:29Z</time></trkpt><trkpt lat="43.61216329700456" lon="10.642642469320705"><ele>29.0</ele><time>2026-04-04T07:57:30Z</time></trkpt><trkpt lat="43.612026019453225" lon="10.64268633187306"><ele>29.25</ele><time>2026-04-04T07:57:31Z</time></trkpt><trkpt lat="43.6118952347536" lon="10.642746907653677"><ele>29.5</ele><time>2026-04-04T07:57:32Z</time></trkpt><trkpt lat="43.61177276359345" lon="10.642813187088443"><ele>29.75</ele><time>2026-04-04T07:57:33Z</time></trkpt><trkpt lat="43.6116624228668" lon="10.642877554771928"><ele>30.0</ele><time>2026-04-04T07:57:34Z</time></trkpt><trkpt lat="43.61155748786864" lon="10.642926780233978"><ele>30.0</ele><time>2026-04-04T07:57:35Z</time></trkpt><trkpt lat="43.61145635048525" lon="10.642935411060089"><ele>30.0</ele><time>2026-04-04T07:57:36Z</time></trkpt><trkpt lat="43.61137228289357" lon="10.642955549212791"><ele>30.0</ele><time>2026-04-04T07:57:37Z</time></trkpt><trkpt lat="43.61128824479736" lon="10.642973631401318"><ele>30.0</ele><time>2026-04-04T07:57:38Z</time></trkpt><trkpt lat="43.61121015611874" lon="10.643006591739246"><ele>30.0</ele><time>2026-04-04T07:57:39Z</time></trkpt><trkpt lat="43.61112808625607" lon="10.643018732795651"><ele>30.0</ele><time>2026-04-04T07:57:40Z</time></trkpt><trkpt lat="43.61103799124915" lon="10.643034989319416"><ele>30.2</ele><time>2026-04-04T07:57:41Z</time></trkpt><trkpt lat="43.610942560006656" lon="10.643040441343246"><ele>30.4</ele><time>2026-04-04T07:57:42Z</time></trkpt><trkpt lat="43.61085207622007" lon="10.643021518804384"><ele>30.6</ele><time>2026-04-04T07:57:43Z</time></trkpt><trkpt lat="43.61076919252718" lon="10.642971362105072"><ele>30.8</ele><time>2026-04-04T07:57:44Z</time></trkpt><trkpt lat="43.61070246984372" lon="10.642907977408967"><ele>31.0</ele><time>2026-04-04T07:57:45Z</time></trkpt><trkpt lat="43.61063051354097" lon="10.642824592787628"><ele>30.25</ele><time>2026-04-04T07:57:46Z</time></trkpt><trkpt lat="43.610548881282725" lon="10.642753081553098"><ele>29.5</ele><time>2026-04-04T07:57:47Z</time></trkpt><trkpt lat="43.610455845254734" lon="10.642710243499204"><ele>28.75</ele><time>2026-04-04T07:57:48Z</time></trkpt><trkpt lat="43.6102706836308" lon="10.642720936648775"><ele>28.0</ele><time>2026-04-04T07:57:50Z</time></trkpt><trkpt lat="43.610179077401604" lon="10.64275951159867"><ele>28.333333333333336</ele><time>2026-04-04T07:57:51Z</time></trkpt><trkpt lat="43.610102181205484" lon="10.642828621883234"><ele>28.666666666666668</ele><time>2026-04-04T07:57:52Z</time></trkpt><trkpt lat="43.610041093557335" lon="10.642917211400396"><ele>29.0</ele><time>2026-04-04T07:57:53Z</time></trkpt><trkpt lat="43.609997816881894" lon="10.643020930845418"><ele>29.333333333333336</ele><time>2026-04-04T07:57:54Z</time></trkpt><trkpt lat="43.609971663463554" lon="10.64313349380529"><ele>29.666666666666668</ele><time>2026-04-04T07:57:55Z</time></trkpt><trkpt lat="43.60995619715888" lon="10.643259665766724"><ele>30.0</ele><time>2026-04-04T07:57:56Z</time></trkpt><trkpt lat="43.609961143598476" lon="10.643386113759306"><ele>30.0</ele><time>2026-04-04T07:57:57Z</time></trkpt><trkpt lat="43.60998686013065" lon="10.643503046526881"><ele>30.0</ele><time>2026-04-04T07:57:58Z</time></trkpt><trkpt lat="43.61002549363326" lon="10.643606687533461"><ele>30.0</ele><time>2026-04-04T07:57:59Z</time></trkpt><trkpt lat="43.61006763885775" lon="10.64368491714488"><ele>30.0</ele><time>2026-04-04T07:58:00Z</time></trkpt><trkpt lat="43.609975771081416" lon="10.643804887783055"><ele>30.0</ele><time>2026-04-04T07:58:02Z</time></trkpt><trkpt lat="43.60989619830392" lon="10.643917720741753"><ele>30.666666666666668</ele><time>2026-04-04T07:58:04Z</time></trkpt><trkpt lat="43.609819017180605" lon="10.643992294572676"><ele>31.333333333333336</ele><time>2026-04-04T07:58:06Z</time></trkpt><trkpt lat="43.609757604734405" lon="10.644033880771607"><ele>32.0</ele><time>2026-04-04T07:58:08Z</time></trkpt><trkpt lat="43.60968719754916" lon="10.6439992897986"><ele>32.66666666666667</ele><time>2026-04-04T07:58:10.999Z</time></trkpt><trkpt lat="43.60961765701254" lon="10.643940443779604"><ele>33.333333333333336</ele><time>2026-04-04T07:58:12.999Z</time></trkpt><trkpt lat="43.60956003009212" lon="10.643832538220757"><ele>34.0</ele><time>2026-04-04T07:58:14.999Z</time></trkpt><trkpt lat="43.609520843934625" lon="10.643687107407361"><ele>33.42857142857142</ele><time>2026-04-04T07:58:16.999Z</time></trkpt><trkpt lat="43.609502925859694" lon="10.643600819752276"><ele>32.857142857142854</ele><time>2026-04-04T07:58:17.999Z</time></trkpt><trkpt lat="43.60947604691205" lon="10.64352198909752"><ele>32.285714285714285</ele><time>2026-04-04T07:58:18.999Z</time></trkpt><trkpt lat="43.609451354815356" lon="10.643440067072481"><ele>31.71428571428571</ele><time>2026-04-04T07:58:19.999Z</time></trkpt><trkpt lat="43.60942337988709" lon="10.643356343272938"><ele>31.14285714285714</ele><time>2026-04-04T07:58:20.999Z</time></trkpt><trkpt lat="43.609403079686246" lon="10.643270568709458"><ele>30.571428571428573</ele><time>2026-04-04T07:58:21.999Z</time></trkpt><trkpt lat="43.60937812091308" lon="10.643187518261442"><ele>30.0</ele><time>2026-04-04T07:58:22.999Z</time></trkpt><trkpt lat="43.60934087432866" lon="10.643116897643306"><ele>29.666666666666668</ele><time>2026-04-04T07:58:23.999Z</time></trkpt><trkpt lat="43.6092565162589" lon="10.643016609585896"><ele>29.333333333333336</ele><time>2026-04-04T07:58:25.999Z</time></trkpt><trkpt lat="43.6092001844787" lon="10.642977247585076"><ele>29.0</ele><time>2026-04-04T07:58:26.999Z</time></trkpt><trkpt lat="43.60913015566174" lon="10.642973964701829"><ele>28.666666666666668</ele><time>2026-04-04T07:58:27.999Z</time></trkpt><trkpt lat="43.609069330968005" lon="10.642939610991862"><ele>28.333333333333336</ele><time>2026-04-04T07:58:28.999Z</time></trkpt><trkpt lat="43.608991597593366" lon="10.64292506997441"><ele>28.0</ele><time>2026-04-04T07:58:29.999Z</time></trkpt><trkpt lat="43.608909149892085" lon="10.642912912693973"><ele>28.000000000000004</ele><time>2026-04-04T07:58:30.999Z</time></trkpt><trkpt lat="43.608827637424945" lon="10.642923340665375"><ele>28.0</ele><time>2026-04-04T07:58:31.999Z</time></trkpt><trkpt lat="43.608753485656976" lon="10.642889914823348"><ele>28.0</ele><time>2026-04-04T07:58:32.999Z</time></trkpt><trkpt lat="43.60867916969843" lon="10.642878935356189"><ele>28.0</ele><time>2026-04-04T07:58:33.999Z</time></trkpt><trkpt lat="43.608595627563204" lon="10.642866592807328"><ele>28.000000000000004</ele><time>2026-04-04T07:58:34.999Z</time></trkpt><trkpt lat="43.60851961988081" lon="10.642855363413922"><ele>28.0</ele><time>2026-04-04T07:58:35.999Z</time></trkpt><trkpt lat="43.608441840886286" lon="10.642843872318773"><ele>27.500000000000004</ele><time>2026-04-04T07:58:36.999Z</time></trkpt><trkpt lat="43.60836181341646" lon="10.642832049040122"><ele>27.0</ele><time>2026-04-04T07:58:37.999Z</time></trkpt><trkpt lat="43.60828327500447" lon="10.642820445761336"><ele>26.5</ele><time>2026-04-04T07:58:38.999Z</time></trkpt><trkpt lat="43.6082054378725" lon="10.642831819325872"><ele>26.0</ele><time>2026-04-04T07:58:39.999Z</time></trkpt><trkpt lat="43.60813003206118" lon="10.64279855609112"><ele>25.500000000000004</ele><time>2026-04-04T07:58:40.999Z</time></trkpt><trkpt lat="43.6080524639498" lon="10.642787508602076"><ele>25.0</ele><time>2026-04-04T07:58:41.999Z</time></trkpt><trkpt lat="43.60797808686631" lon="10.642776915492448"><ele>24.833333333333336</ele><time>2026-04-04T07:58:42.999Z</time></trkpt><trkpt lat="43.60790410563853" lon="10.642766378862538"><ele>24.666666666666668</ele><time>2026-04-04T07:58:43.999Z</time></trkpt><trkpt lat="43.60782701464941" lon="10.642755006753893"><ele>24.5</ele><time>2026-04-04T07:58:44.999Z</time></trkpt><trkpt lat="43.60774755243312" lon="10.642743046960446"><ele>24.333333333333336</ele><time>2026-04-04T07:58:45.999Z</time></trkpt><trkpt lat="43.607661160050924" lon="10.64273004414458"><ele>24.166666666666668</ele><time>2026-04-04T07:58:46.999Z</time></trkpt><trkpt lat="43.60757176357838" lon="10.642716589166175"><ele>24.0</ele><time>2026-04-04T07:58:47.999Z</time></trkpt><trkpt lat="43.607479533927254" lon="10.64270270779316"><ele>24.799999999999997</ele><time>2026-04-04T07:58:48.999Z</time></trkpt><trkpt lat="43.60737908247101" lon="10.642687588909931"><ele>25.599999999999998</ele><time>2026-04-04T07:58:49.999Z</time></trkpt><trkpt lat="43.60727884079853" lon="10.642672501633239"><ele>26.4</ele><time>2026-04-04T07:58:50.999Z</time></trkpt><trkpt lat="43.607180016874764" lon="10.642657627733508"><ele>27.2</ele><time>2026-04-04T07:58:51.999Z</time></trkpt><trkpt lat="43.60708140669917" lon="10.642642786056342"><ele>28.0</ele><time>2026-04-04T07:58:52.999Z</time></trkpt><trkpt lat="43.60698301683891" lon="10.64264557531967"><ele>28.599999999999998</ele><time>2026-04-04T07:58:53.999Z</time></trkpt><trkpt lat="43.60688492193841" lon="10.642632021218503"><ele>29.199999999999996</ele><time>2026-04-04T07:58:54.999Z</time></trkpt><trkpt lat="43.606785567147334" lon="10.642615723705507"><ele>29.8</ele><time>2026-04-04T07:58:55.999Z</time></trkpt><trkpt lat="43.60668515714067" lon="10.6425801016598"><ele>30.4</ele><time>2026-04-04T07:58:56.999Z</time></trkpt><trkpt lat="43.60658390976852" lon="10.642563917563585"><ele>31.0</ele><time>2026-04-04T07:58:57.999Z</time></trkpt><trkpt lat="43.606479751949166" lon="10.642548718781484"><ele>31.0</ele><time>2026-04-04T07:58:58.999Z</time></trkpt><trkpt lat="43.60637720862865" lon="10.642556128561184"><ele>31.0</ele><time>2026-04-04T07:58:59.999Z</time></trkpt><trkpt lat="43.60628036178449" lon="10.642541681495157"><ele>31.0</ele><time>2026-04-04T07:59:00.999Z</time></trkpt><trkpt lat="43.60617746180003" lon="10.642504813055766"><ele>31.0</ele><time>2026-04-04T07:59:01.999Z</time></trkpt><trkpt lat="43.60606966717569" lon="10.642510273434144"><ele>31.0</ele><time>2026-04-04T07:59:02.999Z</time></trkpt><trkpt lat="43.605959422467016" lon="10.642492171232607"><ele>31.200000000000003</ele><time>2026-04-04T07:59:03.999Z</time></trkpt><trkpt lat="43.60585188707527" lon="10.642474176334995"><ele>31.400000000000002</ele><time>2026-04-04T07:59:04.999Z</time></trkpt><trkpt lat="43.605743292213354" lon="10.642455611631046"><ele>31.6</ele><time>2026-04-04T07:59:05.999Z</time></trkpt><trkpt lat="43.6056348919532" lon="10.642442929604758"><ele>31.8</ele><time>2026-04-04T07:59:06.999Z</time></trkpt><trkpt lat="43.605526715580396" lon="10.642422202519"><ele>32.0</ele><time>2026-04-04T07:59:07.999Z</time></trkpt><trkpt lat="43.6054204081966" lon="10.642424199834084"><ele>32.0</ele><time>2026-04-04T07:59:08.999Z</time></trkpt><trkpt lat="43.60530600970291" lon="10.642421307959067"><ele>32.0</ele><time>2026-04-04T07:59:09.999Z</time></trkpt><trkpt lat="43.60519541928687" lon="10.642419541069351"><ele>32.0</ele><time>2026-04-04T07:59:10.999Z</time></trkpt><trkpt lat="43.605079738510696" lon="10.64241149197408"><ele>32.0</ele><time>2026-04-04T07:59:11.999Z</time></trkpt><trkpt lat="43.604960582468465" lon="10.642414776016196"><ele>32.0</ele><time>2026-04-04T07:59:12.999Z</time></trkpt><trkpt lat="43.604846417194615" lon="10.642410468814786"><ele>32.0</ele><time>2026-04-04T07:59:13.999Z</time></trkpt><trkpt lat="43.604738970488434" lon="10.642408684318033"><ele>32.0</ele><time>2026-04-04T07:59:14.999Z</time></trkpt><trkpt lat="43.60462726516459" lon="10.642402589351859"><ele>32.0</ele><time>2026-04-04T07:59:15.999Z</time></trkpt><trkpt lat="43.60451022589599" lon="10.642401175851207"><ele>32.25</ele><time>2026-04-04T07:59:16.999Z</time></trkpt><trkpt lat="43.60439358180052" lon="10.642400856935769"><ele>32.5</ele><time>2026-04-04T07:59:17.999Z</time></trkpt><trkpt lat="43.6042749889333" lon="10.642376160221447"><ele>32.75</ele><time>2026-04-04T07:59:18.999Z</time></trkpt><trkpt lat="43.60415322230812" lon="10.642396952308182"><ele>33.0</ele><time>2026-04-04T07:59:19.999Z</time></trkpt><trkpt lat="43.60402671833203" lon="10.642373399057728"><ele>33.0</ele><time>2026-04-04T07:59:20.999Z</time></trkpt><trkpt lat="43.603898035063686" lon="10.642396302387061"><ele>33.0</ele><time>2026-04-04T07:59:21.999Z</time></trkpt><trkpt lat="43.60376579284192" lon="10.642390762009628"><ele>33.0</ele><time>2026-04-04T07:59:22.999Z</time></trkpt><trkpt lat="43.603630804241" lon="10.642387698756766"><ele>33.0</ele><time>2026-04-04T07:59:23.999Z</time></trkpt><trkpt lat="43.60349850713365" lon="10.642388186566713"><ele>32.0</ele><time>2026-04-04T07:59:24.999Z</time></trkpt><trkpt lat="43.603364372613434" lon="10.64238824521203"><ele>31.0</ele><time>2026-04-04T07:59:25.999Z</time></trkpt><trkpt lat="43.60323036884771" lon="10.642386487857442"><ele>30.0</ele><time>2026-04-04T07:59:26.999Z</time></trkpt><trkpt lat="43.60309701019232" lon="10.642383680605745"><ele>29.0</ele><time>2026-04-04T07:59:28Z</time></trkpt><trkpt lat="43.60296853694892" lon="10.642382615325175"><ele>29.0</ele><time>2026-04-04T07:59:29Z</time></trkpt><trkpt lat="43.602840998059754" lon="10.642378792395503"><ele>29.0</ele><time>2026-04-04T07:59:30Z</time></trkpt><trkpt lat="43.60271718954072" lon="10.642379572625734"><ele>29.0</ele><time>2026-04-04T07:59:31Z</time></trkpt><trkpt lat="43.60259201285114" lon="10.642371337981432"><ele>29.0</ele><time>2026-04-04T07:59:32Z</time></trkpt><trkpt lat="43.60246897457939" lon="10.642369413446364"><ele>28.75</ele><time>2026-04-04T07:59:33Z</time></trkpt><trkpt lat="43.602345058414244" lon="10.64236596407921"><ele>28.5</ele><time>2026-04-04T07:59:34Z</time></trkpt><trkpt lat="43.60222433817693" lon="10.642343779904222"><ele>28.25</ele><time>2026-04-04T07:59:35Z</time></trkpt><trkpt lat="43.60209730198657" lon="10.642341291503808"><ele>28.0</ele><time>2026-04-04T07:59:36Z</time></trkpt><trkpt lat="43.60197095747383" lon="10.642340215236114"><ele>28.0</ele><time>2026-04-04T07:59:37Z</time></trkpt><trkpt lat="43.601843595225546" lon="10.642360233998115"><ele>28.0</ele><time>2026-04-04T07:59:38Z</time></trkpt><trkpt lat="43.601724321608444" lon="10.64235649843741"><ele>28.0</ele><time>2026-04-04T07:59:39Z</time></trkpt><trkpt lat="43.6015977668303" lon="10.642351994161784"><ele>28.0</ele><time>2026-04-04T07:59:40Z</time></trkpt><trkpt lat="43.601468240236024" lon="10.642353086101636"><ele>28.0</ele><time>2026-04-04T07:59:41Z</time></trkpt><trkpt lat="43.60133252784405" lon="10.642351681776947"><ele>28.0</ele><time>2026-04-04T07:59:42Z</time></trkpt><trkpt lat="43.60119747604953" lon="10.642349249184651"><ele>28.0</ele><time>2026-04-04T07:59:43Z</time></trkpt><trkpt lat="43.60106587081155" lon="10.642347072318048"><ele>28.0</ele><time>2026-04-04T07:59:44Z</time></trkpt><trkpt lat="43.60093172487556" lon="10.642345294766837"><ele>28.0</ele><time>2026-04-04T07:59:45Z</time></trkpt><trkpt lat="43.60079215720761" lon="10.642339514311036"><ele>28.0</ele><time>2026-04-04T07:59:46Z</time></trkpt><trkpt lat="43.60064331959726" lon="10.642337452767581"><ele>28.0</ele><time>2026-04-04T07:59:47Z</time></trkpt><trkpt lat="43.60049122967503" lon="10.64233445916897"><ele>28.0</ele><time>2026-04-04T07:59:48Z</time></trkpt><trkpt lat="43.60033909315497" lon="10.642330797127878"><ele>27.25</ele><time>2026-04-04T07:59:49Z</time></trkpt><trkpt lat="43.6001891062756" lon="10.64232915783308"><ele>26.5</ele><time>2026-04-04T07:59:50Z</time></trkpt><trkpt lat="43.60005103958505" lon="10.642327259818867"><ele>25.75</ele><time>2026-04-04T07:59:51Z</time></trkpt><trkpt lat="43.59991121380776" lon="10.642326805832734"><ele>25.0</ele><time>2026-04-04T07:59:52Z</time></trkpt><trkpt lat="43.59977159243785" lon="10.642325062944344"><ele>25.0</ele><time>2026-04-04T07:59:53Z</time></trkpt><trkpt lat="43.59963261947094" lon="10.642323406169993"><ele>25.0</ele><time>2026-04-04T07:59:54Z</time></trkpt><trkpt lat="43.59950194756838" lon="10.642320745256171"><ele>25.0</ele><time>2026-04-04T07:59:55Z</time></trkpt><trkpt lat="43.59937097382166" lon="10.642311555951933"><ele>25.0</ele><time>2026-04-04T07:59:56Z</time></trkpt><trkpt lat="43.59924227143726" lon="10.642314907517294"><ele>25.0</ele><time>2026-04-04T07:59:57Z</time></trkpt><trkpt lat="43.59912239494423" lon="10.6423087659121"><ele>25.0</ele><time>2026-04-04T07:59:58Z</time></trkpt><trkpt lat="43.59901083172615" lon="10.642310295969025"><ele>25.0</ele><time>2026-04-04T07:59:59Z</time></trkpt><trkpt lat="43.59890839327389" lon="10.642310496443566"><ele>25.0</ele><time>2026-04-04T08:00:00Z</time></trkpt><trkpt lat="43.59881474769678" lon="10.642306386496472"><ele>25.0</ele><time>2026-04-04T08:00:01Z</time></trkpt><trkpt lat="43.59874071146859" lon="10.642304698381139"><ele>25.25</ele><time>2026-04-04T08:00:02Z</time></trkpt><trkpt lat="43.59863201017706" lon="10.642285781072239"><ele>25.5</ele><time>2026-04-04T08:00:04Z</time></trkpt><trkpt lat="43.598534388548124" lon="10.642510594027467"><ele>25.75</ele><time>2026-04-04T08:00:06Z</time></trkpt><trkpt lat="43.598474531915556" lon="10.642640149043638"><ele>26.0</ele><time>2026-04-04T08:00:07Z</time></trkpt><trkpt lat="43.59840740663499" lon="10.64279611087023"><ele>26.200000000000003</ele><time>2026-04-04T08:00:08Z</time></trkpt><trkpt lat="43.59834036687766" lon="10.642929547113829"><ele>26.400000000000002</ele><time>2026-04-04T08:00:09Z</time></trkpt><trkpt lat="43.59829325985304" lon="10.643034391019956"><ele>26.6</ele><time>2026-04-04T08:00:10Z</time></trkpt><trkpt lat="43.59825159429937" lon="10.643129900007903"><ele>26.8</ele><time>2026-04-04T08:00:11Z</time></trkpt><trkpt lat="43.59819754414932" lon="10.643222194942176"><ele>27.0</ele><time>2026-04-04T08:00:12Z</time></trkpt><trkpt lat="43.59815845490738" lon="10.643331574931716"><ele>27.0</ele><time>2026-04-04T08:00:13Z</time></trkpt><trkpt lat="43.59813508811252" lon="10.643456750594542"><ele>27.000000000000004</ele><time>2026-04-04T08:00:14Z</time></trkpt><trkpt lat="43.59809234127149" lon="10.64357344793645"><ele>27.000000000000004</ele><time>2026-04-04T08:00:15Z</time></trkpt><trkpt lat="43.59805456693639" lon="10.643693715958994"><ele>27.0</ele><time>2026-04-04T08:00:15.999Z</time></trkpt><trkpt lat="43.59801512240094" lon="10.64381459990009"><ele>27.0</ele><time>2026-04-04T08:00:16.999Z</time></trkpt><trkpt lat="43.59797405348912" lon="10.643925680336682"><ele>27.6</ele><time>2026-04-04T08:00:17.999Z</time></trkpt><trkpt lat="43.59792841796842" lon="10.644033498759624"><ele>28.200000000000003</ele><time>2026-04-04T08:00:18.999Z</time></trkpt><trkpt lat="43.597888612997856" lon="10.644137132619127"><ele>28.8</ele><time>2026-04-04T08:00:19.999Z</time></trkpt><trkpt lat="43.59784441769063" lon="10.644237107838903"><ele>29.4</ele><time>2026-04-04T08:00:20.999Z</time></trkpt><trkpt lat="43.59780705862036" lon="10.644324922708082"><ele>30.0</ele><time>2026-04-04T08:00:21.999Z</time></trkpt><trkpt lat="43.597769658731906" lon="10.644476978854986"><ele>30.8</ele><time>2026-04-04T08:00:23.999Z</time></trkpt><trkpt lat="43.597776485766204" lon="10.644633076776838"><ele>31.6</ele><time>2026-04-04T08:00:25.999Z</time></trkpt><trkpt lat="43.597828339835594" lon="10.644708331181928"><ele>32.4</ele><time>2026-04-04T08:00:26.999Z</time></trkpt><trkpt lat="43.59786420039953" lon="10.644798191835447"><ele>33.2</ele><time>2026-04-04T08:00:27.999Z</time></trkpt><trkpt lat="43.59792785160459" lon="10.644897445329073"><ele>34.0</ele><time>2026-04-04T08:00:28.999Z</time></trkpt><trkpt lat="43.59799172484452" lon="10.64499533828115"><ele>34.0</ele><time>2026-04-04T08:00:29.999Z</time></trkpt><trkpt lat="43.59805532434447" lon="10.645092811774433"><ele>34.0</ele><time>2026-04-04T08:00:30.999Z</time></trkpt><trkpt lat="43.59813040032191" lon="10.645174083837677"><ele>34.0</ele><time>2026-04-04T08:00:31.999Z</time></trkpt><trkpt lat="43.59818835693917" lon="10.645277644268074"><ele>34.0</ele><time>2026-04-04T08:00:32.999Z</time></trkpt><trkpt lat="43.59825602248151" lon="10.645368105960056"><ele>34.0</ele><time>2026-04-04T08:00:33.999Z</time></trkpt><trkpt lat="43.59832235995374" lon="10.645466136982682"><ele>34.2</ele><time>2026-04-04T08:00:34.999Z</time></trkpt><trkpt lat="43.598367705147965" lon="10.645566299734712"><ele>34.4</ele><time>2026-04-04T08:00:35.999Z</time></trkpt><trkpt lat="43.59843098816973" lon="10.645659612882353"><ele>34.6</ele><time>2026-04-04T08:00:36.999Z</time></trkpt><trkpt lat="43.598499585916834" lon="10.64575543795917"><ele>34.8</ele><time>2026-04-04T08:00:37.999Z</time></trkpt><trkpt lat="43.598575246246455" lon="10.645857245030378"><ele>35.0</ele><time>2026-04-04T08:00:38.999Z</time></trkpt><trkpt lat="43.59864173401062" lon="10.645954097877507"><ele>36.4</ele><time>2026-04-04T08:00:39.999Z</time></trkpt><trkpt lat="43.59869626918837" lon="10.646039241885111"><ele>37.8</ele><time>2026-04-04T08:00:40.999Z</time></trkpt><trkpt lat="43.59874057974908" lon="10.646118743683324"><ele>39.2</ele><time>2026-04-04T08:00:41.999Z</time></trkpt><trkpt lat="43.59877221757272" lon="10.646209637967752"><ele>40.6</ele><time>2026-04-04T08:00:42.999Z</time></trkpt><trkpt lat="43.598808619145075" lon="10.646303418307728"><ele>42.0</ele><time>2026-04-04T08:00:43.999Z</time></trkpt><trkpt lat="43.5987781081379" lon="10.646511015933783"><ele>42.166666666666664</ele><time>2026-04-04T08:00:45.999Z</time></trkpt><trkpt lat="43.59874007917979" lon="10.646622890652909"><ele>42.333333333333336</ele><time>2026-04-04T08:00:46.999Z</time></trkpt><trkpt lat="43.59872425201276" lon="10.646743965608627"><ele>42.5</ele><time>2026-04-04T08:00:47.999Z</time></trkpt><trkpt lat="43.59867670427548" lon="10.646853902309456"><ele>42.66666666666667</ele><time>2026-04-04T08:00:48.999Z</time></trkpt><trkpt lat="43.59865177914828" lon="10.646941074068367"><ele>42.833333333333336</ele><time>2026-04-04T08:00:49.999Z</time></trkpt><trkpt lat="43.598618056105224" lon="10.647059066093775"><ele>43.0</ele><time>2026-04-04T08:00:50.999Z</time></trkpt><trkpt lat="43.5985902925154" lon="10.647156287699994"><ele>43.0</ele><time>2026-04-04T08:00:51.999Z</time></trkpt><trkpt lat="43.59855850542579" lon="10.647263566276129"><ele>43.0</ele><time>2026-04-04T08:00:52.999Z</time></trkpt><trkpt lat="43.598527439689974" lon="10.647368410198009"><ele>43.0</ele><time>2026-04-04T08:00:53.999Z</time></trkpt><trkpt lat="43.59849776421462" lon="10.64746856221357"><ele>43.0</ele><time>2026-04-04T08:00:54.999Z</time></trkpt><trkpt lat="43.59847028887665" lon="10.647561289123702"><ele>43.0</ele><time>2026-04-04T08:00:55.999Z</time></trkpt><trkpt lat="43.598443921392615" lon="10.647659300912702"><ele>43.0</ele><time>2026-04-04T08:00:56.999Z</time></trkpt><trkpt lat="43.59843363742955" lon="10.647760138079676"><ele>43.5</ele><time>2026-04-04T08:00:57.999Z</time></trkpt><trkpt lat="43.598446463536234" lon="10.647861044745792"><ele>44.0</ele><time>2026-04-04T08:00:58.999Z</time></trkpt><trkpt lat="43.5984771095441" lon="10.64796942188422"><ele>44.5</ele><time>2026-04-04T08:00:59.999Z</time></trkpt><trkpt lat="43.598527646885444" lon="10.648060027456589"><ele>45.0</ele><time>2026-04-04T08:01:00.999Z</time></trkpt><trkpt lat="43.598558398599415" lon="10.648153899647879"><ele>45.5</ele><time>2026-04-04T08:01:01.999Z</time></trkpt><trkpt lat="43.59859544382058" lon="10.648252420286449"><ele>46.0</ele><time>2026-04-04T08:01:02.999Z</time></trkpt><trkpt lat="43.598642896768695" lon="10.648345233059969"><ele>48.714285714285715</ele><time>2026-04-04T08:01:03.999Z</time></trkpt><trkpt lat="43.59866995055321" lon="10.648451021200593"><ele>51.42857142857143</ele><time>2026-04-04T08:01:04.999Z</time></trkpt><trkpt lat="43.598707372951026" lon="10.64853419373832"><ele>54.142857142857146</ele><time>2026-04-04T08:01:05.999Z</time></trkpt><trkpt lat="43.59874547058695" lon="10.64861886620645"><ele>56.85714285714286</ele><time>2026-04-04T08:01:06.999Z</time></trkpt><trkpt lat="43.59878204435472" lon="10.64870015236759"><ele>59.57142857142857</ele><time>2026-04-04T08:01:07.999Z</time></trkpt><trkpt lat="43.5988194819627" lon="10.648783358153024"><ele>62.28571428571429</ele><time>2026-04-04T08:01:08.999Z</time></trkpt><trkpt lat="43.59886211551546" lon="10.648878112601233"><ele>65.0</ele><time>2026-04-04T08:01:09.999Z</time></trkpt><trkpt lat="43.5988978812003" lon="10.64896113605496"><ele>65.0</ele><time>2026-04-04T08:01:10.999Z</time></trkpt><trkpt lat="43.59894097788973" lon="10.649048732843902"><ele>65.0</ele><time>2026-04-04T08:01:11.999Z</time></trkpt><trkpt lat="43.59895954833154" lon="10.649162340968473"><ele>65.0</ele><time>2026-04-04T08:01:12.999Z</time></trkpt><trkpt lat="43.59894434196764" lon="10.649276149333682"><ele>65.0</ele><time>2026-04-04T08:01:13.999Z</time></trkpt><trkpt lat="43.5989337885898" lon="10.649380350423117"><ele>65.0</ele><time>2026-04-04T08:01:14.999Z</time></trkpt><trkpt lat="43.59892207875431" lon="10.649487630366895"><ele>65.0</ele><time>2026-04-04T08:01:15.999Z</time></trkpt><trkpt lat="43.598905361606676" lon="10.649595233754207"><ele>64.85714285714286</ele><time>2026-04-04T08:01:16.999Z</time></trkpt><trkpt lat="43.59888124819886" lon="10.64969185851189"><ele>64.71428571428572</ele><time>2026-04-04T08:01:17.999Z</time></trkpt><trkpt lat="43.59884928918165" lon="10.649778483481755"><ele>64.57142857142857</ele><time>2026-04-04T08:01:18.999Z</time></trkpt><trkpt lat="43.59879877601103" lon="10.649843594695641"><ele>64.42857142857143</ele><time>2026-04-04T08:01:19.999Z</time></trkpt><trkpt lat="43.59874188071729" lon="10.64990991008795"><ele>64.28571428571428</ele><time>2026-04-04T08:01:20.999Z</time></trkpt><trkpt lat="43.598684287724026" lon="10.64996398008113"><ele>64.14285714285714</ele><time>2026-04-04T08:01:21.999Z</time></trkpt><trkpt lat="43.59861997394533" lon="10.65003260883588"><ele>64.0</ele><time>2026-04-04T08:01:22.999Z</time></trkpt><trkpt lat="43.598559935694176" lon="10.650089603010924"><ele>63.99999999999999</ele><time>2026-04-04T08:01:23.999Z</time></trkpt><trkpt lat="43.598494882825314" lon="10.650123565238182"><ele>64.0</ele><time>2026-04-04T08:01:24.999Z</time></trkpt><trkpt lat="43.598421137749895" lon="10.650148076138317"><ele>64.0</ele><time>2026-04-04T08:01:25.999Z</time></trkpt><trkpt lat="43.59834162895571" lon="10.650176095428666"><ele>64.0</ele><time>2026-04-04T08:01:26.999Z</time></trkpt><trkpt lat="43.598259941917654" lon="10.650203365562765"><ele>63.99999999999999</ele><time>2026-04-04T08:01:27.999Z</time></trkpt><trkpt lat="43.59817814066064" lon="10.65023067372719"><ele>64.0</ele><time>2026-04-04T08:01:28.999Z</time></trkpt><trkpt lat="43.598095170061626" lon="10.650258372556987"><ele>63.99999999999999</ele><time>2026-04-04T08:01:29.999Z</time></trkpt><trkpt lat="43.598013694043175" lon="10.650290915487394"><ele>64.0</ele><time>2026-04-04T08:01:30.999Z</time></trkpt><trkpt lat="43.59793815412616" lon="10.650324111760506"><ele>64.0</ele><time>2026-04-04T08:01:31.999Z</time></trkpt><trkpt lat="43.5978855450424" lon="10.650381006290216"><ele>64.0</ele><time>2026-04-04T08:01:32.999Z</time></trkpt><trkpt lat="43.59782307837387" lon="10.650399444566439"><ele>63.99999999999999</ele><time>2026-04-04T08:01:34Z</time></trkpt><trkpt lat="43.59776979979371" lon="10.650474714300616"><ele>64.0</ele><time>2026-04-04T08:01:35Z</time></trkpt><trkpt lat="43.59774953436233" lon="10.650590985273125"><ele>64.5</ele><time>2026-04-04T08:01:36Z</time></trkpt><trkpt lat="43.597699392116944" lon="10.650680560879277"><ele>65.0</ele><time>2026-04-04T08:01:37Z</time></trkpt><trkpt lat="43.59766165260399" lon="10.650777992719695"><ele>65.5</ele><time>2026-04-04T08:01:38Z</time></trkpt><trkpt lat="43.597621171087944" lon="10.650882811722377"><ele>66.0</ele><time>2026-04-04T08:01:39Z</time></trkpt><trkpt lat="43.59758323766307" lon="10.650981760759565"><ele>66.5</ele><time>2026-04-04T08:01:40Z</time></trkpt><trkpt lat="43.597546821713436" lon="10.651076751247947"><ele>67.0</ele><time>2026-04-04T08:01:41Z</time></trkpt><trkpt lat="43.5975218329428" lon="10.651190156590525"><ele>67.83333333333333</ele><time>2026-04-04T08:01:42Z</time></trkpt><trkpt lat="43.59747780051332" lon="10.651289996130282"><ele>68.66666666666666</ele><time>2026-04-04T08:01:43Z</time></trkpt><trkpt lat="43.597438472570566" lon="10.651396135434664"><ele>69.5</ele><time>2026-04-04T08:01:44Z</time></trkpt><trkpt lat="43.597399083224516" lon="10.651492608827313"><ele>70.33333333333333</ele><time>2026-04-04T08:01:45Z</time></trkpt><trkpt lat="43.59736657473388" lon="10.651591393169351"><ele>71.16666666666667</ele><time>2026-04-04T08:01:46Z</time></trkpt><trkpt lat="43.597314574020224" lon="10.651680751204216"><ele>72.0</ele><time>2026-04-04T08:01:47Z</time></trkpt><trkpt lat="43.59727340874452" lon="10.651786544396385"><ele>72.0</ele><time>2026-04-04T08:01:48Z</time></trkpt><trkpt lat="43.59723190791089" lon="10.651893199984793"><ele>72.0</ele><time>2026-04-04T08:01:49Z</time></trkpt><trkpt lat="43.597191221214636" lon="10.651997763477214"><ele>72.0</ele><time>2026-04-04T08:01:50Z</time></trkpt><trkpt lat="43.597145104504904" lon="10.652116281795807"><ele>72.0</ele><time>2026-04-04T08:01:51Z</time></trkpt><trkpt lat="43.59709946982575" lon="10.65223584115933"><ele>72.0</ele><time>2026-04-04T08:01:52Z</time></trkpt><trkpt lat="43.59705381275162" lon="10.65235593126664"><ele>72.4</ele><time>2026-04-04T08:01:53Z</time></trkpt><trkpt lat="43.59701205693186" lon="10.65246370478458"><ele>72.80000000000001</ele><time>2026-04-04T08:01:54Z</time></trkpt><trkpt lat="43.5969792369504" lon="10.652545065457083"><ele>73.2</ele><time>2026-04-04T08:01:55Z</time></trkpt><trkpt lat="43.59691314959423" lon="10.652641989114711"><ele>73.60000000000001</ele><time>2026-04-04T08:01:57Z</time></trkpt><trkpt lat="43.59681244732762" lon="10.652641436111804"><ele>74.0</ele><time>2026-04-04T08:01:59Z</time></trkpt><trkpt lat="43.59669738743207" lon="10.652685230117587"><ele>74.16666666666667</ele><time>2026-04-04T08:02:01Z</time></trkpt><trkpt lat="43.59663702366679" lon="10.652718093354562"><ele>74.33333333333334</ele><time>2026-04-04T08:02:02Z</time></trkpt><trkpt lat="43.596578721311815" lon="10.652758418159932"><ele>74.5</ele><time>2026-04-04T08:02:03Z</time></trkpt><trkpt lat="43.59648260562295" lon="10.65285584996047"><ele>74.66666666666667</ele><time>2026-04-04T08:02:05Z</time></trkpt><trkpt lat="43.596393919969366" lon="10.652979496556764"><ele>74.83333333333333</ele><time>2026-04-04T08:02:07Z</time></trkpt><trkpt lat="43.596357374208466" lon="10.653057043251428"><ele>75.0</ele><time>2026-04-04T08:02:08Z</time></trkpt><trkpt lat="43.59632653231948" lon="10.653139031968172"><ele>75.0</ele><time>2026-04-04T08:02:09Z</time></trkpt><trkpt lat="43.59627713024627" lon="10.653282354699689"><ele>75.0</ele><time>2026-04-04T08:02:11Z</time></trkpt><trkpt lat="43.59623203447105" lon="10.653387896306251"><ele>75.0</ele><time>2026-04-04T08:02:13Z</time></trkpt><trkpt lat="43.5961837250016" lon="10.653497910584816"><ele>75.0</ele><time>2026-04-04T08:02:15Z</time></trkpt><trkpt lat="43.59613078864395" lon="10.653578736891442"><ele>75.0</ele><time>2026-04-04T08:02:17Z</time></trkpt><trkpt lat="43.59603237571624" lon="10.653628693572514"><ele>73.33333333333333</ele><time>2026-04-04T08:02:19Z</time></trkpt><trkpt lat="43.595912489600174" lon="10.653689794561496"><ele>71.66666666666667</ele><time>2026-04-04T08:02:21Z</time></trkpt><trkpt lat="43.59584315119797" lon="10.653743739197761"><ele>70.0</ele><time>2026-04-04T08:02:22Z</time></trkpt><trkpt lat="43.59578278252879" lon="10.653790059769246"><ele>68.33333333333334</ele><time>2026-04-04T08:02:22.999Z</time></trkpt><trkpt lat="43.59572022246959" lon="10.653832206840004"><ele>66.66666666666667</ele><time>2026-04-04T08:02:23.999Z</time></trkpt><trkpt lat="43.59565646843019" lon="10.653874611255024"><ele>65.0</ele><time>2026-04-04T08:02:24.999Z</time></trkpt><trkpt lat="43.595585813882536" lon="10.653921605254569"><ele>65.0</ele><time>2026-04-04T08:02:25.999Z</time></trkpt><trkpt lat="43.59551992987109" lon="10.653965425989824"><ele>65.0</ele><time>2026-04-04T08:02:26.999Z</time></trkpt><trkpt lat="43.59545518526311" lon="10.654008489315096"><ele>65.0</ele><time>2026-04-04T08:02:27.999Z</time></trkpt><trkpt lat="43.595387998800234" lon="10.654053176701503"><ele>65.0</ele><time>2026-04-04T08:02:28.999Z</time></trkpt><trkpt lat="43.595317595457004" lon="10.65410015708104"><ele>65.0</ele><time>2026-04-04T08:02:29.999Z</time></trkpt><trkpt lat="43.595257630263795" lon="10.654141996505547"><ele>65.0</ele><time>2026-04-04T08:02:30.999Z</time></trkpt><trkpt lat="43.59516289527865" lon="10.654196253196151"><ele>66.0</ele><time>2026-04-04T08:02:32.999Z</time></trkpt><trkpt lat="43.59508160539464" lon="10.654224077164615"><ele>67.0</ele><time>2026-04-04T08:02:34.999Z</time></trkpt><trkpt lat="43.59498842031336" lon="10.654258795463273"><ele>68.0</ele><time>2026-04-04T08:02:36.999Z</time></trkpt><trkpt lat="43.594889319904134" lon="10.654297788432217"><ele>69.0</ele><time>2026-04-04T08:02:38.999Z</time></trkpt><trkpt lat="43.59478248571658" lon="10.654335398527664"><ele>70.0</ele><time>2026-04-04T08:02:40.999Z</time></trkpt><trkpt lat="43.59466117845947" lon="10.654370023159787"><ele>70.0</ele><time>2026-04-04T08:02:42.999Z</time></trkpt><trkpt lat="43.594592017685635" lon="10.654388699994067"><ele>70.0</ele><time>2026-04-04T08:02:43.999Z</time></trkpt><trkpt lat="43.594469976602035" lon="10.654421656970806"><ele>70.0</ele><time>2026-04-04T08:02:45.999Z</time></trkpt><trkpt lat="43.59440166166799" lon="10.654440026288977"><ele>70.0</ele><time>2026-04-04T08:02:46.999Z</time></trkpt><trkpt lat="43.5943290202992" lon="10.654459375459249"><ele>70.0</ele><time>2026-04-04T08:02:47.999Z</time></trkpt><trkpt lat="43.59425578449177" lon="10.654478882965039"><ele>70.0</ele><time>2026-04-04T08:02:48.999Z</time></trkpt><trkpt lat="43.59418740787613" lon="10.654496902046539"><ele>69.0</ele><time>2026-04-04T08:02:49.999Z</time></trkpt><trkpt lat="43.594116163621536" lon="10.65451491288189"><ele>68.0</ele><time>2026-04-04T08:02:50.999Z</time></trkpt><trkpt lat="43.59399514506355" lon="10.654545495724928"><ele>67.0</ele><time>2026-04-04T08:02:52.999Z</time></trkpt><trkpt lat="43.59387106682574" lon="10.654576902968671"><ele>66.0</ele><time>2026-04-04T08:02:54.999Z</time></trkpt><trkpt lat="43.593745979636104" lon="10.654607407041514"><ele>65.0</ele><time>2026-04-04T08:02:56.999Z</time></trkpt><trkpt lat="43.59361949113454" lon="10.654651189534833"><ele>65.0</ele><time>2026-04-04T08:02:58.999Z</time></trkpt><trkpt lat="43.59350961848374" lon="10.654711375447075"><ele>65.0</ele><time>2026-04-04T08:03:00.999Z</time></trkpt><trkpt lat="43.59340673089525" lon="10.654795867762843"><ele>65.0</ele><time>2026-04-04T08:03:02.999Z</time></trkpt><trkpt lat="43.59330678220163" lon="10.654893814202174"><ele>65.0</ele><time>2026-04-04T08:03:04.999Z</time></trkpt><trkpt lat="43.59324175314256" lon="10.65495858907998"><ele>65.0</ele><time>2026-04-04T08:03:05.999Z</time></trkpt><trkpt lat="43.59313912565258" lon="10.655070010505593"><ele>65.0</ele><time>2026-04-04T08:03:07.999Z</time></trkpt><trkpt lat="43.593086756753046" lon="10.655131531271014"><ele>65.0</ele><time>2026-04-04T08:03:08.999Z</time></trkpt><trkpt lat="43.593033691026605" lon="10.655197048000405"><ele>65.0</ele><time>2026-04-04T08:03:09.999Z</time></trkpt><trkpt lat="43.59299698582484" lon="10.65530716535101"><ele>65.0</ele><time>2026-04-04T08:03:10.999Z</time></trkpt><trkpt lat="43.59295489687876" lon="10.655411673501407"><ele>65.0</ele><time>2026-04-04T08:03:11.999Z</time></trkpt><trkpt lat="43.59290207579994" lon="10.655526027452408"><ele>65.0</ele><time>2026-04-04T08:03:12.999Z</time></trkpt><trkpt lat="43.59285456670528" lon="10.655658777860271"><ele>64.6</ele><time>2026-04-04T08:03:13.999Z</time></trkpt><trkpt lat="43.592800496388044" lon="10.655780745951505"><ele>64.2</ele><time>2026-04-04T08:03:14.999Z</time></trkpt><trkpt lat="43.59273012046631" lon="10.655910076002941"><ele>63.8</ele><time>2026-04-04T08:03:15.999Z</time></trkpt><trkpt lat="43.59269013673036" lon="10.656051778057686"><ele>63.4</ele><time>2026-04-04T08:03:16.999Z</time></trkpt><trkpt lat="43.59264465473216" lon="10.656183203990166"><ele>63.0</ele><time>2026-04-04T08:03:17.999Z</time></trkpt><trkpt lat="43.59260076217382" lon="10.656306825585004"><ele>63.0</ele><time>2026-04-04T08:03:18.999Z</time></trkpt><trkpt lat="43.59256009886527" lon="10.656431377907658"><ele>63.0</ele><time>2026-04-04T08:03:19.999Z</time></trkpt><trkpt lat="43.592515522983135" lon="10.656550375798888"><ele>63.0</ele><time>2026-04-04T08:03:20.999Z</time></trkpt><trkpt lat="43.59247389714127" lon="10.656656863132682"><ele>63.0</ele><time>2026-04-04T08:03:21.999Z</time></trkpt><trkpt lat="43.59242683195052" lon="10.656748444798918"><ele>63.0</ele><time>2026-04-04T08:03:22.999Z</time></trkpt><trkpt lat="43.59236770850889" lon="10.65685056189012"><ele>64.0</ele><time>2026-04-04T08:03:23.999Z</time></trkpt><trkpt lat="43.59230620304872" lon="10.656954308292939"><ele>65.0</ele><time>2026-04-04T08:03:24.999Z</time></trkpt><trkpt lat="43.59224944906389" lon="10.65705394131027"><ele>66.0</ele><time>2026-04-04T08:03:25.999Z</time></trkpt><trkpt lat="43.59220250052716" lon="10.657128359686011"><ele>67.0</ele><time>2026-04-04T08:03:26.999Z</time></trkpt><trkpt lat="43.59216218519928" lon="10.657212919560312"><ele>68.0</ele><time>2026-04-04T08:03:27.999Z</time></trkpt><trkpt lat="43.592121206779524" lon="10.657312191979923"><ele>69.0</ele><time>2026-04-04T08:03:28.999Z</time></trkpt><trkpt lat="43.59208432624819" lon="10.657422592278396"><ele>69.0</ele><time>2026-04-04T08:03:29.999Z</time></trkpt><trkpt lat="43.592049793851785" lon="10.65753676740477"><ele>69.0</ele><time>2026-04-04T08:03:30.999Z</time></trkpt><trkpt lat="43.5920263656061" lon="10.657627741002033"><ele>69.0</ele><time>2026-04-04T08:03:31.999Z</time></trkpt><trkpt lat="43.59200162351126" lon="10.65778805628063"><ele>69.0</ele><time>2026-04-04T08:03:33.999Z</time></trkpt><trkpt lat="43.591975372614556" lon="10.65794539551935"><ele>69.0</ele><time>2026-04-04T08:03:35.999Z</time></trkpt><trkpt lat="43.59195481402553" lon="10.65804410629626"><ele>69.16666666666667</ele><time>2026-04-04T08:03:36.999Z</time></trkpt><trkpt lat="43.59193732626784" lon="10.658146512928797"><ele>69.33333333333333</ele><time>2026-04-04T08:03:37.999Z</time></trkpt><trkpt lat="43.591921585014106" lon="10.658232793599735"><ele>69.5</ele><time>2026-04-04T08:03:38.999Z</time></trkpt><trkpt lat="43.59190548424099" lon="10.65831717235066"><ele>69.66666666666666</ele><time>2026-04-04T08:03:40Z</time></trkpt><trkpt lat="43.59187908337118" lon="10.658470932376535"><ele>69.83333333333333</ele><time>2026-04-04T08:03:42Z</time></trkpt><trkpt lat="43.591837710879815" lon="10.658606679395985"><ele>70.0</ele><time>2026-04-04T08:03:44Z</time></trkpt><trkpt lat="43.591777873906814" lon="10.658718222653645"><ele>70.0</ele><time>2026-04-04T08:03:46Z</time></trkpt><trkpt lat="43.59169062223792" lon="10.658846908226904"><ele>70.0</ele><time>2026-04-04T08:03:48Z</time></trkpt><trkpt lat="43.59162410963286" lon="10.658889773219038"><ele>70.0</ele><time>2026-04-04T08:03:49Z</time></trkpt><trkpt lat="43.59156525442504" lon="10.65894424188784"><ele>70.0</ele><time>2026-04-04T08:03:50Z</time></trkpt><trkpt lat="43.59149930405996" lon="10.658994676684422"><ele>70.0</ele><time>2026-04-04T08:03:51Z</time></trkpt><trkpt lat="43.591424972509095" lon="10.659043652628995"><ele>70.0</ele><time>2026-04-04T08:03:52Z</time></trkpt><trkpt lat="43.59135125274281" lon="10.659092150755098"><ele>70.0</ele><time>2026-04-04T08:03:53Z</time></trkpt><trkpt lat="43.59128880879105" lon="10.659133230818728"><ele>70.0</ele><time>2026-04-04T08:03:54Z</time></trkpt><trkpt lat="43.59121560123603" lon="10.659181392033183"><ele>70.0</ele><time>2026-04-04T08:03:55Z</time></trkpt><trkpt lat="43.591138931352965" lon="10.659231831009002"><ele>70.0</ele><time>2026-04-04T08:03:56Z</time></trkpt><trkpt lat="43.591064625041966" lon="10.659282236053649"><ele>70.0</ele><time>2026-04-04T08:03:57Z</time></trkpt><trkpt lat="43.590991548726016" lon="10.659332693471839"><ele>70.0</ele><time>2026-04-04T08:03:58Z</time></trkpt><trkpt lat="43.59090732103953" lon="10.659395295952063"><ele>69.66666666666666</ele><time>2026-04-04T08:03:59Z</time></trkpt><trkpt lat="43.590839145838636" lon="10.659446500879854"><ele>69.33333333333333</ele><time>2026-04-04T08:04:00Z</time></trkpt><trkpt lat="43.590766359132914" lon="10.659500649546995"><ele>69.0</ele><time>2026-04-04T08:04:01Z</time></trkpt><trkpt lat="43.590690237364015" lon="10.659550704444918"><ele>68.66666666666667</ele><time>2026-04-04T08:04:02Z</time></trkpt><trkpt lat="43.59061206718094" lon="10.65960341859284"><ele>68.33333333333334</ele><time>2026-04-04T08:04:03Z</time></trkpt><trkpt lat="43.59053860941109" lon="10.659660011191495"><ele>68.0</ele><time>2026-04-04T08:04:04Z</time></trkpt><trkpt lat="43.590469056230056" lon="10.65972088311"><ele>67.16666666666667</ele><time>2026-04-04T08:04:05Z</time></trkpt><trkpt lat="43.590411357721216" lon="10.659797764613858"><ele>66.33333333333334</ele><time>2026-04-04T08:04:06Z</time></trkpt><trkpt lat="43.590344913556216" lon="10.65984806282493"><ele>65.5</ele><time>2026-04-04T08:04:07Z</time></trkpt><trkpt lat="43.59026520976829" lon="10.659886875388496"><ele>64.66666666666667</ele><time>2026-04-04T08:04:08Z</time></trkpt><trkpt lat="43.59019858872377" lon="10.65993836009505"><ele>63.833333333333336</ele><time>2026-04-04T08:04:09Z</time></trkpt><trkpt lat="43.590122191251446" lon="10.660000500829641"><ele>63.0</ele><time>2026-04-04T08:04:10Z</time></trkpt><trkpt lat="43.590059764294786" lon="10.660054698285638"><ele>62.833333333333336</ele><time>2026-04-04T08:04:11Z</time></trkpt><trkpt lat="43.58999893090706" lon="10.660126889265891"><ele>62.66666666666667</ele><time>2026-04-04T08:04:12Z</time></trkpt><trkpt lat="43.58992060933292" lon="10.66018431303754"><ele>62.5</ele><time>2026-04-04T08:04:13Z</time></trkpt><trkpt lat="43.58984371626724" lon="10.660230232363135"><ele>62.333333333333336</ele><time>2026-04-04T08:04:14Z</time></trkpt><trkpt lat="43.58977866827809" lon="10.660301199617516"><ele>62.16666666666667</ele><time>2026-04-04T08:04:15Z</time></trkpt><trkpt lat="43.58971794471686" lon="10.660378312511176"><ele>62.0</ele><time>2026-04-04T08:04:16Z</time></trkpt><trkpt lat="43.58965901595952" lon="10.66045376919728"><ele>61.333333333333336</ele><time>2026-04-04T08:04:17Z</time></trkpt><trkpt lat="43.58960860385154" lon="10.66051832063357"><ele>60.66666666666667</ele><time>2026-04-04T08:04:18Z</time></trkpt><trkpt lat="43.58957016473547" lon="10.660611883600202"><ele>60.0</ele><time>2026-04-04T08:04:19Z</time></trkpt><trkpt lat="43.58951977505169" lon="10.660679770036321"><ele>59.33333333333333</ele><time>2026-04-04T08:04:19.999Z</time></trkpt><trkpt lat="43.58945625701613" lon="10.660757573195543"><ele>58.666666666666664</ele><time>2026-04-04T08:04:20.999Z</time></trkpt><trkpt lat="43.589387843187076" lon="10.66083832454889"><ele>58.0</ele><time>2026-04-04T08:04:21.999Z</time></trkpt><trkpt lat="43.58931851782221" lon="10.660919537761627"><ele>57.666666666666664</ele><time>2026-04-04T08:04:22.999Z</time></trkpt><trkpt lat="43.58925200269438" lon="10.660992229943254"><ele>57.33333333333333</ele><time>2026-04-04T08:04:23.999Z</time></trkpt><trkpt lat="43.589193785398734" lon="10.661054983990374"><ele>57.0</ele><time>2026-04-04T08:04:24.999Z</time></trkpt><trkpt lat="43.58913541501903" lon="10.661127404648676"><ele>56.66666666666667</ele><time>2026-04-04T08:04:25.999Z</time></trkpt><trkpt lat="43.58907557678013" lon="10.661198225762918"><ele>56.333333333333336</ele><time>2026-04-04T08:04:26.999Z</time></trkpt><trkpt lat="43.589014911964426" lon="10.661274301932094"><ele>56.0</ele><time>2026-04-04T08:04:27.999Z</time></trkpt><trkpt lat="43.58896009780337" lon="10.661354632246532"><ele>55.599999999999994</ele><time>2026-04-04T08:04:28.999Z</time></trkpt><trkpt lat="43.58890177076279" lon="10.661445970857905"><ele>55.199999999999996</ele><time>2026-04-04T08:04:29.999Z</time></trkpt><trkpt lat="43.58884525826914" lon="10.661550729297296"><ele>54.800000000000004</ele><time>2026-04-04T08:04:30.999Z</time></trkpt><trkpt lat="43.588788449017855" lon="10.661657074054187"><ele>54.400000000000006</ele><time>2026-04-04T08:04:31.999Z</time></trkpt><trkpt lat="43.588730475892426" lon="10.661762814363112"><ele>54.0</ele><time>2026-04-04T08:04:32.999Z</time></trkpt><trkpt lat="43.58867777266573" lon="10.661861264229586"><ele>55.0</ele><time>2026-04-04T08:04:33.999Z</time></trkpt><trkpt lat="43.58863010256022" lon="10.661952509304557"><ele>56.0</ele><time>2026-04-04T08:04:34.999Z</time></trkpt><trkpt lat="43.588586174125254" lon="10.662036260872686"><ele>57.0</ele><time>2026-04-04T08:04:35.999Z</time></trkpt><trkpt lat="43.58853695440091" lon="10.66212473565442"><ele>58.0</ele><time>2026-04-04T08:04:36.999Z</time></trkpt><trkpt lat="43.58847907973266" lon="10.662226444700904"><ele>59.0</ele><time>2026-04-04T08:04:37.999Z</time></trkpt><trkpt lat="43.588403799688436" lon="10.662342548534212"><ele>60.0</ele><time>2026-04-04T08:04:38.999Z</time></trkpt><trkpt lat="43.58833700847559" lon="10.662456744544997"><ele>60.0</ele><time>2026-04-04T08:04:39.999Z</time></trkpt><trkpt lat="43.58828174796777" lon="10.662558981390891"><ele>60.0</ele><time>2026-04-04T08:04:40.999Z</time></trkpt><trkpt lat="43.58822291227217" lon="10.662697436657616"><ele>60.0</ele><time>2026-04-04T08:04:41.999Z</time></trkpt><trkpt lat="43.58816735602348" lon="10.662872781311176"><ele>60.0</ele><time>2026-04-04T08:04:42.999Z</time></trkpt><trkpt lat="43.58812482047333" lon="10.66300674254118"><ele>60.8</ele><time>2026-04-04T08:04:43.999Z</time></trkpt><trkpt lat="43.588094834351466" lon="10.663098965681897"><ele>61.6</ele><time>2026-04-04T08:04:44.999Z</time></trkpt><trkpt lat="43.58802338402956" lon="10.663257060634876"><ele>62.400000000000006</ele><time>2026-04-04T08:04:46.999Z</time></trkpt><trkpt lat="43.58797753115839" lon="10.663338866698748"><ele>63.2</ele><time>2026-04-04T08:04:47.999Z</time></trkpt><trkpt lat="43.58791804159556" lon="10.6634366740352"><ele>64.0</ele><time>2026-04-04T08:04:48.999Z</time></trkpt><trkpt lat="43.58786452076687" lon="10.663514445717654"><ele>64.42857142857143</ele><time>2026-04-04T08:04:49.999Z</time></trkpt><trkpt lat="43.587810032224375" lon="10.66359214172865"><ele>64.85714285714285</ele><time>2026-04-04T08:04:50.999Z</time></trkpt><trkpt lat="43.58775783231684" lon="10.66366124324638"><ele>65.28571428571428</ele><time>2026-04-04T08:04:51.999Z</time></trkpt><trkpt lat="43.58770616406366" lon="10.663733187919377"><ele>65.71428571428571</ele><time>2026-04-04T08:04:52.999Z</time></trkpt><trkpt lat="43.587658717516256" lon="10.663799557850925"><ele>66.14285714285714</ele><time>2026-04-04T08:04:53.999Z</time></trkpt><trkpt lat="43.587614523185664" lon="10.663869692752636"><ele>66.57142857142857</ele><time>2026-04-04T08:04:54.999Z</time></trkpt><trkpt lat="43.58757470051157" lon="10.663937349062683"><ele>67.0</ele><time>2026-04-04T08:04:55.999Z</time></trkpt><trkpt lat="43.58753393871925" lon="10.664007272190455"><ele>67.0</ele><time>2026-04-04T08:04:56.999Z</time></trkpt><trkpt lat="43.5874773157571" lon="10.664150719180048"><ele>67.0</ele><time>2026-04-04T08:04:58.999Z</time></trkpt><trkpt lat="43.5874105839389" lon="10.664270987884334"><ele>67.0</ele><time>2026-04-04T08:05:00.999Z</time></trkpt><trkpt lat="43.58732218484325" lon="10.664365799588515"><ele>67.0</ele><time>2026-04-04T08:05:02.999Z</time></trkpt><trkpt lat="43.587237279407375" lon="10.664426298975954"><ele>67.0</ele><time>2026-04-04T08:05:04.999Z</time></trkpt><trkpt lat="43.5871692172083" lon="10.66451605865071"><ele>67.2</ele><time>2026-04-04T08:05:06.999Z</time></trkpt><trkpt lat="43.587102639136646" lon="10.664649656628018"><ele>67.4</ele><time>2026-04-04T08:05:08.999Z</time></trkpt><trkpt lat="43.58705536168819" lon="10.66475774417008"><ele>67.6</ele><time>2026-04-04T08:05:10.999Z</time></trkpt><trkpt lat="43.58700635889495" lon="10.664830639315577"><ele>67.8</ele><time>2026-04-04T08:05:12.999Z</time></trkpt><trkpt lat="43.586960918254405" lon="10.664926448530569"><ele>68.0</ele><time>2026-04-04T08:05:14.999Z</time></trkpt><trkpt lat="43.5868922754359" lon="10.665023575064888"><ele>68.0</ele><time>2026-04-04T08:05:16.999Z</time></trkpt><trkpt lat="43.586803230141655" lon="10.665105617647344"><ele>68.0</ele><time>2026-04-04T08:05:18.999Z</time></trkpt><trkpt lat="43.58671597091296" lon="10.665171214225674"><ele>68.0</ele><time>2026-04-04T08:05:20.999Z</time></trkpt><trkpt lat="43.58663753560922" lon="10.66524692661234"><ele>68.0</ele><time>2026-04-04T08:05:22.999Z</time></trkpt><trkpt lat="43.58654712958732" lon="10.665331873973537"><ele>68.0</ele><time>2026-04-04T08:05:24.999Z</time></trkpt><trkpt lat="43.5864441918623" lon="10.665414759899127"><ele>69.6</ele><time>2026-04-04T08:05:26.999Z</time></trkpt><trkpt lat="43.58637220546251" lon="10.665526452606816"><ele>71.19999999999999</ele><time>2026-04-04T08:05:28.999Z</time></trkpt><trkpt lat="43.58633340937218" lon="10.665603456756333"><ele>72.8</ele><time>2026-04-04T08:05:29.999Z</time></trkpt><trkpt lat="43.586294223081026" lon="10.665687666189779"><ele>74.39999999999999</ele><time>2026-04-04T08:05:30.999Z</time></trkpt><trkpt lat="43.58622117191813" lon="10.665823581083894"><ele>76.0</ele><time>2026-04-04T08:05:32.999Z</time></trkpt><trkpt lat="43.58615085235776" lon="10.66594633452775"><ele>76.8</ele><time>2026-04-04T08:05:34.999Z</time></trkpt><trkpt lat="43.5860705468563" lon="10.666056863156669"><ele>77.6</ele><time>2026-04-04T08:05:36.999Z</time></trkpt><trkpt lat="43.58601170315225" lon="10.666168628409247"><ele>78.4</ele><time>2026-04-04T08:05:38.999Z</time></trkpt><trkpt lat="43.58601793293851" lon="10.666286675208775"><ele>79.2</ele><time>2026-04-04T08:05:40.999Z</time></trkpt><trkpt lat="43.586006668776186" lon="10.666382811877826"><ele>80.0</ele><time>2026-04-04T08:05:42.999Z</time></trkpt><trkpt lat="43.58589482060289" lon="10.666453645402468"><ele>80.16666666666667</ele><time>2026-04-04T08:05:45Z</time></trkpt><trkpt lat="43.58583086204621" lon="10.666515210976636"><ele>80.33333333333334</ele><time>2026-04-04T08:05:46Z</time></trkpt><trkpt lat="43.58577797190882" lon="10.66657883080014"><ele>80.5</ele><time>2026-04-04T08:05:47Z</time></trkpt><trkpt lat="43.58571947807892" lon="10.666652597289835"><ele>80.66666666666667</ele><time>2026-04-04T08:05:48Z</time></trkpt><trkpt lat="43.585661161750394" lon="10.66672593805431"><ele>80.83333333333333</ele><time>2026-04-04T08:05:49Z</time></trkpt><trkpt lat="43.58559851376942" lon="10.666801186928113"><ele>81.0</ele><time>2026-04-04T08:05:50Z</time></trkpt><trkpt lat="43.58552738158228" lon="10.666879699777635"><ele>81.8</ele><time>2026-04-04T08:05:51Z</time></trkpt><trkpt lat="43.58544617073479" lon="10.666954812507504"><ele>82.6</ele><time>2026-04-04T08:05:52Z</time></trkpt><trkpt lat="43.58537110015062" lon="10.667017015556304"><ele>83.4</ele><time>2026-04-04T08:05:53Z</time></trkpt><trkpt lat="43.585274045362134" lon="10.667087555387956"><ele>84.2</ele><time>2026-04-04T08:05:54Z</time></trkpt><trkpt lat="43.58519331695343" lon="10.66715708976393"><ele>85.0</ele><time>2026-04-04T08:05:55Z</time></trkpt><trkpt lat="43.58511033288792" lon="10.667230567224674"><ele>85.0</ele><time>2026-04-04T08:05:56Z</time></trkpt><trkpt lat="43.585024940566136" lon="10.667305618011934"><ele>85.0</ele><time>2026-04-04T08:05:57Z</time></trkpt><trkpt lat="43.58493489068608" lon="10.667377399071594"><ele>85.0</ele><time>2026-04-04T08:05:58Z</time></trkpt><trkpt lat="43.58484452188418" lon="10.667451002374552"><ele>85.0</ele><time>2026-04-04T08:05:59Z</time></trkpt><trkpt lat="43.584767289100355" lon="10.6675153035348"><ele>85.0</ele><time>2026-04-04T08:06:00Z</time></trkpt><trkpt lat="43.5846979308841" lon="10.667573562763277"><ele>85.0</ele><time>2026-04-04T08:06:01Z</time></trkpt><trkpt lat="43.584643334720795" lon="10.667635014127459"><ele>85.0</ele><time>2026-04-04T08:06:02Z</time></trkpt><trkpt lat="43.58457892771116" lon="10.667727235739976"><ele>85.0</ele><time>2026-04-04T08:06:04Z</time></trkpt><trkpt lat="43.58455417652627" lon="10.667826504678098"><ele>85.0</ele><time>2026-04-04T08:06:07Z</time></trkpt><trkpt lat="43.584529648307544" lon="10.667927955811844"><ele>85.0</ele><time>2026-04-04T08:06:10Z</time></trkpt><trkpt lat="43.58450569330413" lon="10.66802835209333"><ele>85.0</ele><time>2026-04-04T08:06:12Z</time></trkpt><trkpt lat="43.58447345511857" lon="10.668152531117892"><ele>85.0</ele><time>2026-04-04T08:06:14Z</time></trkpt><trkpt lat="43.58443703932552" lon="10.668298817932444"><ele>85.0</ele><time>2026-04-04T08:06:16Z</time></trkpt><trkpt lat="43.58438395297431" lon="10.668437559490076"><ele>85.0</ele><time>2026-04-04T08:06:18Z</time></trkpt><trkpt lat="43.584311523768946" lon="10.6685599805553"><ele>85.0</ele><time>2026-04-04T08:06:20Z</time></trkpt><trkpt lat="43.58424149245546" lon="10.668725376578566"><ele>85.0</ele><time>2026-04-04T08:06:22Z</time></trkpt><trkpt lat="43.58420364410238" lon="10.668822821428648"><ele>85.0</ele><time>2026-04-04T08:06:23Z</time></trkpt><trkpt lat="43.58417719729386" lon="10.668921838966414"><ele>85.0</ele><time>2026-04-04T08:06:24Z</time></trkpt><trkpt lat="43.584154497699615" lon="10.669011507083036"><ele>85.0</ele><time>2026-04-04T08:06:25Z</time></trkpt><trkpt lat="43.5841081022022" lon="10.669153565931945"><ele>85.0</ele><time>2026-04-04T08:06:27Z</time></trkpt><trkpt lat="43.58402011082847" lon="10.66928896686217"><ele>85.0</ele><time>2026-04-04T08:06:28.999Z</time></trkpt><trkpt lat="43.583922765165454" lon="10.669388160159931"><ele>85.0</ele><time>2026-04-04T08:06:30.999Z</time></trkpt><trkpt lat="43.58382184801359" lon="10.669466246766659"><ele>85.0</ele><time>2026-04-04T08:06:32.999Z</time></trkpt><trkpt lat="43.58371096537236" lon="10.669556046310593"><ele>85.0</ele><time>2026-04-04T08:06:34.999Z</time></trkpt><trkpt lat="43.58365505138495" lon="10.669598862019297"><ele>85.0</ele><time>2026-04-04T08:06:35.999Z</time></trkpt><trkpt lat="43.58360074857203" lon="10.669647823737169"><ele>85.0</ele><time>2026-04-04T08:06:36.999Z</time></trkpt><trkpt lat="43.58354630110242" lon="10.669697576852412"><ele>85.0</ele><time>2026-04-04T08:06:37.999Z</time></trkpt><trkpt lat="43.58349113506515" lon="10.669740310874989"><ele>85.0</ele><time>2026-04-04T08:06:38.999Z</time></trkpt><trkpt lat="43.583432040095424" lon="10.669779494204406"><ele>85.0</ele><time>2026-04-04T08:06:39.999Z</time></trkpt><trkpt lat="43.58337240660057" lon="10.669815398162553"><ele>85.0</ele><time>2026-04-04T08:06:40.999Z</time></trkpt><trkpt lat="43.583314804053934" lon="10.669852830539137"><ele>85.0</ele><time>2026-04-04T08:06:41.999Z</time></trkpt><trkpt lat="43.58325015541979" lon="10.669882904802986"><ele>85.0</ele><time>2026-04-04T08:06:42.999Z</time></trkpt><trkpt lat="43.583191190593425" lon="10.669922816677854"><ele>85.0</ele><time>2026-04-04T08:06:43.999Z</time></trkpt><trkpt lat="43.583141386817125" lon="10.669982770760083"><ele>85.0</ele><time>2026-04-04T08:06:44.999Z</time></trkpt><trkpt lat="43.58309821010687" lon="10.670053271512172"><ele>85.0</ele><time>2026-04-04T08:06:45.999Z</time></trkpt><trkpt lat="43.583053252636105" lon="10.670116210998833"><ele>85.0</ele><time>2026-04-04T08:06:46.999Z</time></trkpt><trkpt lat="43.58295912746034" lon="10.670230241254803"><ele>85.0</ele><time>2026-04-04T08:06:48.999Z</time></trkpt><trkpt lat="43.58290726262391" lon="10.670279756321671"><ele>85.0</ele><time>2026-04-04T08:06:49.999Z</time></trkpt><trkpt lat="43.58284876424672" lon="10.670324845080678"><ele>85.5</ele><time>2026-04-04T08:06:50.999Z</time></trkpt><trkpt lat="43.58278541780458" lon="10.670369679458855"><ele>86.0</ele><time>2026-04-04T08:06:51.999Z</time></trkpt><trkpt lat="43.582722641113385" lon="10.670405620484166"><ele>86.5</ele><time>2026-04-04T08:06:52.999Z</time></trkpt><trkpt lat="43.58266120071109" lon="10.670441586586715"><ele>87.0</ele><time>2026-04-04T08:06:53.999Z</time></trkpt><trkpt lat="43.58260171302683" lon="10.670470969442501"><ele>87.5</ele><time>2026-04-04T08:06:54.999Z</time></trkpt><trkpt lat="43.58250127178557" lon="10.670514983425464"><ele>88.0</ele><time>2026-04-04T08:06:56.999Z</time></trkpt><trkpt lat="43.582424791154246" lon="10.670560721511295"><ele>88.0</ele><time>2026-04-04T08:06:58.999Z</time></trkpt><trkpt lat="43.582345555075335" lon="10.670656092714623"><ele>88.0</ele><time>2026-04-04T08:07:00.999Z</time></trkpt><trkpt lat="43.582262632186016" lon="10.670764710714167"><ele>88.0</ele><time>2026-04-04T08:07:02.999Z</time></trkpt><trkpt lat="43.58219712616008" lon="10.670863547072424"><ele>88.0</ele><time>2026-04-04T08:07:04.999Z</time></trkpt><trkpt lat="43.58209230554835" lon="10.67097453347233"><ele>88.0</ele><time>2026-04-04T08:07:06.999Z</time></trkpt><trkpt lat="43.582030444467044" lon="10.671014512371546"><ele>87.85714285714286</ele><time>2026-04-04T08:07:07.999Z</time></trkpt><trkpt lat="43.58194528492265" lon="10.671035413302686"><ele>87.71428571428571</ele><time>2026-04-04T08:07:08.999Z</time></trkpt><trkpt lat="43.5818686450801" lon="10.671070657253862"><ele>87.57142857142857</ele><time>2026-04-04T08:07:09.999Z</time></trkpt><trkpt lat="43.58179325147974" lon="10.6710944371991"><ele>87.42857142857143</ele><time>2026-04-04T08:07:10.999Z</time></trkpt><trkpt lat="43.58172916889695" lon="10.671106937035383"><ele>87.28571428571429</ele><time>2026-04-04T08:07:11.999Z</time></trkpt><trkpt lat="43.58165731661447" lon="10.671102056571742"><ele>87.14285714285714</ele><time>2026-04-04T08:07:12.999Z</time></trkpt><trkpt lat="43.581591968695065" lon="10.671108990001569"><ele>87.0</ele><time>2026-04-04T08:07:13.999Z</time></trkpt><trkpt lat="43.58147841265813" lon="10.671157556814507"><ele>86.85714285714286</ele><time>2026-04-04T08:07:15.999Z</time></trkpt><trkpt lat="43.58141990338646" lon="10.671214024033684"><ele>86.71428571428572</ele><time>2026-04-04T08:07:16.999Z</time></trkpt><trkpt lat="43.58137129837763" lon="10.671278111322723"><ele>86.57142857142858</ele><time>2026-04-04T08:07:17.999Z</time></trkpt><trkpt lat="43.581322382566455" lon="10.671352588988746"><ele>86.42857142857143</ele><time>2026-04-04T08:07:18.999Z</time></trkpt><trkpt lat="43.58126897973408" lon="10.671434779750326"><ele>86.28571428571429</ele><time>2026-04-04T08:07:19.999Z</time></trkpt><trkpt lat="43.581215320416156" lon="10.671515203746395"><ele>86.14285714285715</ele><time>2026-04-04T08:07:20.999Z</time></trkpt><trkpt lat="43.58116233278648" lon="10.671586125097106"><ele>86.0</ele><time>2026-04-04T08:07:21.999Z</time></trkpt><trkpt lat="43.581108522908316" lon="10.671658741905121"><ele>86.00000000000001</ele><time>2026-04-04T08:07:22.999Z</time></trkpt><trkpt lat="43.581061983342465" lon="10.671731277968432"><ele>86.0</ele><time>2026-04-04T08:07:23.999Z</time></trkpt><trkpt lat="43.581012552198416" lon="10.671807221045022"><ele>86.0</ele><time>2026-04-04T08:07:24.999Z</time></trkpt><trkpt lat="43.58096645232772" lon="10.671881920136782"><ele>86.0</ele><time>2026-04-04T08:07:25.999Z</time></trkpt><trkpt lat="43.58091826957655" lon="10.671955521481978"><ele>86.0</ele><time>2026-04-04T08:07:26.999Z</time></trkpt><trkpt lat="43.580869107819865" lon="10.67202728373642"><ele>86.00000000000001</ele><time>2026-04-04T08:07:27.999Z</time></trkpt><trkpt lat="43.58081919869034" lon="10.672103099585563"><ele>86.0</ele><time>2026-04-04T08:07:28.999Z</time></trkpt><trkpt lat="43.58077037418357" lon="10.672179035459974"><ele>85.5</ele><time>2026-04-04T08:07:29.999Z</time></trkpt><trkpt lat="43.58072319472549" lon="10.672266963098183"><ele>85.0</ele><time>2026-04-04T08:07:30.999Z</time></trkpt><trkpt lat="43.58067177141136" lon="10.672350359945339"><ele>84.5</ele><time>2026-04-04T08:07:31.999Z</time></trkpt><trkpt lat="43.5806151358011" lon="10.672437879014742"><ele>84.0</ele><time>2026-04-04T08:07:32.999Z</time></trkpt><trkpt lat="43.58056181242" lon="10.672520988621034"><ele>83.5</ele><time>2026-04-04T08:07:33.999Z</time></trkpt><trkpt lat="43.580506914159315" lon="10.672616736752268"><ele>83.0</ele><time>2026-04-04T08:07:34.999Z</time></trkpt><trkpt lat="43.58045448855722" lon="10.672715137488176"><ele>82.83333333333334</ele><time>2026-04-04T08:07:35.999Z</time></trkpt><trkpt lat="43.58040204925265" lon="10.672794308573058"><ele>82.66666666666667</ele><time>2026-04-04T08:07:36.999Z</time></trkpt><trkpt lat="43.58034438948164" lon="10.672868502196808"><ele>82.5</ele><time>2026-04-04T08:07:38.999Z</time></trkpt><trkpt lat="43.580271811401005" lon="10.672770146796578"><ele>82.33333333333333</ele><time>2026-04-04T08:07:42.999Z</time></trkpt><trkpt lat="43.5802370281288" lon="10.672663344680807"><ele>82.16666666666666</ele><time>2026-04-04T08:07:43.999Z</time></trkpt><trkpt lat="43.58019579505241" lon="10.672560171407474"><ele>82.0</ele><time>2026-04-04T08:07:44.999Z</time></trkpt><trkpt lat="43.58014991984755" lon="10.672467463791092"><ele>82.8</ele><time>2026-04-04T08:07:45.999Z</time></trkpt><trkpt lat="43.58010276315601" lon="10.67237547034061"><ele>83.6</ele><time>2026-04-04T08:07:46.999Z</time></trkpt><trkpt lat="43.58004215845528" lon="10.67228199969321"><ele>84.39999999999999</ele><time>2026-04-04T08:07:47.999Z</time></trkpt><trkpt lat="43.579976686374614" lon="10.672185165372348"><ele>85.19999999999999</ele><time>2026-04-04T08:07:48.999Z</time></trkpt><trkpt lat="43.57990574641692" lon="10.672085128372705"><ele>86.0</ele><time>2026-04-04T08:07:49.999Z</time></trkpt><trkpt lat="43.57983539582619" lon="10.671986887268506"><ele>86.0</ele><time>2026-04-04T08:07:51Z</time></trkpt><trkpt lat="43.57977201450011" lon="10.671903847332496"><ele>86.0</ele><time>2026-04-04T08:07:52Z</time></trkpt><trkpt lat="43.57971770440321" lon="10.671827998424451"><ele>86.0</ele><time>2026-04-04T08:07:53Z</time></trkpt><trkpt lat="43.579668275894555" lon="10.671760249711339"><ele>86.0</ele><time>2026-04-04T08:07:54Z</time></trkpt><trkpt lat="43.5795726873237" lon="10.671687834295259"><ele>86.0</ele><time>2026-04-04T08:07:56Z</time></trkpt><trkpt lat="43.579495591730534" lon="10.67169850491035"><ele>86.0</ele><time>2026-04-04T08:07:58Z</time></trkpt><trkpt lat="43.57943610609208" lon="10.671837125437238"><ele>83.8</ele><time>2026-04-04T08:08:00Z</time></trkpt><trkpt lat="43.57943368455774" lon="10.671956027830849"><ele>81.6</ele><time>2026-04-04T08:08:01Z</time></trkpt><trkpt lat="43.579435173035655" lon="10.672079637502375"><ele>79.4</ele><time>2026-04-04T08:08:02Z</time></trkpt><trkpt lat="43.5794389382089" lon="10.672199347111205"><ele>77.2</ele><time>2026-04-04T08:08:03Z</time></trkpt><trkpt lat="43.57945418683043" lon="10.672368473429087"><ele>75.0</ele><time>2026-04-04T08:08:04Z</time></trkpt><trkpt lat="43.5794661981774" lon="10.672549246515686"><ele>75.0</ele><time>2026-04-04T08:08:05Z</time></trkpt><trkpt lat="43.57947627481766" lon="10.672732351486953"><ele>75.0</ele><time>2026-04-04T08:08:06Z</time></trkpt><trkpt lat="43.579488614737365" lon="10.67292486211005"><ele>75.0</ele><time>2026-04-04T08:08:07Z</time></trkpt><trkpt lat="43.57949432820382" lon="10.67312096161435"><ele>75.0</ele><time>2026-04-04T08:08:08Z</time></trkpt><trkpt lat="43.57950268565345" lon="10.673324000775715"><ele>75.0</ele><time>2026-04-04T08:08:09Z</time></trkpt><trkpt lat="43.57951147871634" lon="10.673534214596225"><ele>75.0</ele><time>2026-04-04T08:08:10Z</time></trkpt><trkpt lat="43.579521137705036" lon="10.673743346527736"><ele>75.0</ele><time>2026-04-04T08:08:11Z</time></trkpt><trkpt lat="43.57953108058347" lon="10.67395564922482"><ele>75.0</ele><time>2026-04-04T08:08:12Z</time></trkpt><trkpt lat="43.579540766705605" lon="10.67417165285174"><ele>75.0</ele><time>2026-04-04T08:08:13Z</time></trkpt><trkpt lat="43.579551252483505" lon="10.674391431227138"><ele>75.0</ele><time>2026-04-04T08:08:14Z</time></trkpt><trkpt lat="43.57956105605024" lon="10.674609942818606"><ele>73.66666666666667</ele><time>2026-04-04T08:08:15Z</time></trkpt><trkpt lat="43.579570994847714" lon="10.674830379411622"><ele>72.33333333333334</ele><time>2026-04-04T08:08:16Z</time></trkpt><trkpt lat="43.579581689566254" lon="10.675049849835181"><ele>71.0</ele><time>2026-04-04T08:08:17Z</time></trkpt><trkpt lat="43.579592532887546" lon="10.675274811334413"><ele>68.33333333333334</ele><time>2026-04-04T08:08:18Z</time></trkpt><trkpt lat="43.579602625308894" lon="10.675503169621647"><ele>65.66666666666667</ele><time>2026-04-04T08:08:19Z</time></trkpt><trkpt lat="43.57961314710514" lon="10.675736100405455"><ele>63.0</ele><time>2026-04-04T08:08:20Z</time></trkpt><trkpt lat="43.57962506864238" lon="10.675970579396669"><ele>60.66666666666667</ele><time>2026-04-04T08:08:21Z</time></trkpt><trkpt lat="43.57963660229165" lon="10.676200571006946"><ele>58.333333333333336</ele><time>2026-04-04T08:08:22Z</time></trkpt><trkpt lat="43.579648135176406" lon="10.676437763763255"><ele>56.0</ele><time>2026-04-04T08:08:23Z</time></trkpt><trkpt lat="43.5796605412035" lon="10.676680571754416"><ele>56.0</ele><time>2026-04-04T08:08:24Z</time></trkpt><trkpt lat="43.5796752400577" lon="10.676919597745158"><ele>56.0</ele><time>2026-04-04T08:08:25Z</time></trkpt><trkpt lat="43.579687573386465" lon="10.677153901566385"><ele>56.0</ele><time>2026-04-04T08:08:26Z</time></trkpt><trkpt lat="43.579694412619254" lon="10.677365127146336"><ele>55.66666666666667</ele><time>2026-04-04T08:08:26.999Z</time></trkpt><trkpt lat="43.57970268555882" lon="10.677603034584621"><ele>55.33333333333333</ele><time>2026-04-04T08:08:27.999Z</time></trkpt><trkpt lat="43.57971384036598" lon="10.677834369309833"><ele>55.0</ele><time>2026-04-04T08:08:28.999Z</time></trkpt><trkpt lat="43.5797293941406" lon="10.678059989182234"><ele>54.0</ele><time>2026-04-04T08:08:29.999Z</time></trkpt><trkpt lat="43.57974225467274" lon="10.678289134254134"><ele>53.0</ele><time>2026-04-04T08:08:30.999Z</time></trkpt><trkpt lat="43.57974935807838" lon="10.678509000801487"><ele>52.0</ele><time>2026-04-04T08:08:31.999Z</time></trkpt><trkpt lat="43.57976098530478" lon="10.67873241750384"><ele>50.33333333333333</ele><time>2026-04-04T08:08:32.999Z</time></trkpt><trkpt lat="43.57976885512244" lon="10.678947426906433"><ele>48.666666666666664</ele><time>2026-04-04T08:08:33.999Z</time></trkpt><trkpt lat="43.579777881195035" lon="10.679167140127305"><ele>47.0</ele><time>2026-04-04T08:08:34.999Z</time></trkpt><trkpt lat="43.57978779524798" lon="10.679352774622933"><ele>46.0</ele><time>2026-04-04T08:08:35.999Z</time></trkpt><trkpt lat="43.57979496452526" lon="10.67952379564641"><ele>45.0</ele><time>2026-04-04T08:08:36.999Z</time></trkpt><trkpt lat="43.57979670149973" lon="10.679675977292558"><ele>44.0</ele><time>2026-04-04T08:08:37.999Z</time></trkpt><trkpt lat="43.57980835733166" lon="10.679829476931708"><ele>43.0</ele><time>2026-04-04T08:08:38.999Z</time></trkpt><trkpt lat="43.57981477081072" lon="10.679959504214947"><ele>42.0</ele><time>2026-04-04T08:08:39.999Z</time></trkpt><trkpt lat="43.57982070248521" lon="10.680072675249791"><ele>42.0</ele><time>2026-04-04T08:08:40.999Z</time></trkpt><trkpt lat="43.57983298396083" lon="10.680184431350131"><ele>42.0</ele><time>2026-04-04T08:08:41.999Z</time></trkpt><trkpt lat="43.579867000610626" lon="10.680280882060728"><ele>42.0</ele><time>2026-04-04T08:08:42.999Z</time></trkpt><trkpt lat="43.579855585919866" lon="10.68045462688156"><ele>42.0</ele><time>2026-04-04T08:08:44.999Z</time></trkpt><trkpt lat="43.57985263610956" lon="10.68057914004948"><ele>42.0</ele><time>2026-04-04T08:08:45.999Z</time></trkpt><trkpt lat="43.5798639497509" lon="10.680716689931721"><ele>41.25</ele><time>2026-04-04T08:08:46.999Z</time></trkpt><trkpt lat="43.57986606937284" lon="10.680872334208757"><ele>40.5</ele><time>2026-04-04T08:08:47.999Z</time></trkpt><trkpt lat="43.57987375167397" lon="10.68103872953039"><ele>39.75</ele><time>2026-04-04T08:08:48.999Z</time></trkpt><trkpt lat="43.579882355538174" lon="10.68120836629952"><ele>39.0</ele><time>2026-04-04T08:08:49.999Z</time></trkpt><trkpt lat="43.579893552169615" lon="10.68139358554189"><ele>39.0</ele><time>2026-04-04T08:08:50.999Z</time></trkpt><trkpt lat="43.57990486610317" lon="10.681577855778892"><ele>39.0</ele><time>2026-04-04T08:08:51.999Z</time></trkpt><trkpt lat="43.579910373246484" lon="10.681749433578199"><ele>39.0</ele><time>2026-04-04T08:08:52.999Z</time></trkpt><trkpt lat="43.57991200086063" lon="10.681904280234264"><ele>39.0</ele><time>2026-04-04T08:08:53.999Z</time></trkpt><trkpt lat="43.57991629799957" lon="10.682045405152026"><ele>39.0</ele><time>2026-04-04T08:08:54.999Z</time></trkpt><trkpt lat="43.57991681270524" lon="10.682169050708712"><ele>39.0</ele><time>2026-04-04T08:08:55.999Z</time></trkpt><trkpt lat="43.57990924530892" lon="10.68228877633949"><ele>39.0</ele><time>2026-04-04T08:08:56.999Z</time></trkpt><trkpt lat="43.579897732462555" lon="10.682398526269035"><ele>39.0</ele><time>2026-04-04T08:08:57.999Z</time></trkpt><trkpt lat="43.579879732571555" lon="10.682530821181423"><ele>39.0</ele><time>2026-04-04T08:08:58.999Z</time></trkpt><trkpt lat="43.57984241653616" lon="10.682656051648499"><ele>38.8</ele><time>2026-04-04T08:08:59.999Z</time></trkpt><trkpt lat="43.57979877981353" lon="10.682774206722163"><ele>38.599999999999994</ele><time>2026-04-04T08:09:00.999Z</time></trkpt><trkpt lat="43.57978756318505" lon="10.682897776657006"><ele>38.4</ele><time>2026-04-04T08:09:01.999Z</time></trkpt><trkpt lat="43.579811779949644" lon="10.683016996755255"><ele>38.199999999999996</ele><time>2026-04-04T08:09:02.999Z</time></trkpt><trkpt lat="43.57987396788707" lon="10.683132546269611"><ele>38.0</ele><time>2026-04-04T08:09:03.999Z</time></trkpt><trkpt lat="43.57994276033906" lon="10.683250052020398"><ele>38.0</ele><time>2026-04-04T08:09:04.999Z</time></trkpt><trkpt lat="43.57998986180472" lon="10.683403097507494"><ele>38.0</ele><time>2026-04-04T08:09:05.999Z</time></trkpt><trkpt lat="43.58000678794826" lon="10.683587196640143"><ele>38.0</ele><time>2026-04-04T08:09:06.999Z</time></trkpt><trkpt lat="43.580009906590675" lon="10.683801079456035"><ele>38.0</ele><time>2026-04-04T08:09:07.999Z</time></trkpt><trkpt lat="43.58002061776924" lon="10.684029299858201"><ele>37.666666666666664</ele><time>2026-04-04T08:09:08.999Z</time></trkpt><trkpt lat="43.580035303941365" lon="10.684279822584424"><ele>37.333333333333336</ele><time>2026-04-04T08:09:09.999Z</time></trkpt><trkpt lat="43.580047158233626" lon="10.684526188400497"><ele>37.0</ele><time>2026-04-04T08:09:10.999Z</time></trkpt><trkpt lat="43.58005861231858" lon="10.684782461063918"><ele>37.333333333333336</ele><time>2026-04-04T08:09:11.999Z</time></trkpt><trkpt lat="43.58007223720892" lon="10.685047441997318"><ele>37.666666666666664</ele><time>2026-04-04T08:09:12.999Z</time></trkpt><trkpt lat="43.580085861955496" lon="10.685313700090918"><ele>38.0</ele><time>2026-04-04T08:09:13.999Z</time></trkpt><trkpt lat="43.58009952245569" lon="10.685574453378628"><ele>38.0</ele><time>2026-04-04T08:09:14.999Z</time></trkpt><trkpt lat="43.58011189258896" lon="10.68582385588747"><ele>38.0</ele><time>2026-04-04T08:09:15.999Z</time></trkpt><trkpt lat="43.58012313075249" lon="10.686066761358424"><ele>38.0</ele><time>2026-04-04T08:09:16.999Z</time></trkpt><trkpt lat="43.58013373437617" lon="10.686300977610246"><ele>37.33333333333333</ele><time>2026-04-04T08:09:17.999Z</time></trkpt><trkpt lat="43.580146580015914" lon="10.686529937438625"><ele>36.666666666666664</ele><time>2026-04-04T08:09:18.999Z</time></trkpt><trkpt lat="43.58015855156103" lon="10.686756766747484"><ele>36.0</ele><time>2026-04-04T08:09:19.999Z</time></trkpt><trkpt lat="43.58016821137904" lon="10.686979095808885"><ele>36.0</ele><time>2026-04-04T08:09:20.999Z</time></trkpt><trkpt lat="43.58017919836405" lon="10.687199304687168"><ele>36.0</ele><time>2026-04-04T08:09:21.999Z</time></trkpt><trkpt lat="43.58019094132423" lon="10.687426643341885"><ele>36.0</ele><time>2026-04-04T08:09:22.999Z</time></trkpt><trkpt lat="43.58020155343017" lon="10.687653509801303"><ele>36.0</ele><time>2026-04-04T08:09:23.999Z</time></trkpt><trkpt lat="43.580213431471286" lon="10.687880288616336"><ele>36.0</ele><time>2026-04-04T08:09:24.999Z</time></trkpt><trkpt lat="43.58022410135709" lon="10.68810266138917"><ele>36.0</ele><time>2026-04-04T08:09:25.999Z</time></trkpt><trkpt lat="43.580234015325786" lon="10.68833036518933"><ele>36.0</ele><time>2026-04-04T08:09:26.999Z</time></trkpt><trkpt lat="43.580243605241684" lon="10.688555446963242"><ele>36.0</ele><time>2026-04-04T08:09:27.999Z</time></trkpt><trkpt lat="43.58025394954746" lon="10.688785447750432"><ele>36.0</ele><time>2026-04-04T08:09:28.999Z</time></trkpt><trkpt lat="43.580266737429596" lon="10.689021172578524"><ele>35.666666666666664</ele><time>2026-04-04T08:09:29.999Z</time></trkpt><trkpt lat="43.58027763058012" lon="10.689251018912016"><ele>35.33333333333333</ele><time>2026-04-04T08:09:30.999Z</time></trkpt><trkpt lat="43.58028881683493" lon="10.689485399458464"><ele>35.0</ele><time>2026-04-04T08:09:31.999Z</time></trkpt><trkpt lat="43.58030085723976" lon="10.689723024509757"><ele>35.0</ele><time>2026-04-04T08:09:32.999Z</time></trkpt><trkpt lat="43.580312665598434" lon="10.689959235031811"><ele>35.0</ele><time>2026-04-04T08:09:33.999Z</time></trkpt><trkpt lat="43.58032472128953" lon="10.690200664060638"><ele>35.0</ele><time>2026-04-04T08:09:34.999Z</time></trkpt><trkpt lat="43.580336332980025" lon="10.69045512427774"><ele>35.0</ele><time>2026-04-04T08:09:35.999Z</time></trkpt><trkpt lat="43.58034811056133" lon="10.690709712093648"><ele>35.0</ele><time>2026-04-04T08:09:36.999Z</time></trkpt><trkpt lat="43.58036155696692" lon="10.690960424288436"><ele>35.0</ele><time>2026-04-04T08:09:37.999Z</time></trkpt><trkpt lat="43.58037379579186" lon="10.691220347375397"><ele>35.0</ele><time>2026-04-04T08:09:38.999Z</time></trkpt><trkpt lat="43.5803874118369" lon="10.691480608158852"><ele>35.0</ele><time>2026-04-04T08:09:39.999Z</time></trkpt><trkpt lat="43.58040736105956" lon="10.691744726165382"><ele>35.0</ele><time>2026-04-04T08:09:40.999Z</time></trkpt><trkpt lat="43.58043525196278" lon="10.692003067446175"><ele>35.0</ele><time>2026-04-04T08:09:41.999Z</time></trkpt><trkpt lat="43.580473902827976" lon="10.692267464259674"><ele>35.0</ele><time>2026-04-04T08:09:42.999Z</time></trkpt><trkpt lat="43.58052045644497" lon="10.692534353612789"><ele>35.0</ele><time>2026-04-04T08:09:43.999Z</time></trkpt><trkpt lat="43.58056843459063" lon="10.692796435933067"><ele>35.666666666666664</ele><time>2026-04-04T08:09:44.999Z</time></trkpt><trkpt lat="43.58061527492544" lon="10.693057594099123"><ele>36.333333333333336</ele><time>2026-04-04T08:09:45.999Z</time></trkpt><trkpt lat="43.58065756071664" lon="10.69331713180346"><ele>37.0</ele><time>2026-04-04T08:09:46.999Z</time></trkpt><trkpt lat="43.58068457820821" lon="10.693573902211888"><ele>37.0</ele><time>2026-04-04T08:09:47.999Z</time></trkpt><trkpt lat="43.58069754888553" lon="10.693837534700576"><ele>37.0</ele><time>2026-04-04T08:09:48.999Z</time></trkpt><trkpt lat="43.580696463378956" lon="10.694108749710683"><ele>37.0</ele><time>2026-04-04T08:09:49.999Z</time></trkpt><trkpt lat="43.58068902024651" lon="10.694372999278567"><ele>36.66666666666667</ele><time>2026-04-04T08:09:50.999Z</time></trkpt><trkpt lat="43.58067701811709" lon="10.694636989033334"><ele>36.333333333333336</ele><time>2026-04-04T08:09:51.999Z</time></trkpt><trkpt lat="43.58067166237542" lon="10.694901639857894"><ele>36.0</ele><time>2026-04-04T08:09:52.999Z</time></trkpt><trkpt lat="43.58066938210966" lon="10.695163266868672"><ele>36.0</ele><time>2026-04-04T08:09:53.999Z</time></trkpt><trkpt lat="43.58066495160714" lon="10.695425252940145"><ele>36.0</ele><time>2026-04-04T08:09:54.999Z</time></trkpt><trkpt lat="43.580660667068685" lon="10.695683887672624"><ele>36.0</ele><time>2026-04-04T08:09:55.999Z</time></trkpt><trkpt lat="43.58065752407055" lon="10.695946579599092"><ele>36.333333333333336</ele><time>2026-04-04T08:09:57Z</time></trkpt><trkpt lat="43.58065384407132" lon="10.696208366649953"><ele>36.66666666666667</ele><time>2026-04-04T08:09:58Z</time></trkpt><trkpt lat="43.58065042270821" lon="10.696469323585081"><ele>37.0</ele><time>2026-04-04T08:09:59Z</time></trkpt><trkpt lat="43.58064677739058" lon="10.696731203054165"><ele>37.333333333333336</ele><time>2026-04-04T08:10:00Z</time></trkpt><trkpt lat="43.5806419290752" lon="10.696995308342679"><ele>37.666666666666664</ele><time>2026-04-04T08:10:01Z</time></trkpt><trkpt lat="43.58063837020426" lon="10.697256515086336"><ele>38.0</ele><time>2026-04-04T08:10:02Z</time></trkpt><trkpt lat="43.58063509101259" lon="10.697516460412526"><ele>37.666666666666664</ele><time>2026-04-04T08:10:03Z</time></trkpt><trkpt lat="43.58063251085871" lon="10.697778317068456"><ele>37.333333333333336</ele><time>2026-04-04T08:10:04Z</time></trkpt><trkpt lat="43.580629804764335" lon="10.698037233618377"><ele>37.0</ele><time>2026-04-04T08:10:05Z</time></trkpt><trkpt lat="43.580628695503016" lon="10.698297758965902"><ele>37.0</ele><time>2026-04-04T08:10:06Z</time></trkpt><trkpt lat="43.58062468271101" lon="10.698560146506804"><ele>37.0</ele><time>2026-04-04T08:10:07Z</time></trkpt><trkpt lat="43.58062077055041" lon="10.698822339009059"><ele>37.0</ele><time>2026-04-04T08:10:08Z</time></trkpt><trkpt lat="43.580616449062624" lon="10.699084959961164"><ele>36.66666666666667</ele><time>2026-04-04T08:10:09Z</time></trkpt><trkpt lat="43.58061308279847" lon="10.699348803572171"><ele>36.333333333333336</ele><time>2026-04-04T08:10:10Z</time></trkpt><trkpt lat="43.580610871238896" lon="10.699609011198897"><ele>36.0</ele><time>2026-04-04T08:10:11Z</time></trkpt><trkpt lat="43.58060625319304" lon="10.699870777100248"><ele>36.0</ele><time>2026-04-04T08:10:12Z</time></trkpt><trkpt lat="43.580601955254345" lon="10.700130572898212"><ele>36.0</ele><time>2026-04-04T08:10:13Z</time></trkpt><trkpt lat="43.58059771503909" lon="10.700387307473418"><ele>36.0</ele><time>2026-04-04T08:10:14Z</time></trkpt><trkpt lat="43.580594394781656" lon="10.700643378644546"><ele>35.666666666666664</ele><time>2026-04-04T08:10:15Z</time></trkpt><trkpt lat="43.58059175850719" lon="10.700898414972114"><ele>35.33333333333333</ele><time>2026-04-04T08:10:16Z</time></trkpt><trkpt lat="43.58058960794266" lon="10.701152031781188"><ele>35.0</ele><time>2026-04-04T08:10:17Z</time></trkpt><trkpt lat="43.58058470912388" lon="10.70165262356864"><ele>35.0</ele><time>2026-04-04T08:10:19Z</time></trkpt><trkpt lat="43.58058079526747" lon="10.701907856348617"><ele>35.0</ele><time>2026-04-04T08:10:20Z</time></trkpt><trkpt lat="43.58057542000785" lon="10.702148602674407"><ele>35.0</ele><time>2026-04-04T08:10:21Z</time></trkpt><trkpt lat="43.580572060576806" lon="10.702372513415327"><ele>35.33333333333333</ele><time>2026-04-04T08:10:22Z</time></trkpt><trkpt lat="43.58057128916716" lon="10.702602927400246"><ele>35.666666666666664</ele><time>2026-04-04T08:10:23Z</time></trkpt><trkpt lat="43.58056724352609" lon="10.702818610578934"><ele>36.0</ele><time>2026-04-04T08:10:24Z</time></trkpt><trkpt lat="43.58056832824744" lon="10.703023362516253"><ele>36.0</ele><time>2026-04-04T08:10:25Z</time></trkpt><trkpt lat="43.58056717169254" lon="10.703215803231224"><ele>36.0</ele><time>2026-04-04T08:10:25.999Z</time></trkpt><trkpt lat="43.580563628931024" lon="10.703398880814884"><ele>36.0</ele><time>2026-04-04T08:10:26.999Z</time></trkpt><trkpt lat="43.580560921446235" lon="10.703562765531657"><ele>36.0</ele><time>2026-04-04T08:10:27.999Z</time></trkpt><trkpt lat="43.58055644223111" lon="10.703705466594064"><ele>36.2</ele><time>2026-04-04T08:10:28.999Z</time></trkpt><trkpt lat="43.580547559875434" lon="10.703816866404868"><ele>36.400000000000006</ele><time>2026-04-04T08:10:29.999Z</time></trkpt><trkpt lat="43.58049642927181" lon="10.703966632598522"><ele>36.6</ele><time>2026-04-04T08:10:31.999Z</time></trkpt><trkpt lat="43.580450720407875" lon="10.704051134153053"><ele>36.800000000000004</ele><time>2026-04-04T08:10:32.999Z</time></trkpt><trkpt lat="43.58039892667282" lon="10.704149916808072"><ele>37.0</ele><time>2026-04-04T08:10:33.999Z</time></trkpt><trkpt lat="43.580364530879564" lon="10.704275721728967"><ele>37.0</ele><time>2026-04-04T08:10:34.999Z</time></trkpt><trkpt lat="43.580361968626974" lon="10.704412687280552"><ele>37.0</ele><time>2026-04-04T08:10:35.999Z</time></trkpt><trkpt lat="43.58040409045993" lon="10.70455730625077"><ele>37.0</ele><time>2026-04-04T08:10:36.999Z</time></trkpt><trkpt lat="43.58045780062487" lon="10.704696809339492"><ele>37.0</ele><time>2026-04-04T08:10:37.999Z</time></trkpt><trkpt lat="43.58050738523" lon="10.704840790204276"><ele>37.0</ele><time>2026-04-04T08:10:38.999Z</time></trkpt><trkpt lat="43.580534429491735" lon="10.705025868750939"><ele>37.0</ele><time>2026-04-04T08:10:39.999Z</time></trkpt><trkpt lat="43.58053850728074" lon="10.705214572064314"><ele>37.0</ele><time>2026-04-04T08:10:40.999Z</time></trkpt><trkpt lat="43.58053570779905" lon="10.70540650820247"><ele>37.0</ele><time>2026-04-04T08:10:41.999Z</time></trkpt><trkpt lat="43.58052863671208" lon="10.705602373908055"><ele>37.0</ele><time>2026-04-04T08:10:42.999Z</time></trkpt><trkpt lat="43.58052450759271" lon="10.70580837169143"><ele>37.0</ele><time>2026-04-04T08:10:43.999Z</time></trkpt><trkpt lat="43.580521626217276" lon="10.706023400003625"><ele>37.0</ele><time>2026-04-04T08:10:44.999Z</time></trkpt><trkpt lat="43.58051913394935" lon="10.706242685606215"><ele>37.0</ele><time>2026-04-04T08:10:45.999Z</time></trkpt><trkpt lat="43.580516791952064" lon="10.706467076886712"><ele>37.0</ele><time>2026-04-04T08:10:46.999Z</time></trkpt><trkpt lat="43.580513648163084" lon="10.706694134523136"><ele>37.0</ele><time>2026-04-04T08:10:47.999Z</time></trkpt><trkpt lat="43.580510821943506" lon="10.706929906458646"><ele>37.0</ele><time>2026-04-04T08:10:48.999Z</time></trkpt><trkpt lat="43.58050819574334" lon="10.707166573376957"><ele>37.333333333333336</ele><time>2026-04-04T08:10:49.999Z</time></trkpt><trkpt lat="43.58050230082503" lon="10.707408341928078"><ele>37.666666666666664</ele><time>2026-04-04T08:10:50.999Z</time></trkpt><trkpt lat="43.58049722911941" lon="10.707647816572418"><ele>38.0</ele><time>2026-04-04T08:10:51.999Z</time></trkpt><trkpt lat="43.580495786281205" lon="10.707885490987415"><ele>37.33333333333333</ele><time>2026-04-04T08:10:52.999Z</time></trkpt><trkpt lat="43.58049372897156" lon="10.70812103343847"><ele>36.666666666666664</ele><time>2026-04-04T08:10:53.999Z</time></trkpt><trkpt lat="43.580492814143696" lon="10.70836095942677"><ele>36.0</ele><time>2026-04-04T08:10:54.999Z</time></trkpt><trkpt lat="43.580490676196646" lon="10.708599624858055"><ele>35.666666666666664</ele><time>2026-04-04T08:10:55.999Z</time></trkpt><trkpt lat="43.58048787593139" lon="10.708838071744896"><ele>35.33333333333333</ele><time>2026-04-04T08:10:56.999Z</time></trkpt><trkpt lat="43.58048353492666" lon="10.709079254550222"><ele>35.0</ele><time>2026-04-04T08:10:57.999Z</time></trkpt><trkpt lat="43.58048157759124" lon="10.709324301393627"><ele>35.0</ele><time>2026-04-04T08:10:58.999Z</time></trkpt><trkpt lat="43.58047965340117" lon="10.70957455113215"><ele>35.0</ele><time>2026-04-04T08:10:59.999Z</time></trkpt><trkpt lat="43.58047689883092" lon="10.709832205595129"><ele>35.0</ele><time>2026-04-04T08:11:00.999Z</time></trkpt><trkpt lat="43.58047070472319" lon="10.710081583680838"><ele>35.666666666666664</ele><time>2026-04-04T08:11:01.999Z</time></trkpt><trkpt lat="43.580467657389796" lon="10.710331483027476"><ele>36.333333333333336</ele><time>2026-04-04T08:11:02.999Z</time></trkpt><trkpt lat="43.58046332548089" lon="10.710582322169476"><ele>37.0</ele><time>2026-04-04T08:11:03.999Z</time></trkpt><trkpt lat="43.58045976531864" lon="10.710832198172316"><ele>36.66666666666667</ele><time>2026-04-04T08:11:04.999Z</time></trkpt><trkpt lat="43.58046045663395" lon="10.71108533688395"><ele>36.333333333333336</ele><time>2026-04-04T08:11:05.999Z</time></trkpt><trkpt lat="43.58045895820942" lon="10.71133891066159"><ele>36.0</ele><time>2026-04-04T08:11:06.999Z</time></trkpt><trkpt lat="43.58045584296028" lon="10.711592478665862"><ele>36.0</ele><time>2026-04-04T08:11:07.999Z</time></trkpt><trkpt lat="43.580450318071556" lon="10.711845606229055"><ele>36.0</ele><time>2026-04-04T08:11:08.999Z</time></trkpt><trkpt lat="43.58044397272064" lon="10.71209938936413"><ele>36.0</ele><time>2026-04-04T08:11:09.999Z</time></trkpt><trkpt lat="43.58043972995498" lon="10.712357124076094"><ele>36.0</ele><time>2026-04-04T08:11:10.999Z</time></trkpt><trkpt lat="43.58043477607814" lon="10.712616061920063"><ele>36.0</ele><time>2026-04-04T08:11:11.999Z</time></trkpt><trkpt lat="43.58043095947263" lon="10.712875853568761"><ele>36.0</ele><time>2026-04-04T08:11:12.999Z</time></trkpt><trkpt lat="43.58042908763244" lon="10.713137470921748"><ele>36.666666666666664</ele><time>2026-04-04T08:11:13.999Z</time></trkpt><trkpt lat="43.58042539471373" lon="10.713398362398943"><ele>37.33333333333333</ele><time>2026-04-04T08:11:14.999Z</time></trkpt><trkpt lat="43.58042284204133" lon="10.71366084775104"><ele>38.0</ele><time>2026-04-04T08:11:15.999Z</time></trkpt><trkpt lat="43.580420411779635" lon="10.71392416304511"><ele>38.33333333333333</ele><time>2026-04-04T08:11:16.999Z</time></trkpt><trkpt lat="43.58041947288215" lon="10.71419844351264"><ele>38.666666666666664</ele><time>2026-04-04T08:11:17.999Z</time></trkpt><trkpt lat="43.58041733670414" lon="10.714486401612401"><ele>39.0</ele><time>2026-04-04T08:11:18.999Z</time></trkpt><trkpt lat="43.58041003019801" lon="10.714791504455874"><ele>39.333333333333336</ele><time>2026-04-04T08:11:19.999Z</time></trkpt><trkpt lat="43.5803950105924" lon="10.71507416089792"><ele>39.66666666666667</ele><time>2026-04-04T08:11:20.999Z</time></trkpt><trkpt lat="43.58036452100734" lon="10.7153440663924"><ele>40.0</ele><time>2026-04-04T08:11:21.999Z</time></trkpt><trkpt lat="43.580399402130375" lon="10.715602740631862"><ele>40.0</ele><time>2026-04-04T08:11:22.999Z</time></trkpt><trkpt lat="43.58039372670765" lon="10.715828370207785"><ele>40.0</ele><time>2026-04-04T08:11:23.999Z</time></trkpt><trkpt lat="43.580392634188264" lon="10.716024044260891"><ele>40.0</ele><time>2026-04-04T08:11:24.999Z</time></trkpt><trkpt lat="43.58039513155681" lon="10.71620211930884"><ele>40.0</ele><time>2026-04-04T08:11:25.999Z</time></trkpt><trkpt lat="43.58039742620308" lon="10.716360322373987"><ele>40.0</ele><time>2026-04-04T08:11:26.999Z</time></trkpt><trkpt lat="43.58039781628234" lon="10.716484668732656"><ele>40.0</ele><time>2026-04-04T08:11:27.999Z</time></trkpt><trkpt lat="43.58039170838696" lon="10.716581056958871"><ele>40.0</ele><time>2026-04-04T08:11:28.999Z</time></trkpt><trkpt lat="43.58031353143704" lon="10.716678559390244"><ele>40.0</ele><time>2026-04-04T08:11:30.999Z</time></trkpt><trkpt lat="43.58024041727941" lon="10.716694858816025"><ele>40.0</ele><time>2026-04-04T08:11:31.999Z</time></trkpt><trkpt lat="43.58014403297246" lon="10.716689068068078"><ele>40.0</ele><time>2026-04-04T08:11:32.999Z</time></trkpt><trkpt lat="43.58004847126703" lon="10.716686231324015"><ele>39.8</ele><time>2026-04-04T08:11:33.999Z</time></trkpt><trkpt lat="43.57995268432598" lon="10.716695513717239"><ele>39.6</ele><time>2026-04-04T08:11:34.999Z</time></trkpt><trkpt lat="43.579853452711085" lon="10.716714938620841"><ele>39.4</ele><time>2026-04-04T08:11:35.999Z</time></trkpt><trkpt lat="43.57974565408467" lon="10.716733943052402"><ele>39.2</ele><time>2026-04-04T08:11:36.999Z</time></trkpt><trkpt lat="43.579634339503144" lon="10.716746902134844"><ele>39.0</ele><time>2026-04-04T08:11:37.999Z</time></trkpt><trkpt lat="43.57951855478646" lon="10.716759734403196"><ele>39.0</ele><time>2026-04-04T08:11:38.999Z</time></trkpt><trkpt lat="43.579391245671914" lon="10.716773600502442"><ele>39.0</ele><time>2026-04-04T08:11:39.999Z</time></trkpt><trkpt lat="43.579267971105985" lon="10.71678292463829"><ele>39.0</ele><time>2026-04-04T08:11:40.999Z</time></trkpt><trkpt lat="43.57910698537699" lon="10.716808934741444"><ele>39.0</ele><time>2026-04-04T08:11:41.999Z</time></trkpt><trkpt lat="43.578999872572865" lon="10.716815552202107"><ele>39.0</ele><time>2026-04-04T08:11:42.999Z</time></trkpt><trkpt lat="43.57887652187201" lon="10.71682645785957"><ele>39.0</ele><time>2026-04-04T08:11:43.999Z</time></trkpt><trkpt lat="43.578751386939224" lon="10.716842071472481"><ele>39.0</ele><time>2026-04-04T08:11:44.999Z</time></trkpt><trkpt lat="43.57862380991552" lon="10.716850056861565"><ele>39.0</ele><time>2026-04-04T08:11:45.999Z</time></trkpt><trkpt lat="43.57849492697724" lon="10.716866318262609"><ele>39.0</ele><time>2026-04-04T08:11:46.999Z</time></trkpt><trkpt lat="43.578366487628905" lon="10.716881171018983"><ele>39.0</ele><time>2026-04-04T08:11:47.999Z</time></trkpt><trkpt lat="43.57823822357836" lon="10.716895068399316"><ele>39.0</ele><time>2026-04-04T08:11:48.999Z</time></trkpt><trkpt lat="43.57811019240167" lon="10.716910241659898"><ele>39.0</ele><time>2026-04-04T08:11:49.999Z</time></trkpt><trkpt lat="43.57798494516026" lon="10.716923890411495"><ele>39.0</ele><time>2026-04-04T08:11:50.999Z</time></trkpt><trkpt lat="43.57787189007641" lon="10.716937088289203"><ele>39.0</ele><time>2026-04-04T08:11:51.999Z</time></trkpt><trkpt lat="43.57777271594937" lon="10.71694561797261"><ele>39.0</ele><time>2026-04-04T08:11:52.999Z</time></trkpt><trkpt lat="43.57767361345152" lon="10.716958858550585"><ele>39.0</ele><time>2026-04-04T08:11:53.999Z</time></trkpt><trkpt lat="43.57758281124943" lon="10.716969521830254"><ele>39.0</ele><time>2026-04-04T08:11:54.999Z</time></trkpt><trkpt lat="43.5774919939788" lon="10.716979861056938"><ele>39.2</ele><time>2026-04-04T08:11:55.999Z</time></trkpt><trkpt lat="43.57739399653779" lon="10.716990222759065"><ele>39.4</ele><time>2026-04-04T08:11:56.999Z</time></trkpt><trkpt lat="43.5772904711476" lon="10.717003037378838"><ele>39.6</ele><time>2026-04-04T08:11:57.999Z</time></trkpt><trkpt lat="43.57718265707075" lon="10.717016096991317"><ele>39.8</ele><time>2026-04-04T08:11:58.999Z</time></trkpt><trkpt lat="43.57707208073653" lon="10.717026625891783"><ele>40.0</ele><time>2026-04-04T08:11:59.999Z</time></trkpt><trkpt lat="43.57695588409568" lon="10.71703814149836"><ele>40.0</ele><time>2026-04-04T08:12:00.999Z</time></trkpt><trkpt lat="43.57683927815813" lon="10.717051612173707"><ele>40.0</ele><time>2026-04-04T08:12:01.999Z</time></trkpt><trkpt lat="43.576718034144726" lon="10.717065627745079"><ele>40.0</ele><time>2026-04-04T08:12:03Z</time></trkpt><trkpt lat="43.57659923751479" lon="10.717080751216983"><ele>40.0</ele><time>2026-04-04T08:12:04Z</time></trkpt><trkpt lat="43.576474419052474" lon="10.717097122619135"><ele>40.0</ele><time>2026-04-04T08:12:05Z</time></trkpt><trkpt lat="43.576351473559775" lon="10.717112240155505"><ele>40.0</ele><time>2026-04-04T08:12:06Z</time></trkpt><trkpt lat="43.57622598542982" lon="10.717134778398519"><ele>40.0</ele><time>2026-04-04T08:12:07Z</time></trkpt><trkpt lat="43.57610060730237" lon="10.717163733308752"><ele>40.0</ele><time>2026-04-04T08:12:08Z</time></trkpt><trkpt lat="43.57597377023535" lon="10.717197262144177"><ele>40.0</ele><time>2026-04-04T08:12:09Z</time></trkpt><trkpt lat="43.57584661856256" lon="10.717237494289174"><ele>40.0</ele><time>2026-04-04T08:12:10Z</time></trkpt><trkpt lat="43.57571706321213" lon="10.717278308512492"><ele>40.0</ele><time>2026-04-04T08:12:11Z</time></trkpt><trkpt lat="43.57559082122632" lon="10.717314503048751"><ele>40.0</ele><time>2026-04-04T08:12:12Z</time></trkpt><trkpt lat="43.575465141886426" lon="10.717348375816474"><ele>40.25</ele><time>2026-04-04T08:12:13Z</time></trkpt><trkpt lat="43.57534089362954" lon="10.717386115321291"><ele>40.5</ele><time>2026-04-04T08:12:14Z</time></trkpt><trkpt lat="43.57521812574883" lon="10.71742699657992"><ele>40.75</ele><time>2026-04-04T08:12:15Z</time></trkpt><trkpt lat="43.575095077365845" lon="10.717470076015326"><ele>41.0</ele><time>2026-04-04T08:12:16Z</time></trkpt><trkpt lat="43.57497453161604" lon="10.717515946531314"><ele>41.0</ele><time>2026-04-04T08:12:17Z</time></trkpt><trkpt lat="43.57485454501817" lon="10.717566435604828"><ele>41.0</ele><time>2026-04-04T08:12:18Z</time></trkpt><trkpt lat="43.57473220829206" lon="10.717617749986061"><ele>41.0</ele><time>2026-04-04T08:12:19Z</time></trkpt><trkpt lat="43.57461280272447" lon="10.717666351492023"><ele>41.0</ele><time>2026-04-04T08:12:20Z</time></trkpt><trkpt lat="43.57449206765302" lon="10.717714743315446"><ele>41.0</ele><time>2026-04-04T08:12:21Z</time></trkpt><trkpt lat="43.574368643418936" lon="10.717761940201369"><ele>41.0</ele><time>2026-04-04T08:12:22Z</time></trkpt><trkpt lat="43.574242388985695" lon="10.717812531843173"><ele>41.0</ele><time>2026-04-04T08:12:23Z</time></trkpt><trkpt lat="43.574112916755546" lon="10.717858629699139"><ele>41.0</ele><time>2026-04-04T08:12:24Z</time></trkpt><trkpt lat="43.573979927406505" lon="10.717904065683541"><ele>41.0</ele><time>2026-04-04T08:12:25Z</time></trkpt><trkpt lat="43.57384540773121" lon="10.717943191957286"><ele>41.0</ele><time>2026-04-04T08:12:26Z</time></trkpt><trkpt lat="43.573710098396646" lon="10.717972949965656"><ele>41.0</ele><time>2026-04-04T08:12:27Z</time></trkpt><trkpt lat="43.57357197888086" lon="10.71799919087751"><ele>41.0</ele><time>2026-04-04T08:12:28Z</time></trkpt><trkpt lat="43.57343505647974" lon="10.718025713989901"><ele>40.75</ele><time>2026-04-04T08:12:29Z</time></trkpt><trkpt lat="43.5732933208113" lon="10.718055389355643"><ele>40.5</ele><time>2026-04-04T08:12:30Z</time></trkpt><trkpt lat="43.57315362134919" lon="10.718088757671117"><ele>40.25</ele><time>2026-04-04T08:12:31Z</time></trkpt><trkpt lat="43.57301820908441" lon="10.718115907823965"><ele>40.0</ele><time>2026-04-04T08:12:31.999Z</time></trkpt><trkpt lat="43.57288234719669" lon="10.718147904926024"><ele>40.25</ele><time>2026-04-04T08:12:32.999Z</time></trkpt><trkpt lat="43.57274762395179" lon="10.718173428617648"><ele>40.5</ele><time>2026-04-04T08:12:33.999Z</time></trkpt><trkpt lat="43.572615256640134" lon="10.718202470585032"><ele>40.75</ele><time>2026-04-04T08:12:34.999Z</time></trkpt><trkpt lat="43.57248311903245" lon="10.718229437984421"><ele>41.0</ele><time>2026-04-04T08:12:35.999Z</time></trkpt><trkpt lat="43.57235561103832" lon="10.718256453078293"><ele>41.0</ele><time>2026-04-04T08:12:36.999Z</time></trkpt><trkpt lat="43.572226408022935" lon="10.7182839796509"><ele>41.0</ele><time>2026-04-04T08:12:37.999Z</time></trkpt><trkpt lat="43.57210390335255" lon="10.718308465578422"><ele>41.0</ele><time>2026-04-04T08:12:38.999Z</time></trkpt><trkpt lat="43.5719872615206" lon="10.718334216009488"><ele>41.0</ele><time>2026-04-04T08:12:39.999Z</time></trkpt><trkpt lat="43.571873818305335" lon="10.718360482632747"><ele>41.0</ele><time>2026-04-04T08:12:40.999Z</time></trkpt><trkpt lat="43.57176466250677" lon="10.718386504654257"><ele>41.0</ele><time>2026-04-04T08:12:41.999Z</time></trkpt><trkpt lat="43.57166280874877" lon="10.718403199712705"><ele>41.0</ele><time>2026-04-04T08:12:42.999Z</time></trkpt><trkpt lat="43.57156646786586" lon="10.718425091278245"><ele>41.0</ele><time>2026-04-04T08:12:43.999Z</time></trkpt><trkpt lat="43.57146656209072" lon="10.718442478822734"><ele>41.0</ele><time>2026-04-04T08:12:44.999Z</time></trkpt><trkpt lat="43.571374125468246" lon="10.718465845897738"><ele>41.0</ele><time>2026-04-04T08:12:45.999Z</time></trkpt><trkpt lat="43.57129408263092" lon="10.718480717274003"><ele>41.0</ele><time>2026-04-04T08:12:46.999Z</time></trkpt><trkpt lat="43.57122602559517" lon="10.718493210461771"><ele>41.0</ele><time>2026-04-04T08:12:47.999Z</time></trkpt><trkpt lat="43.571153918156945" lon="10.718569756789204"><ele>41.0</ele><time>2026-04-04T08:12:49.999Z</time></trkpt><trkpt lat="43.57112274787054" lon="10.718695304562331"><ele>41.0</ele><time>2026-04-04T08:12:51.999Z</time></trkpt><trkpt lat="43.571116674772604" lon="10.718782783750434"><ele>41.0</ele><time>2026-04-04T08:12:52.999Z</time></trkpt><trkpt lat="43.57111443109083" lon="10.718876480612712"><ele>41.166666666666664</ele><time>2026-04-04T08:12:53.999Z</time></trkpt><trkpt lat="43.57111532691295" lon="10.718978691582306"><ele>41.33333333333333</ele><time>2026-04-04T08:12:54.999Z</time></trkpt><trkpt lat="43.57112311086515" lon="10.71907338579954"><ele>41.5</ele><time>2026-04-04T08:12:55.999Z</time></trkpt><trkpt lat="43.57113070373502" lon="10.719163561120412"><ele>41.666666666666664</ele><time>2026-04-04T08:12:56.999Z</time></trkpt><trkpt lat="43.57115172086603" lon="10.71932737532233"><ele>41.833333333333336</ele><time>2026-04-04T08:12:58.999Z</time></trkpt><trkpt lat="43.57116911593334" lon="10.71941381292303"><ele>42.0</ele><time>2026-04-04T08:12:59.999Z</time></trkpt><trkpt lat="43.571186849572754" lon="10.71950258176068"><ele>41.833333333333336</ele><time>2026-04-04T08:13:00.999Z</time></trkpt><trkpt lat="43.5712033465663" lon="10.719590070135109"><ele>41.666666666666664</ele><time>2026-04-04T08:13:01.999Z</time></trkpt><trkpt lat="43.57122042865364" lon="10.719677633729972"><ele>41.5</ele><time>2026-04-04T08:13:02.999Z</time></trkpt><trkpt lat="43.57124951596087" lon="10.719845653691932"><ele>41.33333333333333</ele><time>2026-04-04T08:13:04.999Z</time></trkpt><trkpt lat="43.5712669857855" lon="10.719929236196156"><ele>41.166666666666664</ele><time>2026-04-04T08:13:05.999Z</time></trkpt><trkpt lat="43.571298158820696" lon="10.72009564875082"><ele>41.0</ele><time>2026-04-04T08:13:07.999Z</time></trkpt><trkpt lat="43.57131287592196" lon="10.72018370414361"><ele>41.166666666666664</ele><time>2026-04-04T08:13:08.999Z</time></trkpt><trkpt lat="43.57133022565536" lon="10.720268620608099"><ele>41.33333333333333</ele><time>2026-04-04T08:13:09.999Z</time></trkpt><trkpt lat="43.571359820152544" lon="10.720438134317638"><ele>41.5</ele><time>2026-04-04T08:13:11.999Z</time></trkpt><trkpt lat="43.57137646581098" lon="10.720531038015986"><ele>41.666666666666664</ele><time>2026-04-04T08:13:12.999Z</time></trkpt><trkpt lat="43.571394328883144" lon="10.720622895430774"><ele>41.833333333333336</ele><time>2026-04-04T08:13:13.999Z</time></trkpt><trkpt lat="43.571412127911834" lon="10.720718082968911"><ele>42.0</ele><time>2026-04-04T08:13:14.999Z</time></trkpt><trkpt lat="43.571430908820055" lon="10.72081679656615"><ele>42.0</ele><time>2026-04-04T08:13:15.999Z</time></trkpt><trkpt lat="43.57144807120951" lon="10.720911107902554"><ele>42.0</ele><time>2026-04-04T08:13:16.999Z</time></trkpt><trkpt lat="43.57146592854311" lon="10.721009636232811"><ele>42.0</ele><time>2026-04-04T08:13:17.999Z</time></trkpt><trkpt lat="43.57148524883478" lon="10.72110959673193"><ele>42.0</ele><time>2026-04-04T08:13:18.999Z</time></trkpt><trkpt lat="43.571503624262405" lon="10.721215586655237"><ele>42.0</ele><time>2026-04-04T08:13:19.999Z</time></trkpt><trkpt lat="43.57152458703306" lon="10.721322268772996"><ele>42.0</ele><time>2026-04-04T08:13:20.999Z</time></trkpt><trkpt lat="43.57154445387698" lon="10.721421710316504"><ele>42.166666666666664</ele><time>2026-04-04T08:13:21.999Z</time></trkpt><trkpt lat="43.57156256726917" lon="10.721515503610531"><ele>42.333333333333336</ele><time>2026-04-04T08:13:22.999Z</time></trkpt><trkpt lat="43.57158008597726" lon="10.721610430601029"><ele>42.5</ele><time>2026-04-04T08:13:23.999Z</time></trkpt><trkpt lat="43.571598092336224" lon="10.721707259708268"><ele>42.66666666666667</ele><time>2026-04-04T08:13:24.999Z</time></trkpt><trkpt lat="43.57161485264022" lon="10.72179772030267"><ele>42.833333333333336</ele><time>2026-04-04T08:13:25.999Z</time></trkpt><trkpt lat="43.57162940331022" lon="10.721887649619585"><ele>43.0</ele><time>2026-04-04T08:13:26.999Z</time></trkpt><trkpt lat="43.57163238795912" lon="10.722057117223851"><ele>43.2</ele><time>2026-04-04T08:13:28.999Z</time></trkpt><trkpt lat="43.57161259687543" lon="10.722139982336591"><ele>43.4</ele><time>2026-04-04T08:13:29.999Z</time></trkpt><trkpt lat="43.571533860645324" lon="10.722293049114494"><ele>43.6</ele><time>2026-04-04T08:13:31.999Z</time></trkpt><trkpt lat="43.571477860515174" lon="10.722382830724086"><ele>43.800000000000004</ele><time>2026-04-04T08:13:32.999Z</time></trkpt><trkpt lat="43.57142125499764" lon="10.722464966649714"><ele>44.0</ele><time>2026-04-04T08:13:33.999Z</time></trkpt><trkpt lat="43.57136221515163" lon="10.722544562071453"><ele>44.0</ele><time>2026-04-04T08:13:34.999Z</time></trkpt><trkpt lat="43.5713053407009" lon="10.722620195046835"><ele>44.0</ele><time>2026-04-04T08:13:35.999Z</time></trkpt><trkpt lat="43.57124650272978" lon="10.722676168475237"><ele>44.0</ele><time>2026-04-04T08:13:36.999Z</time></trkpt><trkpt lat="43.57118843347195" lon="10.722724701841853"><ele>44.0</ele><time>2026-04-04T08:13:37.999Z</time></trkpt><trkpt lat="43.57112740475527" lon="10.722767991804684"><ele>44.0</ele><time>2026-04-04T08:13:38.999Z</time></trkpt><trkpt lat="43.571054770014086" lon="10.722786537567044"><ele>44.0</ele><time>2026-04-04T08:13:39.999Z</time></trkpt><trkpt lat="43.57097877006182" lon="10.722798687907934"><ele>44.0</ele><time>2026-04-04T08:13:40.999Z</time></trkpt><trkpt lat="43.57089093215296" lon="10.722805462649799"><ele>43.666666666666664</ele><time>2026-04-04T08:13:41.999Z</time></trkpt><trkpt lat="43.570804688447" lon="10.722811628706834"><ele>43.33333333333333</ele><time>2026-04-04T08:13:42.999Z</time></trkpt><trkpt lat="43.57071274740581" lon="10.722822705960025"><ele>43.0</ele><time>2026-04-04T08:13:43.999Z</time></trkpt><trkpt lat="43.570628269855064" lon="10.722836675079334"><ele>42.666666666666664</ele><time>2026-04-04T08:13:44.999Z</time></trkpt><trkpt lat="43.570550479488034" lon="10.722850264240172"><ele>42.333333333333336</ele><time>2026-04-04T08:13:45.999Z</time></trkpt><trkpt lat="43.570471898331775" lon="10.722876701528824"><ele>42.0</ele><time>2026-04-04T08:13:46.999Z</time></trkpt><trkpt lat="43.57038463960354" lon="10.722898926557809"><ele>41.833333333333336</ele><time>2026-04-04T08:13:47.999Z</time></trkpt><trkpt lat="43.57030380804491" lon="10.72292419178283"><ele>41.666666666666664</ele><time>2026-04-04T08:13:48.999Z</time></trkpt><trkpt lat="43.57022570176224" lon="10.722949461423482"><ele>41.5</ele><time>2026-04-04T08:13:49.999Z</time></trkpt><trkpt lat="43.57014320732121" lon="10.72297965494146"><ele>41.33333333333333</ele><time>2026-04-04T08:13:50.999Z</time></trkpt><trkpt lat="43.57006890987594" lon="10.723007437079861"><ele>41.166666666666664</ele><time>2026-04-04T08:13:51.999Z</time></trkpt><trkpt lat="43.56999941668773" lon="10.723030582130912"><ele>41.0</ele><time>2026-04-04T08:13:52.999Z</time></trkpt><trkpt lat="43.569916820588624" lon="10.723064491870478"><ele>41.0</ele><time>2026-04-04T08:13:53.999Z</time></trkpt><trkpt lat="43.569840195443376" lon="10.72308688232335"><ele>41.0</ele><time>2026-04-04T08:13:54.999Z</time></trkpt><trkpt lat="43.56975194490299" lon="10.723119626966374"><ele>41.0</ele><time>2026-04-04T08:13:55.999Z</time></trkpt><trkpt lat="43.569671585966454" lon="10.723150159660282"><ele>41.0</ele><time>2026-04-04T08:13:56.999Z</time></trkpt><trkpt lat="43.56959153151001" lon="10.723177940973232"><ele>41.0</ele><time>2026-04-04T08:13:57.999Z</time></trkpt><trkpt lat="43.569511690400965" lon="10.723212163997372"><ele>41.0</ele><time>2026-04-04T08:13:58.999Z</time></trkpt><trkpt lat="43.56942834601784" lon="10.723254831702437"><ele>41.166666666666664</ele><time>2026-04-04T08:13:59.999Z</time></trkpt><trkpt lat="43.569356740591466" lon="10.723312119029224"><ele>41.33333333333333</ele><time>2026-04-04T08:14:00.999Z</time></trkpt><trkpt lat="43.569276184344744" lon="10.723366750103521"><ele>41.5</ele><time>2026-04-04T08:14:01.999Z</time></trkpt><trkpt lat="43.56919818657222" lon="10.723416791856474"><ele>41.666666666666664</ele><time>2026-04-04T08:14:02.999Z</time></trkpt><trkpt lat="43.569115679556184" lon="10.723457097527277"><ele>41.833333333333336</ele><time>2026-04-04T08:14:03.999Z</time></trkpt><trkpt lat="43.56902989164772" lon="10.723483203047628"><ele>42.0</ele><time>2026-04-04T08:14:04.999Z</time></trkpt><trkpt lat="43.568942183234206" lon="10.723500360860216"><ele>42.0</ele><time>2026-04-04T08:14:05.999Z</time></trkpt><trkpt lat="43.568850206892556" lon="10.723509362815513"><ele>42.0</ele><time>2026-04-04T08:14:06.999Z</time></trkpt><trkpt lat="43.56876288869927" lon="10.723500739640397"><ele>42.0</ele><time>2026-04-04T08:14:08Z</time></trkpt><trkpt lat="43.56867258428699" lon="10.723478996671215"><ele>42.0</ele><time>2026-04-04T08:14:09Z</time></trkpt><trkpt lat="43.56858182760649" lon="10.723448482354142"><ele>42.0</ele><time>2026-04-04T08:14:10Z</time></trkpt><trkpt lat="43.56849251104636" lon="10.723419065980389"><ele>42.2</ele><time>2026-04-04T08:14:11Z</time></trkpt><trkpt lat="43.56840580352309" lon="10.723387993188615"><ele>42.400000000000006</ele><time>2026-04-04T08:14:12Z</time></trkpt><trkpt lat="43.56831604104471" lon="10.723358363228229"><ele>42.599999999999994</ele><time>2026-04-04T08:14:13Z</time></trkpt><trkpt lat="43.568225049197075" lon="10.723327693443606"><ele>42.8</ele><time>2026-04-04T08:14:14Z</time></trkpt><trkpt lat="43.56813510683622" lon="10.723291561305878"><ele>43.0</ele><time>2026-04-04T08:14:15Z</time></trkpt><trkpt lat="43.56804301437953" lon="10.723257094787948"><ele>43.0</ele><time>2026-04-04T08:14:16Z</time></trkpt><trkpt lat="43.56795392268232" lon="10.723222606681373"><ele>43.0</ele><time>2026-04-04T08:14:16.999Z</time></trkpt><trkpt lat="43.56786021814147" lon="10.723183578609552"><ele>43.0</ele><time>2026-04-04T08:14:17.999Z</time></trkpt><trkpt lat="43.56776271027428" lon="10.72314437994981"><ele>43.0</ele><time>2026-04-04T08:14:18.999Z</time></trkpt><trkpt lat="43.56766601560881" lon="10.723104034177911"><ele>43.0</ele><time>2026-04-04T08:14:19.999Z</time></trkpt><trkpt lat="43.567565966396636" lon="10.723065554482671"><ele>43.4</ele><time>2026-04-04T08:14:20.999Z</time></trkpt><trkpt lat="43.56746738792672" lon="10.723033088014338"><ele>43.8</ele><time>2026-04-04T08:14:21.999Z</time></trkpt><trkpt lat="43.56736877809419" lon="10.722998469861214"><ele>44.2</ele><time>2026-04-04T08:14:22.999Z</time></trkpt><trkpt lat="43.567274693073074" lon="10.722966317242793"><ele>44.6</ele><time>2026-04-04T08:14:23.999Z</time></trkpt><trkpt lat="43.567181730301094" lon="10.722938978248143"><ele>45.0</ele><time>2026-04-04T08:14:24.999Z</time></trkpt><trkpt lat="43.56708111849502" lon="10.722910753087861"><ele>45.0</ele><time>2026-04-04T08:14:25.999Z</time></trkpt><trkpt lat="43.56697826763552" lon="10.722880565646769"><ele>45.0</ele><time>2026-04-04T08:14:26.999Z</time></trkpt><trkpt lat="43.56687031946044" lon="10.722834385021317"><ele>45.0</ele><time>2026-04-04T08:14:27.999Z</time></trkpt><trkpt lat="43.56676578695481" lon="10.722795119419503"><ele>45.0</ele><time>2026-04-04T08:14:28.999Z</time></trkpt><trkpt lat="43.56665002607628" lon="10.722749501604175"><ele>45.0</ele><time>2026-04-04T08:14:29.999Z</time></trkpt><trkpt lat="43.566543316360274" lon="10.72270459711596"><ele>44.8</ele><time>2026-04-04T08:14:30.999Z</time></trkpt><trkpt lat="43.56643736297506" lon="10.722660596973572"><ele>44.6</ele><time>2026-04-04T08:14:31.999Z</time></trkpt><trkpt lat="43.56633561892508" lon="10.722615493973535"><ele>44.400000000000006</ele><time>2026-04-04T08:14:32.999Z</time></trkpt><trkpt lat="43.56623647568104" lon="10.722567373644031"><ele>44.2</ele><time>2026-04-04T08:14:33.999Z</time></trkpt><trkpt lat="43.56614129341436" lon="10.722517938466623"><ele>44.0</ele><time>2026-04-04T08:14:34.999Z</time></trkpt><trkpt lat="43.56604301714293" lon="10.72246345487274"><ele>44.0</ele><time>2026-04-04T08:14:35.999Z</time></trkpt><trkpt lat="43.56594633724452" lon="10.722408044591685"><ele>44.0</ele><time>2026-04-04T08:14:36.999Z</time></trkpt><trkpt lat="43.565853018377794" lon="10.722353583163368"><ele>44.0</ele><time>2026-04-04T08:14:37.999Z</time></trkpt><trkpt lat="43.565764929850964" lon="10.722303728501615"><ele>44.0</ele><time>2026-04-04T08:14:38.999Z</time></trkpt><trkpt lat="43.56568117007738" lon="10.722253910307218"><ele>44.0</ele><time>2026-04-04T08:14:39.999Z</time></trkpt><trkpt lat="43.565595507582096" lon="10.722209881336594"><ele>44.0</ele><time>2026-04-04T08:14:40.999Z</time></trkpt><trkpt lat="43.565512816367004" lon="10.722169256462717"><ele>44.0</ele><time>2026-04-04T08:14:41.999Z</time></trkpt><trkpt lat="43.56543357382731" lon="10.722120779203713"><ele>44.0</ele><time>2026-04-04T08:14:42.999Z</time></trkpt><trkpt lat="43.565356184489126" lon="10.722075846475642"><ele>44.0</ele><time>2026-04-04T08:14:43.999Z</time></trkpt><trkpt lat="43.56527379779839" lon="10.722027890916097"><ele>44.0</ele><time>2026-04-04T08:14:44.999Z</time></trkpt><trkpt lat="43.565184857644184" lon="10.721978238246805"><ele>44.0</ele><time>2026-04-04T08:14:45.999Z</time></trkpt><trkpt lat="43.56509369116985" lon="10.721929149144161"><ele>43.800000000000004</ele><time>2026-04-04T08:14:46.999Z</time></trkpt><trkpt lat="43.56499944128518" lon="10.721875951137058"><ele>43.6</ele><time>2026-04-04T08:14:47.999Z</time></trkpt><trkpt lat="43.564907008118894" lon="10.721825029531791"><ele>43.4</ele><time>2026-04-04T08:14:48.999Z</time></trkpt><trkpt lat="43.56481417826437" lon="10.721774147298216"><ele>43.2</ele><time>2026-04-04T08:14:49.999Z</time></trkpt><trkpt lat="43.56472327810783" lon="10.721721665422411"><ele>43.0</ele><time>2026-04-04T08:14:50.999Z</time></trkpt><trkpt lat="43.564631825083865" lon="10.721671451845047"><ele>43.0</ele><time>2026-04-04T08:14:51.999Z</time></trkpt><trkpt lat="43.5645384069883" lon="10.721619220138104"><ele>43.0</ele><time>2026-04-04T08:14:52.999Z</time></trkpt><trkpt lat="43.564443787609115" lon="10.721565437578246"><ele>43.0</ele><time>2026-04-04T08:14:53.999Z</time></trkpt><trkpt lat="43.56434798092906" lon="10.721513032438422"><ele>43.0</ele><time>2026-04-04T08:14:54.999Z</time></trkpt><trkpt lat="43.56424566001893" lon="10.721453666928111"><ele>43.0</ele><time>2026-04-04T08:14:55.999Z</time></trkpt><trkpt lat="43.56414162034796" lon="10.721395945637132"><ele>43.0</ele><time>2026-04-04T08:14:56.999Z</time></trkpt><trkpt lat="43.56403604699616" lon="10.721337363446345"><ele>43.0</ele><time>2026-04-04T08:14:57.999Z</time></trkpt><trkpt lat="43.56393062392859" lon="10.721276635473005"><ele>43.0</ele><time>2026-04-04T08:14:58.999Z</time></trkpt><trkpt lat="43.56382937599346" lon="10.721219997785608"><ele>43.0</ele><time>2026-04-04T08:14:59.999Z</time></trkpt><trkpt lat="43.563728872240766" lon="10.721165287469802"><ele>43.0</ele><time>2026-04-04T08:15:00.999Z</time></trkpt><trkpt lat="43.56363119676778" lon="10.721110445376764"><ele>43.0</ele><time>2026-04-04T08:15:01.999Z</time></trkpt><trkpt lat="43.563533073057165" lon="10.721056736375267"><ele>43.0</ele><time>2026-04-04T08:15:02.999Z</time></trkpt><trkpt lat="43.563436346165275" lon="10.721000209290267"><ele>43.0</ele><time>2026-04-04T08:15:03.999Z</time></trkpt><trkpt lat="43.563335434568465" lon="10.720942615921027"><ele>43.0</ele><time>2026-04-04T08:15:04.999Z</time></trkpt><trkpt lat="43.56323299180201" lon="10.720885903539182"><ele>43.0</ele><time>2026-04-04T08:15:05.999Z</time></trkpt><trkpt lat="43.56313103361391" lon="10.720829106105326"><ele>43.0</ele><time>2026-04-04T08:15:06.999Z</time></trkpt><trkpt lat="43.56303203398243" lon="10.720771158512255"><ele>43.0</ele><time>2026-04-04T08:15:07.999Z</time></trkpt><trkpt lat="43.562938278263374" lon="10.72071989094258"><ele>43.0</ele><time>2026-04-04T08:15:08.999Z</time></trkpt><trkpt lat="43.56284303194812" lon="10.720663570658168"><ele>43.0</ele><time>2026-04-04T08:15:09.999Z</time></trkpt><trkpt lat="43.56274987500589" lon="10.720608030515828"><ele>43.0</ele><time>2026-04-04T08:15:10.999Z</time></trkpt><trkpt lat="43.562654632085724" lon="10.720553553856908"><ele>43.16666666666667</ele><time>2026-04-04T08:15:11.999Z</time></trkpt><trkpt lat="43.56256141429202" lon="10.720503444732387"><ele>43.333333333333336</ele><time>2026-04-04T08:15:12.999Z</time></trkpt><trkpt lat="43.56248403104408" lon="10.720458906988101"><ele>43.5</ele><time>2026-04-04T08:15:13.999Z</time></trkpt><trkpt lat="43.562420822706365" lon="10.720428338868407"><ele>43.666666666666664</ele><time>2026-04-04T08:15:14.999Z</time></trkpt><trkpt lat="43.56235985792117" lon="10.720399215387534"><ele>43.83333333333333</ele><time>2026-04-04T08:15:15.999Z</time></trkpt><trkpt lat="43.56225739049359" lon="10.720346016397666"><ele>44.0</ele><time>2026-04-04T08:15:17.999Z</time></trkpt><trkpt lat="43.56216135512194" lon="10.720348078418356"><ele>44.0</ele><time>2026-04-04T08:15:19.999Z</time></trkpt><trkpt lat="43.562055867131754" lon="10.720435746134436"><ele>44.0</ele><time>2026-04-04T08:15:21.999Z</time></trkpt><trkpt lat="43.56199044898288" lon="10.720503783601448"><ele>44.0</ele><time>2026-04-04T08:15:22.999Z</time></trkpt><trkpt lat="43.561920629783465" lon="10.720584562473002"><ele>44.0</ele><time>2026-04-04T08:15:23.999Z</time></trkpt><trkpt lat="43.561845254624984" lon="10.720667229675092"><ele>44.0</ele><time>2026-04-04T08:15:24.999Z</time></trkpt><trkpt lat="43.56177102225501" lon="10.72073290833338"><ele>45.0</ele><time>2026-04-04T08:15:25.999Z</time></trkpt><trkpt lat="43.56168979391699" lon="10.720799711161298"><ele>46.0</ele><time>2026-04-04T08:15:26.999Z</time></trkpt><trkpt lat="43.56159533717449" lon="10.720868563082893"><ele>47.0</ele><time>2026-04-04T08:15:27.999Z</time></trkpt><trkpt lat="43.56149149727191" lon="10.720932151160705"><ele>48.0</ele><time>2026-04-04T08:15:28.999Z</time></trkpt><trkpt lat="43.561379119160115" lon="10.720994101550396"><ele>49.0</ele><time>2026-04-04T08:15:29.999Z</time></trkpt><trkpt lat="43.56125697388049" lon="10.721062840591248"><ele>48.666666666666664</ele><time>2026-04-04T08:15:30.999Z</time></trkpt><trkpt lat="43.56112628887047" lon="10.721137485247926"><ele>48.33333333333333</ele><time>2026-04-04T08:15:31.999Z</time></trkpt><trkpt lat="43.56098477879493" lon="10.721212918370544"><ele>48.0</ele><time>2026-04-04T08:15:32.999Z</time></trkpt><trkpt lat="43.56083016260026" lon="10.721298982774258"><ele>48.0</ele><time>2026-04-04T08:15:33.999Z</time></trkpt><trkpt lat="43.56066078622346" lon="10.721392729573603"><ele>48.0</ele><time>2026-04-04T08:15:34.999Z</time></trkpt><trkpt lat="43.56050001927765" lon="10.721480756929713"><ele>48.0</ele><time>2026-04-04T08:15:35.999Z</time></trkpt><trkpt lat="43.56036297773559" lon="10.721561519499067"><ele>48.5</ele><time>2026-04-04T08:15:36.999Z</time></trkpt><trkpt lat="43.56023563256104" lon="10.721628225984759"><ele>49.0</ele><time>2026-04-04T08:15:37.999Z</time></trkpt><trkpt lat="43.56012094627701" lon="10.721685044250554"><ele>49.5</ele><time>2026-04-04T08:15:38.999Z</time></trkpt><trkpt lat="43.56001859537305" lon="10.721725866112438"><ele>50.0</ele><time>2026-04-04T08:15:39.999Z</time></trkpt><trkpt lat="43.55992564794023" lon="10.721744584768677"><ele>50.0</ele><time>2026-04-04T08:15:40.999Z</time></trkpt><trkpt lat="43.55982898445456" lon="10.72174642673437"><ele>50.0</ele><time>2026-04-04T08:15:41.999Z</time></trkpt><trkpt lat="43.55973226841639" lon="10.721729608792927"><ele>50.0</ele><time>2026-04-04T08:15:42.999Z</time></trkpt><trkpt lat="43.55962398538109" lon="10.72168913444091"><ele>50.0</ele><time>2026-04-04T08:15:43.999Z</time></trkpt><trkpt lat="43.559504958708864" lon="10.721638651048087"><ele>50.0</ele><time>2026-04-04T08:15:44.999Z</time></trkpt><trkpt lat="43.559378735449755" lon="10.721591600140256"><ele>50.25</ele><time>2026-04-04T08:15:45.999Z</time></trkpt><trkpt lat="43.55925548452491" lon="10.721544110947455"><ele>50.5</ele><time>2026-04-04T08:15:46.999Z</time></trkpt><trkpt lat="43.55913421966654" lon="10.72149858266522"><ele>50.75</ele><time>2026-04-04T08:15:47.999Z</time></trkpt><trkpt lat="43.559013646932776" lon="10.721455709598066"><ele>51.0</ele><time>2026-04-04T08:15:48.999Z</time></trkpt><trkpt lat="43.558887836595545" lon="10.721409175953552"><ele>51.0</ele><time>2026-04-04T08:15:49.999Z</time></trkpt><trkpt lat="43.55877118472323" lon="10.721363183053016"><ele>51.0</ele><time>2026-04-04T08:15:50.999Z</time></trkpt><trkpt lat="43.55867332469624" lon="10.721323856023727"><ele>51.0</ele><time>2026-04-04T08:15:51.999Z</time></trkpt><trkpt lat="43.558517212874094" lon="10.721270882441447"><ele>51.0</ele><time>2026-04-04T08:15:53.999Z</time></trkpt><trkpt lat="43.55844478884769" lon="10.721260136610423"><ele>51.0</ele><time>2026-04-04T08:15:54.999Z</time></trkpt><trkpt lat="43.55837934062233" lon="10.721272436164723"><ele>51.0</ele><time>2026-04-04T08:15:55.999Z</time></trkpt><trkpt lat="43.558316212710274" lon="10.721316569001804"><ele>51.0</ele><time>2026-04-04T08:15:56.999Z</time></trkpt><trkpt lat="43.55826377085231" lon="10.721386075233378"><ele>51.0</ele><time>2026-04-04T08:15:57.999Z</time></trkpt><trkpt lat="43.55822713212194" lon="10.721475292972627"><ele>51.0</ele><time>2026-04-04T08:15:58.999Z</time></trkpt><trkpt lat="43.5582123041595" lon="10.721582657412918"><ele>51.0</ele><time>2026-04-04T08:15:59.999Z</time></trkpt><trkpt lat="43.55820618533221" lon="10.72170018122627"><ele>51.0</ele><time>2026-04-04T08:16:00.999Z</time></trkpt><trkpt lat="43.558208325684696" lon="10.721807677857738"><ele>51.199999999999996</ele><time>2026-04-04T08:16:01.999Z</time></trkpt><trkpt lat="43.558212365265504" lon="10.721912310332183"><ele>51.4</ele><time>2026-04-04T08:16:02.999Z</time></trkpt><trkpt lat="43.558222316057204" lon="10.722034251767404"><ele>51.6</ele><time>2026-04-04T08:16:03.999Z</time></trkpt><trkpt lat="43.55823857101052" lon="10.722173728418502"><ele>51.8</ele><time>2026-04-04T08:16:04.999Z</time></trkpt><trkpt lat="43.558257827317505" lon="10.722320604671738"><ele>52.0</ele><time>2026-04-04T08:16:05.999Z</time></trkpt><trkpt lat="43.558280664623496" lon="10.722465665572283"><ele>52.0</ele><time>2026-04-04T08:16:06.999Z</time></trkpt><trkpt lat="43.5583064046049" lon="10.722607226150782"><ele>52.0</ele><time>2026-04-04T08:16:07.999Z</time></trkpt><trkpt lat="43.55833163115009" lon="10.722753810487779"><ele>52.0</ele><time>2026-04-04T08:16:08.999Z</time></trkpt><trkpt lat="43.558352184872874" lon="10.722887166469123"><ele>52.0</ele><time>2026-04-04T08:16:09.999Z</time></trkpt><trkpt lat="43.55837512420869" lon="10.72302129793884"><ele>52.0</ele><time>2026-04-04T08:16:10.999Z</time></trkpt><trkpt lat="43.55839492771016" lon="10.723161022053334"><ele>52.0</ele><time>2026-04-04T08:16:11.999Z</time></trkpt><trkpt lat="43.55841569182395" lon="10.723296900706634"><ele>52.0</ele><time>2026-04-04T08:16:12.999Z</time></trkpt><trkpt lat="43.558436346158686" lon="10.723436987972512"><ele>52.0</ele><time>2026-04-04T08:16:14Z</time></trkpt><trkpt lat="43.558456004606654" lon="10.723587179385554"><ele>52.0</ele><time>2026-04-04T08:16:15Z</time></trkpt><trkpt lat="43.5584709151016" lon="10.723738716835117"><ele>52.0</ele><time>2026-04-04T08:16:16Z</time></trkpt><trkpt lat="43.558477868591005" lon="10.723878665014478"><ele>51.6</ele><time>2026-04-04T08:16:17Z</time></trkpt><trkpt lat="43.55846779840455" lon="10.723994168748806"><ele>51.2</ele><time>2026-04-04T08:16:18Z</time></trkpt><trkpt lat="43.558440501251226" lon="10.724108694132678"><ele>50.8</ele><time>2026-04-04T08:16:19Z</time></trkpt><trkpt lat="43.55839506874767" lon="10.724228508122867"><ele>50.4</ele><time>2026-04-04T08:16:20Z</time></trkpt><trkpt lat="43.55833312500688" lon="10.724359028852351"><ele>50.0</ele><time>2026-04-04T08:16:21Z</time></trkpt><trkpt lat="43.55825842467074" lon="10.724489068095577"><ele>50.0</ele><time>2026-04-04T08:16:22Z</time></trkpt><trkpt lat="43.55818151912256" lon="10.724626897918894"><ele>50.0</ele><time>2026-04-04T08:16:23Z</time></trkpt><trkpt lat="43.55809944568424" lon="10.724782427154576"><ele>50.0</ele><time>2026-04-04T08:16:24Z</time></trkpt><trkpt lat="43.558018954503" lon="10.724938607976508"><ele>50.0</ele><time>2026-04-04T08:16:25Z</time></trkpt><trkpt lat="43.55795686024779" lon="10.72506301101702"><ele>50.00000000000001</ele><time>2026-04-04T08:16:26Z</time></trkpt><trkpt lat="43.55790070975329" lon="10.72516607944042"><ele>50.0</ele><time>2026-04-04T08:16:27Z</time></trkpt><trkpt lat="43.5578569751039" lon="10.725244979003365"><ele>50.0</ele><time>2026-04-04T08:16:28Z</time></trkpt><trkpt lat="43.55778367427475" lon="10.7253394575366"><ele>50.0</ele><time>2026-04-04T08:16:30Z</time></trkpt><trkpt lat="43.55771941524447" lon="10.72536757082641"><ele>50.00000000000001</ele><time>2026-04-04T08:16:33Z</time></trkpt><trkpt lat="43.55761352991721" lon="10.72534935831303"><ele>50.0</ele><time>2026-04-04T08:16:36Z</time></trkpt><trkpt lat="43.55753074721174" lon="10.72532485198771"><ele>50.00000000000001</ele><time>2026-04-04T08:16:37Z</time></trkpt><trkpt lat="43.557413194173044" lon="10.725311861348592"><ele>50.0</ele><time>2026-04-04T08:16:38Z</time></trkpt><trkpt lat="43.55732294956576" lon="10.725319367446382"><ele>50.0</ele><time>2026-04-04T08:16:39Z</time></trkpt><trkpt lat="43.557257171964736" lon="10.725323780091713"><ele>50.0</ele><time>2026-04-04T08:16:40Z</time></trkpt><trkpt lat="43.557153610477485" lon="10.725346386324656"><ele>50.00000000000001</ele><time>2026-04-04T08:16:42Z</time></trkpt><trkpt lat="43.55709013457199" lon="10.725346827987739"><ele>50.0</ele><time>2026-04-04T08:16:43Z</time></trkpt><trkpt lat="43.55701432249936" lon="10.725328268817787"><ele>50.5</ele><time>2026-04-04T08:16:44Z</time></trkpt><trkpt lat="43.556929487906835" lon="10.725285248783468"><ele>51.0</ele><time>2026-04-04T08:16:45Z</time></trkpt><trkpt lat="43.55682881248034" lon="10.725244554235262"><ele>51.5</ele><time>2026-04-04T08:16:46Z</time></trkpt><trkpt lat="43.55671448621363" lon="10.725198372676505"><ele>52.0</ele><time>2026-04-04T08:16:47Z</time></trkpt><trkpt lat="43.556569317052904" lon="10.725141554238565"><ele>56.33333333333333</ele><time>2026-04-04T08:16:48Z</time></trkpt><trkpt lat="43.55642419038647" lon="10.725099881221439"><ele>60.66666666666667</ele><time>2026-04-04T08:16:49Z</time></trkpt><trkpt lat="43.556280030738215" lon="10.725045283460213"><ele>65.0</ele><time>2026-04-04T08:16:50Z</time></trkpt><trkpt lat="43.55611523914881" lon="10.724986106831258"><ele>65.66666666666667</ele><time>2026-04-04T08:16:50.999Z</time></trkpt><trkpt lat="43.555934423274365" lon="10.724930226103284"><ele>66.33333333333333</ele><time>2026-04-04T08:16:51.999Z</time></trkpt><trkpt lat="43.555731672437005" lon="10.724882533911615"><ele>67.0</ele><time>2026-04-04T08:16:52.999Z</time></trkpt><trkpt lat="43.55552549945103" lon="10.72484760670263"><ele>69.5</ele><time>2026-04-04T08:16:53.999Z</time></trkpt><trkpt lat="43.55530838567581" lon="10.724869895158243"><ele>72.0</ele><time>2026-04-04T08:16:54.999Z</time></trkpt><trkpt lat="43.55507210843511" lon="10.724887248111456"><ele>72.0</ele><time>2026-04-04T08:16:55.999Z</time></trkpt><trkpt lat="43.55480709683632" lon="10.724901489924425"><ele>72.0</ele><time>2026-04-04T08:16:56.999Z</time></trkpt><trkpt lat="43.55456997370587" lon="10.724907340364382"><ele>75.0</ele><time>2026-04-04T08:16:57.999Z</time></trkpt><trkpt lat="43.55436557738435" lon="10.724915586815023"><ele>78.0</ele><time>2026-04-04T08:16:58.999Z</time></trkpt><trkpt lat="43.55418649371059" lon="10.724920435857745"><ele>81.0</ele><time>2026-04-04T08:16:59.999Z</time></trkpt><trkpt lat="43.55401597454861" lon="10.724904941926859"><ele>81.0</ele><time>2026-04-04T08:17:00.999Z</time></trkpt><trkpt lat="43.5538473827659" lon="10.724861310358898"><ele>81.0</ele><time>2026-04-04T08:17:01.999Z</time></trkpt><trkpt lat="43.55369148383931" lon="10.7248189049053"><ele>81.0</ele><time>2026-04-04T08:17:02.999Z</time></trkpt><trkpt lat="43.55353854532045" lon="10.724782563140085"><ele>82.66666666666667</ele><time>2026-04-04T08:17:03.999Z</time></trkpt><trkpt lat="43.55338678689336" lon="10.72475179431143"><ele>84.33333333333334</ele><time>2026-04-04T08:17:04.999Z</time></trkpt><trkpt lat="43.55323982842681" lon="10.724720056043756"><ele>86.0</ele><time>2026-04-04T08:17:05.999Z</time></trkpt><trkpt lat="43.553091421937694" lon="10.724688527929347"><ele>86.0</ele><time>2026-04-04T08:17:06.999Z</time></trkpt><trkpt lat="43.552929225640206" lon="10.724645836556245"><ele>86.0</ele><time>2026-04-04T08:17:07.999Z</time></trkpt><trkpt lat="43.55271961366248" lon="10.724602061069696"><ele>86.0</ele><time>2026-04-04T08:17:08.999Z</time></trkpt><trkpt lat="43.55254390161092" lon="10.724566460413486"><ele>89.0</ele><time>2026-04-04T08:17:09.999Z</time></trkpt><trkpt lat="43.552358650200134" lon="10.724558696836212"><ele>92.0</ele><time>2026-04-04T08:17:10.999Z</time></trkpt><trkpt lat="43.552146852842284" lon="10.724582254607625"><ele>95.0</ele><time>2026-04-04T08:17:11.999Z</time></trkpt><trkpt lat="43.55196758434156" lon="10.724621887555594"><ele>96.5</ele><time>2026-04-04T08:17:12.999Z</time></trkpt><trkpt lat="43.55181698436195" lon="10.724637556569723"><ele>98.0</ele><time>2026-04-04T08:17:13.999Z</time></trkpt><trkpt lat="43.55168390579821" lon="10.724627094288275"><ele>99.5</ele><time>2026-04-04T08:17:14.999Z</time></trkpt><trkpt lat="43.55153654739683" lon="10.72458843411362"><ele>101.0</ele><time>2026-04-04T08:17:15.999Z</time></trkpt><trkpt lat="43.551361940799616" lon="10.724508106784317"><ele>101.66666666666666</ele><time>2026-04-04T08:17:16.999Z</time></trkpt><trkpt lat="43.55117643341877" lon="10.724420629667227"><ele>102.33333333333334</ele><time>2026-04-04T08:17:17.999Z</time></trkpt><trkpt lat="43.551022426098726" lon="10.724364697538986"><ele>103.0</ele><time>2026-04-04T08:17:18.999Z</time></trkpt><trkpt lat="43.55088379873651" lon="10.724320892718195"><ele>108.75</ele><time>2026-04-04T08:17:19.999Z</time></trkpt><trkpt lat="43.55073798025152" lon="10.724290559535564"><ele>114.5</ele><time>2026-04-04T08:17:20.999Z</time></trkpt><trkpt lat="43.550600685352286" lon="10.724261651491991"><ele>120.25</ele><time>2026-04-04T08:17:21.999Z</time></trkpt><trkpt lat="43.55048325871417" lon="10.72426244156245"><ele>126.0</ele><time>2026-04-04T08:17:22.999Z</time></trkpt><trkpt lat="43.550386993003535" lon="10.724258443745386"><ele>125.19999999999999</ele><time>2026-04-04T08:17:23.999Z</time></trkpt><trkpt lat="43.55030448525594" lon="10.724223688153256"><ele>124.39999999999999</ele><time>2026-04-04T08:17:24.999Z</time></trkpt><trkpt lat="43.550213665813615" lon="10.72414169308164"><ele>123.6</ele><time>2026-04-04T08:17:25.999Z</time></trkpt><trkpt lat="43.55012592302825" lon="10.72401629139932"><ele>122.8</ele><time>2026-04-04T08:17:26.999Z</time></trkpt><trkpt lat="43.55006229300942" lon="10.723900207708649"><ele>122.0</ele><time>2026-04-04T08:17:27.999Z</time></trkpt><trkpt lat="43.55001754113436" lon="10.723782561539547"><ele>122.0</ele><time>2026-04-04T08:17:28.999Z</time></trkpt><trkpt lat="43.54998595504364" lon="10.723624550041496"><ele>122.0</ele><time>2026-04-04T08:17:29.999Z</time></trkpt><trkpt lat="43.54997803237463" lon="10.723422366754642"><ele>122.0</ele><time>2026-04-04T08:17:30.999Z</time></trkpt><trkpt lat="43.54993631728446" lon="10.72319677281606"><ele>122.0</ele><time>2026-04-04T08:17:31.999Z</time></trkpt><trkpt lat="43.54985763549292" lon="10.72298499706882"><ele>124.75</ele><time>2026-04-04T08:17:32.999Z</time></trkpt><trkpt lat="43.54981852027027" lon="10.722845804803738"><ele>127.5</ele><time>2026-04-04T08:17:33.999Z</time></trkpt><trkpt lat="43.549819835017104" lon="10.72270039927676"><ele>130.25</ele><time>2026-04-04T08:17:34.999Z</time></trkpt><trkpt lat="43.549851748278996" lon="10.722517886081468"><ele>133.0</ele><time>2026-04-04T08:17:35.999Z</time></trkpt><trkpt lat="43.54986058508169" lon="10.722374399425474"><ele>133.20000000000002</ele><time>2026-04-04T08:17:36.999Z</time></trkpt><trkpt lat="43.54982529752618" lon="10.722226733015269"><ele>133.4</ele><time>2026-04-04T08:17:37.999Z</time></trkpt><trkpt lat="43.549779184728344" lon="10.722109023314752"><ele>133.60000000000002</ele><time>2026-04-04T08:17:38.999Z</time></trkpt><trkpt lat="43.54974322866848" lon="10.721992035563211"><ele>133.8</ele><time>2026-04-04T08:17:39.999Z</time></trkpt><trkpt lat="43.54971468689594" lon="10.721897919184459"><ele>134.0</ele><time>2026-04-04T08:17:40.999Z</time></trkpt><trkpt lat="43.54965463504494" lon="10.721738541132163"><ele>134.0</ele><time>2026-04-04T08:17:42.999Z</time></trkpt><trkpt lat="43.54960227592483" lon="10.721591832340248"><ele>134.0</ele><time>2026-04-04T08:17:44.999Z</time></trkpt><trkpt lat="43.54958860907112" lon="10.721506512547846"><ele>134.0</ele><time>2026-04-04T08:17:45.999Z</time></trkpt><trkpt lat="43.54958500197013" lon="10.721417688255448"><ele>134.0</ele><time>2026-04-04T08:17:46.999Z</time></trkpt><trkpt lat="43.549602368273696" lon="10.721329246163453"><ele>134.0</ele><time>2026-04-04T08:17:47.999Z</time></trkpt><trkpt lat="43.54963569831996" lon="10.721245575756784"><ele>134.0</ele><time>2026-04-04T08:17:48.999Z</time></trkpt><trkpt lat="43.549678664670395" lon="10.72117972675765"><ele>134.0</ele><time>2026-04-04T08:17:49.999Z</time></trkpt><trkpt lat="43.54968323393701" lon="10.721091702913233"><ele>133.0</ele><time>2026-04-04T08:17:50.999Z</time></trkpt><trkpt lat="43.54967979814476" lon="10.720999866981105"><ele>132.0</ele><time>2026-04-04T08:17:51.999Z</time></trkpt><trkpt lat="43.549687195150916" lon="10.720897451307996"><ele>131.0</ele><time>2026-04-04T08:17:52.999Z</time></trkpt><trkpt lat="43.54970077361349" lon="10.720784480614734"><ele>130.0</ele><time>2026-04-04T08:17:53.999Z</time></trkpt><trkpt lat="43.549708771695954" lon="10.720675364444235"><ele>129.0</ele><time>2026-04-04T08:17:54.999Z</time></trkpt><trkpt lat="43.549711995573475" lon="10.72056906237607"><ele>128.0</ele><time>2026-04-04T08:17:55.999Z</time></trkpt><trkpt lat="43.54971891875157" lon="10.720457816452454"><ele>127.99999999999999</ele><time>2026-04-04T08:17:56.999Z</time></trkpt><trkpt lat="43.54971985093621" lon="10.720343053602958"><ele>128.0</ele><time>2026-04-04T08:17:57.999Z</time></trkpt><trkpt lat="43.54970635523879" lon="10.720226282340796"><ele>128.0</ele><time>2026-04-04T08:17:58.999Z</time></trkpt><trkpt lat="43.5496630053508" lon="10.720118627482883"><ele>128.0</ele><time>2026-04-04T08:17:59.999Z</time></trkpt><trkpt lat="43.549606910605156" lon="10.720021235207824"><ele>127.99999999999999</ele><time>2026-04-04T08:18:00.999Z</time></trkpt><trkpt lat="43.54955065413679" lon="10.719923432583531"><ele>128.0</ele><time>2026-04-04T08:18:01.999Z</time></trkpt><trkpt lat="43.5494965208887" lon="10.719826902488686"><ele>129.66666666666666</ele><time>2026-04-04T08:18:02.999Z</time></trkpt><trkpt lat="43.549440721858424" lon="10.719731556318692"><ele>131.33333333333331</ele><time>2026-04-04T08:18:03.999Z</time></trkpt><trkpt lat="43.549382355609765" lon="10.719636888655879"><ele>133.0</ele><time>2026-04-04T08:18:04.999Z</time></trkpt><trkpt lat="43.54932331948317" lon="10.719547331299458"><ele>134.66666666666666</ele><time>2026-04-04T08:18:05.999Z</time></trkpt><trkpt lat="43.54925302241314" lon="10.71947665404106"><ele>136.33333333333334</ele><time>2026-04-04T08:18:06.999Z</time></trkpt><trkpt lat="43.549166308391875" lon="10.719423266419934"><ele>138.0</ele><time>2026-04-04T08:18:07.999Z</time></trkpt><trkpt lat="43.549067652486066" lon="10.719387071139002"><ele>133.6</ele><time>2026-04-04T08:18:08.999Z</time></trkpt><trkpt lat="43.54896672151752" lon="10.71935879840053"><ele>129.20000000000002</ele><time>2026-04-04T08:18:09.999Z</time></trkpt><trkpt lat="43.54887092108464" lon="10.719329705846746"><ele>124.8</ele><time>2026-04-04T08:18:10.999Z</time></trkpt><trkpt lat="43.54877756082143" lon="10.719307354859371"><ele>120.4</ele><time>2026-04-04T08:18:11.999Z</time></trkpt><trkpt lat="43.548687844613006" lon="10.7192955353667"><ele>116.0</ele><time>2026-04-04T08:18:12.999Z</time></trkpt><trkpt lat="43.548595959961915" lon="10.719290793025566"><ele>115.6</ele><time>2026-04-04T08:18:13.999Z</time></trkpt><trkpt lat="43.54850146672314" lon="10.719295441682794"><ele>115.19999999999999</ele><time>2026-04-04T08:18:14.999Z</time></trkpt><trkpt lat="43.54840580947886" lon="10.719303896621518"><ele>114.80000000000001</ele><time>2026-04-04T08:18:15.999Z</time></trkpt><trkpt lat="43.54831640069485" lon="10.719307490667752"><ele>114.4</ele><time>2026-04-04T08:18:16.999Z</time></trkpt><trkpt lat="43.5482252248074" lon="10.719311876331222"><ele>114.0</ele><time>2026-04-04T08:18:17.999Z</time></trkpt><trkpt lat="43.54813625326693" lon="10.719313794269839"><ele>114.0</ele><time>2026-04-04T08:18:18.999Z</time></trkpt><trkpt lat="43.54804839125961" lon="10.719314253536165"><ele>114.0</ele><time>2026-04-04T08:18:20Z</time></trkpt><trkpt lat="43.547962401895255" lon="10.719317012471738"><ele>114.0</ele><time>2026-04-04T08:18:21Z</time></trkpt><trkpt lat="43.54786044777703" lon="10.71932728891306"><ele>114.0</ele><time>2026-04-04T08:18:22Z</time></trkpt><trkpt lat="43.547772894743915" lon="10.719331215989543"><ele>114.0</ele><time>2026-04-04T08:18:23Z</time></trkpt><trkpt lat="43.547669232507346" lon="10.719338752713629"><ele>113.0</ele><time>2026-04-04T08:18:24Z</time></trkpt><trkpt lat="43.54756536301364" lon="10.719344110456282"><ele>112.0</ele><time>2026-04-04T08:18:25Z</time></trkpt><trkpt lat="43.54746756445004" lon="10.719352962281246"><ele>111.0</ele><time>2026-04-04T08:18:26Z</time></trkpt><trkpt lat="43.54738038621367" lon="10.719357014063968"><ele>110.0</ele><time>2026-04-04T08:18:27Z</time></trkpt><trkpt lat="43.54730444254314" lon="10.719363775028627"><ele>109.0</ele><time>2026-04-04T08:18:28Z</time></trkpt><trkpt lat="43.54723172780682" lon="10.71936007760238"><ele>108.0</ele><time>2026-04-04T08:18:29Z</time></trkpt><trkpt lat="43.54714496511595" lon="10.719364550640636"><ele>108.0</ele><time>2026-04-04T08:18:30Z</time></trkpt><trkpt lat="43.54706807012801" lon="10.719374981043497"><ele>108.0</ele><time>2026-04-04T08:18:31Z</time></trkpt><trkpt lat="43.54699105382099" lon="10.719381000575016"><ele>108.0</ele><time>2026-04-04T08:18:32Z</time></trkpt><trkpt lat="43.54690792256739" lon="10.719385952293184"><ele>108.0</ele><time>2026-04-04T08:18:33Z</time></trkpt><trkpt lat="43.546821015428506" lon="10.719384245019153"><ele>108.0</ele><time>2026-04-04T08:18:34Z</time></trkpt><trkpt lat="43.54674776424976" lon="10.71936526246546"><ele>108.0</ele><time>2026-04-04T08:18:35Z</time></trkpt><trkpt lat="43.546684149282584" lon="10.719323277082179"><ele>108.4</ele><time>2026-04-04T08:18:36Z</time></trkpt><trkpt lat="43.546627009201345" lon="10.719286174250982"><ele>108.80000000000001</ele><time>2026-04-04T08:18:37Z</time></trkpt><trkpt lat="43.54649108647296" lon="10.719298925203477"><ele>109.2</ele><time>2026-04-04T08:18:39Z</time></trkpt><trkpt lat="43.54639010749594" lon="10.719356553541788"><ele>109.6</ele><time>2026-04-04T08:18:40Z</time></trkpt><trkpt lat="43.54629178499242" lon="10.71942501814073"><ele>110.0</ele><time>2026-04-04T08:18:41Z</time></trkpt><trkpt lat="43.546191297521055" lon="10.719482286059229"><ele>111.8</ele><time>2026-04-04T08:18:42Z</time></trkpt><trkpt lat="43.54608844351044" lon="10.719513285241554"><ele>113.6</ele><time>2026-04-04T08:18:43Z</time></trkpt><trkpt lat="43.545987177763685" lon="10.71956214703538"><ele>115.4</ele><time>2026-04-04T08:18:44Z</time></trkpt><trkpt lat="43.54589006130198" lon="10.719606467157268"><ele>117.2</ele><time>2026-04-04T08:18:45Z</time></trkpt><trkpt lat="43.54578695160189" lon="10.71964700094864"><ele>119.0</ele><time>2026-04-04T08:18:46Z</time></trkpt><trkpt lat="43.545680388110185" lon="10.71969596963006"><ele>119.0</ele><time>2026-04-04T08:18:46.999Z</time></trkpt><trkpt lat="43.545568925331" lon="10.719741381856249"><ele>119.0</ele><time>2026-04-04T08:18:47.999Z</time></trkpt><trkpt lat="43.54546412926076" lon="10.719791154739584"><ele>119.0</ele><time>2026-04-04T08:18:48.999Z</time></trkpt><trkpt lat="43.54536200234999" lon="10.719870751165509"><ele>119.0</ele><time>2026-04-04T08:18:49.999Z</time></trkpt><trkpt lat="43.545268946176144" lon="10.719973626760126"><ele>119.33333333333333</ele><time>2026-04-04T08:18:50.999Z</time></trkpt><trkpt lat="43.545187210296405" lon="10.720085767150442"><ele>119.66666666666666</ele><time>2026-04-04T08:18:51.999Z</time></trkpt><trkpt lat="43.545123719573596" lon="10.720189043653452"><ele>120.0</ele><time>2026-04-04T08:18:52.999Z</time></trkpt><trkpt lat="43.545074634407825" lon="10.720270439127034"><ele>120.33333333333334</ele><time>2026-04-04T08:18:53.999Z</time></trkpt><trkpt lat="43.545031208432746" lon="10.720343522567616"><ele>120.66666666666667</ele><time>2026-04-04T08:18:54.999Z</time></trkpt><trkpt lat="43.54498533794596" lon="10.720432733295665"><ele>121.0</ele><time>2026-04-04T08:18:55.999Z</time></trkpt><trkpt lat="43.54492068144276" lon="10.720515995206819"><ele>121.0</ele><time>2026-04-04T08:18:56.999Z</time></trkpt><trkpt lat="43.54482967111535" lon="10.720596764916193"><ele>121.0</ele><time>2026-04-04T08:18:57.999Z</time></trkpt><trkpt lat="43.54472350671179" lon="10.720672752439109"><ele>121.0</ele><time>2026-04-04T08:18:58.999Z</time></trkpt><trkpt lat="43.544603603648355" lon="10.720750334323245"><ele>121.0</ele><time>2026-04-04T08:18:59.999Z</time></trkpt><trkpt lat="43.54448892487211" lon="10.720822790107146"><ele>120.75</ele><time>2026-04-04T08:19:00.999Z</time></trkpt><trkpt lat="43.544376759326376" lon="10.720881833065393"><ele>120.5</ele><time>2026-04-04T08:19:01.999Z</time></trkpt><trkpt lat="43.5442601060692" lon="10.720923018212215"><ele>120.25</ele><time>2026-04-04T08:19:02.999Z</time></trkpt><trkpt lat="43.54414514341384" lon="10.720946713484953"><ele>120.0</ele><time>2026-04-04T08:19:03.999Z</time></trkpt><trkpt lat="43.54403894314598" lon="10.720957707061624"><ele>120.0</ele><time>2026-04-04T08:19:04.999Z</time></trkpt><trkpt lat="43.54393634666455" lon="10.72097857938204"><ele>120.0</ele><time>2026-04-04T08:19:05.999Z</time></trkpt><trkpt lat="43.54382773702718" lon="10.720994104155876"><ele>120.0</ele><time>2026-04-04T08:19:06.999Z</time></trkpt><trkpt lat="43.5437167565972" lon="10.721000625143212"><ele>120.0</ele><time>2026-04-04T08:19:07.999Z</time></trkpt><trkpt lat="43.543596968837875" lon="10.72100057925064"><ele>120.0</ele><time>2026-04-04T08:19:08.999Z</time></trkpt><trkpt lat="43.543458501049166" lon="10.720997814030648"><ele>119.75</ele><time>2026-04-04T08:19:09.999Z</time></trkpt><trkpt lat="43.54330996099154" lon="10.720998798919048"><ele>119.5</ele><time>2026-04-04T08:19:10.999Z</time></trkpt><trkpt lat="43.54318693590937" lon="10.721000812364522"><ele>119.25</ele><time>2026-04-04T08:19:11.999Z</time></trkpt><trkpt lat="43.54306345928432" lon="10.721014169569978"><ele>119.0</ele><time>2026-04-04T08:19:12.999Z</time></trkpt><trkpt lat="43.54296165264924" lon="10.721024358628615"><ele>118.83333333333333</ele><time>2026-04-04T08:19:13.999Z</time></trkpt><trkpt lat="43.54287070888954" lon="10.721032507061881"><ele>118.66666666666666</ele><time>2026-04-04T08:19:14.999Z</time></trkpt><trkpt lat="43.54278771846387" lon="10.721037521241312"><ele>118.5</ele><time>2026-04-04T08:19:15.999Z</time></trkpt><trkpt lat="43.54270117698832" lon="10.721044010112841"><ele>118.33333333333334</ele><time>2026-04-04T08:19:16.999Z</time></trkpt><trkpt lat="43.54260638612582" lon="10.721049962861732"><ele>118.16666666666667</ele><time>2026-04-04T08:19:17.999Z</time></trkpt><trkpt lat="43.5425134303001" lon="10.721059183857683"><ele>118.0</ele><time>2026-04-04T08:19:18.999Z</time></trkpt><trkpt lat="43.542417162631544" lon="10.721067775878112"><ele>117.83333333333334</ele><time>2026-04-04T08:19:19.999Z</time></trkpt><trkpt lat="43.54232166593232" lon="10.721074916215532"><ele>117.66666666666667</ele><time>2026-04-04T08:19:20.999Z</time></trkpt><trkpt lat="43.542227500201776" lon="10.721084268788232"><ele>117.5</ele><time>2026-04-04T08:19:21.999Z</time></trkpt><trkpt lat="43.5421406372648" lon="10.721095400981833"><ele>117.33333333333334</ele><time>2026-04-04T08:19:22.999Z</time></trkpt><trkpt lat="43.542059975204374" lon="10.721104619578258"><ele>117.16666666666667</ele><time>2026-04-04T08:19:23.999Z</time></trkpt><trkpt lat="43.54198455366122" lon="10.721115180488932"><ele>117.0</ele><time>2026-04-04T08:19:24.999Z</time></trkpt><trkpt lat="43.54190584987097" lon="10.721121447540796"><ele>117.0</ele><time>2026-04-04T08:19:25.999Z</time></trkpt><trkpt lat="43.54182436144333" lon="10.721127224232294"><ele>117.0</ele><time>2026-04-04T08:19:26.999Z</time></trkpt><trkpt lat="43.54174724869475" lon="10.721128903860802"><ele>117.0</ele><time>2026-04-04T08:19:27.999Z</time></trkpt><trkpt lat="43.54166111216953" lon="10.721131261342284"><ele>117.0</ele><time>2026-04-04T08:19:28.999Z</time></trkpt><trkpt lat="43.5415667744911" lon="10.721133160142745"><ele>117.0</ele><time>2026-04-04T08:19:29.999Z</time></trkpt><trkpt lat="43.54146814779084" lon="10.721132828868344"><ele>117.0</ele><time>2026-04-04T08:19:30.999Z</time></trkpt><trkpt lat="43.54135751027956" lon="10.721127480653017"><ele>117.0</ele><time>2026-04-04T08:19:31.999Z</time></trkpt><trkpt lat="43.54124191169327" lon="10.721128713546566"><ele>117.0</ele><time>2026-04-04T08:19:32.999Z</time></trkpt><trkpt lat="43.54112227131297" lon="10.72112134946022"><ele>117.0</ele><time>2026-04-04T08:19:33.999Z</time></trkpt><trkpt lat="43.54100096231092" lon="10.721114880964299"><ele>117.0</ele><time>2026-04-04T08:19:34.999Z</time></trkpt><trkpt lat="43.54088054377864" lon="10.721107867502592"><ele>118.25</ele><time>2026-04-04T08:19:35.999Z</time></trkpt><trkpt lat="43.540763185302104" lon="10.72109957701792"><ele>119.5</ele><time>2026-04-04T08:19:36.999Z</time></trkpt><trkpt lat="43.54064902743469" lon="10.721088585646685"><ele>120.75</ele><time>2026-04-04T08:19:37.999Z</time></trkpt><trkpt lat="43.54052709445142" lon="10.721073851919535"><ele>122.0</ele><time>2026-04-04T08:19:38.999Z</time></trkpt><trkpt lat="43.54040431118965" lon="10.721065927185961"><ele>122.5</ele><time>2026-04-04T08:19:39.999Z</time></trkpt><trkpt lat="43.540276864274325" lon="10.7210643711324"><ele>123.0</ele><time>2026-04-04T08:19:40.999Z</time></trkpt><trkpt lat="43.54014401843178" lon="10.721059066278254"><ele>123.5</ele><time>2026-04-04T08:19:41.999Z</time></trkpt><trkpt lat="43.54000126515378" lon="10.721057817093067"><ele>124.0</ele><time>2026-04-04T08:19:42.999Z</time></trkpt><trkpt lat="43.53984109845021" lon="10.721079745351398"><ele>124.0</ele><time>2026-04-04T08:19:43.999Z</time></trkpt><trkpt lat="43.53967271600533" lon="10.721108203555525"><ele>124.0</ele><time>2026-04-04T08:19:44.999Z</time></trkpt><trkpt lat="43.539498653820566" lon="10.72113711112172"><ele>124.0</ele><time>2026-04-04T08:19:45.999Z</time></trkpt><trkpt lat="43.5393334000391" lon="10.72116418533387"><ele>125.33333333333334</ele><time>2026-04-04T08:19:46.999Z</time></trkpt><trkpt lat="43.53917182917933" lon="10.721192816399794"><ele>126.66666666666666</ele><time>2026-04-04T08:19:47.999Z</time></trkpt><trkpt lat="43.539005572773455" lon="10.721227033881897"><ele>128.0</ele><time>2026-04-04T08:19:48.999Z</time></trkpt><trkpt lat="43.53885777666414" lon="10.721263742758747"><ele>130.33333333333331</ele><time>2026-04-04T08:19:49.999Z</time></trkpt><trkpt lat="43.538713528973425" lon="10.7212938886556"><ele>132.66666666666666</ele><time>2026-04-04T08:19:50.999Z</time></trkpt><trkpt lat="43.53855082968439" lon="10.721326227666438"><ele>135.0</ele><time>2026-04-04T08:19:51.999Z</time></trkpt><trkpt lat="43.53837892637437" lon="10.721354755091616"><ele>135.0</ele><time>2026-04-04T08:19:52.999Z</time></trkpt><trkpt lat="43.538210389748215" lon="10.721366957486374"><ele>135.0</ele><time>2026-04-04T08:19:53.999Z</time></trkpt><trkpt lat="43.53804825419426" lon="10.7213565516838"><ele>135.0</ele><time>2026-04-04T08:19:54.999Z</time></trkpt><trkpt lat="43.53788166104335" lon="10.721346559505955"><ele>135.25</ele><time>2026-04-04T08:19:55.999Z</time></trkpt><trkpt lat="43.53772255264542" lon="10.721359187462706"><ele>135.5</ele><time>2026-04-04T08:19:56.999Z</time></trkpt><trkpt lat="43.537574207026736" lon="10.721366140041198"><ele>135.75</ele><time>2026-04-04T08:19:57.999Z</time></trkpt><trkpt lat="43.53743463076763" lon="10.72136396374511"><ele>136.0</ele><time>2026-04-04T08:19:58.999Z</time></trkpt><trkpt lat="43.537290679019286" lon="10.721382196882999"><ele>136.0</ele><time>2026-04-04T08:19:59.999Z</time></trkpt><trkpt lat="43.537150371893475" lon="10.721419415813596"><ele>136.0</ele><time>2026-04-04T08:20:00.999Z</time></trkpt><trkpt lat="43.537014716591116" lon="10.721472161957177"><ele>136.0</ele><time>2026-04-04T08:20:01.999Z</time></trkpt><trkpt lat="43.53688483248964" lon="10.721524963797144"><ele>136.0</ele><time>2026-04-04T08:20:02.999Z</time></trkpt><trkpt lat="43.53675555775845" lon="10.721553006227069"><ele>132.66666666666669</ele><time>2026-04-04T08:20:03.999Z</time></trkpt><trkpt lat="43.53661637448609" lon="10.721542902650777"><ele>129.33333333333334</ele><time>2026-04-04T08:20:04.999Z</time></trkpt><trkpt lat="43.53645382743036" lon="10.72151108417351"><ele>126.0</ele><time>2026-04-04T08:20:05.999Z</time></trkpt><trkpt lat="43.53628730947626" lon="10.721460066892227"><ele>123.75</ele><time>2026-04-04T08:20:06.999Z</time></trkpt><trkpt lat="43.5361361149514" lon="10.721403589638074"><ele>121.5</ele><time>2026-04-04T08:20:07.999Z</time></trkpt><trkpt lat="43.53599091703328" lon="10.721352910916181"><ele>119.25</ele><time>2026-04-04T08:20:08.999Z</time></trkpt><trkpt lat="43.535853585178835" lon="10.721310631014825"><ele>117.0</ele><time>2026-04-04T08:20:09.999Z</time></trkpt><trkpt lat="43.53572250322013" lon="10.721278827503774"><ele>117.0</ele><time>2026-04-04T08:20:10.999Z</time></trkpt><trkpt lat="43.53559548443505" lon="10.72124456148367"><ele>117.0</ele><time>2026-04-04T08:20:11.999Z</time></trkpt><trkpt lat="43.535467104521196" lon="10.721206450699674"><ele>117.0</ele><time>2026-04-04T08:20:12.999Z</time></trkpt><trkpt lat="43.535341400280494" lon="10.72115622739371"><ele>117.0</ele><time>2026-04-04T08:20:13.999Z</time></trkpt><trkpt lat="43.53521644641154" lon="10.721105615959235"><ele>118.5</ele><time>2026-04-04T08:20:14.999Z</time></trkpt><trkpt lat="43.53509243644599" lon="10.721046636569765"><ele>120.0</ele><time>2026-04-04T08:20:15.999Z</time></trkpt><trkpt lat="43.5349734915087" lon="10.720973458519646"><ele>121.5</ele><time>2026-04-04T08:20:16.999Z</time></trkpt><trkpt lat="43.53486935992691" lon="10.720888447789386"><ele>123.0</ele><time>2026-04-04T08:20:17.999Z</time></trkpt><trkpt lat="43.534762436334944" lon="10.72079286190854"><ele>123.0</ele><time>2026-04-04T08:20:18.999Z</time></trkpt><trkpt lat="43.53464426739005" lon="10.720690663678262"><ele>123.0</ele><time>2026-04-04T08:20:19.999Z</time></trkpt><trkpt lat="43.53449671844851" lon="10.720587719942786"><ele>123.0</ele><time>2026-04-04T08:20:20.999Z</time></trkpt><trkpt lat="43.534351402215464" lon="10.720507176236099"><ele>124.5</ele><time>2026-04-04T08:20:21.999Z</time></trkpt><trkpt lat="43.534220864026985" lon="10.72044260019921"><ele>126.0</ele><time>2026-04-04T08:20:22.999Z</time></trkpt><trkpt lat="43.53409924707758" lon="10.720380621132858"><ele>127.5</ele><time>2026-04-04T08:20:23.999Z</time></trkpt><trkpt lat="43.533984201680454" lon="10.720324643976138"><ele>129.0</ele><time>2026-04-04T08:20:24.999Z</time></trkpt><trkpt lat="43.53386662168403" lon="10.720284353409097"><ele>129.0</ele><time>2026-04-04T08:20:26Z</time></trkpt><trkpt lat="43.53374464224909" lon="10.72027723217108"><ele>129.0</ele><time>2026-04-04T08:20:27Z</time></trkpt><trkpt lat="43.53361367541425" lon="10.72030117996554"><ele>129.0</ele><time>2026-04-04T08:20:28Z</time></trkpt><trkpt lat="43.53347213844251" lon="10.720351921285793"><ele>129.0</ele><time>2026-04-04T08:20:29Z</time></trkpt><trkpt lat="43.533323591872715" lon="10.72040478523033"><ele>128.0</ele><time>2026-04-04T08:20:30Z</time></trkpt><trkpt lat="43.5331691540434" lon="10.720461910801857"><ele>127.0</ele><time>2026-04-04T08:20:31Z</time></trkpt><trkpt lat="43.533011180427074" lon="10.720520826408102"><ele>126.0</ele><time>2026-04-04T08:20:32Z</time></trkpt><trkpt lat="43.53285527964965" lon="10.7205885135198"><ele>123.66666666666666</ele><time>2026-04-04T08:20:33Z</time></trkpt><trkpt lat="43.53270519670256" lon="10.720662089107083"><ele>121.33333333333333</ele><time>2026-04-04T08:20:34Z</time></trkpt><trkpt lat="43.5325589040752" lon="10.720738310935857"><ele>119.0</ele><time>2026-04-04T08:20:35Z</time></trkpt><trkpt lat="43.53241630505336" lon="10.720816899180223"><ele>119.0</ele><time>2026-04-04T08:20:36Z</time></trkpt><trkpt lat="43.53227975805466" lon="10.720899560470574"><ele>119.0</ele><time>2026-04-04T08:20:37Z</time></trkpt><trkpt lat="43.53213880079487" lon="10.720978790491145"><ele>119.0</ele><time>2026-04-04T08:20:38Z</time></trkpt><trkpt lat="43.53200494722673" lon="10.721060341353116"><ele>119.0</ele><time>2026-04-04T08:20:39Z</time></trkpt><trkpt lat="43.53187450362776" lon="10.721151132942406"><ele>118.75</ele><time>2026-04-04T08:20:40Z</time></trkpt><trkpt lat="43.53174789930174" lon="10.721243337052139"><ele>118.5</ele><time>2026-04-04T08:20:41Z</time></trkpt><trkpt lat="43.531621293666916" lon="10.721330495680004"><ele>118.25</ele><time>2026-04-04T08:20:42Z</time></trkpt><trkpt lat="43.53149331655037" lon="10.721407132179579"><ele>118.0</ele><time>2026-04-04T08:20:43Z</time></trkpt><trkpt lat="43.53135764773331" lon="10.721491940566949"><ele>121.0</ele><time>2026-04-04T08:20:44Z</time></trkpt><trkpt lat="43.5312221915918" lon="10.721585288851461"><ele>124.0</ele><time>2026-04-04T08:20:45Z</time></trkpt><trkpt lat="43.531072413793595" lon="10.721661585328215"><ele>127.0</ele><time>2026-04-04T08:20:46Z</time></trkpt><trkpt lat="43.5309197233692" lon="10.721747593491994"><ele>127.0</ele><time>2026-04-04T08:20:46.999Z</time></trkpt><trkpt lat="43.53076865529891" lon="10.721850696886442"><ele>127.0</ele><time>2026-04-04T08:20:47.999Z</time></trkpt><trkpt lat="43.53062821486845" lon="10.721951934480952"><ele>127.0</ele><time>2026-04-04T08:20:48.999Z</time></trkpt><trkpt lat="43.53050198321416" lon="10.722067292455817"><ele>125.33333333333334</ele><time>2026-04-04T08:20:49.999Z</time></trkpt><trkpt lat="43.5303917001503" lon="10.722233135927501"><ele>123.66666666666666</ele><time>2026-04-04T08:20:50.999Z</time></trkpt><trkpt lat="43.530296887636915" lon="10.7224455258191"><ele>122.0</ele><time>2026-04-04T08:20:51.999Z</time></trkpt><trkpt lat="43.53020744456682" lon="10.722664058149086"><ele>124.0</ele><time>2026-04-04T08:20:52.999Z</time></trkpt><trkpt lat="43.530118869019276" lon="10.722875224649632"><ele>126.0</ele><time>2026-04-04T08:20:53.999Z</time></trkpt><trkpt lat="43.530023579056135" lon="10.723080640599264"><ele>128.0</ele><time>2026-04-04T08:20:54.999Z</time></trkpt><trkpt lat="43.529933543051456" lon="10.72328331067674"><ele>128.0</ele><time>2026-04-04T08:20:55.999Z</time></trkpt><trkpt lat="43.52984799252633" lon="10.723484806613635"><ele>128.0</ele><time>2026-04-04T08:20:56.999Z</time></trkpt><trkpt lat="43.52977007795348" lon="10.723668946518984"><ele>128.0</ele><time>2026-04-04T08:20:57.999Z</time></trkpt><trkpt lat="43.52970005237014" lon="10.723843911579282"><ele>127.5</ele><time>2026-04-04T08:20:58.999Z</time></trkpt><trkpt lat="43.529634481090675" lon="10.724013899946296"><ele>127.0</ele><time>2026-04-04T08:20:59.999Z</time></trkpt><trkpt lat="43.52957666777708" lon="10.724187846943277"><ele>126.5</ele><time>2026-04-04T08:21:00.999Z</time></trkpt><trkpt lat="43.52953616529066" lon="10.724369240538731"><ele>126.0</ele><time>2026-04-04T08:21:01.999Z</time></trkpt><trkpt lat="43.529519708799285" lon="10.724568493894555"><ele>126.33333333333334</ele><time>2026-04-04T08:21:02.999Z</time></trkpt><trkpt lat="43.52952564000529" lon="10.724785638240968"><ele>126.66666666666667</ele><time>2026-04-04T08:21:03.999Z</time></trkpt><trkpt lat="43.52953477075597" lon="10.725012807302257"><ele>127.0</ele><time>2026-04-04T08:21:04.999Z</time></trkpt><trkpt lat="43.5295369750916" lon="10.725272740110865"><ele>127.0</ele><time>2026-04-04T08:21:05.999Z</time></trkpt><trkpt lat="43.529536167543625" lon="10.725533686959574"><ele>127.0</ele><time>2026-04-04T08:21:06.999Z</time></trkpt><trkpt lat="43.52952793825922" lon="10.725761838230223"><ele>127.0</ele><time>2026-04-04T08:21:07.999Z</time></trkpt><trkpt lat="43.52949927357231" lon="10.72597307927758"><ele>129.66666666666669</ele><time>2026-04-04T08:21:08.999Z</time></trkpt><trkpt lat="43.52944445241902" lon="10.726171961277124"><ele>132.33333333333334</ele><time>2026-04-04T08:21:09.999Z</time></trkpt><trkpt lat="43.5293611562685" lon="10.726363239557822"><ele>135.0</ele><time>2026-04-04T08:21:10.999Z</time></trkpt><trkpt lat="43.5292466477457" lon="10.72655286800394"><ele>135.0</ele><time>2026-04-04T08:21:11.999Z</time></trkpt><trkpt lat="43.52910561403236" lon="10.72675045988657"><ele>135.0</ele><time>2026-04-04T08:21:12.999Z</time></trkpt><trkpt lat="43.52897864254399" lon="10.7269282424607"><ele>135.0</ele><time>2026-04-04T08:21:13.999Z</time></trkpt><trkpt lat="43.52886797631531" lon="10.72708677124347"><ele>136.25</ele><time>2026-04-04T08:21:14.999Z</time></trkpt><trkpt lat="43.52876729768053" lon="10.727230601358832"><ele>137.5</ele><time>2026-04-04T08:21:15.999Z</time></trkpt><trkpt lat="43.52866881732243" lon="10.727375689152632"><ele>138.75</ele><time>2026-04-04T08:21:16.999Z</time></trkpt><trkpt lat="43.5285800072026" lon="10.72751978638053"><ele>140.0</ele><time>2026-04-04T08:21:17.999Z</time></trkpt><trkpt lat="43.52849087535557" lon="10.727660228447185"><ele>140.0</ele><time>2026-04-04T08:21:18.999Z</time></trkpt><trkpt lat="43.52840284494003" lon="10.727801709122607"><ele>140.0</ele><time>2026-04-04T08:21:19.999Z</time></trkpt><trkpt lat="43.52831176374321" lon="10.727948175342721"><ele>140.0</ele><time>2026-04-04T08:21:20.999Z</time></trkpt><trkpt lat="43.52821531624841" lon="10.728088989961861"><ele>140.0</ele><time>2026-04-04T08:21:21.999Z</time></trkpt><trkpt lat="43.52811693337507" lon="10.728226414090296"><ele>140.0</ele><time>2026-04-04T08:21:22.999Z</time></trkpt><trkpt lat="43.528013206005326" lon="10.728360082323736"><ele>140.0</ele><time>2026-04-04T08:21:23.999Z</time></trkpt><trkpt lat="43.527904504831305" lon="10.728489771721929"><ele>140.0</ele><time>2026-04-04T08:21:24.999Z</time></trkpt><trkpt lat="43.52779210528255" lon="10.728614111368772"><ele>140.0</ele><time>2026-04-04T08:21:25.999Z</time></trkpt><trkpt lat="43.52768037237568" lon="10.72872768773652"><ele>139.5</ele><time>2026-04-04T08:21:26.999Z</time></trkpt><trkpt lat="43.527567105535674" lon="10.728839941664265"><ele>139.0</ele><time>2026-04-04T08:21:27.999Z</time></trkpt><trkpt lat="43.527455048213284" lon="10.728951404703755"><ele>138.5</ele><time>2026-04-04T08:21:28.999Z</time></trkpt><trkpt lat="43.52734380940228" lon="10.729062886721485"><ele>138.0</ele><time>2026-04-04T08:21:29.999Z</time></trkpt><trkpt lat="43.52723783443617" lon="10.729177859087438"><ele>138.0</ele><time>2026-04-04T08:21:30.999Z</time></trkpt><trkpt lat="43.52713672418758" lon="10.729298729173719"><ele>138.0</ele><time>2026-04-04T08:21:31.999Z</time></trkpt><trkpt lat="43.52704423603882" lon="10.729430695629672"><ele>138.0</ele><time>2026-04-04T08:21:32.999Z</time></trkpt><trkpt lat="43.526962739393376" lon="10.72957376777546"><ele>138.0</ele><time>2026-04-04T08:21:33.999Z</time></trkpt><trkpt lat="43.52688937344446" lon="10.72972101880873"><ele>140.75</ele><time>2026-04-04T08:21:34.999Z</time></trkpt><trkpt lat="43.526832189805276" lon="10.729877942324954"><ele>143.5</ele><time>2026-04-04T08:21:35.999Z</time></trkpt><trkpt lat="43.526794335206446" lon="10.730050638644538"><ele>146.25</ele><time>2026-04-04T08:21:36.999Z</time></trkpt><trkpt lat="43.52677104304342" lon="10.730227018709057"><ele>149.0</ele><time>2026-04-04T08:21:37.999Z</time></trkpt><trkpt lat="43.52674731966027" lon="10.730404710845896"><ele>149.0</ele><time>2026-04-04T08:21:38.999Z</time></trkpt><trkpt lat="43.52672132249688" lon="10.730580336766952"><ele>149.0</ele><time>2026-04-04T08:21:39.999Z</time></trkpt><trkpt lat="43.52668536592142" lon="10.730748430177478"><ele>149.0</ele><time>2026-04-04T08:21:40.999Z</time></trkpt><trkpt lat="43.52664526243111" lon="10.73090696712465"><ele>149.0</ele><time>2026-04-04T08:21:41.999Z</time></trkpt><trkpt lat="43.52660509112218" lon="10.73106289992606"><ele>149.0</ele><time>2026-04-04T08:21:42.999Z</time></trkpt><trkpt lat="43.52656000378658" lon="10.731201081308877"><ele>149.0</ele><time>2026-04-04T08:21:43.999Z</time></trkpt><trkpt lat="43.526499004755046" lon="10.731330634451618"><ele>149.0</ele><time>2026-04-04T08:21:44.999Z</time></trkpt><trkpt lat="43.52641767515264" lon="10.731453514175879"><ele>149.0</ele><time>2026-04-04T08:21:45.999Z</time></trkpt><trkpt lat="43.52633011323358" lon="10.731551170889611"><ele>149.0</ele><time>2026-04-04T08:21:46.999Z</time></trkpt><trkpt lat="43.52625172733635" lon="10.731607010167885"><ele>149.0</ele><time>2026-04-04T08:21:47.999Z</time></trkpt><trkpt lat="43.52615687637833" lon="10.731657651995794"><ele>149.0</ele><time>2026-04-04T08:21:48.999Z</time></trkpt><trkpt lat="43.52603910029706" lon="10.731691488950819"><ele>149.0</ele><time>2026-04-04T08:21:49.999Z</time></trkpt><trkpt lat="43.525932146465244" lon="10.731698637450743"><ele>149.0</ele><time>2026-04-04T08:21:50.999Z</time></trkpt><trkpt lat="43.52580915056812" lon="10.73164745593924"><ele>149.25</ele><time>2026-04-04T08:21:51.999Z</time></trkpt><trkpt lat="43.52568170064159" lon="10.731531104466507"><ele>149.5</ele><time>2026-04-04T08:21:52.999Z</time></trkpt><trkpt lat="43.525564079246315" lon="10.731427011691421"><ele>149.75</ele><time>2026-04-04T08:21:53.999Z</time></trkpt><trkpt lat="43.52546327857793" lon="10.731370188374173"><ele>150.0</ele><time>2026-04-04T08:21:54.999Z</time></trkpt><trkpt lat="43.525361696809064" lon="10.731367693954711"><ele>149.25</ele><time>2026-04-04T08:21:55.999Z</time></trkpt><trkpt lat="43.52526878307332" lon="10.731439209489487"><ele>148.5</ele><time>2026-04-04T08:21:56.999Z</time></trkpt><trkpt lat="43.52519432923581" lon="10.731585121360286"><ele>147.75</ele><time>2026-04-04T08:21:57.999Z</time></trkpt><trkpt lat="43.5251228828068" lon="10.731794725893154"><ele>147.0</ele><time>2026-04-04T08:21:58.999Z</time></trkpt><trkpt lat="43.5250303900339" lon="10.73205773554964"><ele>144.0</ele><time>2026-04-04T08:21:59.999Z</time></trkpt><trkpt lat="43.52493121676452" lon="10.732309129060356"><ele>141.0</ele><time>2026-04-04T08:22:00.999Z</time></trkpt><trkpt lat="43.524834749731994" lon="10.732535282002381"><ele>138.0</ele><time>2026-04-04T08:22:01.999Z</time></trkpt><trkpt lat="43.52475366753706" lon="10.732776140006573"><ele>135.66666666666666</ele><time>2026-04-04T08:22:02.999Z</time></trkpt><trkpt lat="43.52471314693854" lon="10.733048773421993"><ele>133.33333333333331</ele><time>2026-04-04T08:22:03.999Z</time></trkpt><trkpt lat="43.52469446255508" lon="10.733319885685713"><ele>131.0</ele><time>2026-04-04T08:22:04.999Z</time></trkpt><trkpt lat="43.52467671288549" lon="10.73355784997011"><ele>130.75</ele><time>2026-04-04T08:22:05.999Z</time></trkpt><trkpt lat="43.52465467199252" lon="10.733762656060408"><ele>130.5</ele><time>2026-04-04T08:22:06.999Z</time></trkpt><trkpt lat="43.52463370525394" lon="10.733948245235437"><ele>130.25</ele><time>2026-04-04T08:22:07.999Z</time></trkpt><trkpt lat="43.52459637081741" lon="10.734112053144777"><ele>130.0</ele><time>2026-04-04T08:22:08.999Z</time></trkpt><trkpt lat="43.524570014231074" lon="10.734279335627527"><ele>132.25</ele><time>2026-04-04T08:22:09.999Z</time></trkpt><trkpt lat="43.524544195981754" lon="10.734451086455396"><ele>134.5</ele><time>2026-04-04T08:22:10.999Z</time></trkpt><trkpt lat="43.524450183384005" lon="10.734601200905129"><ele>136.75</ele><time>2026-04-04T08:22:11.999Z</time></trkpt><trkpt lat="43.52436073855744" lon="10.734774307204674"><ele>139.0</ele><time>2026-04-04T08:22:12.999Z</time></trkpt><trkpt lat="43.5242795250257" lon="10.734931606244201"><ele>139.0</ele><time>2026-04-04T08:22:13.999Z</time></trkpt><trkpt lat="43.52420878933786" lon="10.735068611195455"><ele>139.0</ele><time>2026-04-04T08:22:14.999Z</time></trkpt><trkpt lat="43.52413992982782" lon="10.735203926032234"><ele>139.0</ele><time>2026-04-04T08:22:15.999Z</time></trkpt><trkpt lat="43.524070377206975" lon="10.73534198305384"><ele>139.0</ele><time>2026-04-04T08:22:16.999Z</time></trkpt><trkpt lat="43.52398977300478" lon="10.735485661874923"><ele>140.5</ele><time>2026-04-04T08:22:17.999Z</time></trkpt><trkpt lat="43.523891933090304" lon="10.735626740757434"><ele>142.0</ele><time>2026-04-04T08:22:18.999Z</time></trkpt><trkpt lat="43.52377320065471" lon="10.735757078649675"><ele>143.5</ele><time>2026-04-04T08:22:19.999Z</time></trkpt><trkpt lat="43.52365627202383" lon="10.73587893392647"><ele>145.0</ele><time>2026-04-04T08:22:20.999Z</time></trkpt><trkpt lat="43.52355963289993" lon="10.735979644820391"><ele>140.25</ele><time>2026-04-04T08:22:21.999Z</time></trkpt><trkpt lat="43.52346781165518" lon="10.736074394042014"><ele>135.5</ele><time>2026-04-04T08:22:22.999Z</time></trkpt><trkpt lat="43.523362961933195" lon="10.736182199467414"><ele>130.75</ele><time>2026-04-04T08:22:23.999Z</time></trkpt><trkpt lat="43.52325166662957" lon="10.736291603755761"><ele>126.0</ele><time>2026-04-04T08:22:24.999Z</time></trkpt><trkpt lat="43.523136560896475" lon="10.736395196532253"><ele>126.0</ele><time>2026-04-04T08:22:25.999Z</time></trkpt><trkpt lat="43.523017971332166" lon="10.736483358917077"><ele>126.0</ele><time>2026-04-04T08:22:26.999Z</time></trkpt><trkpt lat="43.5228931754788" lon="10.736549867230204"><ele>126.0</ele><time>2026-04-04T08:22:27.999Z</time></trkpt><trkpt lat="43.522768986535446" lon="10.736593474493935"><ele>126.0</ele><time>2026-04-04T08:22:28.999Z</time></trkpt><trkpt lat="43.52264202257961" lon="10.736631320290856"><ele>127.5</ele><time>2026-04-04T08:22:29.999Z</time></trkpt><trkpt lat="43.52250730584035" lon="10.736666866032483"><ele>129.0</ele><time>2026-04-04T08:22:30.999Z</time></trkpt><trkpt lat="43.52238228294832" lon="10.736712584033327"><ele>130.5</ele><time>2026-04-04T08:22:32Z</time></trkpt><trkpt lat="43.52228037213759" lon="10.736808141250105"><ele>132.0</ele><time>2026-04-04T08:22:33Z</time></trkpt><trkpt lat="43.522204388956595" lon="10.73695310380002"><ele>132.0</ele><time>2026-04-04T08:22:34Z</time></trkpt><trkpt lat="43.52213793797613" lon="10.737117193983682"><ele>132.0</ele><time>2026-04-04T08:22:35Z</time></trkpt><trkpt lat="43.52209118172119" lon="10.737298773382044"><ele>132.0</ele><time>2026-04-04T08:22:36Z</time></trkpt><trkpt lat="43.522054936028" lon="10.737477924158553"><ele>132.0</ele><time>2026-04-04T08:22:37Z</time></trkpt><trkpt lat="43.522017963395875" lon="10.737651716163514"><ele>135.0</ele><time>2026-04-04T08:22:38Z</time></trkpt><trkpt lat="43.52193524842356" lon="10.737787397159572"><ele>138.0</ele><time>2026-04-04T08:22:39Z</time></trkpt><trkpt lat="43.52184405689709" lon="10.737915961586404"><ele>141.0</ele><time>2026-04-04T08:22:40Z</time></trkpt><trkpt lat="43.521736112782456" lon="10.73802551726228"><ele>144.0</ele><time>2026-04-04T08:22:41Z</time></trkpt><trkpt lat="43.52162932844664" lon="10.738106129602395"><ele>144.0</ele><time>2026-04-04T08:22:42Z</time></trkpt><trkpt lat="43.52155706895284" lon="10.738203652382738"><ele>144.0</ele><time>2026-04-04T08:22:43Z</time></trkpt><trkpt lat="43.521498767178315" lon="10.738292755167175"><ele>144.0</ele><time>2026-04-04T08:22:44Z</time></trkpt><trkpt lat="43.52146725354585" lon="10.73842162744322"><ele>144.0</ele><time>2026-04-04T08:22:45.001Z</time></trkpt><trkpt lat="43.52147371934491" lon="10.738590963228392"><ele>144.0</ele><time>2026-04-04T08:22:46.001Z</time></trkpt><trkpt lat="43.521514160744935" lon="10.738798254786111"><ele>144.0</ele><time>2026-04-04T08:22:47.001Z</time></trkpt><trkpt lat="43.521580276510996" lon="10.73901373693515"><ele>144.0</ele><time>2026-04-04T08:22:48.001Z</time></trkpt><trkpt lat="43.52162106760128" lon="10.73920742032025"><ele>144.0</ele><time>2026-04-04T08:22:49.001Z</time></trkpt><trkpt lat="43.52164073173651" lon="10.739384987513677"><ele>144.0</ele><time>2026-04-04T08:22:50.001Z</time></trkpt><trkpt lat="43.52165559119111" lon="10.739543299504046"><ele>143.25</ele><time>2026-04-04T08:22:51Z</time></trkpt><trkpt lat="43.52167374557911" lon="10.73969443235949"><ele>142.5</ele><time>2026-04-04T08:22:52Z</time></trkpt><trkpt lat="43.521690871141686" lon="10.739843978245363"><ele>141.75</ele><time>2026-04-04T08:22:53Z</time></trkpt><trkpt lat="43.52170678933321" lon="10.740002106146695"><ele>141.0</ele><time>2026-04-04T08:22:54Z</time></trkpt><trkpt lat="43.52172405348251" lon="10.740164980607828"><ele>141.25</ele><time>2026-04-04T08:22:55Z</time></trkpt><trkpt lat="43.521717749148706" lon="10.740323254580941"><ele>141.5</ele><time>2026-04-04T08:22:56Z</time></trkpt><trkpt lat="43.52172013238425" lon="10.740476845613706"><ele>141.75</ele><time>2026-04-04T08:22:57Z</time></trkpt><trkpt lat="43.521662605352766" lon="10.740623507384113"><ele>142.0</ele><time>2026-04-04T08:22:58Z</time></trkpt><trkpt lat="43.52163212343861" lon="10.740787648923101"><ele>142.0</ele><time>2026-04-04T08:22:59Z</time></trkpt><trkpt lat="43.52159744161675" lon="10.740948481820013"><ele>142.0</ele><time>2026-04-04T08:23:00Z</time></trkpt><trkpt lat="43.52159807044749" lon="10.741125926838256"><ele>142.0</ele><time>2026-04-04T08:23:01Z</time></trkpt><trkpt lat="43.52163139882368" lon="10.741311270603969"><ele>142.0</ele><time>2026-04-04T08:23:02Z</time></trkpt><trkpt lat="43.521680825731494" lon="10.74149604959233"><ele>141.0</ele><time>2026-04-04T08:23:03Z</time></trkpt><trkpt lat="43.52173035418481" lon="10.74168547235127"><ele>140.0</ele><time>2026-04-04T08:23:04Z</time></trkpt><trkpt lat="43.52177224432277" lon="10.741866251572144"><ele>139.0</ele><time>2026-04-04T08:23:05Z</time></trkpt><trkpt lat="43.521811993988855" lon="10.742053253220904"><ele>138.0</ele><time>2026-04-04T08:23:06Z</time></trkpt><trkpt lat="43.52184768679973" lon="10.742240324896596"><ele>133.75</ele><time>2026-04-04T08:23:07Z</time></trkpt><trkpt lat="43.52188446469019" lon="10.742425792595016"><ele>129.5</ele><time>2026-04-04T08:23:08Z</time></trkpt><trkpt lat="43.52193237924218" lon="10.74260829122785"><ele>125.25</ele><time>2026-04-04T08:23:09Z</time></trkpt><trkpt lat="43.52199410840246" lon="10.742789188005258"><ele>121.0</ele><time>2026-04-04T08:23:10Z</time></trkpt><trkpt lat="43.522063139974776" lon="10.742965696085534"><ele>120.75</ele><time>2026-04-04T08:23:11Z</time></trkpt><trkpt lat="43.52213666807166" lon="10.74314089759853"><ele>120.5</ele><time>2026-04-04T08:23:12Z</time></trkpt><trkpt lat="43.522209314494845" lon="10.743322003765403"><ele>120.25</ele><time>2026-04-04T08:23:13Z</time></trkpt><trkpt lat="43.52228051825833" lon="10.74349366461697"><ele>120.0</ele><time>2026-04-04T08:23:14Z</time></trkpt><trkpt lat="43.52235289218961" lon="10.743651861339938"><ele>120.0</ele><time>2026-04-04T08:23:15Z</time></trkpt><trkpt lat="43.52241282401703" lon="10.743810177382652"><ele>120.0</ele><time>2026-04-04T08:23:16Z</time></trkpt><trkpt lat="43.522432671278" lon="10.74399001368365"><ele>120.0</ele><time>2026-04-04T08:23:17Z</time></trkpt><trkpt lat="43.52243603258437" lon="10.74418953929457"><ele>120.0</ele><time>2026-04-04T08:23:18Z</time></trkpt><trkpt lat="43.52241971341296" lon="10.74440301837475"><ele>118.0</ele><time>2026-04-04T08:23:19Z</time></trkpt><trkpt lat="43.52238309290294" lon="10.744620054847656"><ele>116.0</ele><time>2026-04-04T08:23:20Z</time></trkpt><trkpt lat="43.52234279104863" lon="10.744831310405722"><ele>114.0</ele><time>2026-04-04T08:23:21Z</time></trkpt><trkpt lat="43.52230184752927" lon="10.745045562217358"><ele>112.66666666666666</ele><time>2026-04-04T08:23:22Z</time></trkpt><trkpt lat="43.522276161101196" lon="10.745269096456191"><ele>111.33333333333333</ele><time>2026-04-04T08:23:23Z</time></trkpt><trkpt lat="43.52223353004668" lon="10.745483703685453"><ele>110.0</ele><time>2026-04-04T08:23:24Z</time></trkpt><trkpt lat="43.52217618839582" lon="10.745687308555597"><ele>110.0</ele><time>2026-04-04T08:23:25Z</time></trkpt><trkpt lat="43.52213489033339" lon="10.745892621126254"><ele>110.0</ele><time>2026-04-04T08:23:26Z</time></trkpt><trkpt lat="43.522094971535225" lon="10.74609105660713"><ele>110.0</ele><time>2026-04-04T08:23:27Z</time></trkpt><trkpt lat="43.52205783139839" lon="10.746275679422217"><ele>110.0</ele><time>2026-04-04T08:23:28Z</time></trkpt><trkpt lat="43.522022754093996" lon="10.74644971579668"><ele>110.75</ele><time>2026-04-04T08:23:29Z</time></trkpt><trkpt lat="43.52198778869242" lon="10.746622535447754"><ele>111.5</ele><time>2026-04-04T08:23:30Z</time></trkpt><trkpt lat="43.521951326975206" lon="10.74680037789944"><ele>112.25</ele><time>2026-04-04T08:23:31Z</time></trkpt><trkpt lat="43.52191363539343" lon="10.746973430648792"><ele>113.0</ele><time>2026-04-04T08:23:32Z</time></trkpt><trkpt lat="43.52189412099623" lon="10.7471322806269"><ele>114.2</ele><time>2026-04-04T08:23:33Z</time></trkpt><trkpt lat="43.521829390556704" lon="10.747242048960699"><ele>115.4</ele><time>2026-04-04T08:23:34Z</time></trkpt><trkpt lat="43.52175119701077" lon="10.747302750873674"><ele>116.60000000000001</ele><time>2026-04-04T08:23:35Z</time></trkpt><trkpt lat="43.52166146025386" lon="10.747314907157985"><ele>117.80000000000001</ele><time>2026-04-04T08:23:36Z</time></trkpt><trkpt lat="43.52155839044973" lon="10.747296579972751"><ele>119.0</ele><time>2026-04-04T08:23:37Z</time></trkpt><trkpt lat="43.52146488557472" lon="10.747217473827263"><ele>119.0</ele><time>2026-04-04T08:23:38Z</time></trkpt><trkpt lat="43.52134088114971" lon="10.747108636207152"><ele>119.0</ele><time>2026-04-04T08:23:39Z</time></trkpt><trkpt lat="43.52119625931802" lon="10.746961722755017"><ele>119.0</ele><time>2026-04-04T08:23:40Z</time></trkpt><trkpt lat="43.52106330903571" lon="10.746824828589222"><ele>121.0</ele><time>2026-04-04T08:23:41Z</time></trkpt><trkpt lat="43.52092449681121" lon="10.746682962373127"><ele>123.0</ele><time>2026-04-04T08:23:42Z</time></trkpt><trkpt lat="43.52080614021201" lon="10.746562001825685"><ele>125.0</ele><time>2026-04-04T08:23:43Z</time></trkpt><trkpt lat="43.520686746709956" lon="10.74646506712434"><ele>125.0</ele><time>2026-04-04T08:23:44Z</time></trkpt><trkpt lat="43.520572603376394" lon="10.74635523399977"><ele>125.0</ele><time>2026-04-04T08:23:45Z</time></trkpt><trkpt lat="43.520458742175315" lon="10.746247079899549"><ele>125.0</ele><time>2026-04-04T08:23:46Z</time></trkpt><trkpt lat="43.52034471987477" lon="10.74614001542855"><ele>125.0</ele><time>2026-04-04T08:23:47Z</time></trkpt><trkpt lat="43.52022618118142" lon="10.746040583052002"><ele>125.5</ele><time>2026-04-04T08:23:48Z</time></trkpt><trkpt lat="43.52009992895978" lon="10.745951891257482"><ele>126.0</ele><time>2026-04-04T08:23:49Z</time></trkpt><trkpt lat="43.51997086199326" lon="10.745873152875408"><ele>126.5</ele><time>2026-04-04T08:23:50Z</time></trkpt><trkpt lat="43.519831047744006" lon="10.745798197424367"><ele>127.0</ele><time>2026-04-04T08:23:51Z</time></trkpt><trkpt lat="43.519681565751505" lon="10.745741970281692"><ele>128.5</ele><time>2026-04-04T08:23:52Z</time></trkpt><trkpt lat="43.51954093609714" lon="10.745675683110132"><ele>130.0</ele><time>2026-04-04T08:23:53Z</time></trkpt><trkpt lat="43.51941645959087" lon="10.745638059704774"><ele>131.5</ele><time>2026-04-04T08:23:54Z</time></trkpt><trkpt lat="43.51930339223782" lon="10.745625704858751"><ele>133.0</ele><time>2026-04-04T08:23:55Z</time></trkpt><trkpt lat="43.51920982428154" lon="10.745606395482794"><ele>133.0</ele><time>2026-04-04T08:23:56Z</time></trkpt><trkpt lat="43.51912305746079" lon="10.74562010894653"><ele>133.0</ele><time>2026-04-04T08:23:57Z</time></trkpt><trkpt lat="43.51902915280752" lon="10.745712230850032"><ele>133.0</ele><time>2026-04-04T08:23:58Z</time></trkpt><trkpt lat="43.51897205917176" lon="10.745857265925546"><ele>133.0</ele><time>2026-04-04T08:23:59Z</time></trkpt><trkpt lat="43.51895819355785" lon="10.746046927293254"><ele>133.66666666666669</ele><time>2026-04-04T08:24:00Z</time></trkpt><trkpt lat="43.51896557293599" lon="10.746277833187897"><ele>134.33333333333334</ele><time>2026-04-04T08:24:01Z</time></trkpt><trkpt lat="43.518965959662175" lon="10.746534016857375"><ele>135.0</ele><time>2026-04-04T08:24:02Z</time></trkpt><trkpt lat="43.51894116512909" lon="10.746791571830714"><ele>134.33333333333334</ele><time>2026-04-04T08:24:03Z</time></trkpt><trkpt lat="43.51886895558133" lon="10.747033138811044"><ele>133.66666666666669</ele><time>2026-04-04T08:24:04Z</time></trkpt><trkpt lat="43.51880912853293" lon="10.747269845103615"><ele>133.0</ele><time>2026-04-04T08:24:05Z</time></trkpt><trkpt lat="43.518766338376224" lon="10.747496160035727"><ele>131.33333333333334</ele><time>2026-04-04T08:24:06Z</time></trkpt><trkpt lat="43.51871291747085" lon="10.747702149389447"><ele>129.66666666666666</ele><time>2026-04-04T08:24:07Z</time></trkpt><trkpt lat="43.51866563161162" lon="10.747900850290144"><ele>128.0</ele><time>2026-04-04T08:24:08Z</time></trkpt><trkpt lat="43.518617642034194" lon="10.748091496853453"><ele>128.0</ele><time>2026-04-04T08:24:09Z</time></trkpt><trkpt lat="43.518569670947095" lon="10.748277234006064"><ele>128.0</ele><time>2026-04-04T08:24:10Z</time></trkpt><trkpt lat="43.51852315331875" lon="10.74846007492962"><ele>128.0</ele><time>2026-04-04T08:24:11Z</time></trkpt><trkpt lat="43.518476143214095" lon="10.748639259150268"><ele>128.0</ele><time>2026-04-04T08:24:12Z</time></trkpt><trkpt lat="43.51842936244281" lon="10.748810688752885"><ele>128.5</ele><time>2026-04-04T08:24:13Z</time></trkpt><trkpt lat="43.51838335053697" lon="10.748983792721681"><ele>129.0</ele><time>2026-04-04T08:24:14Z</time></trkpt><trkpt lat="43.51834258805424" lon="10.749157788169764"><ele>129.5</ele><time>2026-04-04T08:24:15Z</time></trkpt><trkpt lat="43.51830436345983" lon="10.749335424479233"><ele>130.0</ele><time>2026-04-04T08:24:16Z</time></trkpt><trkpt lat="43.51826084535001" lon="10.749513932538939"><ele>130.25</ele><time>2026-04-04T08:24:17Z</time></trkpt><trkpt lat="43.51821669692174" lon="10.749693006149792"><ele>130.5</ele><time>2026-04-04T08:24:18Z</time></trkpt><trkpt lat="43.51817320588405" lon="10.74987616906857"><ele>130.75</ele><time>2026-04-04T08:24:19Z</time></trkpt><trkpt lat="43.51812736220745" lon="10.750062050226951"><ele>131.0</ele><time>2026-04-04T08:24:20Z</time></trkpt><trkpt lat="43.518082008323745" lon="10.750257449075752"><ele>130.33333333333331</ele><time>2026-04-04T08:24:21Z</time></trkpt><trkpt lat="43.51803374002062" lon="10.750462475123031"><ele>129.66666666666666</ele><time>2026-04-04T08:24:22Z</time></trkpt><trkpt lat="43.51796840526771" lon="10.75066059759493"><ele>129.0</ele><time>2026-04-04T08:24:23Z</time></trkpt><trkpt lat="43.51792366053026" lon="10.750870331195646"><ele>129.0</ele><time>2026-04-04T08:24:24Z</time></trkpt><trkpt lat="43.517901570664456" lon="10.751084237494828"><ele>129.0</ele><time>2026-04-04T08:24:25Z</time></trkpt><trkpt lat="43.51787004115706" lon="10.751294021681018"><ele>129.0</ele><time>2026-04-04T08:24:26Z</time></trkpt><trkpt lat="43.51785367080313" lon="10.7515129595187"><ele>129.0</ele><time>2026-04-04T08:24:27Z</time></trkpt><trkpt lat="43.51784848509551" lon="10.751740785300585"><ele>129.0</ele><time>2026-04-04T08:24:28Z</time></trkpt><trkpt lat="43.51785920036364" lon="10.751963991697412"><ele>129.0</ele><time>2026-04-04T08:24:29Z</time></trkpt><trkpt lat="43.51787447349743" lon="10.752186079867155"><ele>129.0</ele><time>2026-04-04T08:24:30Z</time></trkpt><trkpt lat="43.5178821197565" lon="10.752405639958557"><ele>129.0</ele><time>2026-04-04T08:24:31Z</time></trkpt><trkpt lat="43.5178617405248" lon="10.752627810524896"><ele>129.0</ele><time>2026-04-04T08:24:32Z</time></trkpt><trkpt lat="43.517838429206265" lon="10.752852903694619"><ele>129.33333333333334</ele><time>2026-04-04T08:24:33Z</time></trkpt><trkpt lat="43.51781199291239" lon="10.753080685072227"><ele>129.66666666666669</ele><time>2026-04-04T08:24:34Z</time></trkpt><trkpt lat="43.51777992343134" lon="10.753304199899675"><ele>130.0</ele><time>2026-04-04T08:24:35Z</time></trkpt><trkpt lat="43.51773968379072" lon="10.753519370648332"><ele>132.33333333333334</ele><time>2026-04-04T08:24:36Z</time></trkpt><trkpt lat="43.5176753209765" lon="10.753719569235512"><ele>134.66666666666666</ele><time>2026-04-04T08:24:37Z</time></trkpt><trkpt lat="43.517586152413784" lon="10.753908877565197"><ele>137.0</ele><time>2026-04-04T08:24:38.001Z</time></trkpt><trkpt lat="43.51745921068285" lon="10.754079732532405"><ele>137.0</ele><time>2026-04-04T08:24:39.001Z</time></trkpt><trkpt lat="43.51731527979088" lon="10.754252728206357"><ele>137.0</ele><time>2026-04-04T08:24:40.001Z</time></trkpt><trkpt lat="43.517167304026664" lon="10.754415453377872"><ele>137.0</ele><time>2026-04-04T08:24:41.001Z</time></trkpt><trkpt lat="43.51702846568218" lon="10.7545643072868"><ele>138.33333333333331</ele><time>2026-04-04T08:24:42.001Z</time></trkpt><trkpt lat="43.51688545328551" lon="10.754716107820412"><ele>139.66666666666666</ele><time>2026-04-04T08:24:43.001Z</time></trkpt><trkpt lat="43.51675257915346" lon="10.754856029961156"><ele>141.0</ele><time>2026-04-04T08:24:44.001Z</time></trkpt><trkpt lat="43.5166275650867" lon="10.754990822790994"><ele>141.0</ele><time>2026-04-04T08:24:45.001Z</time></trkpt><trkpt lat="43.51650982427102" lon="10.75513335115634"><ele>141.0</ele><time>2026-04-04T08:24:46.001Z</time></trkpt><trkpt lat="43.51639423319188" lon="10.755265892335713"><ele>141.0</ele><time>2026-04-04T08:24:47.001Z</time></trkpt><trkpt lat="43.51627171012706" lon="10.75540301081493"><ele>139.0</ele><time>2026-04-04T08:24:48.001Z</time></trkpt><trkpt lat="43.516121032943836" lon="10.755472089585187"><ele>137.0</ele><time>2026-04-04T08:24:49Z</time></trkpt><trkpt lat="43.51595932405932" lon="10.75553153250515"><ele>135.0</ele><time>2026-04-04T08:24:50.001Z</time></trkpt><trkpt lat="43.51577142802953" lon="10.755539937367162"><ele>135.0</ele><time>2026-04-04T08:24:51.001Z</time></trkpt><trkpt lat="43.51542205804621" lon="10.755535923471047"><ele>135.0</ele><time>2026-04-04T08:24:53Z</time></trkpt><trkpt lat="43.51527130533583" lon="10.755540531885563"><ele>137.25</ele><time>2026-04-04T08:24:54Z</time></trkpt><trkpt lat="43.51512566743179" lon="10.75555290130574"><ele>139.5</ele><time>2026-04-04T08:24:55Z</time></trkpt><trkpt lat="43.514985089758135" lon="10.75559419050325"><ele>141.75</ele><time>2026-04-04T08:24:56Z</time></trkpt><trkpt lat="43.51484109858044" lon="10.755621479168104"><ele>144.0</ele><time>2026-04-04T08:24:57Z</time></trkpt><trkpt lat="43.51469987207486" lon="10.755635214880824"><ele>145.5</ele><time>2026-04-04T08:24:58Z</time></trkpt><trkpt lat="43.51456331709646" lon="10.755627813753597"><ele>147.0</ele><time>2026-04-04T08:24:59Z</time></trkpt><trkpt lat="43.51443327553315" lon="10.755595807855686"><ele>148.5</ele><time>2026-04-04T08:25:00Z</time></trkpt><trkpt lat="43.51432056321438" lon="10.755549958541105"><ele>150.0</ele><time>2026-04-04T08:25:01Z</time></trkpt><trkpt lat="43.514207442182375" lon="10.755502152764457"><ele>150.0</ele><time>2026-04-04T08:25:02Z</time></trkpt><trkpt lat="43.514095064047474" lon="10.755460522747807"><ele>150.0</ele><time>2026-04-04T08:25:03Z</time></trkpt><trkpt lat="43.51398533654462" lon="10.755432845297362"><ele>150.0</ele><time>2026-04-04T08:25:04Z</time></trkpt><trkpt lat="43.51386838682819" lon="10.755454416813263"><ele>150.0</ele><time>2026-04-04T08:25:05Z</time></trkpt><trkpt lat="43.51374712429503" lon="10.755487368879455"><ele>146.66666666666666</ele><time>2026-04-04T08:25:06Z</time></trkpt><trkpt lat="43.51361006725739" lon="10.755555053737671"><ele>143.33333333333331</ele><time>2026-04-04T08:25:07Z</time></trkpt><trkpt lat="43.51348886671274" lon="10.755684360175064"><ele>140.0</ele><time>2026-04-04T08:25:08Z</time></trkpt><trkpt lat="43.513368539474044" lon="10.755827535174259"><ele>140.0</ele><time>2026-04-04T08:25:09Z</time></trkpt><trkpt lat="43.513264050352134" lon="10.755929764414784"><ele>140.0</ele><time>2026-04-04T08:25:10Z</time></trkpt><trkpt lat="43.51315825217767" lon="10.756020505031604"><ele>140.0</ele><time>2026-04-04T08:25:11Z</time></trkpt><trkpt lat="43.51303722743247" lon="10.756077636614881"><ele>140.0</ele><time>2026-04-04T08:25:12Z</time></trkpt><trkpt lat="43.512922623805245" lon="10.756148421668787"><ele>139.75</ele><time>2026-04-04T08:25:13Z</time></trkpt><trkpt lat="43.51281095422911" lon="10.756193270357759"><ele>139.5</ele><time>2026-04-04T08:25:14Z</time></trkpt><trkpt lat="43.51268985659274" lon="10.756238504125589"><ele>139.25</ele><time>2026-04-04T08:25:15Z</time></trkpt><trkpt lat="43.512568649649616" lon="10.756284330881035"><ele>139.0</ele><time>2026-04-04T08:25:16Z</time></trkpt><trkpt lat="43.512449018768216" lon="10.756331398408452"><ele>139.0</ele><time>2026-04-04T08:25:17Z</time></trkpt><trkpt lat="43.51232579776025" lon="10.756381743357464"><ele>139.0</ele><time>2026-04-04T08:25:18Z</time></trkpt><trkpt lat="43.51220203010871" lon="10.756432454747875"><ele>139.0</ele><time>2026-04-04T08:25:19Z</time></trkpt><trkpt lat="43.51207581212546" lon="10.756485479059554"><ele>139.0</ele><time>2026-04-04T08:25:20Z</time></trkpt><trkpt lat="43.51195546657023" lon="10.756536280874784"><ele>139.5</ele><time>2026-04-04T08:25:21Z</time></trkpt><trkpt lat="43.511835958964355" lon="10.756586728969227"><ele>140.0</ele><time>2026-04-04T08:25:22Z</time></trkpt><trkpt lat="43.51172171844609" lon="10.756634953645445"><ele>140.5</ele><time>2026-04-04T08:25:23Z</time></trkpt><trkpt lat="43.51160573409966" lon="10.756683914461453"><ele>141.0</ele><time>2026-04-04T08:25:24Z</time></trkpt><trkpt lat="43.511489757975795" lon="10.756732871803827"><ele>141.0</ele><time>2026-04-04T08:25:25Z</time></trkpt><trkpt lat="43.511376294038" lon="10.756780768662303"><ele>141.0</ele><time>2026-04-04T08:25:26Z</time></trkpt><trkpt lat="43.511266202146466" lon="10.75682724207483"><ele>141.0</ele><time>2026-04-04T08:25:27Z</time></trkpt><trkpt lat="43.51115681786327" lon="10.756873416778799"><ele>141.0</ele><time>2026-04-04T08:25:28Z</time></trkpt><trkpt lat="43.51104994849015" lon="10.756918529862027"><ele>140.6</ele><time>2026-04-04T08:25:29Z</time></trkpt><trkpt lat="43.51094387670036" lon="10.756961381224565"><ele>140.2</ele><time>2026-04-04T08:25:30Z</time></trkpt><trkpt lat="43.5108390885576" lon="10.756992337349967"><ele>139.8</ele><time>2026-04-04T08:25:31Z</time></trkpt><trkpt lat="43.51073902161176" lon="10.757011410683232"><ele>139.4</ele><time>2026-04-04T08:25:32Z</time></trkpt><trkpt lat="43.51063491700488" lon="10.757030383456378"><ele>139.0</ele><time>2026-04-04T08:25:33Z</time></trkpt><trkpt lat="43.51053267005031" lon="10.757049015888787"><ele>139.0</ele><time>2026-04-04T08:25:34Z</time></trkpt><trkpt lat="43.51043082615495" lon="10.757068326826912"><ele>139.0</ele><time>2026-04-04T08:25:35Z</time></trkpt><trkpt lat="43.510328096495506" lon="10.757088604570077"><ele>139.0</ele><time>2026-04-04T08:25:36Z</time></trkpt><trkpt lat="43.510228410495614" lon="10.757112785314618"><ele>139.0</ele><time>2026-04-04T08:25:37Z</time></trkpt><trkpt lat="43.51013928315837" lon="10.757138033686305"><ele>139.0</ele><time>2026-04-04T08:25:38Z</time></trkpt><trkpt lat="43.510059540953655" lon="10.757163061792935"><ele>141.25</ele><time>2026-04-04T08:25:39Z</time></trkpt><trkpt lat="43.50993620136289" lon="10.757209606626777"><ele>143.5</ele><time>2026-04-04T08:25:41Z</time></trkpt><trkpt lat="43.50980223370034" lon="10.757267101592559"><ele>145.75</ele><time>2026-04-04T08:25:42Z</time></trkpt><trkpt lat="43.50968386118123" lon="10.757321452001078"><ele>148.0</ele><time>2026-04-04T08:25:43Z</time></trkpt><trkpt lat="43.50955618663292" lon="10.757376239456992"><ele>149.8</ele><time>2026-04-04T08:25:44Z</time></trkpt><trkpt lat="43.509455379983436" lon="10.757420099405028"><ele>151.60000000000002</ele><time>2026-04-04T08:25:45Z</time></trkpt><trkpt lat="43.50936615411605" lon="10.757450686415279"><ele>153.39999999999998</ele><time>2026-04-04T08:25:46Z</time></trkpt><trkpt lat="43.50927253979568" lon="10.757489463041402"><ele>155.2</ele><time>2026-04-04T08:25:47Z</time></trkpt><trkpt lat="43.509183192051054" lon="10.757487472854201"><ele>157.0</ele><time>2026-04-04T08:25:48Z</time></trkpt><trkpt lat="43.509091461025626" lon="10.757309766212245"><ele>157.0</ele><time>2026-04-04T08:25:49Z</time></trkpt><trkpt lat="43.50897814243489" lon="10.757246328205708"><ele>157.0</ele><time>2026-04-04T08:25:50Z</time></trkpt><trkpt lat="43.50885991047707" lon="10.75717198582022"><ele>157.0</ele><time>2026-04-04T08:25:51Z</time></trkpt><trkpt lat="43.50874435186644" lon="10.757098973552177"><ele>157.0</ele><time>2026-04-04T08:25:52Z</time></trkpt><trkpt lat="43.5086274331108" lon="10.757026226275434"><ele>157.25</ele><time>2026-04-04T08:25:53Z</time></trkpt><trkpt lat="43.508511246141104" lon="10.756954117232086"><ele>157.5</ele><time>2026-04-04T08:25:54Z</time></trkpt><trkpt lat="43.50839368903518" lon="10.756881157875863"><ele>157.75</ele><time>2026-04-04T08:25:55Z</time></trkpt><trkpt lat="43.50827114595142" lon="10.75682648119455"><ele>158.0</ele><time>2026-04-04T08:25:56Z</time></trkpt><trkpt lat="43.508151845867346" lon="10.7567515316898"><ele>158.0</ele><time>2026-04-04T08:25:57Z</time></trkpt><trkpt lat="43.50803935480358" lon="10.756661247705924"><ele>158.0</ele><time>2026-04-04T08:25:58Z</time></trkpt><trkpt lat="43.50792390264494" lon="10.756589594714994"><ele>158.0</ele><time>2026-04-04T08:25:59Z</time></trkpt><trkpt lat="43.507807799275156" lon="10.756517537583395"><ele>158.0</ele><time>2026-04-04T08:26:00Z</time></trkpt><trkpt lat="43.507689592684585" lon="10.756444175118654"><ele>159.5</ele><time>2026-04-04T08:26:01Z</time></trkpt><trkpt lat="43.50757262735432" lon="10.756371428998236"><ele>161.0</ele><time>2026-04-04T08:26:02Z</time></trkpt><trkpt lat="43.50745838972336" lon="10.756299288677056"><ele>162.5</ele><time>2026-04-04T08:26:03Z</time></trkpt><trkpt lat="43.507339865637334" lon="10.756224183753439"><ele>164.0</ele><time>2026-04-04T08:26:04Z</time></trkpt><trkpt lat="43.50722322309565" lon="10.75615004144145"><ele>164.0</ele><time>2026-04-04T08:26:05Z</time></trkpt><trkpt lat="43.50710774288265" lon="10.75607663798681"><ele>164.0</ele><time>2026-04-04T08:26:06Z</time></trkpt><trkpt lat="43.50699117486716" lon="10.756004457109109"><ele>164.0</ele><time>2026-04-04T08:26:07Z</time></trkpt><trkpt lat="43.50688130310913" lon="10.755938090488591"><ele>164.0</ele><time>2026-04-04T08:26:08Z</time></trkpt><trkpt lat="43.50676609667509" lon="10.755892513983607"><ele>164.0</ele><time>2026-04-04T08:26:09Z</time></trkpt><trkpt lat="43.50666186001554" lon="10.755818631696622"><ele>164.0</ele><time>2026-04-04T08:26:10Z</time></trkpt><trkpt lat="43.50655670246722" lon="10.755755614578204"><ele>164.0</ele><time>2026-04-04T08:26:11Z</time></trkpt><trkpt lat="43.50645689957086" lon="10.755679957640176"><ele>164.0</ele><time>2026-04-04T08:26:12Z</time></trkpt><trkpt lat="43.506352561585956" lon="10.755635435693817"><ele>164.0</ele><time>2026-04-04T08:26:13Z</time></trkpt><trkpt lat="43.50625819311002" lon="10.75563080341283"><ele>164.0</ele><time>2026-04-04T08:26:14Z</time></trkpt><trkpt lat="43.506180099906445" lon="10.755622415854365"><ele>164.0</ele><time>2026-04-04T08:26:15Z</time></trkpt><trkpt lat="43.50607383562162" lon="10.755592886403056"><ele>164.0</ele><time>2026-04-04T08:26:17Z</time></trkpt><trkpt lat="43.505935928632375" lon="10.75552980051133"><ele>164.0</ele><time>2026-04-04T08:26:19Z</time></trkpt><trkpt lat="43.5058874711781" lon="10.75543790522008"><ele>164.2</ele><time>2026-04-04T08:26:20Z</time></trkpt><trkpt lat="43.50583326114088" lon="10.75533464209485"><ele>164.39999999999998</ele><time>2026-04-04T08:26:21Z</time></trkpt><trkpt lat="43.50577626311113" lon="10.755211938227047"><ele>164.6</ele><time>2026-04-04T08:26:22Z</time></trkpt><trkpt lat="43.50572365948523" lon="10.755087300769334"><ele>164.8</ele><time>2026-04-04T08:26:23Z</time></trkpt><trkpt lat="43.50567569366415" lon="10.75496521558573"><ele>165.0</ele><time>2026-04-04T08:26:24Z</time></trkpt><trkpt lat="43.505627890208224" lon="10.75484201259936"><ele>165.00000000000003</ele><time>2026-04-04T08:26:25Z</time></trkpt><trkpt lat="43.505587850203554" lon="10.75474109257506"><ele>165.0</ele><time>2026-04-04T08:26:26Z</time></trkpt><trkpt lat="43.50554987018548" lon="10.754648523975398"><ele>165.0</ele><time>2026-04-04T08:26:27Z</time></trkpt><trkpt lat="43.505514118310856" lon="10.754565797672138"><ele>165.0</ele><time>2026-04-04T08:26:28Z</time></trkpt><trkpt lat="43.505480157416876" lon="10.75448845987984"><ele>165.0</ele><time>2026-04-04T08:26:29Z</time></trkpt><trkpt lat="43.5054269945684" lon="10.754417037050453"><ele>165.00000000000003</ele><time>2026-04-04T08:26:30Z</time></trkpt><trkpt lat="43.50539427823215" lon="10.754334699549622"><ele>165.0</ele><time>2026-04-04T08:26:31Z</time></trkpt><trkpt lat="43.50536490347476" lon="10.754245453531565"><ele>164.33333333333334</ele><time>2026-04-04T08:26:32Z</time></trkpt><trkpt lat="43.50534650458683" lon="10.754151422526284"><ele>163.66666666666666</ele><time>2026-04-04T08:26:33Z</time></trkpt><trkpt lat="43.50533289561754" lon="10.754047225942204"><ele>163.0</ele><time>2026-04-04T08:26:34Z</time></trkpt><trkpt lat="43.505319465579376" lon="10.753932746542676"><ele>162.33333333333331</ele><time>2026-04-04T08:26:35Z</time></trkpt><trkpt lat="43.505307072970204" lon="10.75380232790725"><ele>161.66666666666666</ele><time>2026-04-04T08:26:36Z</time></trkpt><trkpt lat="43.505292154053016" lon="10.753674711063864"><ele>161.0</ele><time>2026-04-04T08:26:37Z</time></trkpt><trkpt lat="43.50527809497906" lon="10.753555143562464"><ele>161.5</ele><time>2026-04-04T08:26:38Z</time></trkpt><trkpt lat="43.50525187748134" lon="10.753445348521645"><ele>162.0</ele><time>2026-04-04T08:26:39Z</time></trkpt><trkpt lat="43.50524179385609" lon="10.75332214490116"><ele>162.5</ele><time>2026-04-04T08:26:40Z</time></trkpt><trkpt lat="43.5051982896491" lon="10.753211984756588"><ele>163.0</ele><time>2026-04-04T08:26:41Z</time></trkpt><trkpt lat="43.505164112998344" lon="10.75309723358627"><ele>163.5</ele><time>2026-04-04T08:26:42Z</time></trkpt><trkpt lat="43.50513031025805" lon="10.75298005621346"><ele>164.0</ele><time>2026-04-04T08:26:43Z</time></trkpt><trkpt lat="43.50508493999934" lon="10.752865960572585"><ele>164.0</ele><time>2026-04-04T08:26:44Z</time></trkpt><trkpt lat="43.505030889013334" lon="10.752744791879763"><ele>164.0</ele><time>2026-04-04T08:26:45Z</time></trkpt><trkpt lat="43.50498601951416" lon="10.752614351443166"><ele>164.0</ele><time>2026-04-04T08:26:46Z</time></trkpt><trkpt lat="43.50494979038975" lon="10.752469629894941"><ele>164.0</ele><time>2026-04-04T08:26:47Z</time></trkpt><trkpt lat="43.5049426620683" lon="10.752318803087427"><ele>164.0</ele><time>2026-04-04T08:26:48Z</time></trkpt><trkpt lat="43.504913216856046" lon="10.752169198596016"><ele>164.2</ele><time>2026-04-04T08:26:49Z</time></trkpt><trkpt lat="43.504901193354804" lon="10.752019260953182"><ele>164.39999999999998</ele><time>2026-04-04T08:26:50Z</time></trkpt><trkpt lat="43.50488780158984" lon="10.751871496962721"><ele>164.6</ele><time>2026-04-04T08:26:51Z</time></trkpt><trkpt lat="43.50486926711353" lon="10.751733101062348"><ele>164.8</ele><time>2026-04-04T08:26:52Z</time></trkpt><trkpt lat="43.504853454663" lon="10.751592453691652"><ele>165.0</ele><time>2026-04-04T08:26:53Z</time></trkpt><trkpt lat="43.504837231113584" lon="10.751453812911368"><ele>164.6</ele><time>2026-04-04T08:26:54Z</time></trkpt><trkpt lat="43.50483437778464" lon="10.75131268966305"><ele>164.2</ele><time>2026-04-04T08:26:55Z</time></trkpt><trkpt lat="43.50481784244141" lon="10.751178153610251"><ele>163.8</ele><time>2026-04-04T08:26:56Z</time></trkpt><trkpt lat="43.50480268857178" lon="10.751054714714558"><ele>163.4</ele><time>2026-04-04T08:26:57Z</time></trkpt><trkpt lat="43.50478894274426" lon="10.750942745176827"><ele>163.0</ele><time>2026-04-04T08:26:58Z</time></trkpt><trkpt lat="43.50476046441126" lon="10.750839780179213"><ele>163.0</ele><time>2026-04-04T08:26:59Z</time></trkpt><trkpt lat="43.50475462113977" lon="10.750730955547025"><ele>163.0</ele><time>2026-04-04T08:27:00Z</time></trkpt><trkpt lat="43.504735417909615" lon="10.750616035601816"><ele>163.0</ele><time>2026-04-04T08:27:01Z</time></trkpt><trkpt lat="43.504721995625815" lon="10.750495271197261"><ele>163.0</ele><time>2026-04-04T08:27:02Z</time></trkpt><trkpt lat="43.504721518783015" lon="10.750385904134353"><ele>163.0</ele><time>2026-04-04T08:27:03Z</time></trkpt><trkpt lat="43.50470706939748" lon="10.750279282133192"><ele>163.0</ele><time>2026-04-04T08:27:04Z</time></trkpt><trkpt lat="43.50468035083368" lon="10.750154667786386"><ele>162.4</ele><time>2026-04-04T08:27:05Z</time></trkpt><trkpt lat="43.504666515901725" lon="10.75002964616617"><ele>161.8</ele><time>2026-04-04T08:27:06Z</time></trkpt><trkpt lat="43.50464618065302" lon="10.749886460989297"><ele>161.2</ele><time>2026-04-04T08:27:07Z</time></trkpt><trkpt lat="43.50463862444526" lon="10.749736441440156"><ele>160.6</ele><time>2026-04-04T08:27:08Z</time></trkpt><trkpt lat="43.50460475810378" lon="10.749565243362103"><ele>160.0</ele><time>2026-04-04T08:27:09Z</time></trkpt><trkpt lat="43.50458973295161" lon="10.74940722515553"><ele>161.8</ele><time>2026-04-04T08:27:10Z</time></trkpt><trkpt lat="43.50456444887567" lon="10.749264072385653"><ele>163.6</ele><time>2026-04-04T08:27:11Z</time></trkpt><trkpt lat="43.50453817930911" lon="10.749136364925342"><ele>165.39999999999998</ele><time>2026-04-04T08:27:12Z</time></trkpt><trkpt lat="43.504502058793754" lon="10.749013732806747"><ele>167.2</ele><time>2026-04-04T08:27:13Z</time></trkpt><trkpt lat="43.50445170321346" lon="10.748891547045769"><ele>169.0</ele><time>2026-04-04T08:27:14Z</time></trkpt><trkpt lat="43.50440192596566" lon="10.748772311410363"><ele>169.0</ele><time>2026-04-04T08:27:15Z</time></trkpt><trkpt lat="43.50434460971279" lon="10.74864495964983"><ele>169.0</ele><time>2026-04-04T08:27:16Z</time></trkpt><trkpt lat="43.50428441002684" lon="10.748518326017932"><ele>169.0</ele><time>2026-04-04T08:27:17Z</time></trkpt><trkpt lat="43.504237628605445" lon="10.748380683009326"><ele>169.0</ele><time>2026-04-04T08:27:18Z</time></trkpt><trkpt lat="43.50416842020707" lon="10.748274581247404"><ele>169.0</ele><time>2026-04-04T08:27:19Z</time></trkpt><trkpt lat="43.50411944637026" lon="10.748160825342211"><ele>167.0</ele><time>2026-04-04T08:27:20Z</time></trkpt><trkpt lat="43.50407516096689" lon="10.748043453606078"><ele>165.0</ele><time>2026-04-04T08:27:21Z</time></trkpt><trkpt lat="43.5040385034166" lon="10.747908476038981"><ele>163.0</ele><time>2026-04-04T08:27:22Z</time></trkpt><trkpt lat="43.50401917211482" lon="10.747767238014864"><ele>161.0</ele><time>2026-04-04T08:27:23Z</time></trkpt><trkpt lat="43.50399897276085" lon="10.747623134070652"><ele>159.0</ele><time>2026-04-04T08:27:24Z</time></trkpt><trkpt lat="43.503975983397474" lon="10.747497680491243"><ele>158.66666666666666</ele><time>2026-04-04T08:27:25Z</time></trkpt><trkpt lat="43.50394416492621" lon="10.74738031890305"><ele>158.33333333333334</ele><time>2026-04-04T08:27:26Z</time></trkpt><trkpt lat="43.503913933879964" lon="10.74727346926144"><ele>158.0</ele><time>2026-04-04T08:27:27Z</time></trkpt><trkpt lat="43.50386752226347" lon="10.747181881787562"><ele>157.66666666666669</ele><time>2026-04-04T08:27:28Z</time></trkpt><trkpt lat="43.50380418393306" lon="10.747107245046138"><ele>157.33333333333334</ele><time>2026-04-04T08:27:29Z</time></trkpt><trkpt lat="43.5037313487319" lon="10.747048436472085"><ele>157.0</ele><time>2026-04-04T08:27:30Z</time></trkpt><trkpt lat="43.503659606865654" lon="10.747003065510725"><ele>156.99999999999997</ele><time>2026-04-04T08:27:31Z</time></trkpt><trkpt lat="43.50359248926532" lon="10.746964112979551"><ele>157.0</ele><time>2026-04-04T08:27:32Z</time></trkpt><trkpt lat="43.50353033646225" lon="10.746936367871806"><ele>157.0</ele><time>2026-04-04T08:27:33Z</time></trkpt><trkpt lat="43.50346570513821" lon="10.746914594884696"><ele>157.0</ele><time>2026-04-04T08:27:34Z</time></trkpt><trkpt lat="43.50339917809199" lon="10.74688847639385"><ele>157.0</ele><time>2026-04-04T08:27:35Z</time></trkpt><trkpt lat="43.503330822382836" lon="10.746864652110897"><ele>156.99999999999997</ele><time>2026-04-04T08:27:36Z</time></trkpt><trkpt lat="43.503257183573936" lon="10.74684832023542"><ele>157.0</ele><time>2026-04-04T08:27:37Z</time></trkpt><trkpt lat="43.50318320202372" lon="10.74681859734577"><ele>153.83333333333334</ele><time>2026-04-04T08:27:38Z</time></trkpt><trkpt lat="43.50310052485805" lon="10.746810459586861"><ele>150.66666666666669</ele><time>2026-04-04T08:27:39Z</time></trkpt><trkpt lat="43.50302427823688" lon="10.746806389047691"><ele>147.5</ele><time>2026-04-04T08:27:40Z</time></trkpt><trkpt lat="43.5029466232115" lon="10.746803940907714"><ele>144.33333333333334</ele><time>2026-04-04T08:27:41Z</time></trkpt><trkpt lat="43.5028696133266" lon="10.746801829600797"><ele>141.16666666666666</ele><time>2026-04-04T08:27:42Z</time></trkpt><trkpt lat="43.50280297243572" lon="10.746801205821443"><ele>138.0</ele><time>2026-04-04T08:27:43Z</time></trkpt><trkpt lat="43.50267122482343" lon="10.746800970410305"><ele>137.83333333333334</ele><time>2026-04-04T08:27:45Z</time></trkpt><trkpt lat="43.50259748634553" lon="10.746820867244075"><ele>137.66666666666666</ele><time>2026-04-04T08:27:46Z</time></trkpt><trkpt lat="43.50251859100531" lon="10.746813226501978"><ele>137.5</ele><time>2026-04-04T08:27:47Z</time></trkpt><trkpt lat="43.50243706972271" lon="10.746805003239581"><ele>137.33333333333331</ele><time>2026-04-04T08:27:48Z</time></trkpt><trkpt lat="43.50235079191918" lon="10.746787047289628"><ele>137.16666666666666</ele><time>2026-04-04T08:27:49Z</time></trkpt><trkpt lat="43.50225958147843" lon="10.746777149223467"><ele>137.0</ele><time>2026-04-04T08:27:50Z</time></trkpt><trkpt lat="43.502169296447555" lon="10.746767760540129"><ele>137.0</ele><time>2026-04-04T08:27:51Z</time></trkpt><trkpt lat="43.50208755452055" lon="10.746767608240834"><ele>137.0</ele><time>2026-04-04T08:27:52Z</time></trkpt><trkpt lat="43.50200194295718" lon="10.746778541900495"><ele>137.0</ele><time>2026-04-04T08:27:53Z</time></trkpt><trkpt lat="43.50193085278341" lon="10.746815979963213"><ele>137.0</ele><time>2026-04-04T08:27:54Z</time></trkpt><trkpt lat="43.50185737370471" lon="10.746872128433829"><ele>137.0</ele><time>2026-04-04T08:27:55Z</time></trkpt><trkpt lat="43.50178066512561" lon="10.746953928101085"><ele>137.0</ele><time>2026-04-04T08:27:56Z</time></trkpt><trkpt lat="43.50170196224011" lon="10.747053868749214"><ele>138.0</ele><time>2026-04-04T08:27:57Z</time></trkpt><trkpt lat="43.501619365960956" lon="10.747152922888324"><ele>139.0</ele><time>2026-04-04T08:27:58Z</time></trkpt><trkpt lat="43.50155300147982" lon="10.747263864286683"><ele>140.0</ele><time>2026-04-04T08:27:59Z</time></trkpt><trkpt lat="43.501481886345765" lon="10.747368872820257"><ele>141.0</ele><time>2026-04-04T08:28:00Z</time></trkpt><trkpt lat="43.50141306372653" lon="10.747458088831975"><ele>142.0</ele><time>2026-04-04T08:28:01Z</time></trkpt><trkpt lat="43.50133937938217" lon="10.747543743429775"><ele>142.0</ele><time>2026-04-04T08:28:02Z</time></trkpt><trkpt lat="43.501272200555064" lon="10.747653514799882"><ele>142.0</ele><time>2026-04-04T08:28:03Z</time></trkpt><trkpt lat="43.501197863887754" lon="10.747746398149037"><ele>142.0</ele><time>2026-04-04T08:28:04Z</time></trkpt><trkpt lat="43.50112898849453" lon="10.747835439687238"><ele>142.0</ele><time>2026-04-04T08:28:05Z</time></trkpt><trkpt lat="43.501115179632144" lon="10.74797375854052"><ele>142.0</ele><time>2026-04-04T08:28:06Z</time></trkpt><trkpt lat="43.50110292205482" lon="10.748096796275302"><ele>138.2</ele><time>2026-04-04T08:28:07Z</time></trkpt><trkpt lat="43.50108140411848" lon="10.748182600163206"><ele>134.39999999999998</ele><time>2026-04-04T08:28:08Z</time></trkpt><trkpt lat="43.501003969522536" lon="10.748321720186448"><ele>130.60000000000002</ele><time>2026-04-04T08:28:10Z</time></trkpt><trkpt lat="43.50089265005173" lon="10.748282375663912"><ele>126.80000000000001</ele><time>2026-04-04T08:28:11Z</time></trkpt><trkpt lat="43.50077946477218" lon="10.748278135264844"><ele>123.0</ele><time>2026-04-04T08:28:12Z</time></trkpt><trkpt lat="43.50068326841087" lon="10.748286339051301"><ele>123.0</ele><time>2026-04-04T08:28:13Z</time></trkpt><trkpt lat="43.50061326969049" lon="10.748223133311527"><ele>123.0</ele><time>2026-04-04T08:28:14Z</time></trkpt><trkpt lat="43.5005566136384" lon="10.748178459559877"><ele>123.0</ele><time>2026-04-04T08:28:15Z</time></trkpt><trkpt lat="43.500541729057936" lon="10.748078943545403"><ele>123.0</ele><time>2026-04-04T08:28:16Z</time></trkpt><trkpt lat="43.500567484679685" lon="10.74796159917706"><ele>123.0</ele><time>2026-04-04T08:28:17Z</time></trkpt><trkpt lat="43.50062278789807" lon="10.7478448976258"><ele>123.0</ele><time>2026-04-04T08:28:18Z</time></trkpt><trkpt lat="43.500717410878444" lon="10.747731525099688"><ele>122.60000000000001</ele><time>2026-04-04T08:28:19Z</time></trkpt><trkpt lat="43.500805964555056" lon="10.747618243301513"><ele>122.20000000000002</ele><time>2026-04-04T08:28:20Z</time></trkpt><trkpt lat="43.50087900151868" lon="10.747490348173187"><ele>121.8</ele><time>2026-04-04T08:28:22Z</time></trkpt><trkpt lat="43.500847010949514" lon="10.747391509421234"><ele>121.4</ele><time>2026-04-04T08:28:23Z</time></trkpt><trkpt lat="43.50079960730799" lon="10.747324044798647"><ele>121.0</ele><time>2026-04-04T08:28:24Z</time></trkpt><trkpt lat="43.50073238585781" lon="10.74728580080591"><ele>121.0</ele><time>2026-04-04T08:28:25Z</time></trkpt><trkpt lat="43.500645172825905" lon="10.74729911961924"><ele>121.0</ele><time>2026-04-04T08:28:26Z</time></trkpt><trkpt lat="43.500536984708795" lon="10.747326598960317"><ele>121.0</ele><time>2026-04-04T08:28:27Z</time></trkpt><trkpt lat="43.50042351844339" lon="10.747331304408402"><ele>121.0</ele><time>2026-04-04T08:28:28Z</time></trkpt><trkpt lat="43.500330954650266" lon="10.747328896193094"><ele>121.0</ele><time>2026-04-04T08:28:29Z</time></trkpt><trkpt lat="43.50024811858728" lon="10.747318150204196"><ele>117.5</ele><time>2026-04-04T08:28:30Z</time></trkpt><trkpt lat="43.50019303020566" lon="10.74721008341315"><ele>114.0</ele><time>2026-04-04T08:28:31Z</time></trkpt><trkpt lat="43.5001334035128" lon="10.747077568186361"><ele>110.5</ele><time>2026-04-04T08:28:32Z</time></trkpt><trkpt lat="43.50006950178663" lon="10.746924410915046"><ele>107.0</ele><time>2026-04-04T08:28:33Z</time></trkpt><trkpt lat="43.499997009258806" lon="10.746787454909661"><ele>107.0</ele><time>2026-04-04T08:28:34Z</time></trkpt><trkpt lat="43.499937931234065" lon="10.746641065335389"><ele>107.0</ele><time>2026-04-04T08:28:35Z</time></trkpt><trkpt lat="43.49988123253313" lon="10.746498390920173"><ele>107.0</ele><time>2026-04-04T08:28:36Z</time></trkpt><trkpt lat="43.49982632202861" lon="10.746363419508238"><ele>107.0</ele><time>2026-04-04T08:28:37Z</time></trkpt><trkpt lat="43.4997662413959" lon="10.746225407351506"><ele>107.0</ele><time>2026-04-04T08:28:38Z</time></trkpt><trkpt lat="43.49970750968899" lon="10.746082736306766"><ele>106.99999999999999</ele><time>2026-04-04T08:28:39Z</time></trkpt><trkpt lat="43.499650403689564" lon="10.745948473830751"><ele>106.99999999999999</ele><time>2026-04-04T08:28:40Z</time></trkpt><trkpt lat="43.499598093730484" lon="10.7458248948671"><ele>107.0</ele><time>2026-04-04T08:28:41Z</time></trkpt><trkpt lat="43.49954808886382" lon="10.745701341663043"><ele>107.0</ele><time>2026-04-04T08:28:42Z</time></trkpt><trkpt lat="43.499501266747714" lon="10.74558610299672"><ele>106.33333333333333</ele><time>2026-04-04T08:28:43Z</time></trkpt><trkpt lat="43.49945592900383" lon="10.745479944452457"><ele>105.66666666666666</ele><time>2026-04-04T08:28:43.999Z</time></trkpt><trkpt lat="43.49941433614582" lon="10.745384311723445"><ele>105.0</ele><time>2026-04-04T08:28:44.999Z</time></trkpt><trkpt lat="43.49936457557728" lon="10.745309208770049"><ele>104.33333333333334</ele><time>2026-04-04T08:28:45.999Z</time></trkpt><trkpt lat="43.49930513645421" lon="10.745245940017767"><ele>103.66666666666667</ele><time>2026-04-04T08:28:46.999Z</time></trkpt><trkpt lat="43.49923460975228" lon="10.745216655447186"><ele>103.0</ele><time>2026-04-04T08:28:47.999Z</time></trkpt><trkpt lat="43.49916069991585" lon="10.745225602050429"><ele>103.00000000000001</ele><time>2026-04-04T08:28:49Z</time></trkpt><trkpt lat="43.49908745397166" lon="10.745251636097377"><ele>103.0</ele><time>2026-04-04T08:28:50Z</time></trkpt><trkpt lat="43.49902754910958" lon="10.745339460745994"><ele>103.0</ele><time>2026-04-04T08:28:51Z</time></trkpt><trkpt lat="43.4989932109035" lon="10.745447580793417"><ele>103.0</ele><time>2026-04-04T08:28:52Z</time></trkpt><trkpt lat="43.49898325844519" lon="10.745557800955492"><ele>103.00000000000001</ele><time>2026-04-04T08:28:53Z</time></trkpt><trkpt lat="43.49901433557805" lon="10.745672919574144"><ele>103.0</ele><time>2026-04-04T08:28:54Z</time></trkpt><trkpt lat="43.49904078717134" lon="10.745793692739012"><ele>103.0</ele><time>2026-04-04T08:28:55Z</time></trkpt><trkpt lat="43.499064534332355" lon="10.74588551643649"><ele>103.0</ele><time>2026-04-04T08:28:56Z</time></trkpt><trkpt lat="43.49909665137243" lon="10.746020476086898"><ele>103.0</ele><time>2026-04-04T08:28:57Z</time></trkpt><trkpt lat="43.49912100781801" lon="10.746161331160414"><ele>103.0</ele><time>2026-04-04T08:28:58Z</time></trkpt><trkpt lat="43.49913227833423" lon="10.74631451897492"><ele>103.0</ele><time>2026-04-04T08:28:59Z</time></trkpt><trkpt lat="43.49913165204999" lon="10.746466152361961"><ele>101.80000000000001</ele><time>2026-04-04T08:29:00Z</time></trkpt><trkpt lat="43.499134735797206" lon="10.746611668459606"><ele>100.6</ele><time>2026-04-04T08:29:01Z</time></trkpt><trkpt lat="43.49914870380314" lon="10.74673084595102"><ele>99.4</ele><time>2026-04-04T08:29:02Z</time></trkpt><trkpt lat="43.49918803467217" lon="10.746836106228951"><ele>98.19999999999999</ele><time>2026-04-04T08:29:03Z</time></trkpt><trkpt lat="43.49926442067664" lon="10.746913479890619"><ele>97.0</ele><time>2026-04-04T08:29:04Z</time></trkpt><trkpt lat="43.49938314301857" lon="10.747015275869236"><ele>98.8</ele><time>2026-04-04T08:29:05Z</time></trkpt><trkpt lat="43.49949664014635" lon="10.747123973614304"><ele>100.6</ele><time>2026-04-04T08:29:06Z</time></trkpt><trkpt lat="43.49958565744456" lon="10.747225751337647"><ele>102.39999999999999</ele><time>2026-04-04T08:29:07Z</time></trkpt><trkpt lat="43.4996527942038" lon="10.7473269565655"><ele>104.19999999999999</ele><time>2026-04-04T08:29:08Z</time></trkpt><trkpt lat="43.49971123113781" lon="10.747417439490665"><ele>106.0</ele><time>2026-04-04T08:29:09Z</time></trkpt><trkpt lat="43.499755717104016" lon="10.747506045838778"><ele>106.0</ele><time>2026-04-04T08:29:10Z</time></trkpt><trkpt lat="43.499741088381974" lon="10.747601232643317"><ele>106.0</ele><time>2026-04-04T08:29:11Z</time></trkpt><trkpt lat="43.49968880479207" lon="10.74772880614359"><ele>106.0</ele><time>2026-04-04T08:29:12Z</time></trkpt><trkpt lat="43.49967908227739" lon="10.747863582736311"><ele>106.0</ele><time>2026-04-04T08:29:13Z</time></trkpt><trkpt lat="43.499685181997556" lon="10.747988449054764"><ele>106.0</ele><time>2026-04-04T08:29:14Z</time></trkpt><trkpt lat="43.49960457546201" lon="10.748127824637603"><ele>100.5</ele><time>2026-04-04T08:29:16Z</time></trkpt><trkpt lat="43.49947068887604" lon="10.748114181430259"><ele>95.0</ele><time>2026-04-04T08:29:17Z</time></trkpt><trkpt lat="43.499327956562006" lon="10.748196103585045"><ele>89.5</ele><time>2026-04-04T08:29:18Z</time></trkpt><trkpt lat="43.49920440099073" lon="10.74824891361322"><ele>84.0</ele><time>2026-04-04T08:29:19Z</time></trkpt><trkpt lat="43.49910928305882" lon="10.748304271892946"><ele>84.0</ele><time>2026-04-04T08:29:20Z</time></trkpt><trkpt lat="43.499030639626156" lon="10.748357146693296"><ele>84.0</ele><time>2026-04-04T08:29:21Z</time></trkpt><trkpt lat="43.49897233986036" lon="10.748436024433456"><ele>84.0</ele><time>2026-04-04T08:29:22Z</time></trkpt><trkpt lat="43.498942674526745" lon="10.74854014531417"><ele>84.0</ele><time>2026-04-04T08:29:23Z</time></trkpt><trkpt lat="43.49894172253383" lon="10.748669811269705"><ele>84.0</ele><time>2026-04-04T08:29:24Z</time></trkpt><trkpt lat="43.49894337640992" lon="10.748815256323013"><ele>83.66666666666667</ele><time>2026-04-04T08:29:25Z</time></trkpt><trkpt lat="43.49894135879345" lon="10.748936409099217"><ele>83.33333333333333</ele><time>2026-04-04T08:29:26Z</time></trkpt><trkpt lat="43.498923757307466" lon="10.749025885514774"><ele>83.0</ele><time>2026-04-04T08:29:27Z</time></trkpt><trkpt lat="43.49883263984119" lon="10.749072271084946"><ele>82.66666666666666</ele><time>2026-04-04T08:29:29Z</time></trkpt><trkpt lat="43.49878257509249" lon="10.748979344968495"><ele>82.33333333333333</ele><time>2026-04-04T08:29:30Z</time></trkpt><trkpt lat="43.49875849999279" lon="10.748846495257709"><ele>82.0</ele><time>2026-04-04T08:29:31Z</time></trkpt><trkpt lat="43.49870037819646" lon="10.748666239422587"><ele>79.39999999999999</ele><time>2026-04-04T08:29:32Z</time></trkpt><trkpt lat="43.498642190259936" lon="10.748501671105533"><ele>76.8</ele><time>2026-04-04T08:29:33Z</time></trkpt><trkpt lat="43.498596616260606" lon="10.748363209806374"><ele>74.2</ele><time>2026-04-04T08:29:34Z</time></trkpt><trkpt lat="43.49855293050611" lon="10.748239019391676"><ele>71.6</ele><time>2026-04-04T08:29:35Z</time></trkpt><trkpt lat="43.49851672591518" lon="10.74811627687078"><ele>69.0</ele><time>2026-04-04T08:29:36Z</time></trkpt><trkpt lat="43.49847786050307" lon="10.748002621802122"><ele>69.0</ele><time>2026-04-04T08:29:37Z</time></trkpt><trkpt lat="43.49842280400615" lon="10.747907346922094"><ele>69.0</ele><time>2026-04-04T08:29:38Z</time></trkpt><trkpt lat="43.49834097419047" lon="10.747840707468301"><ele>69.0</ele><time>2026-04-04T08:29:39Z</time></trkpt><trkpt lat="43.498248596733944" lon="10.74782958579181"><ele>69.0</ele><time>2026-04-04T08:29:40Z</time></trkpt><trkpt lat="43.498166666628805" lon="10.747869827826156"><ele>69.0</ele><time>2026-04-04T08:29:41Z</time></trkpt><trkpt lat="43.49807173143403" lon="10.747924540869572"><ele>69.0</ele><time>2026-04-04T08:29:42Z</time></trkpt><trkpt lat="43.49795352735859" lon="10.747951218736057"><ele>69.0</ele><time>2026-04-04T08:29:43Z</time></trkpt><trkpt lat="43.49783900121945" lon="10.747984193646966"><ele>69.0</ele><time>2026-04-04T08:29:44Z</time></trkpt><trkpt lat="43.49773137806087" lon="10.747995931290449"><ele>69.0</ele><time>2026-04-04T08:29:45Z</time></trkpt><trkpt lat="43.49763073832114" lon="10.748000297612888"><ele>69.0</ele><time>2026-04-04T08:29:46Z</time></trkpt><trkpt lat="43.49754421274014" lon="10.748024121568806"><ele>68.28571428571429</ele><time>2026-04-04T08:29:47Z</time></trkpt><trkpt lat="43.497469634046155" lon="10.748008528713356"><ele>67.57142857142858</ele><time>2026-04-04T08:29:48Z</time></trkpt><trkpt lat="43.49739455073769" lon="10.747990456051406"><ele>66.85714285714286</ele><time>2026-04-04T08:29:49Z</time></trkpt><trkpt lat="43.497327079569885" lon="10.747948789581221"><ele>66.14285714285714</ele><time>2026-04-04T08:29:50Z</time></trkpt><trkpt lat="43.49726629531617" lon="10.747893760681386"><ele>65.42857142857142</ele><time>2026-04-04T08:29:51Z</time></trkpt><trkpt lat="43.49722211967508" lon="10.74781590890926"><ele>64.71428571428571</ele><time>2026-04-04T08:29:52Z</time></trkpt><trkpt lat="43.497210419862014" lon="10.747725683518588"><ele>64.0</ele><time>2026-04-04T08:29:53Z</time></trkpt><trkpt lat="43.49724218387045" lon="10.74762734963078"><ele>63.99999999999999</ele><time>2026-04-04T08:29:54Z</time></trkpt><trkpt lat="43.49729358709975" lon="10.747535530077926"><ele>64.0</ele><time>2026-04-04T08:29:55Z</time></trkpt><trkpt lat="43.4973462237315" lon="10.747423474446268"><ele>64.0</ele><time>2026-04-04T08:29:56Z</time></trkpt><trkpt lat="43.49736942764528" lon="10.747299415995727"><ele>64.0</ele><time>2026-04-04T08:29:57Z</time></trkpt><trkpt lat="43.49735703598225" lon="10.747189255897979"><ele>63.99999999999999</ele><time>2026-04-04T08:29:58Z</time></trkpt><trkpt lat="43.49732775554534" lon="10.7470877151062"><ele>64.0</ele><time>2026-04-04T08:29:59Z</time></trkpt><trkpt lat="43.4972928090755" lon="10.746982862647004"><ele>64.0</ele><time>2026-04-04T08:30:00Z</time></trkpt><trkpt lat="43.497244590231766" lon="10.746879303488285"><ele>64.0</ele><time>2026-04-04T08:30:01Z</time></trkpt><trkpt lat="43.497176222777334" lon="10.746778217108096"><ele>64.0</ele><time>2026-04-04T08:30:02Z</time></trkpt><trkpt lat="43.4970999648154" lon="10.746678985576528"><ele>64.0</ele><time>2026-04-04T08:30:03Z</time></trkpt><trkpt lat="43.49702378233868" lon="10.746572473607678"><ele>64.0</ele><time>2026-04-04T08:30:04Z</time></trkpt><trkpt lat="43.49694913769899" lon="10.746461172219034"><ele>63.400000000000006</ele><time>2026-04-04T08:30:05Z</time></trkpt><trkpt lat="43.49687265528233" lon="10.746347769835747"><ele>62.800000000000004</ele><time>2026-04-04T08:30:06Z</time></trkpt><trkpt lat="43.49679269447402" lon="10.746237843597417"><ele>62.199999999999996</ele><time>2026-04-04T08:30:07Z</time></trkpt><trkpt lat="43.496737736122135" lon="10.74611913971667"><ele>61.599999999999994</ele><time>2026-04-04T08:30:08Z</time></trkpt><trkpt lat="43.49667697997894" lon="10.746014883800083"><ele>61.0</ele><time>2026-04-04T08:30:09Z</time></trkpt><trkpt lat="43.496663403591015" lon="10.745863201365315"><ele>61.0</ele><time>2026-04-04T08:30:10Z</time></trkpt><trkpt lat="43.49668096112808" lon="10.745695418386692"><ele>61.0</ele><time>2026-04-04T08:30:11Z</time></trkpt><trkpt lat="43.49667156917313" lon="10.745532454978585"><ele>61.0</ele><time>2026-04-04T08:30:12Z</time></trkpt><trkpt lat="43.49660251565245" lon="10.745365253993194"><ele>61.0</ele><time>2026-04-04T08:30:13Z</time></trkpt><trkpt lat="43.496508449990685" lon="10.745201018770986"><ele>61.0</ele><time>2026-04-04T08:30:14Z</time></trkpt><trkpt lat="43.496437965283064" lon="10.745017659114971"><ele>61.0</ele><time>2026-04-04T08:30:15Z</time></trkpt><trkpt lat="43.496383358403556" lon="10.74485112956407"><ele>61.0</ele><time>2026-04-04T08:30:16Z</time></trkpt><trkpt lat="43.49633270355647" lon="10.74468745172032"><ele>61.0</ele><time>2026-04-04T08:30:17Z</time></trkpt><trkpt lat="43.496301108823346" lon="10.7445171496281"><ele>60.5</ele><time>2026-04-04T08:30:18Z</time></trkpt><trkpt lat="43.49625236446589" lon="10.744359639336068"><ele>60.0</ele><time>2026-04-04T08:30:19Z</time></trkpt><trkpt lat="43.49619577616462" lon="10.744217317577366"><ele>59.5</ele><time>2026-04-04T08:30:20Z</time></trkpt><trkpt lat="43.49614254064306" lon="10.744082262317754"><ele>59.0</ele><time>2026-04-04T08:30:21Z</time></trkpt><trkpt lat="43.49611683932348" lon="10.743939215733716"><ele>59.0</ele><time>2026-04-04T08:30:22Z</time></trkpt><trkpt lat="43.49607640031952" lon="10.743805940564599"><ele>59.0</ele><time>2026-04-04T08:30:23Z</time></trkpt><trkpt lat="43.49605932881981" lon="10.743657017847392"><ele>59.0</ele><time>2026-04-04T08:30:24Z</time></trkpt><trkpt lat="43.49602611293437" lon="10.74350365324456"><ele>59.0</ele><time>2026-04-04T08:30:25Z</time></trkpt><trkpt lat="43.49597035747942" lon="10.743355612740903"><ele>59.5</ele><time>2026-04-04T08:30:26Z</time></trkpt><trkpt lat="43.49588679930733" lon="10.74322056702033"><ele>60.0</ele><time>2026-04-04T08:30:27Z</time></trkpt><trkpt lat="43.49578862645263" lon="10.743091036037708"><ele>60.5</ele><time>2026-04-04T08:30:28Z</time></trkpt><trkpt lat="43.49569798583047" lon="10.742971197468247"><ele>61.0</ele><time>2026-04-04T08:30:29Z</time></trkpt><trkpt lat="43.49561573827771" lon="10.742868702575123"><ele>61.0</ele><time>2026-04-04T08:30:30Z</time></trkpt><trkpt lat="43.495529795411024" lon="10.742797751099"><ele>61.0</ele><time>2026-04-04T08:30:31Z</time></trkpt><trkpt lat="43.495427287598716" lon="10.742752424674775"><ele>61.0</ele><time>2026-04-04T08:30:32Z</time></trkpt><trkpt lat="43.4952998011999" lon="10.742824615934973"><ele>61.0</ele><time>2026-04-04T08:30:33Z</time></trkpt><trkpt lat="43.49517723749655" lon="10.742912682729774"><ele>60.8</ele><time>2026-04-04T08:30:34Z</time></trkpt><trkpt lat="43.495058526579356" lon="10.74297492930486"><ele>60.599999999999994</ele><time>2026-04-04T08:30:35Z</time></trkpt><trkpt lat="43.494962326013756" lon="10.74301730514499"><ele>60.4</ele><time>2026-04-04T08:30:36Z</time></trkpt><trkpt lat="43.49486449991914" lon="10.743010029615238"><ele>60.2</ele><time>2026-04-04T08:30:37Z</time></trkpt><trkpt lat="43.494765492538704" lon="10.74294597896027"><ele>60.0</ele><time>2026-04-04T08:30:38Z</time></trkpt><trkpt lat="43.49466124005476" lon="10.742836530070237"><ele>59.75</ele><time>2026-04-04T08:30:39Z</time></trkpt><trkpt lat="43.49456186167862" lon="10.742703168547024"><ele>59.5</ele><time>2026-04-04T08:30:40Z</time></trkpt><trkpt lat="43.494462406077986" lon="10.74259530933193"><ele>59.25</ele><time>2026-04-04T08:30:41Z</time></trkpt><trkpt lat="43.4943720981088" lon="10.742506090832022"><ele>59.0</ele><time>2026-04-04T08:30:42Z</time></trkpt><trkpt lat="43.49426960106717" lon="10.742451234761699"><ele>59.0</ele><time>2026-04-04T08:30:43Z</time></trkpt><trkpt lat="43.49416791212296" lon="10.742424752969567"><ele>59.00000000000001</ele><time>2026-04-04T08:30:44Z</time></trkpt><trkpt lat="43.494062074317384" lon="10.742422133266302"><ele>59.00000000000001</ele><time>2026-04-04T08:30:45Z</time></trkpt><trkpt lat="43.49396465730599" lon="10.74245654680117"><ele>59.0</ele><time>2026-04-04T08:30:46Z</time></trkpt><trkpt lat="43.49388186781605" lon="10.742531847771016"><ele>59.0</ele><time>2026-04-04T08:30:47Z</time></trkpt><trkpt lat="43.49381845575842" lon="10.742644819057869"><ele>59.00000000000001</ele><time>2026-04-04T08:30:48Z</time></trkpt><trkpt lat="43.49377279944122" lon="10.742776066506607"><ele>59.0</ele><time>2026-04-04T08:30:49Z</time></trkpt><trkpt lat="43.49371419236887" lon="10.742877274396506"><ele>59.0</ele><time>2026-04-04T08:30:49.999Z</time></trkpt><trkpt lat="43.493676227270655" lon="10.742970512015498"><ele>59.0</ele><time>2026-04-04T08:30:50.999Z</time></trkpt><trkpt lat="43.49364050527529" lon="10.743043652958052"><ele>59.00000000000001</ele><time>2026-04-04T08:30:51.999Z</time></trkpt><trkpt lat="43.49359486661962" lon="10.743105530562902"><ele>59.0</ele><time>2026-04-04T08:30:52.999Z</time></trkpt><trkpt lat="43.49353583846313" lon="10.743145390633302"><ele>58.857142857142854</ele><time>2026-04-04T08:30:53.999Z</time></trkpt><trkpt lat="43.49347006646165" lon="10.743156455378177"><ele>58.71428571428572</ele><time>2026-04-04T08:30:55Z</time></trkpt><trkpt lat="43.493410507289305" lon="10.743121198616038"><ele>58.57142857142858</ele><time>2026-04-04T08:30:56Z</time></trkpt><trkpt lat="43.493340922606386" lon="10.743092935824194"><ele>58.42857142857143</ele><time>2026-04-04T08:30:57Z</time></trkpt><trkpt lat="43.49332294173154" lon="10.742973089119635"><ele>58.28571428571429</ele><time>2026-04-04T08:30:58Z</time></trkpt><trkpt lat="43.493285560815664" lon="10.742890903586916"><ele>58.14285714285715</ele><time>2026-04-04T08:30:59Z</time></trkpt><trkpt lat="43.49323354399448" lon="10.742815525855962"><ele>58.00000000000001</ele><time>2026-04-04T08:31:00Z</time></trkpt><trkpt lat="43.493188097174624" lon="10.742727996241666"><ele>58.599999999999994</ele><time>2026-04-04T08:31:01Z</time></trkpt><trkpt lat="43.49315938065027" lon="10.742632058173461"><ele>59.199999999999996</ele><time>2026-04-04T08:31:02Z</time></trkpt><trkpt lat="43.49311810636233" lon="10.742544429598272"><ele>59.8</ele><time>2026-04-04T08:31:03Z</time></trkpt><trkpt lat="43.49306436530491" lon="10.742404469335664"><ele>60.4</ele><time>2026-04-04T08:31:05Z</time></trkpt><trkpt lat="43.49305986206438" lon="10.742238955546929"><ele>61.0</ele><time>2026-04-04T08:31:07Z</time></trkpt><trkpt lat="43.49310389292579" lon="10.742135723624763"><ele>60.99999999999999</ele><time>2026-04-04T08:31:08Z</time></trkpt><trkpt lat="43.49314311605113" lon="10.742024340252575"><ele>61.0</ele><time>2026-04-04T08:31:09Z</time></trkpt><trkpt lat="43.49315279361221" lon="10.741929224007148"><ele>61.0</ele><time>2026-04-04T08:31:10Z</time></trkpt><trkpt lat="43.49312978832783" lon="10.741840475878076"><ele>61.0</ele><time>2026-04-04T08:31:11Z</time></trkpt><trkpt lat="43.49308115856695" lon="10.741765131130235"><ele>60.99999999999999</ele><time>2026-04-04T08:31:12Z</time></trkpt><trkpt lat="43.49301688692215" lon="10.741707746057301"><ele>61.0</ele><time>2026-04-04T08:31:13Z</time></trkpt><trkpt lat="43.49295947992642" lon="10.74163557378183"><ele>61.99999999999999</ele><time>2026-04-04T08:31:14Z</time></trkpt><trkpt lat="43.49288612875843" lon="10.741591328806749"><ele>63.0</ele><time>2026-04-04T08:31:15Z</time></trkpt><trkpt lat="43.49282067092385" lon="10.741557791438275"><ele>64.0</ele><time>2026-04-04T08:31:16Z</time></trkpt><trkpt lat="43.492746788358716" lon="10.741521290134525"><ele>65.0</ele><time>2026-04-04T08:31:17Z</time></trkpt><trkpt lat="43.49267016490315" lon="10.741484148094372"><ele>66.0</ele><time>2026-04-04T08:31:18Z</time></trkpt><trkpt lat="43.49259756297206" lon="10.741445171602859"><ele>67.0</ele><time>2026-04-04T08:31:19Z</time></trkpt><trkpt lat="43.49253062797264" lon="10.741406403282104"><ele>67.0</ele><time>2026-04-04T08:31:20Z</time></trkpt><trkpt lat="43.49246804130935" lon="10.741366807046106"><ele>67.0</ele><time>2026-04-04T08:31:21Z</time></trkpt><trkpt lat="43.492403549386175" lon="10.741323271585676"><ele>67.0</ele><time>2026-04-04T08:31:22Z</time></trkpt><trkpt lat="43.49233801635077" lon="10.741276643801639"><ele>67.0</ele><time>2026-04-04T08:31:23Z</time></trkpt><trkpt lat="43.49226816593529" lon="10.741226418292245"><ele>67.0</ele><time>2026-04-04T08:31:24Z</time></trkpt><trkpt lat="43.49219909731954" lon="10.741175856301947"><ele>67.0</ele><time>2026-04-04T08:31:25Z</time></trkpt><trkpt lat="43.492124254801865" lon="10.741120827125952"><ele>66.83333333333333</ele><time>2026-04-04T08:31:26Z</time></trkpt><trkpt lat="43.49205440427466" lon="10.74106946838527"><ele>66.66666666666666</ele><time>2026-04-04T08:31:27Z</time></trkpt><trkpt lat="43.49198131439727" lon="10.74101572785314"><ele>66.5</ele><time>2026-04-04T08:31:28Z</time></trkpt><trkpt lat="43.491906273104235" lon="10.740960426575226"><ele>66.33333333333333</ele><time>2026-04-04T08:31:29Z</time></trkpt><trkpt lat="43.491832236175874" lon="10.740905688938835"><ele>66.16666666666667</ele><time>2026-04-04T08:31:30Z</time></trkpt><trkpt lat="43.49175847888082" lon="10.740851158045405"><ele>66.0</ele><time>2026-04-04T08:31:31Z</time></trkpt><trkpt lat="43.49168850137106" lon="10.740799516284204"><ele>66.33333333333333</ele><time>2026-04-04T08:31:32Z</time></trkpt><trkpt lat="43.491629757780686" lon="10.74075683244866"><ele>66.66666666666667</ele><time>2026-04-04T08:31:33Z</time></trkpt><trkpt lat="43.491520440498405" lon="10.740677401128218"><ele>67.0</ele><time>2026-04-04T08:31:35Z</time></trkpt><trkpt lat="43.49143550344562" lon="10.740615684787844"><ele>67.33333333333334</ele><time>2026-04-04T08:31:37Z</time></trkpt><trkpt lat="43.49137425079972" lon="10.740571177819335"><ele>67.66666666666667</ele><time>2026-04-04T08:31:39Z</time></trkpt><trkpt lat="43.49129527479713" lon="10.740535832839354"><ele>68.0</ele><time>2026-04-04T08:31:42Z</time></trkpt><trkpt lat="43.49123330555748" lon="10.740462343643124"><ele>68.5</ele><time>2026-04-04T08:31:44Z</time></trkpt><trkpt lat="43.491160136629624" lon="10.740379770516423"><ele>69.0</ele><time>2026-04-04T08:31:47Z</time></trkpt><trkpt lat="43.49100951696819" lon="10.740542875412856"><ele>69.5</ele><time>2026-04-04T08:31:49Z</time></trkpt><trkpt lat="43.49093698302837" lon="10.740642298637809"><ele>70.0</ele><time>2026-04-04T08:31:50Z</time></trkpt><trkpt lat="43.49085814529249" lon="10.740751116818311"><ele>70.0</ele><time>2026-04-04T08:31:51Z</time></trkpt><trkpt lat="43.49077210368905" lon="10.74086410645754"><ele>70.0</ele><time>2026-04-04T08:31:52Z</time></trkpt><trkpt lat="43.49068160700145" lon="10.740974508995972"><ele>70.0</ele><time>2026-04-04T08:31:53Z</time></trkpt><trkpt lat="43.4905943573377" lon="10.741105446924879"><ele>70.0</ele><time>2026-04-04T08:31:54Z</time></trkpt><trkpt lat="43.49048030916898" lon="10.741237232278706"><ele>70.5</ele><time>2026-04-04T08:31:55Z</time></trkpt><trkpt lat="43.490371229809874" lon="10.741349368527848"><ele>71.0</ele><time>2026-04-04T08:31:56Z</time></trkpt><trkpt lat="43.49024878792018" lon="10.741441075550402"><ele>71.5</ele><time>2026-04-04T08:31:57Z</time></trkpt><trkpt lat="43.49013330574482" lon="10.74153818149406"><ele>72.0</ele><time>2026-04-04T08:31:58Z</time></trkpt><trkpt lat="43.49002163249852" lon="10.741651491434341"><ele>72.0</ele><time>2026-04-04T08:31:59Z</time></trkpt><trkpt lat="43.489895626907874" lon="10.741736878463069"><ele>72.0</ele><time>2026-04-04T08:32:00Z</time></trkpt><trkpt lat="43.48976723742372" lon="10.741820334351456"><ele>72.0</ele><time>2026-04-04T08:32:01Z</time></trkpt><trkpt lat="43.489632913200104" lon="10.7419060424256"><ele>72.0</ele><time>2026-04-04T08:32:02Z</time></trkpt><trkpt lat="43.489480562416254" lon="10.742002101096748"><ele>71.33333333333333</ele><time>2026-04-04T08:32:03Z</time></trkpt><trkpt lat="43.489308748066776" lon="10.74211454242464"><ele>70.66666666666666</ele><time>2026-04-04T08:32:04Z</time></trkpt><trkpt lat="43.48912603554491" lon="10.74223805441483"><ele>70.0</ele><time>2026-04-04T08:32:05Z</time></trkpt><trkpt lat="43.48896098757916" lon="10.742338042189473"><ele>70.0</ele><time>2026-04-04T08:32:06Z</time></trkpt><trkpt lat="43.48882381578646" lon="10.742456271443405"><ele>70.0</ele><time>2026-04-04T08:32:07Z</time></trkpt><trkpt lat="43.48870406137811" lon="10.742573504028195"><ele>70.0</ele><time>2026-04-04T08:32:08Z</time></trkpt><trkpt lat="43.48859934664055" lon="10.742685419682136"><ele>70.0</ele><time>2026-04-04T08:32:09Z</time></trkpt><trkpt lat="43.48849009573473" lon="10.742806589355858"><ele>70.25</ele><time>2026-04-04T08:32:10Z</time></trkpt><trkpt lat="43.4883921040951" lon="10.742957195937096"><ele>70.5</ele><time>2026-04-04T08:32:11Z</time></trkpt><trkpt lat="43.48829060228588" lon="10.743102042162159"><ele>70.75</ele><time>2026-04-04T08:32:12Z</time></trkpt><trkpt lat="43.488195127826735" lon="10.74325434664748"><ele>71.0</ele><time>2026-04-04T08:32:13Z</time></trkpt><trkpt lat="43.48810350687576" lon="10.743419232526813"><ele>69.66666666666667</ele><time>2026-04-04T08:32:14Z</time></trkpt><trkpt lat="43.488012453519616" lon="10.743598270369432"><ele>68.33333333333333</ele><time>2026-04-04T08:32:15Z</time></trkpt><trkpt lat="43.48790876861303" lon="10.743770325368526"><ele>67.0</ele><time>2026-04-04T08:32:16Z</time></trkpt><trkpt lat="43.487836782592716" lon="10.743969886559784"><ele>68.0</ele><time>2026-04-04T08:32:17Z</time></trkpt><trkpt lat="43.487747910103245" lon="10.744156717577628"><ele>69.0</ele><time>2026-04-04T08:32:18Z</time></trkpt><trkpt lat="43.48765692506514" lon="10.744346011202568"><ele>70.0</ele><time>2026-04-04T08:32:19Z</time></trkpt><trkpt lat="43.48756123177434" lon="10.744539176094735"><ele>70.0</ele><time>2026-04-04T08:32:20Z</time></trkpt><trkpt lat="43.48745891115161" lon="10.74472314378341"><ele>70.0</ele><time>2026-04-04T08:32:21Z</time></trkpt><trkpt lat="43.48734581678893" lon="10.744906918304098"><ele>70.0</ele><time>2026-04-04T08:32:22Z</time></trkpt><trkpt lat="43.48723017765436" lon="10.74508368178723"><ele>69.66666666666666</ele><time>2026-04-04T08:32:23Z</time></trkpt><trkpt lat="43.487108772724035" lon="10.745254502903306"><ele>69.33333333333333</ele><time>2026-04-04T08:32:24Z</time></trkpt><trkpt lat="43.48697609523144" lon="10.745409697790091"><ele>69.0</ele><time>2026-04-04T08:32:25Z</time></trkpt><trkpt lat="43.48682722179008" lon="10.74553909695567"><ele>68.66666666666667</ele><time>2026-04-04T08:32:26Z</time></trkpt><trkpt lat="43.48668494594293" lon="10.745671566452575"><ele>68.33333333333334</ele><time>2026-04-04T08:32:27Z</time></trkpt><trkpt lat="43.48653594895379" lon="10.745796411690288"><ele>68.0</ele><time>2026-04-04T08:32:28Z</time></trkpt><trkpt lat="43.48638774991066" lon="10.745908662521902"><ele>68.0</ele><time>2026-04-04T08:32:29Z</time></trkpt><trkpt lat="43.48624556899692" lon="10.746044088507634"><ele>68.0</ele><time>2026-04-04T08:32:30Z</time></trkpt><trkpt lat="43.486092431940016" lon="10.746139501826176"><ele>68.0</ele><time>2026-04-04T08:32:31Z</time></trkpt><trkpt lat="43.485950896396915" lon="10.746260834953187"><ele>68.0</ele><time>2026-04-04T08:32:32Z</time></trkpt><trkpt lat="43.485829421739695" lon="10.746412832028561"><ele>68.0</ele><time>2026-04-04T08:32:33Z</time></trkpt><trkpt lat="43.48571018538228" lon="10.746558483831699"><ele>68.0</ele><time>2026-04-04T08:32:34Z</time></trkpt><trkpt lat="43.48558895358539" lon="10.746704812679392"><ele>67.33333333333334</ele><time>2026-04-04T08:32:35Z</time></trkpt><trkpt lat="43.485500924301526" lon="10.746895359457469"><ele>66.66666666666667</ele><time>2026-04-04T08:32:36Z</time></trkpt><trkpt lat="43.48539431810472" lon="10.747065312550443"><ele>66.0</ele><time>2026-04-04T08:32:37Z</time></trkpt><trkpt lat="43.48530206429193" lon="10.747252266974915"><ele>66.33333333333333</ele><time>2026-04-04T08:32:38Z</time></trkpt><trkpt lat="43.48520576079987" lon="10.747440719330168"><ele>66.66666666666666</ele><time>2026-04-04T08:32:39Z</time></trkpt><trkpt lat="43.48510625053978" lon="10.747623068531867"><ele>67.0</ele><time>2026-04-04T08:32:40Z</time></trkpt><trkpt lat="43.48499389500877" lon="10.747786588328571"><ele>67.0</ele><time>2026-04-04T08:32:41Z</time></trkpt><trkpt lat="43.48486989799235" lon="10.747938860137637"><ele>67.0</ele><time>2026-04-04T08:32:42Z</time></trkpt><trkpt lat="43.484733115371185" lon="10.748075589094006"><ele>67.0</ele><time>2026-04-04T08:32:43Z</time></trkpt><trkpt lat="43.48458375750086" lon="10.7481932136362"><ele>68.66666666666666</ele><time>2026-04-04T08:32:44Z</time></trkpt><trkpt lat="43.48443020124815" lon="10.74828367106018"><ele>70.33333333333333</ele><time>2026-04-04T08:32:45Z</time></trkpt><trkpt lat="43.484272798106765" lon="10.748367393305811"><ele>72.0</ele><time>2026-04-04T08:32:46Z</time></trkpt><trkpt lat="43.48411594981371" lon="10.748455106830734"><ele>72.0</ele><time>2026-04-04T08:32:47Z</time></trkpt><trkpt lat="43.48396625856247" lon="10.748550737234519"><ele>72.0</ele><time>2026-04-04T08:32:48Z</time></trkpt><trkpt lat="43.48382622221497" lon="10.748673669193915"><ele>72.0</ele><time>2026-04-04T08:32:49Z</time></trkpt><trkpt lat="43.48367443572656" lon="10.748786294631053"><ele>72.0</ele><time>2026-04-04T08:32:50Z</time></trkpt><trkpt lat="43.48352002460674" lon="10.74889817417459"><ele>72.0</ele><time>2026-04-04T08:32:50.999Z</time></trkpt><trkpt lat="43.48337778609861" lon="10.749031158540088"><ele>72.0</ele><time>2026-04-04T08:32:51.999Z</time></trkpt><trkpt lat="43.48324516416794" lon="10.749168477195871"><ele>72.0</ele><time>2026-04-04T08:32:52.999Z</time></trkpt><trkpt lat="43.48311923608931" lon="10.749315219448329"><ele>72.0</ele><time>2026-04-04T08:32:53.999Z</time></trkpt><trkpt lat="43.48299602388729" lon="10.749462885379826"><ele>72.0</ele><time>2026-04-04T08:32:54.999Z</time></trkpt><trkpt lat="43.482868397872494" lon="10.74960998290996"><ele>72.33333333333333</ele><time>2026-04-04T08:32:55.999Z</time></trkpt><trkpt lat="43.48274086441123" lon="10.74976319214814"><ele>72.66666666666666</ele><time>2026-04-04T08:32:56.999Z</time></trkpt><trkpt lat="43.48261043408828" lon="10.749914882366472"><ele>73.0</ele><time>2026-04-04T08:32:57.999Z</time></trkpt><trkpt lat="43.48247613484982" lon="10.750074237684817"><ele>73.33333333333333</ele><time>2026-04-04T08:32:58.999Z</time></trkpt><trkpt lat="43.4823444352848" lon="10.750230874683188"><ele>73.66666666666667</ele><time>2026-04-04T08:32:59.999Z</time></trkpt><trkpt lat="43.4822123771235" lon="10.750386073283513"><ele>74.0</ele><time>2026-04-04T08:33:01Z</time></trkpt><trkpt lat="43.482081420941306" lon="10.750542606063723"><ele>74.0</ele><time>2026-04-04T08:33:02Z</time></trkpt><trkpt lat="43.48195168400263" lon="10.750697943256668"><ele>74.0</ele><time>2026-04-04T08:33:03Z</time></trkpt><trkpt lat="43.48181646357662" lon="10.75085662673628"><ele>74.0</ele><time>2026-04-04T08:33:04Z</time></trkpt><trkpt lat="43.481679514075275" lon="10.75101733931304"><ele>72.0</ele><time>2026-04-04T08:33:05Z</time></trkpt><trkpt lat="43.481545777389655" lon="10.751176285473429"><ele>70.0</ele><time>2026-04-04T08:33:06Z</time></trkpt><trkpt lat="43.48140818096122" lon="10.751340933464359"><ele>68.0</ele><time>2026-04-04T08:33:07Z</time></trkpt><trkpt lat="43.48126652893475" lon="10.75150808425439"><ele>69.66666666666667</ele><time>2026-04-04T08:33:08Z</time></trkpt><trkpt lat="43.48112691385788" lon="10.751673440306929"><ele>71.33333333333333</ele><time>2026-04-04T08:33:09Z</time></trkpt><trkpt lat="43.480995609795976" lon="10.751833982029703"><ele>73.0</ele><time>2026-04-04T08:33:10Z</time></trkpt><trkpt lat="43.48087048701241" lon="10.751995200674372"><ele>73.0</ele><time>2026-04-04T08:33:11Z</time></trkpt><trkpt lat="43.4807659318804" lon="10.752187545710127"><ele>73.0</ele><time>2026-04-04T08:33:12Z</time></trkpt><trkpt lat="43.48066034024613" lon="10.752383948949653"><ele>73.0</ele><time>2026-04-04T08:33:13Z</time></trkpt><trkpt lat="43.4805530170457" lon="10.75256890839653"><ele>72.0</ele><time>2026-04-04T08:33:14Z</time></trkpt><trkpt lat="43.48046362770641" lon="10.752741979442861"><ele>71.0</ele><time>2026-04-04T08:33:15Z</time></trkpt><trkpt lat="43.48037738315817" lon="10.752908828441127"><ele>70.0</ele><time>2026-04-04T08:33:16Z</time></trkpt><trkpt lat="43.48029032194094" lon="10.753077257416445"><ele>70.75</ele><time>2026-04-04T08:33:17Z</time></trkpt><trkpt lat="43.480201073847574" lon="10.753246945921656"><ele>71.5</ele><time>2026-04-04T08:33:18Z</time></trkpt><trkpt lat="43.480114720880366" lon="10.753408239606332"><ele>72.25</ele><time>2026-04-04T08:33:19Z</time></trkpt><trkpt lat="43.480033675261105" lon="10.75355236771666"><ele>73.0</ele><time>2026-04-04T08:33:20Z</time></trkpt><trkpt lat="43.47995803033864" lon="10.753680526419833"><ele>73.0</ele><time>2026-04-04T08:33:21Z</time></trkpt><trkpt lat="43.479889081558674" lon="10.753795113622449"><ele>73.0</ele><time>2026-04-04T08:33:22Z</time></trkpt><trkpt lat="43.4798225530171" lon="10.753903215980808"><ele>73.0</ele><time>2026-04-04T08:33:23Z</time></trkpt><trkpt lat="43.47976038118401" lon="10.754002404508258"><ele>73.0</ele><time>2026-04-04T08:33:24Z</time></trkpt><trkpt lat="43.47969610283195" lon="10.754102655424074"><ele>73.0</ele><time>2026-04-04T08:33:25Z</time></trkpt><trkpt lat="43.4796242590718" lon="10.754212661898562"><ele>73.5</ele><time>2026-04-04T08:33:26Z</time></trkpt><trkpt lat="43.47954889677" lon="10.754324428478979"><ele>74.0</ele><time>2026-04-04T08:33:27Z</time></trkpt><trkpt lat="43.47947053676418" lon="10.754436946312422"><ele>74.5</ele><time>2026-04-04T08:33:28Z</time></trkpt><trkpt lat="43.479397602333606" lon="10.754541673340803"><ele>75.0</ele><time>2026-04-04T08:33:29Z</time></trkpt><trkpt lat="43.47928294200769" lon="10.75470845677471"><ele>75.0</ele><time>2026-04-04T08:33:31Z</time></trkpt><trkpt lat="43.479239810840355" lon="10.754771672582113"><ele>75.0</ele><time>2026-04-04T08:33:32Z</time></trkpt><trkpt lat="43.479176681512776" lon="10.754864198955671"><ele>75.0</ele><time>2026-04-04T08:33:34Z</time></trkpt><trkpt lat="43.47910861725897" lon="10.754868962218804"><ele>75.0</ele><time>2026-04-04T08:33:38Z</time></trkpt><trkpt lat="43.47899730137197" lon="10.754793526642196"><ele>75.0</ele><time>2026-04-04T08:33:53Z</time></trkpt><trkpt lat="43.478908518745484" lon="10.754723740920042"><ele>75.0</ele><time>2026-04-04T08:33:57Z</time></trkpt><trkpt lat="43.47884789004789" lon="10.754696777778241"><ele>75.0</ele><time>2026-04-04T08:34:01Z</time></trkpt><trkpt lat="43.478780402975254" lon="10.754673874492877"><ele>75.0</ele><time>2026-04-04T08:36:20Z</time></trkpt><trkpt lat="43.47884472912872" lon="10.754706789073278"><ele>75.0</ele><time>2026-04-04T08:37:21Z</time></trkpt><trkpt lat="43.47873358216784" lon="10.754693398148916"><ele>75.0</ele><time>2026-04-04T08:38:52.999Z</time></trkpt><trkpt lat="43.47864714012501" lon="10.754695586733304"><ele>75.0</ele><time>2026-04-04T08:38:53.999Z</time></trkpt><trkpt lat="43.47856729544674" lon="10.754703014664047"><ele>75.5</ele><time>2026-04-04T08:38:54.999Z</time></trkpt><trkpt lat="43.478491654029376" lon="10.754718601270104"><ele>76.0</ele><time>2026-04-04T08:38:55.999Z</time></trkpt><trkpt lat="43.478409758350665" lon="10.754683054780752"><ele>76.5</ele><time>2026-04-04T08:38:56.999Z</time></trkpt><trkpt lat="43.47833822627749" lon="10.754698970208066"><ele>77.0</ele><time>2026-04-04T08:38:57.999Z</time></trkpt><trkpt lat="43.47826370085839" lon="10.75470709640017"><ele>77.5</ele><time>2026-04-04T08:38:58.999Z</time></trkpt><trkpt lat="43.478188134967354" lon="10.754705854702063"><ele>78.0</ele><time>2026-04-04T08:38:59.999Z</time></trkpt><trkpt lat="43.47811249268042" lon="10.754683848905891"><ele>78.0</ele><time>2026-04-04T08:39:00.999Z</time></trkpt><trkpt lat="43.47804849412388" lon="10.754645153092174"><ele>78.0</ele><time>2026-04-04T08:39:01.999Z</time></trkpt><trkpt lat="43.47798849947768" lon="10.75458876223187"><ele>78.0</ele><time>2026-04-04T08:39:02.999Z</time></trkpt><trkpt lat="43.47792973681285" lon="10.754530431770213"><ele>78.0</ele><time>2026-04-04T08:39:03.999Z</time></trkpt><trkpt lat="43.47787728844645" lon="10.754478988368911"><ele>78.0</ele><time>2026-04-04T08:39:04.999Z</time></trkpt><trkpt lat="43.47778039020441" lon="10.75436654614835"><ele>78.0</ele><time>2026-04-04T08:39:06.999Z</time></trkpt><trkpt lat="43.477722917180905" lon="10.754302722279512"><ele>79.33333333333333</ele><time>2026-04-04T08:39:07.999Z</time></trkpt><trkpt lat="43.4776887101362" lon="10.754208953673782"><ele>80.66666666666667</ele><time>2026-04-04T08:39:08.999Z</time></trkpt><trkpt lat="43.47765859491368" lon="10.75411209725859"><ele>82.0</ele><time>2026-04-04T08:39:09.999Z</time></trkpt><trkpt lat="43.477631669533864" lon="10.754003552692524"><ele>83.33333333333334</ele><time>2026-04-04T08:39:10.999Z</time></trkpt><trkpt lat="43.47759857248076" lon="10.753895631216562"><ele>84.66666666666667</ele><time>2026-04-04T08:39:11.999Z</time></trkpt><trkpt lat="43.47758372630853" lon="10.753779160924193"><ele>86.0</ele><time>2026-04-04T08:39:12.999Z</time></trkpt><trkpt lat="43.47756060511453" lon="10.753665121656423"><ele>86.0</ele><time>2026-04-04T08:39:13.999Z</time></trkpt><trkpt lat="43.47753474331949" lon="10.753556559830207"><ele>86.0</ele><time>2026-04-04T08:39:14.999Z</time></trkpt><trkpt lat="43.47753441492478" lon="10.75344261436736"><ele>86.0</ele><time>2026-04-04T08:39:15.999Z</time></trkpt><trkpt lat="43.47755747149958" lon="10.753351141715285"><ele>86.0</ele><time>2026-04-04T08:39:16.999Z</time></trkpt><trkpt lat="43.477576867410924" lon="10.753258716123893"><ele>86.0</ele><time>2026-04-04T08:39:18Z</time></trkpt><trkpt lat="43.477603783611634" lon="10.753166637540453"><ele>86.0</ele><time>2026-04-04T08:39:19Z</time></trkpt><trkpt lat="43.477633008896014" lon="10.753072044647551"><ele>87.33333333333334</ele><time>2026-04-04T08:39:20Z</time></trkpt><trkpt lat="43.47767221826634" lon="10.75297187665678"><ele>88.66666666666667</ele><time>2026-04-04T08:39:21Z</time></trkpt><trkpt lat="43.477718255236276" lon="10.752873915052021"><ele>90.0</ele><time>2026-04-04T08:39:22Z</time></trkpt><trkpt lat="43.477771796217574" lon="10.752775174225553"><ele>91.33333333333333</ele><time>2026-04-04T08:39:23Z</time></trkpt><trkpt lat="43.477825451261104" lon="10.752684196330273"><ele>92.66666666666666</ele><time>2026-04-04T08:39:24Z</time></trkpt><trkpt lat="43.47786659232073" lon="10.752589715893413"><ele>94.0</ele><time>2026-04-04T08:39:25Z</time></trkpt><trkpt lat="43.477916311332024" lon="10.752512356343738"><ele>96.28571428571428</ele><time>2026-04-04T08:39:26Z</time></trkpt><trkpt lat="43.47796782010833" lon="10.752431150221215"><ele>98.57142857142857</ele><time>2026-04-04T08:39:27Z</time></trkpt><trkpt lat="43.4780169450891" lon="10.752355213975575"><ele>100.85714285714286</ele><time>2026-04-04T08:39:28Z</time></trkpt><trkpt lat="43.47806786818303" lon="10.752275467563457"><ele>103.14285714285714</ele><time>2026-04-04T08:39:29Z</time></trkpt><trkpt lat="43.478112466038105" lon="10.752208500275941"><ele>105.42857142857143</ele><time>2026-04-04T08:39:30Z</time></trkpt><trkpt lat="43.47816273160989" lon="10.752130740112856"><ele>107.71428571428571</ele><time>2026-04-04T08:39:31Z</time></trkpt><trkpt lat="43.478213230023776" lon="10.752064379871298"><ele>110.0</ele><time>2026-04-04T08:39:32Z</time></trkpt><trkpt lat="43.47826105291347" lon="10.75199976093343"><ele>109.99999999999999</ele><time>2026-04-04T08:39:33Z</time></trkpt><trkpt lat="43.47832465793492" lon="10.751879746118687"><ele>110.0</ele><time>2026-04-04T08:39:35Z</time></trkpt><trkpt lat="43.4783578607065" lon="10.751777720312699"><ele>110.0</ele><time>2026-04-04T08:39:37Z</time></trkpt><trkpt lat="43.478392908114444" lon="10.751697408149512"><ele>110.0</ele><time>2026-04-04T08:40:26Z</time></trkpt><trkpt lat="43.47846443606201" lon="10.751629123207822"><ele>109.99999999999999</ele><time>2026-04-04T08:40:29Z</time></trkpt><trkpt lat="43.478542368507874" lon="10.751594082777673"><ele>110.0</ele><time>2026-04-04T08:40:31Z</time></trkpt><trkpt lat="43.47862144940733" lon="10.751521629604838"><ele>110.0</ele><time>2026-04-04T08:40:33Z</time></trkpt><trkpt lat="43.478678730856025" lon="10.751386301430646"><ele>110.0</ele><time>2026-04-04T08:40:35Z</time></trkpt><trkpt lat="43.47871598455135" lon="10.751262698006325"><ele>110.0</ele><time>2026-04-04T08:40:37Z</time></trkpt><trkpt lat="43.47874968648962" lon="10.751154137088067"><ele>110.0</ele><time>2026-04-04T08:40:39Z</time></trkpt><trkpt lat="43.478776838648415" lon="10.751025817985017"><ele>110.0</ele><time>2026-04-04T08:40:41Z</time></trkpt><trkpt lat="43.47880532799269" lon="10.750886407230917"><ele>110.0</ele><time>2026-04-04T08:40:43Z</time></trkpt><trkpt lat="43.478829244071015" lon="10.750739564241705"><ele>110.0</ele><time>2026-04-04T08:40:45Z</time></trkpt><trkpt lat="43.4788577607041" lon="10.750585590518781"><ele>110.0</ele><time>2026-04-04T08:40:47Z</time></trkpt><trkpt lat="43.47887273953397" lon="10.750436557928923"><ele>110.0</ele><time>2026-04-04T08:40:48.999Z</time></trkpt><trkpt lat="43.47889863883843" lon="10.75028091827048"><ele>110.49999999999999</ele><time>2026-04-04T08:40:50.999Z</time></trkpt><trkpt lat="43.47891786617773" lon="10.750189153125913"><ele>111.0</ele><time>2026-04-04T08:40:51.999Z</time></trkpt><trkpt lat="43.47894434292805" lon="10.750102380261827"><ele>111.5</ele><time>2026-04-04T08:40:52.999Z</time></trkpt><trkpt lat="43.478966964705805" lon="10.75000961012927"><ele>112.0</ele><time>2026-04-04T08:40:53.999Z</time></trkpt><trkpt lat="43.4789922318183" lon="10.749909736681976"><ele>112.49999999999999</ele><time>2026-04-04T08:40:54.999Z</time></trkpt><trkpt lat="43.47901795667997" lon="10.749803632348836"><ele>113.0</ele><time>2026-04-04T08:40:55.999Z</time></trkpt><trkpt lat="43.479043197966604" lon="10.749690779406079"><ele>112.99999999999999</ele><time>2026-04-04T08:40:56.999Z</time></trkpt><trkpt lat="43.47906402947874" lon="10.749584138954509"><ele>113.0</ele><time>2026-04-04T08:40:57.999Z</time></trkpt><trkpt lat="43.479081003195624" lon="10.749477489017059"><ele>113.0</ele><time>2026-04-04T08:40:58.999Z</time></trkpt><trkpt lat="43.47909656130787" lon="10.749376141473316"><ele>113.0</ele><time>2026-04-04T08:40:59.999Z</time></trkpt><trkpt lat="43.47911919434068" lon="10.749273023344484"><ele>112.99999999999999</ele><time>2026-04-04T08:41:00.999Z</time></trkpt><trkpt lat="43.47914064456746" lon="10.749168715321993"><ele>113.0</ele><time>2026-04-04T08:41:01.999Z</time></trkpt><trkpt lat="43.47915628984183" lon="10.74906252404176"><ele>113.28571428571429</ele><time>2026-04-04T08:41:02.999Z</time></trkpt><trkpt lat="43.47918947483761" lon="10.74897140579121"><ele>113.57142857142856</ele><time>2026-04-04T08:41:03.999Z</time></trkpt><trkpt lat="43.47921380506611" lon="10.748876138381801"><ele>113.85714285714285</ele><time>2026-04-04T08:41:04.999Z</time></trkpt><trkpt lat="43.47923964074789" lon="10.748785362084568"><ele>114.14285714285714</ele><time>2026-04-04T08:41:05.999Z</time></trkpt><trkpt lat="43.4792694729541" lon="10.748689568064567"><ele>114.42857142857142</ele><time>2026-04-04T08:41:06.999Z</time></trkpt><trkpt lat="43.47929943602903" lon="10.74859808826238"><ele>114.7142857142857</ele><time>2026-04-04T08:41:07.999Z</time></trkpt><trkpt lat="43.47932576735725" lon="10.748492217437647"><ele>114.99999999999999</ele><time>2026-04-04T08:41:08.999Z</time></trkpt><trkpt lat="43.47936324795729" lon="10.748393451847956"><ele>115.6</ele><time>2026-04-04T08:41:09.999Z</time></trkpt><trkpt lat="43.479413438402965" lon="10.748318969013399"><ele>116.2</ele><time>2026-04-04T08:41:10.999Z</time></trkpt><trkpt lat="43.479460106074846" lon="10.748205804485929"><ele>116.80000000000001</ele><time>2026-04-04T08:41:11.999Z</time></trkpt><trkpt lat="43.47950417120831" lon="10.748098950983431"><ele>117.4</ele><time>2026-04-04T08:41:12.999Z</time></trkpt><trkpt lat="43.47954764053128" lon="10.747974225353486"><ele>118.0</ele><time>2026-04-04T08:41:13.999Z</time></trkpt><trkpt lat="43.479599031795466" lon="10.747861962952927"><ele>117.60000000000001</ele><time>2026-04-04T08:41:14.999Z</time></trkpt><trkpt lat="43.479659200821224" lon="10.747761767469276"><ele>117.20000000000002</ele><time>2026-04-04T08:41:15.999Z</time></trkpt><trkpt lat="43.47971785896686" lon="10.74765405222854"><ele>116.8</ele><time>2026-04-04T08:41:16.999Z</time></trkpt><trkpt lat="43.47977459107665" lon="10.747537158950385"><ele>116.4</ele><time>2026-04-04T08:41:17.999Z</time></trkpt><trkpt lat="43.47982281341068" lon="10.747427284714792"><ele>116.0</ele><time>2026-04-04T08:41:18.999Z</time></trkpt><trkpt lat="43.479860994368416" lon="10.747301489827741"><ele>116.0</ele><time>2026-04-04T08:41:19.999Z</time></trkpt><trkpt lat="43.47990120171271" lon="10.747189084927927"><ele>116.0</ele><time>2026-04-04T08:41:20.999Z</time></trkpt><trkpt lat="43.47995496604083" lon="10.747045618690265"><ele>116.0</ele><time>2026-04-04T08:41:22.999Z</time></trkpt><trkpt lat="43.48000297038718" lon="10.746884727261586"><ele>116.0</ele><time>2026-04-04T08:41:24.999Z</time></trkpt><trkpt lat="43.48003448437292" lon="10.746798295053143"><ele>116.0</ele><time>2026-04-04T08:41:25.999Z</time></trkpt><trkpt lat="43.480063341007536" lon="10.74670305978801"><ele>116.16666666666666</ele><time>2026-04-04T08:41:26.999Z</time></trkpt><trkpt lat="43.48009472518354" lon="10.746605496261639"><ele>116.33333333333333</ele><time>2026-04-04T08:41:27.999Z</time></trkpt><trkpt lat="43.4801287713335" lon="10.746501451621944"><ele>116.5</ele><time>2026-04-04T08:41:28.999Z</time></trkpt><trkpt lat="43.480163800304" lon="10.746393996079677"><ele>116.66666666666666</ele><time>2026-04-04T08:41:29.999Z</time></trkpt><trkpt lat="43.480197506587096" lon="10.74629255947366"><ele>116.83333333333333</ele><time>2026-04-04T08:41:30.999Z</time></trkpt><trkpt lat="43.48023173712603" lon="10.746179033248382"><ele>117.0</ele><time>2026-04-04T08:41:31.999Z</time></trkpt><trkpt lat="43.480264455822635" lon="10.74606992801732"><ele>117.0</ele><time>2026-04-04T08:41:32.999Z</time></trkpt><trkpt lat="43.48029761613071" lon="10.74597821706805"><ele>117.0</ele><time>2026-04-04T08:41:33.999Z</time></trkpt><trkpt lat="43.48032936381157" lon="10.745872713247108"><ele>117.0</ele><time>2026-04-04T08:41:34.999Z</time></trkpt><trkpt lat="43.48036230739671" lon="10.745774472081212"><ele>117.0</ele><time>2026-04-04T08:41:35.999Z</time></trkpt><trkpt lat="43.480398393950225" lon="10.745676520669065"><ele>117.0</ele><time>2026-04-04T08:41:37Z</time></trkpt><trkpt lat="43.48042651134451" lon="10.745567448315823"><ele>117.0</ele><time>2026-04-04T08:41:38Z</time></trkpt><trkpt lat="43.48046077645624" lon="10.745464970159327"><ele>116.16666666666667</ele><time>2026-04-04T08:41:39Z</time></trkpt><trkpt lat="43.48048817880678" lon="10.74535624646487"><ele>115.33333333333334</ele><time>2026-04-04T08:41:40Z</time></trkpt><trkpt lat="43.480516338775935" lon="10.745261197437076"><ele>114.5</ele><time>2026-04-04T08:41:41Z</time></trkpt><trkpt lat="43.48055446851169" lon="10.745160090815771"><ele>113.66666666666667</ele><time>2026-04-04T08:41:42Z</time></trkpt><trkpt lat="43.4805950721045" lon="10.745066020903076"><ele>112.83333333333334</ele><time>2026-04-04T08:41:43Z</time></trkpt><trkpt lat="43.48063384289873" lon="10.744958449336227"><ele>112.0</ele><time>2026-04-04T08:41:44Z</time></trkpt><trkpt lat="43.48066526915464" lon="10.744873867904426"><ele>112.0</ele><time>2026-04-04T08:41:45Z</time></trkpt><trkpt lat="43.480696989410774" lon="10.744787255739665"><ele>112.0</ele><time>2026-04-04T08:41:46Z</time></trkpt><trkpt lat="43.48073161822222" lon="10.744694351508336"><ele>112.0</ele><time>2026-04-04T08:41:47Z</time></trkpt><trkpt lat="43.48075785201174" lon="10.744611619964523"><ele>112.0</ele><time>2026-04-04T08:41:48Z</time></trkpt><trkpt lat="43.480785925257095" lon="10.74452432734775"><ele>112.0</ele><time>2026-04-04T08:41:49Z</time></trkpt><trkpt lat="43.48080915643839" lon="10.744436565405158"><ele>112.0</ele><time>2026-04-04T08:41:50Z</time></trkpt><trkpt lat="43.48083121253037" lon="10.744347819337428"><ele>112.0</ele><time>2026-04-04T08:41:51Z</time></trkpt><trkpt lat="43.48086327850643" lon="10.744248225769162"><ele>112.16666666666667</ele><time>2026-04-04T08:41:52Z</time></trkpt><trkpt lat="43.48089228458363" lon="10.744146086177924"><ele>112.33333333333334</ele><time>2026-04-04T08:41:53Z</time></trkpt><trkpt lat="43.48092072204427" lon="10.744031760695961"><ele>112.5</ele><time>2026-04-04T08:41:54Z</time></trkpt><trkpt lat="43.480946189889046" lon="10.743910086576882"><ele>112.66666666666666</ele><time>2026-04-04T08:41:55Z</time></trkpt><trkpt lat="43.48096555470077" lon="10.743805140096777"><ele>112.83333333333333</ele><time>2026-04-04T08:41:56Z</time></trkpt><trkpt lat="43.48098348491757" lon="10.743698224859378"><ele>113.0</ele><time>2026-04-04T08:41:57Z</time></trkpt><trkpt lat="43.48101258692472" lon="10.743593608208387"><ele>113.16666666666666</ele><time>2026-04-04T08:41:58Z</time></trkpt><trkpt lat="43.48105192227811" lon="10.743468495786193"><ele>113.33333333333333</ele><time>2026-04-04T08:41:59Z</time></trkpt><trkpt lat="43.481086866129985" lon="10.743347999537846"><ele>113.5</ele><time>2026-04-04T08:42:00Z</time></trkpt><trkpt lat="43.481124997803995" lon="10.743228088393149"><ele>113.66666666666666</ele><time>2026-04-04T08:42:01Z</time></trkpt><trkpt lat="43.48115618156698" lon="10.743124275095598"><ele>113.83333333333333</ele><time>2026-04-04T08:42:02Z</time></trkpt><trkpt lat="43.48118390827657" lon="10.743024504807583"><ele>114.0</ele><time>2026-04-04T08:42:03Z</time></trkpt><trkpt lat="43.481215352187355" lon="10.742932240542718"><ele>114.0</ele><time>2026-04-04T08:42:04Z</time></trkpt><trkpt lat="43.48126853247092" lon="10.742857662439977"><ele>114.0</ele><time>2026-04-04T08:42:05Z</time></trkpt><trkpt lat="43.48129604630192" lon="10.742759103891952"><ele>114.0</ele><time>2026-04-04T08:42:06Z</time></trkpt><trkpt lat="43.48133428856347" lon="10.74265265688724"><ele>114.0</ele><time>2026-04-04T08:42:07Z</time></trkpt><trkpt lat="43.48135911203772" lon="10.7425396649164"><ele>114.0</ele><time>2026-04-04T08:42:08Z</time></trkpt><trkpt lat="43.481371013488925" lon="10.742424398752549"><ele>114.0</ele><time>2026-04-04T08:42:09Z</time></trkpt><trkpt lat="43.4813728666775" lon="10.742306110312523"><ele>114.16666666666667</ele><time>2026-04-04T08:42:10Z</time></trkpt><trkpt lat="43.481367751625534" lon="10.742199101918663"><ele>114.33333333333334</ele><time>2026-04-04T08:42:11Z</time></trkpt><trkpt lat="43.481356681444844" lon="10.742086660212955"><ele>114.5</ele><time>2026-04-04T08:42:12Z</time></trkpt><trkpt lat="43.48133993847214" lon="10.741975524051929"><ele>114.66666666666667</ele><time>2026-04-04T08:42:13Z</time></trkpt><trkpt lat="43.481318007400226" lon="10.741867390740289"><ele>114.83333333333334</ele><time>2026-04-04T08:42:14Z</time></trkpt><trkpt lat="43.48129310010951" lon="10.74176355473377"><ele>115.0</ele><time>2026-04-04T08:42:15Z</time></trkpt><trkpt lat="43.48126685580442" lon="10.741659356855616"><ele>115.66666666666667</ele><time>2026-04-04T08:42:16Z</time></trkpt><trkpt lat="43.481252470887554" lon="10.741545996691205"><ele>116.33333333333334</ele><time>2026-04-04T08:42:17Z</time></trkpt><trkpt lat="43.481223519500084" lon="10.741437763018885"><ele>117.0</ele><time>2026-04-04T08:42:18Z</time></trkpt><trkpt lat="43.481192502427625" lon="10.7413390136732"><ele>117.66666666666666</ele><time>2026-04-04T08:42:19Z</time></trkpt><trkpt lat="43.48115056712433" lon="10.741244431490607"><ele>118.33333333333333</ele><time>2026-04-04T08:42:20Z</time></trkpt><trkpt lat="43.48111863490073" lon="10.741128405392791"><ele>119.0</ele><time>2026-04-04T08:42:21Z</time></trkpt><trkpt lat="43.48108829724803" lon="10.741021413920272"><ele>119.33333333333333</ele><time>2026-04-04T08:42:22Z</time></trkpt><trkpt lat="43.481062615997395" lon="10.740910931830845"><ele>119.66666666666666</ele><time>2026-04-04T08:42:23Z</time></trkpt><trkpt lat="43.48104443508428" lon="10.740788398672077"><ele>120.0</ele><time>2026-04-04T08:42:24Z</time></trkpt><trkpt lat="43.481032970585765" lon="10.740680920191432"><ele>120.33333333333334</ele><time>2026-04-04T08:42:25Z</time></trkpt><trkpt lat="43.48102830626267" lon="10.740553070286945"><ele>120.66666666666667</ele><time>2026-04-04T08:42:26Z</time></trkpt><trkpt lat="43.48102564310547" lon="10.74042804329789"><ele>121.0</ele><time>2026-04-04T08:42:27Z</time></trkpt><trkpt lat="43.48102771397003" lon="10.740292024174414"><ele>120.66666666666667</ele><time>2026-04-04T08:42:28Z</time></trkpt><trkpt lat="43.48103175902564" lon="10.740154833107702"><ele>120.33333333333334</ele><time>2026-04-04T08:42:29Z</time></trkpt><trkpt lat="43.48103191202708" lon="10.740050306151861"><ele>120.0</ele><time>2026-04-04T08:42:30Z</time></trkpt><trkpt lat="43.48103913740986" lon="10.739939627303372"><ele>119.66666666666666</ele><time>2026-04-04T08:42:31Z</time></trkpt><trkpt lat="43.481020150783564" lon="10.739830886973097"><ele>119.33333333333333</ele><time>2026-04-04T08:42:32Z</time></trkpt><trkpt lat="43.48099793640349" lon="10.739716234673148"><ele>119.0</ele><time>2026-04-04T08:42:33Z</time></trkpt><trkpt lat="43.48096719854437" lon="10.739595260797259"><ele>119.0</ele><time>2026-04-04T08:42:34Z</time></trkpt><trkpt lat="43.480931970694556" lon="10.739484724416432"><ele>119.0</ele><time>2026-04-04T08:42:35Z</time></trkpt><trkpt lat="43.48090112360149" lon="10.7393783364105"><ele>119.0</ele><time>2026-04-04T08:42:36Z</time></trkpt><trkpt lat="43.48088119920708" lon="10.739282749984886"><ele>119.0</ele><time>2026-04-04T08:42:37Z</time></trkpt><trkpt lat="43.48084457407939" lon="10.739128101691662"><ele>119.0</ele><time>2026-04-04T08:42:39Z</time></trkpt><trkpt lat="43.48080441864971" lon="10.73896639889863"><ele>118.66666666666666</ele><time>2026-04-04T08:42:41Z</time></trkpt><trkpt lat="43.4807971181835" lon="10.738859870610343"><ele>118.33333333333333</ele><time>2026-04-04T08:42:42Z</time></trkpt><trkpt lat="43.48079571607488" lon="10.738757256940165"><ele>118.0</ele><time>2026-04-04T08:42:43Z</time></trkpt><trkpt lat="43.48078938756812" lon="10.73863531450478"><ele>117.66666666666666</ele><time>2026-04-04T08:42:44Z</time></trkpt><trkpt lat="43.480782795015614" lon="10.73853685486736"><ele>117.33333333333333</ele><time>2026-04-04T08:42:45Z</time></trkpt><trkpt lat="43.4807712743231" lon="10.738423472156668"><ele>117.0</ele><time>2026-04-04T08:42:46Z</time></trkpt><trkpt lat="43.480764072263234" lon="10.738298343135897"><ele>117.0</ele><time>2026-04-04T08:42:47Z</time></trkpt><trkpt lat="43.48075707586157" lon="10.738170609570641"><ele>117.0</ele><time>2026-04-04T08:42:48Z</time></trkpt><trkpt lat="43.48074735323907" lon="10.738058519644062"><ele>117.0</ele><time>2026-04-04T08:42:49Z</time></trkpt><trkpt lat="43.48073802915744" lon="10.73794882211158"><ele>117.0</ele><time>2026-04-04T08:42:50Z</time></trkpt><trkpt lat="43.480736467952134" lon="10.737856216372858"><ele>117.0</ele><time>2026-04-04T08:42:51Z</time></trkpt><trkpt lat="43.48071020122033" lon="10.73777368462772"><ele>117.0</ele><time>2026-04-04T08:42:51.999Z</time></trkpt><trkpt lat="43.48069530351843" lon="10.737685833683015"><ele>117.33333333333333</ele><time>2026-04-04T08:42:52.999Z</time></trkpt><trkpt lat="43.48064454324753" lon="10.737616655368367"><ele>117.66666666666666</ele><time>2026-04-04T08:42:53.999Z</time></trkpt><trkpt lat="43.48062269087778" lon="10.737526157645817"><ele>118.0</ele><time>2026-04-04T08:42:54.999Z</time></trkpt><trkpt lat="43.48055968387964" lon="10.737462174625945"><ele>118.33333333333333</ele><time>2026-04-04T08:42:55.999Z</time></trkpt><trkpt lat="43.48048357004357" lon="10.737406340720616"><ele>118.66666666666666</ele><time>2026-04-04T08:42:56.999Z</time></trkpt><trkpt lat="43.48041560335838" lon="10.737335659740147"><ele>119.0</ele><time>2026-04-04T08:42:57.999Z</time></trkpt><trkpt lat="43.48034533257334" lon="10.73727234945131"><ele>119.4</ele><time>2026-04-04T08:42:58.999Z</time></trkpt><trkpt lat="43.480266064616366" lon="10.737206266031658"><ele>119.80000000000001</ele><time>2026-04-04T08:42:59.999Z</time></trkpt><trkpt lat="43.48018525110941" lon="10.7371358629598"><ele>120.19999999999999</ele><time>2026-04-04T08:43:00.999Z</time></trkpt><trkpt lat="43.480106165871575" lon="10.737065408103165"><ele>120.6</ele><time>2026-04-04T08:43:01.999Z</time></trkpt><trkpt lat="43.480029809985126" lon="10.736992782304428"><ele>121.0</ele><time>2026-04-04T08:43:02.999Z</time></trkpt><trkpt lat="43.47996144531591" lon="10.736931080358723"><ele>121.33333333333334</ele><time>2026-04-04T08:43:03.999Z</time></trkpt><trkpt lat="43.479902444607376" lon="10.736845101225208"><ele>121.66666666666667</ele><time>2026-04-04T08:43:04.999Z</time></trkpt><trkpt lat="43.479829855580455" lon="10.736770345147285"><ele>122.0</ele><time>2026-04-04T08:43:05.999Z</time></trkpt><trkpt lat="43.47976610975818" lon="10.736698949370242"><ele>122.33333333333334</ele><time>2026-04-04T08:43:06.999Z</time></trkpt><trkpt lat="43.479699369891875" lon="10.7366112261505"><ele>122.66666666666667</ele><time>2026-04-04T08:43:07.999Z</time></trkpt><trkpt lat="43.479633396798654" lon="10.736540939835498"><ele>123.0</ele><time>2026-04-04T08:43:08.999Z</time></trkpt><trkpt lat="43.47956276651793" lon="10.736470345527303"><ele>123.83333333333333</ele><time>2026-04-04T08:43:09.999Z</time></trkpt><trkpt lat="43.47949873155255" lon="10.73640444271086"><ele>124.66666666666666</ele><time>2026-04-04T08:43:10.999Z</time></trkpt><trkpt lat="43.479429268765365" lon="10.73633903088"><ele>125.5</ele><time>2026-04-04T08:43:11.999Z</time></trkpt><trkpt lat="43.479360722170334" lon="10.73629675799904"><ele>126.33333333333333</ele><time>2026-04-04T08:43:12.999Z</time></trkpt><trkpt lat="43.479286038940224" lon="10.736238849673747"><ele>127.16666666666666</ele><time>2026-04-04T08:43:13.999Z</time></trkpt><trkpt lat="43.479201833455086" lon="10.736187905833797"><ele>128.0</ele><time>2026-04-04T08:43:14.999Z</time></trkpt><trkpt lat="43.47911914085203" lon="10.73613031926317"><ele>127.99999999999999</ele><time>2026-04-04T08:43:15.999Z</time></trkpt><trkpt lat="43.47904480181833" lon="10.736060461812558"><ele>128.0</ele><time>2026-04-04T08:43:16.999Z</time></trkpt><trkpt lat="43.478982177982495" lon="10.735982097060004"><ele>128.0</ele><time>2026-04-04T08:43:17.999Z</time></trkpt><trkpt lat="43.478937084218146" lon="10.735898614541373"><ele>128.0</ele><time>2026-04-04T08:43:18.999Z</time></trkpt><trkpt lat="43.478906910542" lon="10.73581358500353"><ele>127.99999999999999</ele><time>2026-04-04T08:43:19.999Z</time></trkpt><trkpt lat="43.47886169589202" lon="10.735734040053844"><ele>128.0</ele><time>2026-04-04T08:43:20.999Z</time></trkpt><trkpt lat="43.47884955078715" lon="10.735632840655569"><ele>130.5</ele><time>2026-04-04T08:43:21.999Z</time></trkpt><trkpt lat="43.47880520303021" lon="10.735449008514264"><ele>133.0</ele><time>2026-04-04T08:43:23.999Z</time></trkpt><trkpt lat="43.47875225714811" lon="10.735278770368977"><ele>135.5</ele><time>2026-04-04T08:43:24.999Z</time></trkpt><trkpt lat="43.478724612900486" lon="10.735097010397718"><ele>138.0</ele><time>2026-04-04T08:43:25.999Z</time></trkpt><trkpt lat="43.47869336233256" lon="10.734942374914377"><ele>142.0</ele><time>2026-04-04T08:43:26.999Z</time></trkpt><trkpt lat="43.47866028521592" lon="10.734786759403674"><ele>146.0</ele><time>2026-04-04T08:43:27.999Z</time></trkpt><trkpt lat="43.47863887328091" lon="10.734620732436248"><ele>150.0</ele><time>2026-04-04T08:43:28.999Z</time></trkpt><trkpt lat="43.4786253308818" lon="10.734445941476697"><ele>154.0</ele><time>2026-04-04T08:43:30Z</time></trkpt><trkpt lat="43.478624716318336" lon="10.73429788776439"><ele>155.2</ele><time>2026-04-04T08:43:31Z</time></trkpt><trkpt lat="43.47862495376122" lon="10.734159931813375"><ele>156.4</ele><time>2026-04-04T08:43:32Z</time></trkpt><trkpt lat="43.47861820973383" lon="10.734039214034853"><ele>157.6</ele><time>2026-04-04T08:43:33Z</time></trkpt><trkpt lat="43.47858396337331" lon="10.733921147562903"><ele>158.8</ele><time>2026-04-04T08:43:34Z</time></trkpt><trkpt lat="43.47854331298717" lon="10.733789036221518"><ele>160.0</ele><time>2026-04-04T08:43:35Z</time></trkpt><trkpt lat="43.47849805860951" lon="10.733653607825794"><ele>160.0</ele><time>2026-04-04T08:43:36Z</time></trkpt><trkpt lat="43.478470645031116" lon="10.733561255564886"><ele>160.0</ele><time>2026-04-04T08:43:37Z</time></trkpt><trkpt lat="43.4784028805253" lon="10.733435553946832"><ele>160.0</ele><time>2026-04-04T08:43:39Z</time></trkpt><trkpt lat="43.478323584202236" lon="10.733399826033121"><ele>160.0</ele><time>2026-04-04T08:43:40Z</time></trkpt><trkpt lat="43.478231356563704" lon="10.733369156021167"><ele>160.0</ele><time>2026-04-04T08:43:41Z</time></trkpt><trkpt lat="43.47816322519894" lon="10.733275690352261"><ele>160.5</ele><time>2026-04-04T08:43:42Z</time></trkpt><trkpt lat="43.4781316730661" lon="10.733147648070899"><ele>161.0</ele><time>2026-04-04T08:43:43Z</time></trkpt><trkpt lat="43.478074096284004" lon="10.733035760804077"><ele>161.5</ele><time>2026-04-04T08:43:44Z</time></trkpt><trkpt lat="43.478012066135335" lon="10.732938821006258"><ele>162.0</ele><time>2026-04-04T08:43:45Z</time></trkpt><trkpt lat="43.47797769612404" lon="10.732837318128736"><ele>162.5</ele><time>2026-04-04T08:43:46Z</time></trkpt><trkpt lat="43.47794162151774" lon="10.732765452412824"><ele>163.0</ele><time>2026-04-04T08:43:47Z</time></trkpt><trkpt lat="43.47788027153771" lon="10.732671968867391"><ele>164.0</ele><time>2026-04-04T08:43:50Z</time></trkpt><trkpt lat="43.47786083309133" lon="10.732588246411844"><ele>165.0</ele><time>2026-04-04T08:43:51Z</time></trkpt><trkpt lat="43.47784547357556" lon="10.732494268088235"><ele>166.0</ele><time>2026-04-04T08:43:52Z</time></trkpt><trkpt lat="43.47782331797312" lon="10.732341422722726"><ele>167.0</ele><time>2026-04-04T08:43:54Z</time></trkpt><trkpt lat="43.47781108500488" lon="10.73224973099634"><ele>168.0</ele><time>2026-04-04T08:43:55Z</time></trkpt><trkpt lat="43.47780117483253" lon="10.732151710337607"><ele>169.0</ele><time>2026-04-04T08:43:56Z</time></trkpt><trkpt lat="43.477793691761896" lon="10.732063547819978"><ele>169.0</ele><time>2026-04-04T08:43:57Z</time></trkpt><trkpt lat="43.4777599564789" lon="10.731982039877497"><ele>169.0</ele><time>2026-04-04T08:44:00Z</time></trkpt><trkpt lat="43.47763494623692" lon="10.731890919628084"><ele>169.0</ele><time>2026-04-04T08:44:02Z</time></trkpt><trkpt lat="43.47755294150528" lon="10.731810032378304"><ele>169.0</ele><time>2026-04-04T08:44:03Z</time></trkpt><trkpt lat="43.477499946628654" lon="10.731697321337103"><ele>169.0</ele><time>2026-04-04T08:44:04Z</time></trkpt><trkpt lat="43.477452585919465" lon="10.731534464079743"><ele>172.25</ele><time>2026-04-04T08:44:05Z</time></trkpt><trkpt lat="43.477417452334" lon="10.731350530929303"><ele>175.5</ele><time>2026-04-04T08:44:06Z</time></trkpt><trkpt lat="43.47740136371791" lon="10.731162914137474"><ele>178.75</ele><time>2026-04-04T08:44:07Z</time></trkpt><trkpt lat="43.47738511084205" lon="10.730942492477148"><ele>182.0</ele><time>2026-04-04T08:44:08Z</time></trkpt><trkpt lat="43.47736499745397" lon="10.730719677478131"><ele>184.66666666666666</ele><time>2026-04-04T08:44:09Z</time></trkpt><trkpt lat="43.47733584482168" lon="10.730524472241004"><ele>187.33333333333334</ele><time>2026-04-04T08:44:10Z</time></trkpt><trkpt lat="43.47727947415062" lon="10.730338350683857"><ele>190.0</ele><time>2026-04-04T08:44:11Z</time></trkpt><trkpt lat="43.477198778271145" lon="10.73014736439843"><ele>192.0</ele><time>2026-04-04T08:44:12Z</time></trkpt><trkpt lat="43.47712662352963" lon="10.729990508262194"><ele>194.0</ele><time>2026-04-04T08:44:13Z</time></trkpt><trkpt lat="43.477090428742535" lon="10.729845181364222"><ele>196.0</ele><time>2026-04-04T08:44:14Z</time></trkpt><trkpt lat="43.47708455619631" lon="10.729688993665587"><ele>198.0</ele><time>2026-04-04T08:44:15Z</time></trkpt><trkpt lat="43.477085604532235" lon="10.729566032618429"><ele>200.0</ele><time>2026-04-04T08:44:16Z</time></trkpt><trkpt lat="43.47708052612062" lon="10.729469121169853"><ele>201.2</ele><time>2026-04-04T08:44:17Z</time></trkpt><trkpt lat="43.4770285704714" lon="10.729326442933841"><ele>202.4</ele><time>2026-04-04T08:44:19Z</time></trkpt><trkpt lat="43.476952006953695" lon="10.729293471234534"><ele>203.60000000000002</ele><time>2026-04-04T08:44:20Z</time></trkpt><trkpt lat="43.47685016994324" lon="10.729278661755334"><ele>204.8</ele><time>2026-04-04T08:44:21Z</time></trkpt><trkpt lat="43.476742125211" lon="10.729259041075188"><ele>206.0</ele><time>2026-04-04T08:44:22Z</time></trkpt><trkpt lat="43.47666618962561" lon="10.729231993180042"><ele>206.00000000000003</ele><time>2026-04-04T08:44:23Z</time></trkpt><trkpt lat="43.47660269148649" lon="10.729204680633424"><ele>206.0</ele><time>2026-04-04T08:44:24Z</time></trkpt><trkpt lat="43.47653631906932" lon="10.729177015635024"><ele>206.0</ele><time>2026-04-04T08:44:25Z</time></trkpt><trkpt lat="43.47646798081081" lon="10.72912777610471"><ele>206.0</ele><time>2026-04-04T08:44:26Z</time></trkpt><trkpt lat="43.47639542640967" lon="10.729061868464413"><ele>206.00000000000003</ele><time>2026-04-04T08:44:27Z</time></trkpt><trkpt lat="43.47632734394808" lon="10.729000558828778"><ele>206.0</ele><time>2026-04-04T08:44:28Z</time></trkpt><trkpt lat="43.47626427791966" lon="10.728944754181386"><ele>205.83333333333334</ele><time>2026-04-04T08:44:29Z</time></trkpt><trkpt lat="43.476204099159375" lon="10.728902604290816"><ele>205.66666666666669</ele><time>2026-04-04T08:44:30Z</time></trkpt><trkpt lat="43.476151384413534" lon="10.728837788398415"><ele>205.5</ele><time>2026-04-04T08:44:31Z</time></trkpt><trkpt lat="43.47609281398812" lon="10.72877092847916"><ele>205.33333333333331</ele><time>2026-04-04T08:44:32Z</time></trkpt><trkpt lat="43.47603170178716" lon="10.72868415131923"><ele>205.16666666666666</ele><time>2026-04-04T08:44:33Z</time></trkpt><trkpt lat="43.47597429732444" lon="10.728593714956286"><ele>205.0</ele><time>2026-04-04T08:44:34Z</time></trkpt><trkpt lat="43.475915048680164" lon="10.72848931052109"><ele>206.33333333333331</ele><time>2026-04-04T08:44:35Z</time></trkpt><trkpt lat="43.475853635437396" lon="10.728388394676056"><ele>207.66666666666666</ele><time>2026-04-04T08:44:36Z</time></trkpt><trkpt lat="43.47578992218499" lon="10.728296628347165"><ele>209.0</ele><time>2026-04-04T08:44:37Z</time></trkpt><trkpt lat="43.47573075013457" lon="10.728208882259501"><ele>210.33333333333331</ele><time>2026-04-04T08:44:38Z</time></trkpt><trkpt lat="43.47568053260393" lon="10.728143691966624"><ele>211.66666666666666</ele><time>2026-04-04T08:44:39Z</time></trkpt><trkpt lat="43.47563602386226" lon="10.728074190580262"><ele>213.0</ele><time>2026-04-04T08:44:40Z</time></trkpt><trkpt lat="43.47557922235354" lon="10.727998771946963"><ele>213.0</ele><time>2026-04-04T08:44:41Z</time></trkpt><trkpt lat="43.475531189258064" lon="10.727933661530038"><ele>213.0</ele><time>2026-04-04T08:44:42Z</time></trkpt><trkpt lat="43.475473782172365" lon="10.727786983904311"><ele>213.0</ele><time>2026-04-04T08:44:44Z</time></trkpt><trkpt lat="43.4754643929878" lon="10.727693698490349"><ele>213.0</ele><time>2026-04-04T08:44:45Z</time></trkpt><trkpt lat="43.47542063331948" lon="10.727559445574169"><ele>213.0</ele><time>2026-04-04T08:44:47Z</time></trkpt><trkpt lat="43.47534180976398" lon="10.727492319036825"><ele>213.16666666666666</ele><time>2026-04-04T08:44:49Z</time></trkpt><trkpt lat="43.47532319025984" lon="10.727340518723384"><ele>213.33333333333331</ele><time>2026-04-04T08:44:51Z</time></trkpt><trkpt lat="43.47532282172799" lon="10.72724802122284"><ele>213.5</ele><time>2026-04-04T08:44:52Z</time></trkpt><trkpt lat="43.47531497668402" lon="10.72715007452281"><ele>213.66666666666666</ele><time>2026-04-04T08:44:53Z</time></trkpt><trkpt lat="43.47528145671192" lon="10.727064030235468"><ele>213.83333333333331</ele><time>2026-04-04T08:44:54Z</time></trkpt><trkpt lat="43.475233799122904" lon="10.726991854337875"><ele>214.0</ele><time>2026-04-04T08:44:55Z</time></trkpt><trkpt lat="43.47511021730505" lon="10.726953273366162"><ele>214.0</ele><time>2026-04-04T08:44:57Z</time></trkpt><trkpt lat="43.47502693866194" lon="10.726967722029688"><ele>213.99999999999997</ele><time>2026-04-04T08:44:58Z</time></trkpt><trkpt lat="43.47493300274284" lon="10.726993615375479"><ele>213.99999999999997</ele><time>2026-04-04T08:44:59Z</time></trkpt><trkpt lat="43.47482131709326" lon="10.727013624407476"><ele>214.0</ele><time>2026-04-04T08:45:00Z</time></trkpt><trkpt lat="43.47472463937258" lon="10.727002056143633"><ele>214.0</ele><time>2026-04-04T08:45:01Z</time></trkpt><trkpt lat="43.474648382871685" lon="10.726944826587438"><ele>210.5</ele><time>2026-04-04T08:45:02Z</time></trkpt><trkpt lat="43.474579701687524" lon="10.726841103952596"><ele>207.0</ele><time>2026-04-04T08:45:03Z</time></trkpt><trkpt lat="43.474506907631735" lon="10.726705997559707"><ele>203.5</ele><time>2026-04-04T08:45:04Z</time></trkpt><trkpt lat="43.47444688663328" lon="10.726555061993805"><ele>200.0</ele><time>2026-04-04T08:45:05Z</time></trkpt><trkpt lat="43.47440245092036" lon="10.726407656400733"><ele>200.0</ele><time>2026-04-04T08:45:06Z</time></trkpt><trkpt lat="43.47436457909621" lon="10.726266149186316"><ele>200.0</ele><time>2026-04-04T08:45:07Z</time></trkpt><trkpt lat="43.47432764150723" lon="10.726139850672126"><ele>200.0</ele><time>2026-04-04T08:45:08Z</time></trkpt><trkpt lat="43.47428285579197" lon="10.726035412996413"><ele>200.0</ele><time>2026-04-04T08:45:09Z</time></trkpt><trkpt lat="43.47422283517788" lon="10.72596617327756"><ele>200.0</ele><time>2026-04-04T08:45:10Z</time></trkpt><trkpt lat="43.47413977107968" lon="10.725949345861212"><ele>200.0</ele><time>2026-04-04T08:45:11Z</time></trkpt><trkpt lat="43.474020802289424" lon="10.725991429496027"><ele>200.0</ele><time>2026-04-04T08:45:12Z</time></trkpt><trkpt lat="43.47390396860723" lon="10.726048141175369"><ele>200.0</ele><time>2026-04-04T08:45:13Z</time></trkpt><trkpt lat="43.47379487301946" lon="10.726123177833196"><ele>200.0</ele><time>2026-04-04T08:45:14Z</time></trkpt><trkpt lat="43.473707235631096" lon="10.726208941271729"><ele>198.6</ele><time>2026-04-04T08:45:15Z</time></trkpt><trkpt lat="43.47361013888789" lon="10.726278338382329"><ele>197.2</ele><time>2026-04-04T08:45:16Z</time></trkpt><trkpt lat="43.473511207913965" lon="10.726337377139787"><ele>195.8</ele><time>2026-04-04T08:45:17Z</time></trkpt><trkpt lat="43.47341972002516" lon="10.726382154066977"><ele>194.4</ele><time>2026-04-04T08:45:18Z</time></trkpt><trkpt lat="43.47333098382493" lon="10.7264182850998"><ele>193.0</ele><time>2026-04-04T08:45:19Z</time></trkpt><trkpt lat="43.47324707292803" lon="10.726453468808794"><ele>193.0</ele><time>2026-04-04T08:45:20Z</time></trkpt><trkpt lat="43.47316192384802" lon="10.726485833282492"><ele>193.0</ele><time>2026-04-04T08:45:21Z</time></trkpt><trkpt lat="43.47307663926367" lon="10.72653433316776"><ele>193.0</ele><time>2026-04-04T08:45:22Z</time></trkpt><trkpt lat="43.47298276853724" lon="10.726582418187972"><ele>193.0</ele><time>2026-04-04T08:45:23Z</time></trkpt><trkpt lat="43.47287830179143" lon="10.726644270330016"><ele>193.0</ele><time>2026-04-04T08:45:24Z</time></trkpt><trkpt lat="43.4727711589987" lon="10.726706470439987"><ele>191.60000000000002</ele><time>2026-04-04T08:45:25Z</time></trkpt><trkpt lat="43.47268389186595" lon="10.72675532048806"><ele>190.20000000000002</ele><time>2026-04-04T08:45:26Z</time></trkpt><trkpt lat="43.4726110379963" lon="10.726792068713438"><ele>188.8</ele><time>2026-04-04T08:45:27Z</time></trkpt><trkpt lat="43.4725460015634" lon="10.726836670566547"><ele>187.4</ele><time>2026-04-04T08:45:28Z</time></trkpt><trkpt lat="43.47244028468155" lon="10.726905456385207"><ele>186.0</ele><time>2026-04-04T08:45:30Z</time></trkpt><trkpt lat="43.472346459262674" lon="10.726929183963184"><ele>188.5</ele><time>2026-04-04T08:45:32Z</time></trkpt><trkpt lat="43.472286511513246" lon="10.727054242274452"><ele>191.0</ele><time>2026-04-04T08:45:34Z</time></trkpt><trkpt lat="43.47225547332885" lon="10.72715874856763"><ele>193.5</ele><time>2026-04-04T08:45:35Z</time></trkpt><trkpt lat="43.472208018665114" lon="10.727285845581724"><ele>196.0</ele><time>2026-04-04T08:45:36Z</time></trkpt><trkpt lat="43.47210191008328" lon="10.727541413885476"><ele>195.99999999999997</ele><time>2026-04-04T08:45:38Z</time></trkpt><trkpt lat="43.47204467949809" lon="10.727680372121856"><ele>196.0</ele><time>2026-04-04T08:45:39Z</time></trkpt><trkpt lat="43.47199445569897" lon="10.727790538875398"><ele>196.0</ele><time>2026-04-04T08:45:40Z</time></trkpt><trkpt lat="43.47195440914444" lon="10.72789090871327"><ele>196.0</ele><time>2026-04-04T08:45:41Z</time></trkpt><trkpt lat="43.471918858379205" lon="10.727975898218716"><ele>195.99999999999997</ele><time>2026-04-04T08:45:42Z</time></trkpt><trkpt lat="43.47188342383272" lon="10.7280719552526"><ele>196.0</ele><time>2026-04-04T08:45:43Z</time></trkpt><trkpt lat="43.47186223868785" lon="10.728176637293151"><ele>197.49999999999997</ele><time>2026-04-04T08:45:44Z</time></trkpt><trkpt lat="43.471862137052746" lon="10.728272953529414"><ele>199.0</ele><time>2026-04-04T08:45:45Z</time></trkpt><trkpt lat="43.47182844735142" lon="10.728385703755574"><ele>200.5</ele><time>2026-04-04T08:45:47Z</time></trkpt><trkpt lat="43.4717637592291" lon="10.728435035742468"><ele>202.0</ele><time>2026-04-04T08:45:48Z</time></trkpt><trkpt lat="43.47168525743026" lon="10.728475334796741"><ele>203.49999999999997</ele><time>2026-04-04T08:45:49Z</time></trkpt><trkpt lat="43.47159476312863" lon="10.728504426577159"><ele>205.0</ele><time>2026-04-04T08:45:50Z</time></trkpt><trkpt lat="43.47151952280256" lon="10.728536241536986"><ele>204.83333333333331</ele><time>2026-04-04T08:45:51Z</time></trkpt><trkpt lat="43.471446783953375" lon="10.728565371895629"><ele>204.66666666666666</ele><time>2026-04-04T08:45:52Z</time></trkpt><trkpt lat="43.47136932674832" lon="10.728598298721533"><ele>204.5</ele><time>2026-04-04T08:45:53Z</time></trkpt><trkpt lat="43.471296858726916" lon="10.728629829137246"><ele>204.33333333333331</ele><time>2026-04-04T08:45:54Z</time></trkpt><trkpt lat="43.47122276550862" lon="10.728662628391408"><ele>204.16666666666666</ele><time>2026-04-04T08:45:55Z</time></trkpt><trkpt lat="43.47114666256454" lon="10.72870203156661"><ele>204.0</ele><time>2026-04-04T08:45:56Z</time></trkpt><trkpt lat="43.47106995552617" lon="10.728751307534765"><ele>204.0</ele><time>2026-04-04T08:45:57Z</time></trkpt><trkpt lat="43.471003100016524" lon="10.728805512677951"><ele>204.0</ele><time>2026-04-04T08:45:58Z</time></trkpt><trkpt lat="43.47094564426332" lon="10.728856318510635"><ele>204.0</ele><time>2026-04-04T08:45:59Z</time></trkpt><trkpt lat="43.47088820729098" lon="10.728909588285205"><ele>204.0</ele><time>2026-04-04T08:46:00Z</time></trkpt><trkpt lat="43.47082595150881" lon="10.728964580438351"><ele>204.0</ele><time>2026-04-04T08:46:01Z</time></trkpt><trkpt lat="43.47075755325912" lon="10.729024982486132"><ele>204.0</ele><time>2026-04-04T08:46:02Z</time></trkpt><trkpt lat="43.47069160529743" lon="10.729084597290402"><ele>204.0</ele><time>2026-04-04T08:46:03Z</time></trkpt><trkpt lat="43.47063729387472" lon="10.729135659674677"><ele>204.0</ele><time>2026-04-04T08:46:04Z</time></trkpt><trkpt lat="43.4705592891024" lon="10.729199808095949"><ele>204.0</ele><time>2026-04-04T08:46:06Z</time></trkpt><trkpt lat="43.47049438224322" lon="10.729250465023028"><ele>204.0</ele><time>2026-04-04T08:46:08Z</time></trkpt><trkpt lat="43.4704710133247" lon="10.729355785287497"><ele>204.0</ele><time>2026-04-04T08:46:10Z</time></trkpt><trkpt lat="43.47048054547121" lon="10.729443672433273"><ele>204.0</ele><time>2026-04-04T08:46:11Z</time></trkpt><trkpt lat="43.47050678494543" lon="10.729554499828232"><ele>204.0</ele><time>2026-04-04T08:46:12Z</time></trkpt><trkpt lat="43.47053839120839" lon="10.729668624363747"><ele>202.6</ele><time>2026-04-04T08:46:13Z</time></trkpt><trkpt lat="43.470566409979696" lon="10.729789265061541"><ele>201.2</ele><time>2026-04-04T08:46:14Z</time></trkpt><trkpt lat="43.47059116067907" lon="10.729925815578632"><ele>199.79999999999998</ele><time>2026-04-04T08:46:15Z</time></trkpt><trkpt lat="43.470616981061355" lon="10.730062895098268"><ele>198.39999999999998</ele><time>2026-04-04T08:46:16Z</time></trkpt><trkpt lat="43.47064260995036" lon="10.730173304373777"><ele>197.0</ele><time>2026-04-04T08:46:17Z</time></trkpt><trkpt lat="43.4706670450599" lon="10.730285679228775"><ele>197.00000000000003</ele><time>2026-04-04T08:46:18Z</time></trkpt><trkpt lat="43.47069437515706" lon="10.730408339865344"><ele>197.0</ele><time>2026-04-04T08:46:19Z</time></trkpt><trkpt lat="43.47072022162864" lon="10.730535435307253"><ele>197.0</ele><time>2026-04-04T08:46:20Z</time></trkpt><trkpt lat="43.470738721732914" lon="10.73064972254328"><ele>197.0</ele><time>2026-04-04T08:46:21Z</time></trkpt><trkpt lat="43.47074162240136" lon="10.730751987637193"><ele>197.00000000000003</ele><time>2026-04-04T08:46:22Z</time></trkpt><trkpt lat="43.470735388292546" lon="10.730854232723411"><ele>197.0</ele><time>2026-04-04T08:46:23Z</time></trkpt><trkpt lat="43.47072564398131" lon="10.73096864419965"><ele>196.8</ele><time>2026-04-04T08:46:24Z</time></trkpt><trkpt lat="43.47071250244082" lon="10.731090601987326"><ele>196.6</ele><time>2026-04-04T08:46:25Z</time></trkpt><trkpt lat="43.47069514794958" lon="10.731209360801136"><ele>196.4</ele><time>2026-04-04T08:46:26Z</time></trkpt><trkpt lat="43.47067697547344" lon="10.73133239835549"><ele>196.20000000000002</ele><time>2026-04-04T08:46:27Z</time></trkpt><trkpt lat="43.47065831247574" lon="10.731459535707874"><ele>196.0</ele><time>2026-04-04T08:46:28Z</time></trkpt><trkpt lat="43.47063836357559" lon="10.73158698943092"><ele>196.0</ele><time>2026-04-04T08:46:29Z</time></trkpt><trkpt lat="43.470620012116385" lon="10.73171584323475"><ele>196.0</ele><time>2026-04-04T08:46:30Z</time></trkpt><trkpt lat="43.470603883900196" lon="10.73184619615259"><ele>196.0</ele><time>2026-04-04T08:46:31Z</time></trkpt><trkpt lat="43.47058873727763" lon="10.73196123206498"><ele>196.0</ele><time>2026-04-04T08:46:32Z</time></trkpt><trkpt lat="43.470564794646236" lon="10.732083532112059"><ele>196.0</ele><time>2026-04-04T08:46:33Z</time></trkpt><trkpt lat="43.47053836094336" lon="10.732215205741456"><ele>194.20000000000002</ele><time>2026-04-04T08:46:34Z</time></trkpt><trkpt lat="43.470513898566026" lon="10.73235661040513"><ele>192.4</ele><time>2026-04-04T08:46:35Z</time></trkpt><trkpt lat="43.47048991144135" lon="10.732487144819192"><ele>190.6</ele><time>2026-04-04T08:46:36Z</time></trkpt><trkpt lat="43.47046755600497" lon="10.732603858139276"><ele>188.8</ele><time>2026-04-04T08:46:37Z</time></trkpt><trkpt lat="43.47045045225826" lon="10.732718650859878"><ele>187.0</ele><time>2026-04-04T08:46:38Z</time></trkpt><trkpt lat="43.47043695789448" lon="10.732834739171816"><ele>184.83333333333334</ele><time>2026-04-04T08:46:39Z</time></trkpt><trkpt lat="43.47042548387345" lon="10.732953025982926"><ele>182.66666666666669</ele><time>2026-04-04T08:46:40Z</time></trkpt><trkpt lat="43.47041989389799" lon="10.733072716831753"><ele>180.5</ele><time>2026-04-04T08:46:41Z</time></trkpt><trkpt lat="43.47041500943264" lon="10.733186702173716"><ele>178.33333333333334</ele><time>2026-04-04T08:46:42Z</time></trkpt><trkpt lat="43.4704075545843" lon="10.733301023327853"><ele>176.16666666666666</ele><time>2026-04-04T08:46:43Z</time></trkpt><trkpt lat="43.47039785614554" lon="10.733420227108587"><ele>174.0</ele><time>2026-04-04T08:46:44Z</time></trkpt><trkpt lat="43.470384132490764" lon="10.733540367082101"><ele>174.66666666666666</ele><time>2026-04-04T08:46:45Z</time></trkpt><trkpt lat="43.470370664234366" lon="10.733654674740032"><ele>175.33333333333334</ele><time>2026-04-04T08:46:46Z</time></trkpt><trkpt lat="43.47036002038691" lon="10.733774513314604"><ele>176.0</ele><time>2026-04-04T08:46:47Z</time></trkpt><trkpt lat="43.47034829933612" lon="10.73390104265248"><ele>176.66666666666669</ele><time>2026-04-04T08:46:48Z</time></trkpt><trkpt lat="43.47032963762515" lon="10.734029071879899"><ele>177.33333333333334</ele><time>2026-04-04T08:46:49Z</time></trkpt><trkpt lat="43.47032223213631" lon="10.734147533780732"><ele>178.0</ele><time>2026-04-04T08:46:50Z</time></trkpt><trkpt lat="43.47032652926228" lon="10.734262573085358"><ele>178.0</ele><time>2026-04-04T08:46:51Z</time></trkpt><trkpt lat="43.47033662168671" lon="10.734383988454882"><ele>178.0</ele><time>2026-04-04T08:46:52Z</time></trkpt><trkpt lat="43.470359400813365" lon="10.734507667831553"><ele>178.0</ele><time>2026-04-04T08:46:53Z</time></trkpt><trkpt lat="43.470383918163165" lon="10.734618917488065"><ele>178.0</ele><time>2026-04-04T08:46:54Z</time></trkpt><trkpt lat="43.47039930547722" lon="10.734727895963776"><ele>178.0</ele><time>2026-04-04T08:46:55Z</time></trkpt><trkpt lat="43.470412173064524" lon="10.734837397291134"><ele>178.0</ele><time>2026-04-04T08:46:56Z</time></trkpt><trkpt lat="43.470411174747575" lon="10.734952584745626"><ele>178.0</ele><time>2026-04-04T08:46:57Z</time></trkpt><trkpt lat="43.47039877525799" lon="10.73506992522274"><ele>178.0</ele><time>2026-04-04T08:46:58Z</time></trkpt><trkpt lat="43.470383227764614" lon="10.735184723589576"><ele>178.0</ele><time>2026-04-04T08:46:59Z</time></trkpt><trkpt lat="43.470363971334464" lon="10.73529698130739"><ele>178.0</ele><time>2026-04-04T08:47:00Z</time></trkpt><trkpt lat="43.470346855857976" lon="10.735409522223513"><ele>178.0</ele><time>2026-04-04T08:47:01Z</time></trkpt><trkpt lat="43.47032999222615" lon="10.735520427872201"><ele>178.0</ele><time>2026-04-04T08:47:02Z</time></trkpt><trkpt lat="43.47031516557883" lon="10.735629532436118"><ele>175.33333333333334</ele><time>2026-04-04T08:47:03Z</time></trkpt><trkpt lat="43.470299300489" lon="10.735733895994692"><ele>172.66666666666669</ele><time>2026-04-04T08:47:04Z</time></trkpt><trkpt lat="43.470284462386864" lon="10.735828862106855"><ele>170.0</ele><time>2026-04-04T08:47:05Z</time></trkpt><trkpt lat="43.47026986536335" lon="10.735913720019623"><ele>167.33333333333334</ele><time>2026-04-04T08:47:06Z</time></trkpt><trkpt lat="43.47021313821731" lon="10.736055334340211"><ele>164.66666666666666</ele><time>2026-04-04T08:47:08Z</time></trkpt><trkpt lat="43.47017450682543" lon="10.736124983904388"><ele>162.0</ele><time>2026-04-04T08:47:09Z</time></trkpt><trkpt lat="43.470104189158" lon="10.736255862417"><ele>160.83333333333334</ele><time>2026-04-04T08:47:11Z</time></trkpt><trkpt lat="43.47003902177836" lon="10.73639937711068"><ele>159.66666666666666</ele><time>2026-04-04T08:47:13Z</time></trkpt><trkpt lat="43.47000757966443" lon="10.736478512248873"><ele>158.5</ele><time>2026-04-04T08:47:14Z</time></trkpt><trkpt lat="43.469972491727354" lon="10.736565415917266"><ele>157.33333333333331</ele><time>2026-04-04T08:47:15Z</time></trkpt><trkpt lat="43.46993742593285" lon="10.736656162372265"><ele>156.16666666666666</ele><time>2026-04-04T08:47:16Z</time></trkpt><trkpt lat="43.46989570628204" lon="10.736751737599338"><ele>155.0</ele><time>2026-04-04T08:47:17Z</time></trkpt><trkpt lat="43.469857073208246" lon="10.736842751800147"><ele>154.0</ele><time>2026-04-04T08:47:18Z</time></trkpt><trkpt lat="43.46982140795616" lon="10.736924691105866"><ele>153.0</ele><time>2026-04-04T08:47:19Z</time></trkpt><trkpt lat="43.469785156666184" lon="10.737007337238307"><ele>152.0</ele><time>2026-04-04T08:47:20Z</time></trkpt><trkpt lat="43.4697497101328" lon="10.737083276183192"><ele>151.0</ele><time>2026-04-04T08:47:21Z</time></trkpt><trkpt lat="43.46967420151137" lon="10.737215944672668"><ele>150.0</ele><time>2026-04-04T08:47:23Z</time></trkpt><trkpt lat="43.46963236303411" lon="10.73728355295486"><ele>149.0</ele><time>2026-04-04T08:47:24Z</time></trkpt><trkpt lat="43.46959477144912" lon="10.73735923791529"><ele>146.75</ele><time>2026-04-04T08:47:25Z</time></trkpt><trkpt lat="43.46953152486051" lon="10.737499055105847"><ele>144.5</ele><time>2026-04-04T08:47:27Z</time></trkpt><trkpt lat="43.46947178647644" lon="10.737633433329288"><ele>142.25</ele><time>2026-04-04T08:47:29Z</time></trkpt><trkpt lat="43.46940752129503" lon="10.73775776178534"><ele>140.0</ele><time>2026-04-04T08:47:31Z</time></trkpt><trkpt lat="43.46932753470832" lon="10.73786992191879"><ele>140.0</ele><time>2026-04-04T08:47:33Z</time></trkpt><trkpt lat="43.469276318856885" lon="10.737923658723998"><ele>140.0</ele><time>2026-04-04T08:47:34Z</time></trkpt><trkpt lat="43.46922423062289" lon="10.73797508239802"><ele>140.0</ele><time>2026-04-04T08:47:35Z</time></trkpt><trkpt lat="43.46911571108492" lon="10.738054015090038"><ele>140.0</ele><time>2026-04-04T08:47:37Z</time></trkpt><trkpt lat="43.469001023558384" lon="10.738089025253055"><ele>140.0</ele><time>2026-04-04T08:47:39Z</time></trkpt><trkpt lat="43.468894034714815" lon="10.738102089692601"><ele>140.0</ele><time>2026-04-04T08:47:41Z</time></trkpt><trkpt lat="43.46879020511901" lon="10.738104428352248"><ele>140.0</ele><time>2026-04-04T08:47:43Z</time></trkpt><trkpt lat="43.4686857676802" lon="10.738109250925245"><ele>140.0</ele><time>2026-04-04T08:47:45Z</time></trkpt><trkpt lat="43.46859984766242" lon="10.738118596509537"><ele>140.0</ele><time>2026-04-04T08:47:47Z</time></trkpt><trkpt lat="43.46853626507975" lon="10.738138319058283"><ele>140.0</ele><time>2026-04-04T08:47:49Z</time></trkpt><trkpt lat="43.468462880192085" lon="10.738177101080753"><ele>140.0</ele><time>2026-04-04T08:47:52Z</time></trkpt><trkpt lat="43.46840037325388" lon="10.738196899533413"><ele>139.57142857142858</ele><time>2026-04-04T08:47:55Z</time></trkpt><trkpt lat="43.468331535923824" lon="10.738216106888212"><ele>139.14285714285714</ele><time>2026-04-04T08:47:58Z</time></trkpt><trkpt lat="43.46826718709709" lon="10.738202405626522"><ele>138.71428571428572</ele><time>2026-04-04T08:48:02Z</time></trkpt><trkpt lat="43.46820579496804" lon="10.738148450496928"><ele>138.28571428571428</ele><time>2026-04-04T08:48:06Z</time></trkpt><trkpt lat="43.46814749475705" lon="10.738192767032713"><ele>137.85714285714286</ele><time>2026-04-04T08:48:12Z</time></trkpt><trkpt lat="43.46821715239726" lon="10.738144294318753"><ele>137.42857142857144</ele><time>2026-04-04T08:50:10Z</time></trkpt><trkpt lat="43.46817781564416" lon="10.738224326699473"><ele>137.0</ele><time>2026-04-04T08:50:34Z</time></trkpt><trkpt lat="43.46824602262583" lon="10.738220917102815"><ele>137.0</ele><time>2026-04-04T08:58:52Z</time></trkpt><trkpt lat="43.46831849233674" lon="10.738242816336545"><ele>137.0</ele><time>2026-04-04T08:58:55Z</time></trkpt><trkpt lat="43.46830073900347" lon="10.738356017373315"><ele>137.0</ele><time>2026-04-04T08:58:58Z</time></trkpt><trkpt lat="43.46823820905317" lon="10.738420086754335"><ele>137.0</ele><time>2026-04-04T08:59:01Z</time></trkpt><trkpt lat="43.46820920635553" lon="10.738500398328595"><ele>137.0</ele><time>2026-04-04T08:59:03Z</time></trkpt><trkpt lat="43.46820163677206" lon="10.738587514313258"><ele>137.0</ele><time>2026-04-04T08:59:05Z</time></trkpt><trkpt lat="43.46822993520622" lon="10.738720485622837"><ele>136.2</ele><time>2026-04-04T08:59:08Z</time></trkpt><trkpt lat="43.46827388844675" lon="10.738820300677824"><ele>135.39999999999998</ele><time>2026-04-04T08:59:10Z</time></trkpt><trkpt lat="43.4683243034843" lon="10.738927786120088"><ele>134.60000000000002</ele><time>2026-04-04T08:59:12Z</time></trkpt><trkpt lat="43.468395557683856" lon="10.739049026736428"><ele>133.8</ele><time>2026-04-04T08:59:14Z</time></trkpt><trkpt lat="43.46846331364033" lon="10.739179925587448"><ele>133.0</ele><time>2026-04-04T08:59:16Z</time></trkpt><trkpt lat="43.468507402438334" lon="10.739312264645347"><ele>132.6</ele><time>2026-04-04T08:59:18Z</time></trkpt><trkpt lat="43.46852495556045" lon="10.739397255642377"><ele>132.20000000000002</ele><time>2026-04-04T08:59:19Z</time></trkpt><trkpt lat="43.46852802853198" lon="10.739558060387697"><ele>131.8</ele><time>2026-04-04T08:59:21Z</time></trkpt><trkpt lat="43.46852271836638" lon="10.739699350631032"><ele>131.4</ele><time>2026-04-04T08:59:23Z</time></trkpt><trkpt lat="43.468505510765716" lon="10.739842540897362"><ele>131.0</ele><time>2026-04-04T08:59:25Z</time></trkpt><trkpt lat="43.46849153041287" lon="10.73999850647115"><ele>131.0</ele><time>2026-04-04T08:59:27Z</time></trkpt><trkpt lat="43.468477200291716" lon="10.740171962953688"><ele>131.0</ele><time>2026-04-04T08:59:29Z</time></trkpt><trkpt lat="43.46846934738672" lon="10.740266056435544"><ele>131.0</ele><time>2026-04-04T08:59:30Z</time></trkpt><trkpt lat="43.468459930272694" lon="10.740362321485016"><ele>131.0</ele><time>2026-04-04T08:59:31Z</time></trkpt><trkpt lat="43.46844452169329" lon="10.740462883590498"><ele>131.0</ele><time>2026-04-04T08:59:32Z</time></trkpt><trkpt lat="43.46842546764399" lon="10.740558164294892"><ele>131.0</ele><time>2026-04-04T08:59:33Z</time></trkpt><trkpt lat="43.46839994782703" lon="10.740651394531264"><ele>131.0</ele><time>2026-04-04T08:59:34Z</time></trkpt><trkpt lat="43.46836250855619" lon="10.740737442386743"><ele>131.0</ele><time>2026-04-04T08:59:35Z</time></trkpt><trkpt lat="43.46831532339787" lon="10.740806140734081"><ele>131.0</ele><time>2026-04-04T08:59:36Z</time></trkpt><trkpt lat="43.468265412180926" lon="10.740867494787238"><ele>131.0</ele><time>2026-04-04T08:59:37Z</time></trkpt><trkpt lat="43.468170785782284" lon="10.740973540721617"><ele>131.0</ele><time>2026-04-04T08:59:39Z</time></trkpt><trkpt lat="43.46807844949332" lon="10.741083554160596"><ele>130.5</ele><time>2026-04-04T08:59:41Z</time></trkpt><trkpt lat="43.46802857081205" lon="10.74114839675277"><ele>130.0</ele><time>2026-04-04T08:59:42Z</time></trkpt><trkpt lat="43.46797257405972" lon="10.741229993021046"><ele>129.5</ele><time>2026-04-04T08:59:43Z</time></trkpt><trkpt lat="43.46792396823806" lon="10.741321325576637"><ele>129.0</ele><time>2026-04-04T08:59:44Z</time></trkpt><trkpt lat="43.467879047141494" lon="10.741417152481773"><ele>128.5</ele><time>2026-04-04T08:59:45Z</time></trkpt><trkpt lat="43.46783816169945" lon="10.741508972410942"><ele>128.0</ele><time>2026-04-04T08:59:46Z</time></trkpt><trkpt lat="43.46780377902266" lon="10.74160234746532"><ele>128.71428571428572</ele><time>2026-04-04T08:59:47Z</time></trkpt><trkpt lat="43.46777463523684" lon="10.741690798363097"><ele>129.42857142857142</ele><time>2026-04-04T08:59:48Z</time></trkpt><trkpt lat="43.46774331629928" lon="10.741781217555234"><ele>130.14285714285714</ele><time>2026-04-04T08:59:49Z</time></trkpt><trkpt lat="43.46771102896272" lon="10.741870682024418"><ele>130.85714285714286</ele><time>2026-04-04T08:59:50Z</time></trkpt><trkpt lat="43.46767986531138" lon="10.7419678821243"><ele>131.57142857142856</ele><time>2026-04-04T08:59:51Z</time></trkpt><trkpt lat="43.46764614424974" lon="10.742067343393483"><ele>132.28571428571428</ele><time>2026-04-04T08:59:52Z</time></trkpt><trkpt lat="43.46761218241062" lon="10.742160845056507"><ele>133.0</ele><time>2026-04-04T08:59:53Z</time></trkpt><trkpt lat="43.46757420806545" lon="10.74225844711773"><ele>133.0</ele><time>2026-04-04T08:59:54Z</time></trkpt><trkpt lat="43.467535307929225" lon="10.742359694360728"><ele>133.0</ele><time>2026-04-04T08:59:55Z</time></trkpt><trkpt lat="43.467497685988775" lon="10.742461383032955"><ele>133.0</ele><time>2026-04-04T08:59:56Z</time></trkpt><trkpt lat="43.46746232512766" lon="10.742558423855536"><ele>133.0</ele><time>2026-04-04T08:59:57Z</time></trkpt><trkpt lat="43.467427486104974" lon="10.742655324337536"><ele>133.0</ele><time>2026-04-04T08:59:58Z</time></trkpt><trkpt lat="43.46739940763736" lon="10.742749126942465"><ele>133.0</ele><time>2026-04-04T08:59:59Z</time></trkpt><trkpt lat="43.46737750855366" lon="10.74284966113457"><ele>132.5</ele><time>2026-04-04T09:00:00Z</time></trkpt><trkpt lat="43.46735673191019" lon="10.742949702608232"><ele>132.0</ele><time>2026-04-04T09:00:01Z</time></trkpt><trkpt lat="43.46734544511454" lon="10.743043215248232"><ele>131.5</ele><time>2026-04-04T09:00:02Z</time></trkpt><trkpt lat="43.467335472112694" lon="10.743147731013782"><ele>131.0</ele><time>2026-04-04T09:00:03Z</time></trkpt><trkpt lat="43.46732817114" lon="10.743249910132821"><ele>130.5</ele><time>2026-04-04T09:00:04Z</time></trkpt><trkpt lat="43.46731973872286" lon="10.743351377362277"><ele>130.0</ele><time>2026-04-04T09:00:05Z</time></trkpt><trkpt lat="43.4673067786958" lon="10.74346145512764"><ele>130.83333333333334</ele><time>2026-04-04T09:00:06Z</time></trkpt><trkpt lat="43.467296823659176" lon="10.743578837552928"><ele>131.66666666666669</ele><time>2026-04-04T09:00:07Z</time></trkpt><trkpt lat="43.46728152438921" lon="10.743692338114963"><ele>132.5</ele><time>2026-04-04T09:00:08Z</time></trkpt><trkpt lat="43.46726642036093" lon="10.74380330951005"><ele>133.33333333333334</ele><time>2026-04-04T09:00:09Z</time></trkpt><trkpt lat="43.46725053637136" lon="10.74391612133488"><ele>134.16666666666666</ele><time>2026-04-04T09:00:10Z</time></trkpt><trkpt lat="43.4672367765187" lon="10.744018629068043"><ele>135.0</ele><time>2026-04-04T09:00:11Z</time></trkpt><trkpt lat="43.46722688696537" lon="10.744120566830206"><ele>135.0</ele><time>2026-04-04T09:00:12Z</time></trkpt><trkpt lat="43.467242620148625" lon="10.744216219328708"><ele>135.0</ele><time>2026-04-04T09:00:13Z</time></trkpt><trkpt lat="43.46728081924298" lon="10.744313301869134"><ele>135.0</ele><time>2026-04-04T09:00:14Z</time></trkpt><trkpt lat="43.467327639444825" lon="10.744390581447389"><ele>135.0</ele><time>2026-04-04T09:00:15Z</time></trkpt><trkpt lat="43.467393647026746" lon="10.744465940823883"><ele>135.0</ele><time>2026-04-04T09:00:16Z</time></trkpt><trkpt lat="43.4674578112794" lon="10.744517197988207"><ele>135.0</ele><time>2026-04-04T09:00:17Z</time></trkpt><trkpt lat="43.46752682400049" lon="10.74456451751286"><ele>135.83333333333334</ele><time>2026-04-04T09:00:17.999Z</time></trkpt><trkpt lat="43.46760084979379" lon="10.744612086870792"><ele>136.66666666666666</ele><time>2026-04-04T09:00:18.999Z</time></trkpt><trkpt lat="43.467675507254256" lon="10.744666767414088"><ele>137.5</ele><time>2026-04-04T09:00:19.999Z</time></trkpt><trkpt lat="43.46775562339205" lon="10.744722291143026"><ele>138.33333333333331</ele><time>2026-04-04T09:00:20.999Z</time></trkpt><trkpt lat="43.46782400257483" lon="10.744771365879478"><ele>139.16666666666666</ele><time>2026-04-04T09:00:21.999Z</time></trkpt><trkpt lat="43.467905356745284" lon="10.744838259187857"><ele>140.0</ele><time>2026-04-04T09:00:22.999Z</time></trkpt><trkpt lat="43.4679886185955" lon="10.74490765504255"><ele>139.16666666666666</ele><time>2026-04-04T09:00:23.999Z</time></trkpt><trkpt lat="43.46806954351703" lon="10.744979534680521"><ele>138.33333333333331</ele><time>2026-04-04T09:00:24.999Z</time></trkpt><trkpt lat="43.468140884589324" lon="10.745055946423406"><ele>137.5</ele><time>2026-04-04T09:00:25.999Z</time></trkpt><trkpt lat="43.46820538514443" lon="10.745138566232193"><ele>136.66666666666666</ele><time>2026-04-04T09:00:26.999Z</time></trkpt><trkpt lat="43.46825932307142" lon="10.745227215949633"><ele>135.83333333333334</ele><time>2026-04-04T09:00:27.999Z</time></trkpt><trkpt lat="43.46830512379817" lon="10.745319150608559"><ele>135.0</ele><time>2026-04-04T09:00:28.999Z</time></trkpt><trkpt lat="43.468347144704396" lon="10.745418999133573"><ele>135.0</ele><time>2026-04-04T09:00:29.999Z</time></trkpt><trkpt lat="43.468383739678764" lon="10.745521331971402"><ele>135.0</ele><time>2026-04-04T09:00:30.999Z</time></trkpt><trkpt lat="43.46841243615274" lon="10.745634285953818"><ele>135.0</ele><time>2026-04-04T09:00:31.999Z</time></trkpt><trkpt lat="43.46844488752773" lon="10.74576023736241"><ele>135.0</ele><time>2026-04-04T09:00:32.999Z</time></trkpt><trkpt lat="43.46847386590058" lon="10.745884557742093"><ele>135.0</ele><time>2026-04-04T09:00:33.999Z</time></trkpt><trkpt lat="43.46849979657571" lon="10.746005191132802"><ele>135.16666666666666</ele><time>2026-04-04T09:00:34.999Z</time></trkpt><trkpt lat="43.468530153378666" lon="10.746127106324385"><ele>135.33333333333334</ele><time>2026-04-04T09:00:35.999Z</time></trkpt><trkpt lat="43.46855891727018" lon="10.746244389309204"><ele>135.5</ele><time>2026-04-04T09:00:36.999Z</time></trkpt><trkpt lat="43.46858343470836" lon="10.746361555856998"><ele>135.66666666666669</ele><time>2026-04-04T09:00:37.999Z</time></trkpt><trkpt lat="43.46861221991597" lon="10.746472636161846"><ele>135.83333333333334</ele><time>2026-04-04T09:00:38.999Z</time></trkpt><trkpt lat="43.468644677934655" lon="10.746577472002212"><ele>136.0</ele><time>2026-04-04T09:00:39.999Z</time></trkpt><trkpt lat="43.46867755319716" lon="10.74667312538509"><ele>136.0</ele><time>2026-04-04T09:00:40.999Z</time></trkpt><trkpt lat="43.4687131051567" lon="10.7467565956504"><ele>136.0</ele><time>2026-04-04T09:00:41.999Z</time></trkpt><trkpt lat="43.46876114244342" lon="10.746840207702485"><ele>136.0</ele><time>2026-04-04T09:00:42.999Z</time></trkpt><trkpt lat="43.46881584279362" lon="10.746916688067678"><ele>136.0</ele><time>2026-04-04T09:00:43.999Z</time></trkpt><trkpt lat="43.46887757876964" lon="10.746985926525003"><ele>136.0</ele><time>2026-04-04T09:00:44.999Z</time></trkpt><trkpt lat="43.46894564993146" lon="10.74705366478489"><ele>136.0</ele><time>2026-04-04T09:00:45.999Z</time></trkpt><trkpt lat="43.469017665255336" lon="10.747121246212746"><ele>134.66666666666669</ele><time>2026-04-04T09:00:46.999Z</time></trkpt><trkpt lat="43.46909224093259" lon="10.74718521390223"><ele>133.33333333333334</ele><time>2026-04-04T09:00:47.999Z</time></trkpt><trkpt lat="43.469163001110196" lon="10.74724399789983"><ele>132.0</ele><time>2026-04-04T09:00:48.999Z</time></trkpt><trkpt lat="43.469237716048454" lon="10.747309605269725"><ele>130.66666666666666</ele><time>2026-04-04T09:00:49.999Z</time></trkpt><trkpt lat="43.469314178903836" lon="10.747373568259416"><ele>129.33333333333331</ele><time>2026-04-04T09:00:50.999Z</time></trkpt><trkpt lat="43.46938899345733" lon="10.74743566078032"><ele>128.0</ele><time>2026-04-04T09:00:51.999Z</time></trkpt><trkpt lat="43.46946495954437" lon="10.74750708842495"><ele>128.0</ele><time>2026-04-04T09:00:52.999Z</time></trkpt><trkpt lat="43.469541534561266" lon="10.747578595460467"><ele>128.0</ele><time>2026-04-04T09:00:53.999Z</time></trkpt><trkpt lat="43.469622501856286" lon="10.747654138263565"><ele>128.0</ele><time>2026-04-04T09:00:54.999Z</time></trkpt><trkpt lat="43.46970386147771" lon="10.747731440139656"><ele>128.0</ele><time>2026-04-04T09:00:55.999Z</time></trkpt><trkpt lat="43.4697854915505" lon="10.747804101471104"><ele>128.0</ele><time>2026-04-04T09:00:56.999Z</time></trkpt><trkpt lat="43.46987082305855" lon="10.747877150087717"><ele>126.60000000000001</ele><time>2026-04-04T09:00:57.999Z</time></trkpt><trkpt lat="43.469959696344226" lon="10.747950074436426"><ele>125.20000000000002</ele><time>2026-04-04T09:00:58.999Z</time></trkpt><trkpt lat="43.47005080582576" lon="10.748015111764264"><ele>123.8</ele><time>2026-04-04T09:00:59.999Z</time></trkpt><trkpt lat="43.470144048769036" lon="10.748078878673887"><ele>122.4</ele><time>2026-04-04T09:01:00.999Z</time></trkpt><trkpt lat="43.47023493371684" lon="10.748136820748526"><ele>121.0</ele><time>2026-04-04T09:01:01.999Z</time></trkpt><trkpt lat="43.47032420515146" lon="10.748185646423737"><ele>121.0</ele><time>2026-04-04T09:01:02.999Z</time></trkpt><trkpt lat="43.470415477972836" lon="10.748230263253708"><ele>121.0</ele><time>2026-04-04T09:01:03.999Z</time></trkpt><trkpt lat="43.47050833167085" lon="10.748280667120573"><ele>121.0</ele><time>2026-04-04T09:01:05Z</time></trkpt><trkpt lat="43.47060377564802" lon="10.748335837530446"><ele>121.0</ele><time>2026-04-04T09:01:06Z</time></trkpt><trkpt lat="43.47070381429664" lon="10.748392513414018"><ele>121.0</ele><time>2026-04-04T09:01:07Z</time></trkpt><trkpt lat="43.470802851434826" lon="10.748452327536812"><ele>121.19999999999999</ele><time>2026-04-04T09:01:08Z</time></trkpt><trkpt lat="43.47090384429377" lon="10.748513064344637"><ele>121.39999999999999</ele><time>2026-04-04T09:01:09Z</time></trkpt><trkpt lat="43.47099542949663" lon="10.748570752600074"><ele>121.6</ele><time>2026-04-04T09:01:10Z</time></trkpt><trkpt lat="43.471077411462055" lon="10.748641297673823"><ele>121.8</ele><time>2026-04-04T09:01:11Z</time></trkpt><trkpt lat="43.47114993028935" lon="10.74871624036777"><ele>122.0</ele><time>2026-04-04T09:01:12Z</time></trkpt><trkpt lat="43.4712163364192" lon="10.748800998925368"><ele>121.8</ele><time>2026-04-04T09:01:13Z</time></trkpt><trkpt lat="43.471280075073885" lon="10.748898230582652"><ele>121.6</ele><time>2026-04-04T09:01:14Z</time></trkpt><trkpt lat="43.471335754695865" lon="10.749004174173702"><ele>121.39999999999999</ele><time>2026-04-04T09:01:15Z</time></trkpt><trkpt lat="43.471384250969095" lon="10.749121535654558"><ele>121.19999999999999</ele><time>2026-04-04T09:01:16Z</time></trkpt><trkpt lat="43.47142947837404" lon="10.749243620351333"><ele>121.0</ele><time>2026-04-04T09:01:17Z</time></trkpt><trkpt lat="43.471476302326614" lon="10.749370388948448"><ele>121.4</ele><time>2026-04-04T09:01:18Z</time></trkpt><trkpt lat="43.47151868679406" lon="10.749487238683098"><ele>121.8</ele><time>2026-04-04T09:01:19Z</time></trkpt><trkpt lat="43.4715627466872" lon="10.749603741607043"><ele>122.20000000000002</ele><time>2026-04-04T09:01:20Z</time></trkpt><trkpt lat="43.47160451688325" lon="10.749710634030016"><ele>122.60000000000001</ele><time>2026-04-04T09:01:21Z</time></trkpt><trkpt lat="43.47164679326157" lon="10.749818198307501"><ele>123.0</ele><time>2026-04-04T09:01:22Z</time></trkpt><trkpt lat="43.47168927074752" lon="10.749924957868116"><ele>123.0</ele><time>2026-04-04T09:01:23Z</time></trkpt><trkpt lat="43.47173022058649" lon="10.750035011253896"><ele>123.0</ele><time>2026-04-04T09:01:24Z</time></trkpt><trkpt lat="43.47177032891618" lon="10.750143168030126"><ele>123.0</ele><time>2026-04-04T09:01:25Z</time></trkpt><trkpt lat="43.47180622687057" lon="10.75025181674902"><ele>123.0</ele><time>2026-04-04T09:01:26Z</time></trkpt><trkpt lat="43.4718403985826" lon="10.750356049026147"><ele>123.0</ele><time>2026-04-04T09:01:27Z</time></trkpt><trkpt lat="43.471876458084864" lon="10.750472648495071"><ele>123.0</ele><time>2026-04-04T09:01:28Z</time></trkpt><trkpt lat="43.47190506737691" lon="10.750583978156724"><ele>123.0</ele><time>2026-04-04T09:01:29Z</time></trkpt><trkpt lat="43.47193075425584" lon="10.750697960486171"><ele>123.0</ele><time>2026-04-04T09:01:30Z</time></trkpt><trkpt lat="43.47195901438626" lon="10.750818348811753"><ele>123.0</ele><time>2026-04-04T09:01:31Z</time></trkpt><trkpt lat="43.47198782825929" lon="10.750933535739977"><ele>123.0</ele><time>2026-04-04T09:01:32Z</time></trkpt><trkpt lat="43.4720189465903" lon="10.75105380918411"><ele>123.0</ele><time>2026-04-04T09:01:33Z</time></trkpt><trkpt lat="43.47204879748704" lon="10.751169716904814"><ele>123.0</ele><time>2026-04-04T09:01:34Z</time></trkpt><trkpt lat="43.47207780529755" lon="10.751279418138138"><ele>123.16666666666667</ele><time>2026-04-04T09:01:35Z</time></trkpt><trkpt lat="43.47210810047591" lon="10.751399251570467"><ele>123.33333333333334</ele><time>2026-04-04T09:01:36Z</time></trkpt><trkpt lat="43.472135031514796" lon="10.751518745787088"><ele>123.5</ele><time>2026-04-04T09:01:37Z</time></trkpt><trkpt lat="43.47216101037552" lon="10.75163198693221"><ele>123.66666666666667</ele><time>2026-04-04T09:01:38Z</time></trkpt><trkpt lat="43.472192224634654" lon="10.751739425102242"><ele>123.83333333333334</ele><time>2026-04-04T09:01:39Z</time></trkpt><trkpt lat="43.472221866207725" lon="10.751843552809207"><ele>124.0</ele><time>2026-04-04T09:01:40Z</time></trkpt><trkpt lat="43.47224792763823" lon="10.751950362965626"><ele>124.33333333333334</ele><time>2026-04-04T09:01:41Z</time></trkpt><trkpt lat="43.47227712085794" lon="10.752051916942651"><ele>124.66666666666667</ele><time>2026-04-04T09:01:42Z</time></trkpt><trkpt lat="43.472311018982154" lon="10.752152750586893"><ele>125.0</ele><time>2026-04-04T09:01:43Z</time></trkpt><trkpt lat="43.4723440911002" lon="10.752262321394026"><ele>125.33333333333334</ele><time>2026-04-04T09:01:44Z</time></trkpt><trkpt lat="43.472372168801144" lon="10.75236995291361"><ele>125.66666666666667</ele><time>2026-04-04T09:01:45Z</time></trkpt><trkpt lat="43.47240095052752" lon="10.752483076252405"><ele>126.0</ele><time>2026-04-04T09:01:46Z</time></trkpt><trkpt lat="43.472430250085935" lon="10.752597130150532"><ele>126.0</ele><time>2026-04-04T09:01:47Z</time></trkpt><trkpt lat="43.47246032382054" lon="10.752711037994835"><ele>126.0</ele><time>2026-04-04T09:01:48Z</time></trkpt><trkpt lat="43.47249642814218" lon="10.75283064178856"><ele>126.0</ele><time>2026-04-04T09:01:49Z</time></trkpt><trkpt lat="43.47252811796865" lon="10.7529449147272"><ele>126.0</ele><time>2026-04-04T09:01:50Z</time></trkpt><trkpt lat="43.472563294670444" lon="10.753087955980275"><ele>126.0</ele><time>2026-04-04T09:01:51Z</time></trkpt><trkpt lat="43.47259665328261" lon="10.753208955845329"><ele>126.0</ele><time>2026-04-04T09:01:52Z</time></trkpt><trkpt lat="43.472635667249584" lon="10.753354709308049"><ele>126.0</ele><time>2026-04-04T09:01:53Z</time></trkpt><trkpt lat="43.47267254058407" lon="10.75349765645155"><ele>126.0</ele><time>2026-04-04T09:01:54Z</time></trkpt><trkpt lat="43.472713549179474" lon="10.753646799906674"><ele>126.0</ele><time>2026-04-04T09:01:55Z</time></trkpt><trkpt lat="43.472751200211576" lon="10.753794423744374"><ele>125.8</ele><time>2026-04-04T09:01:56Z</time></trkpt><trkpt lat="43.47278280440236" lon="10.753922109676388"><ele>125.6</ele><time>2026-04-04T09:01:57Z</time></trkpt><trkpt lat="43.4728114077401" lon="10.754039576327493"><ele>125.4</ele><time>2026-04-04T09:01:58Z</time></trkpt><trkpt lat="43.47284666382077" lon="10.754165866447378"><ele>125.2</ele><time>2026-04-04T09:01:59Z</time></trkpt><trkpt lat="43.47288335004409" lon="10.754277296964021"><ele>125.0</ele><time>2026-04-04T09:02:00Z</time></trkpt><trkpt lat="43.472921093741256" lon="10.754395033534863"><ele>125.16666666666666</ele><time>2026-04-04T09:02:01Z</time></trkpt><trkpt lat="43.47295884843075" lon="10.754502149748857"><ele>125.33333333333333</ele><time>2026-04-04T09:02:02Z</time></trkpt><trkpt lat="43.473000573544105" lon="10.754606553942232"><ele>125.5</ele><time>2026-04-04T09:02:03Z</time></trkpt><trkpt lat="43.473043031235534" lon="10.754712757243327"><ele>125.66666666666666</ele><time>2026-04-04T09:02:04Z</time></trkpt><trkpt lat="43.473085529437185" lon="10.754820787680954"><ele>125.83333333333333</ele><time>2026-04-04T09:02:05Z</time></trkpt><trkpt lat="43.473124201147904" lon="10.754922322346617"><ele>126.0</ele><time>2026-04-04T09:02:06Z</time></trkpt><trkpt lat="43.47316337607114" lon="10.755026321422969"><ele>126.0</ele><time>2026-04-04T09:02:07Z</time></trkpt><trkpt lat="43.473205661002595" lon="10.755135215611903"><ele>126.0</ele><time>2026-04-04T09:02:08Z</time></trkpt><trkpt lat="43.47324816753116" lon="10.755248550670057"><ele>126.0</ele><time>2026-04-04T09:02:09Z</time></trkpt><trkpt lat="43.47328757159873" lon="10.755360134957463"><ele>126.0</ele><time>2026-04-04T09:02:10Z</time></trkpt><trkpt lat="43.47333116485925" lon="10.75547470602291"><ele>126.0</ele><time>2026-04-04T09:02:11Z</time></trkpt><trkpt lat="43.47336899129841" lon="10.755590303383832"><ele>126.0</ele><time>2026-04-04T09:02:12Z</time></trkpt><trkpt lat="43.47340738093804" lon="10.755707472406279"><ele>126.0</ele><time>2026-04-04T09:02:13Z</time></trkpt><trkpt lat="43.47344177930788" lon="10.755818148886263"><ele>126.0</ele><time>2026-04-04T09:02:14Z</time></trkpt><trkpt lat="43.47347661629739" lon="10.755929009665623"><ele>126.0</ele><time>2026-04-04T09:02:15Z</time></trkpt><trkpt lat="43.473512308772754" lon="10.756035327553416"><ele>126.0</ele><time>2026-04-04T09:02:16Z</time></trkpt><trkpt lat="43.47354788753531" lon="10.756149322312101"><ele>126.0</ele><time>2026-04-04T09:02:17Z</time></trkpt><trkpt lat="43.47358587171526" lon="10.756271641383083"><ele>126.0</ele><time>2026-04-04T09:02:18Z</time></trkpt><trkpt lat="43.47362252160749" lon="10.756390401209948"><ele>126.0</ele><time>2026-04-04T09:02:19Z</time></trkpt><trkpt lat="43.47365855167099" lon="10.756492925727613"><ele>126.0</ele><time>2026-04-04T09:02:20Z</time></trkpt><trkpt lat="43.47369569338532" lon="10.756600470247898"><ele>126.0</ele><time>2026-04-04T09:02:21Z</time></trkpt><trkpt lat="43.473734652426394" lon="10.756698868039571"><ele>126.0</ele><time>2026-04-04T09:02:22Z</time></trkpt><trkpt lat="43.47377914371392" lon="10.756789612421777"><ele>126.0</ele><time>2026-04-04T09:02:23Z</time></trkpt><trkpt lat="43.47383626511114" lon="10.756882099771289"><ele>126.4</ele><time>2026-04-04T09:02:23.999Z</time></trkpt><trkpt lat="43.47389782833598" lon="10.756967815715303"><ele>126.8</ele><time>2026-04-04T09:02:24.999Z</time></trkpt><trkpt lat="43.47396780268755" lon="10.757054605699693"><ele>127.20000000000002</ele><time>2026-04-04T09:02:25.999Z</time></trkpt><trkpt lat="43.474042820324065" lon="10.757137249552846"><ele>127.60000000000001</ele><time>2026-04-04T09:02:26.999Z</time></trkpt><trkpt lat="43.47412518517887" lon="10.757225123645666"><ele>128.0</ele><time>2026-04-04T09:02:27.999Z</time></trkpt><trkpt lat="43.47420653102474" lon="10.75730400792398"><ele>128.0</ele><time>2026-04-04T09:02:28.999Z</time></trkpt><trkpt lat="43.47428231931292" lon="10.757383844711313"><ele>128.0</ele><time>2026-04-04T09:02:29.999Z</time></trkpt><trkpt lat="43.474361506183286" lon="10.757469930881507"><ele>128.0</ele><time>2026-04-04T09:02:30.999Z</time></trkpt><trkpt lat="43.47444246716785" lon="10.757546212883195"><ele>128.0</ele><time>2026-04-04T09:02:31.999Z</time></trkpt><trkpt lat="43.474525299989" lon="10.75763033849192"><ele>128.0</ele><time>2026-04-04T09:02:32.999Z</time></trkpt><trkpt lat="43.4746075482452" lon="10.757706242495626"><ele>126.83333333333333</ele><time>2026-04-04T09:02:34Z</time></trkpt><trkpt lat="43.47468494535035" lon="10.75778548256676"><ele>125.66666666666666</ele><time>2026-04-04T09:02:35Z</time></trkpt><trkpt lat="43.47475761545672" lon="10.75785273017331"><ele>124.5</ele><time>2026-04-04T09:02:36Z</time></trkpt><trkpt lat="43.474823538066474" lon="10.757920259646808"><ele>123.33333333333334</ele><time>2026-04-04T09:02:37Z</time></trkpt><trkpt lat="43.4748797100138" lon="10.7579804442603"><ele>122.16666666666667</ele><time>2026-04-04T09:02:38Z</time></trkpt><trkpt lat="43.47493620401163" lon="10.758047104251867"><ele>121.0</ele><time>2026-04-04T09:02:39Z</time></trkpt><trkpt lat="43.47499421769259" lon="10.758133749314036"><ele>121.00000000000001</ele><time>2026-04-04T09:02:40Z</time></trkpt><trkpt lat="43.475040049954764" lon="10.75822943190947"><ele>121.0</ele><time>2026-04-04T09:02:41Z</time></trkpt><trkpt lat="43.475071175032575" lon="10.75832839325552"><ele>121.0</ele><time>2026-04-04T09:02:42Z</time></trkpt><trkpt lat="43.47509377732014" lon="10.758425309698247"><ele>121.0</ele><time>2026-04-04T09:02:43Z</time></trkpt><trkpt lat="43.475114625913704" lon="10.758531780473735"><ele>121.00000000000001</ele><time>2026-04-04T09:02:44Z</time></trkpt><trkpt lat="43.475136800361646" lon="10.758639373639303"><ele>121.0</ele><time>2026-04-04T09:02:45Z</time></trkpt><trkpt lat="43.47515426295638" lon="10.758739856877916"><ele>120.00000000000001</ele><time>2026-04-04T09:02:46Z</time></trkpt><trkpt lat="43.47517235820334" lon="10.758836153268511"><ele>119.0</ele><time>2026-04-04T09:02:47Z</time></trkpt><trkpt lat="43.47518944896188" lon="10.758947484196115"><ele>118.0</ele><time>2026-04-04T09:02:48Z</time></trkpt><trkpt lat="43.475201683713806" lon="10.759060416691904"><ele>117.0</ele><time>2026-04-04T09:02:49Z</time></trkpt><trkpt lat="43.47521372373016" lon="10.759174856176918"><ele>116.00000000000001</ele><time>2026-04-04T09:02:50Z</time></trkpt><trkpt lat="43.475222725425176" lon="10.759295470650926"><ele>115.0</ele><time>2026-04-04T09:02:51Z</time></trkpt><trkpt lat="43.4752294678404" lon="10.75941594767025"><ele>114.6</ele><time>2026-04-04T09:02:52Z</time></trkpt><trkpt lat="43.47523289223271" lon="10.759546143438426"><ele>114.2</ele><time>2026-04-04T09:02:53Z</time></trkpt><trkpt lat="43.47523887717066" lon="10.759666742560736"><ele>113.80000000000001</ele><time>2026-04-04T09:02:54Z</time></trkpt><trkpt lat="43.475245780152335" lon="10.759798820223038"><ele>113.4</ele><time>2026-04-04T09:02:55Z</time></trkpt><trkpt lat="43.47525020437036" lon="10.759936294330652"><ele>113.0</ele><time>2026-04-04T09:02:56Z</time></trkpt><trkpt lat="43.4752551305693" lon="10.76005978302676"><ele>113.0</ele><time>2026-04-04T09:02:57Z</time></trkpt><trkpt lat="43.47525925684995" lon="10.760193856782216"><ele>113.00000000000001</ele><time>2026-04-04T09:02:58Z</time></trkpt><trkpt lat="43.47526492066023" lon="10.76033355217352"><ele>113.00000000000001</ele><time>2026-04-04T09:02:59Z</time></trkpt><trkpt lat="43.47526203048028" lon="10.76048327241719"><ele>113.0</ele><time>2026-04-04T09:03:00Z</time></trkpt><trkpt lat="43.47525141933909" lon="10.760629169602407"><ele>113.0</ele><time>2026-04-04T09:03:01Z</time></trkpt><trkpt lat="43.47523362439499" lon="10.760763561688032"><ele>111.80000000000001</ele><time>2026-04-04T09:03:02Z</time></trkpt><trkpt lat="43.47520290274363" lon="10.760881509173801"><ele>110.60000000000001</ele><time>2026-04-04T09:03:03Z</time></trkpt><trkpt lat="43.47515793965771" lon="10.760994280704834"><ele>109.39999999999999</ele><time>2026-04-04T09:03:04Z</time></trkpt><trkpt lat="43.47510377556942" lon="10.761108501612837"><ele>108.19999999999999</ele><time>2026-04-04T09:03:05Z</time></trkpt><trkpt lat="43.475035647690994" lon="10.7612160159678"><ele>107.0</ele><time>2026-04-04T09:03:06Z</time></trkpt><trkpt lat="43.47495201043717" lon="10.761311079614712"><ele>105.25</ele><time>2026-04-04T09:03:07Z</time></trkpt><trkpt lat="43.474858243473705" lon="10.761397840810334"><ele>103.5</ele><time>2026-04-04T09:03:08Z</time></trkpt><trkpt lat="43.474752679380906" lon="10.761483914581014"><ele>101.75</ele><time>2026-04-04T09:03:09Z</time></trkpt><trkpt lat="43.47464331508744" lon="10.761570862124767"><ele>100.0</ele><time>2026-04-04T09:03:10Z</time></trkpt><trkpt lat="43.474532362918254" lon="10.761662253293082"><ele>100.0</ele><time>2026-04-04T09:03:11Z</time></trkpt><trkpt lat="43.47441679308749" lon="10.761757966051565"><ele>100.0</ele><time>2026-04-04T09:03:12Z</time></trkpt><trkpt lat="43.47429477986469" lon="10.76185845501848"><ele>100.0</ele><time>2026-04-04T09:03:13Z</time></trkpt><trkpt lat="43.47416668237339" lon="10.761969489806098"><ele>100.0</ele><time>2026-04-04T09:03:14Z</time></trkpt><trkpt lat="43.47403873231369" lon="10.762078755801387"><ele>97.25</ele><time>2026-04-04T09:03:15Z</time></trkpt><trkpt lat="43.473922438933336" lon="10.762180137592471"><ele>94.5</ele><time>2026-04-04T09:03:16Z</time></trkpt><trkpt lat="43.47381117804605" lon="10.762273322714583"><ele>91.75</ele><time>2026-04-04T09:03:17Z</time></trkpt><trkpt lat="43.473699681210945" lon="10.762362139515952"><ele>89.0</ele><time>2026-04-04T09:03:18Z</time></trkpt><trkpt lat="43.47359429640643" lon="10.762441638517497"><ele>89.0</ele><time>2026-04-04T09:03:19Z</time></trkpt><trkpt lat="43.47348614973342" lon="10.762516174379495"><ele>89.0</ele><time>2026-04-04T09:03:20Z</time></trkpt><trkpt lat="43.47338545159408" lon="10.762579411445364"><ele>89.0</ele><time>2026-04-04T09:03:21Z</time></trkpt><trkpt lat="43.47329959811704" lon="10.762635039174741"><ele>89.0</ele><time>2026-04-04T09:03:22Z</time></trkpt><trkpt lat="43.4732309492747" lon="10.762695149723234"><ele>89.0</ele><time>2026-04-04T09:03:23Z</time></trkpt><trkpt lat="43.47318152534477" lon="10.762766823957394"><ele>88.0</ele><time>2026-04-04T09:03:24Z</time></trkpt><trkpt lat="43.473136005132204" lon="10.762850392161935"><ele>87.0</ele><time>2026-04-04T09:03:25Z</time></trkpt><trkpt lat="43.47310605736813" lon="10.76292951647635"><ele>86.0</ele><time>2026-04-04T09:03:26Z</time></trkpt><trkpt lat="43.47308163628742" lon="10.763026472149386"><ele>85.0</ele><time>2026-04-04T09:03:28Z</time></trkpt><trkpt lat="43.473065842286935" lon="10.763119948792054"><ele>84.0</ele><time>2026-04-04T09:03:57Z</time></trkpt><trkpt lat="43.47304841332986" lon="10.763217937695682"><ele>83.0</ele><time>2026-04-04T09:03:59Z</time></trkpt><trkpt lat="43.47299534736487" lon="10.763328038148092"><ele>82.60000000000001</ele><time>2026-04-04T09:04:04Z</time></trkpt><trkpt lat="43.472922475196135" lon="10.763341508597293"><ele>82.2</ele><time>2026-04-04T09:04:05Z</time></trkpt><trkpt lat="43.47281614357702" lon="10.763315099001874"><ele>81.8</ele><time>2026-04-04T09:04:06Z</time></trkpt><trkpt lat="43.472710646156465" lon="10.763295695347328"><ele>81.4</ele><time>2026-04-04T09:04:07Z</time></trkpt><trkpt lat="43.47258995430886" lon="10.763269268122599"><ele>81.0</ele><time>2026-04-04T09:04:08Z</time></trkpt><trkpt lat="43.47243997676142" lon="10.763236342515075"><ele>81.0</ele><time>2026-04-04T09:04:09Z</time></trkpt><trkpt lat="43.47228836423413" lon="10.763181759008269"><ele>81.0</ele><time>2026-04-04T09:04:10Z</time></trkpt><trkpt lat="43.4721177761151" lon="10.763098644644035"><ele>81.0</ele><time>2026-04-04T09:04:11Z</time></trkpt><trkpt lat="43.47196538889366" lon="10.763008685559221"><ele>80.66666666666667</ele><time>2026-04-04T09:04:12Z</time></trkpt><trkpt lat="43.471811483504126" lon="10.762916121996183"><ele>80.33333333333334</ele><time>2026-04-04T09:04:13Z</time></trkpt><trkpt lat="43.47165921948213" lon="10.762825180870767"><ele>80.0</ele><time>2026-04-04T09:04:14Z</time></trkpt><trkpt lat="43.47150583540725" lon="10.762734236673609"><ele>81.0</ele><time>2026-04-04T09:04:15Z</time></trkpt><trkpt lat="43.47135245179451" lon="10.762642056853421"><ele>82.0</ele><time>2026-04-04T09:04:16Z</time></trkpt><trkpt lat="43.47120003906466" lon="10.7625496771641"><ele>83.0</ele><time>2026-04-04T09:04:17Z</time></trkpt><trkpt lat="43.47105068927815" lon="10.762458994323461"><ele>83.0</ele><time>2026-04-04T09:04:18Z</time></trkpt><trkpt lat="43.47090456374602" lon="10.762370222316056"><ele>83.0</ele><time>2026-04-04T09:04:19Z</time></trkpt><trkpt lat="43.47075740951135" lon="10.762281568272298"><ele>83.0</ele><time>2026-04-04T09:04:20Z</time></trkpt><trkpt lat="43.47061118013886" lon="10.762193344586818"><ele>83.0</ele><time>2026-04-04T09:04:21Z</time></trkpt><trkpt lat="43.470457901454935" lon="10.762100991367587"><ele>83.0</ele><time>2026-04-04T09:04:22Z</time></trkpt><trkpt lat="43.470292043523" lon="10.762004375109708"><ele>83.0</ele><time>2026-04-04T09:04:23Z</time></trkpt><trkpt lat="43.47012935465771" lon="10.761908848471087"><ele>83.33333333333334</ele><time>2026-04-04T09:04:24Z</time></trkpt><trkpt lat="43.46998698374075" lon="10.761828296685628"><ele>83.66666666666667</ele><time>2026-04-04T09:04:25Z</time></trkpt><trkpt lat="43.469846103539766" lon="10.76175811500445"><ele>84.0</ele><time>2026-04-04T09:04:26Z</time></trkpt><trkpt lat="43.46967393757818" lon="10.761691416356545"><ele>84.0</ele><time>2026-04-04T09:04:27Z</time></trkpt><trkpt lat="43.46948808460425" lon="10.761610495639859"><ele>84.0</ele><time>2026-04-04T09:04:28Z</time></trkpt><trkpt lat="43.469294939188416" lon="10.761543275887925"><ele>84.0</ele><time>2026-04-04T09:04:29Z</time></trkpt><trkpt lat="43.469119114510896" lon="10.761487056844825"><ele>84.0</ele><time>2026-04-04T09:04:30Z</time></trkpt><trkpt lat="43.46895710828147" lon="10.761435175019832"><ele>84.0</ele><time>2026-04-04T09:04:31Z</time></trkpt><trkpt lat="43.46880042268313" lon="10.761383145959242"><ele>84.0</ele><time>2026-04-04T09:04:32Z</time></trkpt><trkpt lat="43.468645492929674" lon="10.761335060243074"><ele>83.25</ele><time>2026-04-04T09:04:33Z</time></trkpt><trkpt lat="43.4685013615135" lon="10.761293112336064"><ele>82.5</ele><time>2026-04-04T09:04:34Z</time></trkpt><trkpt lat="43.46836652225907" lon="10.76125203226442"><ele>81.75</ele><time>2026-04-04T09:04:35Z</time></trkpt><trkpt lat="43.46824115421806" lon="10.761212571978534"><ele>81.0</ele><time>2026-04-04T09:04:36Z</time></trkpt><trkpt lat="43.46811951531301" lon="10.761173344617603"><ele>81.0</ele><time>2026-04-04T09:04:37Z</time></trkpt><trkpt lat="43.467995088467156" lon="10.761132911312536"><ele>81.0</ele><time>2026-04-04T09:04:38Z</time></trkpt><trkpt lat="43.46786962751596" lon="10.761093215575132"><ele>81.0</ele><time>2026-04-04T09:04:39Z</time></trkpt><trkpt lat="43.467738116508045" lon="10.761053127354108"><ele>81.0</ele><time>2026-04-04T09:04:40Z</time></trkpt><trkpt lat="43.46760186367982" lon="10.761015354828588"><ele>81.5</ele><time>2026-04-04T09:04:41Z</time></trkpt><trkpt lat="43.46745940814148" lon="10.760991807477547"><ele>82.0</ele><time>2026-04-04T09:04:42Z</time></trkpt><trkpt lat="43.46731145323785" lon="10.760976439691689"><ele>82.5</ele><time>2026-04-04T09:04:43Z</time></trkpt><trkpt lat="43.467179768170254" lon="10.760880025979535"><ele>83.0</ele><time>2026-04-04T09:04:44Z</time></trkpt><trkpt lat="43.46703723698264" lon="10.760833005853387"><ele>83.0</ele><time>2026-04-04T09:04:45Z</time></trkpt><trkpt lat="43.466894301124306" lon="10.760786135214554"><ele>83.0</ele><time>2026-04-04T09:04:46Z</time></trkpt><trkpt lat="43.466746387397436" lon="10.760742469947619"><ele>83.0</ele><time>2026-04-04T09:04:47Z</time></trkpt><trkpt lat="43.46659229728902" lon="10.760699455088144"><ele>83.0</ele><time>2026-04-04T09:04:48Z</time></trkpt><trkpt lat="43.466440709007806" lon="10.760654424230568"><ele>83.0</ele><time>2026-04-04T09:04:49Z</time></trkpt><trkpt lat="43.46629203240937" lon="10.760609740473942"><ele>83.0</ele><time>2026-04-04T09:04:50Z</time></trkpt><trkpt lat="43.466146442538445" lon="10.760557910540879"><ele>82.33333333333334</ele><time>2026-04-04T09:04:51Z</time></trkpt><trkpt lat="43.466000724277535" lon="10.7605196178494"><ele>81.66666666666667</ele><time>2026-04-04T09:04:52Z</time></trkpt><trkpt lat="43.46585450147841" lon="10.760475272837207"><ele>81.0</ele><time>2026-04-04T09:04:53Z</time></trkpt><trkpt lat="43.4656968141312" lon="10.760444624002394"><ele>81.0</ele><time>2026-04-04T09:04:54Z</time></trkpt><trkpt lat="43.46551376309842" lon="10.760439159509987"><ele>81.0</ele><time>2026-04-04T09:04:55Z</time></trkpt><trkpt lat="43.465345089590855" lon="10.76045376914591"><ele>81.0</ele><time>2026-04-04T09:04:56Z</time></trkpt><trkpt lat="43.465196217784744" lon="10.760469784546554"><ele>81.25</ele><time>2026-04-04T09:04:57Z</time></trkpt><trkpt lat="43.465046626059234" lon="10.760488082664878"><ele>81.5</ele><time>2026-04-04T09:04:58Z</time></trkpt><trkpt lat="43.464899059897476" lon="10.760509530953009"><ele>81.75</ele><time>2026-04-04T09:04:59Z</time></trkpt><trkpt lat="43.46475116209244" lon="10.760537055874426"><ele>82.0</ele><time>2026-04-04T09:05:00Z</time></trkpt><trkpt lat="43.46460572875143" lon="10.760565464109721"><ele>82.25</ele><time>2026-04-04T09:05:01Z</time></trkpt><trkpt lat="43.46446403893241" lon="10.760590589272722"><ele>82.5</ele><time>2026-04-04T09:05:02Z</time></trkpt><trkpt lat="43.46432694290634" lon="10.760615475505324"><ele>82.75</ele><time>2026-04-04T09:05:03Z</time></trkpt><trkpt lat="43.464190394300196" lon="10.760640459413947"><ele>83.0</ele><time>2026-04-04T09:05:04Z</time></trkpt><trkpt lat="43.46406276095085" lon="10.76065781286205"><ele>83.0</ele><time>2026-04-04T09:05:05Z</time></trkpt><trkpt lat="43.46394261734006" lon="10.76066606863509"><ele>83.0</ele><time>2026-04-04T09:05:06Z</time></trkpt><trkpt lat="43.463819024286835" lon="10.760662881753822"><ele>83.0</ele><time>2026-04-04T09:05:07Z</time></trkpt><trkpt lat="43.46368829048767" lon="10.760649516034814"><ele>83.0</ele><time>2026-04-04T09:05:08Z</time></trkpt><trkpt lat="43.46355378405757" lon="10.760630992319445"><ele>83.75</ele><time>2026-04-04T09:05:09Z</time></trkpt><trkpt lat="43.46341852489136" lon="10.760609440136786"><ele>84.5</ele><time>2026-04-04T09:05:10Z</time></trkpt><trkpt lat="43.4632908570108" lon="10.760592835934107"><ele>85.25</ele><time>2026-04-04T09:05:11Z</time></trkpt><trkpt lat="43.463173520834204" lon="10.760581800177498"><ele>86.0</ele><time>2026-04-04T09:05:12Z</time></trkpt><trkpt lat="43.463053382612095" lon="10.76058794923772"><ele>86.5</ele><time>2026-04-04T09:05:13Z</time></trkpt><trkpt lat="43.46293664150013" lon="10.760609461368345"><ele>87.0</ele><time>2026-04-04T09:05:14Z</time></trkpt><trkpt lat="43.462823995614045" lon="10.76065161189859"><ele>87.5</ele><time>2026-04-04T09:05:15Z</time></trkpt><trkpt lat="43.46270951512403" lon="10.760690448316552"><ele>88.0</ele><time>2026-04-04T09:05:16Z</time></trkpt><trkpt lat="43.46259726203207" lon="10.76072626324544"><ele>88.0</ele><time>2026-04-04T09:05:17Z</time></trkpt><trkpt lat="43.46248545188424" lon="10.760760926649573"><ele>88.0</ele><time>2026-04-04T09:05:18Z</time></trkpt><trkpt lat="43.4623768819195" lon="10.760790103297749"><ele>88.0</ele><time>2026-04-04T09:05:19Z</time></trkpt><trkpt lat="43.46226964771305" lon="10.760815268244713"><ele>88.0</ele><time>2026-04-04T09:05:20Z</time></trkpt><trkpt lat="43.462160719414875" lon="10.760826114870447"><ele>88.0</ele><time>2026-04-04T09:05:21Z</time></trkpt><trkpt lat="43.462049000375146" lon="10.760813803337298"><ele>88.0</ele><time>2026-04-04T09:05:22Z</time></trkpt><trkpt lat="43.461933320674305" lon="10.760777963175935"><ele>88.0</ele><time>2026-04-04T09:05:23Z</time></trkpt><trkpt lat="43.46181769717333" lon="10.760714560703336"><ele>88.0</ele><time>2026-04-04T09:05:24Z</time></trkpt><trkpt lat="43.46170361515932" lon="10.760645509727395"><ele>88.0</ele><time>2026-04-04T09:05:25Z</time></trkpt><trkpt lat="43.46158882139998" lon="10.760571488249955"><ele>88.0</ele><time>2026-04-04T09:05:26Z</time></trkpt><trkpt lat="43.46147575426976" lon="10.76049705119949"><ele>88.0</ele><time>2026-04-04T09:05:27Z</time></trkpt><trkpt lat="43.461365419925976" lon="10.760420915156226"><ele>88.0</ele><time>2026-04-04T09:05:28Z</time></trkpt><trkpt lat="43.46125931728602" lon="10.760344856564158"><ele>88.0</ele><time>2026-04-04T09:05:29Z</time></trkpt><trkpt lat="43.46115326402082" lon="10.76027190620349"><ele>89.0</ele><time>2026-04-04T09:05:30Z</time></trkpt><trkpt lat="43.46105155724263" lon="10.76019913878992"><ele>90.0</ele><time>2026-04-04T09:05:31Z</time></trkpt><trkpt lat="43.4609500342339" lon="10.76012837757802"><ele>91.0</ele><time>2026-04-04T09:05:32Z</time></trkpt><trkpt lat="43.460850892754166" lon="10.760057493022519"><ele>92.0</ele><time>2026-04-04T09:05:33Z</time></trkpt><trkpt lat="43.460750246689216" lon="10.759984320494254"><ele>92.0</ele><time>2026-04-04T09:05:34Z</time></trkpt><trkpt lat="43.46064625140879" lon="10.759907056842602"><ele>92.0</ele><time>2026-04-04T09:05:35Z</time></trkpt><trkpt lat="43.460539546222236" lon="10.759835668556967"><ele>92.0</ele><time>2026-04-04T09:05:36Z</time></trkpt><trkpt lat="43.46043415551295" lon="10.75976328249003"><ele>92.0</ele><time>2026-04-04T09:05:37Z</time></trkpt><trkpt lat="43.46032847134154" lon="10.759690087521005"><ele>91.0</ele><time>2026-04-04T09:05:38Z</time></trkpt><trkpt lat="43.46022446675562" lon="10.759621006627766"><ele>90.0</ele><time>2026-04-04T09:05:39Z</time></trkpt><trkpt lat="43.460120693490886" lon="10.759552598865834"><ele>89.0</ele><time>2026-04-04T09:05:40Z</time></trkpt><trkpt lat="43.46001556763847" lon="10.759492651901924"><ele>88.0</ele><time>2026-04-04T09:05:41Z</time></trkpt><trkpt lat="43.459903271131054" lon="10.759467082309461"><ele>88.0</ele><time>2026-04-04T09:05:42Z</time></trkpt><trkpt lat="43.45978293426847" lon="10.759474915353962"><ele>88.0</ele><time>2026-04-04T09:05:43Z</time></trkpt><trkpt lat="43.4596606769907" lon="10.759508668635968"><ele>88.0</ele><time>2026-04-04T09:05:44Z</time></trkpt><trkpt lat="43.4595500119256" lon="10.75957097289254"><ele>88.0</ele><time>2026-04-04T09:05:45Z</time></trkpt><trkpt lat="43.459446240257805" lon="10.759656042861273"><ele>87.25</ele><time>2026-04-04T09:05:46Z</time></trkpt><trkpt lat="43.45935301154893" lon="10.759769848666785"><ele>86.5</ele><time>2026-04-04T09:05:47Z</time></trkpt><trkpt lat="43.45927893959288" lon="10.759918798315347"><ele>85.75</ele><time>2026-04-04T09:05:48Z</time></trkpt><trkpt lat="43.459213247807995" lon="10.760098325066028"><ele>85.0</ele><time>2026-04-04T09:05:49Z</time></trkpt><trkpt lat="43.45915892341671" lon="10.760263358071155"><ele>85.0</ele><time>2026-04-04T09:05:50Z</time></trkpt><trkpt lat="43.45910433535982" lon="10.760419570109349"><ele>85.0</ele><time>2026-04-04T09:05:51Z</time></trkpt><trkpt lat="43.45904760120122" lon="10.76057596789073"><ele>85.0</ele><time>2026-04-04T09:05:52Z</time></trkpt><trkpt lat="43.45899181414124" lon="10.760731330692082"><ele>85.0</ele><time>2026-04-04T09:05:53Z</time></trkpt><trkpt lat="43.458935779446634" lon="10.760885379980744"><ele>85.25</ele><time>2026-04-04T09:05:54Z</time></trkpt><trkpt lat="43.458881040126315" lon="10.76103756405595"><ele>85.5</ele><time>2026-04-04T09:05:55Z</time></trkpt><trkpt lat="43.45882747915571" lon="10.761188029416655"><ele>85.75</ele><time>2026-04-04T09:05:56Z</time></trkpt><trkpt lat="43.45877353002955" lon="10.761337286467356"><ele>86.0</ele><time>2026-04-04T09:05:57Z</time></trkpt><trkpt lat="43.458719691569" lon="10.761490355108341"><ele>86.75</ele><time>2026-04-04T09:05:58Z</time></trkpt><trkpt lat="43.458663164535864" lon="10.761647831157445"><ele>87.5</ele><time>2026-04-04T09:05:59Z</time></trkpt><trkpt lat="43.458607086635524" lon="10.761808443489285"><ele>88.25</ele><time>2026-04-04T09:06:00.001Z</time></trkpt><trkpt lat="43.45855288291401" lon="10.76197124076713"><ele>89.0</ele><time>2026-04-04T09:06:01.001Z</time></trkpt><trkpt lat="43.45850622609013" lon="10.76213978412981"><ele>89.33333333333334</ele><time>2026-04-04T09:06:02.001Z</time></trkpt><trkpt lat="43.45848254082504" lon="10.762322865472568"><ele>89.66666666666667</ele><time>2026-04-04T09:06:03.001Z</time></trkpt><trkpt lat="43.458492408714264" lon="10.76253845677189"><ele>90.0</ele><time>2026-04-04T09:06:04.001Z</time></trkpt><trkpt lat="43.4585017571976" lon="10.762757505456236"><ele>90.0</ele><time>2026-04-04T09:06:05.001Z</time></trkpt><trkpt lat="43.45850502435356" lon="10.762943702437065"><ele>90.0</ele><time>2026-04-04T09:06:06.001Z</time></trkpt><trkpt lat="43.45850352659564" lon="10.763119871588755"><ele>90.0</ele><time>2026-04-04T09:06:07.001Z</time></trkpt><trkpt lat="43.45850047258865" lon="10.76327524435456"><ele>90.0</ele><time>2026-04-04T09:06:08.001Z</time></trkpt><trkpt lat="43.45848172504801" lon="10.763410995763683"><ele>89.4</ele><time>2026-04-04T09:06:09.001Z</time></trkpt><trkpt lat="43.45844915253446" lon="10.763533266671487"><ele>88.8</ele><time>2026-04-04T09:06:10.001Z</time></trkpt><trkpt lat="43.458401220790606" lon="10.763646212680685"><ele>88.19999999999999</ele><time>2026-04-04T09:06:11.001Z</time></trkpt><trkpt lat="43.458336880614304" lon="10.763756982166889"><ele>87.6</ele><time>2026-04-04T09:06:12.001Z</time></trkpt><trkpt lat="43.45825537861624" lon="10.763863837482587"><ele>87.0</ele><time>2026-04-04T09:06:13.001Z</time></trkpt><trkpt lat="43.45816029570007" lon="10.76397546695267"><ele>87.0</ele><time>2026-04-04T09:06:14.001Z</time></trkpt><trkpt lat="43.45805291025472" lon="10.764096627455768"><ele>87.0</ele><time>2026-04-04T09:06:15.001Z</time></trkpt><trkpt lat="43.4579310227786" lon="10.76423653626427"><ele>87.0</ele><time>2026-04-04T09:06:16.001Z</time></trkpt><trkpt lat="43.457791647582134" lon="10.764391982339811"><ele>87.66666666666667</ele><time>2026-04-04T09:06:17.001Z</time></trkpt><trkpt lat="43.45764464919547" lon="10.764555465488693"><ele>88.33333333333334</ele><time>2026-04-04T09:06:18.001Z</time></trkpt><trkpt lat="43.45749479363585" lon="10.764727557799885"><ele>89.0</ele><time>2026-04-04T09:06:19.001Z</time></trkpt><trkpt lat="43.45734486191908" lon="10.764900001649188"><ele>89.0</ele><time>2026-04-04T09:06:20.001Z</time></trkpt><trkpt lat="43.45718816640769" lon="10.765079021999762"><ele>89.0</ele><time>2026-04-04T09:06:21.001Z</time></trkpt><trkpt lat="43.457005017317904" lon="10.76528158344109"><ele>89.0</ele><time>2026-04-04T09:06:22.001Z</time></trkpt><trkpt lat="43.45679874958268" lon="10.765514353639475"><ele>89.5</ele><time>2026-04-04T09:06:23.001Z</time></trkpt><trkpt lat="43.456603755689414" lon="10.765732883274902"><ele>90.0</ele><time>2026-04-04T09:06:24.001Z</time></trkpt><trkpt lat="43.45643012279769" lon="10.765926817841821"><ele>90.66666666666667</ele><time>2026-04-04T09:06:25.001Z</time></trkpt><trkpt lat="43.45626982416161" lon="10.766107081044268"><ele>91.33333333333334</ele><time>2026-04-04T09:06:26.001Z</time></trkpt><trkpt lat="43.456117876969955" lon="10.766277688319564"><ele>92.0</ele><time>2026-04-04T09:06:27.001Z</time></trkpt><trkpt lat="43.455973896461366" lon="10.766439739118082"><ele>92.0</ele><time>2026-04-04T09:06:28.001Z</time></trkpt><trkpt lat="43.455843711087056" lon="10.766585848373836"><ele>92.0</ele><time>2026-04-04T09:06:29.001Z</time></trkpt><trkpt lat="43.45572241157417" lon="10.76672268974046"><ele>92.0</ele><time>2026-04-04T09:06:30.001Z</time></trkpt><trkpt lat="43.455610409904224" lon="10.766850144616548"><ele>91.66666666666667</ele><time>2026-04-04T09:06:31.001Z</time></trkpt><trkpt lat="43.45549719390582" lon="10.766980155372233"><ele>91.33333333333333</ele><time>2026-04-04T09:06:32.001Z</time></trkpt><trkpt lat="43.45537845176706" lon="10.767117623797093"><ele>91.0</ele><time>2026-04-04T09:06:33.001Z</time></trkpt><trkpt lat="43.45525666988091" lon="10.767257175680632"><ele>92.33333333333333</ele><time>2026-04-04T09:06:34.001Z</time></trkpt><trkpt lat="43.45513227078102" lon="10.767397849616458"><ele>93.66666666666667</ele><time>2026-04-04T09:06:35.001Z</time></trkpt><trkpt lat="43.455010129145215" lon="10.767537568932775"><ele>95.0</ele><time>2026-04-04T09:06:36.001Z</time></trkpt><trkpt lat="43.454897945745536" lon="10.767665554381216"><ele>95.25</ele><time>2026-04-04T09:06:37.001Z</time></trkpt><trkpt lat="43.45478939039934" lon="10.76778851744795"><ele>95.5</ele><time>2026-04-04T09:06:38.001Z</time></trkpt><trkpt lat="43.45467777334338" lon="10.767910475883868"><ele>95.75</ele><time>2026-04-04T09:06:39.001Z</time></trkpt><trkpt lat="43.45455610793402" lon="10.768029983668761"><ele>96.0</ele><time>2026-04-04T09:06:40.001Z</time></trkpt><trkpt lat="43.454421143709986" lon="10.76814189191428"><ele>96.0</ele><time>2026-04-04T09:06:41.001Z</time></trkpt><trkpt lat="43.454272026313035" lon="10.768239613350493"><ele>96.0</ele><time>2026-04-04T09:06:42.001Z</time></trkpt><trkpt lat="43.454120022807736" lon="10.768326424151724"><ele>96.0</ele><time>2026-04-04T09:06:43.001Z</time></trkpt><trkpt lat="43.45396106693081" lon="10.768416634965165"><ele>96.33333333333334</ele><time>2026-04-04T09:06:44.001Z</time></trkpt><trkpt lat="43.453779511889884" lon="10.768528538261481"><ele>96.66666666666667</ele><time>2026-04-04T09:06:45.001Z</time></trkpt><trkpt lat="43.4535674530417" lon="10.768650702569227"><ele>97.0</ele><time>2026-04-04T09:06:46.001Z</time></trkpt><trkpt lat="43.453330174535864" lon="10.768777379010446"><ele>97.0</ele><time>2026-04-04T09:06:47.001Z</time></trkpt><trkpt lat="43.45307885277264" lon="10.768923833120795"><ele>97.0</ele><time>2026-04-04T09:06:48.001Z</time></trkpt><trkpt lat="43.452845557945125" lon="10.769054259948442"><ele>97.66666666666667</ele><time>2026-04-04T09:06:49.001Z</time></trkpt><trkpt lat="43.45263475986575" lon="10.769167133123558"><ele>98.33333333333334</ele><time>2026-04-04T09:06:50.001Z</time></trkpt><trkpt lat="43.45243563131" lon="10.76925806751283"><ele>99.0</ele><time>2026-04-04T09:06:51.001Z</time></trkpt><trkpt lat="43.45224607847053" lon="10.769349003740453"><ele>99.0</ele><time>2026-04-04T09:06:52.001Z</time></trkpt><trkpt lat="43.45207288566426" lon="10.769449166863769"><ele>99.0</ele><time>2026-04-04T09:06:53.001Z</time></trkpt><trkpt lat="43.45191510504631" lon="10.769541685363908"><ele>99.0</ele><time>2026-04-04T09:06:54.001Z</time></trkpt><trkpt lat="43.451761357740644" lon="10.769626159199674"><ele>99.0</ele><time>2026-04-04T09:06:55.001Z</time></trkpt><trkpt lat="43.45160995854912" lon="10.769709180216166"><ele>99.0</ele><time>2026-04-04T09:06:56.001Z</time></trkpt><trkpt lat="43.4514591225734" lon="10.769792781703051"><ele>99.0</ele><time>2026-04-04T09:06:57.001Z</time></trkpt><trkpt lat="43.45130372629172" lon="10.76987920101446"><ele>99.66666666666666</ele><time>2026-04-04T09:06:58.001Z</time></trkpt><trkpt lat="43.45114354955436" lon="10.769969098251805"><ele>100.33333333333333</ele><time>2026-04-04T09:06:59.001Z</time></trkpt><trkpt lat="43.450986484432505" lon="10.770060603273437"><ele>101.0</ele><time>2026-04-04T09:07:00.001Z</time></trkpt><trkpt lat="43.450828632613515" lon="10.77015238318777"><ele>101.0</ele><time>2026-04-04T09:07:01.001Z</time></trkpt><trkpt lat="43.45067494568977" lon="10.770239850386401"><ele>101.0</ele><time>2026-04-04T09:07:02Z</time></trkpt><trkpt lat="43.450528400310986" lon="10.770321271200789"><ele>101.0</ele><time>2026-04-04T09:07:03Z</time></trkpt><trkpt lat="43.45038802186865" lon="10.770399441141617"><ele>101.0</ele><time>2026-04-04T09:07:04Z</time></trkpt><trkpt lat="43.45025363451036" lon="10.770474447910397"><ele>101.0</ele><time>2026-04-04T09:07:05Z</time></trkpt><trkpt lat="43.45012836627124" lon="10.770546487768977"><ele>101.0</ele><time>2026-04-04T09:07:06Z</time></trkpt><trkpt lat="43.45002187974729" lon="10.770652627384013"><ele>101.0</ele><time>2026-04-04T09:07:07Z</time></trkpt><trkpt lat="43.44994992129557" lon="10.770815167505102"><ele>101.0</ele><time>2026-04-04T09:07:08Z</time></trkpt><trkpt lat="43.44991722126784" lon="10.77101142613082"><ele>101.0</ele><time>2026-04-04T09:07:09Z</time></trkpt><trkpt lat="43.449924836427364" lon="10.771250891863312"><ele>101.0</ele><time>2026-04-04T09:07:10Z</time></trkpt><trkpt lat="43.449952993404615" lon="10.771506240589863"><ele>100.5</ele><time>2026-04-04T09:07:11Z</time></trkpt><trkpt lat="43.44996905629193" lon="10.771720624268976"><ele>100.0</ele><time>2026-04-04T09:07:12Z</time></trkpt><trkpt lat="43.44997290698098" lon="10.771902547029717"><ele>99.5</ele><time>2026-04-04T09:07:13Z</time></trkpt><trkpt lat="43.44995567267544" lon="10.772072749795425"><ele>99.0</ele><time>2026-04-04T09:07:14Z</time></trkpt><trkpt lat="43.44990113126642" lon="10.77221591085228"><ele>98.75</ele><time>2026-04-04T09:07:15Z</time></trkpt><trkpt lat="43.44980668097026" lon="10.772316582564839"><ele>98.5</ele><time>2026-04-04T09:07:16Z</time></trkpt><trkpt lat="43.44967671689443" lon="10.772367039362459"><ele>98.25</ele><time>2026-04-04T09:07:17Z</time></trkpt><trkpt lat="43.44951783011181" lon="10.772362671699824"><ele>98.0</ele><time>2026-04-04T09:07:18Z</time></trkpt><trkpt lat="43.44934258905271" lon="10.772312757270265"><ele>99.33333333333333</ele><time>2026-04-04T09:07:19Z</time></trkpt><trkpt lat="43.449150937211165" lon="10.772265459668668"><ele>100.66666666666666</ele><time>2026-04-04T09:07:20Z</time></trkpt><trkpt lat="43.44896281166989" lon="10.772218012929084"><ele>102.0</ele><time>2026-04-04T09:07:21Z</time></trkpt><trkpt lat="43.44878255865362" lon="10.772183425424869"><ele>104.33333333333334</ele><time>2026-04-04T09:07:22Z</time></trkpt><trkpt lat="43.44861364260733" lon="10.77217372291427"><ele>106.66666666666667</ele><time>2026-04-04T09:07:23Z</time></trkpt><trkpt lat="43.448452640276265" lon="10.772181732180439"><ele>109.0</ele><time>2026-04-04T09:07:24Z</time></trkpt><trkpt lat="43.44829704385089" lon="10.77220452509166"><ele>109.0</ele><time>2026-04-04T09:07:25Z</time></trkpt><trkpt lat="43.448141112293236" lon="10.772239640031543"><ele>109.0</ele><time>2026-04-04T09:07:26Z</time></trkpt><trkpt lat="43.4479762595648" lon="10.772265142900851"><ele>109.0</ele><time>2026-04-04T09:07:27Z</time></trkpt><trkpt lat="43.4478084493178" lon="10.772292997043857"><ele>109.0</ele><time>2026-04-04T09:07:28Z</time></trkpt><trkpt lat="43.447645428236434" lon="10.772324075776963"><ele>109.0</ele><time>2026-04-04T09:07:29Z</time></trkpt><trkpt lat="43.44747605264262" lon="10.772355199942188"><ele>109.0</ele><time>2026-04-04T09:07:30Z</time></trkpt><trkpt lat="43.44729931594405" lon="10.772387355152018"><ele>108.66666666666667</ele><time>2026-04-04T09:07:31Z</time></trkpt><trkpt lat="43.447117482237886" lon="10.772420297860164"><ele>108.33333333333334</ele><time>2026-04-04T09:07:32Z</time></trkpt><trkpt lat="43.446942665003505" lon="10.772451305123278"><ele>108.0</ele><time>2026-04-04T09:07:33Z</time></trkpt><trkpt lat="43.44676427385694" lon="10.772480041279149"><ele>108.0</ele><time>2026-04-04T09:07:34Z</time></trkpt><trkpt lat="43.44658651775436" lon="10.772508179013506"><ele>108.0</ele><time>2026-04-04T09:07:35Z</time></trkpt><trkpt lat="43.44641154559533" lon="10.772534261589168"><ele>108.0</ele><time>2026-04-04T09:07:36.001Z</time></trkpt><trkpt lat="43.44623096026372" lon="10.772560274533184"><ele>108.33333333333334</ele><time>2026-04-04T09:07:37.001Z</time></trkpt><trkpt lat="43.44604654967836" lon="10.772582100578324"><ele>108.66666666666667</ele><time>2026-04-04T09:07:38.001Z</time></trkpt><trkpt lat="43.445865651848024" lon="10.772598601626276"><ele>109.0</ele><time>2026-04-04T09:07:39.001Z</time></trkpt><trkpt lat="43.44568497912725" lon="10.772612532295488"><ele>109.0</ele><time>2026-04-04T09:07:40.001Z</time></trkpt><trkpt lat="43.445504363702575" lon="10.772625655709474"><ele>109.0</ele><time>2026-04-04T09:07:41.001Z</time></trkpt><trkpt lat="43.44532327025628" lon="10.772639077405483"><ele>109.0</ele><time>2026-04-04T09:07:42.001Z</time></trkpt><trkpt lat="43.44514113525699" lon="10.772650542251425"><ele>109.66666666666667</ele><time>2026-04-04T09:07:43.001Z</time></trkpt><trkpt lat="43.44496258927978" lon="10.772661842724583"><ele>110.33333333333334</ele><time>2026-04-04T09:07:44.001Z</time></trkpt><trkpt lat="43.4447809550677" lon="10.772677356780461"><ele>111.0</ele><time>2026-04-04T09:07:45.001Z</time></trkpt><trkpt lat="43.44459913911111" lon="10.772692160832682"><ele>109.66666666666666</ele><time>2026-04-04T09:07:46.001Z</time></trkpt><trkpt lat="43.44441636289449" lon="10.77270675164074"><ele>108.33333333333333</ele><time>2026-04-04T09:07:47.001Z</time></trkpt><trkpt lat="43.44423107403665" lon="10.772722394213567"><ele>107.0</ele><time>2026-04-04T09:07:48.001Z</time></trkpt><trkpt lat="43.44404823877492" lon="10.772732314808556"><ele>107.0</ele><time>2026-04-04T09:07:49.001Z</time></trkpt><trkpt lat="43.44386863807441" lon="10.772742408853555"><ele>107.0</ele><time>2026-04-04T09:07:50.001Z</time></trkpt><trkpt lat="43.44368731258286" lon="10.772748193109882"><ele>107.0</ele><time>2026-04-04T09:07:51.001Z</time></trkpt><trkpt lat="43.443502265315466" lon="10.772730762462228"><ele>109.33333333333333</ele><time>2026-04-04T09:07:52.001Z</time></trkpt><trkpt lat="43.44330625945533" lon="10.772679956883694"><ele>111.66666666666666</ele><time>2026-04-04T09:07:53.001Z</time></trkpt><trkpt lat="43.44310630692568" lon="10.772605423857838"><ele>114.0</ele><time>2026-04-04T09:07:54.001Z</time></trkpt><trkpt lat="43.44290219842532" lon="10.772520507235964"><ele>114.33333333333334</ele><time>2026-04-04T09:07:55.001Z</time></trkpt><trkpt lat="43.44269373107774" lon="10.772432771112236"><ele>114.66666666666667</ele><time>2026-04-04T09:07:56.001Z</time></trkpt><trkpt lat="43.44248515574056" lon="10.77234576444829"><ele>115.0</ele><time>2026-04-04T09:07:57.001Z</time></trkpt><trkpt lat="43.44238505846713" lon="10.772288483752899"><ele>115.0</ele><time>2026-04-04T09:07:58.001Z</time></trkpt><trkpt lat="43.442210716026054" lon="10.772207142514215"><ele>115.0</ele><time>2026-04-04T09:07:59.001Z</time></trkpt><trkpt lat="43.44203340471704" lon="10.772132665887572"><ele>115.0</ele><time>2026-04-04T09:08:00.001Z</time></trkpt><trkpt lat="43.441854867505924" lon="10.772060985354052"><ele>114.33333333333334</ele><time>2026-04-04T09:08:01.001Z</time></trkpt><trkpt lat="43.44168003094902" lon="10.771990019457386"><ele>113.66666666666666</ele><time>2026-04-04T09:08:02.001Z</time></trkpt><trkpt lat="43.44150743992469" lon="10.771919676639568"><ele>113.0</ele><time>2026-04-04T09:08:03.001Z</time></trkpt><trkpt lat="43.44133857584185" lon="10.771848740145106"><ele>114.66666666666666</ele><time>2026-04-04T09:08:04.001Z</time></trkpt><trkpt lat="43.44116624797358" lon="10.771777541725644"><ele>116.33333333333334</ele><time>2026-04-04T09:08:05.001Z</time></trkpt><trkpt lat="43.44099453560773" lon="10.771706120482119"><ele>118.0</ele><time>2026-04-04T09:08:06.001Z</time></trkpt><trkpt lat="43.44082171721495" lon="10.771640377495912"><ele>118.0</ele><time>2026-04-04T09:08:07.001Z</time></trkpt><trkpt lat="43.44065308344367" lon="10.771578225391904"><ele>118.0</ele><time>2026-04-04T09:08:08.001Z</time></trkpt><trkpt lat="43.4404828949976" lon="10.771505528250389"><ele>118.0</ele><time>2026-04-04T09:08:09.001Z</time></trkpt><trkpt lat="43.44039760789068" lon="10.771431546997285"><ele>118.33333333333334</ele><time>2026-04-04T09:08:10.001Z</time></trkpt><trkpt lat="43.44026223421287" lon="10.771306435310638"><ele>118.66666666666666</ele><time>2026-04-04T09:08:11.001Z</time></trkpt><trkpt lat="43.44013765776373" lon="10.771143737013976"><ele>119.0</ele><time>2026-04-04T09:08:12.001Z</time></trkpt><trkpt lat="43.44002378753364" lon="10.770969194288938"><ele>119.0</ele><time>2026-04-04T09:08:13.001Z</time></trkpt><trkpt lat="43.43990978333436" lon="10.770796551772644"><ele>119.0</ele><time>2026-04-04T09:08:14.001Z</time></trkpt><trkpt lat="43.43978930968123" lon="10.770629953402263"><ele>119.0</ele><time>2026-04-04T09:08:15.001Z</time></trkpt><trkpt lat="43.43966574240303" lon="10.77046314777045"><ele>119.66666666666666</ele><time>2026-04-04T09:08:16.001Z</time></trkpt><trkpt lat="43.439543303863125" lon="10.770294545921203"><ele>120.33333333333334</ele><time>2026-04-04T09:08:17.001Z</time></trkpt><trkpt lat="43.43941847270131" lon="10.770122883306252"><ele>121.0</ele><time>2026-04-04T09:08:18.001Z</time></trkpt><trkpt lat="43.43929354440616" lon="10.76995548796972"><ele>121.0</ele><time>2026-04-04T09:08:19.001Z</time></trkpt><trkpt lat="43.439170513931415" lon="10.76978918604086"><ele>121.0</ele><time>2026-04-04T09:08:20.001Z</time></trkpt><trkpt lat="43.439044170053904" lon="10.76962014806555"><ele>121.0</ele><time>2026-04-04T09:08:21.001Z</time></trkpt><trkpt lat="43.43891712167731" lon="10.769452296023688"><ele>121.66666666666667</ele><time>2026-04-04T09:08:22.001Z</time></trkpt><trkpt lat="43.43879239001382" lon="10.769283812860184"><ele>122.33333333333334</ele><time>2026-04-04T09:08:23.001Z</time></trkpt><trkpt lat="43.43866669410333" lon="10.769115870199178"><ele>123.0</ele><time>2026-04-04T09:08:24.001Z</time></trkpt><trkpt lat="43.43854042715654" lon="10.7689513138784"><ele>123.0</ele><time>2026-04-04T09:08:25.001Z</time></trkpt><trkpt lat="43.43842019207169" lon="10.768785259962057"><ele>123.0</ele><time>2026-04-04T09:08:26.001Z</time></trkpt><trkpt lat="43.438297272765155" lon="10.768619598834606"><ele>123.0</ele><time>2026-04-04T09:08:27.001Z</time></trkpt><trkpt lat="43.43816896433593" lon="10.768450743025177"><ele>123.66666666666666</ele><time>2026-04-04T09:08:28.001Z</time></trkpt><trkpt lat="43.43804440827161" lon="10.76828744103694"><ele>124.33333333333333</ele><time>2026-04-04T09:08:29.001Z</time></trkpt><trkpt lat="43.437917131155274" lon="10.768118528312067"><ele>125.0</ele><time>2026-04-04T09:08:30.001Z</time></trkpt><trkpt lat="43.437786835514174" lon="10.767950092354832"><ele>125.0</ele><time>2026-04-04T09:08:31.001Z</time></trkpt><trkpt lat="43.437657652497386" lon="10.767779467032742"><ele>125.0</ele><time>2026-04-04T09:08:32.001Z</time></trkpt><trkpt lat="43.437533467771246" lon="10.767606319184589"><ele>125.0</ele><time>2026-04-04T09:08:33.001Z</time></trkpt><trkpt lat="43.43740893195878" lon="10.767434058543234"><ele>124.66666666666666</ele><time>2026-04-04T09:08:34.001Z</time></trkpt><trkpt lat="43.43728291945192" lon="10.767264052330248"><ele>124.33333333333334</ele><time>2026-04-04T09:08:35.001Z</time></trkpt><trkpt lat="43.437150246739456" lon="10.767091488570866"><ele>124.0</ele><time>2026-04-04T09:08:36.001Z</time></trkpt><trkpt lat="43.4370203792894" lon="10.76690438038465"><ele>124.66666666666667</ele><time>2026-04-04T09:08:37.001Z</time></trkpt><trkpt lat="43.436901968082424" lon="10.766704266230706"><ele>125.33333333333334</ele><time>2026-04-04T09:08:38.001Z</time></trkpt><trkpt lat="43.43679418004583" lon="10.766464576825017"><ele>126.0</ele><time>2026-04-04T09:08:39.001Z</time></trkpt><trkpt lat="43.43669256353989" lon="10.766182690815889"><ele>125.66666666666666</ele><time>2026-04-04T09:08:40.001Z</time></trkpt><trkpt lat="43.436598421251794" lon="10.765912216671417"><ele>125.33333333333333</ele><time>2026-04-04T09:08:41.001Z</time></trkpt><trkpt lat="43.43651160019888" lon="10.765671814150595"><ele>125.0</ele><time>2026-04-04T09:08:42.001Z</time></trkpt><trkpt lat="43.43642484713496" lon="10.765445972011404"><ele>125.0</ele><time>2026-04-04T09:08:43.001Z</time></trkpt><trkpt lat="43.436338810176565" lon="10.765224424194992"><ele>125.0</ele><time>2026-04-04T09:08:44.001Z</time></trkpt><trkpt lat="43.436253901469414" lon="10.76500502501133"><ele>125.0</ele><time>2026-04-04T09:08:45.001Z</time></trkpt><trkpt lat="43.436169645110176" lon="10.764777209551452"><ele>127.0</ele><time>2026-04-04T09:08:46.001Z</time></trkpt><trkpt lat="43.43608637128117" lon="10.764556829935968"><ele>129.0</ele><time>2026-04-04T09:08:47.001Z</time></trkpt><trkpt lat="43.43600203129986" lon="10.764339315460507"><ele>131.0</ele><time>2026-04-04T09:08:48.001Z</time></trkpt><trkpt lat="43.43591880028094" lon="10.76412844847608"><ele>131.0</ele><time>2026-04-04T09:08:49.001Z</time></trkpt><trkpt lat="43.43583455744787" lon="10.763913284966938"><ele>131.0</ele><time>2026-04-04T09:08:50.001Z</time></trkpt><trkpt lat="43.4357491249699" lon="10.763695034795333"><ele>131.0</ele><time>2026-04-04T09:08:51.001Z</time></trkpt><trkpt lat="43.43566608560066" lon="10.763477075234533"><ele>130.33333333333331</ele><time>2026-04-04T09:08:52.001Z</time></trkpt><trkpt lat="43.43558163251937" lon="10.763264752014765"><ele>129.66666666666666</ele><time>2026-04-04T09:08:53.001Z</time></trkpt><trkpt lat="43.43549354198311" lon="10.763051206930148"><ele>129.0</ele><time>2026-04-04T09:08:54.001Z</time></trkpt><trkpt lat="43.435409334524415" lon="10.762829463184357"><ele>130.33333333333334</ele><time>2026-04-04T09:08:55.001Z</time></trkpt><trkpt lat="43.435325843457484" lon="10.762606991826088"><ele>131.66666666666669</ele><time>2026-04-04T09:08:56.001Z</time></trkpt><trkpt lat="43.43523950778109" lon="10.762384571863377"><ele>133.0</ele><time>2026-04-04T09:08:57.001Z</time></trkpt><trkpt lat="43.43515298880518" lon="10.76215702788757"><ele>133.0</ele><time>2026-04-04T09:08:58.001Z</time></trkpt><trkpt lat="43.43506638896482" lon="10.761926082251351"><ele>133.0</ele><time>2026-04-04T09:08:59.001Z</time></trkpt><trkpt lat="43.43497870869118" lon="10.761697529284815"><ele>133.0</ele><time>2026-04-04T09:09:00.001Z</time></trkpt><trkpt lat="43.43489378642529" lon="10.761473146568669"><ele>132.66666666666669</ele><time>2026-04-04T09:09:01.001Z</time></trkpt><trkpt lat="43.434807974108146" lon="10.76125244167575"><ele>132.33333333333334</ele><time>2026-04-04T09:09:02.001Z</time></trkpt><trkpt lat="43.43472062627244" lon="10.761035726987329"><ele>132.0</ele><time>2026-04-04T09:09:03.001Z</time></trkpt><trkpt lat="43.43462306904947" lon="10.760840600056248"><ele>133.66666666666666</ele><time>2026-04-04T09:09:04.001Z</time></trkpt><trkpt lat="43.434491466871435" lon="10.760656749744104"><ele>135.33333333333331</ele><time>2026-04-04T09:09:05.001Z</time></trkpt><trkpt lat="43.4343232352109" lon="10.760461581726684"><ele>137.0</ele><time>2026-04-04T09:09:06.001Z</time></trkpt><trkpt lat="43.43416701215781" lon="10.760280389177618"><ele>136.0</ele><time>2026-04-04T09:09:07.001Z</time></trkpt><trkpt lat="43.434032168038996" lon="10.760119316279802"><ele>135.0</ele><time>2026-04-04T09:09:08.001Z</time></trkpt><trkpt lat="43.43390456194362" lon="10.759966765352956"><ele>134.0</ele><time>2026-04-04T09:09:09.001Z</time></trkpt><trkpt lat="43.43377889888981" lon="10.759822131611948"><ele>136.0</ele><time>2026-04-04T09:09:10.001Z</time></trkpt><trkpt lat="43.433644740772024" lon="10.75969676711193"><ele>138.0</ele><time>2026-04-04T09:09:11.001Z</time></trkpt><trkpt lat="43.433482013975414" lon="10.759601301822912"><ele>140.0</ele><time>2026-04-04T09:09:12.001Z</time></trkpt><trkpt lat="43.4332861938473" lon="10.759528195986446"><ele>140.0</ele><time>2026-04-04T09:09:13.001Z</time></trkpt><trkpt lat="43.433085950616935" lon="10.759466066568626"><ele>140.0</ele><time>2026-04-04T09:09:14.001Z</time></trkpt><trkpt lat="43.432911135236665" lon="10.75941164443057"><ele>140.0</ele><time>2026-04-04T09:09:15.001Z</time></trkpt><trkpt lat="43.432755337857024" lon="10.759361851599808"><ele>139.33333333333331</ele><time>2026-04-04T09:09:16.001Z</time></trkpt><trkpt lat="43.43260743151088" lon="10.759327062249413"><ele>138.66666666666666</ele><time>2026-04-04T09:09:17.001Z</time></trkpt><trkpt lat="43.43246016197784" lon="10.759305247992275"><ele>138.0</ele><time>2026-04-04T09:09:18.001Z</time></trkpt><trkpt lat="43.432308565231246" lon="10.759293665669068"><ele>138.0</ele><time>2026-04-04T09:09:19.001Z</time></trkpt><trkpt lat="43.4321531078265" lon="10.7592944989145"><ele>138.0</ele><time>2026-04-04T09:09:20.001Z</time></trkpt><trkpt lat="43.43199438188331" lon="10.759320665930572"><ele>138.0</ele><time>2026-04-04T09:09:21.001Z</time></trkpt><trkpt lat="43.43183386431489" lon="10.75937397567479"><ele>142.33333333333334</ele><time>2026-04-04T09:09:22.001Z</time></trkpt><trkpt lat="43.43167995153891" lon="10.759429429543912"><ele>146.66666666666669</ele><time>2026-04-04T09:09:23.001Z</time></trkpt><trkpt lat="43.43153047731365" lon="10.759474661021757"><ele>151.0</ele><time>2026-04-04T09:09:24.001Z</time></trkpt><trkpt lat="43.43138215869137" lon="10.759521603014012"><ele>150.33333333333334</ele><time>2026-04-04T09:09:25.001Z</time></trkpt><trkpt lat="43.43123002898873" lon="10.759569282126435"><ele>149.66666666666666</ele><time>2026-04-04T09:09:26.001Z</time></trkpt><trkpt lat="43.43107602708235" lon="10.759615164987512"><ele>149.0</ele><time>2026-04-04T09:09:27.001Z</time></trkpt><trkpt lat="43.43091338200339" lon="10.759662507015237"><ele>149.0</ele><time>2026-04-04T09:09:28.001Z</time></trkpt><trkpt lat="43.43074447855457" lon="10.759715148060632"><ele>149.0</ele><time>2026-04-04T09:09:29.001Z</time></trkpt><trkpt lat="43.43056988551961" lon="10.759771316174358"><ele>149.0</ele><time>2026-04-04T09:09:30.001Z</time></trkpt><trkpt lat="43.430383165539006" lon="10.759822736887333"><ele>148.33333333333331</ele><time>2026-04-04T09:09:31.001Z</time></trkpt><trkpt lat="43.430183926998716" lon="10.759814902110257"><ele>147.66666666666666</ele><time>2026-04-04T09:09:32.001Z</time></trkpt><trkpt lat="43.429966077576566" lon="10.75973823274151"><ele>147.0</ele><time>2026-04-04T09:09:33.001Z</time></trkpt><trkpt lat="43.4297646594705" lon="10.759636858795448"><ele>148.66666666666666</ele><time>2026-04-04T09:09:34.001Z</time></trkpt><trkpt lat="43.42959393181654" lon="10.759557088594514"><ele>150.33333333333331</ele><time>2026-04-04T09:09:35.001Z</time></trkpt><trkpt lat="43.42943844169064" lon="10.759502123325953"><ele>152.0</ele><time>2026-04-04T09:09:36.001Z</time></trkpt><trkpt lat="43.429285859983594" lon="10.759493374971939"><ele>152.0</ele><time>2026-04-04T09:09:37.001Z</time></trkpt><trkpt lat="43.42913435556455" lon="10.759543428320473"><ele>152.0</ele><time>2026-04-04T09:09:38.001Z</time></trkpt><trkpt lat="43.428980001278745" lon="10.759660716049805"><ele>152.0</ele><time>2026-04-04T09:09:39.001Z</time></trkpt><trkpt lat="43.4288300307313" lon="10.759839788478317"><ele>154.0</ele><time>2026-04-04T09:09:40.001Z</time></trkpt><trkpt lat="43.42868537091688" lon="10.76003830176137"><ele>156.0</ele><time>2026-04-04T09:09:41.001Z</time></trkpt><trkpt lat="43.42855644796353" lon="10.760193845483478"><ele>158.0</ele><time>2026-04-04T09:09:42.001Z</time></trkpt><trkpt lat="43.42841414427917" lon="10.760288076511584"><ele>158.0</ele><time>2026-04-04T09:09:43.001Z</time></trkpt><trkpt lat="43.428267539428774" lon="10.760330263277137"><ele>158.0</ele><time>2026-04-04T09:09:44.001Z</time></trkpt><trkpt lat="43.42813282628603" lon="10.760340542374752"><ele>158.0</ele><time>2026-04-04T09:09:45.001Z</time></trkpt><trkpt lat="43.42801651545449" lon="10.760412845420124"><ele>158.0</ele><time>2026-04-04T09:09:46.001Z</time></trkpt><trkpt lat="43.42792121656108" lon="10.76056423474563"><ele>156.33333333333331</ele><time>2026-04-04T09:09:47.001Z</time></trkpt><trkpt lat="43.42784739201605" lon="10.760781680656159"><ele>154.66666666666666</ele><time>2026-04-04T09:09:48.001Z</time></trkpt><trkpt lat="43.42776759495326" lon="10.761014742277924"><ele>153.0</ele><time>2026-04-04T09:09:49.001Z</time></trkpt><trkpt lat="43.4276737671337" lon="10.761209637121187"><ele>153.0</ele><time>2026-04-04T09:09:50.001Z</time></trkpt><trkpt lat="43.427580313439336" lon="10.761385431600077"><ele>153.0</ele><time>2026-04-04T09:09:51.001Z</time></trkpt><trkpt lat="43.42750071430763" lon="10.761565534362568"><ele>153.0</ele><time>2026-04-04T09:09:52.001Z</time></trkpt><trkpt lat="43.42745192203719" lon="10.761762217603922"><ele>153.25</ele><time>2026-04-04T09:09:53.001Z</time></trkpt><trkpt lat="43.427435002178846" lon="10.76196013116661"><ele>153.5</ele><time>2026-04-04T09:09:54.001Z</time></trkpt><trkpt lat="43.42744853337863" lon="10.76215311515077"><ele>153.75</ele><time>2026-04-04T09:09:55.001Z</time></trkpt><trkpt lat="43.42748252742756" lon="10.762334735469693"><ele>154.0</ele><time>2026-04-04T09:09:56.001Z</time></trkpt><trkpt lat="43.4275041119274" lon="10.76250513592965"><ele>154.0</ele><time>2026-04-04T09:09:57.001Z</time></trkpt><trkpt lat="43.427491118964475" lon="10.762665525436597"><ele>154.0</ele><time>2026-04-04T09:09:58.001Z</time></trkpt><trkpt lat="43.427435845295626" lon="10.76280335827213"><ele>154.0</ele><time>2026-04-04T09:09:59.001Z</time></trkpt><trkpt lat="43.42734328850051" lon="10.762906772898992"><ele>154.0</ele><time>2026-04-04T09:10:00.001Z</time></trkpt><trkpt lat="43.42720642778392" lon="10.762977426715112"><ele>151.75</ele><time>2026-04-04T09:10:01.001Z</time></trkpt><trkpt lat="43.427056619042396" lon="10.76303999297724"><ele>149.5</ele><time>2026-04-04T09:10:02.001Z</time></trkpt><trkpt lat="43.426927677778366" lon="10.763088670059528"><ele>147.25</ele><time>2026-04-04T09:10:03.001Z</time></trkpt><trkpt lat="43.426824668189546" lon="10.76314901318979"><ele>145.0</ele><time>2026-04-04T09:10:04.001Z</time></trkpt><trkpt lat="43.426740438324856" lon="10.763238138978721"><ele>145.0</ele><time>2026-04-04T09:10:05.001Z</time></trkpt><trkpt lat="43.42667583321444" lon="10.763361461171316"><ele>145.0</ele><time>2026-04-04T09:10:06.001Z</time></trkpt><trkpt lat="43.42662991593433" lon="10.763517012365973"><ele>145.0</ele><time>2026-04-04T09:10:07.001Z</time></trkpt><trkpt lat="43.42660299547704" lon="10.763669427376792"><ele>145.0</ele><time>2026-04-04T09:10:08.001Z</time></trkpt><trkpt lat="43.42658846302992" lon="10.763813575436433"><ele>145.6</ele><time>2026-04-04T09:10:09.001Z</time></trkpt><trkpt lat="43.426584063210726" lon="10.763958321981825"><ele>146.2</ele><time>2026-04-04T09:10:10.001Z</time></trkpt><trkpt lat="43.42655701763062" lon="10.764102688658221"><ele>146.8</ele><time>2026-04-04T09:10:11.001Z</time></trkpt><trkpt lat="43.42647868834214" lon="10.764210542119246"><ele>147.4</ele><time>2026-04-04T09:10:12.001Z</time></trkpt><trkpt lat="43.42636595123195" lon="10.764264053002984"><ele>148.0</ele><time>2026-04-04T09:10:13.001Z</time></trkpt><trkpt lat="43.42625667271412" lon="10.764315777237941"><ele>145.0</ele><time>2026-04-04T09:10:14.001Z</time></trkpt><trkpt lat="43.426171223176254" lon="10.764434991763682"><ele>142.0</ele><time>2026-04-04T09:10:15.001Z</time></trkpt><trkpt lat="43.42611870107749" lon="10.764600605088239"><ele>139.0</ele><time>2026-04-04T09:10:16.001Z</time></trkpt><trkpt lat="43.42610204598642" lon="10.764780693047774"><ele>136.0</ele><time>2026-04-04T09:10:17.001Z</time></trkpt><trkpt lat="43.426117294620404" lon="10.764952468595313"><ele>136.0</ele><time>2026-04-04T09:10:18.001Z</time></trkpt><trkpt lat="43.4261369685362" lon="10.765107038634197"><ele>136.0</ele><time>2026-04-04T09:10:19.001Z</time></trkpt><trkpt lat="43.426137351131224" lon="10.76525470374248"><ele>136.0</ele><time>2026-04-04T09:10:20.001Z</time></trkpt><trkpt lat="43.42610786087256" lon="10.765415493859598"><ele>136.0</ele><time>2026-04-04T09:10:21.001Z</time></trkpt><trkpt lat="43.42604045607489" lon="10.765573222448788"><ele>136.0</ele><time>2026-04-04T09:10:22.001Z</time></trkpt><trkpt lat="43.42592756395922" lon="10.765714265121836"><ele>136.0</ele><time>2026-04-04T09:10:23.001Z</time></trkpt><trkpt lat="43.425795425485774" lon="10.765845661476954"><ele>136.0</ele><time>2026-04-04T09:10:24.001Z</time></trkpt><trkpt lat="43.425681045293445" lon="10.766006280048734"><ele>137.66666666666669</ele><time>2026-04-04T09:10:25.001Z</time></trkpt><trkpt lat="43.42559289732369" lon="10.766212646089159"><ele>139.33333333333334</ele><time>2026-04-04T09:10:26.001Z</time></trkpt><trkpt lat="43.425518483761806" lon="10.766423363048718"><ele>141.0</ele><time>2026-04-04T09:10:27.001Z</time></trkpt><trkpt lat="43.42544577278257" lon="10.766624245257255"><ele>137.0</ele><time>2026-04-04T09:10:28.001Z</time></trkpt><trkpt lat="43.42536996024528" lon="10.766826003703674"><ele>133.0</ele><time>2026-04-04T09:10:29.001Z</time></trkpt><trkpt lat="43.42529198394137" lon="10.767026639111638"><ele>129.0</ele><time>2026-04-04T09:10:30.001Z</time></trkpt><trkpt lat="43.425214650607636" lon="10.767227008637681"><ele>129.0</ele><time>2026-04-04T09:10:31.001Z</time></trkpt><trkpt lat="43.425139904755255" lon="10.767431960077918"><ele>129.0</ele><time>2026-04-04T09:10:32.001Z</time></trkpt><trkpt lat="43.4250604270402" lon="10.76763420702609"><ele>129.0</ele><time>2026-04-04T09:10:33.001Z</time></trkpt><trkpt lat="43.424953521629085" lon="10.767828390950672"><ele>127.66666666666666</ele><time>2026-04-04T09:10:34.001Z</time></trkpt><trkpt lat="43.42482319175932" lon="10.767987572399031"><ele>126.33333333333333</ele><time>2026-04-04T09:10:35.001Z</time></trkpt><trkpt lat="43.424685205418484" lon="10.768110707244325"><ele>125.0</ele><time>2026-04-04T09:10:36.001Z</time></trkpt><trkpt lat="43.42455898861779" lon="10.768227250041551"><ele>125.0</ele><time>2026-04-04T09:10:37.001Z</time></trkpt><trkpt lat="43.424452284532464" lon="10.768355201457949"><ele>125.0</ele><time>2026-04-04T09:10:38.001Z</time></trkpt><trkpt lat="43.42435228543389" lon="10.768495282460313"><ele>125.0</ele><time>2026-04-04T09:10:39.001Z</time></trkpt><trkpt lat="43.4242489357234" lon="10.768649078270473"><ele>125.0</ele><time>2026-04-04T09:10:40.001Z</time></trkpt><trkpt lat="43.4241467022072" lon="10.768793081068482"><ele>124.6</ele><time>2026-04-04T09:10:41.001Z</time></trkpt><trkpt lat="43.42405365010101" lon="10.768918956802043"><ele>124.2</ele><time>2026-04-04T09:10:42.001Z</time></trkpt><trkpt lat="43.42397483977365" lon="10.769019100658825"><ele>123.80000000000001</ele><time>2026-04-04T09:10:43.001Z</time></trkpt><trkpt lat="43.423917854477615" lon="10.76912135887424"><ele>123.4</ele><time>2026-04-04T09:10:44.001Z</time></trkpt><trkpt lat="43.42390469174811" lon="10.769258790399334"><ele>123.0</ele><time>2026-04-04T09:10:45.001Z</time></trkpt><trkpt lat="43.42393682037123" lon="10.769438988024843"><ele>123.0</ele><time>2026-04-04T09:10:46.001Z</time></trkpt><trkpt lat="43.424022953311145" lon="10.769639190172452"><ele>123.0</ele><time>2026-04-04T09:10:47.001Z</time></trkpt><trkpt lat="43.4241251228784" lon="10.76981526872448"><ele>123.0</ele><time>2026-04-04T09:10:48.001Z</time></trkpt><trkpt lat="43.42420432143762" lon="10.769980099099902"><ele>123.0</ele><time>2026-04-04T09:10:49.001Z</time></trkpt><trkpt lat="43.42426902473603" lon="10.77014600726499"><ele>123.0</ele><time>2026-04-04T09:10:50.001Z</time></trkpt><trkpt lat="43.42431113317742" lon="10.770317668514263"><ele>123.0</ele><time>2026-04-04T09:10:51.001Z</time></trkpt><trkpt lat="43.42431912567736" lon="10.770496711411312"><ele>123.0</ele><time>2026-04-04T09:10:52.001Z</time></trkpt><trkpt lat="43.42428091963344" lon="10.770676716750973"><ele>123.66666666666666</ele><time>2026-04-04T09:10:53.001Z</time></trkpt><trkpt lat="43.424193287299815" lon="10.77086509492045"><ele>124.33333333333333</ele><time>2026-04-04T09:10:54.001Z</time></trkpt><trkpt lat="43.42407414797037" lon="10.771073994654774"><ele>125.0</ele><time>2026-04-04T09:10:55.001Z</time></trkpt><trkpt lat="43.42396749109872" lon="10.771263822910413"><ele>125.0</ele><time>2026-04-04T09:10:56.001Z</time></trkpt><trkpt lat="43.42388745079832" lon="10.771397822596223"><ele>125.0</ele><time>2026-04-04T09:10:57.001Z</time></trkpt><trkpt lat="43.42380924138064" lon="10.771510493279553"><ele>125.0</ele><time>2026-04-04T09:10:58.001Z</time></trkpt><trkpt lat="43.423727641094246" lon="10.771608326860699"><ele>125.0</ele><time>2026-04-04T09:10:59.001Z</time></trkpt><trkpt lat="43.42361683521636" lon="10.771701601877549"><ele>124.8</ele><time>2026-04-04T09:11:00.001Z</time></trkpt><trkpt lat="43.42348074604753" lon="10.771794481322697"><ele>124.6</ele><time>2026-04-04T09:11:01.001Z</time></trkpt><trkpt lat="43.42339341543751" lon="10.771863098770977"><ele>124.4</ele><time>2026-04-04T09:11:02.001Z</time></trkpt><trkpt lat="43.423337674287325" lon="10.771916217812088"><ele>124.2</ele><time>2026-04-04T09:13:01.001Z</time></trkpt><trkpt lat="43.42326983099529" lon="10.772044244602672"><ele>124.0</ele><time>2026-04-04T09:13:03.001Z</time></trkpt><trkpt lat="43.42324966246239" lon="10.772137783942908"><ele>124.00000000000001</ele><time>2026-04-04T09:13:04.001Z</time></trkpt><trkpt lat="43.423243687633004" lon="10.772246515191421"><ele>124.0</ele><time>2026-04-04T09:13:05.001Z</time></trkpt><trkpt lat="43.423266623465096" lon="10.772370844617505"><ele>124.0</ele><time>2026-04-04T09:13:06.001Z</time></trkpt><trkpt lat="43.423286767283635" lon="10.772478848649959"><ele>124.0</ele><time>2026-04-04T09:13:07.001Z</time></trkpt><trkpt lat="43.423305353908006" lon="10.772592663888974"><ele>124.00000000000001</ele><time>2026-04-04T09:13:08.001Z</time></trkpt><trkpt lat="43.42329795740429" lon="10.772717557002114"><ele>124.0</ele><time>2026-04-04T09:13:09.001Z</time></trkpt><trkpt lat="43.423264307444036" lon="10.77284521699213"><ele>124.0</ele><time>2026-04-04T09:13:10.001Z</time></trkpt><trkpt lat="43.423209090753524" lon="10.772966415482"><ele>124.0</ele><time>2026-04-04T09:13:11.001Z</time></trkpt><trkpt lat="43.42312865284009" lon="10.773082990966623"><ele>124.0</ele><time>2026-04-04T09:13:12.001Z</time></trkpt><trkpt lat="43.423030416095216" lon="10.773199947396085"><ele>124.0</ele><time>2026-04-04T09:13:13.001Z</time></trkpt><trkpt lat="43.42293536437008" lon="10.773305511758492"><ele>124.0</ele><time>2026-04-04T09:13:14.001Z</time></trkpt><trkpt lat="43.42283562979324" lon="10.773420457076265"><ele>124.0</ele><time>2026-04-04T09:13:15.001Z</time></trkpt><trkpt lat="43.42273041856921" lon="10.773538395260463"><ele>124.0</ele><time>2026-04-04T09:13:16.001Z</time></trkpt><trkpt lat="43.422628340877516" lon="10.773646303097504"><ele>124.0</ele><time>2026-04-04T09:13:17.001Z</time></trkpt><trkpt lat="43.42254348317325" lon="10.773750080287208"><ele>124.33333333333334</ele><time>2026-04-04T09:13:18.001Z</time></trkpt><trkpt lat="43.42246442325825" lon="10.773836586881625"><ele>124.66666666666667</ele><time>2026-04-04T09:13:19.001Z</time></trkpt><trkpt lat="43.42238884194068" lon="10.773914874964227"><ele>125.0</ele><time>2026-04-04T09:13:20.001Z</time></trkpt><trkpt lat="43.42231807034151" lon="10.773988928630787"><ele>125.33333333333334</ele><time>2026-04-04T09:13:21.001Z</time></trkpt><trkpt lat="43.42225204738117" lon="10.774045417990965"><ele>125.66666666666667</ele><time>2026-04-04T09:13:22.001Z</time></trkpt><trkpt lat="43.42219285676999" lon="10.77408807720224"><ele>126.0</ele><time>2026-04-04T09:13:23.001Z</time></trkpt><trkpt lat="43.42217557201873" lon="10.774203659583453"><ele>126.0</ele><time>2026-04-04T09:13:25.001Z</time></trkpt><trkpt lat="43.422213645078045" lon="10.774332368913987"><ele>126.0</ele><time>2026-04-04T09:13:28.001Z</time></trkpt><trkpt lat="43.4222429445352" lon="10.774419559725166"><ele>126.0</ele><time>2026-04-04T09:13:30.001Z</time></trkpt><trkpt lat="43.42227291198639" lon="10.774502700432588"><ele>126.0</ele><time>2026-04-04T09:13:32.001Z</time></trkpt><trkpt lat="43.42231107073878" lon="10.774618127692047"><ele>126.0</ele><time>2026-04-04T09:13:35.001Z</time></trkpt><trkpt lat="43.422349150251534" lon="10.774720179390021"><ele>126.0</ele><time>2026-04-04T09:13:37.001Z</time></trkpt><trkpt lat="43.422388618154805" lon="10.77483269605134"><ele>126.6</ele><time>2026-04-04T09:13:39.001Z</time></trkpt><trkpt lat="43.42242957151426" lon="10.774943807432251"><ele>127.19999999999999</ele><time>2026-04-04T09:13:41Z</time></trkpt><trkpt lat="43.42247219455814" lon="10.775054479497543"><ele>127.80000000000001</ele><time>2026-04-04T09:13:43Z</time></trkpt><trkpt lat="43.42251762024179" lon="10.775180180874292"><ele>128.4</ele><time>2026-04-04T09:13:45Z</time></trkpt><trkpt lat="43.42256184141433" lon="10.775306168241046"><ele>129.0</ele><time>2026-04-04T09:13:47Z</time></trkpt><trkpt lat="43.42260734136895" lon="10.775436126707953"><ele>129.28571428571428</ele><time>2026-04-04T09:13:49Z</time></trkpt><trkpt lat="43.422638179909484" lon="10.775523433478151"><ele>129.57142857142856</ele><time>2026-04-04T09:13:50Z</time></trkpt><trkpt lat="43.422669434499326" lon="10.775614440107741"><ele>129.85714285714286</ele><time>2026-04-04T09:13:51Z</time></trkpt><trkpt lat="43.42269994340301" lon="10.775700786090471"><ele>130.14285714285714</ele><time>2026-04-04T09:13:52Z</time></trkpt><trkpt lat="43.42273061967861" lon="10.775786967156682"><ele>130.42857142857144</ele><time>2026-04-04T09:13:53Z</time></trkpt><trkpt lat="43.42276325146591" lon="10.77588013233604"><ele>130.71428571428572</ele><time>2026-04-04T09:13:54Z</time></trkpt><trkpt lat="43.42279940193097" lon="10.775977912080451"><ele>131.0</ele><time>2026-04-04T09:13:55Z</time></trkpt><trkpt lat="43.422839250050366" lon="10.776076542183377"><ele>131.0</ele><time>2026-04-04T09:13:56Z</time></trkpt><trkpt lat="43.422893242657075" lon="10.776162488022099"><ele>131.0</ele><time>2026-04-04T09:13:57Z</time></trkpt><trkpt lat="43.42296209984502" lon="10.776233642357948"><ele>131.0</ele><time>2026-04-04T09:13:58Z</time></trkpt><trkpt lat="43.42298052551224" lon="10.776322694355132"><ele>131.0</ele><time>2026-04-04T09:13:59Z</time></trkpt><trkpt lat="43.42305235057784" lon="10.776366169074892"><ele>131.0</ele><time>2026-04-04T09:14:00Z</time></trkpt><trkpt lat="43.423120988614436" lon="10.776381461230796"><ele>131.0</ele><time>2026-04-04T09:14:01Z</time></trkpt><trkpt lat="43.42320404160352" lon="10.776396979485032"><ele>131.2</ele><time>2026-04-04T09:14:02Z</time></trkpt><trkpt lat="43.42330386095867" lon="10.776407885346426"><ele>131.39999999999998</ele><time>2026-04-04T09:14:03Z</time></trkpt><trkpt lat="43.423398930807075" lon="10.776410676458406"><ele>131.6</ele><time>2026-04-04T09:14:04Z</time></trkpt><trkpt lat="43.423474501683664" lon="10.776411967375688"><ele>131.79999999999998</ele><time>2026-04-04T09:14:05Z</time></trkpt><trkpt lat="43.423546313142324" lon="10.776413818491399"><ele>132.0</ele><time>2026-04-04T09:14:06Z</time></trkpt><trkpt lat="43.423664493572154" lon="10.776384018782661"><ele>132.0</ele><time>2026-04-04T09:14:08Z</time></trkpt><trkpt lat="43.42372979032588" lon="10.776359809440542"><ele>132.0</ele><time>2026-04-04T09:14:09Z</time></trkpt><trkpt lat="43.42379261550782" lon="10.776335866951138"><ele>132.0</ele><time>2026-04-04T09:14:10Z</time></trkpt><trkpt lat="43.42385291048756" lon="10.776307179463062"><ele>132.0</ele><time>2026-04-04T09:14:11Z</time></trkpt><trkpt lat="43.42395845524809" lon="10.776249420578107"><ele>132.0</ele><time>2026-04-04T09:14:13Z</time></trkpt><trkpt lat="43.424020763348395" lon="10.77621778667688"><ele>132.0</ele><time>2026-04-04T09:14:14Z</time></trkpt><trkpt lat="43.424079315638515" lon="10.776184689609671"><ele>132.0</ele><time>2026-04-04T09:14:15Z</time></trkpt><trkpt lat="43.42417808272593" lon="10.776109341235719"><ele>133.79999999999998</ele><time>2026-04-04T09:14:17Z</time></trkpt><trkpt lat="43.42426585841287" lon="10.775994703157794"><ele>135.6</ele><time>2026-04-04T09:14:19Z</time></trkpt><trkpt lat="43.42433557821422" lon="10.775849409321415"><ele>137.39999999999998</ele><time>2026-04-04T09:14:21Z</time></trkpt><trkpt lat="43.42435474916938" lon="10.775754750946753"><ele>139.2</ele><time>2026-04-04T09:14:22Z</time></trkpt><trkpt lat="43.42436083484075" lon="10.775655981045572"><ele>141.0</ele><time>2026-04-04T09:14:23Z</time></trkpt><trkpt lat="43.424375552941534" lon="10.77556661988609"><ele>141.0</ele><time>2026-04-04T09:14:24Z</time></trkpt><trkpt lat="43.42439040495529" lon="10.775473109560638"><ele>141.0</ele><time>2026-04-04T09:14:25Z</time></trkpt><trkpt lat="43.42441377302543" lon="10.775369139608454"><ele>141.0</ele><time>2026-04-04T09:14:26Z</time></trkpt><trkpt lat="43.42443495549834" lon="10.775279500766777"><ele>141.0</ele><time>2026-04-04T09:14:27Z</time></trkpt><trkpt lat="43.424468304773924" lon="10.775187736899444"><ele>141.0</ele><time>2026-04-04T09:14:28Z</time></trkpt><trkpt lat="43.42450406527564" lon="10.775089743344827"><ele>141.0</ele><time>2026-04-04T09:14:29Z</time></trkpt><trkpt lat="43.42455474111605" lon="10.774983527359284"><ele>140.42857142857144</ele><time>2026-04-04T09:14:30Z</time></trkpt><trkpt lat="43.42460228738658" lon="10.774898700722671"><ele>139.85714285714286</ele><time>2026-04-04T09:14:31Z</time></trkpt><trkpt lat="43.42464098201416" lon="10.774827845765094"><ele>139.28571428571428</ele><time>2026-04-04T09:14:32Z</time></trkpt><trkpt lat="43.42469541783389" lon="10.774752374215698"><ele>138.71428571428572</ele><time>2026-04-04T09:14:33Z</time></trkpt><trkpt lat="43.4247540460865" lon="10.77468177516194"><ele>138.14285714285714</ele><time>2026-04-04T09:14:34Z</time></trkpt><trkpt lat="43.424817998497474" lon="10.774625015054703"><ele>137.57142857142858</ele><time>2026-04-04T09:14:35Z</time></trkpt><trkpt lat="43.42488681381795" lon="10.774591307834257"><ele>137.0</ele><time>2026-04-04T09:14:36Z</time></trkpt><trkpt lat="43.42495879523003" lon="10.774592096283788"><ele>139.0</ele><time>2026-04-04T09:14:37Z</time></trkpt><trkpt lat="43.425025157660286" lon="10.77462692036454"><ele>141.0</ele><time>2026-04-04T09:14:38Z</time></trkpt><trkpt lat="43.425074709210534" lon="10.77469210811066"><ele>143.0</ele><time>2026-04-04T09:14:39Z</time></trkpt><trkpt lat="43.4251034365617" lon="10.774779345742878"><ele>145.0</ele><time>2026-04-04T09:14:40Z</time></trkpt><trkpt lat="43.425119413066035" lon="10.774873035372048"><ele>147.0</ele><time>2026-04-04T09:14:41Z</time></trkpt><trkpt lat="43.425127272303556" lon="10.775034416556952"><ele>149.0</ele><time>2026-04-04T09:14:43Z</time></trkpt><trkpt lat="43.42512276903746" lon="10.775131022765525"><ele>150.16666666666666</ele><time>2026-04-04T09:14:44Z</time></trkpt><trkpt lat="43.425120667834975" lon="10.775240575099183"><ele>151.33333333333331</ele><time>2026-04-04T09:14:45Z</time></trkpt><trkpt lat="43.42512581100736" lon="10.775361579619235"><ele>152.5</ele><time>2026-04-04T09:14:46Z</time></trkpt><trkpt lat="43.42513187838626" lon="10.775486749690186"><ele>153.66666666666666</ele><time>2026-04-04T09:14:47Z</time></trkpt><trkpt lat="43.42513795806871" lon="10.775604822632248"><ele>154.83333333333334</ele><time>2026-04-04T09:14:48Z</time></trkpt><trkpt lat="43.42514693295921" lon="10.775730284426565"><ele>156.0</ele><time>2026-04-04T09:14:49Z</time></trkpt><trkpt lat="43.42515389247655" lon="10.77585280470899"><ele>156.0</ele><time>2026-04-04T09:14:50Z</time></trkpt><trkpt lat="43.42515997971819" lon="10.775966759216043"><ele>156.0</ele><time>2026-04-04T09:14:51Z</time></trkpt><trkpt lat="43.425168522806224" lon="10.776081228731176"><ele>156.0</ele><time>2026-04-04T09:14:52Z</time></trkpt><trkpt lat="43.425170657325964" lon="10.776191003696518"><ele>156.0</ele><time>2026-04-04T09:14:53Z</time></trkpt><trkpt lat="43.42516883668214" lon="10.776292197912836"><ele>156.0</ele><time>2026-04-04T09:14:54Z</time></trkpt><trkpt lat="43.425157081132426" lon="10.776381378183519"><ele>156.0</ele><time>2026-04-04T09:14:55Z</time></trkpt><trkpt lat="43.42510187180291" lon="10.776539836435306"><ele>157.14285714285714</ele><time>2026-04-04T09:14:57Z</time></trkpt><trkpt lat="43.425069357593785" lon="10.776620508750025"><ele>158.28571428571428</ele><time>2026-04-04T09:14:58Z</time></trkpt><trkpt lat="43.425035802521975" lon="10.776700031468954"><ele>159.42857142857142</ele><time>2026-04-04T09:14:59Z</time></trkpt><trkpt lat="43.424999964493864" lon="10.7767787411812"><ele>160.57142857142856</ele><time>2026-04-04T09:15:00.001Z</time></trkpt><trkpt lat="43.42495708914149" lon="10.776869293151751"><ele>161.71428571428572</ele><time>2026-04-04T09:15:01.001Z</time></trkpt><trkpt lat="43.42491151209562" lon="10.776961037830487"><ele>162.85714285714283</ele><time>2026-04-04T09:15:02.001Z</time></trkpt><trkpt lat="43.42486604214993" lon="10.777060810708138"><ele>164.0</ele><time>2026-04-04T09:15:03.001Z</time></trkpt><trkpt lat="43.42482396455335" lon="10.777160161742854"><ele>165.16666666666666</ele><time>2026-04-04T09:15:04.001Z</time></trkpt><trkpt lat="43.42478508818478" lon="10.777257772486466"><ele>166.33333333333331</ele><time>2026-04-04T09:15:05.001Z</time></trkpt><trkpt lat="43.424752296054116" lon="10.777362880151797"><ele>167.5</ele><time>2026-04-04T09:15:06.001Z</time></trkpt><trkpt lat="43.42472243908248" lon="10.777471623052087"><ele>168.66666666666666</ele><time>2026-04-04T09:15:07.001Z</time></trkpt><trkpt lat="43.424702052344905" lon="10.777573970288568"><ele>169.83333333333334</ele><time>2026-04-04T09:15:08.001Z</time></trkpt><trkpt lat="43.42468441062608" lon="10.777689660848752"><ele>171.0</ele><time>2026-04-04T09:15:09.001Z</time></trkpt><trkpt lat="43.424669219698764" lon="10.77781709145885"><ele>172.0</ele><time>2026-04-04T09:15:10.001Z</time></trkpt><trkpt lat="43.42465934711711" lon="10.777948882087282"><ele>173.0</ele><time>2026-04-04T09:15:11.001Z</time></trkpt><trkpt lat="43.42465238141135" lon="10.778082065081405"><ele>174.0</ele><time>2026-04-04T09:15:12.001Z</time></trkpt><trkpt lat="43.42465367120474" lon="10.77819894972971"><ele>175.0</ele><time>2026-04-04T09:15:13.001Z</time></trkpt><trkpt lat="43.42466658255098" lon="10.778315412202794"><ele>176.0</ele><time>2026-04-04T09:15:14Z</time></trkpt><trkpt lat="43.42469131175724" lon="10.778427569931107"><ele>177.0</ele><time>2026-04-04T09:15:15Z</time></trkpt><trkpt lat="43.42472792429125" lon="10.778546526738253"><ele>177.0</ele><time>2026-04-04T09:15:16Z</time></trkpt><trkpt lat="43.42477439551435" lon="10.778653476131305"><ele>177.0</ele><time>2026-04-04T09:15:17Z</time></trkpt><trkpt lat="43.42482571520297" lon="10.77876330578359"><ele>177.0</ele><time>2026-04-04T09:15:18Z</time></trkpt><trkpt lat="43.42488384398188" lon="10.77886643196936"><ele>177.0</ele><time>2026-04-04T09:15:19Z</time></trkpt><trkpt lat="43.42494860038616" lon="10.778971817748388"><ele>177.0</ele><time>2026-04-04T09:15:20Z</time></trkpt><trkpt lat="43.425016114013985" lon="10.779089164175796"><ele>177.0</ele><time>2026-04-04T09:15:21Z</time></trkpt><trkpt lat="43.425078552892934" lon="10.779203606849077"><ele>177.0</ele><time>2026-04-04T09:15:22Z</time></trkpt><trkpt lat="43.425137641745785" lon="10.779309306349155"><ele>177.0</ele><time>2026-04-04T09:15:23Z</time></trkpt><trkpt lat="43.425192502770294" lon="10.779411793922339"><ele>177.0</ele><time>2026-04-04T09:15:24Z</time></trkpt><trkpt lat="43.425246982025534" lon="10.779520596717644"><ele>177.0</ele><time>2026-04-04T09:15:25Z</time></trkpt><trkpt lat="43.42530480937965" lon="10.779623939006376"><ele>175.83333333333334</ele><time>2026-04-04T09:15:26Z</time></trkpt><trkpt lat="43.42536214864344" lon="10.779721962444164"><ele>174.66666666666666</ele><time>2026-04-04T09:15:27Z</time></trkpt><trkpt lat="43.425414640501394" lon="10.779807917660216"><ele>173.5</ele><time>2026-04-04T09:15:28Z</time></trkpt><trkpt lat="43.42547102023455" lon="10.779889362778889"><ele>172.33333333333331</ele><time>2026-04-04T09:15:29Z</time></trkpt><trkpt lat="43.42553373555189" lon="10.779962393225091"><ele>171.16666666666666</ele><time>2026-04-04T09:15:30Z</time></trkpt><trkpt lat="43.42559663454102" lon="10.780024701120505"><ele>170.0</ele><time>2026-04-04T09:15:31Z</time></trkpt><trkpt lat="43.4256650231222" lon="10.780086064720619"><ele>170.83333333333331</ele><time>2026-04-04T09:15:32Z</time></trkpt><trkpt lat="43.4257370981714" lon="10.780136347487645"><ele>171.66666666666666</ele><time>2026-04-04T09:15:33Z</time></trkpt><trkpt lat="43.42581574833257" lon="10.780189443433772"><ele>172.5</ele><time>2026-04-04T09:15:34Z</time></trkpt><trkpt lat="43.42590046222188" lon="10.780242812466703"><ele>173.33333333333334</ele><time>2026-04-04T09:15:35Z</time></trkpt><trkpt lat="43.42598342521354" lon="10.780295393146822"><ele>174.16666666666669</ele><time>2026-04-04T09:15:36Z</time></trkpt><trkpt lat="43.42605773734426" lon="10.78032879928861"><ele>175.0</ele><time>2026-04-04T09:15:37Z</time></trkpt><trkpt lat="43.42612972824716" lon="10.780360527734903"><ele>175.0</ele><time>2026-04-04T09:15:38Z</time></trkpt><trkpt lat="43.42620038821163" lon="10.780378421509644"><ele>175.0</ele><time>2026-04-04T09:15:39Z</time></trkpt><trkpt lat="43.42628044937586" lon="10.78039148140296"><ele>175.0</ele><time>2026-04-04T09:15:40Z</time></trkpt><trkpt lat="43.426362630588876" lon="10.780393209228246"><ele>175.0</ele><time>2026-04-04T09:15:41Z</time></trkpt><trkpt lat="43.42645053136611" lon="10.780388028248094"><ele>175.0</ele><time>2026-04-04T09:15:42Z</time></trkpt><trkpt lat="43.426536483770086" lon="10.78038959544333"><ele>175.0</ele><time>2026-04-04T09:15:43Z</time></trkpt><trkpt lat="43.42662703221548" lon="10.78041068003376"><ele>177.2</ele><time>2026-04-04T09:15:44Z</time></trkpt><trkpt lat="43.42671556399765" lon="10.780450832635808"><ele>179.4</ele><time>2026-04-04T09:15:45Z</time></trkpt><trkpt lat="43.4267995015554" lon="10.780509303029902"><ele>181.60000000000002</ele><time>2026-04-04T09:15:46Z</time></trkpt><trkpt lat="43.42687375457535" lon="10.780583700531622"><ele>183.8</ele><time>2026-04-04T09:15:47Z</time></trkpt><trkpt lat="43.42694108591113" lon="10.780669888588733"><ele>186.0</ele><time>2026-04-04T09:15:48Z</time></trkpt><trkpt lat="43.42700637143963" lon="10.780766243954936"><ele>186.0</ele><time>2026-04-04T09:15:49Z</time></trkpt><trkpt lat="43.42706796727178" lon="10.78087198297545"><ele>186.0</ele><time>2026-04-04T09:15:50Z</time></trkpt><trkpt lat="43.42713987657784" lon="10.780984533582568"><ele>186.0</ele><time>2026-04-04T09:15:51Z</time></trkpt><trkpt lat="43.427209417273616" lon="10.78108909569439"><ele>186.0</ele><time>2026-04-04T09:15:52Z</time></trkpt><trkpt lat="43.427280524261725" lon="10.781195053832372"><ele>186.0</ele><time>2026-04-04T09:15:53Z</time></trkpt><trkpt lat="43.42735011260215" lon="10.781295571638582"><ele>187.4</ele><time>2026-04-04T09:15:54Z</time></trkpt><trkpt lat="43.427417633582735" lon="10.781392311307002"><ele>188.8</ele><time>2026-04-04T09:15:55Z</time></trkpt><trkpt lat="43.42748531842131" lon="10.781488915283987"><ele>190.20000000000002</ele><time>2026-04-04T09:15:56Z</time></trkpt><trkpt lat="43.42755134936485" lon="10.781587608788511"><ele>191.60000000000002</ele><time>2026-04-04T09:15:57Z</time></trkpt><trkpt lat="43.42761555006524" lon="10.781685460564347"><ele>193.0</ele><time>2026-04-04T09:15:58Z</time></trkpt><trkpt lat="43.427676118626344" lon="10.781777749799444"><ele>194.4</ele><time>2026-04-04T09:15:59Z</time></trkpt><trkpt lat="43.42774280181952" lon="10.781879891212943"><ele>195.8</ele><time>2026-04-04T09:16:00Z</time></trkpt><trkpt lat="43.427811610664676" lon="10.781981487271576"><ele>197.2</ele><time>2026-04-04T09:16:01Z</time></trkpt><trkpt lat="43.42788628277765" lon="10.78209344623629"><ele>198.6</ele><time>2026-04-04T09:16:02Z</time></trkpt><trkpt lat="43.42796227666635" lon="10.782206726454724"><ele>200.0</ele><time>2026-04-04T09:16:03Z</time></trkpt><trkpt lat="43.42803395406225" lon="10.782323303601473"><ele>200.0</ele><time>2026-04-04T09:16:04Z</time></trkpt><trkpt lat="43.428106181086434" lon="10.782446023537188"><ele>200.0</ele><time>2026-04-04T09:16:05Z</time></trkpt><trkpt lat="43.42817329800948" lon="10.782574768458218"><ele>200.0</ele><time>2026-04-04T09:16:06Z</time></trkpt><trkpt lat="43.428231681021785" lon="10.782712324777487"><ele>200.0</ele><time>2026-04-04T09:16:07Z</time></trkpt><trkpt lat="43.42828744606284" lon="10.782851724519372"><ele>200.2</ele><time>2026-04-04T09:16:08Z</time></trkpt><trkpt lat="43.42833689949037" lon="10.782994960129708"><ele>200.4</ele><time>2026-04-04T09:16:09Z</time></trkpt><trkpt lat="43.42837909119592" lon="10.783133855354992"><ele>200.60000000000002</ele><time>2026-04-04T09:16:10Z</time></trkpt><trkpt lat="43.428423551743066" lon="10.783273218331312"><ele>200.8</ele><time>2026-04-04T09:16:11Z</time></trkpt><trkpt lat="43.42845970459017" lon="10.783412425747956"><ele>201.0</ele><time>2026-04-04T09:16:12Z</time></trkpt><trkpt lat="43.42849281961092" lon="10.783549514745632"><ele>199.4</ele><time>2026-04-04T09:16:13Z</time></trkpt><trkpt lat="43.428520444764985" lon="10.78368829150993"><ele>197.8</ele><time>2026-04-04T09:16:14Z</time></trkpt><trkpt lat="43.42854211410761" lon="10.783821011149412"><ele>196.20000000000002</ele><time>2026-04-04T09:16:15Z</time></trkpt><trkpt lat="43.428563484912466" lon="10.783955072467267"><ele>194.60000000000002</ele><time>2026-04-04T09:16:16Z</time></trkpt><trkpt lat="43.42858788830734" lon="10.784090708145415"><ele>193.0</ele><time>2026-04-04T09:16:17Z</time></trkpt><trkpt lat="43.42861375960527" lon="10.784231739046545"><ele>192.2</ele><time>2026-04-04T09:16:18Z</time></trkpt><trkpt lat="43.42864017947438" lon="10.784375239376958"><ele>191.4</ele><time>2026-04-04T09:16:19Z</time></trkpt><trkpt lat="43.428668623907846" lon="10.784516840433659"><ele>190.6</ele><time>2026-04-04T09:16:20Z</time></trkpt><trkpt lat="43.428690457015044" lon="10.784656131726491"><ele>189.79999999999998</ele><time>2026-04-04T09:16:21Z</time></trkpt><trkpt lat="43.42871088478485" lon="10.784791912325804"><ele>189.0</ele><time>2026-04-04T09:16:22Z</time></trkpt><trkpt lat="43.42872663550063" lon="10.784909822494024"><ele>189.0</ele><time>2026-04-04T09:16:23Z</time></trkpt><trkpt lat="43.42874074570172" lon="10.785039768266396"><ele>189.0</ele><time>2026-04-04T09:16:24Z</time></trkpt><trkpt lat="43.42874976326304" lon="10.785176231784995"><ele>189.0</ele><time>2026-04-04T09:16:25Z</time></trkpt><trkpt lat="43.428745109481184" lon="10.78530876412712"><ele>189.0</ele><time>2026-04-04T09:16:26Z</time></trkpt><trkpt lat="43.4287279489722" lon="10.785439717679166"><ele>189.0</ele><time>2026-04-04T09:16:27Z</time></trkpt><trkpt lat="43.42870065535885" lon="10.785579620086457"><ele>190.39999999999998</ele><time>2026-04-04T09:16:28Z</time></trkpt><trkpt lat="43.428663664232594" lon="10.785715148770686"><ele>191.8</ele><time>2026-04-04T09:16:29Z</time></trkpt><trkpt lat="43.428615507738876" lon="10.785840498320251"><ele>193.2</ele><time>2026-04-04T09:16:30Z</time></trkpt><trkpt lat="43.4285582051208" lon="10.785960969811534"><ele>194.60000000000002</ele><time>2026-04-04T09:16:31Z</time></trkpt><trkpt lat="43.42849838678884" lon="10.786073557834182"><ele>196.0</ele><time>2026-04-04T09:16:32Z</time></trkpt><trkpt lat="43.428434521873655" lon="10.786186853686596"><ele>198.20000000000002</ele><time>2026-04-04T09:16:33Z</time></trkpt><trkpt lat="43.42836551477377" lon="10.78629678835703"><ele>200.4</ele><time>2026-04-04T09:16:34Z</time></trkpt><trkpt lat="43.4283015740097" lon="10.786408252893796"><ele>202.6</ele><time>2026-04-04T09:16:35Z</time></trkpt><trkpt lat="43.42824364621964" lon="10.786503756177325"><ele>204.8</ele><time>2026-04-04T09:16:36Z</time></trkpt><trkpt lat="43.428181467730276" lon="10.786590428077824"><ele>207.0</ele><time>2026-04-04T09:16:37Z</time></trkpt><trkpt lat="43.42810623717401" lon="10.78667886542751"><ele>207.0</ele><time>2026-04-04T09:16:38Z</time></trkpt><trkpt lat="43.42802303472498" lon="10.786765816697958"><ele>207.0</ele><time>2026-04-04T09:16:39Z</time></trkpt><trkpt lat="43.42793937885342" lon="10.786849595838891"><ele>207.0</ele><time>2026-04-04T09:16:40Z</time></trkpt><trkpt lat="43.42785634237397" lon="10.78693854726995"><ele>207.0</ele><time>2026-04-04T09:16:41Z</time></trkpt><trkpt lat="43.42778077451038" lon="10.787029227755436"><ele>207.0</ele><time>2026-04-04T09:16:42Z</time></trkpt><trkpt lat="43.42770684386963" lon="10.787119947765285"><ele>206.0</ele><time>2026-04-04T09:16:43Z</time></trkpt><trkpt lat="43.42763978919585" lon="10.787204920342484"><ele>205.0</ele><time>2026-04-04T09:16:44Z</time></trkpt><trkpt lat="43.42757406161508" lon="10.787286669243953"><ele>204.0</ele><time>2026-04-04T09:16:45Z</time></trkpt><trkpt lat="43.427507773527196" lon="10.787372955745546"><ele>203.0</ele><time>2026-04-04T09:16:46Z</time></trkpt><trkpt lat="43.42744332104206" lon="10.78745994575853"><ele>202.0</ele><time>2026-04-04T09:16:47Z</time></trkpt><trkpt lat="43.42738083027554" lon="10.787551064288193"><ele>202.0</ele><time>2026-04-04T09:16:48Z</time></trkpt><trkpt lat="43.42732299631429" lon="10.78764516066304"><ele>202.0</ele><time>2026-04-04T09:16:49Z</time></trkpt><trkpt lat="43.427262070504234" lon="10.78774242860182"><ele>202.0</ele><time>2026-04-04T09:16:50Z</time></trkpt><trkpt lat="43.42719955628763" lon="10.787843900539805"><ele>202.0</ele><time>2026-04-04T09:16:51Z</time></trkpt><trkpt lat="43.42714508861482" lon="10.787943022451048"><ele>202.0</ele><time>2026-04-04T09:16:52Z</time></trkpt><trkpt lat="43.42709910457249" lon="10.78803502476669"><ele>201.66666666666666</ele><time>2026-04-04T09:16:53Z</time></trkpt><trkpt lat="43.427049494816224" lon="10.78812483780303"><ele>201.33333333333331</ele><time>2026-04-04T09:16:54Z</time></trkpt><trkpt lat="43.42701063741316" lon="10.78821389790821"><ele>201.0</ele><time>2026-04-04T09:16:55Z</time></trkpt><trkpt lat="43.426972028044936" lon="10.788317272078332"><ele>200.66666666666669</ele><time>2026-04-04T09:16:56Z</time></trkpt><trkpt lat="43.42694241308357" lon="10.788422707075044"><ele>200.33333333333334</ele><time>2026-04-04T09:16:57Z</time></trkpt><trkpt lat="43.426922461068756" lon="10.788518699859386"><ele>200.0</ele><time>2026-04-04T09:16:58Z</time></trkpt><trkpt lat="43.42690714905594" lon="10.788613846044157"><ele>198.50000000000003</ele><time>2026-04-04T09:16:59Z</time></trkpt><trkpt lat="43.426897325498054" lon="10.788717486631093"><ele>197.0</ele><time>2026-04-04T09:17:00Z</time></trkpt><trkpt lat="43.426889809930756" lon="10.788828451143528"><ele>195.5</ele><time>2026-04-04T09:17:01Z</time></trkpt><trkpt lat="43.42689037944651" lon="10.78893853671193"><ele>194.0</ele><time>2026-04-04T09:17:02Z</time></trkpt><trkpt lat="43.426885604286966" lon="10.789049184085707"><ele>192.5</ele><time>2026-04-04T09:17:03Z</time></trkpt><trkpt lat="43.426882170414366" lon="10.789161469024675"><ele>191.0</ele><time>2026-04-04T09:17:04Z</time></trkpt><trkpt lat="43.426878731521384" lon="10.789273922948961"><ele>190.5</ele><time>2026-04-04T09:17:05Z</time></trkpt><trkpt lat="43.426875417222924" lon="10.789388303466813"><ele>190.0</ele><time>2026-04-04T09:17:06Z</time></trkpt><trkpt lat="43.42687325626368" lon="10.789489963863469"><ele>189.5</ele><time>2026-04-04T09:17:07Z</time></trkpt><trkpt lat="43.42686859393237" lon="10.789603793088759"><ele>189.0</ele><time>2026-04-04T09:17:08Z</time></trkpt><trkpt lat="43.426864621249855" lon="10.789712430877175"><ele>188.5</ele><time>2026-04-04T09:17:09Z</time></trkpt><trkpt lat="43.42686093483596" lon="10.78982518914653"><ele>188.0</ele><time>2026-04-04T09:17:10Z</time></trkpt><trkpt lat="43.42685691669407" lon="10.789928615063818"><ele>188.0</ele><time>2026-04-04T09:17:11Z</time></trkpt><trkpt lat="43.426851617635286" lon="10.790027984220442"><ele>188.0</ele><time>2026-04-04T09:17:12Z</time></trkpt><trkpt lat="43.426848614428614" lon="10.790120914087478"><ele>188.0</ele><time>2026-04-04T09:17:13Z</time></trkpt><trkpt lat="43.4268493419325" lon="10.790214334318925"><ele>188.0</ele><time>2026-04-04T09:17:14Z</time></trkpt><trkpt lat="43.42684812233633" lon="10.790314438926439"><ele>188.0</ele><time>2026-04-04T09:17:15Z</time></trkpt><trkpt lat="43.42684047242753" lon="10.790410741852146"><ele>188.0</ele><time>2026-04-04T09:17:16Z</time></trkpt><trkpt lat="43.426835497853254" lon="10.790503740222412"><ele>188.0</ele><time>2026-04-04T09:17:17Z</time></trkpt><trkpt lat="43.426833524577496" lon="10.790592746347432"><ele>187.5</ele><time>2026-04-04T09:17:18Z</time></trkpt><trkpt lat="43.426827534435986" lon="10.790689505899225"><ele>187.0</ele><time>2026-04-04T09:17:19Z</time></trkpt><trkpt lat="43.42682115856947" lon="10.790794753334296"><ele>186.5</ele><time>2026-04-04T09:17:20Z</time></trkpt><trkpt lat="43.426813846896565" lon="10.790906764294808"><ele>186.0</ele><time>2026-04-04T09:17:21Z</time></trkpt><trkpt lat="43.42680824192957" lon="10.791023218074498"><ele>185.5</ele><time>2026-04-04T09:17:22Z</time></trkpt><trkpt lat="43.42680153062858" lon="10.79113637495305"><ele>185.0</ele><time>2026-04-04T09:17:23Z</time></trkpt><trkpt lat="43.42679817936061" lon="10.79125382017295"><ele>184.6</ele><time>2026-04-04T09:17:24Z</time></trkpt><trkpt lat="43.426794099366106" lon="10.791383636057498"><ele>184.2</ele><time>2026-04-04T09:17:25Z</time></trkpt><trkpt lat="43.426790019007676" lon="10.791502452066114"><ele>183.8</ele><time>2026-04-04T09:17:26Z</time></trkpt><trkpt lat="43.42678442994785" lon="10.791627960037333"><ele>183.4</ele><time>2026-04-04T09:17:27Z</time></trkpt><trkpt lat="43.42677681586087" lon="10.791751829675732"><ele>183.0</ele><time>2026-04-04T09:17:28Z</time></trkpt><trkpt lat="43.42676904508595" lon="10.791880863974697"><ele>181.8</ele><time>2026-04-04T09:17:29Z</time></trkpt><trkpt lat="43.42676301991618" lon="10.7920142221478"><ele>180.60000000000002</ele><time>2026-04-04T09:17:30Z</time></trkpt><trkpt lat="43.42675951894221" lon="10.792137059588057"><ele>179.39999999999998</ele><time>2026-04-04T09:17:31Z</time></trkpt><trkpt lat="43.42675219297695" lon="10.792266151802867"><ele>178.2</ele><time>2026-04-04T09:17:32Z</time></trkpt><trkpt lat="43.42674176844686" lon="10.792390692806926"><ele>177.0</ele><time>2026-04-04T09:17:33Z</time></trkpt><trkpt lat="43.42673101295397" lon="10.792523802990406"><ele>177.0</ele><time>2026-04-04T09:17:34Z</time></trkpt><trkpt lat="43.42672197938997" lon="10.79264595112026"><ele>177.0</ele><time>2026-04-04T09:17:35Z</time></trkpt><trkpt lat="43.42671780733752" lon="10.792772085338614"><ele>177.0</ele><time>2026-04-04T09:17:36Z</time></trkpt><trkpt lat="43.42671296212642" lon="10.792899871947492"><ele>177.0</ele><time>2026-04-04T09:17:37Z</time></trkpt><trkpt lat="43.4267055257386" lon="10.793029836486074"><ele>177.0</ele><time>2026-04-04T09:17:38Z</time></trkpt><trkpt lat="43.4267001685491" lon="10.7931546774016"><ele>176.0</ele><time>2026-04-04T09:17:39Z</time></trkpt><trkpt lat="43.42669587277314" lon="10.793275721686244"><ele>175.0</ele><time>2026-04-04T09:17:40Z</time></trkpt><trkpt lat="43.42668997330182" lon="10.793397879772769"><ele>174.0</ele><time>2026-04-04T09:17:41Z</time></trkpt><trkpt lat="43.4266845757063" lon="10.793517876033198"><ele>173.0</ele><time>2026-04-04T09:17:42Z</time></trkpt><trkpt lat="43.42668043454545" lon="10.793645643729098"><ele>172.0</ele><time>2026-04-04T09:17:43Z</time></trkpt><trkpt lat="43.426678907366856" lon="10.793780504317304"><ele>171.39999999999998</ele><time>2026-04-04T09:17:44Z</time></trkpt><trkpt lat="43.426673573771666" lon="10.793919553832593"><ele>170.79999999999998</ele><time>2026-04-04T09:17:45Z</time></trkpt><trkpt lat="43.4266681921826" lon="10.794054938846667"><ele>170.2</ele><time>2026-04-04T09:17:46Z</time></trkpt><trkpt lat="43.426665135334495" lon="10.794187042052675"><ele>169.6</ele><time>2026-04-04T09:17:47Z</time></trkpt><trkpt lat="43.426667677407856" lon="10.794319980900347"><ele>169.0</ele><time>2026-04-04T09:17:48Z</time></trkpt><trkpt lat="43.42667342337104" lon="10.794450668642211"><ele>168.6</ele><time>2026-04-04T09:17:49Z</time></trkpt><trkpt lat="43.42669181763111" lon="10.794591950304003"><ele>168.2</ele><time>2026-04-04T09:17:50Z</time></trkpt><trkpt lat="43.42671496421172" lon="10.794722079240936"><ele>167.79999999999998</ele><time>2026-04-04T09:17:51Z</time></trkpt><trkpt lat="43.42674081325397" lon="10.79483476910539"><ele>167.39999999999998</ele><time>2026-04-04T09:17:52Z</time></trkpt><trkpt lat="43.42677165784584" lon="10.794940440969587"><ele>167.0</ele><time>2026-04-04T09:17:53Z</time></trkpt><trkpt lat="43.426807381448434" lon="10.795049684553824"><ele>167.0</ele><time>2026-04-04T09:17:54Z</time></trkpt><trkpt lat="43.426855757056536" lon="10.795150447709482"><ele>167.0</ele><time>2026-04-04T09:17:55Z</time></trkpt><trkpt lat="43.42691127363319" lon="10.795243941124987"><ele>167.0</ele><time>2026-04-04T09:17:56Z</time></trkpt><trkpt lat="43.426972822228734" lon="10.795327438018173"><ele>167.0</ele><time>2026-04-04T09:17:57Z</time></trkpt><trkpt lat="43.427038887889985" lon="10.795401276247324"><ele>167.0</ele><time>2026-04-04T09:17:58Z</time></trkpt><trkpt lat="43.427121350609106" lon="10.79547251171852"><ele>167.0</ele><time>2026-04-04T09:17:59Z</time></trkpt><trkpt lat="43.427215740611246" lon="10.79554537084341"><ele>164.6</ele><time>2026-04-04T09:18:00Z</time></trkpt><trkpt lat="43.42731317436649" lon="10.795616192435702"><ele>162.2</ele><time>2026-04-04T09:18:01Z</time></trkpt><trkpt lat="43.42741357538765" lon="10.795686194748399"><ele>159.8</ele><time>2026-04-04T09:18:02Z</time></trkpt><trkpt lat="43.42750922777776" lon="10.795744327793209"><ele>157.4</ele><time>2026-04-04T09:18:03Z</time></trkpt><trkpt lat="43.427602436555944" lon="10.79579643909793"><ele>155.0</ele><time>2026-04-04T09:18:04Z</time></trkpt><trkpt lat="43.42770506958142" lon="10.795851245940224"><ele>155.0</ele><time>2026-04-04T09:18:05Z</time></trkpt><trkpt lat="43.42780904537732" lon="10.795905841641614"><ele>155.0</ele><time>2026-04-04T09:18:06Z</time></trkpt><trkpt lat="43.42791047731005" lon="10.79595982235698"><ele>155.0</ele><time>2026-04-04T09:18:07Z</time></trkpt><trkpt lat="43.427993754365154" lon="10.796008141341906"><ele>155.0</ele><time>2026-04-04T09:18:08Z</time></trkpt><trkpt lat="43.42808109919648" lon="10.796055067931244"><ele>155.0</ele><time>2026-04-04T09:18:09Z</time></trkpt><trkpt lat="43.42815876743924" lon="10.796101242679882"><ele>154.66666666666666</ele><time>2026-04-04T09:18:10Z</time></trkpt><trkpt lat="43.428244239647" lon="10.796149831210776"><ele>154.33333333333331</ele><time>2026-04-04T09:18:11Z</time></trkpt><trkpt lat="43.42832381870877" lon="10.796195457071551"><ele>154.0</ele><time>2026-04-04T09:18:12Z</time></trkpt><trkpt lat="43.42840654505547" lon="10.796242218099803"><ele>153.66666666666666</ele><time>2026-04-04T09:18:13Z</time></trkpt><trkpt lat="43.42847708586156" lon="10.796292934294351"><ele>153.33333333333334</ele><time>2026-04-04T09:18:14Z</time></trkpt><trkpt lat="43.42855804777125" lon="10.796364716021582"><ele>153.0</ele><time>2026-04-04T09:18:15Z</time></trkpt><trkpt lat="43.42862553106708" lon="10.796441126783023"><ele>153.0</ele><time>2026-04-04T09:18:16Z</time></trkpt><trkpt lat="43.428696841831524" lon="10.796527631571724"><ele>153.0</ele><time>2026-04-04T09:18:17Z</time></trkpt><trkpt lat="43.42876988472166" lon="10.796605274653652"><ele>153.0</ele><time>2026-04-04T09:18:18Z</time></trkpt><trkpt lat="43.42884166456757" lon="10.796680418985154"><ele>153.0</ele><time>2026-04-04T09:18:19Z</time></trkpt><trkpt lat="43.428914379446745" lon="10.796746337030863"><ele>153.0</ele><time>2026-04-04T09:18:20Z</time></trkpt><trkpt lat="43.42898882444153" lon="10.79680472130899"><ele>149.5</ele><time>2026-04-04T09:18:21Z</time></trkpt><trkpt lat="43.429071228317845" lon="10.796876873352794"><ele>146.0</ele><time>2026-04-04T09:18:22Z</time></trkpt><trkpt lat="43.42916534494753" lon="10.796964618307884"><ele>142.5</ele><time>2026-04-04T09:18:23Z</time></trkpt><trkpt lat="43.42927074396835" lon="10.797077730846635"><ele>139.0</ele><time>2026-04-04T09:18:24Z</time></trkpt><trkpt lat="43.42937228208514" lon="10.797205222455657"><ele>139.0</ele><time>2026-04-04T09:18:25Z</time></trkpt><trkpt lat="43.42947243993676" lon="10.797345253068839"><ele>139.0</ele><time>2026-04-04T09:18:26Z</time></trkpt><trkpt lat="43.42956707871179" lon="10.797490097480818"><ele>139.0</ele><time>2026-04-04T09:18:27Z</time></trkpt><trkpt lat="43.42964868012617" lon="10.797622486894095"><ele>139.0</ele><time>2026-04-04T09:18:28Z</time></trkpt><trkpt lat="43.4297344799726" lon="10.797758605024114"><ele>137.25</ele><time>2026-04-04T09:18:29Z</time></trkpt><trkpt lat="43.42980730914873" lon="10.797891380900824"><ele>135.5</ele><time>2026-04-04T09:18:30Z</time></trkpt><trkpt lat="43.4298713872118" lon="10.798029826524346"><ele>133.75</ele><time>2026-04-04T09:18:31Z</time></trkpt><trkpt lat="43.42992936956111" lon="10.79816248750788"><ele>132.0</ele><time>2026-04-04T09:18:32Z</time></trkpt><trkpt lat="43.42999616938998" lon="10.798287614477465"><ele>132.0</ele><time>2026-04-04T09:18:33Z</time></trkpt><trkpt lat="43.430071131599504" lon="10.798400493371766"><ele>132.0</ele><time>2026-04-04T09:18:34Z</time></trkpt><trkpt lat="43.43014775470052" lon="10.798503951393746"><ele>132.0</ele><time>2026-04-04T09:18:35Z</time></trkpt><trkpt lat="43.43022698275267" lon="10.798606528627277"><ele>132.0</ele><time>2026-04-04T09:18:36Z</time></trkpt><trkpt lat="43.43030018030976" lon="10.798709985680196"><ele>132.0</ele><time>2026-04-04T09:18:37Z</time></trkpt><trkpt lat="43.43036752208097" lon="10.798817307417293"><ele>132.79999999999998</ele><time>2026-04-04T09:18:38Z</time></trkpt><trkpt lat="43.430426318442144" lon="10.798920254614083"><ele>133.6</ele><time>2026-04-04T09:18:39Z</time></trkpt><trkpt lat="43.43048106246479" lon="10.799030403461805"><ele>134.39999999999998</ele><time>2026-04-04T09:18:40Z</time></trkpt><trkpt lat="43.43052366009927" lon="10.799145067175344"><ele>135.2</ele><time>2026-04-04T09:18:41Z</time></trkpt><trkpt lat="43.430559311278" lon="10.799270062211198"><ele>136.0</ele><time>2026-04-04T09:18:42Z</time></trkpt><trkpt lat="43.43057918827442" lon="10.799392203271525"><ele>133.16666666666669</ele><time>2026-04-04T09:18:43Z</time></trkpt><trkpt lat="43.430591284001345" lon="10.799514579156996"><ele>130.33333333333334</ele><time>2026-04-04T09:18:44Z</time></trkpt><trkpt lat="43.43059233566369" lon="10.799640427184178"><ele>127.5</ele><time>2026-04-04T09:18:45Z</time></trkpt><trkpt lat="43.430586301988114" lon="10.799755883312105"><ele>124.66666666666666</ele><time>2026-04-04T09:18:46Z</time></trkpt><trkpt lat="43.43057025627798" lon="10.799869572760661"><ele>121.83333333333333</ele><time>2026-04-04T09:18:46.999Z</time></trkpt><trkpt lat="43.43054648868428" lon="10.799968925696122"><ele>119.0</ele><time>2026-04-04T09:18:47.999Z</time></trkpt><trkpt lat="43.43051658824657" lon="10.80004914136677"><ele>118.16666666666666</ele><time>2026-04-04T09:18:48.999Z</time></trkpt><trkpt lat="43.430447311509546" lon="10.800180018436476"><ele>117.33333333333333</ele><time>2026-04-04T09:18:50.999Z</time></trkpt><trkpt lat="43.430397607228045" lon="10.80024823664213"><ele>116.5</ele><time>2026-04-04T09:18:51.999Z</time></trkpt><trkpt lat="43.430342176209315" lon="10.800299782562847"><ele>115.66666666666666</ele><time>2026-04-04T09:18:52.999Z</time></trkpt><trkpt lat="43.43027179229591" lon="10.800350052724337"><ele>114.83333333333333</ele><time>2026-04-04T09:18:53.999Z</time></trkpt><trkpt lat="43.43020110743564" lon="10.800388027808989"><ele>114.0</ele><time>2026-04-04T09:18:54.999Z</time></trkpt><trkpt lat="43.43012872044892" lon="10.800423366414076"><ele>114.0</ele><time>2026-04-04T09:18:55.999Z</time></trkpt><trkpt lat="43.430051275525265" lon="10.80045442268273"><ele>114.0</ele><time>2026-04-04T09:18:56.999Z</time></trkpt><trkpt lat="43.4299728077894" lon="10.800485750454035"><ele>114.0</ele><time>2026-04-04T09:18:57.999Z</time></trkpt><trkpt lat="43.42989131648192" lon="10.800518462313676"><ele>114.0</ele><time>2026-04-04T09:18:58.999Z</time></trkpt><trkpt lat="43.42981673526235" lon="10.800543573834137"><ele>114.0</ele><time>2026-04-04T09:18:59.999Z</time></trkpt><trkpt lat="43.429733991422225" lon="10.800565310558731"><ele>114.0</ele><time>2026-04-04T09:19:00.999Z</time></trkpt><trkpt lat="43.42965473980433" lon="10.800579159003318"><ele>114.16666666666667</ele><time>2026-04-04T09:19:01.999Z</time></trkpt><trkpt lat="43.42957369414472" lon="10.800587741558754"><ele>114.33333333333334</ele><time>2026-04-04T09:19:02.999Z</time></trkpt><trkpt lat="43.42948694705268" lon="10.800588455516197"><ele>114.5</ele><time>2026-04-04T09:19:03.999Z</time></trkpt><trkpt lat="43.42939370472579" lon="10.800583509998127"><ele>114.66666666666667</ele><time>2026-04-04T09:19:04.999Z</time></trkpt><trkpt lat="43.42931394428215" lon="10.800569579659324"><ele>114.83333333333334</ele><time>2026-04-04T09:19:05.999Z</time></trkpt><trkpt lat="43.42922331055694" lon="10.80055189608153"><ele>115.0</ele><time>2026-04-04T09:19:06.999Z</time></trkpt><trkpt lat="43.429120370784574" lon="10.80053364759601"><ele>115.0</ele><time>2026-04-04T09:19:07.999Z</time></trkpt><trkpt lat="43.429010959486405" lon="10.800521903675103"><ele>115.0</ele><time>2026-04-04T09:19:08.999Z</time></trkpt><trkpt lat="43.42890212954818" lon="10.800515303407282"><ele>115.0</ele><time>2026-04-04T09:19:09.999Z</time></trkpt><trkpt lat="43.42879723275854" lon="10.800513002880248"><ele>115.0</ele><time>2026-04-04T09:19:11Z</time></trkpt><trkpt lat="43.42869892394279" lon="10.800507526675993"><ele>115.0</ele><time>2026-04-04T09:19:12Z</time></trkpt><trkpt lat="43.42860616296315" lon="10.800501857674611"><ele>115.00000000000001</ele><time>2026-04-04T09:19:13Z</time></trkpt><trkpt lat="43.42851406541474" lon="10.800502476089713"><ele>115.0</ele><time>2026-04-04T09:19:14Z</time></trkpt><trkpt lat="43.42842790384214" lon="10.800509427422778"><ele>115.0</ele><time>2026-04-04T09:19:15Z</time></trkpt><trkpt lat="43.428351188438555" lon="10.800522151414434"><ele>115.0</ele><time>2026-04-04T09:19:16Z</time></trkpt><trkpt lat="43.42826450032404" lon="10.800540268949339"><ele>115.00000000000001</ele><time>2026-04-04T09:19:17Z</time></trkpt><trkpt lat="43.42818393351892" lon="10.800561966399338"><ele>115.0</ele><time>2026-04-04T09:19:18Z</time></trkpt><trkpt lat="43.428113383570384" lon="10.80058339858101"><ele>114.99999999999999</ele><time>2026-04-04T09:19:19Z</time></trkpt><trkpt lat="43.42804488249275" lon="10.800605223558353"><ele>115.0</ele><time>2026-04-04T09:19:20Z</time></trkpt><trkpt lat="43.427979401154325" lon="10.800636491516643"><ele>114.99999999999999</ele><time>2026-04-04T09:19:21Z</time></trkpt><trkpt lat="43.427913952141154" lon="10.80068148222749"><ele>114.99999999999999</ele><time>2026-04-04T09:19:22Z</time></trkpt><trkpt lat="43.42785448595309" lon="10.800745539955503"><ele>115.0</ele><time>2026-04-04T09:19:23Z</time></trkpt><trkpt lat="43.42780193495101" lon="10.800823832120798"><ele>114.99999999999999</ele><time>2026-04-04T09:19:24Z</time></trkpt><trkpt lat="43.42775618879489" lon="10.800912346801862"><ele>114.99999999999999</ele><time>2026-04-04T09:19:25Z</time></trkpt><trkpt lat="43.42772618298777" lon="10.801004685904989"><ele>114.6</ele><time>2026-04-04T09:19:26Z</time></trkpt><trkpt lat="43.42770682239265" lon="10.801111054830487"><ele>114.2</ele><time>2026-04-04T09:19:27Z</time></trkpt><trkpt lat="43.42768650752133" lon="10.801231622191331"><ele>113.80000000000001</ele><time>2026-04-04T09:19:28Z</time></trkpt><trkpt lat="43.42766753325206" lon="10.80136054677311"><ele>113.4</ele><time>2026-04-04T09:19:29Z</time></trkpt><trkpt lat="43.427649703005166" lon="10.801492366195188"><ele>113.0</ele><time>2026-04-04T09:19:30Z</time></trkpt><trkpt lat="43.4276327229751" lon="10.801616492534436"><ele>113.0</ele><time>2026-04-04T09:19:31Z</time></trkpt><trkpt lat="43.427611129835185" lon="10.801770965589629"><ele>113.00000000000001</ele><time>2026-04-04T09:19:32Z</time></trkpt><trkpt lat="43.427588651361475" lon="10.801926822804255"><ele>113.00000000000001</ele><time>2026-04-04T09:19:33Z</time></trkpt><trkpt lat="43.42756723213842" lon="10.802075818590186"><ele>113.0</ele><time>2026-04-04T09:19:34Z</time></trkpt><trkpt lat="43.42754575323937" lon="10.802209703523813"><ele>113.0</ele><time>2026-04-04T09:19:35Z</time></trkpt><trkpt lat="43.427523662165314" lon="10.802337978323695"><ele>112.66666666666666</ele><time>2026-04-04T09:19:36Z</time></trkpt><trkpt lat="43.42750204361832" lon="10.802458137109568"><ele>112.33333333333333</ele><time>2026-04-04T09:19:37Z</time></trkpt><trkpt lat="43.42749514329877" lon="10.802567450376818"><ele>112.0</ele><time>2026-04-04T09:19:38Z</time></trkpt><trkpt lat="43.42750492835446" lon="10.802663783778213"><ele>111.66666666666666</ele><time>2026-04-04T09:19:39Z</time></trkpt><trkpt lat="43.427535552001345" lon="10.802762233326655"><ele>111.33333333333333</ele><time>2026-04-04T09:19:40Z</time></trkpt><trkpt lat="43.42757992621832" lon="10.802851674635745"><ele>111.0</ele><time>2026-04-04T09:19:41Z</time></trkpt><trkpt lat="43.4276375833251" lon="10.802924110755704"><ele>111.83333333333333</ele><time>2026-04-04T09:19:42Z</time></trkpt><trkpt lat="43.427701021813064" lon="10.802972978549125"><ele>112.66666666666666</ele><time>2026-04-04T09:19:43Z</time></trkpt><trkpt lat="43.4277727269776" lon="10.803004383324545"><ele>113.5</ele><time>2026-04-04T09:19:44Z</time></trkpt><trkpt lat="43.42784628810585" lon="10.803012470174677"><ele>114.33333333333333</ele><time>2026-04-04T09:19:45Z</time></trkpt><trkpt lat="43.42793330876735" lon="10.803010267848078"><ele>115.16666666666666</ele><time>2026-04-04T09:19:46Z</time></trkpt><trkpt lat="43.4280179919519" lon="10.803003167650637"><ele>116.0</ele><time>2026-04-04T09:19:47Z</time></trkpt><trkpt lat="43.42811889733284" lon="10.803000064877601"><ele>116.83333333333333</ele><time>2026-04-04T09:19:48Z</time></trkpt><trkpt lat="43.42821291866361" lon="10.802999635823676"><ele>117.66666666666666</ele><time>2026-04-04T09:19:49Z</time></trkpt><trkpt lat="43.42830066705317" lon="10.80300669974882"><ele>118.5</ele><time>2026-04-04T09:19:50Z</time></trkpt><trkpt lat="43.428374587132524" lon="10.803025475134472"><ele>119.33333333333334</ele><time>2026-04-04T09:19:51Z</time></trkpt><trkpt lat="43.42845511445984" lon="10.803062282307458"><ele>120.16666666666667</ele><time>2026-04-04T09:19:52Z</time></trkpt><trkpt lat="43.428524218938186" lon="10.803124847901937"><ele>121.0</ele><time>2026-04-04T09:19:53Z</time></trkpt><trkpt lat="43.428594578453826" lon="10.803220891616013"><ele>121.0</ele><time>2026-04-04T09:19:54Z</time></trkpt><trkpt lat="43.42866929960841" lon="10.803335445932348"><ele>121.0</ele><time>2026-04-04T09:19:55Z</time></trkpt><trkpt lat="43.42874111553512" lon="10.803443413611538"><ele>121.0</ele><time>2026-04-04T09:19:56Z</time></trkpt><trkpt lat="43.42881018017999" lon="10.803543874817336"><ele>121.0</ele><time>2026-04-04T09:19:57Z</time></trkpt><trkpt lat="43.42887216743491" lon="10.803624449169483"><ele>121.0</ele><time>2026-04-04T09:19:58Z</time></trkpt><trkpt lat="43.428931267448846" lon="10.803694964404146"><ele>123.33333333333334</ele><time>2026-04-04T09:19:59Z</time></trkpt><trkpt lat="43.42899570016394" lon="10.80374143155599"><ele>125.66666666666667</ele><time>2026-04-04T09:20:00Z</time></trkpt><trkpt lat="43.42906805894448" lon="10.803767055393699"><ele>128.0</ele><time>2026-04-04T09:20:01Z</time></trkpt><trkpt lat="43.429160464678375" lon="10.803782117965167"><ele>130.33333333333334</ele><time>2026-04-04T09:20:02Z</time></trkpt><trkpt lat="43.42924582467102" lon="10.803791083037208"><ele>132.66666666666666</ele><time>2026-04-04T09:20:03Z</time></trkpt><trkpt lat="43.429340590454835" lon="10.803805303277061"><ele>135.0</ele><time>2026-04-04T09:20:04Z</time></trkpt><trkpt lat="43.42943655146904" lon="10.80382785342702"><ele>135.0</ele><time>2026-04-04T09:20:05Z</time></trkpt><trkpt lat="43.429529485036056" lon="10.80385915456591"><ele>135.0</ele><time>2026-04-04T09:20:06Z</time></trkpt><trkpt lat="43.42961362674592" lon="10.803902720909997"><ele>135.0</ele><time>2026-04-04T09:20:07Z</time></trkpt><trkpt lat="43.429679441351844" lon="10.803961732522989"><ele>135.0</ele><time>2026-04-04T09:20:08Z</time></trkpt><trkpt lat="43.42974171497479" lon="10.80404401564525"><ele>135.0</ele><time>2026-04-04T09:20:09Z</time></trkpt><trkpt lat="43.42979854202879" lon="10.804148241889939"><ele>135.0</ele><time>2026-04-04T09:20:10Z</time></trkpt><trkpt lat="43.429849540155224" lon="10.8042676236595"><ele>134.5</ele><time>2026-04-04T09:20:11Z</time></trkpt><trkpt lat="43.429876678223366" lon="10.804386150179567"><ele>134.0</ele><time>2026-04-04T09:20:12Z</time></trkpt><trkpt lat="43.42990036488125" lon="10.804518397534231"><ele>133.5</ele><time>2026-04-04T09:20:13Z</time></trkpt><trkpt lat="43.42990190039425" lon="10.804632094990232"><ele>133.0</ele><time>2026-04-04T09:20:14Z</time></trkpt><trkpt lat="43.42988915475633" lon="10.804747462716715"><ele>132.5</ele><time>2026-04-04T09:20:15Z</time></trkpt><trkpt lat="43.429863304293974" lon="10.804869930680772"><ele>132.0</ele><time>2026-04-04T09:20:16Z</time></trkpt><trkpt lat="43.429829783448746" lon="10.804993401083317"><ele>132.0</ele><time>2026-04-04T09:20:17Z</time></trkpt><trkpt lat="43.42978614628993" lon="10.805127222798067"><ele>132.0</ele><time>2026-04-04T09:20:18Z</time></trkpt><trkpt lat="43.4297362111795" lon="10.80526319792767"><ele>132.0</ele><time>2026-04-04T09:20:19Z</time></trkpt><trkpt lat="43.429686840108516" lon="10.805391934708753"><ele>132.0</ele><time>2026-04-04T09:20:20Z</time></trkpt><trkpt lat="43.42963844356764" lon="10.805524493576508"><ele>132.0</ele><time>2026-04-04T09:20:21Z</time></trkpt><trkpt lat="43.429595803473305" lon="10.805652287520447"><ele>135.6</ele><time>2026-04-04T09:20:22Z</time></trkpt><trkpt lat="43.4295499833293" lon="10.805788867299276"><ele>139.2</ele><time>2026-04-04T09:20:23Z</time></trkpt><trkpt lat="43.42950840548747" lon="10.805918667462176"><ele>142.8</ele><time>2026-04-04T09:20:23.999Z</time></trkpt><trkpt lat="43.429466238299426" lon="10.80604223997994"><ele>146.4</ele><time>2026-04-04T09:20:24.999Z</time></trkpt><trkpt lat="43.42942665541785" lon="10.806155810623101"><ele>150.0</ele><time>2026-04-04T09:20:25.999Z</time></trkpt><trkpt lat="43.42938985560979" lon="10.806288209481506"><ele>150.6</ele><time>2026-04-04T09:20:26.999Z</time></trkpt><trkpt lat="43.42935581828112" lon="10.806418579627321"><ele>151.2</ele><time>2026-04-04T09:20:27.999Z</time></trkpt><trkpt lat="43.429324660041146" lon="10.806551407099256"><ele>151.8</ele><time>2026-04-04T09:20:28.999Z</time></trkpt><trkpt lat="43.42928784359295" lon="10.806692290461116"><ele>152.4</ele><time>2026-04-04T09:20:29.999Z</time></trkpt><trkpt lat="43.42925144384478" lon="10.806829458124572"><ele>153.0</ele><time>2026-04-04T09:20:30.999Z</time></trkpt><trkpt lat="43.42920821621258" lon="10.806975189836956"><ele>153.4</ele><time>2026-04-04T09:20:31.999Z</time></trkpt><trkpt lat="43.42916725284163" lon="10.807121088950383"><ele>153.8</ele><time>2026-04-04T09:20:32.999Z</time></trkpt><trkpt lat="43.42912816989397" lon="10.807275644568872"><ele>154.2</ele><time>2026-04-04T09:20:33.999Z</time></trkpt><trkpt lat="43.429089333290456" lon="10.807429091332585"><ele>154.6</ele><time>2026-04-04T09:20:34.999Z</time></trkpt><trkpt lat="43.42905626570041" lon="10.80755572628342"><ele>155.0</ele><time>2026-04-04T09:20:35.999Z</time></trkpt><trkpt lat="43.42901846085567" lon="10.807669935764471"><ele>155.0</ele><time>2026-04-04T09:20:36.999Z</time></trkpt><trkpt lat="43.4289738617047" lon="10.807760348703539"><ele>155.0</ele><time>2026-04-04T09:20:37.999Z</time></trkpt><trkpt lat="43.42891302965924" lon="10.807855614400736"><ele>155.0</ele><time>2026-04-04T09:20:38.999Z</time></trkpt><trkpt lat="43.42882971606113" lon="10.807966240659107"><ele>155.0</ele><time>2026-04-04T09:20:39.999Z</time></trkpt><trkpt lat="43.42873777197996" lon="10.808078286904406"><ele>155.0</ele><time>2026-04-04T09:20:40.999Z</time></trkpt><trkpt lat="43.42864461022639" lon="10.808192544034702"><ele>157.16666666666666</ele><time>2026-04-04T09:20:41.999Z</time></trkpt><trkpt lat="43.428568281694474" lon="10.808286583898308"><ele>159.33333333333331</ele><time>2026-04-04T09:20:42.999Z</time></trkpt><trkpt lat="43.42851486771051" lon="10.808365795690092"><ele>161.5</ele><time>2026-04-04T09:20:43.999Z</time></trkpt><trkpt lat="43.42847373598304" lon="10.808449954824566"><ele>163.66666666666666</ele><time>2026-04-04T09:20:44.999Z</time></trkpt><trkpt lat="43.428449638408665" lon="10.808543167879165"><ele>165.83333333333334</ele><time>2026-04-04T09:20:45.999Z</time></trkpt><trkpt lat="43.42843374547594" lon="10.80865179796165"><ele>168.0</ele><time>2026-04-04T09:20:46.999Z</time></trkpt><trkpt lat="43.428424223393854" lon="10.808758190153164"><ele>168.4</ele><time>2026-04-04T09:20:47.999Z</time></trkpt><trkpt lat="43.42841777653145" lon="10.808867808788452"><ele>168.8</ele><time>2026-04-04T09:20:48.999Z</time></trkpt><trkpt lat="43.4284151588009" lon="10.809001717641575"><ele>169.2</ele><time>2026-04-04T09:20:49.999Z</time></trkpt><trkpt lat="43.42840577588109" lon="10.809176435013462"><ele>169.6</ele><time>2026-04-04T09:20:50.999Z</time></trkpt><trkpt lat="43.42839300783004" lon="10.809358076458274"><ele>170.0</ele><time>2026-04-04T09:20:51.999Z</time></trkpt><trkpt lat="43.42838023482532" lon="10.809539099500354"><ele>171.0</ele><time>2026-04-04T09:20:52.999Z</time></trkpt><trkpt lat="43.42836781452339" lon="10.809719934218414"><ele>172.0</ele><time>2026-04-04T09:20:53.999Z</time></trkpt><trkpt lat="43.428358658694606" lon="10.809883099071625"><ele>173.0</ele><time>2026-04-04T09:20:54.999Z</time></trkpt><trkpt lat="43.42834956195555" lon="10.810047479318003"><ele>174.0</ele><time>2026-04-04T09:20:55.999Z</time></trkpt><trkpt lat="43.428341573916086" lon="10.810213225717312"><ele>175.5</ele><time>2026-04-04T09:20:56.999Z</time></trkpt><trkpt lat="43.428329428872786" lon="10.81038471848255"><ele>177.0</ele><time>2026-04-04T09:20:57.999Z</time></trkpt><trkpt lat="43.4283150433843" lon="10.810547037657486"><ele>178.5</ele><time>2026-04-04T09:20:58.999Z</time></trkpt><trkpt lat="43.428299968631435" lon="10.810708453200048"><ele>180.0</ele><time>2026-04-04T09:20:59.999Z</time></trkpt><trkpt lat="43.42828393432535" lon="10.810872069534996"><ele>180.0</ele><time>2026-04-04T09:21:00.999Z</time></trkpt><trkpt lat="43.42827505580029" lon="10.810997571183306"><ele>180.0</ele><time>2026-04-04T09:21:01.999Z</time></trkpt><trkpt lat="43.428278660496744" lon="10.811112123383873"><ele>180.0</ele><time>2026-04-04T09:21:02.999Z</time></trkpt><trkpt lat="43.42829845117468" lon="10.811220318672987"><ele>180.0</ele><time>2026-04-04T09:21:03.999Z</time></trkpt><trkpt lat="43.42833805782871" lon="10.811344430154385"><ele>180.0</ele><time>2026-04-04T09:21:04.999Z</time></trkpt><trkpt lat="43.428383608689344" lon="10.81146175534245"><ele>180.0</ele><time>2026-04-04T09:21:05.999Z</time></trkpt><trkpt lat="43.42843667860871" lon="10.811579501077857"><ele>180.0</ele><time>2026-04-04T09:21:06.999Z</time></trkpt><trkpt lat="43.42849873363816" lon="10.81170183117656"><ele>180.0</ele><time>2026-04-04T09:21:07.999Z</time></trkpt><trkpt lat="43.428563714677104" lon="10.811829900142378"><ele>180.0</ele><time>2026-04-04T09:21:08.999Z</time></trkpt><trkpt lat="43.428625198862136" lon="10.811956906190822"><ele>180.0</ele><time>2026-04-04T09:21:09.999Z</time></trkpt><trkpt lat="43.42869308529643" lon="10.81209645539341"><ele>178.0</ele><time>2026-04-04T09:21:10.999Z</time></trkpt><trkpt lat="43.42875415072714" lon="10.812236628628028"><ele>176.0</ele><time>2026-04-04T09:21:11.999Z</time></trkpt><trkpt lat="43.428809199184364" lon="10.81237964661178"><ele>174.0</ele><time>2026-04-04T09:21:12.999Z</time></trkpt><trkpt lat="43.42885396315663" lon="10.812523798045023"><ele>172.0</ele><time>2026-04-04T09:21:13.999Z</time></trkpt><trkpt lat="43.428884361970056" lon="10.812681219534106"><ele>177.25</ele><time>2026-04-04T09:21:14.999Z</time></trkpt><trkpt lat="43.42891156540348" lon="10.812832981802586"><ele>182.5</ele><time>2026-04-04T09:21:15.999Z</time></trkpt><trkpt lat="43.4289419934174" lon="10.812992866845576"><ele>187.75</ele><time>2026-04-04T09:21:17Z</time></trkpt><trkpt lat="43.42896619059203" lon="10.813152203232155"><ele>193.0</ele><time>2026-04-04T09:21:18Z</time></trkpt><trkpt lat="43.42898880514824" lon="10.813310043210993"><ele>193.0</ele><time>2026-04-04T09:21:19Z</time></trkpt><trkpt lat="43.429012060251054" lon="10.813447987547306"><ele>193.0</ele><time>2026-04-04T09:21:20Z</time></trkpt><trkpt lat="43.42903928949672" lon="10.813566114680428"><ele>193.0</ele><time>2026-04-04T09:21:21Z</time></trkpt><trkpt lat="43.42907557747987" lon="10.813668730263336"><ele>193.0</ele><time>2026-04-04T09:21:22Z</time></trkpt><trkpt lat="43.429128512166415" lon="10.813780282805524"><ele>193.0</ele><time>2026-04-04T09:21:23Z</time></trkpt><trkpt lat="43.42917990918945" lon="10.813865988205007"><ele>191.60000000000002</ele><time>2026-04-04T09:21:24Z</time></trkpt><trkpt lat="43.429244287131205" lon="10.813961100305303"><ele>190.20000000000002</ele><time>2026-04-04T09:21:25Z</time></trkpt><trkpt lat="43.42930347373802" lon="10.814039740144354"><ele>188.8</ele><time>2026-04-04T09:21:26Z</time></trkpt><trkpt lat="43.42937300960171" lon="10.814113765063055"><ele>187.4</ele><time>2026-04-04T09:21:27Z</time></trkpt><trkpt lat="43.4294460997865" lon="10.814186865329342"><ele>186.0</ele><time>2026-04-04T09:21:28Z</time></trkpt><trkpt lat="43.42952379175177" lon="10.814262654739535"><ele>186.60000000000002</ele><time>2026-04-04T09:21:29Z</time></trkpt><trkpt lat="43.429600637687045" lon="10.814340806018325"><ele>187.2</ele><time>2026-04-04T09:21:30Z</time></trkpt><trkpt lat="43.42968871691867" lon="10.814433248110403"><ele>187.8</ele><time>2026-04-04T09:21:31Z</time></trkpt><trkpt lat="43.42977774289181" lon="10.814523897012998"><ele>188.39999999999998</ele><time>2026-04-04T09:21:32Z</time></trkpt><trkpt lat="43.429868357088864" lon="10.814614772613586"><ele>189.0</ele><time>2026-04-04T09:21:33Z</time></trkpt><trkpt lat="43.42995286432599" lon="10.814720399167657"><ele>189.0</ele><time>2026-04-04T09:21:34Z</time></trkpt><trkpt lat="43.43002201503479" lon="10.814837029964734"><ele>189.0</ele><time>2026-04-04T09:21:35Z</time></trkpt><trkpt lat="43.43008312440786" lon="10.814966165567844"><ele>189.0</ele><time>2026-04-04T09:21:36Z</time></trkpt><trkpt lat="43.43012373903478" lon="10.815108705965214"><ele>189.0</ele><time>2026-04-04T09:21:37Z</time></trkpt><trkpt lat="43.43015488684857" lon="10.815262718248688"><ele>189.0</ele><time>2026-04-04T09:21:38Z</time></trkpt><trkpt lat="43.430188867118524" lon="10.815448018434916"><ele>189.75</ele><time>2026-04-04T09:21:39Z</time></trkpt><trkpt lat="43.43022025348679" lon="10.815622727887888"><ele>190.5</ele><time>2026-04-04T09:21:40Z</time></trkpt><trkpt lat="43.43026093918802" lon="10.815799545169138"><ele>191.25</ele><time>2026-04-04T09:21:41Z</time></trkpt><trkpt lat="43.43031765652893" lon="10.815964535097631"><ele>192.0</ele><time>2026-04-04T09:21:42Z</time></trkpt><trkpt lat="43.43038757717339" lon="10.81612162904074"><ele>192.75</ele><time>2026-04-04T09:21:43Z</time></trkpt><trkpt lat="43.43047189009077" lon="10.816277984304438"><ele>193.5</ele><time>2026-04-04T09:21:44Z</time></trkpt><trkpt lat="43.430561150466" lon="10.81643214342007"><ele>194.25</ele><time>2026-04-04T09:21:45Z</time></trkpt><trkpt lat="43.43064994616572" lon="10.816570874508397"><ele>195.0</ele><time>2026-04-04T09:21:46Z</time></trkpt><trkpt lat="43.43072508736118" lon="10.816686845039293"><ele>195.4</ele><time>2026-04-04T09:21:47Z</time></trkpt><trkpt lat="43.43078968941151" lon="10.816789194431385"><ele>195.8</ele><time>2026-04-04T09:21:48Z</time></trkpt><trkpt lat="43.430867212599324" lon="10.816895385418539"><ele>196.2</ele><time>2026-04-04T09:21:49Z</time></trkpt><trkpt lat="43.430943297985834" lon="10.81699931633786"><ele>196.6</ele><time>2026-04-04T09:21:50Z</time></trkpt><trkpt lat="43.43101427367121" lon="10.81709489683616"><ele>197.0</ele><time>2026-04-04T09:21:51Z</time></trkpt><trkpt lat="43.43107841865353" lon="10.817193358684241"><ele>200.0</ele><time>2026-04-04T09:21:52Z</time></trkpt><trkpt lat="43.43113981372436" lon="10.817303776434434"><ele>203.0</ele><time>2026-04-04T09:21:53Z</time></trkpt><trkpt lat="43.431197401227486" lon="10.817428484865772"><ele>206.0</ele><time>2026-04-04T09:21:54Z</time></trkpt><trkpt lat="43.431246140820804" lon="10.817558644717625"><ele>209.0</ele><time>2026-04-04T09:21:55Z</time></trkpt><trkpt lat="43.43128703615385" lon="10.817697569047237"><ele>212.0</ele><time>2026-04-04T09:21:56Z</time></trkpt><trkpt lat="43.431318532375954" lon="10.817828299357847"><ele>213.39999999999998</ele><time>2026-04-04T09:21:57Z</time></trkpt><trkpt lat="43.43134016430398" lon="10.817953289703269"><ele>214.79999999999998</ele><time>2026-04-04T09:21:58Z</time></trkpt><trkpt lat="43.431365237804016" lon="10.818072814898187"><ele>216.2</ele><time>2026-04-04T09:21:59Z</time></trkpt><trkpt lat="43.431397877350456" lon="10.818198886058395"><ele>217.6</ele><time>2026-04-04T09:22:00Z</time></trkpt><trkpt lat="43.431439149458384" lon="10.81831466325057"><ele>219.0</ele><time>2026-04-04T09:22:01Z</time></trkpt><trkpt lat="43.43149049980653" lon="10.818424790868786"><ele>216.79999999999998</ele><time>2026-04-04T09:22:02Z</time></trkpt><trkpt lat="43.431555759682084" lon="10.818521369653425"><ele>214.59999999999997</ele><time>2026-04-04T09:22:03Z</time></trkpt><trkpt lat="43.43163104210357" lon="10.818613594455556"><ele>212.4</ele><time>2026-04-04T09:22:04Z</time></trkpt><trkpt lat="43.431711906215405" lon="10.81870207789073"><ele>210.2</ele><time>2026-04-04T09:22:05Z</time></trkpt><trkpt lat="43.431798822745634" lon="10.818792248477386"><ele>208.0</ele><time>2026-04-04T09:22:06Z</time></trkpt><trkpt lat="43.43188692292108" lon="10.818874808327177"><ele>208.0</ele><time>2026-04-04T09:22:07Z</time></trkpt><trkpt lat="43.431975599492965" lon="10.818961364242984"><ele>208.0</ele><time>2026-04-04T09:22:08Z</time></trkpt><trkpt lat="43.432066061079745" lon="10.819049853003145"><ele>208.0</ele><time>2026-04-04T09:22:09Z</time></trkpt><trkpt lat="43.43214845089515" lon="10.819137128659733"><ele>208.0</ele><time>2026-04-04T09:22:10Z</time></trkpt><trkpt lat="43.43223524145931" lon="10.81922942296999"><ele>208.0</ele><time>2026-04-04T09:22:11Z</time></trkpt><trkpt lat="43.43231459000983" lon="10.819331351061752"><ele>210.75</ele><time>2026-04-04T09:22:12Z</time></trkpt><trkpt lat="43.432385471035325" lon="10.819446711552283"><ele>213.5</ele><time>2026-04-04T09:22:12.999Z</time></trkpt><trkpt lat="43.43244871549234" lon="10.819571399094901"><ele>216.25</ele><time>2026-04-04T09:22:13.999Z</time></trkpt><trkpt lat="43.43251960530373" lon="10.819708561028774"><ele>219.0</ele><time>2026-04-04T09:22:14.999Z</time></trkpt><trkpt lat="43.43258859380781" lon="10.819845706038533"><ele>219.0</ele><time>2026-04-04T09:22:15.999Z</time></trkpt><trkpt lat="43.43265540258277" lon="10.81997425919468"><ele>219.0</ele><time>2026-04-04T09:22:16.999Z</time></trkpt><trkpt lat="43.43272837422872" lon="10.82010068115195"><ele>219.0</ele><time>2026-04-04T09:22:17.999Z</time></trkpt><trkpt lat="43.43280368317954" lon="10.820223805674857"><ele>219.0</ele><time>2026-04-04T09:22:18.999Z</time></trkpt><trkpt lat="43.432879802353106" lon="10.820331778213252"><ele>219.0</ele><time>2026-04-04T09:22:19.999Z</time></trkpt><trkpt lat="43.43296224987348" lon="10.820427526642874"><ele>218.99999999999997</ele><time>2026-04-04T09:22:20.999Z</time></trkpt><trkpt lat="43.43304070306387" lon="10.820504547755496"><ele>218.99999999999997</ele><time>2026-04-04T09:22:21.999Z</time></trkpt><trkpt lat="43.433122030294506" lon="10.82058414841236"><ele>219.0</ele><time>2026-04-04T09:22:22.999Z</time></trkpt><trkpt lat="43.43321909342105" lon="10.820666893778958"><ele>219.0</ele><time>2026-04-04T09:22:23.999Z</time></trkpt><trkpt lat="43.4333218562924" lon="10.820744890178295"><ele>220.25</ele><time>2026-04-04T09:22:24.999Z</time></trkpt><trkpt lat="43.43343312353316" lon="10.820820464475787"><ele>221.5</ele><time>2026-04-04T09:22:25.999Z</time></trkpt><trkpt lat="43.43355083141889" lon="10.82090066324651"><ele>222.75</ele><time>2026-04-04T09:22:26.999Z</time></trkpt><trkpt lat="43.43366737834038" lon="10.82098144621386"><ele>224.0</ele><time>2026-04-04T09:22:27.999Z</time></trkpt><trkpt lat="43.43377716510822" lon="10.821060578992718"><ele>222.0</ele><time>2026-04-04T09:22:28.999Z</time></trkpt><trkpt lat="43.43387818018677" lon="10.821137057848498"><ele>219.99999999999997</ele><time>2026-04-04T09:22:29.999Z</time></trkpt><trkpt lat="43.43396670554478" lon="10.821200568072017"><ele>217.99999999999997</ele><time>2026-04-04T09:22:30.999Z</time></trkpt><trkpt lat="43.434063694903266" lon="10.821268675309058"><ele>216.0</ele><time>2026-04-04T09:22:31.999Z</time></trkpt><trkpt lat="43.43416141690171" lon="10.821342663442648"><ele>214.0</ele><time>2026-04-04T09:22:32.999Z</time></trkpt><trkpt lat="43.43425520170411" lon="10.82141889847936"><ele>214.0</ele><time>2026-04-04T09:22:33.999Z</time></trkpt><trkpt lat="43.43434959621753" lon="10.821491289327108"><ele>213.99999999999997</ele><time>2026-04-04T09:22:34.999Z</time></trkpt><trkpt lat="43.43443811902222" lon="10.821559902121498"><ele>213.99999999999997</ele><time>2026-04-04T09:22:35.999Z</time></trkpt><trkpt lat="43.43451787975138" lon="10.821617810299365"><ele>214.0</ele><time>2026-04-04T09:22:36.999Z</time></trkpt><trkpt lat="43.4345989326225" lon="10.821673675385911"><ele>214.0</ele><time>2026-04-04T09:22:37.999Z</time></trkpt><trkpt lat="43.4346842719622" lon="10.821725709935967"><ele>214.83333333333331</ele><time>2026-04-04T09:22:38.999Z</time></trkpt><trkpt lat="43.43476542054905" lon="10.82177539697574"><ele>215.66666666666666</ele><time>2026-04-04T09:22:39.999Z</time></trkpt><trkpt lat="43.43485332217946" lon="10.821838392414291"><ele>216.5</ele><time>2026-04-04T09:22:40.999Z</time></trkpt><trkpt lat="43.434929308826035" lon="10.821898722690603"><ele>217.33333333333331</ele><time>2026-04-04T09:22:41.999Z</time></trkpt><trkpt lat="43.43499777248957" lon="10.821963680274116"><ele>218.16666666666666</ele><time>2026-04-04T09:22:42.999Z</time></trkpt><trkpt lat="43.43506735849089" lon="10.822038301827204"><ele>219.0</ele><time>2026-04-04T09:22:43.999Z</time></trkpt><trkpt lat="43.435126602502066" lon="10.82212834177093"><ele>219.0</ele><time>2026-04-04T09:22:44.999Z</time></trkpt><trkpt lat="43.43518885060969" lon="10.822247244029528"><ele>219.0</ele><time>2026-04-04T09:22:45.999Z</time></trkpt><trkpt lat="43.435254973604394" lon="10.822378057703569"><ele>219.0</ele><time>2026-04-04T09:22:46.999Z</time></trkpt><trkpt lat="43.435321591023374" lon="10.822518489327166"><ele>219.0</ele><time>2026-04-04T09:22:47.999Z</time></trkpt><trkpt lat="43.435388021057506" lon="10.822664354211573"><ele>218.75</ele><time>2026-04-04T09:22:48.999Z</time></trkpt><trkpt lat="43.435453360272895" lon="10.82281172022656"><ele>218.5</ele><time>2026-04-04T09:22:49.999Z</time></trkpt><trkpt lat="43.43551669983308" lon="10.822959804162355"><ele>218.25</ele><time>2026-04-04T09:22:50.999Z</time></trkpt><trkpt lat="43.435584397520394" lon="10.823111598046085"><ele>218.0</ele><time>2026-04-04T09:22:51.999Z</time></trkpt><trkpt lat="43.43565531040381" lon="10.823252113340326"><ele>218.0</ele><time>2026-04-04T09:22:52.999Z</time></trkpt><trkpt lat="43.43570544439086" lon="10.823375418236344"><ele>218.0</ele><time>2026-04-04T09:22:53.999Z</time></trkpt><trkpt lat="43.43574105908645" lon="10.823492734157904"><ele>218.0</ele><time>2026-04-04T09:22:54.999Z</time></trkpt><trkpt lat="43.43576117229876" lon="10.823616807007848"><ele>218.0</ele><time>2026-04-04T09:22:55.999Z</time></trkpt><trkpt lat="43.43577118226652" lon="10.823747848615879"><ele>218.0</ele><time>2026-04-04T09:22:56.999Z</time></trkpt><trkpt lat="43.435775940905906" lon="10.823855389482068"><ele>218.00000000000003</ele><time>2026-04-04T09:22:57.999Z</time></trkpt><trkpt lat="43.43578931197505" lon="10.82395892745924"><ele>218.0</ele><time>2026-04-04T09:22:58.999Z</time></trkpt><trkpt lat="43.4358186997148" lon="10.824075005808437"><ele>218.0</ele><time>2026-04-04T09:22:59.999Z</time></trkpt><trkpt lat="43.435862885619976" lon="10.82418230450579"><ele>218.0</ele><time>2026-04-04T09:23:00.999Z</time></trkpt><trkpt lat="43.43592118040621" lon="10.824278568726795"><ele>218.00000000000003</ele><time>2026-04-04T09:23:01.999Z</time></trkpt><trkpt lat="43.43598906541342" lon="10.824369283428304"><ele>218.0</ele><time>2026-04-04T09:23:02.999Z</time></trkpt><trkpt lat="43.43605972728732" lon="10.824454643781028"><ele>216.8</ele><time>2026-04-04T09:23:03.999Z</time></trkpt><trkpt lat="43.43611931466379" lon="10.82454929722823"><ele>215.60000000000002</ele><time>2026-04-04T09:23:04.999Z</time></trkpt><trkpt lat="43.436158240372116" lon="10.824662774241103"><ele>214.39999999999998</ele><time>2026-04-04T09:23:05.999Z</time></trkpt><trkpt lat="43.43617983247019" lon="10.824781539347773"><ele>213.2</ele><time>2026-04-04T09:23:06.999Z</time></trkpt><trkpt lat="43.436189288290045" lon="10.824912056650174"><ele>212.0</ele><time>2026-04-04T09:23:07.999Z</time></trkpt><trkpt lat="43.43618007153885" lon="10.82503446606745"><ele>212.00000000000003</ele><time>2026-04-04T09:23:08.999Z</time></trkpt><trkpt lat="43.4361616597597" lon="10.825137590296714"><ele>212.0</ele><time>2026-04-04T09:23:09.999Z</time></trkpt><trkpt lat="43.43614686115829" lon="10.82525566947707"><ele>212.0</ele><time>2026-04-04T09:23:10.999Z</time></trkpt><trkpt lat="43.43613506747444" lon="10.825376090341582"><ele>212.0</ele><time>2026-04-04T09:23:11.999Z</time></trkpt><trkpt lat="43.436131946941714" lon="10.825499768501587"><ele>212.00000000000003</ele><time>2026-04-04T09:23:12.999Z</time></trkpt><trkpt lat="43.43614153262627" lon="10.825620269726635"><ele>212.0</ele><time>2026-04-04T09:23:13.999Z</time></trkpt><trkpt lat="43.43616182470626" lon="10.825743576539978"><ele>211.6</ele><time>2026-04-04T09:23:14.999Z</time></trkpt><trkpt lat="43.43618885314109" lon="10.825872667618174"><ele>211.2</ele><time>2026-04-04T09:23:15.999Z</time></trkpt><trkpt lat="43.436217445673265" lon="10.825993259041764"><ele>210.8</ele><time>2026-04-04T09:23:16.999Z</time></trkpt><trkpt lat="43.43624005545792" lon="10.82610799278605"><ele>210.4</ele><time>2026-04-04T09:23:17.999Z</time></trkpt><trkpt lat="43.4362559193692" lon="10.826231626149317"><ele>210.0</ele><time>2026-04-04T09:23:18.999Z</time></trkpt><trkpt lat="43.43625530647169" lon="10.826356292374314"><ele>210.0</ele><time>2026-04-04T09:23:19.999Z</time></trkpt><trkpt lat="43.436229429079006" lon="10.826486928055223"><ele>210.0</ele><time>2026-04-04T09:23:20.999Z</time></trkpt><trkpt lat="43.436181211478214" lon="10.82662307003578"><ele>210.0</ele><time>2026-04-04T09:23:21.999Z</time></trkpt><trkpt lat="43.43611637234732" lon="10.826749256957958"><ele>210.0</ele><time>2026-04-04T09:23:23Z</time></trkpt><trkpt lat="43.43603166202778" lon="10.826876986353332"><ele>210.0</ele><time>2026-04-04T09:23:24Z</time></trkpt><trkpt lat="43.43594124541823" lon="10.826998563814263"><ele>210.6</ele><time>2026-04-04T09:23:25Z</time></trkpt><trkpt lat="43.43586800599583" lon="10.827102169882643"><ele>211.2</ele><time>2026-04-04T09:23:26Z</time></trkpt><trkpt lat="43.43580642980291" lon="10.827193686979644"><ele>211.8</ele><time>2026-04-04T09:23:27Z</time></trkpt><trkpt lat="43.43574689133658" lon="10.827279977696518"><ele>212.4</ele><time>2026-04-04T09:23:28Z</time></trkpt><trkpt lat="43.435675365127665" lon="10.827373660305867"><ele>213.0</ele><time>2026-04-04T09:23:29Z</time></trkpt><trkpt lat="43.435603280865195" lon="10.827473577653823"><ele>213.0</ele><time>2026-04-04T09:23:30Z</time></trkpt><trkpt lat="43.43553565978178" lon="10.827576133801005"><ele>213.0</ele><time>2026-04-04T09:23:31Z</time></trkpt><trkpt lat="43.43547693899205" lon="10.827677269360429"><ele>213.0</ele><time>2026-04-04T09:23:32Z</time></trkpt><trkpt lat="43.4354236482704" lon="10.827790737724278"><ele>213.0</ele><time>2026-04-04T09:23:33Z</time></trkpt><trkpt lat="43.43537884718636" lon="10.827910215938022"><ele>213.0</ele><time>2026-04-04T09:23:34Z</time></trkpt><trkpt lat="43.435342518965435" lon="10.828034032075506"><ele>216.0</ele><time>2026-04-04T09:23:35Z</time></trkpt><trkpt lat="43.43530820020758" lon="10.828161779972126"><ele>219.0</ele><time>2026-04-04T09:23:36Z</time></trkpt><trkpt lat="43.43527885913056" lon="10.828289112880492"><ele>222.0</ele><time>2026-04-04T09:23:37Z</time></trkpt><trkpt lat="43.43525193534156" lon="10.828412599656328"><ele>225.0</ele><time>2026-04-04T09:23:38Z</time></trkpt><trkpt lat="43.435224418297736" lon="10.828538846001745"><ele>228.0</ele><time>2026-04-04T09:23:39Z</time></trkpt><trkpt lat="43.4352015977082" lon="10.828655958441729"><ele>228.0</ele><time>2026-04-04T09:23:40Z</time></trkpt><trkpt lat="43.43518057632767" lon="10.828769764049158"><ele>228.0</ele><time>2026-04-04T09:23:41Z</time></trkpt><trkpt lat="43.43516604737683" lon="10.828887334860873"><ele>228.0</ele><time>2026-04-04T09:23:42Z</time></trkpt><trkpt lat="43.43516388993406" lon="10.829005127348392"><ele>228.0</ele><time>2026-04-04T09:23:43Z</time></trkpt><trkpt lat="43.43516544882155" lon="10.829128206861503"><ele>228.0</ele><time>2026-04-04T09:23:44Z</time></trkpt><trkpt lat="43.43517525779673" lon="10.829246955500109"><ele>228.0</ele><time>2026-04-04T09:23:45Z</time></trkpt><trkpt lat="43.435189404214086" lon="10.829376715051085"><ele>225.8</ele><time>2026-04-04T09:23:46Z</time></trkpt><trkpt lat="43.435210341980756" lon="10.829498271487436"><ele>223.60000000000002</ele><time>2026-04-04T09:23:47Z</time></trkpt><trkpt lat="43.43523607628984" lon="10.829623976621818"><ele>221.39999999999998</ele><time>2026-04-04T09:23:48Z</time></trkpt><trkpt lat="43.43526185455445" lon="10.829739731977837"><ele>219.2</ele><time>2026-04-04T09:23:49Z</time></trkpt><trkpt lat="43.43530180109534" lon="10.829859241378973"><ele>217.0</ele><time>2026-04-04T09:23:50Z</time></trkpt><trkpt lat="43.43535694086816" lon="10.829972180127234"><ele>217.0</ele><time>2026-04-04T09:23:51Z</time></trkpt><trkpt lat="43.43543042955355" lon="10.830093760607681"><ele>217.0</ele><time>2026-04-04T09:23:52Z</time></trkpt><trkpt lat="43.43551683529823" lon="10.830214934772576"><ele>217.0</ele><time>2026-04-04T09:23:53Z</time></trkpt><trkpt lat="43.43561400265617" lon="10.830348050381943"><ele>217.0</ele><time>2026-04-04T09:23:54Z</time></trkpt><trkpt lat="43.43570189023319" lon="10.830474480877069"><ele>219.2</ele><time>2026-04-04T09:23:55Z</time></trkpt><trkpt lat="43.43576822987045" lon="10.830585987735882"><ele>221.39999999999998</ele><time>2026-04-04T09:23:56Z</time></trkpt><trkpt lat="43.43581811902376" lon="10.830692334636803"><ele>223.60000000000002</ele><time>2026-04-04T09:23:57Z</time></trkpt><trkpt lat="43.435859313611786" lon="10.830805951488657"><ele>225.8</ele><time>2026-04-04T09:23:58Z</time></trkpt><trkpt lat="43.43589744346036" lon="10.830937310786638"><ele>228.0</ele><time>2026-04-04T09:23:59Z</time></trkpt><trkpt lat="43.43592272775877" lon="10.831085561258817"><ele>228.75</ele><time>2026-04-04T09:24:00Z</time></trkpt><trkpt lat="43.43594180574963" lon="10.83125308336241"><ele>229.5</ele><time>2026-04-04T09:24:01Z</time></trkpt><trkpt lat="43.43595732679146" lon="10.831424775838999"><ele>230.25</ele><time>2026-04-04T09:24:02Z</time></trkpt><trkpt lat="43.4359692280143" lon="10.831601500267324"><ele>231.0</ele><time>2026-04-04T09:24:03Z</time></trkpt><trkpt lat="43.43597992444661" lon="10.831777429491746"><ele>231.0</ele><time>2026-04-04T09:24:04Z</time></trkpt><trkpt lat="43.43598893486643" lon="10.831953802904984"><ele>231.0</ele><time>2026-04-04T09:24:05Z</time></trkpt><trkpt lat="43.43599620417909" lon="10.832126124191271"><ele>231.0</ele><time>2026-04-04T09:24:06Z</time></trkpt><trkpt lat="43.43600182088862" lon="10.832270923578584"><ele>231.0</ele><time>2026-04-04T09:24:07Z</time></trkpt><trkpt lat="43.435985282094336" lon="10.832400790691189"><ele>231.0</ele><time>2026-04-04T09:24:08Z</time></trkpt><trkpt lat="43.435963194309714" lon="10.832512708006067"><ele>231.0</ele><time>2026-04-04T09:24:09Z</time></trkpt><trkpt lat="43.435921550163435" lon="10.83261298914842"><ele>231.0</ele><time>2026-04-04T09:24:10Z</time></trkpt><trkpt lat="43.435866762117904" lon="10.832682419538722"><ele>231.0</ele><time>2026-04-04T09:24:11Z</time></trkpt><trkpt lat="43.435797167788834" lon="10.832750386477947"><ele>231.0</ele><time>2026-04-04T09:24:12Z</time></trkpt><trkpt lat="43.435722044162326" lon="10.832790561990391"><ele>231.0</ele><time>2026-04-04T09:24:13Z</time></trkpt><trkpt lat="43.435642104272034" lon="10.832807438851153"><ele>229.4</ele><time>2026-04-04T09:24:14Z</time></trkpt><trkpt lat="43.43554501284622" lon="10.832812644696167"><ele>227.8</ele><time>2026-04-04T09:24:15Z</time></trkpt><trkpt lat="43.43543881724457" lon="10.83280544046397"><ele>226.20000000000002</ele><time>2026-04-04T09:24:16Z</time></trkpt><trkpt lat="43.43532146699098" lon="10.832788807082753"><ele>224.60000000000002</ele><time>2026-04-04T09:24:17Z</time></trkpt><trkpt lat="43.435205785057846" lon="10.832785517404076"><ele>223.0</ele><time>2026-04-04T09:24:18Z</time></trkpt><trkpt lat="43.435099716992404" lon="10.832788761307803"><ele>222.99999999999997</ele><time>2026-04-04T09:24:19Z</time></trkpt><trkpt lat="43.435008884086166" lon="10.832809638941564"><ele>223.0</ele><time>2026-04-04T09:24:20Z</time></trkpt><trkpt lat="43.434927636411295" lon="10.832854461614696"><ele>223.0</ele><time>2026-04-04T09:24:21Z</time></trkpt><trkpt lat="43.43485147485085" lon="10.832915955754533"><ele>223.0</ele><time>2026-04-04T09:24:22Z</time></trkpt><trkpt lat="43.43478664234289" lon="10.83299683021683"><ele>222.99999999999997</ele><time>2026-04-04T09:24:23Z</time></trkpt><trkpt lat="43.43473000642218" lon="10.83309997128067"><ele>223.0</ele><time>2026-04-04T09:24:24Z</time></trkpt><trkpt lat="43.43468347011745" lon="10.833207736527877"><ele>222.99999999999997</ele><time>2026-04-04T09:24:25Z</time></trkpt><trkpt lat="43.434640175969136" lon="10.833320814680755"><ele>223.0</ele><time>2026-04-04T09:24:26Z</time></trkpt><trkpt lat="43.4345997462344" lon="10.833441222251787"><ele>223.0</ele><time>2026-04-04T09:24:27Z</time></trkpt><trkpt lat="43.43456492954232" lon="10.833544796013554"><ele>223.0</ele><time>2026-04-04T09:24:28Z</time></trkpt><trkpt lat="43.43453012483473" lon="10.833641613955779"><ele>222.99999999999997</ele><time>2026-04-04T09:24:29Z</time></trkpt><trkpt lat="43.43448770555319" lon="10.833744337409652"><ele>223.0</ele><time>2026-04-04T09:24:30Z</time></trkpt><trkpt lat="43.434441451226895" lon="10.833846855265998"><ele>223.16666666666666</ele><time>2026-04-04T09:24:31Z</time></trkpt><trkpt lat="43.43438713993654" lon="10.833951178927332"><ele>223.33333333333331</ele><time>2026-04-04T09:24:32Z</time></trkpt><trkpt lat="43.43433434086375" lon="10.834042245613588"><ele>223.5</ele><time>2026-04-04T09:24:33Z</time></trkpt><trkpt lat="43.43427415556496" lon="10.834149090454153"><ele>223.66666666666669</ele><time>2026-04-04T09:24:34Z</time></trkpt><trkpt lat="43.43421720249454" lon="10.834233773658251"><ele>223.83333333333334</ele><time>2026-04-04T09:24:35Z</time></trkpt><trkpt lat="43.4341578202981" lon="10.834301438512558"><ele>224.0</ele><time>2026-04-04T09:24:36Z</time></trkpt><trkpt lat="43.434095990258285" lon="10.834360573474969"><ele>222.00000000000003</ele><time>2026-04-04T09:24:37Z</time></trkpt><trkpt lat="43.43402928742732" lon="10.834419568298461"><ele>220.0</ele><time>2026-04-04T09:24:38Z</time></trkpt><trkpt lat="43.43395136357882" lon="10.83448546416566"><ele>218.0</ele><time>2026-04-04T09:24:39Z</time></trkpt><trkpt lat="43.43388296632509" lon="10.834546348770331"><ele>216.0</ele><time>2026-04-04T09:24:40Z</time></trkpt><trkpt lat="43.43380859707128" lon="10.834604163350011"><ele>214.00000000000003</ele><time>2026-04-04T09:24:41Z</time></trkpt><trkpt lat="43.433741230174576" lon="10.834667889295504"><ele>212.0</ele><time>2026-04-04T09:24:42Z</time></trkpt><trkpt lat="43.43369069586431" lon="10.834741772047249"><ele>212.0</ele><time>2026-04-04T09:24:43Z</time></trkpt><trkpt lat="43.43365905793119" lon="10.834835035282918"><ele>212.0</ele><time>2026-04-04T09:24:44Z</time></trkpt><trkpt lat="43.4336410313268" lon="10.834945631355025"><ele>212.0</ele><time>2026-04-04T09:24:45Z</time></trkpt><trkpt lat="43.433639268884214" lon="10.835078499322622"><ele>212.0</ele><time>2026-04-04T09:24:46Z</time></trkpt><trkpt lat="43.43364289966044" lon="10.835230923627984"><ele>212.0</ele><time>2026-04-04T09:24:46.999Z</time></trkpt><trkpt lat="43.43364237976872" lon="10.835386237707207"><ele>212.0</ele><time>2026-04-04T09:24:47.999Z</time></trkpt><trkpt lat="43.433619644486114" lon="10.835544736582666"><ele>212.0</ele><time>2026-04-04T09:24:48.999Z</time></trkpt><trkpt lat="43.433575774017896" lon="10.83570409267074"><ele>212.0</ele><time>2026-04-04T09:24:49.999Z</time></trkpt><trkpt lat="43.433517950133854" lon="10.835861634115249"><ele>212.0</ele><time>2026-04-04T09:24:50.999Z</time></trkpt><trkpt lat="43.43344594468872" lon="10.836018137076609"><ele>213.2</ele><time>2026-04-04T09:24:51.999Z</time></trkpt><trkpt lat="43.433371911450855" lon="10.836157454233375"><ele>214.39999999999998</ele><time>2026-04-04T09:24:52.999Z</time></trkpt><trkpt lat="43.43330529209463" lon="10.836289953244437"><ele>215.60000000000002</ele><time>2026-04-04T09:24:53.999Z</time></trkpt><trkpt lat="43.43325921068486" lon="10.83640664940721"><ele>216.8</ele><time>2026-04-04T09:24:54.999Z</time></trkpt><trkpt lat="43.433231447531185" lon="10.836521427974006"><ele>218.0</ele><time>2026-04-04T09:24:55.999Z</time></trkpt><trkpt lat="43.433220110419875" lon="10.836640985209893"><ele>218.00000000000003</ele><time>2026-04-04T09:24:56.999Z</time></trkpt><trkpt lat="43.43321917711038" lon="10.836762952829426"><ele>218.0</ele><time>2026-04-04T09:24:57.999Z</time></trkpt><trkpt lat="43.433234385108896" lon="10.836874960720575"><ele>218.0</ele><time>2026-04-04T09:24:58.999Z</time></trkpt><trkpt lat="43.433264612536924" lon="10.83699442461463"><ele>218.0</ele><time>2026-04-04T09:24:59.999Z</time></trkpt><trkpt lat="43.433308002110316" lon="10.837104556449626"><ele>218.00000000000003</ele><time>2026-04-04T09:25:00.999Z</time></trkpt><trkpt lat="43.433363579204695" lon="10.83720466841307"><ele>218.0</ele><time>2026-04-04T09:25:01.999Z</time></trkpt><trkpt lat="43.43342763353884" lon="10.8372787839039"><ele>220.8</ele><time>2026-04-04T09:25:02.999Z</time></trkpt><trkpt lat="43.43350275496483" lon="10.837345046765577"><ele>223.60000000000002</ele><time>2026-04-04T09:25:03.999Z</time></trkpt><trkpt lat="43.433593477825866" lon="10.837413397936482"><ele>226.39999999999998</ele><time>2026-04-04T09:25:04.999Z</time></trkpt><trkpt lat="43.43368355206619" lon="10.837480737333953"><ele>229.2</ele><time>2026-04-04T09:25:05.999Z</time></trkpt><trkpt lat="43.43376463066474" lon="10.83754739105691"><ele>232.0</ele><time>2026-04-04T09:25:06.999Z</time></trkpt><trkpt lat="43.433831323627885" lon="10.837608410349636"><ele>233.33333333333331</ele><time>2026-04-04T09:25:07.999Z</time></trkpt><trkpt lat="43.43389632131182" lon="10.837669789772601"><ele>234.66666666666666</ele><time>2026-04-04T09:25:08.999Z</time></trkpt><trkpt lat="43.43396156615169" lon="10.837722751702113"><ele>236.0</ele><time>2026-04-04T09:25:09.999Z</time></trkpt><trkpt lat="43.43402826906413" lon="10.83777298988554"><ele>237.33333333333331</ele><time>2026-04-04T09:25:10.999Z</time></trkpt><trkpt lat="43.43410201458377" lon="10.837831439468854"><ele>238.66666666666666</ele><time>2026-04-04T09:25:11.999Z</time></trkpt><trkpt lat="43.434173688501495" lon="10.837903824505263"><ele>240.0</ele><time>2026-04-04T09:25:12.999Z</time></trkpt><trkpt lat="43.43424285542472" lon="10.8380004348887"><ele>240.0</ele><time>2026-04-04T09:25:13.999Z</time></trkpt><trkpt lat="43.434300251159165" lon="10.838105064347966"><ele>240.0</ele><time>2026-04-04T09:25:14.999Z</time></trkpt><trkpt lat="43.43433959159427" lon="10.838212253855719"><ele>240.0</ele><time>2026-04-04T09:25:15.999Z</time></trkpt><trkpt lat="43.43435845105034" lon="10.838332885180678"><ele>240.0</ele><time>2026-04-04T09:25:16.999Z</time></trkpt><trkpt lat="43.4343586862262" lon="10.83844418685879"><ele>240.0</ele><time>2026-04-04T09:25:17.999Z</time></trkpt><trkpt lat="43.434341390341025" lon="10.838539247801037"><ele>240.0</ele><time>2026-04-04T09:25:18.999Z</time></trkpt><trkpt lat="43.434308103089315" lon="10.838622145569232"><ele>238.33333333333334</ele><time>2026-04-04T09:25:19.999Z</time></trkpt><trkpt lat="43.434261843380824" lon="10.838695986114383"><ele>236.66666666666669</ele><time>2026-04-04T09:25:20.999Z</time></trkpt><trkpt lat="43.43420192799587" lon="10.838757471186192"><ele>235.0</ele><time>2026-04-04T09:25:21.999Z</time></trkpt><trkpt lat="43.43413324514785" lon="10.838798019573431"><ele>233.33333333333334</ele><time>2026-04-04T09:25:22.999Z</time></trkpt><trkpt lat="43.43405482285502" lon="10.83882143952515"><ele>231.66666666666669</ele><time>2026-04-04T09:25:23.999Z</time></trkpt><trkpt lat="43.43396866147987" lon="10.838825114401326"><ele>230.0</ele><time>2026-04-04T09:25:24.999Z</time></trkpt><trkpt lat="43.433869665372356" lon="10.83881946466065"><ele>230.4</ele><time>2026-04-04T09:25:25.999Z</time></trkpt><trkpt lat="43.43376905028584" lon="10.838830911926504"><ele>230.8</ele><time>2026-04-04T09:25:26.999Z</time></trkpt><trkpt lat="43.43366368960558" lon="10.838864672503533"><ele>231.2</ele><time>2026-04-04T09:25:27.999Z</time></trkpt><trkpt lat="43.43355674701718" lon="10.838912452814709"><ele>231.6</ele><time>2026-04-04T09:25:29Z</time></trkpt><trkpt lat="43.43345989351713" lon="10.838965486803032"><ele>232.0</ele><time>2026-04-04T09:25:30Z</time></trkpt><trkpt lat="43.433360796868506" lon="10.839018906004844"><ele>232.0</ele><time>2026-04-04T09:25:31Z</time></trkpt><trkpt lat="43.4332550666352" lon="10.839071067891547"><ele>232.0</ele><time>2026-04-04T09:25:32Z</time></trkpt><trkpt lat="43.43315285176724" lon="10.839120285031054"><ele>232.0</ele><time>2026-04-04T09:25:33Z</time></trkpt><trkpt lat="43.433054203964275" lon="10.839161533130461"><ele>232.0</ele><time>2026-04-04T09:25:34Z</time></trkpt><trkpt lat="43.43296115266564" lon="10.839200477172824"><ele>232.0</ele><time>2026-04-04T09:25:35Z</time></trkpt><trkpt lat="43.43287596744136" lon="10.839241338881072"><ele>231.0</ele><time>2026-04-04T09:25:36Z</time></trkpt><trkpt lat="43.43279843796032" lon="10.839294520561431"><ele>230.0</ele><time>2026-04-04T09:25:37Z</time></trkpt><trkpt lat="43.43271501123412" lon="10.839369208023639"><ele>229.0</ele><time>2026-04-04T09:25:38Z</time></trkpt><trkpt lat="43.43262911315136" lon="10.839459212609205"><ele>228.0</ele><time>2026-04-04T09:25:39Z</time></trkpt><trkpt lat="43.432554310628724" lon="10.839542625171612"><ele>227.0</ele><time>2026-04-04T09:25:40Z</time></trkpt><trkpt lat="43.43248655979412" lon="10.839621259973907"><ele>225.6</ele><time>2026-04-04T09:25:41Z</time></trkpt><trkpt lat="43.43241894548786" lon="10.839702945297079"><ele>224.2</ele><time>2026-04-04T09:25:42Z</time></trkpt><trkpt lat="43.43234709835893" lon="10.839790930299603"><ele>222.8</ele><time>2026-04-04T09:25:43Z</time></trkpt><trkpt lat="43.43227167348358" lon="10.839877116759011"><ele>221.4</ele><time>2026-04-04T09:25:44Z</time></trkpt><trkpt lat="43.43220112848012" lon="10.839956753884518"><ele>220.0</ele><time>2026-04-04T09:25:45Z</time></trkpt><trkpt lat="43.432130228082336" lon="10.840046832249543"><ele>223.8</ele><time>2026-04-04T09:25:46Z</time></trkpt><trkpt lat="43.43206167133555" lon="10.840137288846712"><ele>227.6</ele><time>2026-04-04T09:25:47Z</time></trkpt><trkpt lat="43.43199148449569" lon="10.840225535525867"><ele>231.39999999999998</ele><time>2026-04-04T09:25:48Z</time></trkpt><trkpt lat="43.43191785810012" lon="10.840317109285287"><ele>235.2</ele><time>2026-04-04T09:25:49Z</time></trkpt><trkpt lat="43.43184530981893" lon="10.840409347291331"><ele>239.0</ele><time>2026-04-04T09:25:50Z</time></trkpt><trkpt lat="43.43176813172193" lon="10.84050282332225"><ele>239.00000000000003</ele><time>2026-04-04T09:25:51Z</time></trkpt><trkpt lat="43.431694176506596" lon="10.84059336291489"><ele>239.0</ele><time>2026-04-04T09:25:52Z</time></trkpt><trkpt lat="43.43162444415879" lon="10.840684713216515"><ele>239.0</ele><time>2026-04-04T09:25:53Z</time></trkpt><trkpt lat="43.431571050717274" lon="10.840772443530838"><ele>239.0</ele><time>2026-04-04T09:25:54Z</time></trkpt><trkpt lat="43.43152450913435" lon="10.840858984029873"><ele>239.00000000000003</ele><time>2026-04-04T09:25:55Z</time></trkpt><trkpt lat="43.43149507706075" lon="10.840965865230796"><ele>239.0</ele><time>2026-04-04T09:25:56Z</time></trkpt><trkpt lat="43.43147696312173" lon="10.841089202326001"><ele>240.39999999999998</ele><time>2026-04-04T09:25:57Z</time></trkpt><trkpt lat="43.43147321317766" lon="10.841222625404194"><ele>241.79999999999998</ele><time>2026-04-04T09:25:58Z</time></trkpt><trkpt lat="43.43148489079969" lon="10.841366303014661"><ele>243.20000000000002</ele><time>2026-04-04T09:25:59Z</time></trkpt><trkpt lat="43.43150327977068" lon="10.841499528706349"><ele>244.60000000000002</ele><time>2026-04-04T09:26:00Z</time></trkpt><trkpt lat="43.431528990681336" lon="10.841644202711828"><ele>246.0</ele><time>2026-04-04T09:26:01Z</time></trkpt><trkpt lat="43.43156941889481" lon="10.841760472141791"><ele>247.8</ele><time>2026-04-04T09:26:02Z</time></trkpt><trkpt lat="43.43160591444397" lon="10.841840216545487"><ele>249.60000000000002</ele><time>2026-04-04T09:26:03Z</time></trkpt><trkpt lat="43.43167778570822" lon="10.841924384477448"><ele>251.4</ele><time>2026-04-04T09:26:04Z</time></trkpt><trkpt lat="43.431763543612135" lon="10.84198303749434"><ele>253.2</ele><time>2026-04-04T09:26:05Z</time></trkpt><trkpt lat="43.431859108672114" lon="10.842026348536166"><ele>255.0</ele><time>2026-04-04T09:26:06Z</time></trkpt><trkpt lat="43.431968057075345" lon="10.842057632861744"><ele>255.0</ele><time>2026-04-04T09:26:07Z</time></trkpt><trkpt lat="43.432080827418226" lon="10.842087250471238"><ele>255.0</ele><time>2026-04-04T09:26:08Z</time></trkpt><trkpt lat="43.4321944398056" lon="10.842116502744995"><ele>255.0</ele><time>2026-04-04T09:26:09Z</time></trkpt><trkpt lat="43.43231113114282" lon="10.842146692279208"><ele>255.0</ele><time>2026-04-04T09:26:10Z</time></trkpt><trkpt lat="43.43242059974902" lon="10.842178375865057"><ele>254.5</ele><time>2026-04-04T09:26:11Z</time></trkpt><trkpt lat="43.43251834861516" lon="10.842215058058487"><ele>254.0</ele><time>2026-04-04T09:26:12Z</time></trkpt><trkpt lat="43.432591505995255" lon="10.84225923310417"><ele>253.5</ele><time>2026-04-04T09:26:13Z</time></trkpt><trkpt lat="43.4326460728128" lon="10.842311154489067"><ele>253.0</ele><time>2026-04-04T09:26:14Z</time></trkpt><trkpt lat="43.43269562677387" lon="10.84237339299225"><ele>252.5</ele><time>2026-04-04T09:26:15Z</time></trkpt><trkpt lat="43.43276141847244" lon="10.842518834449937"><ele>252.0</ele><time>2026-04-04T09:26:17Z</time></trkpt><trkpt lat="43.43278591010742" lon="10.842658125470185"><ele>251.0</ele><time>2026-04-04T09:26:19Z</time></trkpt><trkpt lat="43.432777318056374" lon="10.842747731205513"><ele>250.0</ele><time>2026-04-04T09:26:51.999Z</time></trkpt><trkpt lat="43.43276940337677" lon="10.842838601139565"><ele>249.0</ele><time>2026-04-04T09:26:54.999Z</time></trkpt><trkpt lat="43.43266466642268" lon="10.842901523175524"><ele>248.0</ele><time>2026-04-04T09:26:57.999Z</time></trkpt><trkpt lat="43.432584074869574" lon="10.842871544230388"><ele>247.0</ele><time>2026-04-04T09:26:58.999Z</time></trkpt><trkpt lat="43.43248968749336" lon="10.842868163880164"><ele>246.0</ele><time>2026-04-04T09:26:59.999Z</time></trkpt><trkpt lat="43.43240147351053" lon="10.842880602380399"><ele>246.0</ele><time>2026-04-04T09:27:00.999Z</time></trkpt><trkpt lat="43.43230469678986" lon="10.842898409684928"><ele>246.00000000000003</ele><time>2026-04-04T09:27:01.999Z</time></trkpt><trkpt lat="43.43220999023305" lon="10.842915460344926"><ele>246.00000000000003</ele><time>2026-04-04T09:27:02.999Z</time></trkpt><trkpt lat="43.43210892140419" lon="10.842953231714102"><ele>246.0</ele><time>2026-04-04T09:27:03.999Z</time></trkpt><trkpt lat="43.43200709899607" lon="10.843013915379121"><ele>246.0</ele><time>2026-04-04T09:27:04.999Z</time></trkpt><trkpt lat="43.43190583465667" lon="10.843086290338814"><ele>247.8</ele><time>2026-04-04T09:27:05.999Z</time></trkpt><trkpt lat="43.431806728809825" lon="10.843156767989354"><ele>249.60000000000002</ele><time>2026-04-04T09:27:06.999Z</time></trkpt><trkpt lat="43.43170809222677" lon="10.843223134478668"><ele>251.4</ele><time>2026-04-04T09:27:07.999Z</time></trkpt><trkpt lat="43.43161412280229" lon="10.843287638521458"><ele>253.2</ele><time>2026-04-04T09:27:08.999Z</time></trkpt><trkpt lat="43.431519108950255" lon="10.843352536203673"><ele>255.0</ele><time>2026-04-04T09:27:09.999Z</time></trkpt><trkpt lat="43.43142642030048" lon="10.843414999840663"><ele>256.4</ele><time>2026-04-04T09:27:10.999Z</time></trkpt><trkpt lat="43.43133139637973" lon="10.84347447273008"><ele>257.8</ele><time>2026-04-04T09:27:11.999Z</time></trkpt><trkpt lat="43.43123487566665" lon="10.843530976094504"><ele>259.2</ele><time>2026-04-04T09:27:12.999Z</time></trkpt><trkpt lat="43.431134571790544" lon="10.843586337966139"><ele>260.6</ele><time>2026-04-04T09:27:13.999Z</time></trkpt><trkpt lat="43.43103151530291" lon="10.84363029310655"><ele>262.0</ele><time>2026-04-04T09:27:14.999Z</time></trkpt><trkpt lat="43.4309252367049" lon="10.843657892381888"><ele>262.0</ele><time>2026-04-04T09:27:15.999Z</time></trkpt><trkpt lat="43.430823706416845" lon="10.843685159498003"><ele>262.0</ele><time>2026-04-04T09:27:16.999Z</time></trkpt><trkpt lat="43.430720579405516" lon="10.843675405367105"><ele>262.0</ele><time>2026-04-04T09:27:17.999Z</time></trkpt><trkpt lat="43.43062417895739" lon="10.843630950469333"><ele>262.0</ele><time>2026-04-04T09:27:18.999Z</time></trkpt><trkpt lat="43.430531845433684" lon="10.843569880365344"><ele>262.0</ele><time>2026-04-04T09:27:19.999Z</time></trkpt><trkpt lat="43.43044555953497" lon="10.843492636234501"><ele>261.5</ele><time>2026-04-04T09:27:20.999Z</time></trkpt><trkpt lat="43.43034231244988" lon="10.843426627512315"><ele>261.0</ele><time>2026-04-04T09:27:21.999Z</time></trkpt><trkpt lat="43.43023032573879" lon="10.843355383678025"><ele>260.5</ele><time>2026-04-04T09:27:22.999Z</time></trkpt><trkpt lat="43.43011897976815" lon="10.843266942836884"><ele>260.0</ele><time>2026-04-04T09:27:23.999Z</time></trkpt><trkpt lat="43.43001617365278" lon="10.843167850712609"><ele>260.0</ele><time>2026-04-04T09:27:24.999Z</time></trkpt><trkpt lat="43.429936617548464" lon="10.843064221622166"><ele>260.0</ele><time>2026-04-04T09:27:25.999Z</time></trkpt><trkpt lat="43.42987094997638" lon="10.842941849663259"><ele>260.0</ele><time>2026-04-04T09:27:26.999Z</time></trkpt><trkpt lat="43.42981223802961" lon="10.842791971682415"><ele>260.0</ele><time>2026-04-04T09:27:27.999Z</time></trkpt><trkpt lat="43.42975110421138" lon="10.842635957118516"><ele>262.75</ele><time>2026-04-04T09:27:28.999Z</time></trkpt><trkpt lat="43.4296899026674" lon="10.842468571381946"><ele>265.5</ele><time>2026-04-04T09:27:29.999Z</time></trkpt><trkpt lat="43.42961079749724" lon="10.842311233795915"><ele>268.25</ele><time>2026-04-04T09:27:30.999Z</time></trkpt><trkpt lat="43.429514217900625" lon="10.842165693381839"><ele>271.0</ele><time>2026-04-04T09:27:31.999Z</time></trkpt><trkpt lat="43.429412340608785" lon="10.8420233338436"><ele>270.0</ele><time>2026-04-04T09:27:32.999Z</time></trkpt><trkpt lat="43.429304882267985" lon="10.841884986308521"><ele>269.0</ele><time>2026-04-04T09:27:33.999Z</time></trkpt><trkpt lat="43.42918280040061" lon="10.84173883684045"><ele>268.0</ele><time>2026-04-04T09:27:34.999Z</time></trkpt><trkpt lat="43.42906555827579" lon="10.841603796197932"><ele>268.0</ele><time>2026-04-04T09:27:35.999Z</time></trkpt><trkpt lat="43.42896228277132" lon="10.84148005087186"><ele>268.0</ele><time>2026-04-04T09:27:36.999Z</time></trkpt><trkpt lat="43.42886066167399" lon="10.84133849750432"><ele>268.0</ele><time>2026-04-04T09:27:37.999Z</time></trkpt><trkpt lat="43.4287609604202" lon="10.841151313081022"><ele>266.75</ele><time>2026-04-04T09:27:38.999Z</time></trkpt><trkpt lat="43.428680276822085" lon="10.840963917097167"><ele>265.5</ele><time>2026-04-04T09:27:39.999Z</time></trkpt><trkpt lat="43.428610572573156" lon="10.840791737699305"><ele>264.25</ele><time>2026-04-04T09:27:40.999Z</time></trkpt><trkpt lat="43.42854159347277" lon="10.840646558613633"><ele>263.0</ele><time>2026-04-04T09:27:41.999Z</time></trkpt><trkpt lat="43.42845508395693" lon="10.840529285608373"><ele>263.0</ele><time>2026-04-04T09:27:42.999Z</time></trkpt><trkpt lat="43.42833038672551" lon="10.840443866556573"><ele>263.0</ele><time>2026-04-04T09:27:43.999Z</time></trkpt><trkpt lat="43.42818636074942" lon="10.84040164540557"><ele>263.0</ele><time>2026-04-04T09:27:44.999Z</time></trkpt><trkpt lat="43.428006044833985" lon="10.840383221003826"><ele>261.0</ele><time>2026-04-04T09:27:45.999Z</time></trkpt><trkpt lat="43.42782013727558" lon="10.840330847933021"><ele>259.0</ele><time>2026-04-04T09:27:46.999Z</time></trkpt><trkpt lat="43.42766519185144" lon="10.840274337449637"><ele>257.0</ele><time>2026-04-04T09:27:47.999Z</time></trkpt><trkpt lat="43.427518533670636" lon="10.840210415341431"><ele>257.0</ele><time>2026-04-04T09:27:48.999Z</time></trkpt><trkpt lat="43.42738520426357" lon="10.840143096512183"><ele>257.0</ele><time>2026-04-04T09:27:49.999Z</time></trkpt><trkpt lat="43.427245469370234" lon="10.840106879460208"><ele>257.0</ele><time>2026-04-04T09:27:50.999Z</time></trkpt><trkpt lat="43.42709828552269" lon="10.840134268084226"><ele>257.0</ele><time>2026-04-04T09:27:51.999Z</time></trkpt><trkpt lat="43.42694509938041" lon="10.840217099222992"><ele>258.33333333333337</ele><time>2026-04-04T09:27:52.999Z</time></trkpt><trkpt lat="43.42678916305745" lon="10.840344183960873"><ele>259.6666666666667</ele><time>2026-04-04T09:27:53.999Z</time></trkpt><trkpt lat="43.42663448662616" lon="10.840442688681044"><ele>261.0</ele><time>2026-04-04T09:27:54.999Z</time></trkpt><trkpt lat="43.4264830374211" lon="10.840529522258263"><ele>261.0</ele><time>2026-04-04T09:27:55.999Z</time></trkpt><trkpt lat="43.426338210098784" lon="10.840604487152415"><ele>261.0</ele><time>2026-04-04T09:27:56.999Z</time></trkpt><trkpt lat="43.4261962494427" lon="10.84066964693317"><ele>261.0</ele><time>2026-04-04T09:27:57.999Z</time></trkpt><trkpt lat="43.42606030590468" lon="10.840734715384265"><ele>261.0</ele><time>2026-04-04T09:27:58.999Z</time></trkpt><trkpt lat="43.42593262228518" lon="10.840806212760228"><ele>262.75</ele><time>2026-04-04T09:27:59.999Z</time></trkpt><trkpt lat="43.42581559324517" lon="10.840887503714912"><ele>264.5</ele><time>2026-04-04T09:28:00.999Z</time></trkpt><trkpt lat="43.42571118330031" lon="10.8409908384735"><ele>266.25</ele><time>2026-04-04T09:28:01.999Z</time></trkpt><trkpt lat="43.425620920416335" lon="10.841114823729717"><ele>268.0</ele><time>2026-04-04T09:28:02.999Z</time></trkpt><trkpt lat="43.42553947690622" lon="10.841261449110723"><ele>270.75</ele><time>2026-04-04T09:28:03.999Z</time></trkpt><trkpt lat="43.42545891664682" lon="10.841407594721735"><ele>273.5</ele><time>2026-04-04T09:28:04.999Z</time></trkpt><trkpt lat="43.425366546556695" lon="10.841519678654652"><ele>276.25</ele><time>2026-04-04T09:28:05.999Z</time></trkpt><trkpt lat="43.42527603525185" lon="10.841638205475416"><ele>279.0</ele><time>2026-04-04T09:28:06.999Z</time></trkpt><trkpt lat="43.42519111294796" lon="10.841725939804965"><ele>279.0</ele><time>2026-04-04T09:28:07.999Z</time></trkpt><trkpt lat="43.425105060416044" lon="10.841772803109121"><ele>279.0</ele><time>2026-04-04T09:28:08.999Z</time></trkpt><trkpt lat="43.425016869532605" lon="10.841772695748109"><ele>279.0</ele><time>2026-04-04T09:28:09.999Z</time></trkpt><trkpt lat="43.424936101999315" lon="10.8417228846731"><ele>279.0</ele><time>2026-04-04T09:28:10.999Z</time></trkpt><trkpt lat="43.424828724265964" lon="10.841637259830705"><ele>279.0</ele><time>2026-04-04T09:28:11.999Z</time></trkpt><trkpt lat="43.424729379854206" lon="10.84150107819556"><ele>275.5</ele><time>2026-04-04T09:28:12.999Z</time></trkpt><trkpt lat="43.424617112062535" lon="10.841340743172019"><ele>272.0</ele><time>2026-04-04T09:28:13.999Z</time></trkpt><trkpt lat="43.424526559749964" lon="10.841213273876926"><ele>268.5</ele><time>2026-04-04T09:28:14.999Z</time></trkpt><trkpt lat="43.42441790920084" lon="10.841112337376739"><ele>265.0</ele><time>2026-04-04T09:28:15.999Z</time></trkpt><trkpt lat="43.42432608466613" lon="10.84100094011707"><ele>269.25</ele><time>2026-04-04T09:28:16.999Z</time></trkpt><trkpt lat="43.42423608851603" lon="10.840887177887028"><ele>273.5</ele><time>2026-04-04T09:28:17.999Z</time></trkpt><trkpt lat="43.42413533977329" lon="10.840789626434887"><ele>277.75</ele><time>2026-04-04T09:28:18.999Z</time></trkpt><trkpt lat="43.424022244599286" lon="10.8407140968881"><ele>282.0</ele><time>2026-04-04T09:28:19.999Z</time></trkpt><trkpt lat="43.42390155340646" lon="10.8406590522862"><ele>278.5</ele><time>2026-04-04T09:28:20.999Z</time></trkpt><trkpt lat="43.42378814462691" lon="10.84057315120101"><ele>275.0</ele><time>2026-04-04T09:28:21.999Z</time></trkpt><trkpt lat="43.423683612709056" lon="10.840465055483651"><ele>271.5</ele><time>2026-04-04T09:28:22.999Z</time></trkpt><trkpt lat="43.42358547948823" lon="10.840364386147975"><ele>268.0</ele><time>2026-04-04T09:28:23.999Z</time></trkpt><trkpt lat="43.42347726966311" lon="10.840262550268582"><ele>268.0</ele><time>2026-04-04T09:28:24.999Z</time></trkpt><trkpt lat="43.42335520479429" lon="10.840167194559475"><ele>268.0</ele><time>2026-04-04T09:28:25.999Z</time></trkpt><trkpt lat="43.42322488448446" lon="10.840087734154215"><ele>268.0</ele><time>2026-04-04T09:28:26.999Z</time></trkpt><trkpt lat="43.42308816391303" lon="10.840025180790468"><ele>268.0</ele><time>2026-04-04T09:28:27.999Z</time></trkpt><trkpt lat="43.422955218478094" lon="10.83997656247839"><ele>271.25</ele><time>2026-04-04T09:28:28.999Z</time></trkpt><trkpt lat="43.42281802454804" lon="10.839931278920773"><ele>274.5</ele><time>2026-04-04T09:28:29.999Z</time></trkpt><trkpt lat="43.42267410661993" lon="10.83991076795501"><ele>277.75</ele><time>2026-04-04T09:28:30.999Z</time></trkpt><trkpt lat="43.42252594952493" lon="10.839925850088832"><ele>281.0</ele><time>2026-04-04T09:28:31.999Z</time></trkpt><trkpt lat="43.42237636018227" lon="10.839967863240703"><ele>281.0</ele><time>2026-04-04T09:28:32.999Z</time></trkpt><trkpt lat="43.4222281517716" lon="10.840014174134666"><ele>281.0</ele><time>2026-04-04T09:28:33.999Z</time></trkpt><trkpt lat="43.42208774848641" lon="10.840054500458518"><ele>281.0</ele><time>2026-04-04T09:28:34.999Z</time></trkpt><trkpt lat="43.421950746019334" lon="10.840094006920957"><ele>281.0</ele><time>2026-04-04T09:28:35.999Z</time></trkpt><trkpt lat="43.421819674820725" lon="10.840164589848769"><ele>278.75</ele><time>2026-04-04T09:28:36.999Z</time></trkpt><trkpt lat="43.4216836454492" lon="10.840272512261809"><ele>276.5</ele><time>2026-04-04T09:28:37.999Z</time></trkpt><trkpt lat="43.42156480667206" lon="10.840391659938389"><ele>274.25</ele><time>2026-04-04T09:28:38.999Z</time></trkpt><trkpt lat="43.4214461721381" lon="10.840504405160772"><ele>272.0</ele><time>2026-04-04T09:28:39.999Z</time></trkpt><trkpt lat="43.421330587262055" lon="10.840600578796241"><ele>272.25</ele><time>2026-04-04T09:28:40.999Z</time></trkpt><trkpt lat="43.4212130071353" lon="10.840678223832047"><ele>272.5</ele><time>2026-04-04T09:28:41.999Z</time></trkpt><trkpt lat="43.42110653915345" lon="10.840773611625584"><ele>272.75</ele><time>2026-04-04T09:28:42.999Z</time></trkpt><trkpt lat="43.42101260514296" lon="10.840894216964239"><ele>273.0</ele><time>2026-04-04T09:28:43.999Z</time></trkpt><trkpt lat="43.420932549973806" lon="10.841040942602389"><ele>274.25</ele><time>2026-04-04T09:28:44.999Z</time></trkpt><trkpt lat="43.42086363138337" lon="10.841174683636003"><ele>275.5</ele><time>2026-04-04T09:28:45.999Z</time></trkpt><trkpt lat="43.42079577790011" lon="10.841299679928575"><ele>276.75</ele><time>2026-04-04T09:28:46.999Z</time></trkpt><trkpt lat="43.42072773172603" lon="10.841440755206795"><ele>278.0</ele><time>2026-04-04T09:28:47.999Z</time></trkpt><trkpt lat="43.420659458343415" lon="10.841592178123806"><ele>278.0</ele><time>2026-04-04T09:28:48.999Z</time></trkpt><trkpt lat="43.42058182725159" lon="10.841740259303657"><ele>278.0</ele><time>2026-04-04T09:28:49.999Z</time></trkpt><trkpt lat="43.4205199081671" lon="10.841912124820938"><ele>278.0</ele><time>2026-04-04T09:28:50.999Z</time></trkpt><trkpt lat="43.42041426417352" lon="10.84194514804532"><ele>278.0</ele><time>2026-04-04T09:28:51.999Z</time></trkpt><trkpt lat="43.42039614347944" lon="10.84213311484369"><ele>281.5</ele><time>2026-04-04T09:28:52.999Z</time></trkpt><trkpt lat="43.42040809513668" lon="10.842339886862598"><ele>285.0</ele><time>2026-04-04T09:28:53.999Z</time></trkpt><trkpt lat="43.420441684390624" lon="10.842552271299951"><ele>288.5</ele><time>2026-04-04T09:28:54.999Z</time></trkpt><trkpt lat="43.420465704407185" lon="10.842739581206075"><ele>292.0</ele><time>2026-04-04T09:28:55.999Z</time></trkpt><trkpt lat="43.420459842712475" lon="10.842932827830653"><ele>291.6</ele><time>2026-04-04T09:28:56.999Z</time></trkpt><trkpt lat="43.420437511961545" lon="10.843091571140347"><ele>291.2</ele><time>2026-04-04T09:28:57.999Z</time></trkpt><trkpt lat="43.420410745687334" lon="10.843225189351857"><ele>290.8</ele><time>2026-04-04T09:28:58.999Z</time></trkpt><trkpt lat="43.42038416049761" lon="10.843370654044508"><ele>290.4</ele><time>2026-04-04T09:28:59.999Z</time></trkpt><trkpt lat="43.420352250850655" lon="10.843518763620544"><ele>290.0</ele><time>2026-04-04T09:29:00.999Z</time></trkpt><trkpt lat="43.42031410917944" lon="10.843645778233501"><ele>290.0</ele><time>2026-04-04T09:29:01.999Z</time></trkpt><trkpt lat="43.42025843593208" lon="10.843769372444003"><ele>290.0</ele><time>2026-04-04T09:29:02.999Z</time></trkpt><trkpt lat="43.42018740797967" lon="10.843880639071118"><ele>290.0</ele><time>2026-04-04T09:29:03.999Z</time></trkpt><trkpt lat="43.420093049633046" lon="10.843983444246968"><ele>290.0</ele><time>2026-04-04T09:29:04.999Z</time></trkpt><trkpt lat="43.41999110173315" lon="10.84405905796015"><ele>290.0</ele><time>2026-04-04T09:29:05.999Z</time></trkpt><trkpt lat="43.419869496509975" lon="10.84410993099298"><ele>290.0</ele><time>2026-04-04T09:29:06.999Z</time></trkpt><trkpt lat="43.41972315356405" lon="10.844140701485838"><ele>290.0</ele><time>2026-04-04T09:29:07.999Z</time></trkpt><trkpt lat="43.41959155599128" lon="10.844180961511825"><ele>290.0</ele><time>2026-04-04T09:29:08.999Z</time></trkpt><trkpt lat="43.41945585427273" lon="10.84428083678711"><ele>290.0</ele><time>2026-04-04T09:29:09.999Z</time></trkpt><trkpt lat="43.41931747162167" lon="10.84441564983224"><ele>291.0</ele><time>2026-04-04T09:29:10.999Z</time></trkpt><trkpt lat="43.41919745905905" lon="10.844530236921198"><ele>292.0</ele><time>2026-04-04T09:29:11.999Z</time></trkpt><trkpt lat="43.41908201930664" lon="10.84463802765849"><ele>293.0</ele><time>2026-04-04T09:29:12.999Z</time></trkpt><trkpt lat="43.418976772932645" lon="10.844737127890587"><ele>294.0</ele><time>2026-04-04T09:29:13.999Z</time></trkpt><trkpt lat="43.41886826278294" lon="10.844837360150438"><ele>292.75</ele><time>2026-04-04T09:29:14.999Z</time></trkpt><trkpt lat="43.418770753460194" lon="10.844936290709008"><ele>291.5</ele><time>2026-04-04T09:29:15.999Z</time></trkpt><trkpt lat="43.41870417550984" lon="10.845070150439406"><ele>290.25</ele><time>2026-04-04T09:29:16.999Z</time></trkpt><trkpt lat="43.41867425561665" lon="10.845244554626124"><ele>289.0</ele><time>2026-04-04T09:29:17.999Z</time></trkpt><trkpt lat="43.41865666864028" lon="10.845463798875345"><ele>292.5</ele><time>2026-04-04T09:29:18.999Z</time></trkpt><trkpt lat="43.418635273684124" lon="10.8456825747582"><ele>296.0</ele><time>2026-04-04T09:29:19.999Z</time></trkpt><trkpt lat="43.41861012799931" lon="10.845855708068903"><ele>299.5</ele><time>2026-04-04T09:29:20.999Z</time></trkpt><trkpt lat="43.41858232368078" lon="10.846000530875818"><ele>303.0</ele><time>2026-04-04T09:29:21.999Z</time></trkpt><trkpt lat="43.418530456304936" lon="10.846145140221163"><ele>305.0</ele><time>2026-04-04T09:29:22.999Z</time></trkpt><trkpt lat="43.41845533204467" lon="10.84627943799857"><ele>307.0</ele><time>2026-04-04T09:29:23.999Z</time></trkpt><trkpt lat="43.41840092212037" lon="10.84638921609521"><ele>309.0</ele><time>2026-04-04T09:29:24.999Z</time></trkpt><trkpt lat="43.41838165727849" lon="10.846503965382313"><ele>311.0</ele><time>2026-04-04T09:29:25.999Z</time></trkpt><trkpt lat="43.41838209694872" lon="10.846619042576942"><ele>313.0</ele><time>2026-04-04T09:29:26.999Z</time></trkpt><trkpt lat="43.418393627750554" lon="10.846709379749118"><ele>313.0</ele><time>2026-04-04T09:29:27.999Z</time></trkpt><trkpt lat="43.41836388300156" lon="10.8468883160918"><ele>313.0</ele><time>2026-04-04T09:29:29.999Z</time></trkpt><trkpt lat="43.41829963854778" lon="10.846980550940506"><ele>313.0</ele><time>2026-04-04T09:29:30.999Z</time></trkpt><trkpt lat="43.41822029303659" lon="10.847053984153506"><ele>313.0</ele><time>2026-04-04T09:29:31.999Z</time></trkpt><trkpt lat="43.41815608480512" lon="10.847107937107678"><ele>313.0</ele><time>2026-04-04T09:29:32.999Z</time></trkpt><trkpt lat="43.41810522578859" lon="10.847162489529497"><ele>313.0</ele><time>2026-04-04T09:29:33.999Z</time></trkpt><trkpt lat="43.41803065552357" lon="10.847294816219433"><ele>313.0</ele><time>2026-04-04T09:29:35.999Z</time></trkpt><trkpt lat="43.41799128652191" lon="10.84740595506742"><ele>313.0</ele><time>2026-04-04T09:29:36.999Z</time></trkpt><trkpt lat="43.417962844064256" lon="10.847533724079195"><ele>313.0</ele><time>2026-04-04T09:29:37.999Z</time></trkpt><trkpt lat="43.41794960788513" lon="10.847664858338538"><ele>313.0</ele><time>2026-04-04T09:29:38.999Z</time></trkpt><trkpt lat="43.417955116498646" lon="10.847814209616672"><ele>314.6</ele><time>2026-04-04T09:29:39.999Z</time></trkpt><trkpt lat="43.417965888435035" lon="10.847961903664066"><ele>316.20000000000005</ele><time>2026-04-04T09:29:40.999Z</time></trkpt><trkpt lat="43.41797860555739" lon="10.848081412902097"><ele>317.8</ele><time>2026-04-04T09:29:41.999Z</time></trkpt><trkpt lat="43.4179913003261" lon="10.848198961447842"><ele>319.40000000000003</ele><time>2026-04-04T09:29:42.999Z</time></trkpt><trkpt lat="43.41800561108836" lon="10.848314305479303"><ele>321.0</ele><time>2026-04-04T09:29:43.999Z</time></trkpt><trkpt lat="43.41801562891102" lon="10.848443926892498"><ele>325.0</ele><time>2026-04-04T09:29:44.999Z</time></trkpt><trkpt lat="43.4180386129885" lon="10.84858755736659"><ele>329.0</ele><time>2026-04-04T09:29:45.999Z</time></trkpt><trkpt lat="43.41809533847903" lon="10.848737249861236"><ele>333.0</ele><time>2026-04-04T09:29:46.999Z</time></trkpt><trkpt lat="43.418179013686256" lon="10.84886933192364"><ele>337.0</ele><time>2026-04-04T09:29:47.999Z</time></trkpt><trkpt lat="43.41825434533787" lon="10.848975413862481"><ele>337.0</ele><time>2026-04-04T09:29:48.999Z</time></trkpt><trkpt lat="43.418314545169245" lon="10.849072751267585"><ele>337.0</ele><time>2026-04-04T09:29:49.999Z</time></trkpt><trkpt lat="43.418366271593996" lon="10.849190580849411"><ele>337.0</ele><time>2026-04-04T09:29:50.999Z</time></trkpt><trkpt lat="43.4183935850985" lon="10.849344628554379"><ele>337.0</ele><time>2026-04-04T09:29:51.999Z</time></trkpt><trkpt lat="43.418388375909636" lon="10.849531465156215"><ele>337.0</ele><time>2026-04-04T09:29:52.999Z</time></trkpt><trkpt lat="43.41837297357875" lon="10.849722789485133"><ele>339.25</ele><time>2026-04-04T09:29:53.999Z</time></trkpt><trkpt lat="43.41836274853448" lon="10.84990531871014"><ele>341.5</ele><time>2026-04-04T09:29:54.999Z</time></trkpt><trkpt lat="43.41837882625316" lon="10.850092050080345"><ele>343.75</ele><time>2026-04-04T09:29:55.999Z</time></trkpt><trkpt lat="43.41842777658489" lon="10.850299612660313"><ele>346.0</ele><time>2026-04-04T09:29:56.999Z</time></trkpt><trkpt lat="43.41846724387625" lon="10.850489736915748"><ele>348.25</ele><time>2026-04-04T09:29:57.999Z</time></trkpt><trkpt lat="43.41848222088273" lon="10.850669947562158"><ele>350.5</ele><time>2026-04-04T09:29:58.999Z</time></trkpt><trkpt lat="43.41848374698771" lon="10.850845133923052"><ele>352.75</ele><time>2026-04-04T09:29:59.999Z</time></trkpt><trkpt lat="43.4184787555516" lon="10.851026421578478"><ele>355.0</ele><time>2026-04-04T09:30:00.999Z</time></trkpt><trkpt lat="43.41845160098462" lon="10.851209602930503"><ele>356.25</ele><time>2026-04-04T09:30:01.999Z</time></trkpt><trkpt lat="43.41842686996216" lon="10.8513929839994"><ele>357.5</ele><time>2026-04-04T09:30:02.999Z</time></trkpt><trkpt lat="43.418409909496994" lon="10.851572152872283"><ele>358.75</ele><time>2026-04-04T09:30:03.999Z</time></trkpt><trkpt lat="43.41841579225121" lon="10.85175079917704"><ele>360.0</ele><time>2026-04-04T09:30:04.999Z</time></trkpt><trkpt lat="43.41846271496504" lon="10.85193267549756"><ele>361.25</ele><time>2026-04-04T09:30:05.999Z</time></trkpt><trkpt lat="43.41852920135336" lon="10.852104376628612"><ele>362.5</ele><time>2026-04-04T09:30:06.999Z</time></trkpt><trkpt lat="43.41859151242198" lon="10.852248139858398"><ele>363.75</ele><time>2026-04-04T09:30:07.999Z</time></trkpt><trkpt lat="43.41863922237789" lon="10.852373437803548"><ele>365.0</ele><time>2026-04-04T09:30:08.999Z</time></trkpt><trkpt lat="43.4186813173412" lon="10.852513285278537"><ele>368.0</ele><time>2026-04-04T09:30:09.999Z</time></trkpt><trkpt lat="43.418722300981166" lon="10.85266099806083"><ele>371.0</ele><time>2026-04-04T09:30:10.999Z</time></trkpt><trkpt lat="43.418758021455474" lon="10.85281550682847"><ele>374.0</ele><time>2026-04-04T09:30:11.999Z</time></trkpt><trkpt lat="43.418777036802005" lon="10.852972886187326"><ele>377.0</ele><time>2026-04-04T09:30:12.999Z</time></trkpt><trkpt lat="43.41878813536627" lon="10.853130163064444"><ele>377.0</ele><time>2026-04-04T09:30:13.999Z</time></trkpt><trkpt lat="43.41880251420602" lon="10.853282411530357"><ele>377.0</ele><time>2026-04-04T09:30:14.999Z</time></trkpt><trkpt lat="43.418814300736884" lon="10.853416913929468"><ele>377.0</ele><time>2026-04-04T09:30:15.999Z</time></trkpt><trkpt lat="43.41879739866346" lon="10.85354062865783"><ele>377.0</ele><time>2026-04-04T09:30:16.999Z</time></trkpt><trkpt lat="43.41874506652928" lon="10.853674116501857"><ele>377.0</ele><time>2026-04-04T09:30:17.999Z</time></trkpt><trkpt lat="43.41867870345671" lon="10.853814510171263"><ele>377.0</ele><time>2026-04-04T09:30:18.999Z</time></trkpt><trkpt lat="43.41863048209128" lon="10.853976089983934"><ele>377.0</ele><time>2026-04-04T09:30:19.999Z</time></trkpt><trkpt lat="43.41861044292421" lon="10.85415170952102"><ele>377.0</ele><time>2026-04-04T09:30:20.999Z</time></trkpt><trkpt lat="43.418594215652675" lon="10.854328700075357"><ele>377.0</ele><time>2026-04-04T09:30:21.999Z</time></trkpt><trkpt lat="43.41857346325682" lon="10.8545001644687"><ele>377.0</ele><time>2026-04-04T09:30:22.999Z</time></trkpt><trkpt lat="43.41855674155887" lon="10.854664392818814"><ele>377.0</ele><time>2026-04-04T09:30:23.999Z</time></trkpt><trkpt lat="43.41854716032488" lon="10.854821820123787"><ele>377.0</ele><time>2026-04-04T09:30:24.999Z</time></trkpt><trkpt lat="43.4185511055416" lon="10.854971488464"><ele>377.0</ele><time>2026-04-04T09:30:25.999Z</time></trkpt><trkpt lat="43.41856341826412" lon="10.855115647314229"><ele>377.0</ele><time>2026-04-04T09:30:26.999Z</time></trkpt><trkpt lat="43.41857119889663" lon="10.855248472814434"><ele>375.40000000000003</ele><time>2026-04-04T09:30:27.999Z</time></trkpt><trkpt lat="43.41856882470002" lon="10.855382580406008"><ele>373.8</ele><time>2026-04-04T09:30:28.999Z</time></trkpt><trkpt lat="43.4185733833523" lon="10.855503562479146"><ele>372.2</ele><time>2026-04-04T09:30:29.999Z</time></trkpt><trkpt lat="43.41856820508248" lon="10.855618455655861"><ele>370.6</ele><time>2026-04-04T09:30:30.999Z</time></trkpt><trkpt lat="43.418521902283715" lon="10.8557430292608"><ele>369.0</ele><time>2026-04-04T09:30:31.999Z</time></trkpt><trkpt lat="43.418432819812" lon="10.855854567355511"><ele>369.0</ele><time>2026-04-04T09:30:32.999Z</time></trkpt><trkpt lat="43.41832983443832" lon="10.855918652709944"><ele>369.0</ele><time>2026-04-04T09:30:33.999Z</time></trkpt><trkpt lat="43.4182104938624" lon="10.855943598494191"><ele>369.0</ele><time>2026-04-04T09:30:34.999Z</time></trkpt><trkpt lat="43.41812045405878" lon="10.855982318782871"><ele>369.0</ele><time>2026-04-04T09:30:35.999Z</time></trkpt><trkpt lat="43.4180467180389" lon="10.856062682961277"><ele>369.0</ele><time>2026-04-04T09:30:36.999Z</time></trkpt><trkpt lat="43.417988074120586" lon="10.856176458291062"><ele>369.0</ele><time>2026-04-04T09:30:37.999Z</time></trkpt><trkpt lat="43.41794936878392" lon="10.856312993546485"><ele>369.0</ele><time>2026-04-04T09:30:38.999Z</time></trkpt><trkpt lat="43.417932487473884" lon="10.856466173223728"><ele>369.0</ele><time>2026-04-04T09:30:39.999Z</time></trkpt><trkpt lat="43.417925614875244" lon="10.85658969853983"><ele>369.0</ele><time>2026-04-04T09:30:40.999Z</time></trkpt><trkpt lat="43.417921651282036" lon="10.856689684543241"><ele>369.0</ele><time>2026-04-04T09:30:41.999Z</time></trkpt><trkpt lat="43.41790723741773" lon="10.856788865807387"><ele>362.79999999999995</ele><time>2026-04-04T09:30:42.999Z</time></trkpt><trkpt lat="43.41787321926629" lon="10.85688298207692"><ele>356.59999999999997</ele><time>2026-04-04T09:30:43.999Z</time></trkpt><trkpt lat="43.417801387043255" lon="10.856946863963415"><ele>350.4</ele><time>2026-04-04T09:30:44.999Z</time></trkpt><trkpt lat="43.41769857451687" lon="10.856962907140847"><ele>344.2</ele><time>2026-04-04T09:30:45.999Z</time></trkpt><trkpt lat="43.41758273605208" lon="10.856931817556287"><ele>338.0</ele><time>2026-04-04T09:30:46.999Z</time></trkpt><trkpt lat="43.417480243798856" lon="10.85684103288326"><ele>344.2</ele><time>2026-04-04T09:30:47.999Z</time></trkpt><trkpt lat="43.417398448228774" lon="10.85668651512783"><ele>350.4</ele><time>2026-04-04T09:30:48.999Z</time></trkpt><trkpt lat="43.41734208860451" lon="10.856526707462429"><ele>356.59999999999997</ele><time>2026-04-04T09:30:49.999Z</time></trkpt><trkpt lat="43.41732598272716" lon="10.85640359244287"><ele>362.79999999999995</ele><time>2026-04-04T09:30:50.999Z</time></trkpt><trkpt lat="43.41732954338836" lon="10.856279589713857"><ele>369.0</ele><time>2026-04-04T09:30:51.999Z</time></trkpt><trkpt lat="43.4173313031534" lon="10.856131510338926"><ele>369.0</ele><time>2026-04-04T09:30:52.999Z</time></trkpt><trkpt lat="43.41732788922672" lon="10.855974558889494"><ele>369.0</ele><time>2026-04-04T09:30:53.999Z</time></trkpt><trkpt lat="43.41731717282785" lon="10.855817076096448"><ele>369.0</ele><time>2026-04-04T09:30:54.999Z</time></trkpt><trkpt lat="43.41730235544785" lon="10.855660139443643"><ele>369.0</ele><time>2026-04-04T09:30:55.999Z</time></trkpt><trkpt lat="43.41728420845835" lon="10.855505242987237"><ele>372.25</ele><time>2026-04-04T09:30:56.999Z</time></trkpt><trkpt lat="43.4172658840991" lon="10.855349044002827"><ele>375.5</ele><time>2026-04-04T09:30:57.999Z</time></trkpt><trkpt lat="43.417241677633385" lon="10.855169862116387"><ele>378.75</ele><time>2026-04-04T09:30:58.999Z</time></trkpt><trkpt lat="43.41720539498796" lon="10.854981152505431"><ele>382.0</ele><time>2026-04-04T09:30:59.999Z</time></trkpt><trkpt lat="43.41716030762501" lon="10.854811323219543"><ele>381.75</ele><time>2026-04-04T09:31:00.999Z</time></trkpt><trkpt lat="43.41711589404163" lon="10.854656485449153"><ele>381.5</ele><time>2026-04-04T09:31:01.999Z</time></trkpt><trkpt lat="43.41707417181762" lon="10.854512082666506"><ele>381.25</ele><time>2026-04-04T09:31:02.999Z</time></trkpt><trkpt lat="43.41703713439042" lon="10.854373639415932"><ele>381.0</ele><time>2026-04-04T09:31:03.999Z</time></trkpt><trkpt lat="43.41699992728435" lon="10.854229272095369"><ele>381.0</ele><time>2026-04-04T09:31:04.999Z</time></trkpt><trkpt lat="43.41696161610182" lon="10.854075938064465"><ele>381.0</ele><time>2026-04-04T09:31:05.999Z</time></trkpt><trkpt lat="43.41694479811623" lon="10.853901573677648"><ele>381.0</ele><time>2026-04-04T09:31:06.999Z</time></trkpt><trkpt lat="43.41695291789135" lon="10.853703779559433"><ele>381.0</ele><time>2026-04-04T09:31:07.999Z</time></trkpt><trkpt lat="43.41696419859697" lon="10.853517155052607"><ele>386.5</ele><time>2026-04-04T09:31:08.999Z</time></trkpt><trkpt lat="43.416956698661934" lon="10.85336525809403"><ele>392.0</ele><time>2026-04-04T09:31:09.999Z</time></trkpt><trkpt lat="43.41690512879963" lon="10.853225523790364"><ele>397.5</ele><time>2026-04-04T09:31:10.999Z</time></trkpt><trkpt lat="43.41682037891283" lon="10.853103222838035"><ele>403.0</ele><time>2026-04-04T09:31:11.999Z</time></trkpt><trkpt lat="43.41670630615325" lon="10.853018756397875"><ele>403.0</ele><time>2026-04-04T09:31:12.999Z</time></trkpt><trkpt lat="43.416609394671234" lon="10.852954761416685"><ele>403.0</ele><time>2026-04-04T09:31:13.999Z</time></trkpt><trkpt lat="43.41652617627672" lon="10.85288651645475"><ele>403.0</ele><time>2026-04-04T09:31:14.999Z</time></trkpt><trkpt lat="43.416449091924584" lon="10.852805374031211"><ele>403.0</ele><time>2026-04-04T09:31:15.999Z</time></trkpt><trkpt lat="43.41638406575122" lon="10.852709024655482"><ele>403.0</ele><time>2026-04-04T09:31:16.999Z</time></trkpt><trkpt lat="43.41632779189669" lon="10.85259541121069"><ele>403.0</ele><time>2026-04-04T09:31:17.999Z</time></trkpt><trkpt lat="43.41626562540971" lon="10.852470292887963"><ele>403.0</ele><time>2026-04-04T09:31:18.999Z</time></trkpt><trkpt lat="43.41619933180565" lon="10.85233731752074"><ele>403.0</ele><time>2026-04-04T09:31:19.999Z</time></trkpt><trkpt lat="43.416129866950264" lon="10.852209656767137"><ele>403.0</ele><time>2026-04-04T09:31:20.999Z</time></trkpt><trkpt lat="43.41605250660228" lon="10.852088439943492"><ele>403.0</ele><time>2026-04-04T09:31:21.999Z</time></trkpt><trkpt lat="43.415975735929656" lon="10.851960781029756"><ele>403.0</ele><time>2026-04-04T09:31:22.999Z</time></trkpt><trkpt lat="43.41588386645454" lon="10.851844589325047"><ele>403.0</ele><time>2026-04-04T09:31:23.999Z</time></trkpt><trkpt lat="43.41576986070083" lon="10.851744255430072"><ele>403.0</ele><time>2026-04-04T09:31:24.999Z</time></trkpt><trkpt lat="43.41567722969022" lon="10.851663883639702"><ele>404.75</ele><time>2026-04-04T09:31:25.999Z</time></trkpt><trkpt lat="43.415583703330526" lon="10.851582790015076"><ele>406.5</ele><time>2026-04-04T09:31:26.999Z</time></trkpt><trkpt lat="43.41548799503484" lon="10.851494772784461"><ele>408.25</ele><time>2026-04-04T09:31:27.999Z</time></trkpt><trkpt lat="43.41539198098463" lon="10.851406998417277"><ele>410.0</ele><time>2026-04-04T09:31:28.999Z</time></trkpt><trkpt lat="43.41529939836022" lon="10.851312244447127"><ele>410.0</ele><time>2026-04-04T09:31:29.999Z</time></trkpt><trkpt lat="43.41520922104099" lon="10.851224580418362"><ele>410.0</ele><time>2026-04-04T09:31:30.999Z</time></trkpt><trkpt lat="43.415120771608095" lon="10.851146716202472"><ele>410.0</ele><time>2026-04-04T09:31:31.999Z</time></trkpt><trkpt lat="43.41503132113334" lon="10.851087270351021"><ele>410.0</ele><time>2026-04-04T09:31:32.999Z</time></trkpt><trkpt lat="43.41493425235841" lon="10.851051902751278"><ele>410.0</ele><time>2026-04-04T09:31:33.999Z</time></trkpt><trkpt lat="43.4148347975535" lon="10.851039296167995"><ele>410.0</ele><time>2026-04-04T09:31:34.999Z</time></trkpt><trkpt lat="43.41473406491486" lon="10.851050305388593"><ele>410.0</ele><time>2026-04-04T09:31:35.999Z</time></trkpt><trkpt lat="43.41463756406531" lon="10.851086970864221"><ele>410.0</ele><time>2026-04-04T09:31:36.999Z</time></trkpt><trkpt lat="43.41454660161543" lon="10.85113683119729"><ele>410.0</ele><time>2026-04-04T09:31:37.999Z</time></trkpt><trkpt lat="43.414458649011216" lon="10.851210638329107"><ele>410.0</ele><time>2026-04-04T09:31:38.999Z</time></trkpt><trkpt lat="43.414376151456175" lon="10.85129978560371"><ele>413.6</ele><time>2026-04-04T09:31:39.999Z</time></trkpt><trkpt lat="43.414302776139316" lon="10.851429332537615"><ele>417.2</ele><time>2026-04-04T09:31:40.999Z</time></trkpt><trkpt lat="43.41424802987746" lon="10.851592392416778"><ele>420.79999999999995</ele><time>2026-04-04T09:31:41.999Z</time></trkpt><trkpt lat="43.4142165227599" lon="10.851722163638318"><ele>424.4</ele><time>2026-04-04T09:31:42.999Z</time></trkpt><trkpt lat="43.41417692560051" lon="10.85183967222976"><ele>428.0</ele><time>2026-04-04T09:31:43.999Z</time></trkpt><trkpt lat="43.414137298410594" lon="10.85197103603014"><ele>428.0</ele><time>2026-04-04T09:31:44.999Z</time></trkpt><trkpt lat="43.41409792862292" lon="10.852110319654855"><ele>427.99999999999994</ele><time>2026-04-04T09:31:45.999Z</time></trkpt><trkpt lat="43.414055802287756" lon="10.85225546006277"><ele>427.99999999999994</ele><time>2026-04-04T09:31:46.999Z</time></trkpt><trkpt lat="43.41401371631904" lon="10.852403043301157"><ele>428.0</ele><time>2026-04-04T09:31:47.999Z</time></trkpt><trkpt lat="43.413971477559016" lon="10.85252273517217"><ele>428.0</ele><time>2026-04-04T09:31:48.999Z</time></trkpt><trkpt lat="43.413924281738794" lon="10.85263331226394"><ele>427.59999999999997</ele><time>2026-04-04T09:31:49.999Z</time></trkpt><trkpt lat="43.413878709381805" lon="10.852728181456856"><ele>427.19999999999993</ele><time>2026-04-04T09:31:50.999Z</time></trkpt><trkpt lat="43.413842801453264" lon="10.852809893705787"><ele>426.8</ele><time>2026-04-04T09:31:51.999Z</time></trkpt><trkpt lat="43.413764639450875" lon="10.852936204876732"><ele>426.4</ele><time>2026-04-04T09:31:53.999Z</time></trkpt><trkpt lat="43.413674495744964" lon="10.853036405249588"><ele>426.0</ele><time>2026-04-04T09:31:55.999Z</time></trkpt><trkpt lat="43.41356884990248" lon="10.853050003468738"><ele>426.0</ele><time>2026-04-04T09:31:56.999Z</time></trkpt><trkpt lat="43.41349503003312" lon="10.853061975107362"><ele>426.0</ele><time>2026-04-04T09:31:57.999Z</time></trkpt><trkpt lat="43.413419876441274" lon="10.853031403398415"><ele>426.0</ele><time>2026-04-04T09:31:58.999Z</time></trkpt><trkpt lat="43.41334794178304" lon="10.852971805096125"><ele>426.0</ele><time>2026-04-04T09:31:59.999Z</time></trkpt><trkpt lat="43.413285878835865" lon="10.85286893812609"><ele>426.0</ele><time>2026-04-04T09:32:00.999Z</time></trkpt><trkpt lat="43.41321144305786" lon="10.852727895686357"><ele>426.0</ele><time>2026-04-04T09:32:01.999Z</time></trkpt><trkpt lat="43.4131284525252" lon="10.852573491376454"><ele>426.0</ele><time>2026-04-04T09:32:02.999Z</time></trkpt><trkpt lat="43.41304531424712" lon="10.852436086426957"><ele>426.0</ele><time>2026-04-04T09:32:03.999Z</time></trkpt><trkpt lat="43.41296827763063" lon="10.852313558992183"><ele>426.0</ele><time>2026-04-04T09:32:04.999Z</time></trkpt><trkpt lat="43.41289419661189" lon="10.852196479609665"><ele>426.0</ele><time>2026-04-04T09:32:05.999Z</time></trkpt><trkpt lat="43.412823133334335" lon="10.852077605263679"><ele>426.0</ele><time>2026-04-04T09:32:06.999Z</time></trkpt><trkpt lat="43.41274826790809" lon="10.851972231424034"><ele>426.0</ele><time>2026-04-04T09:32:07.999Z</time></trkpt><trkpt lat="43.41266232106926" lon="10.85188287345676"><ele>426.0</ele><time>2026-04-04T09:32:08.999Z</time></trkpt><trkpt lat="43.41257239690026" lon="10.851814444393229"><ele>426.0</ele><time>2026-04-04T09:32:09.999Z</time></trkpt><trkpt lat="43.412476329455835" lon="10.851751628088325"><ele>430.0</ele><time>2026-04-04T09:32:10.999Z</time></trkpt><trkpt lat="43.41238010560014" lon="10.851687745781302"><ele>434.0</ele><time>2026-04-04T09:32:11.999Z</time></trkpt><trkpt lat="43.41228639696093" lon="10.851634214826127"><ele>438.0</ele><time>2026-04-04T09:32:12.999Z</time></trkpt><trkpt lat="43.41218687510745" lon="10.851619952444581"><ele>442.0</ele><time>2026-04-04T09:32:13.999Z</time></trkpt><trkpt lat="43.41209987878947" lon="10.85164592316476"><ele>446.0</ele><time>2026-04-04T09:32:14.999Z</time></trkpt><trkpt lat="43.41204548258197" lon="10.85169093127286"><ele>447.8333333333333</ele><time>2026-04-04T09:32:15.999Z</time></trkpt><trkpt lat="43.41196413443756" lon="10.851757304474729"><ele>449.66666666666663</ele><time>2026-04-04T09:32:17.999Z</time></trkpt><trkpt lat="43.41189239072149" lon="10.851804325116094"><ele>451.5</ele><time>2026-04-04T09:32:19.999Z</time></trkpt><trkpt lat="43.411794767522444" lon="10.851858234679796"><ele>453.33333333333337</ele><time>2026-04-04T09:32:21.999Z</time></trkpt><trkpt lat="43.41173238490987" lon="10.851894961915065"><ele>455.1666666666667</ele><time>2026-04-04T09:32:22.999Z</time></trkpt><trkpt lat="43.41166339137202" lon="10.851932076505822"><ele>457.0</ele><time>2026-04-04T09:32:23.999Z</time></trkpt><trkpt lat="43.41159312800048" lon="10.851972711279311"><ele>453.40000000000003</ele><time>2026-04-04T09:32:24.999Z</time></trkpt><trkpt lat="43.41151195022666" lon="10.85201820099748"><ele>449.80000000000007</ele><time>2026-04-04T09:32:25.999Z</time></trkpt><trkpt lat="43.41143178548912" lon="10.852051432698278"><ele>446.2</ele><time>2026-04-04T09:32:26.999Z</time></trkpt><trkpt lat="43.41134689315866" lon="10.85207037919509"><ele>442.6</ele><time>2026-04-04T09:32:27.999Z</time></trkpt><trkpt lat="43.41124996408915" lon="10.852082617968716"><ele>439.0</ele><time>2026-04-04T09:32:28.999Z</time></trkpt><trkpt lat="43.41114247454639" lon="10.852080872221082"><ele>439.0</ele><time>2026-04-04T09:32:29.999Z</time></trkpt><trkpt lat="43.41102915326446" lon="10.852071804844366"><ele>439.0</ele><time>2026-04-04T09:32:30.999Z</time></trkpt><trkpt lat="43.41091423856308" lon="10.852064643398457"><ele>439.0</ele><time>2026-04-04T09:32:31.999Z</time></trkpt><trkpt lat="43.41080001039321" lon="10.852060228268323"><ele>439.0</ele><time>2026-04-04T09:32:32.999Z</time></trkpt><trkpt lat="43.4106825304393" lon="10.852058198281371"><ele>439.0</ele><time>2026-04-04T09:32:33.999Z</time></trkpt><trkpt lat="43.41056155993622" lon="10.85205632442231"><ele>439.0</ele><time>2026-04-04T09:32:34.999Z</time></trkpt><trkpt lat="43.410431851055726" lon="10.852059310438259"><ele>439.0</ele><time>2026-04-04T09:32:35.999Z</time></trkpt><trkpt lat="43.41028539367391" lon="10.85205814111494"><ele>439.0</ele><time>2026-04-04T09:32:36.999Z</time></trkpt><trkpt lat="43.410145456638205" lon="10.852068558008492"><ele>440.25</ele><time>2026-04-04T09:32:37.999Z</time></trkpt><trkpt lat="43.41001328893765" lon="10.85208337476667"><ele>441.5</ele><time>2026-04-04T09:32:38.999Z</time></trkpt><trkpt lat="43.40988308610716" lon="10.852109155403982"><ele>442.75</ele><time>2026-04-04T09:32:39.999Z</time></trkpt><trkpt lat="43.40976477763099" lon="10.852136271995205"><ele>444.0</ele><time>2026-04-04T09:32:40.999Z</time></trkpt><trkpt lat="43.40966484774399" lon="10.852160517493274"><ele>446.1666666666667</ele><time>2026-04-04T09:32:41.999Z</time></trkpt><trkpt lat="43.409577765036296" lon="10.852179906687333"><ele>448.33333333333337</ele><time>2026-04-04T09:32:42.999Z</time></trkpt><trkpt lat="43.40949626235139" lon="10.852197738640818"><ele>450.5</ele><time>2026-04-04T09:32:43.999Z</time></trkpt><trkpt lat="43.40942149962447" lon="10.852213000623877"><ele>452.6666666666667</ele><time>2026-04-04T09:32:44.999Z</time></trkpt><trkpt lat="43.40935295559844" lon="10.852224486497326"><ele>454.83333333333337</ele><time>2026-04-04T09:32:45.999Z</time></trkpt><trkpt lat="43.40928371091111" lon="10.85223865335891"><ele>457.0</ele><time>2026-04-04T09:32:46.999Z</time></trkpt><trkpt lat="43.40921804451137" lon="10.852253858598031"><ele>457.0</ele><time>2026-04-04T09:32:47.999Z</time></trkpt><trkpt lat="43.409152669723426" lon="10.852272445750996"><ele>457.00000000000006</ele><time>2026-04-04T09:32:48.999Z</time></trkpt><trkpt lat="43.40902927412318" lon="10.852312247709797"><ele>457.00000000000006</ele><time>2026-04-04T09:32:50.999Z</time></trkpt><trkpt lat="43.40890828717885" lon="10.852358921686747"><ele>457.0</ele><time>2026-04-04T09:32:52.999Z</time></trkpt><trkpt lat="43.408801386039244" lon="10.85242328226717"><ele>457.0</ele><time>2026-04-04T09:32:54.999Z</time></trkpt><trkpt lat="43.40871930771748" lon="10.852493856746278"><ele>459.00000000000006</ele><time>2026-04-04T09:32:56.999Z</time></trkpt><trkpt lat="43.408655193078935" lon="10.852557464264216"><ele>461.0</ele><time>2026-04-04T09:32:58.999Z</time></trkpt><trkpt lat="43.408575083680816" lon="10.852630146969013"><ele>463.0</ele><time>2026-04-04T09:33:00.999Z</time></trkpt><trkpt lat="43.40848164127539" lon="10.852724748546137"><ele>465.0</ele><time>2026-04-04T09:33:02.999Z</time></trkpt><trkpt lat="43.40845120271677" lon="10.852813438814016"><ele>467.00000000000006</ele><time>2026-04-04T09:33:03.999Z</time></trkpt><trkpt lat="43.408434719098025" lon="10.852913288795802"><ele>469.0</ele><time>2026-04-04T09:33:04.999Z</time></trkpt><trkpt lat="43.40841733590441" lon="10.85299870645462"><ele>470.0</ele><time>2026-04-04T09:33:05.999Z</time></trkpt><trkpt lat="43.408362494266704" lon="10.853132383796208"><ele>471.0</ele><time>2026-04-04T09:33:07.999Z</time></trkpt><trkpt lat="43.40828863639231" lon="10.853262267676289"><ele>472.0</ele><time>2026-04-04T09:33:09.999Z</time></trkpt><trkpt lat="43.40820616234948" lon="10.853385861317543"><ele>473.0</ele><time>2026-04-04T09:33:11.999Z</time></trkpt><trkpt lat="43.408117804045254" lon="10.853476298301324"><ele>473.3333333333333</ele><time>2026-04-04T09:33:13.999Z</time></trkpt><trkpt lat="43.408044768104986" lon="10.853524270927279"><ele>473.66666666666663</ele><time>2026-04-04T09:33:15.999Z</time></trkpt><trkpt lat="43.40797543959658" lon="10.853562230402817"><ele>474.0</ele><time>2026-04-04T09:33:17.999Z</time></trkpt><trkpt lat="43.40788398726649" lon="10.853599112227778"><ele>474.33333333333337</ele><time>2026-04-04T09:33:19.999Z</time></trkpt><trkpt lat="43.407771556308944" lon="10.853640460210972"><ele>474.6666666666667</ele><time>2026-04-04T09:33:21.999Z</time></trkpt><trkpt lat="43.40770157131728" lon="10.853660741740251"><ele>475.0</ele><time>2026-04-04T09:33:22.999Z</time></trkpt><trkpt lat="43.407629720248416" lon="10.853684313735782"><ele>475.6666666666667</ele><time>2026-04-04T09:33:23.999Z</time></trkpt><trkpt lat="43.4075631585996" lon="10.853706083944044"><ele>476.33333333333337</ele><time>2026-04-04T09:33:24.999Z</time></trkpt><trkpt lat="43.40749494402477" lon="10.853730959278915"><ele>477.0</ele><time>2026-04-04T09:33:25.999Z</time></trkpt><trkpt lat="43.40742704584829" lon="10.853753012265926"><ele>477.66666666666663</ele><time>2026-04-04T09:33:26.999Z</time></trkpt><trkpt lat="43.40735992127655" lon="10.85377330800674"><ele>478.3333333333333</ele><time>2026-04-04T09:33:27.999Z</time></trkpt><trkpt lat="43.40724815980878" lon="10.853802240641555"><ele>479.0</ele><time>2026-04-04T09:33:29.999Z</time></trkpt><trkpt lat="43.40714892678293" lon="10.853832515025166"><ele>480.0</ele><time>2026-04-04T09:33:31.999Z</time></trkpt><trkpt lat="43.40702892545466" lon="10.853876692186518"><ele>481.0</ele><time>2026-04-04T09:33:33.999Z</time></trkpt><trkpt lat="43.40692717309501" lon="10.853903504117763"><ele>482.0</ele><time>2026-04-04T09:33:35.999Z</time></trkpt><trkpt lat="43.406820355237336" lon="10.853934170544422"><ele>483.0</ele><time>2026-04-04T09:33:37.999Z</time></trkpt><trkpt lat="43.40671416051009" lon="10.853965580732496"><ele>484.0</ele><time>2026-04-04T09:33:39.999Z</time></trkpt><trkpt lat="43.40659122776648" lon="10.854021894247362"><ele>484.0</ele><time>2026-04-04T09:33:41.999Z</time></trkpt><trkpt lat="43.40650655844385" lon="10.854066977748873"><ele>484.0</ele><time>2026-04-04T09:33:42.999Z</time></trkpt><trkpt lat="43.40642135687213" lon="10.854127538434492"><ele>484.0</ele><time>2026-04-04T09:33:43.999Z</time></trkpt><trkpt lat="43.40633139249458" lon="10.854203508974857"><ele>484.0</ele><time>2026-04-04T09:33:44.999Z</time></trkpt><trkpt lat="43.40624221699119" lon="10.854292697462784"><ele>484.0</ele><time>2026-04-04T09:33:45.999Z</time></trkpt><trkpt lat="43.40614054869432" lon="10.854396170312121"><ele>486.0</ele><time>2026-04-04T09:33:46.999Z</time></trkpt><trkpt lat="43.40604784683808" lon="10.854485790846654"><ele>488.0</ele><time>2026-04-04T09:33:47.999Z</time></trkpt><trkpt lat="43.40595207768618" lon="10.854563300028628"><ele>490.0</ele><time>2026-04-04T09:33:48.999Z</time></trkpt><trkpt lat="43.40586486003954" lon="10.854638043207258"><ele>492.0</ele><time>2026-04-04T09:33:49.999Z</time></trkpt><trkpt lat="43.40578753354806" lon="10.854706784216036"><ele>494.0</ele><time>2026-04-04T09:33:50.999Z</time></trkpt><trkpt lat="43.405724316946326" lon="10.854765233349516"><ele>494.0</ele><time>2026-04-04T09:33:51.999Z</time></trkpt><trkpt lat="43.405667759257405" lon="10.854818647029186"><ele>494.0</ele><time>2026-04-04T09:33:52.999Z</time></trkpt><trkpt lat="43.40560381280557" lon="10.854881598901608"><ele>494.0</ele><time>2026-04-04T09:33:54.999Z</time></trkpt><trkpt lat="43.40555010059381" lon="10.854937128513756"><ele>494.0</ele><time>2026-04-04T09:33:58.999Z</time></trkpt><trkpt lat="43.405487841929144" lon="10.854993522613517"><ele>494.0</ele><time>2026-04-04T09:34:02.999Z</time></trkpt><trkpt lat="43.40541276026432" lon="10.855056719319071"><ele>494.0</ele><time>2026-04-04T09:34:05.999Z</time></trkpt><trkpt lat="43.40534513826738" lon="10.855089907579298"><ele>494.0</ele><time>2026-04-04T09:34:07.999Z</time></trkpt><trkpt lat="43.40527845405892" lon="10.855091462998237"><ele>496.16666666666663</ele><time>2026-04-04T09:34:09.999Z</time></trkpt><trkpt lat="43.405194996270225" lon="10.855091801764432"><ele>498.3333333333333</ele><time>2026-04-04T09:34:12.999Z</time></trkpt><trkpt lat="43.40511437063142" lon="10.855088678174758"><ele>500.5</ele><time>2026-04-04T09:34:14.999Z</time></trkpt><trkpt lat="43.405036296015815" lon="10.855093320892642"><ele>502.66666666666663</ele><time>2026-04-04T09:34:16.999Z</time></trkpt><trkpt lat="43.40500630540061" lon="10.855191385673034"><ele>504.8333333333333</ele><time>2026-04-04T09:34:19.999Z</time></trkpt><trkpt lat="43.40505044285637" lon="10.85534348347252"><ele>507.0</ele><time>2026-04-04T09:34:21.999Z</time></trkpt><trkpt lat="43.4050646234468" lon="10.85543765500376"><ele>507.1666666666667</ele><time>2026-04-04T09:34:22.999Z</time></trkpt><trkpt lat="43.40508873168621" lon="10.85560384051273"><ele>507.33333333333337</ele><time>2026-04-04T09:34:24.999Z</time></trkpt><trkpt lat="43.405098421801604" lon="10.85569032633861"><ele>507.5</ele><time>2026-04-04T09:34:25.999Z</time></trkpt><trkpt lat="43.40510884500249" lon="10.855783658134266"><ele>507.6666666666667</ele><time>2026-04-04T09:34:26.999Z</time></trkpt><trkpt lat="43.405109525485976" lon="10.855879706289327"><ele>507.83333333333337</ele><time>2026-04-04T09:34:27.999Z</time></trkpt><trkpt lat="43.40509610402338" lon="10.855984334794128"><ele>508.0</ele><time>2026-04-04T09:34:28.999Z</time></trkpt><trkpt lat="43.40506328515199" lon="10.856084167834105"><ele>507.0</ele><time>2026-04-04T09:34:29.999Z</time></trkpt><trkpt lat="43.40500992328877" lon="10.856182446020727"><ele>505.99999999999994</ele><time>2026-04-04T09:34:30.999Z</time></trkpt><trkpt lat="43.40493676524534" lon="10.856280926210422"><ele>504.99999999999994</ele><time>2026-04-04T09:34:31.999Z</time></trkpt><trkpt lat="43.40486820942381" lon="10.856384024527369"><ele>504.0</ele><time>2026-04-04T09:34:32.999Z</time></trkpt><trkpt lat="43.4048093642878" lon="10.85648037223478"><ele>503.0</ele><time>2026-04-04T09:34:33.999Z</time></trkpt><trkpt lat="43.40475348755268" lon="10.856572132154058"><ele>503.0</ele><time>2026-04-04T09:34:34.999Z</time></trkpt><trkpt lat="43.404694236745314" lon="10.856667157714119"><ele>502.99999999999994</ele><time>2026-04-04T09:34:35.999Z</time></trkpt><trkpt lat="43.404635911165116" lon="10.856759360690473"><ele>502.99999999999994</ele><time>2026-04-04T09:34:36.999Z</time></trkpt><trkpt lat="43.40457399630234" lon="10.856855799010713"><ele>503.0</ele><time>2026-04-04T09:34:37.999Z</time></trkpt><trkpt lat="43.404509682046374" lon="10.856955808336933"><ele>503.0</ele><time>2026-04-04T09:34:38.999Z</time></trkpt><trkpt lat="43.40444790885118" lon="10.85705674148962"><ele>502.99999999999994</ele><time>2026-04-04T09:34:39.999Z</time></trkpt><trkpt lat="43.40440501985603" lon="10.857159978176051"><ele>503.0</ele><time>2026-04-04T09:34:40.999Z</time></trkpt><trkpt lat="43.404371904191464" lon="10.857254229768476"><ele>503.0</ele><time>2026-04-04T09:34:41.999Z</time></trkpt><trkpt lat="43.40434322924151" lon="10.857349388754624"><ele>503.0</ele><time>2026-04-04T09:34:42.999Z</time></trkpt><trkpt lat="43.40431620725804" lon="10.857450956993349"><ele>502.99999999999994</ele><time>2026-04-04T09:34:43.999Z</time></trkpt><trkpt lat="43.404288736380686" lon="10.857555870844367"><ele>503.0</ele><time>2026-04-04T09:34:44.999Z</time></trkpt><trkpt lat="43.404260645388625" lon="10.85765961162673"><ele>503.0</ele><time>2026-04-04T09:34:45.999Z</time></trkpt><trkpt lat="43.40423313921896" lon="10.857769693273308"><ele>502.99999999999994</ele><time>2026-04-04T09:34:46.999Z</time></trkpt><trkpt lat="43.40420872047073" lon="10.857890181670498"><ele>502.99999999999994</ele><time>2026-04-04T09:34:47.999Z</time></trkpt><trkpt lat="43.4041919656047" lon="10.858022682972448"><ele>503.0</ele><time>2026-04-04T09:34:48.999Z</time></trkpt><trkpt lat="43.40418102342571" lon="10.858161023860546"><ele>503.0</ele><time>2026-04-04T09:34:49.999Z</time></trkpt><trkpt lat="43.4041813785413" lon="10.858309628267595"><ele>502.99999999999994</ele><time>2026-04-04T09:34:50.999Z</time></trkpt><trkpt lat="43.40418445265682" lon="10.858428420791164"><ele>503.0</ele><time>2026-04-04T09:34:51.999Z</time></trkpt><trkpt lat="43.40418070833709" lon="10.858518656346844"><ele>503.0</ele><time>2026-04-04T09:34:52.999Z</time></trkpt><trkpt lat="43.40418367778569" lon="10.85860879285035"><ele>503.0</ele><time>2026-04-04T09:34:53.999Z</time></trkpt><trkpt lat="43.40417518422843" lon="10.858789687959401"><ele>502.99999999999994</ele><time>2026-04-04T09:34:55.999Z</time></trkpt><trkpt lat="43.404176188175875" lon="10.858881372815187"><ele>503.0</ele><time>2026-04-04T09:34:56.999Z</time></trkpt><trkpt lat="43.40417933143107" lon="10.85898170726092"><ele>502.66666666666663</ele><time>2026-04-04T09:34:57.999Z</time></trkpt><trkpt lat="43.40417612280644" lon="10.859093226724102"><ele>502.3333333333333</ele><time>2026-04-04T09:34:58.999Z</time></trkpt><trkpt lat="43.4041714528949" lon="10.859208981324308"><ele>502.0</ele><time>2026-04-04T09:34:59.999Z</time></trkpt><trkpt lat="43.404166521946706" lon="10.859326261486027"><ele>501.66666666666663</ele><time>2026-04-04T09:35:00.999Z</time></trkpt><trkpt lat="43.40417660404807" lon="10.859444544102615"><ele>501.3333333333333</ele><time>2026-04-04T09:35:01.999Z</time></trkpt><trkpt lat="43.40417029749818" lon="10.859568826085173"><ele>501.0</ele><time>2026-04-04T09:35:02.999Z</time></trkpt><trkpt lat="43.40415511371756" lon="10.859679473687581"><ele>501.0</ele><time>2026-04-04T09:35:03.999Z</time></trkpt><trkpt lat="43.40413918155552" lon="10.859787225596566"><ele>501.0</ele><time>2026-04-04T09:35:04.999Z</time></trkpt><trkpt lat="43.404121751121345" lon="10.859897860577094"><ele>501.0</ele><time>2026-04-04T09:35:05.999Z</time></trkpt><trkpt lat="43.40411232574328" lon="10.859998574426058"><ele>501.0</ele><time>2026-04-04T09:35:06.999Z</time></trkpt><trkpt lat="43.40411529345304" lon="10.860109819156273"><ele>501.0</ele><time>2026-04-04T09:35:07.999Z</time></trkpt><trkpt lat="43.404116368184475" lon="10.8602144373313"><ele>501.0</ele><time>2026-04-04T09:35:08.999Z</time></trkpt><trkpt lat="43.404117996399975" lon="10.860316999344077"><ele>502.5</ele><time>2026-04-04T09:35:09.999Z</time></trkpt><trkpt lat="43.404116781404525" lon="10.860431205437374"><ele>504.0</ele><time>2026-04-04T09:35:10.999Z</time></trkpt><trkpt lat="43.404110994817835" lon="10.860535897071493"><ele>505.5</ele><time>2026-04-04T09:35:11.999Z</time></trkpt><trkpt lat="43.40410592243525" lon="10.860631960164246"><ele>507.0</ele><time>2026-04-04T09:35:12.999Z</time></trkpt><trkpt lat="43.40410059764781" lon="10.860741318874382"><ele>508.5</ele><time>2026-04-04T09:35:13.999Z</time></trkpt><trkpt lat="43.40410129386896" lon="10.860852160754277"><ele>510.0</ele><time>2026-04-04T09:35:14.999Z</time></trkpt><trkpt lat="43.40410256976888" lon="10.860963289987321"><ele>510.7142857142857</ele><time>2026-04-04T09:35:15.999Z</time></trkpt><trkpt lat="43.40410230086973" lon="10.86105737947285"><ele>511.42857142857144</ele><time>2026-04-04T09:35:16.999Z</time></trkpt><trkpt lat="43.40410202435524" lon="10.861161430847226"><ele>512.1428571428571</ele><time>2026-04-04T09:35:18.999Z</time></trkpt><trkpt lat="43.40412622125396" lon="10.861270713599513"><ele>512.8571428571429</ele><time>2026-04-04T09:35:21.999Z</time></trkpt><trkpt lat="43.40418942737279" lon="10.861294855274023"><ele>513.5714285714286</ele><time>2026-04-04T09:35:23.999Z</time></trkpt><trkpt lat="43.404246253668525" lon="10.861255555201494"><ele>514.2857142857143</ele><time>2026-04-04T09:35:27.999Z</time></trkpt><trkpt lat="43.404325258917524" lon="10.86121391763007"><ele>515.0</ele><time>2026-04-04T09:35:37.999Z</time></trkpt><trkpt lat="43.40439449665135" lon="10.861162633845613"><ele>515.0</ele><time>2026-04-04T09:35:39.999Z</time></trkpt><trkpt lat="43.40447724461089" lon="10.861098093122914"><ele>515.0</ele><time>2026-04-04T09:35:41.999Z</time></trkpt><trkpt lat="43.404575858495015" lon="10.861028827367011"><ele>515.0</ele><time>2026-04-04T09:35:43.999Z</time></trkpt><trkpt lat="43.40467267286462" lon="10.860962511425782"><ele>515.0</ele><time>2026-04-04T09:35:45.999Z</time></trkpt><trkpt lat="43.404788809296285" lon="10.860885821222837"><ele>515.0</ele><time>2026-04-04T09:35:47.999Z</time></trkpt><trkpt lat="43.40488126892887" lon="10.860821457760126"><ele>511.75</ele><time>2026-04-04T09:35:49.999Z</time></trkpt><trkpt lat="43.40498872757951" lon="10.860776205701695"><ele>508.5</ele><time>2026-04-04T09:35:51.999Z</time></trkpt><trkpt lat="43.405095327596236" lon="10.860728542936911"><ele>505.25</ele><time>2026-04-04T09:35:53.999Z</time></trkpt><trkpt lat="43.405202333444485" lon="10.86068724569427"><ele>502.0</ele><time>2026-04-04T09:35:55.999Z</time></trkpt><trkpt lat="43.40531776199584" lon="10.860643725999614"><ele>502.0</ele><time>2026-04-04T09:35:57.999Z</time></trkpt><trkpt lat="43.40543017428886" lon="10.860591753468775"><ele>502.00000000000006</ele><time>2026-04-04T09:35:59.999Z</time></trkpt><trkpt lat="43.40553359275839" lon="10.86056486642537"><ele>502.00000000000006</ele><time>2026-04-04T09:36:01.999Z</time></trkpt><trkpt lat="43.4055948841791" lon="10.860624137330323"><ele>502.0</ele><time>2026-04-04T09:36:02.999Z</time></trkpt><trkpt lat="43.40564944034006" lon="10.860681818846114"><ele>502.0</ele><time>2026-04-04T09:36:03.999Z</time></trkpt><trkpt lat="43.40571230898454" lon="10.860760064427474"><ele>500.40000000000003</ele><time>2026-04-04T09:36:04.999Z</time></trkpt><trkpt lat="43.40580721817622" lon="10.860813972442237"><ele>498.80000000000007</ele><time>2026-04-04T09:36:07.999Z</time></trkpt><trkpt lat="43.405886496680615" lon="10.86090800234999"><ele>497.2</ele><time>2026-04-04T09:36:09.999Z</time></trkpt><trkpt lat="43.4059875749662" lon="10.860969433121047"><ele>495.6</ele><time>2026-04-04T09:36:11.999Z</time></trkpt><trkpt lat="43.406092443970735" lon="10.86098891444926"><ele>494.0</ele><time>2026-04-04T09:36:13.999Z</time></trkpt><trkpt lat="43.406207618141465" lon="10.860958732764002"><ele>493.99999999999994</ele><time>2026-04-04T09:36:15.999Z</time></trkpt><trkpt lat="43.406319169852644" lon="10.86090141581592"><ele>494.0</ele><time>2026-04-04T09:36:17.999Z</time></trkpt><trkpt lat="43.40637691523595" lon="10.860853429603717"><ele>494.0</ele><time>2026-04-04T09:36:18.999Z</time></trkpt><trkpt lat="43.406425427282755" lon="10.860795744572593"><ele>494.0</ele><time>2026-04-04T09:36:19.999Z</time></trkpt><trkpt lat="43.40647573093009" lon="10.86073198771618"><ele>493.99999999999994</ele><time>2026-04-04T09:36:20.999Z</time></trkpt><trkpt lat="43.40652365179003" lon="10.860656910768292"><ele>494.0</ele><time>2026-04-04T09:36:21.999Z</time></trkpt><trkpt lat="43.40654905298033" lon="10.860543407365576"><ele>492.66666666666663</ele><time>2026-04-04T09:36:22.999Z</time></trkpt><trkpt lat="43.406607565760964" lon="10.860474056719275"><ele>491.3333333333333</ele><time>2026-04-04T09:36:23.999Z</time></trkpt><trkpt lat="43.40665728629425" lon="10.860394434063792"><ele>490.0</ele><time>2026-04-04T09:36:24.999Z</time></trkpt><trkpt lat="43.406704710438106" lon="10.860319652748144"><ele>488.66666666666663</ele><time>2026-04-04T09:36:25.999Z</time></trkpt><trkpt lat="43.40675067858602" lon="10.860247174974049"><ele>487.3333333333333</ele><time>2026-04-04T09:36:26.999Z</time></trkpt><trkpt lat="43.406840214298036" lon="10.860104656164932"><ele>486.0</ele><time>2026-04-04T09:36:28.999Z</time></trkpt><trkpt lat="43.406897317395746" lon="10.860006239563319"><ele>486.0</ele><time>2026-04-04T09:36:29.999Z</time></trkpt><trkpt lat="43.40695266915264" lon="10.859906804046222"><ele>486.0</ele><time>2026-04-04T09:36:30.999Z</time></trkpt><trkpt lat="43.40701010975453" lon="10.859801991139507"><ele>486.0</ele><time>2026-04-04T09:36:31.999Z</time></trkpt><trkpt lat="43.407057031708035" lon="10.859711117855316"><ele>486.0</ele><time>2026-04-04T09:36:32.999Z</time></trkpt><trkpt lat="43.407120659975035" lon="10.859661887783702"><ele>486.0</ele><time>2026-04-04T09:36:33.999Z</time></trkpt><trkpt lat="43.40717410929471" lon="10.859598085807544"><ele>486.0</ele><time>2026-04-04T09:36:34.999Z</time></trkpt><trkpt lat="43.407298980844295" lon="10.859667614233555"><ele>484.3333333333333</ele><time>2026-04-04T09:36:35.999Z</time></trkpt><trkpt lat="43.407374810155595" lon="10.85970795866186"><ele>482.66666666666663</ele><time>2026-04-04T09:36:36.999Z</time></trkpt><trkpt lat="43.407435085646604" lon="10.859773248190521"><ele>481.0</ele><time>2026-04-04T09:36:37.999Z</time></trkpt><trkpt lat="43.40748025810238" lon="10.859859330509073"><ele>479.3333333333333</ele><time>2026-04-04T09:36:38.999Z</time></trkpt><trkpt lat="43.40751255996602" lon="10.859965423277421"><ele>477.66666666666663</ele><time>2026-04-04T09:36:39.999Z</time></trkpt><trkpt lat="43.4075307130969" lon="10.860078737847992"><ele>476.0</ele><time>2026-04-04T09:36:40.999Z</time></trkpt><trkpt lat="43.40752778544976" lon="10.860181827406008"><ele>475.8333333333333</ele><time>2026-04-04T09:36:41.999Z</time></trkpt><trkpt lat="43.40750463163744" lon="10.860278924703753"><ele>475.66666666666663</ele><time>2026-04-04T09:36:42.999Z</time></trkpt><trkpt lat="43.40747400592848" lon="10.860373696825889"><ele>475.5</ele><time>2026-04-04T09:36:43.999Z</time></trkpt><trkpt lat="43.40743543612374" lon="10.860453381385007"><ele>475.33333333333337</ele><time>2026-04-04T09:36:44.999Z</time></trkpt><trkpt lat="43.407374274517046" lon="10.86059034000308"><ele>475.1666666666667</ele><time>2026-04-04T09:36:46.999Z</time></trkpt><trkpt lat="43.407319762353275" lon="10.860715199396397"><ele>475.0</ele><time>2026-04-04T09:36:48.999Z</time></trkpt><trkpt lat="43.40726492080048" lon="10.860828454170722"><ele>472.6</ele><time>2026-04-04T09:36:50.999Z</time></trkpt><trkpt lat="43.407203706894286" lon="10.860964352735836"><ele>470.2</ele><time>2026-04-04T09:36:52.999Z</time></trkpt><trkpt lat="43.407169372415396" lon="10.861097451309853"><ele>467.79999999999995</ele><time>2026-04-04T09:36:54.999Z</time></trkpt><trkpt lat="43.407246961725406" lon="10.861204612449445"><ele>465.4</ele><time>2026-04-04T09:36:56.999Z</time></trkpt><trkpt lat="43.40735443079775" lon="10.86123747195724"><ele>463.0</ele><time>2026-04-04T09:36:57.999Z</time></trkpt><trkpt lat="43.407441933794054" lon="10.861293939341738"><ele>463.0</ele><time>2026-04-04T09:36:58.999Z</time></trkpt><trkpt lat="43.40753101639506" lon="10.861355997150927"><ele>462.99999999999994</ele><time>2026-04-04T09:36:59.999Z</time></trkpt><trkpt lat="43.4076193936826" lon="10.861414805469856"><ele>462.99999999999994</ele><time>2026-04-04T09:37:00.999Z</time></trkpt><trkpt lat="43.407698632470904" lon="10.861472988021559"><ele>463.0</ele><time>2026-04-04T09:37:01.999Z</time></trkpt><trkpt lat="43.40778260253929" lon="10.861545401135889"><ele>463.0</ele><time>2026-04-04T09:37:02.999Z</time></trkpt><trkpt lat="43.40786356930205" lon="10.861614231892089"><ele>463.00000000000006</ele><time>2026-04-04T09:37:03.999Z</time></trkpt><trkpt lat="43.407935555811946" lon="10.861682783161404"><ele>463.0</ele><time>2026-04-04T09:37:04.999Z</time></trkpt><trkpt lat="43.40801915497109" lon="10.86173714432431"><ele>463.0</ele><time>2026-04-04T09:37:05.999Z</time></trkpt><trkpt lat="43.40809392752497" lon="10.861790616924335"><ele>463.0</ele><time>2026-04-04T09:37:06.999Z</time></trkpt><trkpt lat="43.408163724207405" lon="10.861842956578778"><ele>463.00000000000006</ele><time>2026-04-04T09:37:07.999Z</time></trkpt><trkpt lat="43.40824053280617" lon="10.861909111877333"><ele>463.0</ele><time>2026-04-04T09:37:08.999Z</time></trkpt><trkpt lat="43.40831873426711" lon="10.861998850350458"><ele>462.00000000000006</ele><time>2026-04-04T09:37:09.999Z</time></trkpt><trkpt lat="43.408397551254986" lon="10.862078143036054"><ele>461.0</ele><time>2026-04-04T09:37:10.999Z</time></trkpt><trkpt lat="43.408463481558016" lon="10.862156272985967"><ele>460.0</ele><time>2026-04-04T09:37:11.999Z</time></trkpt><trkpt lat="43.40851717394566" lon="10.862245296722653"><ele>459.0</ele><time>2026-04-04T09:37:12.999Z</time></trkpt><trkpt lat="43.40856552421559" lon="10.862336422698037"><ele>458.00000000000006</ele><time>2026-04-04T09:37:13.999Z</time></trkpt><trkpt lat="43.408611543002046" lon="10.862439647163411"><ele>457.0</ele><time>2026-04-04T09:37:14.999Z</time></trkpt><trkpt lat="43.408648216700946" lon="10.862549540411718"><ele>453.6666666666667</ele><time>2026-04-04T09:37:15.999Z</time></trkpt><trkpt lat="43.40867077882192" lon="10.862655068720043"><ele>450.33333333333337</ele><time>2026-04-04T09:37:16.999Z</time></trkpt><trkpt lat="43.408691230454245" lon="10.862761921335512"><ele>447.0</ele><time>2026-04-04T09:37:17.999Z</time></trkpt><trkpt lat="43.4087164426878" lon="10.862871415807167"><ele>443.66666666666663</ele><time>2026-04-04T09:37:18.999Z</time></trkpt><trkpt lat="43.40874645562496" lon="10.8629857636568"><ele>440.3333333333333</ele><time>2026-04-04T09:37:19.999Z</time></trkpt><trkpt lat="43.408776403786135" lon="10.863096357887843"><ele>437.0</ele><time>2026-04-04T09:37:20.999Z</time></trkpt><trkpt lat="43.408808100289896" lon="10.863199445972013"><ele>435.8333333333333</ele><time>2026-04-04T09:37:21.999Z</time></trkpt><trkpt lat="43.40884248386731" lon="10.8632994014128"><ele>434.66666666666663</ele><time>2026-04-04T09:37:22.999Z</time></trkpt><trkpt lat="43.40887580911639" lon="10.863397162466732"><ele>433.5</ele><time>2026-04-04T09:37:23.999Z</time></trkpt><trkpt lat="43.40890432402333" lon="10.863501867105354"><ele>432.33333333333337</ele><time>2026-04-04T09:37:24.999Z</time></trkpt><trkpt lat="43.40892837367243" lon="10.86360197811384"><ele>431.1666666666667</ele><time>2026-04-04T09:37:25.999Z</time></trkpt><trkpt lat="43.40897410297061" lon="10.86368059922497"><ele>430.0</ele><time>2026-04-04T09:37:26.999Z</time></trkpt><trkpt lat="43.409037558843224" lon="10.863741403902596"><ele>430.0</ele><time>2026-04-04T09:37:27.999Z</time></trkpt><trkpt lat="43.40912013045425" lon="10.863769423470027"><ele>430.0</ele><time>2026-04-04T09:37:28.999Z</time></trkpt><trkpt lat="43.40921542570525" lon="10.863773942601071"><ele>430.0</ele><time>2026-04-04T09:37:29.999Z</time></trkpt><trkpt lat="43.409328969944745" lon="10.863776743859809"><ele>430.0</ele><time>2026-04-04T09:37:30.999Z</time></trkpt><trkpt lat="43.40943018435965" lon="10.863777232724145"><ele>430.0</ele><time>2026-04-04T09:37:31.999Z</time></trkpt><trkpt lat="43.409518912497305" lon="10.863790207001852"><ele>430.00000000000006</ele><time>2026-04-04T09:37:32.999Z</time></trkpt><trkpt lat="43.40959146585936" lon="10.863795091808832"><ele>430.0</ele><time>2026-04-04T09:37:33.999Z</time></trkpt><trkpt lat="43.409657034263844" lon="10.863757798299316"><ele>430.0</ele><time>2026-04-04T09:37:34.999Z</time></trkpt><trkpt lat="43.4097073490585" lon="10.86368000340555"><ele>430.0</ele><time>2026-04-04T09:37:35.999Z</time></trkpt><trkpt lat="43.40976389588886" lon="10.863571185168844"><ele>430.00000000000006</ele><time>2026-04-04T09:37:36.999Z</time></trkpt><trkpt lat="43.40983426368596" lon="10.863442977616089"><ele>430.0</ele><time>2026-04-04T09:37:37.999Z</time></trkpt><trkpt lat="43.40992144766415" lon="10.863307683550344"><ele>433.0</ele><time>2026-04-04T09:37:38.999Z</time></trkpt><trkpt lat="43.41000979696925" lon="10.863183874468287"><ele>436.0</ele><time>2026-04-04T09:37:39.999Z</time></trkpt><trkpt lat="43.41009645075951" lon="10.863077973067089"><ele>439.0</ele><time>2026-04-04T09:37:40.999Z</time></trkpt><trkpt lat="43.410177025182584" lon="10.862983305318924"><ele>442.0</ele><time>2026-04-04T09:37:41.999Z</time></trkpt><trkpt lat="43.410252589064086" lon="10.862905031602727"><ele>445.0</ele><time>2026-04-04T09:37:42.999Z</time></trkpt><trkpt lat="43.41033020317491" lon="10.862855453585802"><ele>445.0</ele><time>2026-04-04T09:37:43.999Z</time></trkpt><trkpt lat="43.41041337755348" lon="10.862834883638207"><ele>445.0</ele><time>2026-04-04T09:37:44.999Z</time></trkpt><trkpt lat="43.410507781668" lon="10.86285567193387"><ele>445.0</ele><time>2026-04-04T09:37:45.999Z</time></trkpt><trkpt lat="43.4106053789206" lon="10.862921887017636"><ele>445.0</ele><time>2026-04-04T09:37:46.999Z</time></trkpt><trkpt lat="43.41070017709017" lon="10.863023248954505"><ele>445.0</ele><time>2026-04-04T09:37:47.999Z</time></trkpt><trkpt lat="43.41079421336959" lon="10.86314078984937"><ele>442.5</ele><time>2026-04-04T09:37:48.999Z</time></trkpt><trkpt lat="43.41088620148742" lon="10.86325114246561"><ele>440.0</ele><time>2026-04-04T09:37:49.999Z</time></trkpt><trkpt lat="43.41098698917038" lon="10.863365278420005"><ele>437.5</ele><time>2026-04-04T09:37:50.999Z</time></trkpt><trkpt lat="43.41108928073677" lon="10.86347966675641"><ele>435.0</ele><time>2026-04-04T09:37:51.999Z</time></trkpt><trkpt lat="43.41118368354143" lon="10.863600002081515"><ele>435.0</ele><time>2026-04-04T09:37:52.999Z</time></trkpt><trkpt lat="43.41126828495456" lon="10.863730053321303"><ele>435.0</ele><time>2026-04-04T09:37:53.999Z</time></trkpt><trkpt lat="43.411341336206384" lon="10.863876439703219"><ele>435.0</ele><time>2026-04-04T09:37:54.999Z</time></trkpt><trkpt lat="43.41140534185053" lon="10.864025316145659"><ele>435.0</ele><time>2026-04-04T09:37:55.999Z</time></trkpt><trkpt lat="43.41147886393995" lon="10.864154676721892"><ele>431.0</ele><time>2026-04-04T09:37:56.999Z</time></trkpt><trkpt lat="43.411565265475744" lon="10.864249255076071"><ele>427.0</ele><time>2026-04-04T09:37:57.999Z</time></trkpt><trkpt lat="43.41166902276321" lon="10.864302510456413"><ele>423.0</ele><time>2026-04-04T09:37:58.999Z</time></trkpt><trkpt lat="43.41178803550551" lon="10.864321755738187"><ele>419.0</ele><time>2026-04-04T09:37:59.999Z</time></trkpt><trkpt lat="43.4119192121935" lon="10.864311009508778"><ele>419.0</ele><time>2026-04-04T09:38:00.999Z</time></trkpt><trkpt lat="43.41204178638726" lon="10.864292265886244"><ele>419.0</ele><time>2026-04-04T09:38:01.999Z</time></trkpt><trkpt lat="43.412165066973195" lon="10.864272117757293"><ele>419.0</ele><time>2026-04-04T09:38:02.999Z</time></trkpt><trkpt lat="43.41229243347336" lon="10.864255005635183"><ele>419.0</ele><time>2026-04-04T09:38:03.999Z</time></trkpt><trkpt lat="43.412412608880715" lon="10.86423491326224"><ele>415.25</ele><time>2026-04-04T09:38:04.999Z</time></trkpt><trkpt lat="43.412526290109575" lon="10.864209623305632"><ele>411.5</ele><time>2026-04-04T09:38:05.999Z</time></trkpt><trkpt lat="43.41263422361225" lon="10.86416540365114"><ele>407.75</ele><time>2026-04-04T09:38:06.999Z</time></trkpt><trkpt lat="43.41274501667711" lon="10.864134279756737"><ele>404.0</ele><time>2026-04-04T09:38:07.999Z</time></trkpt><trkpt lat="43.41285852597834" lon="10.864123478721217"><ele>404.0</ele><time>2026-04-04T09:38:08.999Z</time></trkpt><trkpt lat="43.4129708374461" lon="10.86413694672397"><ele>404.0</ele><time>2026-04-04T09:38:09.999Z</time></trkpt><trkpt lat="43.4130854302429" lon="10.86417202024481"><ele>404.0</ele><time>2026-04-04T09:38:10.999Z</time></trkpt><trkpt lat="43.413199965288584" lon="10.86421969468687"><ele>404.0</ele><time>2026-04-04T09:38:11.999Z</time></trkpt><trkpt lat="43.41331141500814" lon="10.864258112315524"><ele>402.75</ele><time>2026-04-04T09:38:12.999Z</time></trkpt><trkpt lat="43.4134309006777" lon="10.864297857875693"><ele>401.5</ele><time>2026-04-04T09:38:13.999Z</time></trkpt><trkpt lat="43.413567382475776" lon="10.864335083041949"><ele>400.25</ele><time>2026-04-04T09:38:14.999Z</time></trkpt><trkpt lat="43.41369495431304" lon="10.864373229500849"><ele>399.0</ele><time>2026-04-04T09:38:15.999Z</time></trkpt><trkpt lat="43.413812754777005" lon="10.864405818508445"><ele>397.25</ele><time>2026-04-04T09:38:16.999Z</time></trkpt><trkpt lat="43.413927053606564" lon="10.864427421925013"><ele>395.5</ele><time>2026-04-04T09:38:17.999Z</time></trkpt><trkpt lat="43.414046548038556" lon="10.864443674887275"><ele>393.75</ele><time>2026-04-04T09:38:18.999Z</time></trkpt><trkpt lat="43.41417283515689" lon="10.864452325761395"><ele>392.0</ele><time>2026-04-04T09:38:19.999Z</time></trkpt><trkpt lat="43.41430345751398" lon="10.864462190693716"><ele>392.0</ele><time>2026-04-04T09:38:20.999Z</time></trkpt><trkpt lat="43.41443215700312" lon="10.86447184362814"><ele>392.0</ele><time>2026-04-04T09:38:21.999Z</time></trkpt><trkpt lat="43.41455673659536" lon="10.864481990689558"><ele>392.0</ele><time>2026-04-04T09:38:22.999Z</time></trkpt><trkpt lat="43.41468530505726" lon="10.864493764307765"><ele>392.0</ele><time>2026-04-04T09:38:23.999Z</time></trkpt><trkpt lat="43.414807259374065" lon="10.864504348454245"><ele>391.0</ele><time>2026-04-04T09:38:24.999Z</time></trkpt><trkpt lat="43.41491959785631" lon="10.864514787967908"><ele>390.0</ele><time>2026-04-04T09:38:25.999Z</time></trkpt><trkpt lat="43.41502907842552" lon="10.864525028322445"><ele>389.0</ele><time>2026-04-04T09:38:26.999Z</time></trkpt><trkpt lat="43.41514214053238" lon="10.864538081223577"><ele>388.0</ele><time>2026-04-04T09:38:27.999Z</time></trkpt><trkpt lat="43.41525956461703" lon="10.864552404447117"><ele>388.0</ele><time>2026-04-04T09:38:28.999Z</time></trkpt><trkpt lat="43.415377325119046" lon="10.864567209607637"><ele>388.0</ele><time>2026-04-04T09:38:29.999Z</time></trkpt><trkpt lat="43.415489582135365" lon="10.864575708688767"><ele>388.0</ele><time>2026-04-04T09:38:30.999Z</time></trkpt><trkpt lat="43.41559172526137" lon="10.86460125800326"><ele>388.0</ele><time>2026-04-04T09:38:31.999Z</time></trkpt><trkpt lat="43.415687204273496" lon="10.864651561151488"><ele>388.0</ele><time>2026-04-04T09:38:32.999Z</time></trkpt><trkpt lat="43.41577661952283" lon="10.864733738124443"><ele>384.0</ele><time>2026-04-04T09:38:33.999Z</time></trkpt><trkpt lat="43.41586397314206" lon="10.864831582278219"><ele>380.0</ele><time>2026-04-04T09:38:34.999Z</time></trkpt><trkpt lat="43.41596357575292" lon="10.864955507164211"><ele>376.0</ele><time>2026-04-04T09:38:35.999Z</time></trkpt><trkpt lat="43.41608021867906" lon="10.865080693882778"><ele>372.0</ele><time>2026-04-04T09:38:36.999Z</time></trkpt><trkpt lat="43.416198782610124" lon="10.86520428603358"><ele>370.5</ele><time>2026-04-04T09:38:37.999Z</time></trkpt><trkpt lat="43.41631373832426" lon="10.865324841614159"><ele>369.0</ele><time>2026-04-04T09:38:38.999Z</time></trkpt><trkpt lat="43.41642055368644" lon="10.86543894626123"><ele>367.5</ele><time>2026-04-04T09:38:39.999Z</time></trkpt><trkpt lat="43.41652078901665" lon="10.865545818144128"><ele>366.0</ele><time>2026-04-04T09:38:40.999Z</time></trkpt><trkpt lat="43.41661181334334" lon="10.865642732276042"><ele>363.5</ele><time>2026-04-04T09:38:41.999Z</time></trkpt><trkpt lat="43.41668614834344" lon="10.865723409127348"><ele>361.0</ele><time>2026-04-04T09:38:42.999Z</time></trkpt><trkpt lat="43.41675700155646" lon="10.86577758327308"><ele>358.5</ele><time>2026-04-04T09:38:43.999Z</time></trkpt><trkpt lat="43.41682790975676" lon="10.865775146668653"><ele>356.0</ele><time>2026-04-04T09:38:44.999Z</time></trkpt><trkpt lat="43.41688497456907" lon="10.865714268110214"><ele>353.5</ele><time>2026-04-04T09:38:45.999Z</time></trkpt><trkpt lat="43.41689972263936" lon="10.865609959720258"><ele>351.0</ele><time>2026-04-04T09:38:46.999Z</time></trkpt><trkpt lat="43.41686814804948" lon="10.86550143825942"><ele>351.0</ele><time>2026-04-04T09:38:47.999Z</time></trkpt><trkpt lat="43.416794407577335" lon="10.865421293303692"><ele>351.0</ele><time>2026-04-04T09:38:48.999Z</time></trkpt><trkpt lat="43.41668715084732" lon="10.865375863083134"><ele>351.0</ele><time>2026-04-04T09:38:49.999Z</time></trkpt><trkpt lat="43.41658454886611" lon="10.86534917818023"><ele>351.0</ele><time>2026-04-04T09:38:50.999Z</time></trkpt><trkpt lat="43.41652025930534" lon="10.86530658145731"><ele>351.0</ele><time>2026-04-04T09:38:51.999Z</time></trkpt><trkpt lat="43.41650991652742" lon="10.86516629722912"><ele>351.0</ele><time>2026-04-04T09:38:53.999Z</time></trkpt><trkpt lat="43.41656141566579" lon="10.8651090450951"><ele>351.0</ele><time>2026-04-04T09:38:54.999Z</time></trkpt><trkpt lat="43.41663624665706" lon="10.865112739574288"><ele>351.0</ele><time>2026-04-04T09:38:55.999Z</time></trkpt><trkpt lat="43.416720187846124" lon="10.865160831536535"><ele>351.0</ele><time>2026-04-04T09:38:56.999Z</time></trkpt><trkpt lat="43.416852163094745" lon="10.865249805429457"><ele>351.0</ele><time>2026-04-04T09:38:57.999Z</time></trkpt><trkpt lat="43.41696540030839" lon="10.865348277345817"><ele>351.0</ele><time>2026-04-04T09:38:58.999Z</time></trkpt><trkpt lat="43.417047558666546" lon="10.865455655579956"><ele>351.0</ele><time>2026-04-04T09:38:59.999Z</time></trkpt><trkpt lat="43.41709920661135" lon="10.865576029546881"><ele>351.0</ele><time>2026-04-04T09:39:00.999Z</time></trkpt><trkpt lat="43.41712452966144" lon="10.865710806851354"><ele>351.0</ele><time>2026-04-04T09:39:01.999Z</time></trkpt><trkpt lat="43.417118604534885" lon="10.865836595391675"><ele>351.0</ele><time>2026-04-04T09:39:02.999Z</time></trkpt><trkpt lat="43.41707764678874" lon="10.865940720976374"><ele>346.0</ele><time>2026-04-04T09:39:03.999Z</time></trkpt><trkpt lat="43.41700859168228" lon="10.866022762982562"><ele>341.0</ele><time>2026-04-04T09:39:04.999Z</time></trkpt><trkpt lat="43.416903543547" lon="10.866100647095523"><ele>336.0</ele><time>2026-04-04T09:39:05.999Z</time></trkpt><trkpt lat="43.416783294080425" lon="10.86616030111452"><ele>331.0</ele><time>2026-04-04T09:39:06.999Z</time></trkpt><trkpt lat="43.416658143716425" lon="10.866191031089413"><ele>331.0</ele><time>2026-04-04T09:39:07.999Z</time></trkpt><trkpt lat="43.41652175664644" lon="10.866205241481907"><ele>331.0</ele><time>2026-04-04T09:39:09Z</time></trkpt><trkpt lat="43.41640082618153" lon="10.866234093088801"><ele>331.0</ele><time>2026-04-04T09:39:10Z</time></trkpt><trkpt lat="43.41629252429016" lon="10.866292434035604"><ele>331.0</ele><time>2026-04-04T09:39:11Z</time></trkpt><trkpt lat="43.4162030339606" lon="10.866369266258365"><ele>332.8333333333333</ele><time>2026-04-04T09:39:12Z</time></trkpt><trkpt lat="43.41612105069939" lon="10.866452584724232"><ele>334.66666666666663</ele><time>2026-04-04T09:39:13Z</time></trkpt><trkpt lat="43.41604047133888" lon="10.86653016463822"><ele>336.5</ele><time>2026-04-04T09:39:14Z</time></trkpt><trkpt lat="43.415968796048695" lon="10.866597533085471"><ele>338.3333333333333</ele><time>2026-04-04T09:39:15Z</time></trkpt><trkpt lat="43.415915721954676" lon="10.866674110944373"><ele>340.1666666666667</ele><time>2026-04-04T09:39:16Z</time></trkpt><trkpt lat="43.41589763981757" lon="10.866775977887745"><ele>342.0</ele><time>2026-04-04T09:39:17Z</time></trkpt><trkpt lat="43.41593314507224" lon="10.866877744425578"><ele>342.0</ele><time>2026-04-04T09:39:18Z</time></trkpt><trkpt lat="43.41601391592711" lon="10.866951068661995"><ele>342.0</ele><time>2026-04-04T09:39:19Z</time></trkpt><trkpt lat="43.41612338778765" lon="10.866994632136402"><ele>342.0</ele><time>2026-04-04T09:39:20Z</time></trkpt><trkpt lat="43.41624618360037" lon="10.867025202427001"><ele>342.0</ele><time>2026-04-04T09:39:21Z</time></trkpt><trkpt lat="43.41637805945525" lon="10.867062609013168"><ele>340.0</ele><time>2026-04-04T09:39:22Z</time></trkpt><trkpt lat="43.41650824751372" lon="10.867102135711374"><ele>338.0</ele><time>2026-04-04T09:39:23Z</time></trkpt><trkpt lat="43.41663958522153" lon="10.867144191891672"><ele>336.0</ele><time>2026-04-04T09:39:24Z</time></trkpt><trkpt lat="43.41676604411113" lon="10.867183159635102"><ele>334.0</ele><time>2026-04-04T09:39:25Z</time></trkpt><trkpt lat="43.416889008730635" lon="10.867219045510792"><ele>334.0</ele><time>2026-04-04T09:39:26Z</time></trkpt><trkpt lat="43.417007402027394" lon="10.867268582319884"><ele>334.0</ele><time>2026-04-04T09:39:27Z</time></trkpt><trkpt lat="43.41711694128711" lon="10.867322128290477"><ele>334.0</ele><time>2026-04-04T09:39:28Z</time></trkpt><trkpt lat="43.41721520681729" lon="10.867388404760243"><ele>334.0</ele><time>2026-04-04T09:39:29Z</time></trkpt><trkpt lat="43.41731323611743" lon="10.867465334436465"><ele>328.5</ele><time>2026-04-04T09:39:30Z</time></trkpt><trkpt lat="43.41741204217598" lon="10.867555572309769"><ele>323.0</ele><time>2026-04-04T09:39:31Z</time></trkpt><trkpt lat="43.41750747812321" lon="10.867673344471893"><ele>317.5</ele><time>2026-04-04T09:39:32Z</time></trkpt><trkpt lat="43.41759198368748" lon="10.867805967101244"><ele>312.0</ele><time>2026-04-04T09:39:33Z</time></trkpt><trkpt lat="43.417666047769934" lon="10.86792881691938"><ele>310.5</ele><time>2026-04-04T09:39:34Z</time></trkpt><trkpt lat="43.417763075653646" lon="10.868020586013563"><ele>309.0</ele><time>2026-04-04T09:39:35Z</time></trkpt><trkpt lat="43.417904306322356" lon="10.868085701644842"><ele>307.5</ele><time>2026-04-04T09:39:36Z</time></trkpt><trkpt lat="43.41806817599864" lon="10.86814085288296"><ele>306.0</ele><time>2026-04-04T09:39:37Z</time></trkpt><trkpt lat="43.41821468801354" lon="10.868175706682756"><ele>305.5</ele><time>2026-04-04T09:39:38Z</time></trkpt><trkpt lat="43.41835431162682" lon="10.86819685484226"><ele>305.0</ele><time>2026-04-04T09:39:39Z</time></trkpt><trkpt lat="43.41850363601622" lon="10.86820426415608"><ele>304.5</ele><time>2026-04-04T09:39:40Z</time></trkpt><trkpt lat="43.41864145685741" lon="10.868191200228136"><ele>304.0</ele><time>2026-04-04T09:39:41Z</time></trkpt><trkpt lat="43.41876361335192" lon="10.868174647561093"><ele>304.0</ele><time>2026-04-04T09:39:42Z</time></trkpt><trkpt lat="43.41887677889967" lon="10.86816609966859"><ele>304.0</ele><time>2026-04-04T09:39:43Z</time></trkpt><trkpt lat="43.418993796340274" lon="10.868163711783092"><ele>304.0</ele><time>2026-04-04T09:39:44Z</time></trkpt><trkpt lat="43.419112247313535" lon="10.868170486086807"><ele>304.0</ele><time>2026-04-04T09:39:45Z</time></trkpt><trkpt lat="43.41922562031939" lon="10.868194148514291"><ele>304.0</ele><time>2026-04-04T09:39:46Z</time></trkpt><trkpt lat="43.41933923280722" lon="10.868237005337306"><ele>304.0</ele><time>2026-04-04T09:39:47Z</time></trkpt><trkpt lat="43.419453550327894" lon="10.868292398503845"><ele>304.0</ele><time>2026-04-04T09:39:48Z</time></trkpt><trkpt lat="43.41955936461734" lon="10.868344809797662"><ele>304.0</ele><time>2026-04-04T09:39:49Z</time></trkpt><trkpt lat="43.41965363861029" lon="10.868372209176064"><ele>304.0</ele><time>2026-04-04T09:39:50Z</time></trkpt><trkpt lat="43.419742166576334" lon="10.868363662253177"><ele>302.8</ele><time>2026-04-04T09:39:51Z</time></trkpt><trkpt lat="43.41982168158658" lon="10.868314790917745"><ele>301.59999999999997</ele><time>2026-04-04T09:39:52Z</time></trkpt><trkpt lat="43.41988916610807" lon="10.868241878461294"><ele>300.4</ele><time>2026-04-04T09:39:53Z</time></trkpt><trkpt lat="43.419944920295045" lon="10.868141131858946"><ele>299.2</ele><time>2026-04-04T09:39:54Z</time></trkpt><trkpt lat="43.41997815001775" lon="10.86800835888939"><ele>298.0</ele><time>2026-04-04T09:39:55Z</time></trkpt><trkpt lat="43.41998660745639" lon="10.867841599076138"><ele>298.0</ele><time>2026-04-04T09:39:56Z</time></trkpt><trkpt lat="43.419988047067996" lon="10.867628633774764"><ele>298.0</ele><time>2026-04-04T09:39:57Z</time></trkpt><trkpt lat="43.419992809023114" lon="10.86743521071944"><ele>298.0</ele><time>2026-04-04T09:39:58Z</time></trkpt><trkpt lat="43.42000111514628" lon="10.867271715788299"><ele>298.0</ele><time>2026-04-04T09:39:59Z</time></trkpt><trkpt lat="43.420009336555836" lon="10.867139807836175"><ele>297.5</ele><time>2026-04-04T09:40:00Z</time></trkpt><trkpt lat="43.42001785057033" lon="10.867033043990034"><ele>297.0</ele><time>2026-04-04T09:40:01Z</time></trkpt><trkpt lat="43.4200498667832" lon="10.866944593299866"><ele>296.5</ele><time>2026-04-04T09:40:02Z</time></trkpt><trkpt lat="43.42012057248904" lon="10.86689050153269"><ele>296.0</ele><time>2026-04-04T09:40:03Z</time></trkpt><trkpt lat="43.420207603414575" lon="10.866896567559587"><ele>295.5</ele><time>2026-04-04T09:40:04Z</time></trkpt><trkpt lat="43.420314295878676" lon="10.866944788086212"><ele>295.0</ele><time>2026-04-04T09:40:05Z</time></trkpt><trkpt lat="43.42037652062407" lon="10.867026734986009"><ele>295.0</ele><time>2026-04-04T09:40:06Z</time></trkpt><trkpt lat="43.42041492314801" lon="10.867123647126048"><ele>295.0</ele><time>2026-04-04T09:40:07Z</time></trkpt><trkpt lat="43.42041160496322" lon="10.867235739664602"><ele>295.0</ele><time>2026-04-04T09:40:08Z</time></trkpt><trkpt lat="43.420366278291944" lon="10.867370061511124"><ele>295.0</ele><time>2026-04-04T09:40:09Z</time></trkpt><trkpt lat="43.4203011165069" lon="10.867527960525058"><ele>295.0</ele><time>2026-04-04T09:40:10Z</time></trkpt><trkpt lat="43.42025562482291" lon="10.867677383186042"><ele>295.6</ele><time>2026-04-04T09:40:11Z</time></trkpt><trkpt lat="43.420243196212965" lon="10.867813048368113"><ele>296.2</ele><time>2026-04-04T09:40:12Z</time></trkpt><trkpt lat="43.42025105640097" lon="10.867945364352684"><ele>296.8</ele><time>2026-04-04T09:40:13Z</time></trkpt><trkpt lat="43.42026968342395" lon="10.868088174986712"><ele>297.4</ele><time>2026-04-04T09:40:14Z</time></trkpt><trkpt lat="43.42029575146319" lon="10.868228697074219"><ele>298.0</ele><time>2026-04-04T09:40:15Z</time></trkpt><trkpt lat="43.42032292059377" lon="10.868346841968808"><ele>298.0</ele><time>2026-04-04T09:40:16Z</time></trkpt><trkpt lat="43.42034876971294" lon="10.868450552755325"><ele>298.0</ele><time>2026-04-04T09:40:17Z</time></trkpt><trkpt lat="43.420376466330346" lon="10.868533036360892"><ele>298.0</ele><time>2026-04-04T09:40:18Z</time></trkpt><trkpt lat="43.420481526593974" lon="10.8685659735195"><ele>298.0</ele><time>2026-04-04T09:40:20Z</time></trkpt><trkpt lat="43.4205222189831" lon="10.868496580405397"><ele>298.0</ele><time>2026-04-04T09:40:21Z</time></trkpt><trkpt lat="43.420524447819936" lon="10.868400437661105"><ele>298.0</ele><time>2026-04-04T09:40:22Z</time></trkpt><trkpt lat="43.42049328518777" lon="10.86827763051913"><ele>298.0</ele><time>2026-04-04T09:40:23Z</time></trkpt><trkpt lat="43.42045088100985" lon="10.868129481023924"><ele>298.0</ele><time>2026-04-04T09:40:24Z</time></trkpt><trkpt lat="43.42043046600729" lon="10.867972174816487"><ele>298.0</ele><time>2026-04-04T09:40:25Z</time></trkpt><trkpt lat="43.42045688613014" lon="10.867832056783968"><ele>298.0</ele><time>2026-04-04T09:40:26Z</time></trkpt><trkpt lat="43.420528024442284" lon="10.867711567969966"><ele>294.0</ele><time>2026-04-04T09:40:27Z</time></trkpt><trkpt lat="43.420615110824365" lon="10.86761024881844"><ele>290.0</ele><time>2026-04-04T09:40:28Z</time></trkpt><trkpt lat="43.42069217202109" lon="10.867527770485257"><ele>286.0</ele><time>2026-04-04T09:40:29Z</time></trkpt><trkpt lat="43.42077986672425" lon="10.867475519679155"><ele>282.0</ele><time>2026-04-04T09:40:30Z</time></trkpt><trkpt lat="43.42088878616353" lon="10.867459813001918"><ele>278.0</ele><time>2026-04-04T09:40:31Z</time></trkpt><trkpt lat="43.42100219464103" lon="10.867443505281488"><ele>278.0</ele><time>2026-04-04T09:40:32Z</time></trkpt><trkpt lat="43.42111000158598" lon="10.86740811242526"><ele>278.0</ele><time>2026-04-04T09:40:33Z</time></trkpt><trkpt lat="43.42120309820032" lon="10.867352323606132"><ele>278.0</ele><time>2026-04-04T09:40:34Z</time></trkpt><trkpt lat="43.42128621832387" lon="10.867287713157152"><ele>278.0</ele><time>2026-04-04T09:40:35Z</time></trkpt><trkpt lat="43.42136296609046" lon="10.867225535680955"><ele>278.0</ele><time>2026-04-04T09:40:36Z</time></trkpt><trkpt lat="43.42143518935411" lon="10.867166739186601"><ele>274.8</ele><time>2026-04-04T09:40:37Z</time></trkpt><trkpt lat="43.42149617264671" lon="10.8670973310228"><ele>271.6</ele><time>2026-04-04T09:40:38Z</time></trkpt><trkpt lat="43.42153151851164" lon="10.866998780916651"><ele>268.4</ele><time>2026-04-04T09:40:39Z</time></trkpt><trkpt lat="43.421555326418606" lon="10.86687777512592"><ele>265.2</ele><time>2026-04-04T09:40:40Z</time></trkpt><trkpt lat="43.42156263923431" lon="10.866741300245216"><ele>262.0</ele><time>2026-04-04T09:40:41Z</time></trkpt><trkpt lat="43.42156516726121" lon="10.866596686655463"><ele>262.0</ele><time>2026-04-04T09:40:42Z</time></trkpt><trkpt lat="43.421563375033834" lon="10.866463737799386"><ele>262.0</ele><time>2026-04-04T09:40:43Z</time></trkpt><trkpt lat="43.42154347289193" lon="10.86633731482972"><ele>262.0</ele><time>2026-04-04T09:40:44Z</time></trkpt><trkpt lat="43.421503055072044" lon="10.866224288893797"><ele>262.0</ele><time>2026-04-04T09:40:45Z</time></trkpt><trkpt lat="43.421462126009146" lon="10.866147469341552"><ele>262.0</ele><time>2026-04-04T09:40:46Z</time></trkpt><trkpt lat="43.42145386122718" lon="10.86598786474531"><ele>262.0</ele><time>2026-04-04T09:40:48Z</time></trkpt><trkpt lat="43.42154345281611" lon="10.865891309610756"><ele>262.0</ele><time>2026-04-04T09:40:50Z</time></trkpt><trkpt lat="43.42164861065757" lon="10.865952775717187"><ele>262.0</ele><time>2026-04-04T09:40:52Z</time></trkpt><trkpt lat="43.421702592773826" lon="10.866052870634542"><ele>262.0</ele><time>2026-04-04T09:40:53Z</time></trkpt><trkpt lat="43.42175026458719" lon="10.866168220102207"><ele>262.0</ele><time>2026-04-04T09:40:54Z</time></trkpt><trkpt lat="43.42179336397185" lon="10.866307148215823"><ele>262.0</ele><time>2026-04-04T09:40:55Z</time></trkpt><trkpt lat="43.42184390186668" lon="10.866473383817196"><ele>262.0</ele><time>2026-04-04T09:40:56Z</time></trkpt><trkpt lat="43.42191393441972" lon="10.866541800646202"><ele>262.0</ele><time>2026-04-04T09:40:58Z</time></trkpt><trkpt lat="43.42196589933064" lon="10.866668710055801"><ele>262.0</ele><time>2026-04-04T09:40:59Z</time></trkpt><trkpt lat="43.42201773249911" lon="10.866804662172578"><ele>262.0</ele><time>2026-04-04T09:41:00Z</time></trkpt><trkpt lat="43.42205309697257" lon="10.866936615082679"><ele>261.6</ele><time>2026-04-04T09:41:01Z</time></trkpt><trkpt lat="43.42206964120793" lon="10.867070915418832"><ele>261.2</ele><time>2026-04-04T09:41:02Z</time></trkpt><trkpt lat="43.42208070532236" lon="10.867223452572006"><ele>260.8</ele><time>2026-04-04T09:41:03Z</time></trkpt><trkpt lat="43.42208572173318" lon="10.86737632696378"><ele>260.4</ele><time>2026-04-04T09:41:04Z</time></trkpt><trkpt lat="43.42208125917445" lon="10.867516083654335"><ele>260.0</ele><time>2026-04-04T09:41:05Z</time></trkpt><trkpt lat="43.42208027243217" lon="10.867642453954302"><ele>259.8</ele><time>2026-04-04T09:41:06Z</time></trkpt><trkpt lat="43.42209655162031" lon="10.867769481242398"><ele>259.6</ele><time>2026-04-04T09:41:07Z</time></trkpt><trkpt lat="43.422137960038626" lon="10.867884184667194"><ele>259.4</ele><time>2026-04-04T09:41:08Z</time></trkpt><trkpt lat="43.422207526871276" lon="10.867971476582643"><ele>259.2</ele><time>2026-04-04T09:41:09Z</time></trkpt><trkpt lat="43.4222947986505" lon="10.868041868126124"><ele>259.0</ele><time>2026-04-04T09:41:10Z</time></trkpt><trkpt lat="43.42240042482996" lon="10.868111796296004"><ele>257.59999999999997</ele><time>2026-04-04T09:41:11Z</time></trkpt><trkpt lat="43.422499195540276" lon="10.868181798488399"><ele>256.2</ele><time>2026-04-04T09:41:12Z</time></trkpt><trkpt lat="43.422583731519374" lon="10.868252430494612"><ele>254.79999999999998</ele><time>2026-04-04T09:41:13Z</time></trkpt><trkpt lat="43.422665231618524" lon="10.868320059196504"><ele>253.39999999999998</ele><time>2026-04-04T09:41:14Z</time></trkpt><trkpt lat="43.42273013647745" lon="10.868401548693438"><ele>252.0</ele><time>2026-04-04T09:41:15Z</time></trkpt><trkpt lat="43.42278060566373" lon="10.868505525032083"><ele>252.0</ele><time>2026-04-04T09:41:16Z</time></trkpt><trkpt lat="43.42281956632833" lon="10.868632188594122"><ele>252.0</ele><time>2026-04-04T09:41:17Z</time></trkpt><trkpt lat="43.422855587934215" lon="10.86877695415245"><ele>252.0</ele><time>2026-04-04T09:41:18Z</time></trkpt><trkpt lat="43.42291624898534" lon="10.868924759780056"><ele>252.0</ele><time>2026-04-04T09:41:19Z</time></trkpt><trkpt lat="43.42300002708117" lon="10.869059082769546"><ele>247.8</ele><time>2026-04-04T09:41:20Z</time></trkpt><trkpt lat="43.42308067706187" lon="10.869166544279269"><ele>243.6</ele><time>2026-04-04T09:41:21Z</time></trkpt><trkpt lat="43.42315834065637" lon="10.869274285553928"><ele>239.40000000000003</ele><time>2026-04-04T09:41:22Z</time></trkpt><trkpt lat="43.42323010742538" lon="10.86939924581162"><ele>235.20000000000002</ele><time>2026-04-04T09:41:23Z</time></trkpt><trkpt lat="43.423280047385475" lon="10.869530610497803"><ele>231.0</ele><time>2026-04-04T09:41:24Z</time></trkpt><trkpt lat="43.42331994622299" lon="10.869669636359433"><ele>231.0</ele><time>2026-04-04T09:41:25Z</time></trkpt><trkpt lat="43.423367157408975" lon="10.8698188660089"><ele>231.0</ele><time>2026-04-04T09:41:26Z</time></trkpt><trkpt lat="43.423418778790605" lon="10.869971220967706"><ele>231.0</ele><time>2026-04-04T09:41:27Z</time></trkpt><trkpt lat="43.42346768925853" lon="10.870122346546808"><ele>231.0</ele><time>2026-04-04T09:41:28Z</time></trkpt><trkpt lat="43.42350979736836" lon="10.870258089647889"><ele>231.8</ele><time>2026-04-04T09:41:29Z</time></trkpt><trkpt lat="43.423547068519305" lon="10.870381723954026"><ele>232.60000000000002</ele><time>2026-04-04T09:41:30Z</time></trkpt><trkpt lat="43.423583181849544" lon="10.870485727541448"><ele>233.4</ele><time>2026-04-04T09:41:31Z</time></trkpt><trkpt lat="43.42361152119821" lon="10.870570531112657"><ele>234.2</ele><time>2026-04-04T09:41:32Z</time></trkpt><trkpt lat="43.42367062489988" lon="10.870688426746666"><ele>235.0</ele><time>2026-04-04T09:41:34Z</time></trkpt><trkpt lat="43.42376700779444" lon="10.870672341820072"><ele>235.0</ele><time>2026-04-04T09:41:36Z</time></trkpt><trkpt lat="43.42380495273812" lon="10.870596264766696"><ele>235.0</ele><time>2026-04-04T09:41:37Z</time></trkpt><trkpt lat="43.423813368407984" lon="10.870488758780375"><ele>235.0</ele><time>2026-04-04T09:41:38Z</time></trkpt><trkpt lat="43.42377700936287" lon="10.87026003476477"><ele>235.0</ele><time>2026-04-04T09:41:40Z</time></trkpt><trkpt lat="43.423744591001565" lon="10.870090726132974"><ele>235.0</ele><time>2026-04-04T09:41:41Z</time></trkpt><trkpt lat="43.42371774688266" lon="10.869867186063193"><ele>234.0</ele><time>2026-04-04T09:41:42Z</time></trkpt><trkpt lat="43.42369430534983" lon="10.869696343174079"><ele>233.0</ele><time>2026-04-04T09:41:43Z</time></trkpt><trkpt lat="43.42367255501822" lon="10.869543607198025"><ele>232.0</ele><time>2026-04-04T09:41:44Z</time></trkpt><trkpt lat="43.42364907993381" lon="10.869384353853267"><ele>231.0</ele><time>2026-04-04T09:41:45Z</time></trkpt><trkpt lat="43.423624841247914" lon="10.86922021489231"><ele>229.8</ele><time>2026-04-04T09:41:46Z</time></trkpt><trkpt lat="43.42360499201306" lon="10.869077374410628"><ele>228.60000000000002</ele><time>2026-04-04T09:41:47Z</time></trkpt><trkpt lat="43.42359810208022" lon="10.868971313018998"><ele>227.4</ele><time>2026-04-04T09:41:48Z</time></trkpt><trkpt lat="43.42365990142732" lon="10.868851416020602"><ele>226.2</ele><time>2026-04-04T09:41:50Z</time></trkpt><trkpt lat="43.42377169028402" lon="10.868926416212007"><ele>225.0</ele><time>2026-04-04T09:41:52Z</time></trkpt><trkpt lat="43.423808757781536" lon="10.86904464171846"><ele>220.25</ele><time>2026-04-04T09:41:53Z</time></trkpt><trkpt lat="43.42384514513787" lon="10.869207590291987"><ele>215.5</ele><time>2026-04-04T09:41:54Z</time></trkpt><trkpt lat="43.42388697853941" lon="10.869380586239608"><ele>210.75</ele><time>2026-04-04T09:41:55Z</time></trkpt><trkpt lat="43.4239383188947" lon="10.869570602919607"><ele>206.0</ele><time>2026-04-04T09:41:56Z</time></trkpt><trkpt lat="43.42399764026551" lon="10.869756553112653"><ele>206.0</ele><time>2026-04-04T09:41:57Z</time></trkpt><trkpt lat="43.424064921800415" lon="10.86992609760456"><ele>206.0</ele><time>2026-04-04T09:41:58Z</time></trkpt><trkpt lat="43.42414038371516" lon="10.87007307908725"><ele>206.0</ele><time>2026-04-04T09:41:59Z</time></trkpt><trkpt lat="43.4242081886197" lon="10.870212212791799"><ele>206.0</ele><time>2026-04-04T09:42:00Z</time></trkpt><trkpt lat="43.42426303303194" lon="10.870351445471446"><ele>206.25</ele><time>2026-04-04T09:42:01Z</time></trkpt><trkpt lat="43.42430345227818" lon="10.870500360800511"><ele>206.5</ele><time>2026-04-04T09:42:02Z</time></trkpt><trkpt lat="43.42433913981206" lon="10.870645025686603"><ele>206.75</ele><time>2026-04-04T09:42:03Z</time></trkpt><trkpt lat="43.42436984828845" lon="10.87079513013993"><ele>207.0</ele><time>2026-04-04T09:42:04Z</time></trkpt><trkpt lat="43.42440486580793" lon="10.870951337747536"><ele>207.0</ele><time>2026-04-04T09:42:05Z</time></trkpt><trkpt lat="43.42445482029437" lon="10.871109167600324"><ele>207.0</ele><time>2026-04-04T09:42:06Z</time></trkpt><trkpt lat="43.42453378394164" lon="10.871261878967326"><ele>207.0</ele><time>2026-04-04T09:42:07Z</time></trkpt><trkpt lat="43.42463229660425" lon="10.871406382784649"><ele>207.0</ele><time>2026-04-04T09:42:08Z</time></trkpt><trkpt lat="43.424741879284824" lon="10.87155031154023"><ele>201.33333333333334</ele><time>2026-04-04T09:42:09Z</time></trkpt><trkpt lat="43.42485424437959" lon="10.871698926544724"><ele>195.66666666666669</ele><time>2026-04-04T09:42:10Z</time></trkpt><trkpt lat="43.42496685891581" lon="10.871849333370674"><ele>190.0</ele><time>2026-04-04T09:42:11Z</time></trkpt><trkpt lat="43.425072145923274" lon="10.871998215099671"><ele>190.0</ele><time>2026-04-04T09:42:12Z</time></trkpt><trkpt lat="43.4251700204566" lon="10.872135729567068"><ele>190.0</ele><time>2026-04-04T09:42:13Z</time></trkpt><trkpt lat="43.425262002509704" lon="10.872264622281104"><ele>190.0</ele><time>2026-04-04T09:42:14Z</time></trkpt><trkpt lat="43.42534990753426" lon="10.872384008182497"><ele>190.0</ele><time>2026-04-04T09:42:15Z</time></trkpt><trkpt lat="43.42543191314403" lon="10.872500996715177"><ele>189.2</ele><time>2026-04-04T09:42:16.001Z</time></trkpt><trkpt lat="43.42550064960114" lon="10.872603408735587"><ele>188.4</ele><time>2026-04-04T09:42:17.001Z</time></trkpt><trkpt lat="43.42554734493943" lon="10.872682961483099"><ele>187.60000000000002</ele><time>2026-04-04T09:42:18.001Z</time></trkpt><trkpt lat="43.425585411474145" lon="10.87282268825159"><ele>186.8</ele><time>2026-04-04T09:42:20.001Z</time></trkpt><trkpt lat="43.425523702253166" lon="10.872940230028721"><ele>186.0</ele><time>2026-04-04T09:42:22.001Z</time></trkpt><trkpt lat="43.42546353385949" lon="10.872988714399906"><ele>186.0</ele><time>2026-04-04T09:42:23.001Z</time></trkpt><trkpt lat="43.425378011342175" lon="10.873049900160282"><ele>186.0</ele><time>2026-04-04T09:42:24.001Z</time></trkpt><trkpt lat="43.42527841264551" lon="10.873121352590474"><ele>186.0</ele><time>2026-04-04T09:42:25.001Z</time></trkpt><trkpt lat="43.42517925242709" lon="10.873209388152361"><ele>186.0</ele><time>2026-04-04T09:42:26.001Z</time></trkpt><trkpt lat="43.42509561489546" lon="10.873307453605662"><ele>186.0</ele><time>2026-04-04T09:42:27.001Z</time></trkpt><trkpt lat="43.42503347601128" lon="10.873411696858792"><ele>182.25</ele><time>2026-04-04T09:42:28.001Z</time></trkpt><trkpt lat="43.424976699725754" lon="10.873552318633125"><ele>178.5</ele><time>2026-04-04T09:42:29.001Z</time></trkpt><trkpt lat="43.42491922713856" lon="10.873692787116074"><ele>174.75</ele><time>2026-04-04T09:42:30.001Z</time></trkpt><trkpt lat="43.42485465581293" lon="10.87384773884576"><ele>171.0</ele><time>2026-04-04T09:42:31.001Z</time></trkpt><trkpt lat="43.42476642770879" lon="10.87401785575095"><ele>171.0</ele><time>2026-04-04T09:42:32.001Z</time></trkpt><trkpt lat="43.42466695026818" lon="10.874186789343264"><ele>171.0</ele><time>2026-04-04T09:42:33.001Z</time></trkpt><trkpt lat="43.424575036685184" lon="10.874353841617351"><ele>171.0</ele><time>2026-04-04T09:42:34Z</time></trkpt><trkpt lat="43.42449483840071" lon="10.874513040034573"><ele>170.25</ele><time>2026-04-04T09:42:35Z</time></trkpt><trkpt lat="43.42442376332794" lon="10.874670075555253"><ele>169.5</ele><time>2026-04-04T09:42:36Z</time></trkpt><trkpt lat="43.42435606552599" lon="10.874824146670155"><ele>168.75</ele><time>2026-04-04T09:42:37Z</time></trkpt><trkpt lat="43.424298071925946" lon="10.874970436560751"><ele>168.0</ele><time>2026-04-04T09:42:38Z</time></trkpt><trkpt lat="43.4242625679499" lon="10.875105549937116"><ele>167.0</ele><time>2026-04-04T09:42:39Z</time></trkpt><trkpt lat="43.42423438441455" lon="10.875252009840459"><ele>166.0</ele><time>2026-04-04T09:42:40Z</time></trkpt><trkpt lat="43.424207207664" lon="10.875384956820543"><ele>165.0</ele><time>2026-04-04T09:42:41Z</time></trkpt><trkpt lat="43.42418650908668" lon="10.87550528791632"><ele>164.0</ele><time>2026-04-04T09:42:42Z</time></trkpt><trkpt lat="43.42417426411165" lon="10.875629369585853"><ele>163.0</ele><time>2026-04-04T09:42:43Z</time></trkpt><trkpt lat="43.4241660311733" lon="10.875738913913652"><ele>163.0</ele><time>2026-04-04T09:42:44Z</time></trkpt><trkpt lat="43.42416052580707" lon="10.87585183116209"><ele>163.0</ele><time>2026-04-04T09:42:45Z</time></trkpt><trkpt lat="43.42415974172199" lon="10.875951741161119"><ele>163.0</ele><time>2026-04-04T09:42:46Z</time></trkpt><trkpt lat="43.42416844707316" lon="10.87603911370987"><ele>163.0</ele><time>2026-04-04T09:42:47Z</time></trkpt><trkpt lat="43.4242449341028" lon="10.876174756028611"><ele>163.0</ele><time>2026-04-04T09:42:49Z</time></trkpt><trkpt lat="43.42432001315632" lon="10.876252187487172"><ele>163.0</ele><time>2026-04-04T09:42:50Z</time></trkpt><trkpt lat="43.42441058163862" lon="10.876333520664518"><ele>162.83333333333334</ele><time>2026-04-04T09:42:51Z</time></trkpt><trkpt lat="43.42449633592962" lon="10.876395633843497"><ele>162.66666666666669</ele><time>2026-04-04T09:42:52Z</time></trkpt><trkpt lat="43.42457604552255" lon="10.876427935505573"><ele>162.5</ele><time>2026-04-04T09:42:53Z</time></trkpt><trkpt lat="43.42465204379775" lon="10.876456587201341"><ele>162.33333333333334</ele><time>2026-04-04T09:42:54Z</time></trkpt><trkpt lat="43.424728987937634" lon="10.876465717684635"><ele>162.16666666666666</ele><time>2026-04-04T09:42:55Z</time></trkpt><trkpt lat="43.424829173256846" lon="10.876463911184732"><ele>162.0</ele><time>2026-04-04T09:42:57Z</time></trkpt><trkpt lat="43.42489320304712" lon="10.876461581489034"><ele>161.33333333333334</ele><time>2026-04-04T09:42:59Z</time></trkpt><trkpt lat="43.42496079146197" lon="10.876462289383872"><ele>160.66666666666666</ele><time>2026-04-04T09:43:03Z</time></trkpt><trkpt lat="43.42504768291286" lon="10.876409009071274"><ele>160.0</ele><time>2026-04-04T09:43:05Z</time></trkpt><trkpt lat="43.425108552493946" lon="10.876354940585049"><ele>159.33333333333331</ele><time>2026-04-04T09:43:06Z</time></trkpt><trkpt lat="43.42520138343963" lon="10.87636149841892"><ele>158.66666666666666</ele><time>2026-04-04T09:43:08Z</time></trkpt><trkpt lat="43.42526739739316" lon="10.876413083826591"><ele>158.0</ele><time>2026-04-04T09:43:10Z</time></trkpt><trkpt lat="43.425331954900685" lon="10.876455911885904"><ele>158.0</ele><time>2026-04-04T09:43:12Z</time></trkpt><trkpt lat="43.425402015490235" lon="10.87650269276909"><ele>158.0</ele><time>2026-04-04T09:43:14Z</time></trkpt><trkpt lat="43.42549577038985" lon="10.876551143820931"><ele>158.0</ele><time>2026-04-04T09:43:16Z</time></trkpt><trkpt lat="43.425601764740165" lon="10.87661669835604"><ele>158.0</ele><time>2026-04-04T09:43:18Z</time></trkpt><trkpt lat="43.425663833554935" lon="10.876659426425354"><ele>158.0</ele><time>2026-04-04T09:43:19Z</time></trkpt><trkpt lat="43.4257230114295" lon="10.876700202341588"><ele>158.0</ele><time>2026-04-04T09:43:20Z</time></trkpt><trkpt lat="43.42578269441074" lon="10.87674120428901"><ele>157.83333333333331</ele><time>2026-04-04T09:43:21Z</time></trkpt><trkpt lat="43.42584006578495" lon="10.876780959708405"><ele>157.66666666666666</ele><time>2026-04-04T09:43:22Z</time></trkpt><trkpt lat="43.42594207357825" lon="10.876844400500755"><ele>157.5</ele><time>2026-04-04T09:43:24Z</time></trkpt><trkpt lat="43.42605136297918" lon="10.876925884580693"><ele>157.33333333333334</ele><time>2026-04-04T09:43:26Z</time></trkpt><trkpt lat="43.426110464245205" lon="10.87696404455556"><ele>157.16666666666669</ele><time>2026-04-04T09:43:27Z</time></trkpt><trkpt lat="43.42617277160281" lon="10.87700385663154"><ele>157.0</ele><time>2026-04-04T09:43:28Z</time></trkpt><trkpt lat="43.426235637154555" lon="10.877046945649223"><ele>157.0</ele><time>2026-04-04T09:43:29Z</time></trkpt><trkpt lat="43.426304529105494" lon="10.877100319732255"><ele>157.0</ele><time>2026-04-04T09:43:30Z</time></trkpt><trkpt lat="43.42638413140037" lon="10.877157751463983"><ele>157.0</ele><time>2026-04-04T09:43:31Z</time></trkpt><trkpt lat="43.42646713241242" lon="10.877217951561422"><ele>157.0</ele><time>2026-04-04T09:43:32Z</time></trkpt><trkpt lat="43.42656211947829" lon="10.87728329958729"><ele>157.0</ele><time>2026-04-04T09:43:33Z</time></trkpt><trkpt lat="43.42665339515623" lon="10.877349664840011"><ele>155.79999999999998</ele><time>2026-04-04T09:43:34Z</time></trkpt><trkpt lat="43.42673588162278" lon="10.877409723850212"><ele>154.6</ele><time>2026-04-04T09:43:35Z</time></trkpt><trkpt lat="43.42682119713883" lon="10.877472742036032"><ele>153.39999999999998</ele><time>2026-04-04T09:43:36Z</time></trkpt><trkpt lat="43.426905055146996" lon="10.877534687053688"><ele>152.2</ele><time>2026-04-04T09:43:37Z</time></trkpt><trkpt lat="43.426986399363315" lon="10.877592109128797"><ele>151.0</ele><time>2026-04-04T09:43:38Z</time></trkpt><trkpt lat="43.427056621341706" lon="10.877639527342266"><ele>151.00000000000003</ele><time>2026-04-04T09:43:39Z</time></trkpt><trkpt lat="43.42711567098829" lon="10.877678555334548"><ele>151.0</ele><time>2026-04-04T09:43:40Z</time></trkpt><trkpt lat="43.42717334867031" lon="10.877721524806962"><ele>151.0</ele><time>2026-04-04T09:43:41Z</time></trkpt><trkpt lat="43.42723007557151" lon="10.877764405989163"><ele>151.0</ele><time>2026-04-04T09:43:42Z</time></trkpt><trkpt lat="43.42728550249013" lon="10.877808504167751"><ele>151.0</ele><time>2026-04-04T09:43:43Z</time></trkpt><trkpt lat="43.42734090781928" lon="10.877854175290722"><ele>151.00000000000003</ele><time>2026-04-04T09:43:44Z</time></trkpt><trkpt lat="43.427401230311226" lon="10.87789793479395"><ele>151.0</ele><time>2026-04-04T09:43:45Z</time></trkpt><trkpt lat="43.4274637926975" lon="10.877951588306702"><ele>150.83333333333334</ele><time>2026-04-04T09:43:46Z</time></trkpt><trkpt lat="43.427531037908764" lon="10.878008774640994"><ele>150.66666666666669</ele><time>2026-04-04T09:43:47Z</time></trkpt><trkpt lat="43.42759846972413" lon="10.878068377646525"><ele>150.5</ele><time>2026-04-04T09:43:48Z</time></trkpt><trkpt lat="43.42766270555199" lon="10.878132418541034"><ele>150.33333333333334</ele><time>2026-04-04T09:43:49Z</time></trkpt><trkpt lat="43.427721096840024" lon="10.878210315268161"><ele>150.16666666666666</ele><time>2026-04-04T09:43:50Z</time></trkpt><trkpt lat="43.42777525784325" lon="10.878310985098976"><ele>150.0</ele><time>2026-04-04T09:43:51Z</time></trkpt><trkpt lat="43.42782003869144" lon="10.878417883973144"><ele>150.0</ele><time>2026-04-04T09:43:52Z</time></trkpt><trkpt lat="43.427857642103135" lon="10.878536777234308"><ele>150.0</ele><time>2026-04-04T09:43:53Z</time></trkpt><trkpt lat="43.427893554001535" lon="10.878655541744289"><ele>150.0</ele><time>2026-04-04T09:43:54Z</time></trkpt><trkpt lat="43.42792749078221" lon="10.87877678163904"><ele>150.0</ele><time>2026-04-04T09:43:55Z</time></trkpt><trkpt lat="43.42796440097644" lon="10.878900692483185"><ele>150.0</ele><time>2026-04-04T09:43:56Z</time></trkpt><trkpt lat="43.428004762143225" lon="10.879024838797237"><ele>150.0</ele><time>2026-04-04T09:43:57Z</time></trkpt><trkpt lat="43.428045467792145" lon="10.879148787291745"><ele>150.0</ele><time>2026-04-04T09:43:58Z</time></trkpt><trkpt lat="43.42808724951661" lon="10.879277504614882"><ele>150.0</ele><time>2026-04-04T09:43:59Z</time></trkpt><trkpt lat="43.42812671219595" lon="10.87941063862136"><ele>150.0</ele><time>2026-04-04T09:44:00Z</time></trkpt><trkpt lat="43.42816741705166" lon="10.879549079630289"><ele>150.0</ele><time>2026-04-04T09:44:01Z</time></trkpt><trkpt lat="43.42820999413121" lon="10.879695705034443"><ele>150.75</ele><time>2026-04-04T09:44:02Z</time></trkpt><trkpt lat="43.42825625397244" lon="10.879851914718154"><ele>151.5</ele><time>2026-04-04T09:44:03Z</time></trkpt><trkpt lat="43.42830102116498" lon="10.880008650553242"><ele>152.25</ele><time>2026-04-04T09:44:04Z</time></trkpt><trkpt lat="43.4283439744081" lon="10.88015713143404"><ele>153.0</ele><time>2026-04-04T09:44:05Z</time></trkpt><trkpt lat="43.428387842300125" lon="10.880313204448857"><ele>154.5</ele><time>2026-04-04T09:44:06Z</time></trkpt><trkpt lat="43.42843183892641" lon="10.880475190936487"><ele>156.0</ele><time>2026-04-04T09:44:07Z</time></trkpt><trkpt lat="43.42847569027682" lon="10.880634352233539"><ele>157.5</ele><time>2026-04-04T09:44:08Z</time></trkpt><trkpt lat="43.428521871166325" lon="10.88079275775537"><ele>159.0</ele><time>2026-04-04T09:44:09Z</time></trkpt><trkpt lat="43.42856770365684" lon="10.880953205630854"><ele>160.5</ele><time>2026-04-04T09:44:10Z</time></trkpt><trkpt lat="43.4286113446629" lon="10.881116872800751"><ele>162.0</ele><time>2026-04-04T09:44:11Z</time></trkpt><trkpt lat="43.428654960560095" lon="10.881282605668234"><ele>163.5</ele><time>2026-04-04T09:44:12Z</time></trkpt><trkpt lat="43.42870199944736" lon="10.88145442406228"><ele>165.0</ele><time>2026-04-04T09:44:13Z</time></trkpt><trkpt lat="43.42874745276459" lon="10.881621331768828"><ele>165.5</ele><time>2026-04-04T09:44:14Z</time></trkpt><trkpt lat="43.42879088784406" lon="10.881782583413306"><ele>166.0</ele><time>2026-04-04T09:44:15Z</time></trkpt><trkpt lat="43.42883684145095" lon="10.881949623916366"><ele>166.5</ele><time>2026-04-04T09:44:16Z</time></trkpt><trkpt lat="43.42888296812911" lon="10.882117846440005"><ele>167.0</ele><time>2026-04-04T09:44:17Z</time></trkpt><trkpt lat="43.428931673503996" lon="10.882286643917006"><ele>165.0</ele><time>2026-04-04T09:44:18Z</time></trkpt><trkpt lat="43.42897739113478" lon="10.882462019143045"><ele>163.0</ele><time>2026-04-04T09:44:19Z</time></trkpt><trkpt lat="43.42902690014112" lon="10.882644072689233"><ele>161.0</ele><time>2026-04-04T09:44:20Z</time></trkpt><trkpt lat="43.42908302680831" lon="10.882840826690321"><ele>159.0</ele><time>2026-04-04T09:44:21Z</time></trkpt><trkpt lat="43.42914323285567" lon="10.88305128442693"><ele>159.0</ele><time>2026-04-04T09:44:22.001Z</time></trkpt><trkpt lat="43.429207656703774" lon="10.88327963703632"><ele>159.0</ele><time>2026-04-04T09:44:23.001Z</time></trkpt><trkpt lat="43.429267360013206" lon="10.883498262444009"><ele>159.0</ele><time>2026-04-04T09:44:24.001Z</time></trkpt><trkpt lat="43.42932338428893" lon="10.883702009213959"><ele>161.0</ele><time>2026-04-04T09:44:25.001Z</time></trkpt><trkpt lat="43.42938155797428" lon="10.883904833517883"><ele>163.0</ele><time>2026-04-04T09:44:26.001Z</time></trkpt><trkpt lat="43.429437419735564" lon="10.884103081736077"><ele>165.0</ele><time>2026-04-04T09:44:27.001Z</time></trkpt><trkpt lat="43.429494153852495" lon="10.884301885053103"><ele>167.0</ele><time>2026-04-04T09:44:28.001Z</time></trkpt><trkpt lat="43.42954867772943" lon="10.884498659995717"><ele>169.0</ele><time>2026-04-04T09:44:29.001Z</time></trkpt><trkpt lat="43.429602601368586" lon="10.884689619000879"><ele>171.0</ele><time>2026-04-04T09:44:30.001Z</time></trkpt><trkpt lat="43.429656514315475" lon="10.884888795666088"><ele>168.5</ele><time>2026-04-04T09:44:31.001Z</time></trkpt><trkpt lat="43.42971033881108" lon="10.885082305318312"><ele>166.0</ele><time>2026-04-04T09:44:32.001Z</time></trkpt><trkpt lat="43.429756982962644" lon="10.885254172745542"><ele>163.5</ele><time>2026-04-04T09:44:33.001Z</time></trkpt><trkpt lat="43.42979295934742" lon="10.885415224257883"><ele>161.0</ele><time>2026-04-04T09:44:34.001Z</time></trkpt><trkpt lat="43.429807831792104" lon="10.885582605638309"><ele>161.0</ele><time>2026-04-04T09:44:35.001Z</time></trkpt><trkpt lat="43.429802903161345" lon="10.885759002598386"><ele>161.0</ele><time>2026-04-04T09:44:36.001Z</time></trkpt><trkpt lat="43.429780577066595" lon="10.885958381512195"><ele>161.0</ele><time>2026-04-04T09:44:37.001Z</time></trkpt><trkpt lat="43.42974214470091" lon="10.886179263741266"><ele>161.0</ele><time>2026-04-04T09:44:38.001Z</time></trkpt><trkpt lat="43.429696110157565" lon="10.886398124459841"><ele>161.25</ele><time>2026-04-04T09:44:39.001Z</time></trkpt><trkpt lat="43.429653982333306" lon="10.886584844540211"><ele>161.5</ele><time>2026-04-04T09:44:40Z</time></trkpt><trkpt lat="43.429627807501284" lon="10.886750802610827"><ele>161.75</ele><time>2026-04-04T09:44:41Z</time></trkpt><trkpt lat="43.42961259109518" lon="10.886907099692682"><ele>162.0</ele><time>2026-04-04T09:44:42Z</time></trkpt><trkpt lat="43.42959826778013" lon="10.887056396634675"><ele>162.16666666666666</ele><time>2026-04-04T09:44:43Z</time></trkpt><trkpt lat="43.42959129864233" lon="10.887189972669848"><ele>162.33333333333334</ele><time>2026-04-04T09:44:44Z</time></trkpt><trkpt lat="43.42959817671927" lon="10.887299551578712"><ele>162.5</ele><time>2026-04-04T09:44:45Z</time></trkpt><trkpt lat="43.4296196930505" lon="10.887405107715677"><ele>162.66666666666669</ele><time>2026-04-04T09:44:46Z</time></trkpt><trkpt lat="43.42965464395802" lon="10.887502332138828"><ele>162.83333333333334</ele><time>2026-04-04T09:44:47Z</time></trkpt><trkpt lat="43.42970480712824" lon="10.887608491233577"><ele>163.0</ele><time>2026-04-04T09:44:48Z</time></trkpt><trkpt lat="43.42976776040744" lon="10.88769732186495"><ele>165.25</ele><time>2026-04-04T09:44:49Z</time></trkpt><trkpt lat="43.429840773470595" lon="10.887789201304654"><ele>167.5</ele><time>2026-04-04T09:44:50Z</time></trkpt><trkpt lat="43.4299339909812" lon="10.887882796783174"><ele>169.75</ele><time>2026-04-04T09:44:51Z</time></trkpt><trkpt lat="43.43003607454988" lon="10.887969399579411"><ele>172.0</ele><time>2026-04-04T09:44:52Z</time></trkpt><trkpt lat="43.430136338222155" lon="10.888049482549842"><ele>172.0</ele><time>2026-04-04T09:44:53Z</time></trkpt><trkpt lat="43.4302337146677" lon="10.888125193707491"><ele>172.0</ele><time>2026-04-04T09:44:54Z</time></trkpt><trkpt lat="43.43033388198128" lon="10.888201014849473"><ele>172.0</ele><time>2026-04-04T09:44:55Z</time></trkpt><trkpt lat="43.430437922929194" lon="10.888283864376438"><ele>172.0</ele><time>2026-04-04T09:44:56Z</time></trkpt><trkpt lat="43.430539665728666" lon="10.888369635253264"><ele>171.5</ele><time>2026-04-04T09:44:57Z</time></trkpt><trkpt lat="43.43064395359605" lon="10.888462931407973"><ele>171.0</ele><time>2026-04-04T09:44:58Z</time></trkpt><trkpt lat="43.43076054878334" lon="10.888560812822922"><ele>170.5</ele><time>2026-04-04T09:44:59Z</time></trkpt><trkpt lat="43.43088237234564" lon="10.888658152754287"><ele>170.0</ele><time>2026-04-04T09:45:00Z</time></trkpt><trkpt lat="43.43100758227433" lon="10.88875446014777"><ele>170.0</ele><time>2026-04-04T09:45:01Z</time></trkpt><trkpt lat="43.4311322800384" lon="10.88885455795501"><ele>170.0</ele><time>2026-04-04T09:45:02Z</time></trkpt><trkpt lat="43.43125133609262" lon="10.888965358883254"><ele>170.0</ele><time>2026-04-04T09:45:03Z</time></trkpt><trkpt lat="43.43136389249779" lon="10.889097611224749"><ele>170.0</ele><time>2026-04-04T09:45:04Z</time></trkpt><trkpt lat="43.43146086191245" lon="10.88924651970746"><ele>170.0</ele><time>2026-04-04T09:45:05Z</time></trkpt><trkpt lat="43.43154200918526" lon="10.889413921726328"><ele>170.0</ele><time>2026-04-04T09:45:06Z</time></trkpt><trkpt lat="43.43160932009066" lon="10.88960491337978"><ele>170.0</ele><time>2026-04-04T09:45:07Z</time></trkpt><trkpt lat="43.43165532198444" lon="10.889820321573675"><ele>170.0</ele><time>2026-04-04T09:45:08Z</time></trkpt><trkpt lat="43.431695447278045" lon="10.890071218450231"><ele>170.0</ele><time>2026-04-04T09:45:09Z</time></trkpt><trkpt lat="43.43173331706504" lon="10.890348282677246"><ele>170.0</ele><time>2026-04-04T09:45:10Z</time></trkpt><trkpt lat="43.43177470568144" lon="10.89061274278643"><ele>170.66666666666666</ele><time>2026-04-04T09:45:11Z</time></trkpt><trkpt lat="43.431799947799114" lon="10.890840341089856"><ele>171.33333333333334</ele><time>2026-04-04T09:45:12Z</time></trkpt><trkpt lat="43.43181192064268" lon="10.891045626463214"><ele>172.0</ele><time>2026-04-04T09:45:13Z</time></trkpt><trkpt lat="43.431813977614695" lon="10.891244909092562"><ele>172.75</ele><time>2026-04-04T09:45:14Z</time></trkpt><trkpt lat="43.431800042209645" lon="10.8914414141115"><ele>173.5</ele><time>2026-04-04T09:45:15Z</time></trkpt><trkpt lat="43.43177863455487" lon="10.891644670914742"><ele>174.25</ele><time>2026-04-04T09:45:16Z</time></trkpt><trkpt lat="43.43175550723726" lon="10.891846803856502"><ele>175.0</ele><time>2026-04-04T09:45:17Z</time></trkpt><trkpt lat="43.431741962243954" lon="10.892046553635684"><ele>175.5</ele><time>2026-04-04T09:45:18Z</time></trkpt><trkpt lat="43.431738345255035" lon="10.892230264554154"><ele>176.0</ele><time>2026-04-04T09:45:19Z</time></trkpt><trkpt lat="43.43174451547885" lon="10.89239686799304"><ele>176.5</ele><time>2026-04-04T09:45:20Z</time></trkpt><trkpt lat="43.43175802514252" lon="10.89254466613202"><ele>177.0</ele><time>2026-04-04T09:45:21Z</time></trkpt><trkpt lat="43.4317756280538" lon="10.892669441360392"><ele>177.16666666666666</ele><time>2026-04-04T09:45:22Z</time></trkpt><trkpt lat="43.43179740253663" lon="10.892775286661001"><ele>177.33333333333334</ele><time>2026-04-04T09:45:23Z</time></trkpt><trkpt lat="43.43185195413501" lon="10.892909991733438"><ele>177.5</ele><time>2026-04-04T09:45:25Z</time></trkpt><trkpt lat="43.4319146328366" lon="10.8929580314092"><ele>177.66666666666669</ele><time>2026-04-04T09:45:29Z</time></trkpt><trkpt lat="43.431985062126714" lon="10.892965253722624"><ele>177.83333333333334</ele><time>2026-04-04T09:45:35Z</time></trkpt><trkpt lat="43.43204946676698" lon="10.892946778407254"><ele>178.0</ele><time>2026-04-04T09:45:39Z</time></trkpt><trkpt lat="43.432124802090854" lon="10.892926861688155"><ele>177.0</ele><time>2026-04-04T09:45:42Z</time></trkpt><trkpt lat="43.43224200370901" lon="10.892879326303051"><ele>176.0</ele><time>2026-04-04T09:45:44Z</time></trkpt><trkpt lat="43.43231145706001" lon="10.892847903033342"><ele>175.0</ele><time>2026-04-04T09:45:45Z</time></trkpt><trkpt lat="43.432434617566415" lon="10.892845394581947"><ele>174.0</ele><time>2026-04-04T09:45:47Z</time></trkpt><trkpt lat="43.432503280752286" lon="10.892824949260316"><ele>173.0</ele><time>2026-04-04T09:45:48Z</time></trkpt><trkpt lat="43.43257199640149" lon="10.892806549389368"><ele>173.0</ele><time>2026-04-04T09:45:49Z</time></trkpt><trkpt lat="43.43264701562613" lon="10.892782960187192"><ele>173.0</ele><time>2026-04-04T09:45:50Z</time></trkpt><trkpt lat="43.432723143124484" lon="10.892760169837793"><ele>173.0</ele><time>2026-04-04T09:45:51Z</time></trkpt><trkpt lat="43.432794295202896" lon="10.89273168399673"><ele>173.0</ele><time>2026-04-04T09:45:52Z</time></trkpt><trkpt lat="43.43287298813717" lon="10.892707859766658"><ele>173.0</ele><time>2026-04-04T09:45:53Z</time></trkpt><trkpt lat="43.432958686588556" lon="10.89268195329797"><ele>173.0</ele><time>2026-04-04T09:45:54Z</time></trkpt><trkpt lat="43.4330420640655" lon="10.892662376214343"><ele>173.7142857142857</ele><time>2026-04-04T09:45:55Z</time></trkpt><trkpt lat="43.4331168947441" lon="10.892651857169554"><ele>174.42857142857144</ele><time>2026-04-04T09:45:56Z</time></trkpt><trkpt lat="43.43318701888141" lon="10.892656710209032"><ele>175.14285714285714</ele><time>2026-04-04T09:45:57Z</time></trkpt><trkpt lat="43.433257424225864" lon="10.892681377661196"><ele>175.85714285714283</ele><time>2026-04-04T09:45:58Z</time></trkpt><trkpt lat="43.433323799653984" lon="10.892727476896958"><ele>176.57142857142856</ele><time>2026-04-04T09:45:59Z</time></trkpt><trkpt lat="43.43338111662648" lon="10.892788417557274"><ele>177.28571428571428</ele><time>2026-04-04T09:46:00Z</time></trkpt><trkpt lat="43.433438854436" lon="10.892857821279312"><ele>178.0</ele><time>2026-04-04T09:46:01Z</time></trkpt><trkpt lat="43.433500999955896" lon="10.892930683071146"><ele>178.0</ele><time>2026-04-04T09:46:02Z</time></trkpt><trkpt lat="43.43356692812032" lon="10.892988731838644"><ele>178.0</ele><time>2026-04-04T09:46:03Z</time></trkpt><trkpt lat="43.43363770032295" lon="10.893049946034845"><ele>178.0</ele><time>2026-04-04T09:46:04Z</time></trkpt><trkpt lat="43.4337041533993" lon="10.89311034300818"><ele>178.0</ele><time>2026-04-04T09:46:05Z</time></trkpt><trkpt lat="43.43377190542277" lon="10.893169104662622"><ele>178.0</ele><time>2026-04-04T09:46:06Z</time></trkpt><trkpt lat="43.433843503515455" lon="10.893222901418294"><ele>178.0</ele><time>2026-04-04T09:46:07Z</time></trkpt><trkpt lat="43.43392288610203" lon="10.893275024598669"><ele>178.5</ele><time>2026-04-04T09:46:08Z</time></trkpt><trkpt lat="43.43401355139174" lon="10.893327088967522"><ele>179.0</ele><time>2026-04-04T09:46:09Z</time></trkpt><trkpt lat="43.43410366180525" lon="10.893384609236989"><ele>179.5</ele><time>2026-04-04T09:46:10Z</time></trkpt><trkpt lat="43.43417684280952" lon="10.89344864848493"><ele>180.0</ele><time>2026-04-04T09:46:11Z</time></trkpt><trkpt lat="43.43424246820645" lon="10.893511403745427"><ele>180.5</ele><time>2026-04-04T09:46:12Z</time></trkpt><trkpt lat="43.43430873911697" lon="10.893585483830048"><ele>181.0</ele><time>2026-04-04T09:46:13Z</time></trkpt><trkpt lat="43.434374856848606" lon="10.89366969726629"><ele>181.0</ele><time>2026-04-04T09:46:14Z</time></trkpt><trkpt lat="43.434428829994275" lon="10.893753085921654"><ele>181.0</ele><time>2026-04-04T09:46:15Z</time></trkpt><trkpt lat="43.43447605068394" lon="10.893837090754356"><ele>181.0</ele><time>2026-04-04T09:46:16Z</time></trkpt><trkpt lat="43.43454759868806" lon="10.893927278828148"><ele>181.0</ele><time>2026-04-04T09:46:18Z</time></trkpt><trkpt lat="43.43462517832925" lon="10.893968053234524"><ele>181.0</ele><time>2026-04-04T09:46:20Z</time></trkpt><trkpt lat="43.43469523003281" lon="10.893925882400843"><ele>181.0</ele><time>2026-04-04T09:46:22Z</time></trkpt><trkpt lat="43.434728331429795" lon="10.893810306578116"><ele>183.33333333333334</ele><time>2026-04-04T09:46:24Z</time></trkpt><trkpt lat="43.43470985711923" lon="10.893668098939985"><ele>185.66666666666669</ele><time>2026-04-04T09:46:26Z</time></trkpt><trkpt lat="43.434696466210056" lon="10.89357566017643"><ele>188.0</ele><time>2026-04-04T09:46:27Z</time></trkpt><trkpt lat="43.43468410390847" lon="10.89347456303663"><ele>190.33333333333334</ele><time>2026-04-04T09:46:28Z</time></trkpt><trkpt lat="43.434677368880564" lon="10.893367950493431"><ele>192.66666666666666</ele><time>2026-04-04T09:46:29Z</time></trkpt><trkpt lat="43.434670955869834" lon="10.893265677082034"><ele>195.0</ele><time>2026-04-04T09:46:30Z</time></trkpt><trkpt lat="43.43466959628129" lon="10.89315667698932"><ele>195.33333333333334</ele><time>2026-04-04T09:46:31Z</time></trkpt><trkpt lat="43.43467178944374" lon="10.893043792689538"><ele>195.66666666666669</ele><time>2026-04-04T09:46:32Z</time></trkpt><trkpt lat="43.43466354414458" lon="10.892924658087788"><ele>196.0</ele><time>2026-04-04T09:46:33Z</time></trkpt><trkpt lat="43.43464036132138" lon="10.892809954187504"><ele>196.33333333333334</ele><time>2026-04-04T09:46:34Z</time></trkpt><trkpt lat="43.43460129317972" lon="10.8927035878487"><ele>196.66666666666669</ele><time>2026-04-04T09:46:35Z</time></trkpt><trkpt lat="43.43455831272165" lon="10.892613769107154"><ele>197.0</ele><time>2026-04-04T09:46:36Z</time></trkpt><trkpt lat="43.434520585814525" lon="10.892517964271956"><ele>197.00000000000003</ele><time>2026-04-04T09:46:37Z</time></trkpt><trkpt lat="43.434477261771974" lon="10.892403441710806"><ele>197.0</ele><time>2026-04-04T09:46:38Z</time></trkpt><trkpt lat="43.434442479710015" lon="10.892294255970496"><ele>197.0</ele><time>2026-04-04T09:46:39Z</time></trkpt><trkpt lat="43.43441443421432" lon="10.89218824102284"><ele>197.0</ele><time>2026-04-04T09:46:40Z</time></trkpt><trkpt lat="43.4344016102379" lon="10.89208846468665"><ele>197.00000000000003</ele><time>2026-04-04T09:46:41Z</time></trkpt><trkpt lat="43.43440373580501" lon="10.891986103446158"><ele>197.0</ele><time>2026-04-04T09:46:42Z</time></trkpt><trkpt lat="43.43441725678306" lon="10.891884774537639"><ele>197.0</ele><time>2026-04-04T09:46:43Z</time></trkpt><trkpt lat="43.43443952404708" lon="10.891782020539996"><ele>197.0</ele><time>2026-04-04T09:46:44Z</time></trkpt><trkpt lat="43.43447417133099" lon="10.891691256743467"><ele>197.0</ele><time>2026-04-04T09:46:45Z</time></trkpt><trkpt lat="43.434548242741414" lon="10.89157460343718"><ele>197.0</ele><time>2026-04-04T09:46:47Z</time></trkpt><trkpt lat="43.43464076903171" lon="10.89154049594058"><ele>197.0</ele><time>2026-04-04T09:46:49Z</time></trkpt><trkpt lat="43.43473235679917" lon="10.89160604764438"><ele>199.33333333333334</ele><time>2026-04-04T09:46:51Z</time></trkpt><trkpt lat="43.434788190915704" lon="10.89175762499357"><ele>201.66666666666669</ele><time>2026-04-04T09:46:53Z</time></trkpt><trkpt lat="43.434802960827774" lon="10.891857601186736"><ele>204.0</ele><time>2026-04-04T09:46:54Z</time></trkpt><trkpt lat="43.43482448643175" lon="10.89196031134205"><ele>206.33333333333331</ele><time>2026-04-04T09:46:55Z</time></trkpt><trkpt lat="43.43485581879103" lon="10.892054916278173"><ele>208.66666666666666</ele><time>2026-04-04T09:46:56Z</time></trkpt><trkpt lat="43.43489586153659" lon="10.892137937398582"><ele>211.0</ele><time>2026-04-04T09:46:57Z</time></trkpt><trkpt lat="43.43494377276409" lon="10.892215176961875"><ele>210.99999999999997</ele><time>2026-04-04T09:46:58Z</time></trkpt><trkpt lat="43.43500199546438" lon="10.892287862846116"><ele>211.0</ele><time>2026-04-04T09:46:59Z</time></trkpt><trkpt lat="43.435068529947046" lon="10.892360545165587"><ele>211.0</ele><time>2026-04-04T09:47:00Z</time></trkpt><trkpt lat="43.43514256274065" lon="10.892441111467166"><ele>211.0</ele><time>2026-04-04T09:47:01Z</time></trkpt><trkpt lat="43.43521148376187" lon="10.892518757277283"><ele>210.99999999999997</ele><time>2026-04-04T09:47:02Z</time></trkpt><trkpt lat="43.435281085272614" lon="10.892591913552831"><ele>211.0</ele><time>2026-04-04T09:47:03Z</time></trkpt><trkpt lat="43.43534556419477" lon="10.892669989362869"><ele>209.8</ele><time>2026-04-04T09:47:04Z</time></trkpt><trkpt lat="43.43540452039031" lon="10.89274967836087"><ele>208.60000000000002</ele><time>2026-04-04T09:47:05Z</time></trkpt><trkpt lat="43.43547319994567" lon="10.8928501566793"><ele>207.4</ele><time>2026-04-04T09:47:06Z</time></trkpt><trkpt lat="43.4355503396033" lon="10.892956819930985"><ele>206.2</ele><time>2026-04-04T09:47:07Z</time></trkpt><trkpt lat="43.43563060457354" lon="10.893067927323175"><ele>205.0</ele><time>2026-04-04T09:47:08Z</time></trkpt><trkpt lat="43.435707276712606" lon="10.893177098914677"><ele>206.2</ele><time>2026-04-04T09:47:09Z</time></trkpt><trkpt lat="43.435777936934635" lon="10.893288660379575"><ele>207.4</ele><time>2026-04-04T09:47:10Z</time></trkpt><trkpt lat="43.43584581698551" lon="10.893395558653076"><ele>208.60000000000002</ele><time>2026-04-04T09:47:11Z</time></trkpt><trkpt lat="43.43590656575264" lon="10.893487248037799"><ele>209.8</ele><time>2026-04-04T09:47:12Z</time></trkpt><trkpt lat="43.435961444364956" lon="10.89356347419287"><ele>211.0</ele><time>2026-04-04T09:47:13Z</time></trkpt><trkpt lat="43.43601434740452" lon="10.893631499197761"><ele>211.0</ele><time>2026-04-04T09:47:14Z</time></trkpt><trkpt lat="43.43607684736743" lon="10.89369494346332"><ele>211.0</ele><time>2026-04-04T09:47:15Z</time></trkpt><trkpt lat="43.43614348903621" lon="10.893743581227376"><ele>211.0</ele><time>2026-04-04T09:47:16Z</time></trkpt><trkpt lat="43.43622498202249" lon="10.893783083479057"><ele>211.0</ele><time>2026-04-04T09:47:17Z</time></trkpt><trkpt lat="43.43632674099419" lon="10.893819572938762"><ele>211.0</ele><time>2026-04-04T09:47:18Z</time></trkpt><trkpt lat="43.43644388009326" lon="10.893856621189572"><ele>212.4</ele><time>2026-04-04T09:47:19Z</time></trkpt><trkpt lat="43.436555638373704" lon="10.893879606168555"><ele>213.8</ele><time>2026-04-04T09:47:20Z</time></trkpt><trkpt lat="43.43666250793109" lon="10.893898454065756"><ele>215.20000000000002</ele><time>2026-04-04T09:47:21Z</time></trkpt><trkpt lat="43.43676673789788" lon="10.893926809137048"><ele>216.60000000000002</ele><time>2026-04-04T09:47:22Z</time></trkpt><trkpt lat="43.436865185946615" lon="10.89396278707078"><ele>218.0</ele><time>2026-04-04T09:47:23Z</time></trkpt><trkpt lat="43.43696139317836" lon="10.894006767465235"><ele>218.0</ele><time>2026-04-04T09:47:24Z</time></trkpt><trkpt lat="43.4370473460358" lon="10.894063138668342"><ele>218.0</ele><time>2026-04-04T09:47:25Z</time></trkpt><trkpt lat="43.43713556997343" lon="10.894133816018005"><ele>218.0</ele><time>2026-04-04T09:47:26Z</time></trkpt><trkpt lat="43.43722682560167" lon="10.894210502686846"><ele>218.0</ele><time>2026-04-04T09:47:27Z</time></trkpt><trkpt lat="43.437310476703786" lon="10.894298230628408"><ele>218.0</ele><time>2026-04-04T09:47:28Z</time></trkpt><trkpt lat="43.437386692219185" lon="10.894392949764205"><ele>219.8</ele><time>2026-04-04T09:47:29Z</time></trkpt><trkpt lat="43.43745607722684" lon="10.894486768206876"><ele>221.60000000000002</ele><time>2026-04-04T09:47:30Z</time></trkpt><trkpt lat="43.43752161161311" lon="10.89459389939871"><ele>223.39999999999998</ele><time>2026-04-04T09:47:31Z</time></trkpt><trkpt lat="43.43757876158963" lon="10.894711442817787"><ele>225.2</ele><time>2026-04-04T09:47:32Z</time></trkpt><trkpt lat="43.437630313786514" lon="10.894841620908556"><ele>227.0</ele><time>2026-04-04T09:47:33Z</time></trkpt><trkpt lat="43.437674925695255" lon="10.894970694461863"><ele>227.39999999999998</ele><time>2026-04-04T09:47:34Z</time></trkpt><trkpt lat="43.43771853088904" lon="10.89509181906981"><ele>227.79999999999998</ele><time>2026-04-04T09:47:35Z</time></trkpt><trkpt lat="43.43776522541772" lon="10.895205932043142"><ele>228.2</ele><time>2026-04-04T09:47:36Z</time></trkpt><trkpt lat="43.437810076173506" lon="10.895318552129481"><ele>228.6</ele><time>2026-04-04T09:47:37Z</time></trkpt><trkpt lat="43.437856113101404" lon="10.895423067526549"><ele>229.0</ele><time>2026-04-04T09:47:38Z</time></trkpt><trkpt lat="43.43790685992438" lon="10.895511392107855"><ele>228.99999999999997</ele><time>2026-04-04T09:47:39Z</time></trkpt><trkpt lat="43.437965160801326" lon="10.895588179434181"><ele>229.0</ele><time>2026-04-04T09:47:40Z</time></trkpt><trkpt lat="43.43803678245364" lon="10.895661024552105"><ele>229.0</ele><time>2026-04-04T09:47:41Z</time></trkpt><trkpt lat="43.438105424462215" lon="10.895724731895678"><ele>229.0</ele><time>2026-04-04T09:47:42Z</time></trkpt><trkpt lat="43.438162421516715" lon="10.895794217427564"><ele>228.99999999999997</ele><time>2026-04-04T09:47:43Z</time></trkpt><trkpt lat="43.43819301210758" lon="10.895877152488687"><ele>229.0</ele><time>2026-04-04T09:47:44Z</time></trkpt><trkpt lat="43.4382058702497" lon="10.895979336123078"><ele>229.6</ele><time>2026-04-04T09:47:45Z</time></trkpt><trkpt lat="43.43819790022818" lon="10.896091736528811"><ele>230.2</ele><time>2026-04-04T09:47:46Z</time></trkpt><trkpt lat="43.43818032850981" lon="10.896199800347256"><ele>230.79999999999998</ele><time>2026-04-04T09:47:47Z</time></trkpt><trkpt lat="43.438171528744505" lon="10.896329337095622"><ele>231.39999999999998</ele><time>2026-04-04T09:47:48Z</time></trkpt><trkpt lat="43.438190623773416" lon="10.896466641424176"><ele>232.0</ele><time>2026-04-04T09:47:49Z</time></trkpt><trkpt lat="43.43823318799039" lon="10.896612704558256"><ele>233.75</ele><time>2026-04-04T09:47:50Z</time></trkpt><trkpt lat="43.43827860310947" lon="10.896771641933356"><ele>235.5</ele><time>2026-04-04T09:47:51Z</time></trkpt><trkpt lat="43.43832029087894" lon="10.896931914047405"><ele>237.25</ele><time>2026-04-04T09:47:52Z</time></trkpt><trkpt lat="43.43834886501906" lon="10.89708893163874"><ele>239.0</ele><time>2026-04-04T09:47:53Z</time></trkpt><trkpt lat="43.43835685419553" lon="10.897233034494427"><ele>239.0</ele><time>2026-04-04T09:47:54Z</time></trkpt><trkpt lat="43.43835819626427" lon="10.89737847321041"><ele>238.99999999999997</ele><time>2026-04-04T09:47:55Z</time></trkpt><trkpt lat="43.43837219032385" lon="10.897509237245181"><ele>238.99999999999997</ele><time>2026-04-04T09:47:56Z</time></trkpt><trkpt lat="43.43840881041188" lon="10.897636735319114"><ele>239.0</ele><time>2026-04-04T09:47:57Z</time></trkpt><trkpt lat="43.43845860585477" lon="10.897751336467998"><ele>239.0</ele><time>2026-04-04T09:47:58Z</time></trkpt><trkpt lat="43.43851502549279" lon="10.897861830016755"><ele>240.6</ele><time>2026-04-04T09:47:59Z</time></trkpt><trkpt lat="43.43857504643877" lon="10.897958592770932"><ele>242.2</ele><time>2026-04-04T09:48:00Z</time></trkpt><trkpt lat="43.43863787039991" lon="10.898052623844025"><ele>243.79999999999998</ele><time>2026-04-04T09:48:01Z</time></trkpt><trkpt lat="43.43868473260788" lon="10.898153240910174"><ele>245.39999999999998</ele><time>2026-04-04T09:48:02Z</time></trkpt><trkpt lat="43.43871831293466" lon="10.898278344435067"><ele>247.0</ele><time>2026-04-04T09:48:03Z</time></trkpt><trkpt lat="43.438743991959015" lon="10.898419330431626"><ele>247.39999999999998</ele><time>2026-04-04T09:48:04Z</time></trkpt><trkpt lat="43.43876971422753" lon="10.898541667118328"><ele>247.79999999999998</ele><time>2026-04-04T09:48:05Z</time></trkpt><trkpt lat="43.43880976992166" lon="10.898647287296352"><ele>248.2</ele><time>2026-04-04T09:48:06Z</time></trkpt><trkpt lat="43.43886830208363" lon="10.898745012633425"><ele>248.6</ele><time>2026-04-04T09:48:07Z</time></trkpt><trkpt lat="43.438945518994075" lon="10.898849983526585"><ele>249.0</ele><time>2026-04-04T09:48:08Z</time></trkpt><trkpt lat="43.43902331472602" lon="10.898938638750172"><ele>249.39999999999998</ele><time>2026-04-04T09:48:09Z</time></trkpt><trkpt lat="43.43910391038152" lon="10.899029408614775"><ele>249.79999999999998</ele><time>2026-04-04T09:48:10Z</time></trkpt><trkpt lat="43.439183077104445" lon="10.899122987347601"><ele>250.20000000000002</ele><time>2026-04-04T09:48:11Z</time></trkpt><trkpt lat="43.43925710600539" lon="10.899214914934483"><ele>250.60000000000002</ele><time>2026-04-04T09:48:12Z</time></trkpt><trkpt lat="43.439323632484026" lon="10.899301442162907"><ele>251.0</ele><time>2026-04-04T09:48:13Z</time></trkpt><trkpt lat="43.43939442764075" lon="10.899368783766699"><ele>250.33333333333334</ele><time>2026-04-04T09:48:14Z</time></trkpt><trkpt lat="43.4394626091944" lon="10.899422774822753"><ele>249.66666666666669</ele><time>2026-04-04T09:48:15Z</time></trkpt><trkpt lat="43.43952418482156" lon="10.899478647487214"><ele>249.0</ele><time>2026-04-04T09:48:16Z</time></trkpt><trkpt lat="43.439580286650745" lon="10.899549998815356"><ele>248.33333333333331</ele><time>2026-04-04T09:48:17Z</time></trkpt><trkpt lat="43.43962041176914" lon="10.899640749313514"><ele>247.66666666666666</ele><time>2026-04-04T09:48:18Z</time></trkpt><trkpt lat="43.43965335018938" lon="10.899745879768593"><ele>247.0</ele><time>2026-04-04T09:48:19Z</time></trkpt><trkpt lat="43.43967925051978" lon="10.899854516031919"><ele>247.0</ele><time>2026-04-04T09:48:20Z</time></trkpt><trkpt lat="43.43969488067332" lon="10.899969368144093"><ele>247.0</ele><time>2026-04-04T09:48:21Z</time></trkpt><trkpt lat="43.439695147734966" lon="10.900096558140886"><ele>247.0</ele><time>2026-04-04T09:48:22Z</time></trkpt><trkpt lat="43.43968175836998" lon="10.900235193807832"><ele>247.0</ele><time>2026-04-04T09:48:23Z</time></trkpt><trkpt lat="43.43966598987489" lon="10.900380004010685"><ele>247.0</ele><time>2026-04-04T09:48:24Z</time></trkpt><trkpt lat="43.43965149477796" lon="10.900524241735969"><ele>247.0</ele><time>2026-04-04T09:48:25Z</time></trkpt><trkpt lat="43.43964224664995" lon="10.900664550805024"><ele>247.0</ele><time>2026-04-04T09:48:26Z</time></trkpt><trkpt lat="43.439641027822404" lon="10.90079674060253"><ele>247.0</ele><time>2026-04-04T09:48:27Z</time></trkpt><trkpt lat="43.439641457831044" lon="10.90092593357289"><ele>247.0</ele><time>2026-04-04T09:48:28Z</time></trkpt><trkpt lat="43.43964640862246" lon="10.901056253657066"><ele>247.0</ele><time>2026-04-04T09:48:29Z</time></trkpt><trkpt lat="43.4396677217377" lon="10.901182692822077"><ele>247.6</ele><time>2026-04-04T09:48:30Z</time></trkpt><trkpt lat="43.43970511660154" lon="10.901316733619103"><ele>248.2</ele><time>2026-04-04T09:48:31Z</time></trkpt><trkpt lat="43.4397591359501" lon="10.901441049688412"><ele>248.8</ele><time>2026-04-04T09:48:32Z</time></trkpt><trkpt lat="43.43982000108996" lon="10.901553041293557"><ele>249.4</ele><time>2026-04-04T09:48:33Z</time></trkpt><trkpt lat="43.439876209150725" lon="10.901650437030668"><ele>250.0</ele><time>2026-04-04T09:48:34Z</time></trkpt><trkpt lat="43.439929864792475" lon="10.901753070715822"><ele>250.66666666666666</ele><time>2026-04-04T09:48:35Z</time></trkpt><trkpt lat="43.43998028001071" lon="10.901848505843182"><ele>251.33333333333331</ele><time>2026-04-04T09:48:36Z</time></trkpt><trkpt lat="43.44003240815384" lon="10.901947817494142"><ele>252.0</ele><time>2026-04-04T09:48:37Z</time></trkpt><trkpt lat="43.44008183047357" lon="10.90203387500929"><ele>252.66666666666669</ele><time>2026-04-04T09:48:38Z</time></trkpt><trkpt lat="43.440135924782474" lon="10.902110564674052"><ele>253.33333333333334</ele><time>2026-04-04T09:48:39Z</time></trkpt><trkpt lat="43.44019877913828" lon="10.90219934783061"><ele>254.0</ele><time>2026-04-04T09:48:40Z</time></trkpt><trkpt lat="43.44027824916621" lon="10.902292132914782"><ele>254.0</ele><time>2026-04-04T09:48:41Z</time></trkpt><trkpt lat="43.44036641348428" lon="10.902375572273156"><ele>253.99999999999997</ele><time>2026-04-04T09:48:42Z</time></trkpt><trkpt lat="43.4404649278727" lon="10.902452339525844"><ele>253.99999999999997</ele><time>2026-04-04T09:48:43Z</time></trkpt><trkpt lat="43.440569276216856" lon="10.902520275975835"><ele>254.0</ele><time>2026-04-04T09:48:44Z</time></trkpt><trkpt lat="43.44067319220823" lon="10.902579688918909"><ele>254.0</ele><time>2026-04-04T09:48:45Z</time></trkpt><trkpt lat="43.44077089803703" lon="10.902623443407188"><ele>252.0</ele><time>2026-04-04T09:48:46Z</time></trkpt><trkpt lat="43.44087117748394" lon="10.902656620734602"><ele>249.99999999999997</ele><time>2026-04-04T09:48:47Z</time></trkpt><trkpt lat="43.44098947322455" lon="10.902684218657106"><ele>247.99999999999997</ele><time>2026-04-04T09:48:48Z</time></trkpt><trkpt lat="43.44110374135417" lon="10.902698258751238"><ele>246.0</ele><time>2026-04-04T09:48:49Z</time></trkpt><trkpt lat="43.44120712776292" lon="10.902697598348627"><ele>244.0</ele><time>2026-04-04T09:48:50Z</time></trkpt><trkpt lat="43.44131088888863" lon="10.902694701797877"><ele>244.0</ele><time>2026-04-04T09:48:51Z</time></trkpt><trkpt lat="43.44141647411943" lon="10.902699566249012"><ele>243.99999999999997</ele><time>2026-04-04T09:48:52Z</time></trkpt><trkpt lat="43.441513770078714" lon="10.902722111531297"><ele>243.99999999999997</ele><time>2026-04-04T09:48:53Z</time></trkpt><trkpt lat="43.44161572245882" lon="10.902752584122545"><ele>244.0</ele><time>2026-04-04T09:48:54Z</time></trkpt><trkpt lat="43.44172013546127" lon="10.902789302789447"><ele>244.0</ele><time>2026-04-04T09:48:55Z</time></trkpt><trkpt lat="43.44182803347484" lon="10.902836711668808"><ele>244.0</ele><time>2026-04-04T09:48:56Z</time></trkpt><trkpt lat="43.44193936735589" lon="10.902902893867127"><ele>244.0</ele><time>2026-04-04T09:48:57Z</time></trkpt><trkpt lat="43.44203502957488" lon="10.902976357089205"><ele>244.0</ele><time>2026-04-04T09:48:58Z</time></trkpt><trkpt lat="43.442139156981206" lon="10.90306950882181"><ele>244.0</ele><time>2026-04-04T09:48:59Z</time></trkpt><trkpt lat="43.44223595026277" lon="10.9031528736804"><ele>244.39999999999998</ele><time>2026-04-04T09:49:00Z</time></trkpt><trkpt lat="43.44232985511948" lon="10.903230135101868"><ele>244.79999999999998</ele><time>2026-04-04T09:49:01Z</time></trkpt><trkpt lat="43.44242487458911" lon="10.903315969515127"><ele>245.20000000000002</ele><time>2026-04-04T09:49:02Z</time></trkpt><trkpt lat="43.44251398740618" lon="10.903411376196095"><ele>245.60000000000002</ele><time>2026-04-04T09:49:03Z</time></trkpt><trkpt lat="43.44260071456376" lon="10.90349972056841"><ele>246.0</ele><time>2026-04-04T09:49:04Z</time></trkpt><trkpt lat="43.44269062832008" lon="10.90358529243372"><ele>245.8</ele><time>2026-04-04T09:49:05Z</time></trkpt><trkpt lat="43.44277814634835" lon="10.90366668205638"><ele>245.60000000000002</ele><time>2026-04-04T09:49:06Z</time></trkpt><trkpt lat="43.44286837667021" lon="10.903744560008757"><ele>245.4</ele><time>2026-04-04T09:49:07Z</time></trkpt><trkpt lat="43.4429657551794" lon="10.903823303058934"><ele>245.2</ele><time>2026-04-04T09:49:08Z</time></trkpt><trkpt lat="43.44306094158791" lon="10.903902867207586"><ele>245.0</ele><time>2026-04-04T09:49:09Z</time></trkpt><trkpt lat="43.44316245641956" lon="10.90398685787869"><ele>245.0</ele><time>2026-04-04T09:49:10Z</time></trkpt><trkpt lat="43.44326057291256" lon="10.90407690349445"><ele>245.0</ele><time>2026-04-04T09:49:11Z</time></trkpt><trkpt lat="43.443357436832315" lon="10.904170861416125"><ele>245.0</ele><time>2026-04-04T09:49:12Z</time></trkpt><trkpt lat="43.44345344517736" lon="10.904266884927901"><ele>245.0</ele><time>2026-04-04T09:49:13Z</time></trkpt><trkpt lat="43.44355220805354" lon="10.904357580987927"><ele>243.75</ele><time>2026-04-04T09:49:14Z</time></trkpt><trkpt lat="43.44365060774754" lon="10.904445864314544"><ele>242.5</ele><time>2026-04-04T09:49:15Z</time></trkpt><trkpt lat="43.44374470157247" lon="10.904530779055602"><ele>241.25</ele><time>2026-04-04T09:49:16Z</time></trkpt><trkpt lat="43.44383940910364" lon="10.904618246125409"><ele>240.0</ele><time>2026-04-04T09:49:17Z</time></trkpt><trkpt lat="43.44393808358377" lon="10.904706946075823"><ele>241.6</ele><time>2026-04-04T09:49:18Z</time></trkpt><trkpt lat="43.4440319622973" lon="10.904797797993819"><ele>243.2</ele><time>2026-04-04T09:49:19Z</time></trkpt><trkpt lat="43.44411119033351" lon="10.904877857203909"><ele>244.8</ele><time>2026-04-04T09:49:20Z</time></trkpt><trkpt lat="43.44418546196161" lon="10.904959281284288"><ele>246.4</ele><time>2026-04-04T09:49:21Z</time></trkpt><trkpt lat="43.444250061356065" lon="10.905043783947031"><ele>248.0</ele><time>2026-04-04T09:49:22Z</time></trkpt><trkpt lat="43.444306115160266" lon="10.90513690127573"><ele>248.0</ele><time>2026-04-04T09:49:23Z</time></trkpt><trkpt lat="43.44435939130156" lon="10.905242808063601"><ele>248.0</ele><time>2026-04-04T09:49:24Z</time></trkpt><trkpt lat="43.44441610792763" lon="10.905372065187203"><ele>248.0</ele><time>2026-04-04T09:49:25Z</time></trkpt><trkpt lat="43.444474470745575" lon="10.90550269920343"><ele>248.0</ele><time>2026-04-04T09:49:26Z</time></trkpt><trkpt lat="43.4445337615495" lon="10.905632876783779"><ele>248.0</ele><time>2026-04-04T09:49:27Z</time></trkpt><trkpt lat="43.44459296869218" lon="10.90575281934039"><ele>248.25</ele><time>2026-04-04T09:49:28Z</time></trkpt><trkpt lat="43.44466530105348" lon="10.905866149722069"><ele>248.5</ele><time>2026-04-04T09:49:29Z</time></trkpt><trkpt lat="43.44475312872156" lon="10.905984719333668"><ele>248.75</ele><time>2026-04-04T09:49:30Z</time></trkpt><trkpt lat="43.44484897329847" lon="10.906100882199048"><ele>249.0</ele><time>2026-04-04T09:49:31Z</time></trkpt><trkpt lat="43.44494241115698" lon="10.906211561882852"><ele>249.39999999999998</ele><time>2026-04-04T09:49:32Z</time></trkpt><trkpt lat="43.44502546111533" lon="10.906317145968009"><ele>249.79999999999998</ele><time>2026-04-04T09:49:33Z</time></trkpt><trkpt lat="43.44510066765901" lon="10.90642169634667"><ele>250.20000000000002</ele><time>2026-04-04T09:49:34Z</time></trkpt><trkpt lat="43.44517286057938" lon="10.906527452299242"><ele>250.60000000000002</ele><time>2026-04-04T09:49:35Z</time></trkpt><trkpt lat="43.445245706479" lon="10.90664158241655"><ele>251.0</ele><time>2026-04-04T09:49:36Z</time></trkpt><trkpt lat="43.445318877217815" lon="10.906763192111594"><ele>251.0</ele><time>2026-04-04T09:49:37Z</time></trkpt><trkpt lat="43.445391157022485" lon="10.906890817563108"><ele>251.0</ele><time>2026-04-04T09:49:38Z</time></trkpt><trkpt lat="43.445457505347136" lon="10.907014379489363"><ele>251.0</ele><time>2026-04-04T09:49:39Z</time></trkpt><trkpt lat="43.44552448215901" lon="10.907133535251239"><ele>251.0</ele><time>2026-04-04T09:49:40Z</time></trkpt><trkpt lat="43.44560258832334" lon="10.907264961437326"><ele>251.8</ele><time>2026-04-04T09:49:41Z</time></trkpt><trkpt lat="43.445676171207076" lon="10.907386300485417"><ele>252.60000000000002</ele><time>2026-04-04T09:49:42Z</time></trkpt><trkpt lat="43.445744506038196" lon="10.90749728118212"><ele>253.4</ele><time>2026-04-04T09:49:43Z</time></trkpt><trkpt lat="43.44581229050617" lon="10.90760891180677"><ele>254.2</ele><time>2026-04-04T09:49:44Z</time></trkpt><trkpt lat="43.44588223312369" lon="10.907734832134318"><ele>255.0</ele><time>2026-04-04T09:49:45Z</time></trkpt><trkpt lat="43.4459481795163" lon="10.907871115610282"><ele>255.5</ele><time>2026-04-04T09:49:46Z</time></trkpt><trkpt lat="43.446001370677074" lon="10.90800039563049"><ele>256.0</ele><time>2026-04-04T09:49:47Z</time></trkpt><trkpt lat="43.44604977990527" lon="10.9081537389812"><ele>256.5</ele><time>2026-04-04T09:49:48Z</time></trkpt><trkpt lat="43.446092306304585" lon="10.908314529818009"><ele>257.0</ele><time>2026-04-04T09:49:49Z</time></trkpt><trkpt lat="43.446132724031756" lon="10.908468037399096"><ele>257.2</ele><time>2026-04-04T09:49:50Z</time></trkpt><trkpt lat="43.44616044814998" lon="10.908611430575293"><ele>257.4</ele><time>2026-04-04T09:49:51Z</time></trkpt><trkpt lat="43.446193947796964" lon="10.908729436683634"><ele>257.6</ele><time>2026-04-04T09:49:52Z</time></trkpt><trkpt lat="43.44623853803119" lon="10.908856481399123"><ele>257.8</ele><time>2026-04-04T09:49:53Z</time></trkpt><trkpt lat="43.44629274962248" lon="10.908990443907657"><ele>258.0</ele><time>2026-04-04T09:49:54Z</time></trkpt><trkpt lat="43.446345569895065" lon="10.909118803743276"><ele>258.0</ele><time>2026-04-04T09:49:55Z</time></trkpt><trkpt lat="43.44639814313812" lon="10.909233902646093"><ele>258.0</ele><time>2026-04-04T09:49:56Z</time></trkpt><trkpt lat="43.44645713356221" lon="10.909329259472635"><ele>258.0</ele><time>2026-04-04T09:49:57Z</time></trkpt><trkpt lat="43.44652689479526" lon="10.909401313524457"><ele>258.0</ele><time>2026-04-04T09:49:58Z</time></trkpt><trkpt lat="43.446607556930914" lon="10.909453699338496"><ele>258.0</ele><time>2026-04-04T09:49:59Z</time></trkpt><trkpt lat="43.44670388132554" lon="10.909500127904696"><ele>258.75</ele><time>2026-04-04T09:50:00Z</time></trkpt><trkpt lat="43.44681174274612" lon="10.909539100932825"><ele>259.5</ele><time>2026-04-04T09:50:01Z</time></trkpt><trkpt lat="43.446932045675595" lon="10.909576405660879"><ele>260.25</ele><time>2026-04-04T09:50:02Z</time></trkpt><trkpt lat="43.44705755785866" lon="10.909624367406707"><ele>261.0</ele><time>2026-04-04T09:50:03Z</time></trkpt><trkpt lat="43.4471788980899" lon="10.909680738046232"><ele>262.5</ele><time>2026-04-04T09:50:04Z</time></trkpt><trkpt lat="43.44728693030275" lon="10.909739721360996"><ele>264.0</ele><time>2026-04-04T09:50:05Z</time></trkpt><trkpt lat="43.44740087092516" lon="10.909815337644524"><ele>265.5</ele><time>2026-04-04T09:50:06Z</time></trkpt><trkpt lat="43.44751750377533" lon="10.909894818642202"><ele>267.0</ele><time>2026-04-04T09:50:07Z</time></trkpt><trkpt lat="43.44763722234254" lon="10.909970512691945"><ele>267.0</ele><time>2026-04-04T09:50:08Z</time></trkpt><trkpt lat="43.447763280531134" lon="10.910039514556546"><ele>267.0</ele><time>2026-04-04T09:50:09Z</time></trkpt><trkpt lat="43.447891349207765" lon="10.910105105472661"><ele>267.0</ele><time>2026-04-04T09:50:10Z</time></trkpt><trkpt lat="43.448012140948755" lon="10.910174381058882"><ele>267.0</ele><time>2026-04-04T09:50:11Z</time></trkpt><trkpt lat="43.448114075871565" lon="10.910235892140024"><ele>268.25</ele><time>2026-04-04T09:50:12Z</time></trkpt><trkpt lat="43.44821179117299" lon="10.91029949190204"><ele>269.5</ele><time>2026-04-04T09:50:13Z</time></trkpt><trkpt lat="43.44831578226264" lon="10.9103808416207"><ele>270.75</ele><time>2026-04-04T09:50:14Z</time></trkpt><trkpt lat="43.44842019680727" lon="10.910473151696229"><ele>272.0</ele><time>2026-04-04T09:50:15Z</time></trkpt><trkpt lat="43.44852377134363" lon="10.910567524524335"><ele>272.0</ele><time>2026-04-04T09:50:16Z</time></trkpt><trkpt lat="43.448621417406144" lon="10.910648601584558"><ele>272.0</ele><time>2026-04-04T09:50:17Z</time></trkpt><trkpt lat="43.44872264057398" lon="10.910718500153232"><ele>272.0</ele><time>2026-04-04T09:50:18Z</time></trkpt><trkpt lat="43.448830974632436" lon="10.910778071043676"><ele>272.0</ele><time>2026-04-04T09:50:19Z</time></trkpt><trkpt lat="43.44894512224341" lon="10.910823582763976"><ele>272.25</ele><time>2026-04-04T09:50:20Z</time></trkpt><trkpt lat="43.44907235489869" lon="10.910862855060598"><ele>272.5</ele><time>2026-04-04T09:50:21Z</time></trkpt><trkpt lat="43.44919663218038" lon="10.910902545154169"><ele>272.75</ele><time>2026-04-04T09:50:22Z</time></trkpt><trkpt lat="43.44932632516191" lon="10.910954464895084"><ele>273.0</ele><time>2026-04-04T09:50:23Z</time></trkpt><trkpt lat="43.449451951355826" lon="10.91101285653841"><ele>273.0</ele><time>2026-04-04T09:50:24Z</time></trkpt><trkpt lat="43.449585523021355" lon="10.91108247675428"><ele>273.0</ele><time>2026-04-04T09:50:25Z</time></trkpt><trkpt lat="43.449723297925864" lon="10.911160876499737"><ele>273.0</ele><time>2026-04-04T09:50:26Z</time></trkpt><trkpt lat="43.449867734781115" lon="10.911246382339485"><ele>273.0</ele><time>2026-04-04T09:50:27Z</time></trkpt><trkpt lat="43.450000316165905" lon="10.911322361263737"><ele>274.25</ele><time>2026-04-04T09:50:28Z</time></trkpt><trkpt lat="43.450125590257976" lon="10.911392449700598"><ele>275.5</ele><time>2026-04-04T09:50:29Z</time></trkpt><trkpt lat="43.45023509744436" lon="10.91144985626863"><ele>276.75</ele><time>2026-04-04T09:50:30Z</time></trkpt><trkpt lat="43.450340076977916" lon="10.911515805222331"><ele>278.0</ele><time>2026-04-04T09:50:31Z</time></trkpt><trkpt lat="43.45043694718108" lon="10.911586734709712"><ele>278.33333333333337</ele><time>2026-04-04T09:50:32Z</time></trkpt><trkpt lat="43.450524235323435" lon="10.911659545903852"><ele>278.6666666666667</ele><time>2026-04-04T09:50:33Z</time></trkpt><trkpt lat="43.45059997570139" lon="10.911745761689039"><ele>279.0</ele><time>2026-04-04T09:50:34Z</time></trkpt><trkpt lat="43.450659628008566" lon="10.911832549365451"><ele>279.3333333333333</ele><time>2026-04-04T09:50:35Z</time></trkpt><trkpt lat="43.45070244444156" lon="10.911913761613482"><ele>279.66666666666663</ele><time>2026-04-04T09:50:36Z</time></trkpt><trkpt lat="43.45074983909152" lon="10.911978958493831"><ele>280.0</ele><time>2026-04-04T09:50:37Z</time></trkpt><trkpt lat="43.45087128824179" lon="10.912018784243648"><ele>280.5</ele><time>2026-04-04T09:50:39Z</time></trkpt><trkpt lat="43.45094060194371" lon="10.912008302850158"><ele>281.0</ele><time>2026-04-04T09:50:40Z</time></trkpt><trkpt lat="43.45101695953168" lon="10.911975294572775"><ele>281.5</ele><time>2026-04-04T09:50:41Z</time></trkpt><trkpt lat="43.45109255308122" lon="10.911949973289584"><ele>282.0</ele><time>2026-04-04T09:50:42Z</time></trkpt><trkpt lat="43.451171730602375" lon="10.911953474294185"><ele>282.5</ele><time>2026-04-04T09:50:43Z</time></trkpt><trkpt lat="43.45126380334949" lon="10.911991428406125"><ele>283.0</ele><time>2026-04-04T09:50:44Z</time></trkpt><trkpt lat="43.45135942362939" lon="10.912037437788225"><ele>283.8</ele><time>2026-04-04T09:50:45Z</time></trkpt><trkpt lat="43.45144903768688" lon="10.912079129056329"><ele>284.6</ele><time>2026-04-04T09:50:46Z</time></trkpt><trkpt lat="43.45154254300209" lon="10.912111543103384"><ele>285.4</ele><time>2026-04-04T09:50:47Z</time></trkpt><trkpt lat="43.45165513784473" lon="10.912132260825663"><ele>286.2</ele><time>2026-04-04T09:50:48Z</time></trkpt><trkpt lat="43.45176991905266" lon="10.91213376446932"><ele>287.0</ele><time>2026-04-04T09:50:49Z</time></trkpt><trkpt lat="43.45188583846511" lon="10.91212848106022"><ele>287.0</ele><time>2026-04-04T09:50:50Z</time></trkpt><trkpt lat="43.45200500770367" lon="10.912125496861204"><ele>287.0</ele><time>2026-04-04T09:50:51Z</time></trkpt><trkpt lat="43.4521135839895" lon="10.912131262946112"><ele>287.0</ele><time>2026-04-04T09:50:52Z</time></trkpt><trkpt lat="43.45221690283216" lon="10.912148616477689"><ele>287.0</ele><time>2026-04-04T09:50:53Z</time></trkpt><trkpt lat="43.452313465734726" lon="10.912178130326172"><ele>287.0</ele><time>2026-04-04T09:50:54Z</time></trkpt><trkpt lat="43.45240861209288" lon="10.912224268069519"><ele>288.0</ele><time>2026-04-04T09:50:55Z</time></trkpt><trkpt lat="43.45249532614463" lon="10.912276587779383"><ele>289.0</ele><time>2026-04-04T09:50:56Z</time></trkpt><trkpt lat="43.45258231842073" lon="10.912331502517524"><ele>290.0</ele><time>2026-04-04T09:50:57Z</time></trkpt><trkpt lat="43.452669565583214" lon="10.91236415462442"><ele>291.0</ele><time>2026-04-04T09:50:58Z</time></trkpt><trkpt lat="43.452767165755255" lon="10.912370953193975"><ele>292.0</ele><time>2026-04-04T09:50:59Z</time></trkpt><trkpt lat="43.45287022978734" lon="10.912352636640367"><ele>292.5</ele><time>2026-04-04T09:51:00Z</time></trkpt><trkpt lat="43.452981817621264" lon="10.912324170470372"><ele>293.0</ele><time>2026-04-04T09:51:01Z</time></trkpt><trkpt lat="43.45309587912564" lon="10.91229082157818"><ele>293.5</ele><time>2026-04-04T09:51:02Z</time></trkpt><trkpt lat="43.45321549831359" lon="10.912254500346846"><ele>294.0</ele><time>2026-04-04T09:51:03Z</time></trkpt><trkpt lat="43.453330834259184" lon="10.91220938866589"><ele>294.0</ele><time>2026-04-04T09:51:04Z</time></trkpt><trkpt lat="43.45342366688335" lon="10.912178105205236"><ele>294.0</ele><time>2026-04-04T09:51:05Z</time></trkpt><trkpt lat="43.45351615207307" lon="10.912156821638336"><ele>294.0</ele><time>2026-04-04T09:51:06Z</time></trkpt><trkpt lat="43.453611221979784" lon="10.91214902002656"><ele>294.0</ele><time>2026-04-04T09:51:07Z</time></trkpt><trkpt lat="43.4536993796869" lon="10.912158636522868"><ele>294.0</ele><time>2026-04-04T09:51:08Z</time></trkpt><trkpt lat="43.45378103006055" lon="10.912176231058416"><ele>293.6666666666667</ele><time>2026-04-04T09:51:09Z</time></trkpt><trkpt lat="43.453864406656166" lon="10.912204466662251"><ele>293.3333333333333</ele><time>2026-04-04T09:51:10Z</time></trkpt><trkpt lat="43.453943947321456" lon="10.912239497483025"><ele>293.0</ele><time>2026-04-04T09:51:11Z</time></trkpt><trkpt lat="43.454030880141765" lon="10.912272089432813"><ele>292.66666666666663</ele><time>2026-04-04T09:51:12Z</time></trkpt><trkpt lat="43.45412395636409" lon="10.912299413998845"><ele>292.3333333333333</ele><time>2026-04-04T09:51:13Z</time></trkpt><trkpt lat="43.454217835379254" lon="10.912317221432723"><ele>292.0</ele><time>2026-04-04T09:51:14Z</time></trkpt><trkpt lat="43.45430968653783" lon="10.912319620916804"><ele>292.0</ele><time>2026-04-04T09:51:15Z</time></trkpt><trkpt lat="43.45439168970782" lon="10.912312754729337"><ele>292.0</ele><time>2026-04-04T09:51:16Z</time></trkpt><trkpt lat="43.45447772077785" lon="10.912296348048521"><ele>292.0</ele><time>2026-04-04T09:51:17Z</time></trkpt><trkpt lat="43.45455393906088" lon="10.912271343937272"><ele>292.0</ele><time>2026-04-04T09:51:18Z</time></trkpt><trkpt lat="43.454627927168815" lon="10.912234564108752"><ele>292.0</ele><time>2026-04-04T09:51:19Z</time></trkpt><trkpt lat="43.454703662687244" lon="10.91218786010894"><ele>292.0</ele><time>2026-04-04T09:51:20Z</time></trkpt><trkpt lat="43.454780050239115" lon="10.91213339409145"><ele>290.3333333333333</ele><time>2026-04-04T09:51:21Z</time></trkpt><trkpt lat="43.45485527266319" lon="10.912086770528434"><ele>288.66666666666663</ele><time>2026-04-04T09:51:22Z</time></trkpt><trkpt lat="43.45493242114346" lon="10.912045676286484"><ele>287.0</ele><time>2026-04-04T09:51:23Z</time></trkpt><trkpt lat="43.45500975102484" lon="10.91201342529776"><ele>285.3333333333333</ele><time>2026-04-04T09:51:24Z</time></trkpt><trkpt lat="43.45508445451233" lon="10.911998963317204"><ele>283.6666666666667</ele><time>2026-04-04T09:51:25Z</time></trkpt><trkpt lat="43.45516792816391" lon="10.911989422382344"><ele>282.0</ele><time>2026-04-04T09:51:26Z</time></trkpt><trkpt lat="43.4552508081872" lon="10.911976104832112"><ele>282.0</ele><time>2026-04-04T09:51:27Z</time></trkpt><trkpt lat="43.455329194074004" lon="10.911964229663395"><ele>282.0</ele><time>2026-04-04T09:51:28Z</time></trkpt><trkpt lat="43.4554067001704" lon="10.911951813321432"><ele>282.0</ele><time>2026-04-04T09:51:29Z</time></trkpt><trkpt lat="43.455481960109175" lon="10.911935399639253"><ele>282.0</ele><time>2026-04-04T09:51:30Z</time></trkpt><trkpt lat="43.45556073450841" lon="10.9119121713452"><ele>282.0</ele><time>2026-04-04T09:51:31Z</time></trkpt><trkpt lat="43.45563352321038" lon="10.911885395661386"><ele>282.0</ele><time>2026-04-04T09:51:32Z</time></trkpt><trkpt lat="43.45570219650891" lon="10.911859630896073"><ele>280.6666666666667</ele><time>2026-04-04T09:51:33Z</time></trkpt><trkpt lat="43.45576236886413" lon="10.911832876122796"><ele>279.3333333333333</ele><time>2026-04-04T09:51:34Z</time></trkpt><trkpt lat="43.455880825685824" lon="10.911780564180829"><ele>278.0</ele><time>2026-04-04T09:51:36Z</time></trkpt><trkpt lat="43.455944287629016" lon="10.911749612339094"><ele>276.66666666666663</ele><time>2026-04-04T09:51:37Z</time></trkpt><trkpt lat="43.45600390552306" lon="10.911719623535511"><ele>275.3333333333333</ele><time>2026-04-04T09:51:38Z</time></trkpt><trkpt lat="43.456104375889815" lon="10.911671832138854"><ele>274.0</ele><time>2026-04-04T09:51:40Z</time></trkpt><trkpt lat="43.45618920044247" lon="10.911632816524865"><ele>274.00000000000006</ele><time>2026-04-04T09:51:42Z</time></trkpt><trkpt lat="43.456253661151855" lon="10.911592241851228"><ele>274.0</ele><time>2026-04-04T09:51:44Z</time></trkpt><trkpt lat="43.456307834201986" lon="10.911532934311635"><ele>274.0</ele><time>2026-04-04T09:52:23Z</time></trkpt><trkpt lat="43.45633850676228" lon="10.91145037809761"><ele>274.0</ele><time>2026-04-04T09:52:28Z</time></trkpt><trkpt lat="43.456316028453564" lon="10.911361830733783"><ele>274.0</ele><time>2026-04-04T09:52:31Z</time></trkpt><trkpt lat="43.456272920894385" lon="10.911292420654473"><ele>274.00000000000006</ele><time>2026-04-04T09:52:32Z</time></trkpt><trkpt lat="43.456211501937695" lon="10.911187369144196"><ele>274.0</ele><time>2026-04-04T09:52:34Z</time></trkpt><trkpt lat="43.456143696739325" lon="10.911054947782596"><ele>274.0</ele><time>2026-04-04T09:52:36Z</time></trkpt><trkpt lat="43.45610376513131" lon="10.91091856687542"><ele>274.0</ele><time>2026-04-04T09:52:38Z</time></trkpt><trkpt lat="43.45607623979026" lon="10.910804555935295"><ele>274.0</ele><time>2026-04-04T09:52:40Z</time></trkpt><trkpt lat="43.45604706431826" lon="10.910681937621952"><ele>274.0</ele><time>2026-04-04T09:52:42Z</time></trkpt><trkpt lat="43.45601876437175" lon="10.91056534784663"><ele>274.0</ele><time>2026-04-04T09:52:44Z</time></trkpt><trkpt lat="43.45598698808306" lon="10.910431072716941"><ele>274.2</ele><time>2026-04-04T09:52:46Z</time></trkpt><trkpt lat="43.455946545514735" lon="10.910279693102796"><ele>274.4</ele><time>2026-04-04T09:52:48Z</time></trkpt><trkpt lat="43.45590667657364" lon="10.910126146741034"><ele>274.6</ele><time>2026-04-04T09:52:50Z</time></trkpt><trkpt lat="43.45586725772472" lon="10.90996759005294"><ele>274.8</ele><time>2026-04-04T09:52:52Z</time></trkpt><trkpt lat="43.455844179085304" lon="10.909880306745364"><ele>275.0</ele><time>2026-04-04T09:52:53Z</time></trkpt><trkpt lat="43.45581579815306" lon="10.909778267193769"><ele>275.1666666666667</ele><time>2026-04-04T09:52:54Z</time></trkpt><trkpt lat="43.455789421088475" lon="10.909675848260827"><ele>275.33333333333337</ele><time>2026-04-04T09:52:55Z</time></trkpt><trkpt lat="43.45576264958122" lon="10.909576917647993"><ele>275.5</ele><time>2026-04-04T09:52:56Z</time></trkpt><trkpt lat="43.455733934392605" lon="10.909467414186096"><ele>275.6666666666667</ele><time>2026-04-04T09:52:57Z</time></trkpt><trkpt lat="43.4557082116162" lon="10.909353706788908"><ele>275.8333333333333</ele><time>2026-04-04T09:52:58Z</time></trkpt><trkpt lat="43.455686190358115" lon="10.90924637040187"><ele>276.0</ele><time>2026-04-04T09:52:59Z</time></trkpt><trkpt lat="43.45566148171656" lon="10.909148584954712"><ele>276.3333333333333</ele><time>2026-04-04T09:53:00Z</time></trkpt><trkpt lat="43.45562943523346" lon="10.909048999338795"><ele>276.6666666666667</ele><time>2026-04-04T09:53:01Z</time></trkpt><trkpt lat="43.45559849089586" lon="10.908944952670018"><ele>277.0</ele><time>2026-04-04T09:53:02Z</time></trkpt><trkpt lat="43.45556961667234" lon="10.908834616050058"><ele>277.33333333333337</ele><time>2026-04-04T09:53:03Z</time></trkpt><trkpt lat="43.455538974798515" lon="10.90870923668301"><ele>277.6666666666667</ele><time>2026-04-04T09:53:04Z</time></trkpt><trkpt lat="43.455508033921284" lon="10.908578013776394"><ele>278.0</ele><time>2026-04-04T09:53:05Z</time></trkpt><trkpt lat="43.45547199588202" lon="10.908434877957392"><ele>280.4</ele><time>2026-04-04T09:53:06Z</time></trkpt><trkpt lat="43.45542851068566" lon="10.908286452150826"><ele>282.8</ele><time>2026-04-04T09:53:07Z</time></trkpt><trkpt lat="43.45539242020778" lon="10.908144912990881"><ele>285.2</ele><time>2026-04-04T09:53:08Z</time></trkpt><trkpt lat="43.455368275045736" lon="10.90801773655846"><ele>287.6</ele><time>2026-04-04T09:53:09Z</time></trkpt><trkpt lat="43.45535508641213" lon="10.907897966787749"><ele>290.0</ele><time>2026-04-04T09:53:10Z</time></trkpt><trkpt lat="43.4553490125066" lon="10.907775267060218"><ele>290.0</ele><time>2026-04-04T09:53:11Z</time></trkpt><trkpt lat="43.45535420939841" lon="10.90764080195727"><ele>290.0</ele><time>2026-04-04T09:53:12Z</time></trkpt><trkpt lat="43.455375863300716" lon="10.907499853855068"><ele>290.0</ele><time>2026-04-04T09:53:13Z</time></trkpt><trkpt lat="43.45540579983729" lon="10.907347349635634"><ele>290.0</ele><time>2026-04-04T09:53:14Z</time></trkpt><trkpt lat="43.45544170317473" lon="10.90718782206222"><ele>290.0</ele><time>2026-04-04T09:53:15Z</time></trkpt><trkpt lat="43.455478692186745" lon="10.907022531889744"><ele>289.8</ele><time>2026-04-04T09:53:16Z</time></trkpt><trkpt lat="43.45552026731188" lon="10.906859834132932"><ele>289.6</ele><time>2026-04-04T09:53:17Z</time></trkpt><trkpt lat="43.455554895323274" lon="10.906706656396969"><ele>289.4</ele><time>2026-04-04T09:53:18Z</time></trkpt><trkpt lat="43.45558729826538" lon="10.906559221499212"><ele>289.2</ele><time>2026-04-04T09:53:19Z</time></trkpt><trkpt lat="43.455616709194985" lon="10.906434405725674"><ele>289.0</ele><time>2026-04-04T09:53:20Z</time></trkpt><trkpt lat="43.45564042156895" lon="10.906332479948313"><ele>289.0</ele><time>2026-04-04T09:53:21Z</time></trkpt><trkpt lat="43.455666144666715" lon="10.906225791827886"><ele>289.0</ele><time>2026-04-04T09:53:22Z</time></trkpt><trkpt lat="43.45569177888764" lon="10.906110382418804"><ele>289.0</ele><time>2026-04-04T09:53:23Z</time></trkpt><trkpt lat="43.455720143396924" lon="10.905974822179386"><ele>289.0</ele><time>2026-04-04T09:53:24Z</time></trkpt><trkpt lat="43.45574529242035" lon="10.905826976191575"><ele>289.0</ele><time>2026-04-04T09:53:25Z</time></trkpt><trkpt lat="43.45577178790652" lon="10.905661056064453"><ele>289.59999999999997</ele><time>2026-04-04T09:53:26Z</time></trkpt><trkpt lat="43.4558045267394" lon="10.9054864837166"><ele>290.2</ele><time>2026-04-04T09:53:27Z</time></trkpt><trkpt lat="43.45583261291527" lon="10.905335298022997"><ele>290.79999999999995</ele><time>2026-04-04T09:53:28Z</time></trkpt><trkpt lat="43.45585962638386" lon="10.905208616387263"><ele>291.4</ele><time>2026-04-04T09:53:29Z</time></trkpt><trkpt lat="43.455882878753854" lon="10.905096062982135"><ele>292.0</ele><time>2026-04-04T09:53:30Z</time></trkpt><trkpt lat="43.455904411961185" lon="10.904990701934992"><ele>292.3333333333333</ele><time>2026-04-04T09:53:31Z</time></trkpt><trkpt lat="43.45593598394079" lon="10.904889240125346"><ele>292.66666666666663</ele><time>2026-04-04T09:53:32Z</time></trkpt><trkpt lat="43.4559803338549" lon="10.904804798865204"><ele>293.0</ele><time>2026-04-04T09:53:33Z</time></trkpt><trkpt lat="43.45603398213504" lon="10.904729306268992"><ele>293.3333333333333</ele><time>2026-04-04T09:53:34Z</time></trkpt><trkpt lat="43.4561036849432" lon="10.904662346917494"><ele>293.6666666666667</ele><time>2026-04-04T09:53:35Z</time></trkpt><trkpt lat="43.456192411505874" lon="10.904605232438078"><ele>294.0</ele><time>2026-04-04T09:53:36Z</time></trkpt><trkpt lat="43.4562966202313" lon="10.904557003433592"><ele>294.0</ele><time>2026-04-04T09:53:37Z</time></trkpt><trkpt lat="43.45640821715978" lon="10.904512506660787"><ele>294.0</ele><time>2026-04-04T09:53:38Z</time></trkpt><trkpt lat="43.45652864946379" lon="10.904465689871165"><ele>294.0</ele><time>2026-04-04T09:53:39Z</time></trkpt><trkpt lat="43.45665237069115" lon="10.904414490988943"><ele>294.0</ele><time>2026-04-04T09:53:40Z</time></trkpt><trkpt lat="43.45677311163421" lon="10.904362795059106"><ele>294.0</ele><time>2026-04-04T09:53:41Z</time></trkpt><trkpt lat="43.45689499612685" lon="10.904311968814945"><ele>294.0</ele><time>2026-04-04T09:53:42Z</time></trkpt><trkpt lat="43.45701685185525" lon="10.904263025837368"><ele>294.0</ele><time>2026-04-04T09:53:43Z</time></trkpt><trkpt lat="43.45715018741583" lon="10.90421417065542"><ele>294.0</ele><time>2026-04-04T09:53:44Z</time></trkpt><trkpt lat="43.45727655879324" lon="10.9041633160108"><ele>295.8</ele><time>2026-04-04T09:53:45Z</time></trkpt><trkpt lat="43.45738518265712" lon="10.904120420527088"><ele>297.59999999999997</ele><time>2026-04-04T09:53:46Z</time></trkpt><trkpt lat="43.457479196733686" lon="10.904063471555933"><ele>299.4</ele><time>2026-04-04T09:53:47Z</time></trkpt><trkpt lat="43.45756145702406" lon="10.903997520395052"><ele>301.2</ele><time>2026-04-04T09:53:48Z</time></trkpt><trkpt lat="43.45763133991944" lon="10.903917277739104"><ele>303.0</ele><time>2026-04-04T09:53:49Z</time></trkpt><trkpt lat="43.4576908466069" lon="10.903809881497095"><ele>303.0</ele><time>2026-04-04T09:53:50Z</time></trkpt><trkpt lat="43.45774196775327" lon="10.903692446918667"><ele>303.0</ele><time>2026-04-04T09:53:51Z</time></trkpt><trkpt lat="43.45778064923464" lon="10.903577320760903"><ele>303.0</ele><time>2026-04-04T09:53:52Z</time></trkpt><trkpt lat="43.45781010506973" lon="10.903458553157915"><ele>303.0</ele><time>2026-04-04T09:53:53Z</time></trkpt><trkpt lat="43.45782388500918" lon="10.903334305687277"><ele>303.0</ele><time>2026-04-04T09:53:54Z</time></trkpt><trkpt lat="43.4578260133748" lon="10.903212053154826"><ele>303.2</ele><time>2026-04-04T09:53:55Z</time></trkpt><trkpt lat="43.45781031134312" lon="10.903097909051105"><ele>303.4</ele><time>2026-04-04T09:53:56Z</time></trkpt><trkpt lat="43.457776450413654" lon="10.902974992721925"><ele>303.59999999999997</ele><time>2026-04-04T09:53:57Z</time></trkpt><trkpt lat="43.45772338625649" lon="10.902830344687034"><ele>303.8</ele><time>2026-04-04T09:53:58Z</time></trkpt><trkpt lat="43.45766403618828" lon="10.902680928854103"><ele>304.0</ele><time>2026-04-04T09:53:59Z</time></trkpt><trkpt lat="43.45761860485778" lon="10.902547770467612"><ele>302.2</ele><time>2026-04-04T09:54:00Z</time></trkpt><trkpt lat="43.45758164528112" lon="10.902420224150818"><ele>300.4</ele><time>2026-04-04T09:54:01Z</time></trkpt><trkpt lat="43.4575419572214" lon="10.902296194237891"><ele>298.6</ele><time>2026-04-04T09:54:02Z</time></trkpt><trkpt lat="43.45750001990255" lon="10.902181065226044"><ele>296.8</ele><time>2026-04-04T09:54:03Z</time></trkpt><trkpt lat="43.457457837982425" lon="10.902069986798605"><ele>295.0</ele><time>2026-04-04T09:54:04Z</time></trkpt><trkpt lat="43.45741162391272" lon="10.901960547819195"><ele>295.0</ele><time>2026-04-04T09:54:05Z</time></trkpt><trkpt lat="43.45735345314108" lon="10.901851765133221"><ele>295.0</ele><time>2026-04-04T09:54:06Z</time></trkpt><trkpt lat="43.45728393732203" lon="10.901741333958347"><ele>295.0</ele><time>2026-04-04T09:54:07Z</time></trkpt><trkpt lat="43.45721105046896" lon="10.901638708421086"><ele>295.0</ele><time>2026-04-04T09:54:08Z</time></trkpt><trkpt lat="43.457137743095345" lon="10.901541232503506"><ele>295.0</ele><time>2026-04-04T09:54:09Z</time></trkpt><trkpt lat="43.457071254590545" lon="10.901446704938628"><ele>294.6</ele><time>2026-04-04T09:54:10Z</time></trkpt><trkpt lat="43.4570047645653" lon="10.901355282787422"><ele>294.2</ele><time>2026-04-04T09:54:11Z</time></trkpt><trkpt lat="43.45693408187344" lon="10.901263726315738"><ele>293.8</ele><time>2026-04-04T09:54:12Z</time></trkpt><trkpt lat="43.45686348109087" lon="10.901167855950238"><ele>293.4</ele><time>2026-04-04T09:54:13Z</time></trkpt><trkpt lat="43.45678774471654" lon="10.901059122158621"><ele>293.0</ele><time>2026-04-04T09:54:14Z</time></trkpt><trkpt lat="43.45670843731477" lon="10.900945063636435"><ele>290.8</ele><time>2026-04-04T09:54:15Z</time></trkpt><trkpt lat="43.45663340396929" lon="10.900839445184955"><ele>288.6</ele><time>2026-04-04T09:54:16Z</time></trkpt><trkpt lat="43.45655764693443" lon="10.900730225464637"><ele>286.4</ele><time>2026-04-04T09:54:17Z</time></trkpt><trkpt lat="43.45648251698184" lon="10.900620446069528"><ele>284.2</ele><time>2026-04-04T09:54:18Z</time></trkpt><trkpt lat="43.45640799800856" lon="10.900505354773921"><ele>282.0</ele><time>2026-04-04T09:54:19Z</time></trkpt><trkpt lat="43.45633130481577" lon="10.900392653741118"><ele>282.6</ele><time>2026-04-04T09:54:20Z</time></trkpt><trkpt lat="43.45625197340433" lon="10.900284087064462"><ele>283.2</ele><time>2026-04-04T09:54:21Z</time></trkpt><trkpt lat="43.456176345653915" lon="10.900191945326375"><ele>283.8</ele><time>2026-04-04T09:54:22Z</time></trkpt><trkpt lat="43.45610712517739" lon="10.900098717455233"><ele>284.4</ele><time>2026-04-04T09:54:23Z</time></trkpt><trkpt lat="43.456036399677664" lon="10.900005661983732"><ele>285.0</ele><time>2026-04-04T09:54:24Z</time></trkpt><trkpt lat="43.45596597277123" lon="10.899914461676996"><ele>285.0</ele><time>2026-04-04T09:54:25Z</time></trkpt><trkpt lat="43.45589385708522" lon="10.89981537026684"><ele>285.0</ele><time>2026-04-04T09:54:26Z</time></trkpt><trkpt lat="43.455830137602696" lon="10.89972073282965"><ele>285.0</ele><time>2026-04-04T09:54:27Z</time></trkpt><trkpt lat="43.45575921031378" lon="10.89962697585329"><ele>285.0</ele><time>2026-04-04T09:54:28Z</time></trkpt><trkpt lat="43.45568465701496" lon="10.89951951796106"><ele>285.0</ele><time>2026-04-04T09:54:29Z</time></trkpt><trkpt lat="43.455603853798" lon="10.899407727657913"><ele>285.0</ele><time>2026-04-04T09:54:30Z</time></trkpt><trkpt lat="43.45551654508292" lon="10.89928475920778"><ele>285.0</ele><time>2026-04-04T09:54:31Z</time></trkpt><trkpt lat="43.45544291498845" lon="10.89917643728377"><ele>285.0</ele><time>2026-04-04T09:54:32Z</time></trkpt><trkpt lat="43.45537868277757" lon="10.899074060804118"><ele>285.0</ele><time>2026-04-04T09:54:33Z</time></trkpt><trkpt lat="43.455325149154156" lon="10.898962007535866"><ele>285.0</ele><time>2026-04-04T09:54:34Z</time></trkpt><trkpt lat="43.45527999333221" lon="10.898846638068107"><ele>285.4</ele><time>2026-04-04T09:54:35Z</time></trkpt><trkpt lat="43.455245986215225" lon="10.898726463796216"><ele>285.8</ele><time>2026-04-04T09:54:36Z</time></trkpt><trkpt lat="43.45522023501736" lon="10.898595236441436"><ele>286.2</ele><time>2026-04-04T09:54:37Z</time></trkpt><trkpt lat="43.45520854520885" lon="10.8984620870296"><ele>286.6</ele><time>2026-04-04T09:54:38Z</time></trkpt><trkpt lat="43.45520988250411" lon="10.898316575145152"><ele>287.0</ele><time>2026-04-04T09:54:39Z</time></trkpt><trkpt lat="43.455220317121665" lon="10.898159992987809"><ele>287.0</ele><time>2026-04-04T09:54:40Z</time></trkpt><trkpt lat="43.45523736313219" lon="10.898011417399081"><ele>287.0</ele><time>2026-04-04T09:54:41Z</time></trkpt><trkpt lat="43.45525022131675" lon="10.897862367941457"><ele>287.0</ele><time>2026-04-04T09:54:42Z</time></trkpt><trkpt lat="43.45526356100128" lon="10.89771594498823"><ele>287.0</ele><time>2026-04-04T09:54:43Z</time></trkpt><trkpt lat="43.45527286306383" lon="10.897574096255351"><ele>287.0</ele><time>2026-04-04T09:54:44Z</time></trkpt><trkpt lat="43.45528085086455" lon="10.897436343224275"><ele>287.0</ele><time>2026-04-04T09:54:45Z</time></trkpt><trkpt lat="43.455287651422296" lon="10.897302674592487"><ele>287.0</ele><time>2026-04-04T09:54:46Z</time></trkpt><trkpt lat="43.455297175846745" lon="10.89717221087662"><ele>287.0</ele><time>2026-04-04T09:54:47Z</time></trkpt><trkpt lat="43.45530750352525" lon="10.897048270849142"><ele>287.0</ele><time>2026-04-04T09:54:48Z</time></trkpt><trkpt lat="43.455317551376396" lon="10.896926751810028"><ele>287.0</ele><time>2026-04-04T09:54:49Z</time></trkpt><trkpt lat="43.45532798777664" lon="10.896799782507864"><ele>286.4</ele><time>2026-04-04T09:54:50Z</time></trkpt><trkpt lat="43.45533786536365" lon="10.896662075858183"><ele>285.79999999999995</ele><time>2026-04-04T09:54:51Z</time></trkpt><trkpt lat="43.455348283024804" lon="10.896520320443601"><ele>285.2</ele><time>2026-04-04T09:54:52Z</time></trkpt><trkpt lat="43.45535699541171" lon="10.89637710827101"><ele>284.59999999999997</ele><time>2026-04-04T09:54:53Z</time></trkpt><trkpt lat="43.45536113886388" lon="10.896231838795867"><ele>284.0</ele><time>2026-04-04T09:54:54Z</time></trkpt><trkpt lat="43.455355479635855" lon="10.896086923783653"><ele>284.0</ele><time>2026-04-04T09:54:55Z</time></trkpt><trkpt lat="43.45534374871491" lon="10.895942515368846"><ele>284.0</ele><time>2026-04-04T09:54:56Z</time></trkpt><trkpt lat="43.45532253049241" lon="10.895804343031768"><ele>284.0</ele><time>2026-04-04T09:54:57Z</time></trkpt><trkpt lat="43.45530518047075" lon="10.895664164788842"><ele>284.0</ele><time>2026-04-04T09:54:58Z</time></trkpt><trkpt lat="43.455298029591184" lon="10.895527004196524"><ele>284.0</ele><time>2026-04-04T09:54:59Z</time></trkpt><trkpt lat="43.45529969681851" lon="10.89538131531245"><ele>283.75</ele><time>2026-04-04T09:55:00Z</time></trkpt><trkpt lat="43.45531129781141" lon="10.895223900911843"><ele>283.5</ele><time>2026-04-04T09:55:01Z</time></trkpt><trkpt lat="43.45532680627631" lon="10.895066671206637"><ele>283.25</ele><time>2026-04-04T09:55:02Z</time></trkpt><trkpt lat="43.4553405261411" lon="10.894912846773556"><ele>283.0</ele><time>2026-04-04T09:55:03Z</time></trkpt><trkpt lat="43.455345903501794" lon="10.894760092575918"><ele>282.4</ele><time>2026-04-04T09:55:04Z</time></trkpt><trkpt lat="43.45534064163525" lon="10.894618821650942"><ele>281.8</ele><time>2026-04-04T09:55:05Z</time></trkpt><trkpt lat="43.45533755960566" lon="10.894462109382275"><ele>281.2</ele><time>2026-04-04T09:55:06Z</time></trkpt><trkpt lat="43.4553330015095" lon="10.894302232573153"><ele>280.6</ele><time>2026-04-04T09:55:07Z</time></trkpt><trkpt lat="43.455333787541235" lon="10.894148822324567"><ele>280.0</ele><time>2026-04-04T09:55:08Z</time></trkpt><trkpt lat="43.4553304376714" lon="10.894006869922173"><ele>278.8</ele><time>2026-04-04T09:55:09Z</time></trkpt><trkpt lat="43.45531489093614" lon="10.89387142349753"><ele>277.6</ele><time>2026-04-04T09:55:10Z</time></trkpt><trkpt lat="43.45528460243028" lon="10.893738860584156"><ele>276.4</ele><time>2026-04-04T09:55:11Z</time></trkpt><trkpt lat="43.45524367341506" lon="10.893604369753863"><ele>275.2</ele><time>2026-04-04T09:55:12Z</time></trkpt><trkpt lat="43.455196327285186" lon="10.89345866213087"><ele>274.0</ele><time>2026-04-04T09:55:13Z</time></trkpt><trkpt lat="43.455150469436504" lon="10.893314540375155"><ele>272.0</ele><time>2026-04-04T09:55:14Z</time></trkpt><trkpt lat="43.455110037012126" lon="10.893171720868803"><ele>270.0</ele><time>2026-04-04T09:55:15Z</time></trkpt><trkpt lat="43.45507125883475" lon="10.893047217066536"><ele>268.0</ele><time>2026-04-04T09:55:16Z</time></trkpt><trkpt lat="43.45503928099771" lon="10.892931293596009"><ele>266.0</ele><time>2026-04-04T09:55:17Z</time></trkpt><trkpt lat="43.455005929275416" lon="10.892826216520376"><ele>264.0</ele><time>2026-04-04T09:55:18Z</time></trkpt><trkpt lat="43.45496636343105" lon="10.892718104328317"><ele>264.0</ele><time>2026-04-04T09:55:19Z</time></trkpt><trkpt lat="43.45492293211211" lon="10.892626175398695"><ele>264.0</ele><time>2026-04-04T09:55:20Z</time></trkpt><trkpt lat="43.4548779357562" lon="10.892547724537458"><ele>264.0</ele><time>2026-04-04T09:55:21Z</time></trkpt><trkpt lat="43.45482777610623" lon="10.892487977749651"><ele>264.0</ele><time>2026-04-04T09:55:22Z</time></trkpt><trkpt lat="43.45472378392772" lon="10.892406591290479"><ele>264.0</ele><time>2026-04-04T09:55:24Z</time></trkpt><trkpt lat="43.45463694712128" lon="10.892364648631844"><ele>264.0</ele><time>2026-04-04T09:55:26Z</time></trkpt><trkpt lat="43.454517290521956" lon="10.892339995877686"><ele>262.85714285714283</ele><time>2026-04-04T09:55:28Z</time></trkpt><trkpt lat="43.454452718132316" lon="10.892339866943908"><ele>261.7142857142857</ele><time>2026-04-04T09:55:29Z</time></trkpt><trkpt lat="43.45438219917767" lon="10.892335755881483"><ele>260.57142857142856</ele><time>2026-04-04T09:55:30Z</time></trkpt><trkpt lat="43.45430798436203" lon="10.892333762548274"><ele>259.42857142857144</ele><time>2026-04-04T09:55:31Z</time></trkpt><trkpt lat="43.45423601688347" lon="10.892322648986259"><ele>258.2857142857143</ele><time>2026-04-04T09:55:32Z</time></trkpt><trkpt lat="43.45417205808815" lon="10.892308398676695"><ele>257.1428571428571</ele><time>2026-04-04T09:55:33Z</time></trkpt><trkpt lat="43.45410564109718" lon="10.892297541413063"><ele>256.0</ele><time>2026-04-04T09:55:34Z</time></trkpt><trkpt lat="43.453986632192546" lon="10.892318723215345"><ele>255.99999999999997</ele><time>2026-04-04T09:55:36Z</time></trkpt><trkpt lat="43.45387549356833" lon="10.89240155226029"><ele>256.0</ele><time>2026-04-04T09:55:38Z</time></trkpt><trkpt lat="43.45383217482628" lon="10.892475330225537"><ele>256.0</ele><time>2026-04-04T09:55:39Z</time></trkpt><trkpt lat="43.45379899347282" lon="10.892557898435017"><ele>256.0</ele><time>2026-04-04T09:55:40Z</time></trkpt><trkpt lat="43.453773534117495" lon="10.892644894352385"><ele>255.99999999999997</ele><time>2026-04-04T09:55:41Z</time></trkpt><trkpt lat="43.45375251485679" lon="10.892741636587798"><ele>256.0</ele><time>2026-04-04T09:55:42Z</time></trkpt><trkpt lat="43.45372515719477" lon="10.89283357718343"><ele>255.85714285714283</ele><time>2026-04-04T09:55:43Z</time></trkpt><trkpt lat="43.45368548704832" lon="10.892908505314882"><ele>255.7142857142857</ele><time>2026-04-04T09:55:44Z</time></trkpt><trkpt lat="43.453634302439966" lon="10.892959116651014"><ele>255.57142857142856</ele><time>2026-04-04T09:55:45Z</time></trkpt><trkpt lat="43.45357182527161" lon="10.89298815101917"><ele>255.42857142857144</ele><time>2026-04-04T09:55:46Z</time></trkpt><trkpt lat="43.453499527940025" lon="10.893001204213967"><ele>255.2857142857143</ele><time>2026-04-04T09:55:47Z</time></trkpt><trkpt lat="43.45342638513388" lon="10.892980827871495"><ele>255.14285714285717</ele><time>2026-04-04T09:55:48Z</time></trkpt><trkpt lat="43.45334740750357" lon="10.892937030432165"><ele>255.0</ele><time>2026-04-04T09:55:49Z</time></trkpt><trkpt lat="43.453272054422996" lon="10.892875398221245"><ele>255.0</ele><time>2026-04-04T09:55:50Z</time></trkpt><trkpt lat="43.45320267586622" lon="10.892818890993167"><ele>255.00000000000003</ele><time>2026-04-04T09:55:51Z</time></trkpt><trkpt lat="43.453136098678414" lon="10.892791971513933"><ele>255.0</ele><time>2026-04-04T09:55:52Z</time></trkpt><trkpt lat="43.453072349672695" lon="10.892787392741011"><ele>255.0</ele><time>2026-04-04T09:55:53Z</time></trkpt><trkpt lat="43.4530014842165" lon="10.89280310479527"><ele>255.00000000000003</ele><time>2026-04-04T09:55:54Z</time></trkpt><trkpt lat="43.452930167022096" lon="10.892827026730616"><ele>255.0</ele><time>2026-04-04T09:55:55Z</time></trkpt><trkpt lat="43.45284895742256" lon="10.892858313646942"><ele>255.0</ele><time>2026-04-04T09:55:56Z</time></trkpt><trkpt lat="43.45276856846171" lon="10.89289838181562"><ele>253.16666666666666</ele><time>2026-04-04T09:55:57Z</time></trkpt><trkpt lat="43.45268656385419" lon="10.892941443836314"><ele>251.33333333333331</ele><time>2026-04-04T09:55:58Z</time></trkpt><trkpt lat="43.452597096532315" lon="10.89298157656595"><ele>249.5</ele><time>2026-04-04T09:55:59Z</time></trkpt><trkpt lat="43.45251954763263" lon="10.893016083467602"><ele>247.66666666666666</ele><time>2026-04-04T09:56:00Z</time></trkpt><trkpt lat="43.452444390782205" lon="10.89304677707878"><ele>245.83333333333331</ele><time>2026-04-04T09:56:01Z</time></trkpt><trkpt lat="43.45237551267224" lon="10.893077790736129"><ele>244.0</ele><time>2026-04-04T09:56:02Z</time></trkpt><trkpt lat="43.452311934713364" lon="10.89310290146361"><ele>243.99999999999997</ele><time>2026-04-04T09:56:03Z</time></trkpt><trkpt lat="43.452199420280735" lon="10.893122255341888"><ele>244.0</ele><time>2026-04-04T09:56:05Z</time></trkpt><trkpt lat="43.452084619975544" lon="10.89306676957862"><ele>244.0</ele><time>2026-04-04T09:56:07Z</time></trkpt><trkpt lat="43.45203518842041" lon="10.893005877440759"><ele>244.0</ele><time>2026-04-04T09:56:08Z</time></trkpt><trkpt lat="43.45200222573174" lon="10.892923327267637"><ele>243.99999999999997</ele><time>2026-04-04T09:56:09Z</time></trkpt><trkpt lat="43.45198378642955" lon="10.892817676558222"><ele>244.0</ele><time>2026-04-04T09:56:10Z</time></trkpt><trkpt lat="43.451979993847345" lon="10.89270480655702"><ele>241.16666666666666</ele><time>2026-04-04T09:56:11Z</time></trkpt><trkpt lat="43.451982759920945" lon="10.892577993652715"><ele>238.33333333333331</ele><time>2026-04-04T09:56:12Z</time></trkpt><trkpt lat="43.45199622726607" lon="10.892468825577549"><ele>235.5</ele><time>2026-04-04T09:56:13Z</time></trkpt><trkpt lat="43.452010892738606" lon="10.892373864541423"><ele>232.66666666666669</ele><time>2026-04-04T09:56:14Z</time></trkpt><trkpt lat="43.45201434720359" lon="10.892274380758233"><ele>229.83333333333334</ele><time>2026-04-04T09:56:15Z</time></trkpt><trkpt lat="43.45201247345569" lon="10.892174297453565"><ele>227.0</ele><time>2026-04-04T09:56:16Z</time></trkpt><trkpt lat="43.45199601734841" lon="10.892074210974394"><ele>227.0</ele><time>2026-04-04T09:56:17Z</time></trkpt><trkpt lat="43.451968350495505" lon="10.891983942298872"><ele>227.00000000000003</ele><time>2026-04-04T09:56:18Z</time></trkpt><trkpt lat="43.451939303833036" lon="10.891900938078933"><ele>227.0</ele><time>2026-04-04T09:56:19Z</time></trkpt><trkpt lat="43.45189878264786" lon="10.89182755735489"><ele>227.0</ele><time>2026-04-04T09:56:20Z</time></trkpt><trkpt lat="43.45185236882953" lon="10.891762219164137"><ele>227.00000000000003</ele><time>2026-04-04T09:56:21Z</time></trkpt><trkpt lat="43.45179868328561" lon="10.891701204973671"><ele>227.0</ele><time>2026-04-04T09:56:22Z</time></trkpt><trkpt lat="43.45173793826385" lon="10.891642149785254"><ele>227.0</ele><time>2026-04-04T09:56:23Z</time></trkpt><trkpt lat="43.451671076952" lon="10.891584702435845"><ele>226.66666666666669</ele><time>2026-04-04T09:56:24Z</time></trkpt><trkpt lat="43.45160456929874" lon="10.891525863869663"><ele>226.33333333333334</ele><time>2026-04-04T09:56:25Z</time></trkpt><trkpt lat="43.451530979429045" lon="10.891460180746002"><ele>226.0</ele><time>2026-04-04T09:56:26Z</time></trkpt><trkpt lat="43.4514616127699" lon="10.891402401306065"><ele>225.66666666666669</ele><time>2026-04-04T09:56:27Z</time></trkpt><trkpt lat="43.45138662035762" lon="10.891327948429007"><ele>225.33333333333334</ele><time>2026-04-04T09:56:28Z</time></trkpt><trkpt lat="43.451305030732655" lon="10.891247375848526"><ele>225.0</ele><time>2026-04-04T09:56:29Z</time></trkpt><trkpt lat="43.45122420399687" lon="10.891167882545723"><ele>223.6</ele><time>2026-04-04T09:56:30Z</time></trkpt><trkpt lat="43.45114478130035" lon="10.891094648550915"><ele>222.2</ele><time>2026-04-04T09:56:31Z</time></trkpt><trkpt lat="43.45106309346049" lon="10.891019765929668"><ele>220.8</ele><time>2026-04-04T09:56:32Z</time></trkpt><trkpt lat="43.45098804075273" lon="10.89094733872846"><ele>219.4</ele><time>2026-04-04T09:56:33Z</time></trkpt><trkpt lat="43.4509091403624" lon="10.890875689711589"><ele>218.0</ele><time>2026-04-04T09:56:34Z</time></trkpt><trkpt lat="43.45082617209803" lon="10.8907991971754"><ele>218.0</ele><time>2026-04-04T09:56:35Z</time></trkpt><trkpt lat="43.45075046858549" lon="10.890721278291183"><ele>218.0</ele><time>2026-04-04T09:56:36Z</time></trkpt><trkpt lat="43.45066857344953" lon="10.890647501848084"><ele>218.0</ele><time>2026-04-04T09:56:37Z</time></trkpt><trkpt lat="43.4505891283212" lon="10.890571382112222"><ele>218.0</ele><time>2026-04-04T09:56:38Z</time></trkpt><trkpt lat="43.4505050205655" lon="10.890493643954247"><ele>218.0</ele><time>2026-04-04T09:56:39Z</time></trkpt><trkpt lat="43.45041969492671" lon="10.890414571510515"><ele>217.4</ele><time>2026-04-04T09:56:40Z</time></trkpt><trkpt lat="43.45033657448222" lon="10.890330871910749"><ele>216.8</ele><time>2026-04-04T09:56:41Z</time></trkpt><trkpt lat="43.45024702259346" lon="10.890241818588473"><ele>216.2</ele><time>2026-04-04T09:56:42Z</time></trkpt><trkpt lat="43.45015730255704" lon="10.890155041878637"><ele>215.6</ele><time>2026-04-04T09:56:43Z</time></trkpt><trkpt lat="43.4500582227003" lon="10.89006535092479"><ele>215.0</ele><time>2026-04-04T09:56:44Z</time></trkpt><trkpt lat="43.4499571500919" lon="10.889973384720797"><ele>215.0</ele><time>2026-04-04T09:56:45Z</time></trkpt><trkpt lat="43.44985847850303" lon="10.889880347094826"><ele>215.0</ele><time>2026-04-04T09:56:46Z</time></trkpt><trkpt lat="43.44975508563708" lon="10.889780081990965"><ele>215.0</ele><time>2026-04-04T09:56:47Z</time></trkpt><trkpt lat="43.44965192228156" lon="10.889681614992469"><ele>215.0</ele><time>2026-04-04T09:56:48Z</time></trkpt><trkpt lat="43.44954643846205" lon="10.889573673159225"><ele>214.75</ele><time>2026-04-04T09:56:49Z</time></trkpt><trkpt lat="43.44944592006679" lon="10.889465213750915"><ele>214.5</ele><time>2026-04-04T09:56:50Z</time></trkpt><trkpt lat="43.4493507272584" lon="10.889345857977847"><ele>214.25</ele><time>2026-04-04T09:56:51Z</time></trkpt><trkpt lat="43.44927105510051" lon="10.889219996093036"><ele>214.0</ele><time>2026-04-04T09:56:52Z</time></trkpt><trkpt lat="43.44919445125073" lon="10.88908008968489"><ele>214.0</ele><time>2026-04-04T09:56:53Z</time></trkpt><trkpt lat="43.449119795080655" lon="10.888934456116939"><ele>214.0</ele><time>2026-04-04T09:56:54Z</time></trkpt><trkpt lat="43.4490494719079" lon="10.888787114096319"><ele>214.0</ele><time>2026-04-04T09:56:55Z</time></trkpt><trkpt lat="43.44898600390447" lon="10.888642804449866"><ele>214.0</ele><time>2026-04-04T09:56:56Z</time></trkpt><trkpt lat="43.44892373660638" lon="10.888502719430047"><ele>215.75</ele><time>2026-04-04T09:56:57Z</time></trkpt><trkpt lat="43.44885821080025" lon="10.888364280897433"><ele>217.5</ele><time>2026-04-04T09:56:58Z</time></trkpt><trkpt lat="43.44879237936357" lon="10.88823206893583"><ele>219.25</ele><time>2026-04-04T09:56:59Z</time></trkpt><trkpt lat="43.4487291190788" lon="10.888094707442027"><ele>221.0</ele><time>2026-04-04T09:57:00Z</time></trkpt><trkpt lat="43.448667934009755" lon="10.887966955154035"><ele>221.00000000000003</ele><time>2026-04-04T09:57:01Z</time></trkpt><trkpt lat="43.44861695668733" lon="10.887862780194567"><ele>221.0</ele><time>2026-04-04T09:57:02Z</time></trkpt><trkpt lat="43.44856658698703" lon="10.887770224190417"><ele>221.0</ele><time>2026-04-04T09:57:03Z</time></trkpt><trkpt lat="43.44851684509289" lon="10.887690240934885"><ele>221.0</ele><time>2026-04-04T09:57:04Z</time></trkpt><trkpt lat="43.44846227716443" lon="10.887616851434302"><ele>221.00000000000003</ele><time>2026-04-04T09:57:05Z</time></trkpt><trkpt lat="43.44838746707191" lon="10.887537883583663"><ele>221.0</ele><time>2026-04-04T09:57:06Z</time></trkpt><trkpt lat="43.44829784782694" lon="10.887458926541596"><ele>221.5</ele><time>2026-04-04T09:57:07Z</time></trkpt><trkpt lat="43.448196853240624" lon="10.887376855821428"><ele>222.0</ele><time>2026-04-04T09:57:08Z</time></trkpt><trkpt lat="43.44808256938828" lon="10.887281285310706"><ele>222.5</ele><time>2026-04-04T09:57:09Z</time></trkpt><trkpt lat="43.44797988396912" lon="10.887194344359239"><ele>223.0</ele><time>2026-04-04T09:57:10Z</time></trkpt><trkpt lat="43.44787980631914" lon="10.887109679790157"><ele>223.0</ele><time>2026-04-04T09:57:11Z</time></trkpt><trkpt lat="43.44778115363629" lon="10.887025349028013"><ele>223.0</ele><time>2026-04-04T09:57:12Z</time></trkpt><trkpt lat="43.44768906084184" lon="10.886937930783358"><ele>223.0</ele><time>2026-04-04T09:57:13Z</time></trkpt><trkpt lat="43.447602444442246" lon="10.886838868163387"><ele>223.0</ele><time>2026-04-04T09:57:14Z</time></trkpt><trkpt lat="43.44752887134047" lon="10.886731515417164"><ele>223.0</ele><time>2026-04-04T09:57:15Z</time></trkpt><trkpt lat="43.44746457421888" lon="10.886616453047079"><ele>220.5</ele><time>2026-04-04T09:57:16Z</time></trkpt><trkpt lat="43.44740782675655" lon="10.886483280764319"><ele>218.0</ele><time>2026-04-04T09:57:17Z</time></trkpt><trkpt lat="43.4473579889913" lon="10.88632332800667"><ele>215.5</ele><time>2026-04-04T09:57:18Z</time></trkpt><trkpt lat="43.44731223764689" lon="10.88615207919832"><ele>213.0</ele><time>2026-04-04T09:57:19Z</time></trkpt><trkpt lat="43.44728068508051" lon="10.886013861938101"><ele>211.7142857142857</ele><time>2026-04-04T09:57:20Z</time></trkpt><trkpt lat="43.447252647932146" lon="10.885902709655914"><ele>210.42857142857142</ele><time>2026-04-04T09:57:21Z</time></trkpt><trkpt lat="43.4472303663547" lon="10.885814647724532"><ele>209.14285714285714</ele><time>2026-04-04T09:57:22Z</time></trkpt><trkpt lat="43.447208775846754" lon="10.885728200699948"><ele>207.85714285714283</ele><time>2026-04-04T09:57:23Z</time></trkpt><trkpt lat="43.447185709318134" lon="10.885636497577613"><ele>206.57142857142858</ele><time>2026-04-04T09:57:24Z</time></trkpt><trkpt lat="43.44716280654595" lon="10.885548358018397"><ele>205.28571428571428</ele><time>2026-04-04T09:57:25Z</time></trkpt><trkpt lat="43.44714244046464" lon="10.885459816376363"><ele>204.0</ele><time>2026-04-04T09:57:26Z</time></trkpt><trkpt lat="43.44711755008013" lon="10.885368027485532"><ele>204.0</ele><time>2026-04-04T09:57:27Z</time></trkpt><trkpt lat="43.447090689550706" lon="10.88527622246979"><ele>204.0</ele><time>2026-04-04T09:57:28Z</time></trkpt><trkpt lat="43.4470635363886" lon="10.885182862300779"><ele>204.0</ele><time>2026-04-04T09:57:29Z</time></trkpt><trkpt lat="43.447038666632636" lon="10.885087412488978"><ele>204.0</ele><time>2026-04-04T09:57:30Z</time></trkpt><trkpt lat="43.4470168190994" lon="10.88499560486727"><ele>204.0</ele><time>2026-04-04T09:57:31Z</time></trkpt><trkpt lat="43.446993337993625" lon="10.88490156266449"><ele>204.0</ele><time>2026-04-04T09:57:32Z</time></trkpt><trkpt lat="43.44697023070433" lon="10.884809348476118"><ele>204.0</ele><time>2026-04-04T09:57:33Z</time></trkpt><trkpt lat="43.446941929287036" lon="10.884714223937953"><ele>203.16666666666666</ele><time>2026-04-04T09:57:34Z</time></trkpt><trkpt lat="43.446912083535274" lon="10.884607258415928"><ele>202.33333333333331</ele><time>2026-04-04T09:57:35Z</time></trkpt><trkpt lat="43.44688335411803" lon="10.884504933284823"><ele>201.5</ele><time>2026-04-04T09:57:36Z</time></trkpt><trkpt lat="43.44685137978278" lon="10.884397690264779"><ele>200.66666666666666</ele><time>2026-04-04T09:57:37Z</time></trkpt><trkpt lat="43.44682295185401" lon="10.884277318887511"><ele>199.83333333333331</ele><time>2026-04-04T09:57:38Z</time></trkpt><trkpt lat="43.44679877531382" lon="10.884171870822847"><ele>199.0</ele><time>2026-04-04T09:57:39Z</time></trkpt><trkpt lat="43.446772862212796" lon="10.884045394944811"><ele>198.79999999999998</ele><time>2026-04-04T09:57:40Z</time></trkpt><trkpt lat="43.44675048718139" lon="10.88392331268045"><ele>198.6</ele><time>2026-04-04T09:57:41Z</time></trkpt><trkpt lat="43.446728559432756" lon="10.88379381741013"><ele>198.4</ele><time>2026-04-04T09:57:42Z</time></trkpt><trkpt lat="43.44670959291435" lon="10.883667653602531"><ele>198.2</ele><time>2026-04-04T09:57:43Z</time></trkpt><trkpt lat="43.44669836565172" lon="10.883537225070699"><ele>198.0</ele><time>2026-04-04T09:57:44Z</time></trkpt><trkpt lat="43.44668785664183" lon="10.88341300348434"><ele>197.2</ele><time>2026-04-04T09:57:45Z</time></trkpt><trkpt lat="43.44667882641315" lon="10.883272218500556"><ele>196.4</ele><time>2026-04-04T09:57:46Z</time></trkpt><trkpt lat="43.44667031341271" lon="10.883133061690998"><ele>195.6</ele><time>2026-04-04T09:57:47Z</time></trkpt><trkpt lat="43.44666116377945" lon="10.882998268365395"><ele>194.79999999999998</ele><time>2026-04-04T09:57:48Z</time></trkpt><trkpt lat="43.446652386139704" lon="10.882859384926965"><ele>194.0</ele><time>2026-04-04T09:57:49Z</time></trkpt><trkpt lat="43.44664330733537" lon="10.88272824315853"><ele>192.39999999999998</ele><time>2026-04-04T09:57:50Z</time></trkpt><trkpt lat="43.44663226394731" lon="10.882589482288003"><ele>190.8</ele><time>2026-04-04T09:57:51Z</time></trkpt><trkpt lat="43.446622345688965" lon="10.88245961902191"><ele>189.2</ele><time>2026-04-04T09:57:52Z</time></trkpt><trkpt lat="43.44661239200053" lon="10.882314955034921"><ele>187.60000000000002</ele><time>2026-04-04T09:57:53Z</time></trkpt><trkpt lat="43.44660271795987" lon="10.882170174315329"><ele>186.0</ele><time>2026-04-04T09:57:54Z</time></trkpt><trkpt lat="43.44659187362858" lon="10.882022483827962"><ele>186.0</ele><time>2026-04-04T09:57:55Z</time></trkpt><trkpt lat="43.446581218740214" lon="10.88187225991947"><ele>186.0</ele><time>2026-04-04T09:57:56Z</time></trkpt><trkpt lat="43.44657165175437" lon="10.881728608040724"><ele>186.0</ele><time>2026-04-04T09:57:57Z</time></trkpt><trkpt lat="43.44656208242299" lon="10.881586049415146"><ele>186.0</ele><time>2026-04-04T09:57:58Z</time></trkpt><trkpt lat="43.44655487937339" lon="10.881445353807232"><ele>186.0</ele><time>2026-04-04T09:57:59Z</time></trkpt><trkpt lat="43.44654315551779" lon="10.88130439538784"><ele>185.4</ele><time>2026-04-04T09:58:00Z</time></trkpt><trkpt lat="43.4465337319232" lon="10.881162582142807"><ele>184.8</ele><time>2026-04-04T09:58:01Z</time></trkpt><trkpt lat="43.446527326422384" lon="10.881027673975504"><ele>184.20000000000002</ele><time>2026-04-04T09:58:02Z</time></trkpt><trkpt lat="43.44653031525386" lon="10.880888125504269"><ele>183.60000000000002</ele><time>2026-04-04T09:58:03Z</time></trkpt><trkpt lat="43.446535085550174" lon="10.880742855862914"><ele>183.0</ele><time>2026-04-04T09:58:04Z</time></trkpt><trkpt lat="43.44654367130102" lon="10.880590063312473"><ele>182.4</ele><time>2026-04-04T09:58:05Z</time></trkpt><trkpt lat="43.44655771180635" lon="10.880447401897504"><ele>181.8</ele><time>2026-04-04T09:58:06Z</time></trkpt><trkpt lat="43.446575443530044" lon="10.880304193608012"><ele>181.2</ele><time>2026-04-04T09:58:07Z</time></trkpt><trkpt lat="43.44659443425774" lon="10.880179808887203"><ele>180.6</ele><time>2026-04-04T09:58:08Z</time></trkpt><trkpt lat="43.44660908989347" lon="10.880057025543348"><ele>180.0</ele><time>2026-04-04T09:58:09Z</time></trkpt><trkpt lat="43.44661698766224" lon="10.879943169518002"><ele>179.16666666666666</ele><time>2026-04-04T09:58:10Z</time></trkpt><trkpt lat="43.44661394273249" lon="10.87983405302169"><ele>178.33333333333334</ele><time>2026-04-04T09:58:11Z</time></trkpt><trkpt lat="43.4466010293799" lon="10.879711772457487"><ele>177.5</ele><time>2026-04-04T09:58:12Z</time></trkpt><trkpt lat="43.44657039429669" lon="10.879595846983712"><ele>176.66666666666669</ele><time>2026-04-04T09:58:13Z</time></trkpt><trkpt lat="43.4465307777965" lon="10.879488566067145"><ele>175.83333333333334</ele><time>2026-04-04T09:58:14Z</time></trkpt><trkpt lat="43.44648594204362" lon="10.879394320774677"><ele>175.0</ele><time>2026-04-04T09:58:15Z</time></trkpt><trkpt lat="43.4464351794603" lon="10.87930450285961"><ele>174.83333333333334</ele><time>2026-04-04T09:58:16Z</time></trkpt><trkpt lat="43.44638974254371" lon="10.879215635118308"><ele>174.66666666666669</ele><time>2026-04-04T09:58:17Z</time></trkpt><trkpt lat="43.44634940094085" lon="10.879129082022258"><ele>174.5</ele><time>2026-04-04T09:58:18Z</time></trkpt><trkpt lat="43.446311678168044" lon="10.87902871646465"><ele>174.33333333333334</ele><time>2026-04-04T09:58:19Z</time></trkpt><trkpt lat="43.44627788489587" lon="10.878926889339139"><ele>174.16666666666666</ele><time>2026-04-04T09:58:20Z</time></trkpt><trkpt lat="43.44625072482308" lon="10.878810741933064"><ele>174.0</ele><time>2026-04-04T09:58:21Z</time></trkpt><trkpt lat="43.446235241150326" lon="10.87869457549475"><ele>171.5</ele><time>2026-04-04T09:58:22Z</time></trkpt><trkpt lat="43.44622443385385" lon="10.878573348201176"><ele>169.0</ele><time>2026-04-04T09:58:23Z</time></trkpt><trkpt lat="43.44621564943559" lon="10.878460818260391"><ele>166.5</ele><time>2026-04-04T09:58:24Z</time></trkpt><trkpt lat="43.446206973124404" lon="10.878339736946742"><ele>164.0</ele><time>2026-04-04T09:58:25Z</time></trkpt><trkpt lat="43.446199545225575" lon="10.878217576847685"><ele>161.5</ele><time>2026-04-04T09:58:26Z</time></trkpt><trkpt lat="43.44618585629319" lon="10.87810312104752"><ele>159.0</ele><time>2026-04-04T09:58:27Z</time></trkpt><trkpt lat="43.44618128062841" lon="10.87800049464617"><ele>158.83333333333334</ele><time>2026-04-04T09:58:28Z</time></trkpt><trkpt lat="43.446183955030136" lon="10.877903668532868"><ele>158.66666666666666</ele><time>2026-04-04T09:58:29Z</time></trkpt><trkpt lat="43.44619169674623" lon="10.87779611307997"><ele>158.5</ele><time>2026-04-04T09:58:30Z</time></trkpt><trkpt lat="43.446208920788465" lon="10.877689793990012"><ele>158.33333333333331</ele><time>2026-04-04T09:58:31Z</time></trkpt><trkpt lat="43.44624363809149" lon="10.87759162596898"><ele>158.16666666666666</ele><time>2026-04-04T09:58:32Z</time></trkpt><trkpt lat="43.44628798623422" lon="10.877491563974168"><ele>158.0</ele><time>2026-04-04T09:58:33Z</time></trkpt><trkpt lat="43.44634297915408" lon="10.877404407654991"><ele>158.66666666666666</ele><time>2026-04-04T09:58:34Z</time></trkpt><trkpt lat="43.446402380413424" lon="10.877333325848129"><ele>159.33333333333331</ele><time>2026-04-04T09:58:35Z</time></trkpt><trkpt lat="43.44646724248347" lon="10.87726149856608"><ele>160.0</ele><time>2026-04-04T09:58:36Z</time></trkpt><trkpt lat="43.4465370076705" lon="10.877198804871039"><ele>160.66666666666666</ele><time>2026-04-04T09:58:37Z</time></trkpt><trkpt lat="43.44660800190195" lon="10.877148654504738"><ele>161.33333333333334</ele><time>2026-04-04T09:58:38Z</time></trkpt><trkpt lat="43.44669120238273" lon="10.877102708911362"><ele>162.0</ele><time>2026-04-04T09:58:39Z</time></trkpt><trkpt lat="43.446779337361775" lon="10.877065277755278"><ele>162.0</ele><time>2026-04-04T09:58:40Z</time></trkpt><trkpt lat="43.446872582185456" lon="10.877028911307573"><ele>162.0</ele><time>2026-04-04T09:58:41Z</time></trkpt><trkpt lat="43.44696560437148" lon="10.876992792092429"><ele>162.0</ele><time>2026-04-04T09:58:42Z</time></trkpt><trkpt lat="43.447060210313886" lon="10.8769625292465"><ele>162.0</ele><time>2026-04-04T09:58:43Z</time></trkpt><trkpt lat="43.44716557954775" lon="10.876934359982872"><ele>162.0</ele><time>2026-04-04T09:58:44Z</time></trkpt><trkpt lat="43.44727442848431" lon="10.876904297348373"><ele>161.8</ele><time>2026-04-04T09:58:45Z</time></trkpt><trkpt lat="43.447380542550015" lon="10.876880019361474"><ele>161.6</ele><time>2026-04-04T09:58:46Z</time></trkpt><trkpt lat="43.44748982867833" lon="10.876849384049178"><ele>161.4</ele><time>2026-04-04T09:58:47Z</time></trkpt><trkpt lat="43.44759859668306" lon="10.876819328734305"><ele>161.20000000000002</ele><time>2026-04-04T09:58:48Z</time></trkpt><trkpt lat="43.44770260575785" lon="10.876800770865149"><ele>161.0</ele><time>2026-04-04T09:58:49Z</time></trkpt><trkpt lat="43.44779574327371" lon="10.876789399903506"><ele>161.0</ele><time>2026-04-04T09:58:50Z</time></trkpt><trkpt lat="43.44788508980774" lon="10.876786239851846"><ele>161.0</ele><time>2026-04-04T09:58:51Z</time></trkpt><trkpt lat="43.44797083907765" lon="10.876796266783327"><ele>161.0</ele><time>2026-04-04T09:58:52Z</time></trkpt><trkpt lat="43.448054287205345" lon="10.876832264223014"><ele>161.0</ele><time>2026-04-04T09:58:53Z</time></trkpt><trkpt lat="43.448136206265566" lon="10.876886899117036"><ele>161.0</ele><time>2026-04-04T09:58:54Z</time></trkpt><trkpt lat="43.44820954422228" lon="10.876950287583549"><ele>161.0</ele><time>2026-04-04T09:58:55Z</time></trkpt><trkpt lat="43.448264674618024" lon="10.877002124271256"><ele>159.57142857142858</ele><time>2026-04-04T09:58:56Z</time></trkpt><trkpt lat="43.4483240748723" lon="10.877038831612712"><ele>158.14285714285714</ele><time>2026-04-04T09:58:57Z</time></trkpt><trkpt lat="43.44838814216666" lon="10.87705796304398"><ele>156.71428571428572</ele><time>2026-04-04T09:58:58Z</time></trkpt><trkpt lat="43.44845650731065" lon="10.87704624578469"><ele>155.28571428571428</ele><time>2026-04-04T09:58:59Z</time></trkpt><trkpt lat="43.44852623107553" lon="10.877011749029704"><ele>153.85714285714286</ele><time>2026-04-04T09:59:00Z</time></trkpt><trkpt lat="43.44859389774349" lon="10.876962426676643"><ele>152.42857142857144</ele><time>2026-04-04T09:59:01Z</time></trkpt><trkpt lat="43.44865494276444" lon="10.876900443644505"><ele>151.0</ele><time>2026-04-04T09:59:02Z</time></trkpt><trkpt lat="43.44871659112831" lon="10.876818238768722"><ele>149.6</ele><time>2026-04-04T09:59:03Z</time></trkpt><trkpt lat="43.4487669113097" lon="10.876730009856631"><ele>148.2</ele><time>2026-04-04T09:59:04Z</time></trkpt><trkpt lat="43.448820575263525" lon="10.876616814432468"><ele>146.8</ele><time>2026-04-04T09:59:05Z</time></trkpt><trkpt lat="43.4488679075692" lon="10.87650035342309"><ele>145.4</ele><time>2026-04-04T09:59:06Z</time></trkpt><trkpt lat="43.44890831224224" lon="10.876382593492796"><ele>144.0</ele><time>2026-04-04T09:59:07Z</time></trkpt><trkpt lat="43.44894306800118" lon="10.876268783862308"><ele>144.0</ele><time>2026-04-04T09:59:08Z</time></trkpt><trkpt lat="43.44898186141423" lon="10.876158056055253"><ele>144.0</ele><time>2026-04-04T09:59:09Z</time></trkpt><trkpt lat="43.449026262267815" lon="10.876033909589193"><ele>144.0</ele><time>2026-04-04T09:59:10Z</time></trkpt><trkpt lat="43.44906931033021" lon="10.875906225358998"><ele>144.0</ele><time>2026-04-04T09:59:11Z</time></trkpt><trkpt lat="43.44911016067743" lon="10.875778867396003"><ele>144.0</ele><time>2026-04-04T09:59:12Z</time></trkpt><trkpt lat="43.4491535614211" lon="10.875647716271047"><ele>143.6</ele><time>2026-04-04T09:59:13Z</time></trkpt><trkpt lat="43.449196687114245" lon="10.875515383736168"><ele>143.2</ele><time>2026-04-04T09:59:14Z</time></trkpt><trkpt lat="43.44924474660091" lon="10.87536951285801"><ele>142.79999999999998</ele><time>2026-04-04T09:59:15Z</time></trkpt><trkpt lat="43.44929452013943" lon="10.875227447081112"><ele>142.4</ele><time>2026-04-04T09:59:16Z</time></trkpt><trkpt lat="43.449339175141425" lon="10.875085704593724"><ele>142.0</ele><time>2026-04-04T09:59:17Z</time></trkpt><trkpt lat="43.44938580057164" lon="10.874939842634575"><ele>141.5</ele><time>2026-04-04T09:59:18Z</time></trkpt><trkpt lat="43.44943800212962" lon="10.87478111885481"><ele>141.0</ele><time>2026-04-04T09:59:19Z</time></trkpt><trkpt lat="43.44949118717938" lon="10.87461499636078"><ele>140.5</ele><time>2026-04-04T09:59:20Z</time></trkpt><trkpt lat="43.449546211115006" lon="10.874453373861066"><ele>140.0</ele><time>2026-04-04T09:59:21Z</time></trkpt><trkpt lat="43.44960375146346" lon="10.874301773232096"><ele>141.0</ele><time>2026-04-04T09:59:22Z</time></trkpt><trkpt lat="43.44966194221096" lon="10.874166826533543"><ele>142.0</ele><time>2026-04-04T09:59:23Z</time></trkpt><trkpt lat="43.44973063553693" lon="10.874033247505661"><ele>143.0</ele><time>2026-04-04T09:59:24Z</time></trkpt><trkpt lat="43.44981795784612" lon="10.87389616434695"><ele>144.0</ele><time>2026-04-04T09:59:25Z</time></trkpt><trkpt lat="43.44991378478947" lon="10.87376657701451"><ele>144.0</ele><time>2026-04-04T09:59:26Z</time></trkpt><trkpt lat="43.45001192660367" lon="10.873633701053068"><ele>144.0</ele><time>2026-04-04T09:59:27Z</time></trkpt><trkpt lat="43.45011097894853" lon="10.873502813097145"><ele>144.0</ele><time>2026-04-04T09:59:28Z</time></trkpt><trkpt lat="43.450206853612116" lon="10.8733711631633"><ele>144.0</ele><time>2026-04-04T09:59:29Z</time></trkpt><trkpt lat="43.45030102288936" lon="10.873238520633556"><ele>143.0</ele><time>2026-04-04T09:59:30Z</time></trkpt><trkpt lat="43.45039040596814" lon="10.873112072503869"><ele>142.0</ele><time>2026-04-04T09:59:31Z</time></trkpt><trkpt lat="43.45048038208807" lon="10.872988569340796"><ele>141.0</ele><time>2026-04-04T09:59:32Z</time></trkpt><trkpt lat="43.4505639352183" lon="10.872872106656475"><ele>140.0</ele><time>2026-04-04T09:59:33Z</time></trkpt><trkpt lat="43.45065002427339" lon="10.872750338190903"><ele>140.0</ele><time>2026-04-04T09:59:34Z</time></trkpt><trkpt lat="43.45073932130967" lon="10.872625502005997"><ele>140.0</ele><time>2026-04-04T09:59:35Z</time></trkpt><trkpt lat="43.450834335289784" lon="10.872494482651376"><ele>140.0</ele><time>2026-04-04T09:59:36Z</time></trkpt><trkpt lat="43.45093083581336" lon="10.872361305659691"><ele>140.0</ele><time>2026-04-04T09:59:37Z</time></trkpt><trkpt lat="43.45102682097578" lon="10.872228106257884"><ele>139.0</ele><time>2026-04-04T09:59:38Z</time></trkpt><trkpt lat="43.45112129317872" lon="10.872103683965936"><ele>138.0</ele><time>2026-04-04T09:59:39Z</time></trkpt><trkpt lat="43.45122114809151" lon="10.871983938184195"><ele>137.0</ele><time>2026-04-04T09:59:40Z</time></trkpt><trkpt lat="43.45131865089874" lon="10.87188008226665"><ele>136.0</ele><time>2026-04-04T09:59:41Z</time></trkpt><trkpt lat="43.45142388312202" lon="10.871776566430933"><ele>136.5</ele><time>2026-04-04T09:59:42Z</time></trkpt><trkpt lat="43.45153627981205" lon="10.871671873619432"><ele>137.0</ele><time>2026-04-04T09:59:43Z</time></trkpt><trkpt lat="43.45164949391229" lon="10.87156840251443"><ele>137.5</ele><time>2026-04-04T09:59:44Z</time></trkpt><trkpt lat="43.4517628867839" lon="10.871465979995191"><ele>138.0</ele><time>2026-04-04T09:59:45Z</time></trkpt><trkpt lat="43.45187939026304" lon="10.871359306254883"><ele>138.0</ele><time>2026-04-04T09:59:46Z</time></trkpt><trkpt lat="43.45199503462064" lon="10.871246666338628"><ele>138.0</ele><time>2026-04-04T09:59:47Z</time></trkpt><trkpt lat="43.45210904824799" lon="10.87113312709366"><ele>138.0</ele><time>2026-04-04T09:59:48Z</time></trkpt><trkpt lat="43.45222021330696" lon="10.871020652034064"><ele>138.0</ele><time>2026-04-04T09:59:49Z</time></trkpt><trkpt lat="43.45233215209232" lon="10.870913296997326"><ele>137.5</ele><time>2026-04-04T09:59:50Z</time></trkpt><trkpt lat="43.45243504306654" lon="10.870812867188839"><ele>137.0</ele><time>2026-04-04T09:59:51Z</time></trkpt><trkpt lat="43.45253065560941" lon="10.870720583463015"><ele>136.5</ele><time>2026-04-04T09:59:52Z</time></trkpt><trkpt lat="43.452615567535126" lon="10.870637862517754"><ele>136.0</ele><time>2026-04-04T09:59:53Z</time></trkpt><trkpt lat="43.452699338396265" lon="10.870548844752577"><ele>136.0</ele><time>2026-04-04T09:59:54Z</time></trkpt><trkpt lat="43.45277818432584" lon="10.870459340720032"><ele>136.0</ele><time>2026-04-04T09:59:55Z</time></trkpt><trkpt lat="43.452843613047335" lon="10.870359139785391"><ele>136.0</ele><time>2026-04-04T09:59:56Z</time></trkpt><trkpt lat="43.45289447741555" lon="10.870245848133294"><ele>136.0</ele><time>2026-04-04T09:59:57Z</time></trkpt><trkpt lat="43.45293307166711" lon="10.870116489073018"><ele>136.0</ele><time>2026-04-04T09:59:58Z</time></trkpt><trkpt lat="43.45295805162294" lon="10.869972612186219"><ele>135.25</ele><time>2026-04-04T09:59:59Z</time></trkpt><trkpt lat="43.45298285342434" lon="10.86980488287356"><ele>134.5</ele><time>2026-04-04T10:00:00Z</time></trkpt><trkpt lat="43.45300807599245" lon="10.869609995368206"><ele>133.75</ele><time>2026-04-04T10:00:01Z</time></trkpt><trkpt lat="43.453028133919226" lon="10.869412141828812"><ele>133.0</ele><time>2026-04-04T10:00:02Z</time></trkpt><trkpt lat="43.453047865955185" lon="10.869212706897875"><ele>133.0</ele><time>2026-04-04T10:00:03Z</time></trkpt><trkpt lat="43.45306758926698" lon="10.869032286883726"><ele>133.0</ele><time>2026-04-04T10:00:04Z</time></trkpt><trkpt lat="43.45309153045364" lon="10.86885917729602"><ele>133.0</ele><time>2026-04-04T10:00:05Z</time></trkpt><trkpt lat="43.45311978405321" lon="10.86869961989261"><ele>133.0</ele><time>2026-04-04T10:00:06Z</time></trkpt><trkpt lat="43.45316134766148" lon="10.86853975588219"><ele>133.0</ele><time>2026-04-04T10:00:07Z</time></trkpt><trkpt lat="43.45322851958436" lon="10.868363296601537"><ele>133.0</ele><time>2026-04-04T10:00:08Z</time></trkpt><trkpt lat="43.453304690425036" lon="10.868175863656578"><ele>133.0</ele><time>2026-04-04T10:00:09Z</time></trkpt><trkpt lat="43.45338367183779" lon="10.86799468342138"><ele>133.0</ele><time>2026-04-04T10:00:10Z</time></trkpt><trkpt lat="43.45345699748718" lon="10.867831673247352"><ele>133.0</ele><time>2026-04-04T10:00:11Z</time></trkpt><trkpt lat="43.453526945764104" lon="10.86767059502572"><ele>133.0</ele><time>2026-04-04T10:00:12Z</time></trkpt><trkpt lat="43.45359494671138" lon="10.86751046317774"><ele>133.0</ele><time>2026-04-04T10:00:13Z</time></trkpt><trkpt lat="43.453663585699324" lon="10.86734810564751"><ele>133.25</ele><time>2026-04-04T10:00:14Z</time></trkpt><trkpt lat="43.453722745735526" lon="10.867189130220808"><ele>133.5</ele><time>2026-04-04T10:00:15Z</time></trkpt><trkpt lat="43.45377269136507" lon="10.867029288046574"><ele>133.75</ele><time>2026-04-04T10:00:16Z</time></trkpt><trkpt lat="43.45381360714523" lon="10.866866752529424"><ele>134.0</ele><time>2026-04-04T10:00:17Z</time></trkpt><trkpt lat="43.45384802649929" lon="10.866702214618963"><ele>134.0</ele><time>2026-04-04T10:00:18Z</time></trkpt><trkpt lat="43.45387676358168" lon="10.86652700118168"><ele>134.0</ele><time>2026-04-04T10:00:19Z</time></trkpt><trkpt lat="43.453899429847084" lon="10.866338365655018"><ele>134.0</ele><time>2026-04-04T10:00:20Z</time></trkpt><trkpt lat="43.453916568671445" lon="10.866136460450655"><ele>134.0</ele><time>2026-04-04T10:00:21Z</time></trkpt><trkpt lat="43.453930534490375" lon="10.865931436536066"><ele>132.75</ele><time>2026-04-04T10:00:22Z</time></trkpt><trkpt lat="43.453940124782974" lon="10.865727792596259"><ele>131.5</ele><time>2026-04-04T10:00:23Z</time></trkpt><trkpt lat="43.45395183340295" lon="10.86553430436448"><ele>130.25</ele><time>2026-04-04T10:00:24Z</time></trkpt><trkpt lat="43.4539614701199" lon="10.86536439533375"><ele>129.0</ele><time>2026-04-04T10:00:25Z</time></trkpt><trkpt lat="43.45397074947662" lon="10.865195304285338"><ele>127.75</ele><time>2026-04-04T10:00:26Z</time></trkpt><trkpt lat="43.45398049753968" lon="10.865028424539283"><ele>126.5</ele><time>2026-04-04T10:00:27Z</time></trkpt><trkpt lat="43.45399004109741" lon="10.864855966912025"><ele>125.25</ele><time>2026-04-04T10:00:28Z</time></trkpt><trkpt lat="43.45399803999715" lon="10.86467211478164"><ele>124.0</ele><time>2026-04-04T10:00:29Z</time></trkpt><trkpt lat="43.45399016556468" lon="10.864484757246183"><ele>123.33333333333334</ele><time>2026-04-04T10:00:30Z</time></trkpt><trkpt lat="43.45395701614155" lon="10.86427583375047"><ele>122.66666666666666</ele><time>2026-04-04T10:00:31Z</time></trkpt><trkpt lat="43.453910520533924" lon="10.864045498969515"><ele>122.0</ele><time>2026-04-04T10:00:32Z</time></trkpt><trkpt lat="43.45386261387885" lon="10.86382002793209"><ele>122.0</ele><time>2026-04-04T10:00:33Z</time></trkpt><trkpt lat="43.45381837597729" lon="10.863593551754558"><ele>122.0</ele><time>2026-04-04T10:00:34Z</time></trkpt><trkpt lat="43.45377680491893" lon="10.863371561806298"><ele>122.0</ele><time>2026-04-04T10:00:35Z</time></trkpt><trkpt lat="43.45373207428299" lon="10.8631428411708"><ele>122.0</ele><time>2026-04-04T10:00:36Z</time></trkpt><trkpt lat="43.45368522872473" lon="10.86292613209904"><ele>122.0</ele><time>2026-04-04T10:00:37Z</time></trkpt><trkpt lat="43.45364018262376" lon="10.862703568946516"><ele>122.0</ele><time>2026-04-04T10:00:38Z</time></trkpt><trkpt lat="43.453594808215854" lon="10.862483722737796"><ele>122.0</ele><time>2026-04-04T10:00:39Z</time></trkpt><trkpt lat="43.45355300621777" lon="10.862267463808273"><ele>122.0</ele><time>2026-04-04T10:00:40Z</time></trkpt><trkpt lat="43.45351366712181" lon="10.862057638785709"><ele>122.0</ele><time>2026-04-04T10:00:41Z</time></trkpt><trkpt lat="43.45347287195014" lon="10.861856825199451"><ele>122.0</ele><time>2026-04-04T10:00:42Z</time></trkpt><trkpt lat="43.45343585108182" lon="10.861669670658994"><ele>122.0</ele><time>2026-04-04T10:00:43Z</time></trkpt><trkpt lat="43.453399331587306" lon="10.861497209424439"><ele>122.0</ele><time>2026-04-04T10:00:44Z</time></trkpt><trkpt lat="43.45336750448058" lon="10.861337632472269"><ele>122.0</ele><time>2026-04-04T10:00:45Z</time></trkpt><trkpt lat="43.45333945251769" lon="10.861192559081589"><ele>121.99999999999999</ele><time>2026-04-04T10:00:46Z</time></trkpt><trkpt lat="43.4533137266839" lon="10.861061968183213"><ele>122.0</ele><time>2026-04-04T10:00:47Z</time></trkpt><trkpt lat="43.45328827998513" lon="10.860944778893566"><ele>122.0</ele><time>2026-04-04T10:00:48Z</time></trkpt><trkpt lat="43.45325667939571" lon="10.860777748886626"><ele>122.0</ele><time>2026-04-04T10:00:50Z</time></trkpt><trkpt lat="43.45329058088679" lon="10.860699820276054"><ele>121.99999999999999</ele><time>2026-04-04T10:00:52Z</time></trkpt><trkpt lat="43.45335903469236" lon="10.860702647505493"><ele>122.0</ele><time>2026-04-04T10:00:54Z</time></trkpt><trkpt lat="43.45349630264503" lon="10.860742726160538"><ele>122.33333333333333</ele><time>2026-04-04T10:00:56Z</time></trkpt><trkpt lat="43.45357376575575" lon="10.860765186367338"><ele>122.66666666666666</ele><time>2026-04-04T10:00:57Z</time></trkpt><trkpt lat="43.45365695674254" lon="10.860788213896315"><ele>123.0</ele><time>2026-04-04T10:00:58Z</time></trkpt><trkpt lat="43.45373228588315" lon="10.860798705830543"><ele>123.33333333333334</ele><time>2026-04-04T10:00:59Z</time></trkpt><trkpt lat="43.453799365819634" lon="10.860780269170514"><ele>123.66666666666667</ele><time>2026-04-04T10:01:00Z</time></trkpt><trkpt lat="43.45387711368007" lon="10.860744441585279"><ele>124.0</ele><time>2026-04-04T10:01:01Z</time></trkpt><trkpt lat="43.453967330924186" lon="10.860703983436268"><ele>124.66666666666667</ele><time>2026-04-04T10:01:02Z</time></trkpt><trkpt lat="43.45404502324876" lon="10.860675345139587"><ele>125.33333333333334</ele><time>2026-04-04T10:01:03Z</time></trkpt><trkpt lat="43.4541163855809" lon="10.860676324773427"><ele>126.0</ele><time>2026-04-04T10:01:04Z</time></trkpt><trkpt lat="43.45420192447102" lon="10.860704054923215"><ele>126.66666666666666</ele><time>2026-04-04T10:01:05Z</time></trkpt><trkpt lat="43.45429868310527" lon="10.860746055241824"><ele>127.33333333333333</ele><time>2026-04-04T10:01:06Z</time></trkpt><trkpt lat="43.45439490465181" lon="10.86079713376986"><ele>128.0</ele><time>2026-04-04T10:01:07Z</time></trkpt><trkpt lat="43.454496311103945" lon="10.860857588887326"><ele>128.0</ele><time>2026-04-04T10:01:08Z</time></trkpt><trkpt lat="43.45459367368365" lon="10.86091844700636"><ele>128.0</ele><time>2026-04-04T10:01:09Z</time></trkpt><trkpt lat="43.45468363608323" lon="10.860980276615527"><ele>128.0</ele><time>2026-04-04T10:01:10Z</time></trkpt><trkpt lat="43.454775854237916" lon="10.861031384986168"><ele>128.0</ele><time>2026-04-04T10:01:11Z</time></trkpt><trkpt lat="43.45486312124802" lon="10.861073823031221"><ele>128.0</ele><time>2026-04-04T10:01:12Z</time></trkpt><trkpt lat="43.45495446606979" lon="10.861110006901736"><ele>128.0</ele><time>2026-04-04T10:01:13Z</time></trkpt><trkpt lat="43.455060292983894" lon="10.861148978331855"><ele>128.0</ele><time>2026-04-04T10:01:14Z</time></trkpt><trkpt lat="43.45517313795929" lon="10.861189086358731"><ele>128.0</ele><time>2026-04-04T10:01:15Z</time></trkpt><trkpt lat="43.45527094545753" lon="10.861206914976972"><ele>128.0</ele><time>2026-04-04T10:01:16Z</time></trkpt><trkpt lat="43.45537036744526" lon="10.861204081005951"><ele>128.0</ele><time>2026-04-04T10:01:17Z</time></trkpt><trkpt lat="43.45546907809651" lon="10.861203715537842"><ele>128.6</ele><time>2026-04-04T10:01:18Z</time></trkpt><trkpt lat="43.45556209218613" lon="10.861239948970782"><ele>129.20000000000002</ele><time>2026-04-04T10:01:19Z</time></trkpt><trkpt lat="43.45564881080504" lon="10.86131342466444"><ele>129.8</ele><time>2026-04-04T10:01:20Z</time></trkpt><trkpt lat="43.4557354819007" lon="10.861412358434457"><ele>130.4</ele><time>2026-04-04T10:01:21Z</time></trkpt><trkpt lat="43.455816807932365" lon="10.861514727628833"><ele>131.0</ele><time>2026-04-04T10:01:22Z</time></trkpt><trkpt lat="43.45588598343728" lon="10.861598626237635"><ele>131.0</ele><time>2026-04-04T10:01:23Z</time></trkpt><trkpt lat="43.45595242919115" lon="10.861676865926043"><ele>131.0</ele><time>2026-04-04T10:01:24Z</time></trkpt><trkpt lat="43.45601836786731" lon="10.861764047308771"><ele>131.0</ele><time>2026-04-04T10:01:25Z</time></trkpt><trkpt lat="43.45607549245475" lon="10.8618576555429"><ele>131.0</ele><time>2026-04-04T10:01:26Z</time></trkpt><trkpt lat="43.45613614417733" lon="10.861956767454807"><ele>131.0</ele><time>2026-04-04T10:01:27Z</time></trkpt><trkpt lat="43.45619523224332" lon="10.862055539402846"><ele>130.66666666666666</ele><time>2026-04-04T10:01:28Z</time></trkpt><trkpt lat="43.45625837896946" lon="10.862151480738435"><ele>130.33333333333331</ele><time>2026-04-04T10:01:29Z</time></trkpt><trkpt lat="43.45632752479864" lon="10.862245691382217"><ele>130.0</ele><time>2026-04-04T10:01:30Z</time></trkpt><trkpt lat="43.456392637670056" lon="10.862325564361548"><ele>129.66666666666666</ele><time>2026-04-04T10:01:31Z</time></trkpt><trkpt lat="43.456458236658285" lon="10.86237942241919"><ele>129.33333333333334</ele><time>2026-04-04T10:01:32Z</time></trkpt><trkpt lat="43.456538334658475" lon="10.862424047400662"><ele>129.0</ele><time>2026-04-04T10:01:33Z</time></trkpt><trkpt lat="43.45662276838049" lon="10.862464227043379"><ele>129.0</ele><time>2026-04-04T10:01:34Z</time></trkpt><trkpt lat="43.456706903689" lon="10.862498964389903"><ele>129.0</ele><time>2026-04-04T10:01:35Z</time></trkpt><trkpt lat="43.456798557182715" lon="10.862517518708724"><ele>129.0</ele><time>2026-04-04T10:01:36Z</time></trkpt><trkpt lat="43.45689817990963" lon="10.862533071305648"><ele>129.0</ele><time>2026-04-04T10:01:37Z</time></trkpt><trkpt lat="43.456992521818314" lon="10.862543384098345"><ele>129.0</ele><time>2026-04-04T10:01:38Z</time></trkpt><trkpt lat="43.457082364965274" lon="10.86254697610966"><ele>128.8</ele><time>2026-04-04T10:01:39Z</time></trkpt><trkpt lat="43.457163949027425" lon="10.862567960425691"><ele>128.60000000000002</ele><time>2026-04-04T10:01:40Z</time></trkpt><trkpt lat="43.457240148695234" lon="10.862615998433673"><ele>128.4</ele><time>2026-04-04T10:01:41Z</time></trkpt><trkpt lat="43.45732088515124" lon="10.862686022511518"><ele>128.20000000000002</ele><time>2026-04-04T10:01:42Z</time></trkpt><trkpt lat="43.45740542268332" lon="10.862749145657688"><ele>128.0</ele><time>2026-04-04T10:01:43Z</time></trkpt><trkpt lat="43.457486595010714" lon="10.862820771913947"><ele>127.99999999999999</ele><time>2026-04-04T10:01:44Z</time></trkpt><trkpt lat="43.45755665277649" lon="10.862899833358512"><ele>128.0</ele><time>2026-04-04T10:01:45Z</time></trkpt><trkpt lat="43.45762155791163" lon="10.86297266088975"><ele>128.0</ele><time>2026-04-04T10:01:46Z</time></trkpt><trkpt lat="43.45769600415584" lon="10.863026742929238"><ele>128.0</ele><time>2026-04-04T10:01:47Z</time></trkpt><trkpt lat="43.457779782837456" lon="10.863056838626711"><ele>127.99999999999999</ele><time>2026-04-04T10:01:48Z</time></trkpt><trkpt lat="43.45787962355565" lon="10.863073063075168"><ele>128.0</ele><time>2026-04-04T10:01:49Z</time></trkpt><trkpt lat="43.457985518042285" lon="10.863085719417246"><ele>129.0</ele><time>2026-04-04T10:01:50Z</time></trkpt><trkpt lat="43.45808818495387" lon="10.863094853577692"><ele>130.0</ele><time>2026-04-04T10:01:51Z</time></trkpt><trkpt lat="43.458185517094826" lon="10.863109523899759"><ele>131.0</ele><time>2026-04-04T10:01:52Z</time></trkpt><trkpt lat="43.458266970491906" lon="10.863142906949532"><ele>132.0</ele><time>2026-04-04T10:01:53Z</time></trkpt><trkpt lat="43.45833848729207" lon="10.863197514278866"><ele>133.0</ele><time>2026-04-04T10:01:54Z</time></trkpt><trkpt lat="43.45841381916392" lon="10.863277695726698"><ele>133.0</ele><time>2026-04-04T10:01:55Z</time></trkpt><trkpt lat="43.4584896666014" lon="10.863362916121064"><ele>133.0</ele><time>2026-04-04T10:01:56Z</time></trkpt><trkpt lat="43.45855937647728" lon="10.863460691579672"><ele>133.0</ele><time>2026-04-04T10:01:57Z</time></trkpt><trkpt lat="43.458606940999395" lon="10.863573083225889"><ele>133.0</ele><time>2026-04-04T10:01:58Z</time></trkpt><trkpt lat="43.458642663419326" lon="10.86370527351385"><ele>133.0</ele><time>2026-04-04T10:01:59Z</time></trkpt><trkpt lat="43.45866660481033" lon="10.863839041134012"><ele>133.0</ele><time>2026-04-04T10:02:00Z</time></trkpt><trkpt lat="43.4586883135633" lon="10.863959646546027"><ele>133.0</ele><time>2026-04-04T10:02:01Z</time></trkpt><trkpt lat="43.4587246063114" lon="10.864081412557786"><ele>133.0</ele><time>2026-04-04T10:02:02Z</time></trkpt><trkpt lat="43.458773199965854" lon="10.864185759531178"><ele>133.0</ele><time>2026-04-04T10:02:03Z</time></trkpt><trkpt lat="43.45883523080568" lon="10.8642811423585"><ele>133.0</ele><time>2026-04-04T10:02:04Z</time></trkpt><trkpt lat="43.458911579761335" lon="10.864375124705623"><ele>133.0</ele><time>2026-04-04T10:02:05Z</time></trkpt><trkpt lat="43.45900190315353" lon="10.86447758998561"><ele>133.0</ele><time>2026-04-04T10:02:06Z</time></trkpt><trkpt lat="43.459087547006035" lon="10.864576470742533"><ele>133.0</ele><time>2026-04-04T10:02:07Z</time></trkpt><trkpt lat="43.459174093235696" lon="10.864676006690733"><ele>133.0</ele><time>2026-04-04T10:02:08Z</time></trkpt><trkpt lat="43.459255336379236" lon="10.864776559120205"><ele>133.0</ele><time>2026-04-04T10:02:09Z</time></trkpt><trkpt lat="43.45932886684823" lon="10.864869803971551"><ele>133.0</ele><time>2026-04-04T10:02:10Z</time></trkpt><trkpt lat="43.459402428976006" lon="10.86495509474325"><ele>133.0</ele><time>2026-04-04T10:02:11Z</time></trkpt><trkpt lat="43.45946856816341" lon="10.865030625521852"><ele>133.0</ele><time>2026-04-04T10:02:12Z</time></trkpt><trkpt lat="43.45953843684461" lon="10.865110913199114"><ele>133.0</ele><time>2026-04-04T10:02:13Z</time></trkpt><trkpt lat="43.459605276455754" lon="10.865187795273584"><ele>133.6</ele><time>2026-04-04T10:02:14Z</time></trkpt><trkpt lat="43.45967664812998" lon="10.865273504246527"><ele>134.20000000000002</ele><time>2026-04-04T10:02:15Z</time></trkpt><trkpt lat="43.459746573793936" lon="10.865365574013817"><ele>134.8</ele><time>2026-04-04T10:02:16Z</time></trkpt><trkpt lat="43.45982526114179" lon="10.865451606056473"><ele>135.4</ele><time>2026-04-04T10:02:17Z</time></trkpt><trkpt lat="43.45990412969763" lon="10.865537071734494"><ele>136.0</ele><time>2026-04-04T10:02:18Z</time></trkpt><trkpt lat="43.45997657706775" lon="10.865618642687748"><ele>136.0</ele><time>2026-04-04T10:02:19Z</time></trkpt><trkpt lat="43.46005347938424" lon="10.865695931990734"><ele>136.0</ele><time>2026-04-04T10:02:20Z</time></trkpt><trkpt lat="43.46012994560859" lon="10.865769334844453"><ele>136.0</ele><time>2026-04-04T10:02:21Z</time></trkpt><trkpt lat="43.46021057607305" lon="10.865855759312934"><ele>136.0</ele><time>2026-04-04T10:02:22Z</time></trkpt><trkpt lat="43.46028984697361" lon="10.865946551956029"><ele>136.0</ele><time>2026-04-04T10:02:23Z</time></trkpt><trkpt lat="43.460368740666496" lon="10.866026134318512"><ele>135.4</ele><time>2026-04-04T10:02:24Z</time></trkpt><trkpt lat="43.460449900070834" lon="10.866105717845036"><ele>134.8</ele><time>2026-04-04T10:02:25Z</time></trkpt><trkpt lat="43.460536495060694" lon="10.866192719404042"><ele>134.20000000000002</ele><time>2026-04-04T10:02:26Z</time></trkpt><trkpt lat="43.46062105608" lon="10.866281171022372"><ele>133.6</ele><time>2026-04-04T10:02:27Z</time></trkpt><trkpt lat="43.46071007864011" lon="10.866368037255848"><ele>133.0</ele><time>2026-04-04T10:02:28Z</time></trkpt><trkpt lat="43.46079421974578" lon="10.86645601081476"><ele>133.0</ele><time>2026-04-04T10:02:29Z</time></trkpt><trkpt lat="43.46088112778114" lon="10.866548183091794"><ele>133.0</ele><time>2026-04-04T10:02:30Z</time></trkpt><trkpt lat="43.46096742218647" lon="10.86665446617242"><ele>133.0</ele><time>2026-04-04T10:02:31Z</time></trkpt><trkpt lat="43.461050073413425" lon="10.866770762907885"><ele>133.0</ele><time>2026-04-04T10:02:32Z</time></trkpt><trkpt lat="43.461126566552856" lon="10.866899930792423"><ele>132.8</ele><time>2026-04-04T10:02:33Z</time></trkpt><trkpt lat="43.46119702170294" lon="10.867023125986767"><ele>132.60000000000002</ele><time>2026-04-04T10:02:34Z</time></trkpt><trkpt lat="43.461269597883074" lon="10.867135419210985"><ele>132.39999999999998</ele><time>2026-04-04T10:02:35Z</time></trkpt><trkpt lat="43.46134519706153" lon="10.867244359527255"><ele>132.2</ele><time>2026-04-04T10:02:36Z</time></trkpt><trkpt lat="43.461421508221264" lon="10.867353505707081"><ele>132.0</ele><time>2026-04-04T10:02:37Z</time></trkpt><trkpt lat="43.461496493347866" lon="10.86746111382582"><ele>133.0</ele><time>2026-04-04T10:02:38Z</time></trkpt><trkpt lat="43.46157240021853" lon="10.867568135640907"><ele>134.0</ele><time>2026-04-04T10:02:39Z</time></trkpt><trkpt lat="43.461642670457955" lon="10.867660388747192"><ele>135.0</ele><time>2026-04-04T10:02:40Z</time></trkpt><trkpt lat="43.46171397301768" lon="10.8677352931815"><ele>136.0</ele><time>2026-04-04T10:02:41Z</time></trkpt><trkpt lat="43.46179039595043" lon="10.867802114524398"><ele>137.0</ele><time>2026-04-04T10:02:42Z</time></trkpt><trkpt lat="43.46186566772048" lon="10.867864245760282"><ele>137.0</ele><time>2026-04-04T10:02:43Z</time></trkpt><trkpt lat="43.46194286429911" lon="10.867935141646079"><ele>137.0</ele><time>2026-04-04T10:02:44Z</time></trkpt><trkpt lat="43.462019740118585" lon="10.868008399059457"><ele>137.0</ele><time>2026-04-04T10:02:45Z</time></trkpt><trkpt lat="43.46209943346487" lon="10.868087990849387"><ele>137.0</ele><time>2026-04-04T10:02:46Z</time></trkpt><trkpt lat="43.4621748282016" lon="10.868161217510515"><ele>137.0</ele><time>2026-04-04T10:02:47Z</time></trkpt><trkpt lat="43.46225819658699" lon="10.868237858417649"><ele>137.33333333333331</ele><time>2026-04-04T10:02:48Z</time></trkpt><trkpt lat="43.46233627358835" lon="10.868312156683068"><ele>137.66666666666666</ele><time>2026-04-04T10:02:49Z</time></trkpt><trkpt lat="43.46241593487743" lon="10.868378667713914"><ele>138.0</ele><time>2026-04-04T10:02:50Z</time></trkpt><trkpt lat="43.462490963714686" lon="10.868434757397868"><ele>138.33333333333334</ele><time>2026-04-04T10:02:51Z</time></trkpt><trkpt lat="43.46257037843067" lon="10.868486711732272"><ele>138.66666666666669</ele><time>2026-04-04T10:02:52Z</time></trkpt><trkpt lat="43.462649271992156" lon="10.86852618627309"><ele>139.0</ele><time>2026-04-04T10:02:53Z</time></trkpt><trkpt lat="43.46273629736581" lon="10.868563367447065"><ele>139.0</ele><time>2026-04-04T10:02:54Z</time></trkpt><trkpt lat="43.46281856703096" lon="10.868595983306706"><ele>139.0</ele><time>2026-04-04T10:02:55Z</time></trkpt><trkpt lat="43.46289285061402" lon="10.868617410497013"><ele>139.0</ele><time>2026-04-04T10:02:56Z</time></trkpt><trkpt lat="43.46297325735943" lon="10.868623851042312"><ele>139.0</ele><time>2026-04-04T10:02:57Z</time></trkpt><trkpt lat="43.4630534935149" lon="10.868615136332776"><ele>139.0</ele><time>2026-04-04T10:02:58Z</time></trkpt><trkpt lat="43.46312352519201" lon="10.86859001951865"><ele>139.0</ele><time>2026-04-04T10:02:59Z</time></trkpt><trkpt lat="43.46319168077692" lon="10.868551498517796"><ele>140.0</ele><time>2026-04-04T10:03:00Z</time></trkpt><trkpt lat="43.46325901074607" lon="10.868492608762747"><ele>141.0</ele><time>2026-04-04T10:03:01Z</time></trkpt><trkpt lat="43.46333087511364" lon="10.868424660877112"><ele>142.0</ele><time>2026-04-04T10:03:02Z</time></trkpt><trkpt lat="43.46341020856682" lon="10.868345105535216"><ele>143.0</ele><time>2026-04-04T10:03:03Z</time></trkpt><trkpt lat="43.463486915076494" lon="10.868263411012784"><ele>144.0</ele><time>2026-04-04T10:03:04Z</time></trkpt><trkpt lat="43.463573485571196" lon="10.868179170146378"><ele>146.2</ele><time>2026-04-04T10:03:05Z</time></trkpt><trkpt lat="43.463668713128065" lon="10.868087296276286"><ele>148.4</ele><time>2026-04-04T10:03:06Z</time></trkpt><trkpt lat="43.46376218299413" lon="10.867998184697063"><ele>150.6</ele><time>2026-04-04T10:03:07Z</time></trkpt><trkpt lat="43.463850529444244" lon="10.867917532975225"><ele>152.8</ele><time>2026-04-04T10:03:08Z</time></trkpt><trkpt lat="43.46393034280596" lon="10.867852225561968"><ele>155.0</ele><time>2026-04-04T10:03:09Z</time></trkpt><trkpt lat="43.46401516652155" lon="10.867802013385749"><ele>155.0</ele><time>2026-04-04T10:03:10Z</time></trkpt><trkpt lat="43.464103571353874" lon="10.867770901524583"><ele>155.0</ele><time>2026-04-04T10:03:11Z</time></trkpt><trkpt lat="43.46419388386746" lon="10.867754249661411"><ele>155.0</ele><time>2026-04-04T10:03:12Z</time></trkpt><trkpt lat="43.464285817911104" lon="10.867756530279514"><ele>155.0</ele><time>2026-04-04T10:03:13Z</time></trkpt><trkpt lat="43.464378243803" lon="10.867763653681486"><ele>155.0</ele><time>2026-04-04T10:03:14Z</time></trkpt><trkpt lat="43.464467004872034" lon="10.86776929145668"><ele>155.0</ele><time>2026-04-04T10:03:15Z</time></trkpt><trkpt lat="43.46455092527415" lon="10.8677729760938"><ele>155.0</ele><time>2026-04-04T10:03:16Z</time></trkpt><trkpt lat="43.46463413936211" lon="10.86777166458044"><ele>155.0</ele><time>2026-04-04T10:03:17Z</time></trkpt><trkpt lat="43.46471639668987" lon="10.867767269748633"><ele>155.0</ele><time>2026-04-04T10:03:18Z</time></trkpt><trkpt lat="43.46479702608162" lon="10.867762137532964"><ele>155.0</ele><time>2026-04-04T10:03:19Z</time></trkpt><trkpt lat="43.46487984978692" lon="10.867757235773858"><ele>155.0</ele><time>2026-04-04T10:03:20Z</time></trkpt><trkpt lat="43.46496932718398" lon="10.867745368463464"><ele>155.83333333333331</ele><time>2026-04-04T10:03:21Z</time></trkpt><trkpt lat="43.4650516865953" lon="10.867734481509299"><ele>156.66666666666666</ele><time>2026-04-04T10:03:22Z</time></trkpt><trkpt lat="43.46513233501224" lon="10.867722300206383"><ele>157.5</ele><time>2026-04-04T10:03:23Z</time></trkpt><trkpt lat="43.4652239435238" lon="10.86771789236092"><ele>158.33333333333334</ele><time>2026-04-04T10:03:24Z</time></trkpt><trkpt lat="43.46531560386518" lon="10.867703678780938"><ele>159.16666666666669</ele><time>2026-04-04T10:03:25Z</time></trkpt><trkpt lat="43.46540504498141" lon="10.86768740997993"><ele>160.0</ele><time>2026-04-04T10:03:26Z</time></trkpt><trkpt lat="43.4654953121318" lon="10.867673359254786"><ele>160.83333333333334</ele><time>2026-04-04T10:03:27Z</time></trkpt><trkpt lat="43.46558697964071" lon="10.86765671719847"><ele>161.66666666666669</ele><time>2026-04-04T10:03:28Z</time></trkpt><trkpt lat="43.46568049565022" lon="10.867630794361714"><ele>162.5</ele><time>2026-04-04T10:03:29Z</time></trkpt><trkpt lat="43.46576610462571" lon="10.86760601452392"><ele>163.33333333333334</ele><time>2026-04-04T10:03:30Z</time></trkpt><trkpt lat="43.46584219862278" lon="10.867583622173273"><ele>164.16666666666666</ele><time>2026-04-04T10:03:31Z</time></trkpt><trkpt lat="43.465921988473134" lon="10.86755513331564"><ele>165.0</ele><time>2026-04-04T10:03:32Z</time></trkpt><trkpt lat="43.4659995874924" lon="10.867527250585967"><ele>167.0</ele><time>2026-04-04T10:03:33Z</time></trkpt><trkpt lat="43.466089542798706" lon="10.867496898750295"><ele>169.0</ele><time>2026-04-04T10:03:34Z</time></trkpt><trkpt lat="43.46618064738094" lon="10.867463899369808"><ele>171.0</ele><time>2026-04-04T10:03:35Z</time></trkpt><trkpt lat="43.46626760150755" lon="10.867435185239028"><ele>173.0</ele><time>2026-04-04T10:03:36Z</time></trkpt><trkpt lat="43.466356770933025" lon="10.867407417625088"><ele>175.0</ele><time>2026-04-04T10:03:37Z</time></trkpt><trkpt lat="43.46645561724314" lon="10.867380736753608"><ele>176.2</ele><time>2026-04-04T10:03:38Z</time></trkpt><trkpt lat="43.466548091153626" lon="10.867355961774214"><ele>177.4</ele><time>2026-04-04T10:03:39Z</time></trkpt><trkpt lat="43.46664500495365" lon="10.867329938320113"><ele>178.60000000000002</ele><time>2026-04-04T10:03:40Z</time></trkpt><trkpt lat="43.4667435316759" lon="10.867304703893627"><ele>179.8</ele><time>2026-04-04T10:03:41Z</time></trkpt><trkpt lat="43.46684234809504" lon="10.867281666857481"><ele>181.0</ele><time>2026-04-04T10:03:42Z</time></trkpt><trkpt lat="43.46693814860823" lon="10.867258528815114"><ele>181.0</ele><time>2026-04-04T10:03:43Z</time></trkpt><trkpt lat="43.46703509272713" lon="10.867237184045333"><ele>181.0</ele><time>2026-04-04T10:03:44Z</time></trkpt><trkpt lat="43.46713560582003" lon="10.867219252720073"><ele>181.0</ele><time>2026-04-04T10:03:45Z</time></trkpt><trkpt lat="43.46723703509203" lon="10.867199040609172"><ele>181.0</ele><time>2026-04-04T10:03:46Z</time></trkpt><trkpt lat="43.46733973350043" lon="10.867174520714435"><ele>181.0</ele><time>2026-04-04T10:03:47Z</time></trkpt><trkpt lat="43.467444688269815" lon="10.867148859587356"><ele>181.75</ele><time>2026-04-04T10:03:48Z</time></trkpt><trkpt lat="43.467551042045905" lon="10.867125659590739"><ele>182.5</ele><time>2026-04-04T10:03:49Z</time></trkpt><trkpt lat="43.46766687090124" lon="10.867103514981814"><ele>183.25</ele><time>2026-04-04T10:03:50Z</time></trkpt><trkpt lat="43.46778793461562" lon="10.86707669456065"><ele>184.0</ele><time>2026-04-04T10:03:51Z</time></trkpt><trkpt lat="43.46790883010115" lon="10.867052862244199"><ele>182.75</ele><time>2026-04-04T10:03:52Z</time></trkpt><trkpt lat="43.46803165838568" lon="10.867030888589671"><ele>181.5</ele><time>2026-04-04T10:03:53Z</time></trkpt><trkpt lat="43.46814735775246" lon="10.867001596937603"><ele>180.25</ele><time>2026-04-04T10:03:54Z</time></trkpt><trkpt lat="43.4682619354562" lon="10.866968694038059"><ele>179.0</ele><time>2026-04-04T10:03:55Z</time></trkpt><trkpt lat="43.46837151922756" lon="10.866933053705095"><ele>179.0</ele><time>2026-04-04T10:03:56Z</time></trkpt><trkpt lat="43.46846838093375" lon="10.866879943562347"><ele>179.0</ele><time>2026-04-04T10:03:57Z</time></trkpt><trkpt lat="43.46856472643057" lon="10.866817916504823"><ele>179.0</ele><time>2026-04-04T10:03:58Z</time></trkpt><trkpt lat="43.4686585913416" lon="10.866738445865018"><ele>179.0</ele><time>2026-04-04T10:03:59Z</time></trkpt><trkpt lat="43.46875400334684" lon="10.866658619748996"><ele>179.0</ele><time>2026-04-04T10:04:00Z</time></trkpt><trkpt lat="43.468860809553796" lon="10.866589148472626"><ele>181.0</ele><time>2026-04-04T10:04:01Z</time></trkpt><trkpt lat="43.468959384394836" lon="10.866531375652364"><ele>183.0</ele><time>2026-04-04T10:04:02Z</time></trkpt><trkpt lat="43.46905830304027" lon="10.866487428913388"><ele>185.0</ele><time>2026-04-04T10:04:03Z</time></trkpt><trkpt lat="43.46916136373716" lon="10.866450056404963"><ele>187.0</ele><time>2026-04-04T10:04:04Z</time></trkpt><trkpt lat="43.46928150418826" lon="10.866425390061368"><ele>189.0</ele><time>2026-04-04T10:04:05Z</time></trkpt><trkpt lat="43.469407573683284" lon="10.86641436548965"><ele>189.0</ele><time>2026-04-04T10:04:06Z</time></trkpt><trkpt lat="43.469537362040604" lon="10.866408928507296"><ele>189.0</ele><time>2026-04-04T10:04:07Z</time></trkpt><trkpt lat="43.469665801442176" lon="10.866402886485773"><ele>189.0</ele><time>2026-04-04T10:04:08Z</time></trkpt><trkpt lat="43.46978848131099" lon="10.866398122961014"><ele>189.0</ele><time>2026-04-04T10:04:09Z</time></trkpt><trkpt lat="43.46990201504068" lon="10.866399801160721"><ele>189.75</ele><time>2026-04-04T10:04:10Z</time></trkpt><trkpt lat="43.470021756018404" lon="10.866401588773755"><ele>190.5</ele><time>2026-04-04T10:04:11Z</time></trkpt><trkpt lat="43.47014545139519" lon="10.86640722394953"><ele>191.25</ele><time>2026-04-04T10:04:12Z</time></trkpt><trkpt lat="43.47026594408195" lon="10.866411940575883"><ele>192.0</ele><time>2026-04-04T10:04:13Z</time></trkpt><trkpt lat="43.47038573299054" lon="10.866425527005784"><ele>192.25</ele><time>2026-04-04T10:04:14Z</time></trkpt><trkpt lat="43.470508993374395" lon="10.866440169084626"><ele>192.5</ele><time>2026-04-04T10:04:15Z</time></trkpt><trkpt lat="43.47063125389238" lon="10.866453512206288"><ele>192.75</ele><time>2026-04-04T10:04:16Z</time></trkpt><trkpt lat="43.47074951322921" lon="10.8664659763513"><ele>193.0</ele><time>2026-04-04T10:04:17Z</time></trkpt><trkpt lat="43.47086332694709" lon="10.866484370020965"><ele>193.0</ele><time>2026-04-04T10:04:18Z</time></trkpt><trkpt lat="43.47097760133084" lon="10.866498344618128"><ele>193.0</ele><time>2026-04-04T10:04:19Z</time></trkpt><trkpt lat="43.47109265555923" lon="10.866511583924169"><ele>193.0</ele><time>2026-04-04T10:04:20Z</time></trkpt><trkpt lat="43.47120692887431" lon="10.866525965946064"><ele>193.0</ele><time>2026-04-04T10:04:21Z</time></trkpt><trkpt lat="43.47131846694211" lon="10.866537822956882"><ele>194.5</ele><time>2026-04-04T10:04:22Z</time></trkpt><trkpt lat="43.47143154147752" lon="10.866551999371776"><ele>196.0</ele><time>2026-04-04T10:04:23Z</time></trkpt><trkpt lat="43.47154219801807" lon="10.866565074104075"><ele>197.5</ele><time>2026-04-04T10:04:24Z</time></trkpt><trkpt lat="43.471657290122316" lon="10.86658172267396"><ele>199.0</ele><time>2026-04-04T10:04:25Z</time></trkpt><trkpt lat="43.47176818796026" lon="10.86659843980061"><ele>199.0</ele><time>2026-04-04T10:04:26Z</time></trkpt><trkpt lat="43.47189058036873" lon="10.866617354425939"><ele>199.0</ele><time>2026-04-04T10:04:27Z</time></trkpt><trkpt lat="43.472008215693876" lon="10.86663440313998"><ele>199.0</ele><time>2026-04-04T10:04:28Z</time></trkpt><trkpt lat="43.47213542508531" lon="10.866655628820626"><ele>199.0</ele><time>2026-04-04T10:04:29Z</time></trkpt><trkpt lat="43.47226673976952" lon="10.866681581599694"><ele>200.25</ele><time>2026-04-04T10:04:30Z</time></trkpt><trkpt lat="43.472389086314315" lon="10.866709245660356"><ele>201.5</ele><time>2026-04-04T10:04:31Z</time></trkpt><trkpt lat="43.47250289103792" lon="10.866735430409818"><ele>202.75</ele><time>2026-04-04T10:04:32Z</time></trkpt><trkpt lat="43.47261094871971" lon="10.866755394379641"><ele>204.0</ele><time>2026-04-04T10:04:33Z</time></trkpt><trkpt lat="43.47271743804507" lon="10.866767069253957"><ele>204.0</ele><time>2026-04-04T10:04:34Z</time></trkpt><trkpt lat="43.47282084360677" lon="10.866771670257473"><ele>204.0</ele><time>2026-04-04T10:04:35Z</time></trkpt><trkpt lat="43.47292970365428" lon="10.866764035883138"><ele>204.0</ele><time>2026-04-04T10:04:36Z</time></trkpt><trkpt lat="43.47303989797274" lon="10.866744862094949"><ele>204.0</ele><time>2026-04-04T10:04:37Z</time></trkpt><trkpt lat="43.4731389744134" lon="10.866719157301219"><ele>204.0</ele><time>2026-04-04T10:04:38Z</time></trkpt><trkpt lat="43.473235182179515" lon="10.866696013902542"><ele>205.2</ele><time>2026-04-04T10:04:39Z</time></trkpt><trkpt lat="43.4733174305237" lon="10.866681550868542"><ele>206.39999999999998</ele><time>2026-04-04T10:04:40Z</time></trkpt><trkpt lat="43.47338193026072" lon="10.866664918760582"><ele>207.6</ele><time>2026-04-04T10:04:41Z</time></trkpt><trkpt lat="43.473474229279525" lon="10.866582722119807"><ele>208.8</ele><time>2026-04-04T10:04:43Z</time></trkpt><trkpt lat="43.47350709773265" lon="10.866445071840937"><ele>210.0</ele><time>2026-04-04T10:04:45Z</time></trkpt><trkpt lat="43.47350278335316" lon="10.866297344149713"><ele>210.0</ele><time>2026-04-04T10:04:47Z</time></trkpt><trkpt lat="43.47349694307683" lon="10.866201179126818"><ele>210.0</ele><time>2026-04-04T10:04:49Z</time></trkpt><trkpt lat="43.473420586151576" lon="10.866027745875131"><ele>210.0</ele><time>2026-04-04T10:04:51Z</time></trkpt><trkpt lat="43.47334687920698" lon="10.865914891050458"><ele>210.0</ele><time>2026-04-04T10:04:52Z</time></trkpt><trkpt lat="43.47326907983972" lon="10.865792774942566"><ele>210.0</ele><time>2026-04-04T10:04:53Z</time></trkpt><trkpt lat="43.47317691699683" lon="10.865644187933437"><ele>210.33333333333331</ele><time>2026-04-04T10:04:54Z</time></trkpt><trkpt lat="43.473075515625155" lon="10.865482834056873"><ele>210.66666666666666</ele><time>2026-04-04T10:04:55Z</time></trkpt><trkpt lat="43.47297114976624" lon="10.865307818992099"><ele>211.0</ele><time>2026-04-04T10:04:56Z</time></trkpt><trkpt lat="43.47286355368143" lon="10.865123617854206"><ele>211.0</ele><time>2026-04-04T10:04:57Z</time></trkpt><trkpt lat="43.47274623211759" lon="10.864921045888645"><ele>211.0</ele><time>2026-04-04T10:04:58Z</time></trkpt><trkpt lat="43.47262833738013" lon="10.86472355387894"><ele>211.0</ele><time>2026-04-04T10:04:59Z</time></trkpt><trkpt lat="43.47251301876171" lon="10.864526768866916"><ele>211.0</ele><time>2026-04-04T10:05:00Z</time></trkpt><trkpt lat="43.472407371260026" lon="10.864345988492236"><ele>211.0</ele><time>2026-04-04T10:05:01Z</time></trkpt><trkpt lat="43.47231007206249" lon="10.864176217294286"><ele>211.0</ele><time>2026-04-04T10:05:02Z</time></trkpt><trkpt lat="43.47222885699359" lon="10.864014301826122"><ele>210.0</ele><time>2026-04-04T10:05:03Z</time></trkpt><trkpt lat="43.4721639267409" lon="10.863842698184204"><ele>209.0</ele><time>2026-04-04T10:05:04Z</time></trkpt><trkpt lat="43.47212051371173" lon="10.86366878669906"><ele>208.0</ele><time>2026-04-04T10:05:05Z</time></trkpt><trkpt lat="43.47209413278795" lon="10.863483922790246"><ele>207.0</ele><time>2026-04-04T10:05:06Z</time></trkpt><trkpt lat="43.47208552567466" lon="10.863272141717522"><ele>206.33333333333331</ele><time>2026-04-04T10:05:07Z</time></trkpt><trkpt lat="43.472093435256106" lon="10.86305324344945"><ele>205.66666666666666</ele><time>2026-04-04T10:05:08Z</time></trkpt><trkpt lat="43.472107108941" lon="10.862832685483735"><ele>205.0</ele><time>2026-04-04T10:05:09Z</time></trkpt><trkpt lat="43.47212196132091" lon="10.862606669524768"><ele>203.66666666666666</ele><time>2026-04-04T10:05:10Z</time></trkpt><trkpt lat="43.472131027894925" lon="10.862386094238268"><ele>202.33333333333331</ele><time>2026-04-04T10:05:11Z</time></trkpt><trkpt lat="43.47213658275346" lon="10.862174728853205"><ele>201.0</ele><time>2026-04-04T10:05:12Z</time></trkpt><trkpt lat="43.472142455679155" lon="10.861978076151495"><ele>202.0</ele><time>2026-04-04T10:05:13Z</time></trkpt><trkpt lat="43.472144664231934" lon="10.861770993682882"><ele>203.0</ele><time>2026-04-04T10:05:14Z</time></trkpt><trkpt lat="43.47213908270881" lon="10.861567510195242"><ele>204.0</ele><time>2026-04-04T10:05:15Z</time></trkpt><trkpt lat="43.47211924106777" lon="10.86135362229746"><ele>206.0</ele><time>2026-04-04T10:05:16Z</time></trkpt><trkpt lat="43.47208517345411" lon="10.8611373736319"><ele>208.0</ele><time>2026-04-04T10:05:17Z</time></trkpt><trkpt lat="43.47203502700727" lon="10.860920660596175"><ele>210.0</ele><time>2026-04-04T10:05:18Z</time></trkpt><trkpt lat="43.47196566132767" lon="10.860712270960715"><ele>210.0</ele><time>2026-04-04T10:05:19Z</time></trkpt><trkpt lat="43.47188888501322" lon="10.860510639974807"><ele>210.0</ele><time>2026-04-04T10:05:20Z</time></trkpt><trkpt lat="43.47181591247064" lon="10.860312278459658"><ele>210.0</ele><time>2026-04-04T10:05:21Z</time></trkpt><trkpt lat="43.47174623613113" lon="10.8601151527085"><ele>209.0</ele><time>2026-04-04T10:05:22Z</time></trkpt><trkpt lat="43.471685408589465" lon="10.859920009073559"><ele>208.0</ele><time>2026-04-04T10:05:23Z</time></trkpt><trkpt lat="43.47163347740003" lon="10.859727317034418"><ele>207.0</ele><time>2026-04-04T10:05:24Z</time></trkpt><trkpt lat="43.4715886620424" lon="10.859533469267829"><ele>207.0</ele><time>2026-04-04T10:05:25Z</time></trkpt><trkpt lat="43.47154346264725" lon="10.859335248103237"><ele>207.0</ele><time>2026-04-04T10:05:26Z</time></trkpt><trkpt lat="43.47149879671008" lon="10.859140977251768"><ele>207.0</ele><time>2026-04-04T10:05:27Z</time></trkpt><trkpt lat="43.471453619525946" lon="10.858947119456117"><ele>207.0</ele><time>2026-04-04T10:05:28Z</time></trkpt><trkpt lat="43.47140993307662" lon="10.858750039697323"><ele>206.0</ele><time>2026-04-04T10:05:29Z</time></trkpt><trkpt lat="43.47136379349025" lon="10.858552812051924"><ele>205.0</ele><time>2026-04-04T10:05:30Z</time></trkpt><trkpt lat="43.47131646312909" lon="10.858353946764359"><ele>204.0</ele><time>2026-04-04T10:05:31Z</time></trkpt><trkpt lat="43.47127198193884" lon="10.8581553850604"><ele>203.33333333333331</ele><time>2026-04-04T10:05:32Z</time></trkpt><trkpt lat="43.471230172500256" lon="10.857954747185788"><ele>202.66666666666666</ele><time>2026-04-04T10:05:33Z</time></trkpt><trkpt lat="43.47118831127165" lon="10.857753413638294"><ele>202.0</ele><time>2026-04-04T10:05:34Z</time></trkpt><trkpt lat="43.47115122225125" lon="10.857549151585651"><ele>202.0</ele><time>2026-04-04T10:05:35Z</time></trkpt><trkpt lat="43.471125130149794" lon="10.85734484444945"><ele>202.0</ele><time>2026-04-04T10:05:36Z</time></trkpt><trkpt lat="43.47111044817167" lon="10.85713510313383"><ele>202.0</ele><time>2026-04-04T10:05:37Z</time></trkpt><trkpt lat="43.47110518426499" lon="10.85692402180781"><ele>204.0</ele><time>2026-04-04T10:05:38Z</time></trkpt><trkpt lat="43.471125333872365" lon="10.856706654376847"><ele>206.0</ele><time>2026-04-04T10:05:39Z</time></trkpt><trkpt lat="43.47116044419566" lon="10.856479612854695"><ele>208.0</ele><time>2026-04-04T10:05:40Z</time></trkpt><trkpt lat="43.47118810152854" lon="10.85624581606133"><ele>208.0</ele><time>2026-04-04T10:05:41Z</time></trkpt><trkpt lat="43.47120393478828" lon="10.856004306126959"><ele>208.0</ele><time>2026-04-04T10:05:42Z</time></trkpt><trkpt lat="43.471196426352186" lon="10.855763161762809"><ele>208.0</ele><time>2026-04-04T10:05:43Z</time></trkpt><trkpt lat="43.47117027429359" lon="10.85553223121752"><ele>208.66666666666666</ele><time>2026-04-04T10:05:44Z</time></trkpt><trkpt lat="43.4711303972962" lon="10.855296452399248"><ele>209.33333333333331</ele><time>2026-04-04T10:05:45Z</time></trkpt><trkpt lat="43.47108929488136" lon="10.855064148377826"><ele>210.0</ele><time>2026-04-04T10:05:46Z</time></trkpt><trkpt lat="43.471045138143175" lon="10.854830935288556"><ele>210.0</ele><time>2026-04-04T10:05:47Z</time></trkpt><trkpt lat="43.47100834363599" lon="10.85461221179467"><ele>210.0</ele><time>2026-04-04T10:05:48Z</time></trkpt><trkpt lat="43.47097564944585" lon="10.854392604349348"><ele>210.0</ele><time>2026-04-04T10:05:49Z</time></trkpt><trkpt lat="43.470949176363064" lon="10.854166060659182"><ele>207.66666666666669</ele><time>2026-04-04T10:05:50Z</time></trkpt><trkpt lat="43.47094996745323" lon="10.853938310611419"><ele>205.33333333333334</ele><time>2026-04-04T10:05:51Z</time></trkpt><trkpt lat="43.470978660035044" lon="10.853691106129563"><ele>203.0</ele><time>2026-04-04T10:05:52Z</time></trkpt><trkpt lat="43.47103267725649" lon="10.85341590515202"><ele>201.33333333333334</ele><time>2026-04-04T10:05:53Z</time></trkpt><trkpt lat="43.47109196774035" lon="10.853146933903197"><ele>199.66666666666669</ele><time>2026-04-04T10:05:54Z</time></trkpt><trkpt lat="43.47113696956502" lon="10.852885651163314"><ele>198.0</ele><time>2026-04-04T10:05:55Z</time></trkpt><trkpt lat="43.47117547432648" lon="10.852638075136786"><ele>196.33333333333331</ele><time>2026-04-04T10:05:56Z</time></trkpt><trkpt lat="43.47121215460297" lon="10.852405855899313"><ele>194.66666666666666</ele><time>2026-04-04T10:05:57Z</time></trkpt><trkpt lat="43.471243384084715" lon="10.852168995473125"><ele>193.0</ele><time>2026-04-04T10:05:58Z</time></trkpt><trkpt lat="43.471254041592836" lon="10.851948743826867"><ele>191.33333333333331</ele><time>2026-04-04T10:05:59Z</time></trkpt><trkpt lat="43.47124509811091" lon="10.851742135694325"><ele>189.66666666666666</ele><time>2026-04-04T10:06:00Z</time></trkpt><trkpt lat="43.47121867522455" lon="10.851533717791567"><ele>188.0</ele><time>2026-04-04T10:06:01Z</time></trkpt><trkpt lat="43.471187347131334" lon="10.851332538526247"><ele>188.0</ele><time>2026-04-04T10:06:02Z</time></trkpt><trkpt lat="43.471139553776894" lon="10.851117446113639"><ele>188.0</ele><time>2026-04-04T10:06:03Z</time></trkpt><trkpt lat="43.47109026937576" lon="10.850899784391338"><ele>188.0</ele><time>2026-04-04T10:06:04Z</time></trkpt><trkpt lat="43.471040655474674" lon="10.850681242039364"><ele>188.66666666666666</ele><time>2026-04-04T10:06:05Z</time></trkpt><trkpt lat="43.4709943876359" lon="10.850462096695713"><ele>189.33333333333334</ele><time>2026-04-04T10:06:06Z</time></trkpt><trkpt lat="43.47094675553404" lon="10.850246144386686"><ele>190.0</ele><time>2026-04-04T10:06:07Z</time></trkpt><trkpt lat="43.470899208301" lon="10.850029509663225"><ele>191.66666666666669</ele><time>2026-04-04T10:06:08Z</time></trkpt><trkpt lat="43.47084876451702" lon="10.849814918450496"><ele>193.33333333333334</ele><time>2026-04-04T10:06:09Z</time></trkpt><trkpt lat="43.47080030477488" lon="10.849611836262193"><ele>195.0</ele><time>2026-04-04T10:06:10Z</time></trkpt><trkpt lat="43.470754802004905" lon="10.849416616777937"><ele>197.33333333333331</ele><time>2026-04-04T10:06:11Z</time></trkpt><trkpt lat="43.47070511855788" lon="10.84921814552084"><ele>199.66666666666666</ele><time>2026-04-04T10:06:12Z</time></trkpt><trkpt lat="43.47065167869241" lon="10.849021782881794"><ele>202.0</ele><time>2026-04-04T10:06:13Z</time></trkpt><trkpt lat="43.47059549281299" lon="10.848825606629655"><ele>202.0</ele><time>2026-04-04T10:06:14Z</time></trkpt><trkpt lat="43.47053739425553" lon="10.848628734771275"><ele>202.0</ele><time>2026-04-04T10:06:15Z</time></trkpt><trkpt lat="43.47048197704953" lon="10.848436437102777"><ele>202.0</ele><time>2026-04-04T10:06:16Z</time></trkpt><trkpt lat="43.47042935878477" lon="10.848238229100025"><ele>195.0</ele><time>2026-04-04T10:06:17Z</time></trkpt><trkpt lat="43.470374712960705" lon="10.848038108456041"><ele>188.0</ele><time>2026-04-04T10:06:18Z</time></trkpt><trkpt lat="43.47031425729627" lon="10.847838635537435"><ele>181.0</ele><time>2026-04-04T10:06:19Z</time></trkpt><trkpt lat="43.47024670304421" lon="10.847641397862358"><ele>184.0</ele><time>2026-04-04T10:06:20Z</time></trkpt><trkpt lat="43.47018734028044" lon="10.847444702907136"><ele>187.0</ele><time>2026-04-04T10:06:21Z</time></trkpt><trkpt lat="43.47010647324938" lon="10.847252811997306"><ele>190.0</ele><time>2026-04-04T10:06:22Z</time></trkpt><trkpt lat="43.47000935430259" lon="10.847048942250849"><ele>190.0</ele><time>2026-04-04T10:06:23Z</time></trkpt><trkpt lat="43.46990707241353" lon="10.846845485037754"><ele>190.0</ele><time>2026-04-04T10:06:24Z</time></trkpt><trkpt lat="43.46980319439311" lon="10.846645851964759"><ele>190.0</ele><time>2026-04-04T10:06:25Z</time></trkpt><trkpt lat="43.46971236814821" lon="10.846472830086782"><ele>192.0</ele><time>2026-04-04T10:06:26Z</time></trkpt><trkpt lat="43.469634627463876" lon="10.846320598157249"><ele>194.0</ele><time>2026-04-04T10:06:27Z</time></trkpt><trkpt lat="43.46957131286099" lon="10.846162487501388"><ele>196.0</ele><time>2026-04-04T10:06:28Z</time></trkpt><trkpt lat="43.46952010002998" lon="10.84600257621896"><ele>198.0</ele><time>2026-04-04T10:06:29Z</time></trkpt><trkpt lat="43.46945137624693" lon="10.845767596721224"><ele>193.66666666666666</ele><time>2026-04-04T10:06:30Z</time></trkpt><trkpt lat="43.46944606452152" lon="10.845526681471007"><ele>189.33333333333331</ele><time>2026-04-04T10:06:31Z</time></trkpt><trkpt lat="43.46946364270829" lon="10.84524651031021"><ele>185.0</ele><time>2026-04-04T10:06:32Z</time></trkpt><trkpt lat="43.46949233397473" lon="10.844938439186823"><ele>185.0</ele><time>2026-04-04T10:06:33Z</time></trkpt><trkpt lat="43.46951668159967" lon="10.844651484589669"><ele>185.0</ele><time>2026-04-04T10:06:34Z</time></trkpt><trkpt lat="43.46953133224563" lon="10.844390069604437"><ele>185.0</ele><time>2026-04-04T10:06:35Z</time></trkpt><trkpt lat="43.469542114669835" lon="10.844132207960003"><ele>184.0</ele><time>2026-04-04T10:06:36Z</time></trkpt><trkpt lat="43.469524618471844" lon="10.843870698700224"><ele>183.0</ele><time>2026-04-04T10:06:37Z</time></trkpt><trkpt lat="43.46947068494877" lon="10.843576416381447"><ele>182.0</ele><time>2026-04-04T10:06:38Z</time></trkpt><trkpt lat="43.469400048604825" lon="10.843307307965977"><ele>185.0</ele><time>2026-04-04T10:06:39Z</time></trkpt><trkpt lat="43.4693233487983" lon="10.843045081869565"><ele>188.0</ele><time>2026-04-04T10:06:40Z</time></trkpt><trkpt lat="43.469257132677214" lon="10.84282232130137"><ele>191.0</ele><time>2026-04-04T10:06:41Z</time></trkpt><trkpt lat="43.469202548850404" lon="10.842632971040763"><ele>191.25</ele><time>2026-04-04T10:06:42Z</time></trkpt><trkpt lat="43.469154686048114" lon="10.842469202192255"><ele>191.5</ele><time>2026-04-04T10:06:43Z</time></trkpt><trkpt lat="43.46911058211443" lon="10.84231710865408"><ele>191.75</ele><time>2026-04-04T10:06:44Z</time></trkpt><trkpt lat="43.46908153571668" lon="10.842149024977653"><ele>192.0</ele><time>2026-04-04T10:06:45Z</time></trkpt><trkpt lat="43.469091512057496" lon="10.841956872678136"><ele>192.33333333333331</ele><time>2026-04-04T10:06:46Z</time></trkpt><trkpt lat="43.46914025172086" lon="10.841756210685856"><ele>192.66666666666666</ele><time>2026-04-04T10:06:47Z</time></trkpt><trkpt lat="43.46922593046206" lon="10.84155512739311"><ele>193.0</ele><time>2026-04-04T10:06:48Z</time></trkpt><trkpt lat="43.46931498896224" lon="10.841382962325424"><ele>193.0</ele><time>2026-04-04T10:06:49Z</time></trkpt><trkpt lat="43.46938661501218" lon="10.841223130817243"><ele>193.0</ele><time>2026-04-04T10:06:50Z</time></trkpt><trkpt lat="43.469420382912155" lon="10.841060343175995"><ele>193.0</ele><time>2026-04-04T10:06:51Z</time></trkpt><trkpt lat="43.469420921965146" lon="10.840873742350947"><ele>193.0</ele><time>2026-04-04T10:06:52Z</time></trkpt><trkpt lat="43.46937787049769" lon="10.840659132498013"><ele>192.33333333333331</ele><time>2026-04-04T10:06:53Z</time></trkpt><trkpt lat="43.46930021344906" lon="10.84040778944265"><ele>191.66666666666666</ele><time>2026-04-04T10:06:54Z</time></trkpt><trkpt lat="43.469215582950646" lon="10.84015010810926"><ele>191.0</ele><time>2026-04-04T10:06:55Z</time></trkpt><trkpt lat="43.46913106309345" lon="10.839880864856589"><ele>191.0</ele><time>2026-04-04T10:06:56Z</time></trkpt><trkpt lat="43.469062926012924" lon="10.839642239986432"><ele>191.0</ele><time>2026-04-04T10:06:57Z</time></trkpt><trkpt lat="43.46899343566333" lon="10.839426531258137"><ele>191.0</ele><time>2026-04-04T10:06:58Z</time></trkpt><trkpt lat="43.46892669419165" lon="10.839219865692229"><ele>193.0</ele><time>2026-04-04T10:06:59Z</time></trkpt><trkpt lat="43.46886582087339" lon="10.839044134187677"><ele>195.0</ele><time>2026-04-04T10:07:00Z</time></trkpt><trkpt lat="43.46881125745132" lon="10.838858927947374"><ele>197.0</ele><time>2026-04-04T10:07:01Z</time></trkpt><trkpt lat="43.46875780641341" lon="10.83867892244855"><ele>199.0</ele><time>2026-04-04T10:07:02Z</time></trkpt><trkpt lat="43.46871001442971" lon="10.838512634085262"><ele>197.75</ele><time>2026-04-04T10:07:03Z</time></trkpt><trkpt lat="43.46866439381903" lon="10.83835591155163"><ele>196.5</ele><time>2026-04-04T10:07:04Z</time></trkpt><trkpt lat="43.46860970943512" lon="10.838198130937462"><ele>195.25</ele><time>2026-04-04T10:07:05Z</time></trkpt><trkpt lat="43.468546879670114" lon="10.838045642726819"><ele>194.0</ele><time>2026-04-04T10:07:06Z</time></trkpt><trkpt lat="43.468475209440484" lon="10.837892307349238"><ele>194.0</ele><time>2026-04-04T10:07:07Z</time></trkpt><trkpt lat="43.46839010522883" lon="10.837739177337184"><ele>194.0</ele><time>2026-04-04T10:07:08Z</time></trkpt><trkpt lat="43.468293885139225" lon="10.837587757565561"><ele>194.0</ele><time>2026-04-04T10:07:09Z</time></trkpt><trkpt lat="43.46819279030409" lon="10.837452088208314"><ele>194.0</ele><time>2026-04-04T10:07:10Z</time></trkpt><trkpt lat="43.468085112104575" lon="10.837327776031524"><ele>192.0</ele><time>2026-04-04T10:07:11Z</time></trkpt><trkpt lat="43.467964172047076" lon="10.837204357146767"><ele>190.0</ele><time>2026-04-04T10:07:12Z</time></trkpt><trkpt lat="43.46782937853467" lon="10.837093994733962"><ele>188.0</ele><time>2026-04-04T10:07:13Z</time></trkpt><trkpt lat="43.467677431988456" lon="10.836996625628847"><ele>188.0</ele><time>2026-04-04T10:07:14Z</time></trkpt><trkpt lat="43.467500666620886" lon="10.836906288799474"><ele>188.0</ele><time>2026-04-04T10:07:15Z</time></trkpt><trkpt lat="43.46730001313976" lon="10.836827535579149"><ele>188.0</ele><time>2026-04-04T10:07:16Z</time></trkpt><trkpt lat="43.46711731260894" lon="10.836764350151949"><ele>184.66666666666666</ele><time>2026-04-04T10:07:17Z</time></trkpt><trkpt lat="43.466949696589495" lon="10.83669033438826"><ele>181.33333333333334</ele><time>2026-04-04T10:07:18Z</time></trkpt><trkpt lat="43.466790528847014" lon="10.83659120830773"><ele>178.0</ele><time>2026-04-04T10:07:19Z</time></trkpt><trkpt lat="43.4666361581542" lon="10.836468519632122"><ele>178.0</ele><time>2026-04-04T10:07:20Z</time></trkpt><trkpt lat="43.4664903085496" lon="10.836336708353207"><ele>178.0</ele><time>2026-04-04T10:07:21Z</time></trkpt><trkpt lat="43.46635566297637" lon="10.836195569892071"><ele>178.0</ele><time>2026-04-04T10:07:22Z</time></trkpt><trkpt lat="43.466227952764775" lon="10.836038247261143"><ele>177.0</ele><time>2026-04-04T10:07:23Z</time></trkpt><trkpt lat="43.466112455140404" lon="10.83587201964953"><ele>176.0</ele><time>2026-04-04T10:07:24Z</time></trkpt><trkpt lat="43.46600740614973" lon="10.835691233516748"><ele>175.0</ele><time>2026-04-04T10:07:25Z</time></trkpt><trkpt lat="43.46591400419886" lon="10.835501068121985"><ele>175.0</ele><time>2026-04-04T10:07:26Z</time></trkpt><trkpt lat="43.46582432011747" lon="10.835312251156836"><ele>175.0</ele><time>2026-04-04T10:07:27Z</time></trkpt><trkpt lat="43.465734349097865" lon="10.835131223634717"><ele>175.0</ele><time>2026-04-04T10:07:28Z</time></trkpt><trkpt lat="43.465650394266284" lon="10.834962757295783"><ele>173.0</ele><time>2026-04-04T10:07:29Z</time></trkpt><trkpt lat="43.465571532822466" lon="10.83480281202873"><ele>171.0</ele><time>2026-04-04T10:07:30Z</time></trkpt><trkpt lat="43.46548888605491" lon="10.834634172710567"><ele>169.0</ele><time>2026-04-04T10:07:31Z</time></trkpt><trkpt lat="43.465401133802054" lon="10.83445640328068"><ele>167.0</ele><time>2026-04-04T10:07:32Z</time></trkpt><trkpt lat="43.465316050092916" lon="10.834275193050226"><ele>165.66666666666666</ele><time>2026-04-04T10:07:33Z</time></trkpt><trkpt lat="43.465231318764666" lon="10.834095816774212"><ele>164.33333333333334</ele><time>2026-04-04T10:07:34Z</time></trkpt><trkpt lat="43.46514349232247" lon="10.833917593465229"><ele>163.0</ele><time>2026-04-04T10:07:35Z</time></trkpt><trkpt lat="43.465063995609" lon="10.833748710678439"><ele>163.0</ele><time>2026-04-04T10:07:36Z</time></trkpt><trkpt lat="43.46497954749803" lon="10.833580552408971"><ele>163.0</ele><time>2026-04-04T10:07:37Z</time></trkpt><trkpt lat="43.4648990842064" lon="10.833417016302434"><ele>163.0</ele><time>2026-04-04T10:07:38Z</time></trkpt><trkpt lat="43.46481719924711" lon="10.833253508307"><ele>163.0</ele><time>2026-04-04T10:07:39Z</time></trkpt><trkpt lat="43.464735001145506" lon="10.833099199671336"><ele>162.25</ele><time>2026-04-04T10:07:40Z</time></trkpt><trkpt lat="43.46464298004846" lon="10.832964511757043"><ele>161.5</ele><time>2026-04-04T10:07:41Z</time></trkpt><trkpt lat="43.46454313741084" lon="10.832843812328187"><ele>160.75</ele><time>2026-04-04T10:07:42Z</time></trkpt><trkpt lat="43.464435196270394" lon="10.832732275504588"><ele>160.0</ele><time>2026-04-04T10:07:43Z</time></trkpt><trkpt lat="43.464316462328" lon="10.832628295221356"><ele>159.25</ele><time>2026-04-04T10:07:44Z</time></trkpt><trkpt lat="43.464185131592174" lon="10.832545664578664"><ele>158.5</ele><time>2026-04-04T10:07:45Z</time></trkpt><trkpt lat="43.464045676239536" lon="10.832481451449944"><ele>157.75</ele><time>2026-04-04T10:07:46Z</time></trkpt><trkpt lat="43.4638997557552" lon="10.832431356353155"><ele>157.0</ele><time>2026-04-04T10:07:47Z</time></trkpt><trkpt lat="43.46374733917148" lon="10.832389424225836"><ele>154.0</ele><time>2026-04-04T10:07:48Z</time></trkpt><trkpt lat="43.46359028402034" lon="10.83235448007429"><ele>151.0</ele><time>2026-04-04T10:07:49Z</time></trkpt><trkpt lat="43.463422168333636" lon="10.832315656802429"><ele>148.0</ele><time>2026-04-04T10:07:50Z</time></trkpt><trkpt lat="43.463254012828266" lon="10.832274032787865"><ele>148.0</ele><time>2026-04-04T10:07:51Z</time></trkpt><trkpt lat="43.463084428519686" lon="10.832227941360165"><ele>148.0</ele><time>2026-04-04T10:07:52Z</time></trkpt><trkpt lat="43.46291663754471" lon="10.832183420534228"><ele>148.0</ele><time>2026-04-04T10:07:53Z</time></trkpt><trkpt lat="43.462757722636624" lon="10.83213396325685"><ele>143.33333333333334</ele><time>2026-04-04T10:07:54Z</time></trkpt><trkpt lat="43.462595413964074" lon="10.832079666017409"><ele>138.66666666666666</ele><time>2026-04-04T10:07:55Z</time></trkpt><trkpt lat="43.46243639076043" lon="10.832016784855384"><ele>134.0</ele><time>2026-04-04T10:07:56Z</time></trkpt><trkpt lat="43.46228150458572" lon="10.83194439765887"><ele>134.0</ele><time>2026-04-04T10:07:57Z</time></trkpt><trkpt lat="43.46213358102089" lon="10.83187663694278"><ele>134.0</ele><time>2026-04-04T10:07:58Z</time></trkpt><trkpt lat="43.46198200721999" lon="10.831811027116037"><ele>134.0</ele><time>2026-04-04T10:07:59Z</time></trkpt><trkpt lat="43.46183216665595" lon="10.831743148353885"><ele>133.33333333333331</ele><time>2026-04-04T10:08:00Z</time></trkpt><trkpt lat="43.46167465799392" lon="10.831671973231137"><ele>132.66666666666666</ele><time>2026-04-04T10:08:01Z</time></trkpt><trkpt lat="43.46151328471928" lon="10.831600174305434"><ele>132.0</ele><time>2026-04-04T10:08:02Z</time></trkpt><trkpt lat="43.461354997532325" lon="10.831533986111728"><ele>132.0</ele><time>2026-04-04T10:08:03Z</time></trkpt><trkpt lat="43.461201771884966" lon="10.831467277739254"><ele>132.0</ele><time>2026-04-04T10:08:04Z</time></trkpt><trkpt lat="43.46105378791222" lon="10.831401146283868"><ele>132.0</ele><time>2026-04-04T10:08:05Z</time></trkpt><trkpt lat="43.46091150924822" lon="10.831337897097994"><ele>132.0</ele><time>2026-04-04T10:08:06Z</time></trkpt><trkpt lat="43.460779568974246" lon="10.831280092156774"><ele>132.0</ele><time>2026-04-04T10:08:07Z</time></trkpt><trkpt lat="43.460668322368434" lon="10.831233053138611"><ele>132.0</ele><time>2026-04-04T10:08:08Z</time></trkpt><trkpt lat="43.460581941782074" lon="10.831196906255043"><ele>132.0</ele><time>2026-04-04T10:08:09Z</time></trkpt><trkpt lat="43.46052129882425" lon="10.831166026260707"><ele>132.0</ele><time>2026-04-04T10:08:10Z</time></trkpt><trkpt lat="43.46048301825899" lon="10.8310609047191"><ele>130.25</ele><time>2026-04-04T10:08:12Z</time></trkpt><trkpt lat="43.46054034414359" lon="10.830900859463886"><ele>128.5</ele><time>2026-04-04T10:08:14Z</time></trkpt><trkpt lat="43.46060934299469" lon="10.83080567623435"><ele>126.75</ele><time>2026-04-04T10:08:15Z</time></trkpt><trkpt lat="43.46066748216769" lon="10.830663841111706"><ele>125.0</ele><time>2026-04-04T10:08:16Z</time></trkpt><trkpt lat="43.46067922207355" lon="10.830473165320441"><ele>125.0</ele><time>2026-04-04T10:08:17Z</time></trkpt><trkpt lat="43.46067112626171" lon="10.830274365763426"><ele>125.0</ele><time>2026-04-04T10:08:18Z</time></trkpt><trkpt lat="43.460681033078856" lon="10.830105912493174"><ele>125.0</ele><time>2026-04-04T10:08:19Z</time></trkpt><trkpt lat="43.460723354672396" lon="10.829953045846146"><ele>125.0</ele><time>2026-04-04T10:08:20Z</time></trkpt><trkpt lat="43.46081282642493" lon="10.829803604584296"><ele>124.75</ele><time>2026-04-04T10:08:21Z</time></trkpt><trkpt lat="43.460921749509836" lon="10.829666903543057"><ele>124.5</ele><time>2026-04-04T10:08:22Z</time></trkpt><trkpt lat="43.46102595404846" lon="10.82956598167099"><ele>124.25</ele><time>2026-04-04T10:08:23Z</time></trkpt><trkpt lat="43.46113152618802" lon="10.829483423053395"><ele>124.0</ele><time>2026-04-04T10:08:24Z</time></trkpt><trkpt lat="43.46124337289517" lon="10.829413315858806"><ele>127.0</ele><time>2026-04-04T10:08:25Z</time></trkpt><trkpt lat="43.46136804102513" lon="10.829360580636811"><ele>130.0</ele><time>2026-04-04T10:08:26Z</time></trkpt><trkpt lat="43.461492888471874" lon="10.829317480032783"><ele>133.0</ele><time>2026-04-04T10:08:27Z</time></trkpt><trkpt lat="43.46161091046958" lon="10.829265274041234"><ele>136.0</ele><time>2026-04-04T10:08:28Z</time></trkpt><trkpt lat="43.46173121714387" lon="10.82920922921411"><ele>136.0</ele><time>2026-04-04T10:08:29Z</time></trkpt><trkpt lat="43.46185238417117" lon="10.829141927652914"><ele>136.0</ele><time>2026-04-04T10:08:30Z</time></trkpt><trkpt lat="43.461982068548366" lon="10.829064488703262"><ele>136.0</ele><time>2026-04-04T10:08:31Z</time></trkpt><trkpt lat="43.462139403406276" lon="10.828981766565555"><ele>136.0</ele><time>2026-04-04T10:08:32Z</time></trkpt><trkpt lat="43.46230774365103" lon="10.8289158385432"><ele>138.25</ele><time>2026-04-04T10:08:33Z</time></trkpt><trkpt lat="43.46245053615161" lon="10.828868120342657"><ele>140.5</ele><time>2026-04-04T10:08:34Z</time></trkpt><trkpt lat="43.462583924396114" lon="10.828826830764203"><ele>142.75</ele><time>2026-04-04T10:08:35Z</time></trkpt><trkpt lat="43.46272060194812" lon="10.82878812526583"><ele>145.0</ele><time>2026-04-04T10:08:36Z</time></trkpt><trkpt lat="43.462863331369704" lon="10.828744878547484"><ele>144.5</ele><time>2026-04-04T10:08:37Z</time></trkpt><trkpt lat="43.46301056913566" lon="10.828703752468407"><ele>144.0</ele><time>2026-04-04T10:08:38Z</time></trkpt><trkpt lat="43.46315226275764" lon="10.828658158341428"><ele>143.5</ele><time>2026-04-04T10:08:39Z</time></trkpt><trkpt lat="43.46328160608864" lon="10.828604796169879"><ele>143.0</ele><time>2026-04-04T10:08:40Z</time></trkpt><trkpt lat="43.46340273296677" lon="10.828523029974427"><ele>141.0</ele><time>2026-04-04T10:08:41Z</time></trkpt><trkpt lat="43.46351994279266" lon="10.828424154690268"><ele>139.0</ele><time>2026-04-04T10:08:42Z</time></trkpt><trkpt lat="43.463616737386175" lon="10.828332062216706"><ele>137.0</ele><time>2026-04-04T10:08:43Z</time></trkpt><trkpt lat="43.46370228725637" lon="10.828265636926707"><ele>135.0</ele><time>2026-04-04T10:08:44Z</time></trkpt><trkpt lat="43.46379013991046" lon="10.828215311308476"><ele>133.0</ele><time>2026-04-04T10:08:45Z</time></trkpt><trkpt lat="43.46388292760577" lon="10.828200789325006"><ele>132.75</ele><time>2026-04-04T10:08:46Z</time></trkpt><trkpt lat="43.463981829888354" lon="10.828239317832"><ele>132.5</ele><time>2026-04-04T10:08:47Z</time></trkpt><trkpt lat="43.46408724780175" lon="10.828343063851113"><ele>132.25</ele><time>2026-04-04T10:08:48Z</time></trkpt><trkpt lat="43.46418646285773" lon="10.82849350946706"><ele>132.0</ele><time>2026-04-04T10:08:49Z</time></trkpt><trkpt lat="43.464293367492814" lon="10.828653546857428"><ele>132.0</ele><time>2026-04-04T10:08:50Z</time></trkpt><trkpt lat="43.4644192387638" lon="10.828811843071858"><ele>132.0</ele><time>2026-04-04T10:08:51Z</time></trkpt><trkpt lat="43.464525199829126" lon="10.82895227124499"><ele>132.0</ele><time>2026-04-04T10:08:52Z</time></trkpt><trkpt lat="43.46461015591935" lon="10.829073931675616"><ele>132.0</ele><time>2026-04-04T10:08:53Z</time></trkpt><trkpt lat="43.464692766992066" lon="10.829175441893295"><ele>131.2</ele><time>2026-04-04T10:08:54Z</time></trkpt><trkpt lat="43.46478717986704" lon="10.829242704443262"><ele>130.39999999999998</ele><time>2026-04-04T10:08:55Z</time></trkpt><trkpt lat="43.464889342846675" lon="10.829259339604324"><ele>129.60000000000002</ele><time>2026-04-04T10:08:56Z</time></trkpt><trkpt lat="43.46499449548496" lon="10.829222253272672"><ele>128.8</ele><time>2026-04-04T10:08:57Z</time></trkpt><trkpt lat="43.46507664992582" lon="10.829126323898631"><ele>128.0</ele><time>2026-04-04T10:08:58Z</time></trkpt><trkpt lat="43.46512723394381" lon="10.828973113962789"><ele>128.0</ele><time>2026-04-04T10:08:59Z</time></trkpt><trkpt lat="43.465168535383086" lon="10.82877718145424"><ele>128.0</ele><time>2026-04-04T10:09:00Z</time></trkpt><trkpt lat="43.4652161406332" lon="10.828541804497466"><ele>128.0</ele><time>2026-04-04T10:09:01Z</time></trkpt><trkpt lat="43.4652690217626" lon="10.828305867434382"><ele>126.25</ele><time>2026-04-04T10:09:02Z</time></trkpt><trkpt lat="43.465317677102576" lon="10.828097387312926"><ele>124.5</ele><time>2026-04-04T10:09:03Z</time></trkpt><trkpt lat="43.465356023321085" lon="10.827914947910152"><ele>122.75</ele><time>2026-04-04T10:09:04Z</time></trkpt><trkpt lat="43.46539584343099" lon="10.827744682863203"><ele>121.0</ele><time>2026-04-04T10:09:05Z</time></trkpt><trkpt lat="43.46544926975289" lon="10.827598480505692"><ele>121.0</ele><time>2026-04-04T10:09:06Z</time></trkpt><trkpt lat="43.46551998111973" lon="10.82748436276965"><ele>121.0</ele><time>2026-04-04T10:09:07Z</time></trkpt><trkpt lat="43.465605501959715" lon="10.827424559965925"><ele>121.0</ele><time>2026-04-04T10:09:08Z</time></trkpt><trkpt lat="43.46570887754272" lon="10.827397887371536"><ele>121.0</ele><time>2026-04-04T10:09:09Z</time></trkpt><trkpt lat="43.46582575340469" lon="10.827403889322284"><ele>121.0</ele><time>2026-04-04T10:09:10Z</time></trkpt><trkpt lat="43.46597763839915" lon="10.827452044965488"><ele>121.0</ele><time>2026-04-04T10:09:11Z</time></trkpt><trkpt lat="43.46613464044662" lon="10.827504706868334"><ele>121.0</ele><time>2026-04-04T10:09:12Z</time></trkpt><trkpt lat="43.46626645462187" lon="10.827550464962663"><ele>121.0</ele><time>2026-04-04T10:09:13Z</time></trkpt><trkpt lat="43.466385086740075" lon="10.82759409796343"><ele>121.0</ele><time>2026-04-04T10:09:14Z</time></trkpt><trkpt lat="43.466492247323394" lon="10.827636701010622"><ele>122.5</ele><time>2026-04-04T10:09:15Z</time></trkpt><trkpt lat="43.4665966809288" lon="10.827702867351514"><ele>124.0</ele><time>2026-04-04T10:09:16Z</time></trkpt><trkpt lat="43.46670519988209" lon="10.827810177869434"><ele>125.5</ele><time>2026-04-04T10:09:17Z</time></trkpt><trkpt lat="43.46681227090674" lon="10.8279389069971"><ele>127.0</ele><time>2026-04-04T10:09:18Z</time></trkpt><trkpt lat="43.466895438029255" lon="10.828055827294893"><ele>127.0</ele><time>2026-04-04T10:09:19Z</time></trkpt><trkpt lat="43.46697436579125" lon="10.828157088001399"><ele>127.0</ele><time>2026-04-04T10:09:20Z</time></trkpt><trkpt lat="43.467069623681965" lon="10.828230582088118"><ele>127.0</ele><time>2026-04-04T10:09:21Z</time></trkpt><trkpt lat="43.46719671180715" lon="10.82825779241997"><ele>127.0</ele><time>2026-04-04T10:09:22Z</time></trkpt><trkpt lat="43.46734679730343" lon="10.828243358223984"><ele>124.25</ele><time>2026-04-04T10:09:23Z</time></trkpt><trkpt lat="43.467487627811494" lon="10.828216411939827"><ele>121.5</ele><time>2026-04-04T10:09:24Z</time></trkpt><trkpt lat="43.46761656467411" lon="10.828189734549868"><ele>118.75</ele><time>2026-04-04T10:09:25Z</time></trkpt><trkpt lat="43.467748541765495" lon="10.828176613956122"><ele>116.0</ele><time>2026-04-04T10:09:26Z</time></trkpt><trkpt lat="43.4678791715984" lon="10.82815942544619"><ele>115.33333333333333</ele><time>2026-04-04T10:09:27Z</time></trkpt><trkpt lat="43.468016922222546" lon="10.828140406862621"><ele>114.66666666666666</ele><time>2026-04-04T10:09:28Z</time></trkpt><trkpt lat="43.46816691152517" lon="10.82811952129094"><ele>114.0</ele><time>2026-04-04T10:09:29Z</time></trkpt><trkpt lat="43.46833692069459" lon="10.82809190426132"><ele>114.0</ele><time>2026-04-04T10:09:30Z</time></trkpt><trkpt lat="43.46849739872629" lon="10.828064106706687"><ele>114.0</ele><time>2026-04-04T10:09:31Z</time></trkpt><trkpt lat="43.468641673901935" lon="10.828052944215763"><ele>114.0</ele><time>2026-04-04T10:09:32Z</time></trkpt><trkpt lat="43.46878028343213" lon="10.828074902888975"><ele>114.0</ele><time>2026-04-04T10:09:33Z</time></trkpt><trkpt lat="43.46892524841582" lon="10.828153496355991"><ele>116.0</ele><time>2026-04-04T10:09:34Z</time></trkpt><trkpt lat="43.46908604577914" lon="10.828293221502545"><ele>118.0</ele><time>2026-04-04T10:09:35Z</time></trkpt><trkpt lat="43.46926966152539" lon="10.828469259435003"><ele>120.0</ele><time>2026-04-04T10:09:36Z</time></trkpt><trkpt lat="43.46944900753905" lon="10.82864456962919"><ele>120.0</ele><time>2026-04-04T10:09:37Z</time></trkpt><trkpt lat="43.469600102003895" lon="10.828786542206855"><ele>120.0</ele><time>2026-04-04T10:09:38Z</time></trkpt><trkpt lat="43.46972055365312" lon="10.828925730042307"><ele>120.0</ele><time>2026-04-04T10:09:39Z</time></trkpt><trkpt lat="43.46981920314581" lon="10.8290867981327"><ele>121.0</ele><time>2026-04-04T10:09:40Z</time></trkpt><trkpt lat="43.46989557896425" lon="10.829279612276837"><ele>122.0</ele><time>2026-04-04T10:09:41Z</time></trkpt><trkpt lat="43.469947000048414" lon="10.829516115940658"><ele>123.0</ele><time>2026-04-04T10:09:42Z</time></trkpt><trkpt lat="43.47000544739902" lon="10.829819810553161"><ele>123.0</ele><time>2026-04-04T10:09:43Z</time></trkpt><trkpt lat="43.47005624138795" lon="10.830114905101416"><ele>123.0</ele><time>2026-04-04T10:09:44Z</time></trkpt><trkpt lat="43.470101663146245" lon="10.83033355414682"><ele>123.0</ele><time>2026-04-04T10:09:45Z</time></trkpt><trkpt lat="43.470144654831245" lon="10.830522682587747"><ele>123.25</ele><time>2026-04-04T10:09:46Z</time></trkpt><trkpt lat="43.47019788823825" lon="10.830692859448881"><ele>123.5</ele><time>2026-04-04T10:09:47Z</time></trkpt><trkpt lat="43.470282388261346" lon="10.830854887830279"><ele>123.75</ele><time>2026-04-04T10:09:48Z</time></trkpt><trkpt lat="43.4703936699386" lon="10.83100108005191"><ele>124.0</ele><time>2026-04-04T10:09:49Z</time></trkpt><trkpt lat="43.47054965670464" lon="10.83112814418886"><ele>124.0</ele><time>2026-04-04T10:09:50Z</time></trkpt><trkpt lat="43.47072990418795" lon="10.83125056349466"><ele>124.0</ele><time>2026-04-04T10:09:51Z</time></trkpt><trkpt lat="43.47090594738147" lon="10.83135446367886"><ele>124.0</ele><time>2026-04-04T10:09:52Z</time></trkpt><trkpt lat="43.471053068594934" lon="10.831448377484724"><ele>124.0</ele><time>2026-04-04T10:09:53Z</time></trkpt><trkpt lat="43.471183528588746" lon="10.83153116117221"><ele>124.0</ele><time>2026-04-04T10:09:54Z</time></trkpt><trkpt lat="43.47130497367396" lon="10.831608658357743"><ele>124.0</ele><time>2026-04-04T10:09:55Z</time></trkpt><trkpt lat="43.47143060180726" lon="10.831691310517877"><ele>124.0</ele><time>2026-04-04T10:09:56Z</time></trkpt><trkpt lat="43.471558327250484" lon="10.831775610485114"><ele>124.25</ele><time>2026-04-04T10:09:57Z</time></trkpt><trkpt lat="43.47168395355967" lon="10.831860073227945"><ele>124.5</ele><time>2026-04-04T10:09:58Z</time></trkpt><trkpt lat="43.47180800887253" lon="10.831945829318759"><ele>124.75</ele><time>2026-04-04T10:09:59Z</time></trkpt><trkpt lat="43.471937777789535" lon="10.832033688971505"><ele>125.0</ele><time>2026-04-04T10:10:00Z</time></trkpt><trkpt lat="43.47207606983905" lon="10.832120128965547"><ele>126.33333333333333</ele><time>2026-04-04T10:10:01Z</time></trkpt><trkpt lat="43.47222590477505" lon="10.832202478928018"><ele>127.66666666666666</ele><time>2026-04-04T10:10:02Z</time></trkpt><trkpt lat="43.47239700831131" lon="10.832266861596514"><ele>129.0</ele><time>2026-04-04T10:10:03Z</time></trkpt><trkpt lat="43.47259276517717" lon="10.832318356180807"><ele>129.0</ele><time>2026-04-04T10:10:04Z</time></trkpt><trkpt lat="43.472758962184045" lon="10.832348401088641"><ele>129.0</ele><time>2026-04-04T10:10:05Z</time></trkpt><trkpt lat="43.47290276981049" lon="10.832352245452206"><ele>129.0</ele><time>2026-04-04T10:10:06Z</time></trkpt><trkpt lat="43.473045672144465" lon="10.832321027499768"><ele>130.66666666666666</ele><time>2026-04-04T10:10:07Z</time></trkpt><trkpt lat="43.47320278007541" lon="10.832245922493382"><ele>132.33333333333331</ele><time>2026-04-04T10:10:08Z</time></trkpt><trkpt lat="43.47337599472897" lon="10.832116530019789"><ele>134.0</ele><time>2026-04-04T10:10:09Z</time></trkpt><trkpt lat="43.473559307154225" lon="10.831957012477304"><ele>137.66666666666666</ele><time>2026-04-04T10:10:10Z</time></trkpt><trkpt lat="43.473746151539174" lon="10.831799419586998"><ele>141.33333333333334</ele><time>2026-04-04T10:10:11Z</time></trkpt><trkpt lat="43.473940658860755" lon="10.831636266864086"><ele>145.0</ele><time>2026-04-04T10:10:12Z</time></trkpt><trkpt lat="43.47411124773684" lon="10.83149527244597"><ele>145.33333333333334</ele><time>2026-04-04T10:10:13Z</time></trkpt><trkpt lat="43.4742760974306" lon="10.83136358336746"><ele>145.66666666666666</ele><time>2026-04-04T10:10:14Z</time></trkpt><trkpt lat="43.474463006723546" lon="10.831212359448296"><ele>146.0</ele><time>2026-04-04T10:10:15Z</time></trkpt><trkpt lat="43.474630185669405" lon="10.831073114779256"><ele>149.0</ele><time>2026-04-04T10:10:16Z</time></trkpt><trkpt lat="43.474774712565385" lon="10.830948170970823"><ele>152.0</ele><time>2026-04-04T10:10:17Z</time></trkpt><trkpt lat="43.474910641770215" lon="10.830834407189439"><ele>155.0</ele><time>2026-04-04T10:10:18Z</time></trkpt><trkpt lat="43.47503880907995" lon="10.830724600544679"><ele>155.0</ele><time>2026-04-04T10:10:19Z</time></trkpt><trkpt lat="43.475166108689905" lon="10.830616154441637"><ele>155.0</ele><time>2026-04-04T10:10:20Z</time></trkpt><trkpt lat="43.475303791222004" lon="10.830508165339634"><ele>155.0</ele><time>2026-04-04T10:10:21Z</time></trkpt><trkpt lat="43.47544707734849" lon="10.830399593277196"><ele>155.0</ele><time>2026-04-04T10:10:22Z</time></trkpt><trkpt lat="43.475594893539686" lon="10.830293387458626"><ele>155.0</ele><time>2026-04-04T10:10:23Z</time></trkpt><trkpt lat="43.47574554728826" lon="10.830186913467168"><ele>155.0</ele><time>2026-04-04T10:10:24Z</time></trkpt><trkpt lat="43.475892252789556" lon="10.830078911710107"><ele>155.0</ele><time>2026-04-04T10:10:25Z</time></trkpt><trkpt lat="43.476029513402125" lon="10.829979889450215"><ele>155.0</ele><time>2026-04-04T10:10:26Z</time></trkpt><trkpt lat="43.47616032311728" lon="10.829873260844806"><ele>155.0</ele><time>2026-04-04T10:10:27Z</time></trkpt><trkpt lat="43.476280728985586" lon="10.829779433499331"><ele>155.0</ele><time>2026-04-04T10:10:28Z</time></trkpt><trkpt lat="43.47640571254891" lon="10.82971175129613"><ele>155.0</ele><time>2026-04-04T10:10:29Z</time></trkpt><trkpt lat="43.476538020067736" lon="10.829683566957678"><ele>155.0</ele><time>2026-04-04T10:10:30Z</time></trkpt><trkpt lat="43.47668390836544" lon="10.829700837422317"><ele>155.0</ele><time>2026-04-04T10:10:31Z</time></trkpt><trkpt lat="43.476831252907076" lon="10.829728299827591"><ele>155.0</ele><time>2026-04-04T10:10:32Z</time></trkpt><trkpt lat="43.47698804316412" lon="10.829720041967883"><ele>157.33333333333331</ele><time>2026-04-04T10:10:33Z</time></trkpt><trkpt lat="43.47715052449418" lon="10.829659485287161"><ele>159.66666666666666</ele><time>2026-04-04T10:10:34Z</time></trkpt><trkpt lat="43.47732315810535" lon="10.829554591256871"><ele>162.0</ele><time>2026-04-04T10:10:35Z</time></trkpt><trkpt lat="43.47753082008001" lon="10.829426737804267"><ele>164.66666666666666</ele><time>2026-04-04T10:10:36Z</time></trkpt><trkpt lat="43.47775017692056" lon="10.829302632357065"><ele>167.33333333333331</ele><time>2026-04-04T10:10:37Z</time></trkpt><trkpt lat="43.477934092185606" lon="10.829202462079678"><ele>170.0</ele><time>2026-04-04T10:10:38Z</time></trkpt><trkpt lat="43.47809184375002" lon="10.829115015857225"><ele>170.25</ele><time>2026-04-04T10:10:39Z</time></trkpt><trkpt lat="43.47823350614354" lon="10.829040013138629"><ele>170.5</ele><time>2026-04-04T10:10:40Z</time></trkpt><trkpt lat="43.47836598439303" lon="10.828967620270873"><ele>170.75</ele><time>2026-04-04T10:10:41Z</time></trkpt><trkpt lat="43.47849566200678" lon="10.828896940650095"><ele>171.0</ele><time>2026-04-04T10:10:42Z</time></trkpt><trkpt lat="43.478629945456184" lon="10.828824682589284"><ele>174.0</ele><time>2026-04-04T10:10:43Z</time></trkpt><trkpt lat="43.47876851329314" lon="10.82874952558765"><ele>177.0</ele><time>2026-04-04T10:10:44Z</time></trkpt><trkpt lat="43.47890916734797" lon="10.828669055964065"><ele>180.0</ele><time>2026-04-04T10:10:45Z</time></trkpt><trkpt lat="43.47916685611614" lon="10.828546233034212"><ele>180.0</ele><time>2026-04-04T10:10:47Z</time></trkpt><trkpt lat="43.479287478097795" lon="10.828534307427573"><ele>180.0</ele><time>2026-04-04T10:10:48Z</time></trkpt><trkpt lat="43.47941950249816" lon="10.828587836139663"><ele>180.0</ele><time>2026-04-04T10:10:49Z</time></trkpt><trkpt lat="43.479573160745666" lon="10.828675206106391"><ele>180.0</ele><time>2026-04-04T10:10:50Z</time></trkpt><trkpt lat="43.47973048869641" lon="10.828775765660405"><ele>180.66666666666666</ele><time>2026-04-04T10:10:51Z</time></trkpt><trkpt lat="43.47991499510968" lon="10.828885130024856"><ele>181.33333333333331</ele><time>2026-04-04T10:10:52Z</time></trkpt><trkpt lat="43.48009390500822" lon="10.828991175270946"><ele>182.0</ele><time>2026-04-04T10:10:53Z</time></trkpt><trkpt lat="43.480255435889816" lon="10.829088264941024"><ele>182.0</ele><time>2026-04-04T10:10:54Z</time></trkpt><trkpt lat="43.480431284086805" lon="10.829190990185573"><ele>182.0</ele><time>2026-04-04T10:10:55Z</time></trkpt><trkpt lat="43.48059788156382" lon="10.829290100443508"><ele>182.0</ele><time>2026-04-04T10:10:56Z</time></trkpt><trkpt lat="43.48075318356797" lon="10.829381926754598"><ele>185.66666666666666</ele><time>2026-04-04T10:10:57Z</time></trkpt><trkpt lat="43.48091314379902" lon="10.829474933493008"><ele>189.33333333333331</ele><time>2026-04-04T10:10:58Z</time></trkpt><trkpt lat="43.481058351384604" lon="10.829554730343574"><ele>193.0</ele><time>2026-04-04T10:10:59Z</time></trkpt><trkpt lat="43.48118139109339" lon="10.829629436007329"><ele>193.60000000000002</ele><time>2026-04-04T10:11:00Z</time></trkpt><trkpt lat="43.481296269266785" lon="10.829700022888579"><ele>194.20000000000002</ele><time>2026-04-04T10:11:01Z</time></trkpt><trkpt lat="43.481387380281205" lon="10.82976199157454"><ele>194.8</ele><time>2026-04-04T10:11:02Z</time></trkpt><trkpt lat="43.48145976866904" lon="10.829821036391518"><ele>195.4</ele><time>2026-04-04T10:11:03Z</time></trkpt><trkpt lat="43.48152573755312" lon="10.829891139120653"><ele>196.0</ele><time>2026-04-04T10:11:04Z</time></trkpt><trkpt lat="43.48157332612797" lon="10.829974279129974"><ele>195.99999999999997</ele><time>2026-04-04T10:11:05Z</time></trkpt><trkpt lat="43.48160699106397" lon="10.830068796240777"><ele>196.0</ele><time>2026-04-04T10:11:06Z</time></trkpt><trkpt lat="43.48165440807084" lon="10.830198925323373"><ele>196.0</ele><time>2026-04-04T10:11:08Z</time></trkpt><trkpt lat="43.48173905968681" lon="10.830179720518199"><ele>196.0</ele><time>2026-04-04T10:11:10Z</time></trkpt><trkpt lat="43.481787999049935" lon="10.830122894629186"><ele>195.99999999999997</ele><time>2026-04-04T10:11:11Z</time></trkpt><trkpt lat="43.48185480135249" lon="10.83003385046088"><ele>196.0</ele><time>2026-04-04T10:11:12Z</time></trkpt><trkpt lat="43.48193390529538" lon="10.829925258154427"><ele>196.0</ele><time>2026-04-04T10:11:13Z</time></trkpt><trkpt lat="43.4820179361181" lon="10.829812826394765"><ele>196.0</ele><time>2026-04-04T10:11:14Z</time></trkpt><trkpt lat="43.48211283972345" lon="10.829701294612319"><ele>196.0</ele><time>2026-04-04T10:11:15Z</time></trkpt><trkpt lat="43.48221471566873" lon="10.829623133287894"><ele>196.0</ele><time>2026-04-04T10:11:16Z</time></trkpt><trkpt lat="43.48232836583898" lon="10.829580827329746"><ele>194.60000000000002</ele><time>2026-04-04T10:11:17Z</time></trkpt><trkpt lat="43.48244713477227" lon="10.82955436548664"><ele>193.2</ele><time>2026-04-04T10:11:18Z</time></trkpt><trkpt lat="43.4825626059625" lon="10.82952888831156"><ele>191.8</ele><time>2026-04-04T10:11:19Z</time></trkpt><trkpt lat="43.48266585334255" lon="10.829498356746964"><ele>190.39999999999998</ele><time>2026-04-04T10:11:20Z</time></trkpt><trkpt lat="43.48274848229204" lon="10.829451951482813"><ele>189.0</ele><time>2026-04-04T10:11:21Z</time></trkpt><trkpt lat="43.48280731626671" lon="10.829381483966035"><ele>191.2</ele><time>2026-04-04T10:11:22Z</time></trkpt><trkpt lat="43.48284708263105" lon="10.829288065614014"><ele>193.39999999999998</ele><time>2026-04-04T10:11:23Z</time></trkpt><trkpt lat="43.482858459964916" lon="10.829163817815152"><ele>195.6</ele><time>2026-04-04T10:11:24Z</time></trkpt><trkpt lat="43.482844756930355" lon="10.829024878683802"><ele>197.8</ele><time>2026-04-04T10:11:25Z</time></trkpt><trkpt lat="43.482796417243705" lon="10.828871128009922"><ele>200.0</ele><time>2026-04-04T10:11:26Z</time></trkpt><trkpt lat="43.48275334682364" lon="10.828732484754521"><ele>200.0</ele><time>2026-04-04T10:11:27Z</time></trkpt><trkpt lat="43.482693288549775" lon="10.828588619606773"><ele>200.0</ele><time>2026-04-04T10:11:28Z</time></trkpt><trkpt lat="43.482616569777306" lon="10.828451990410212"><ele>200.0</ele><time>2026-04-04T10:11:29Z</time></trkpt><trkpt lat="43.4825501922039" lon="10.828324527466"><ele>200.0</ele><time>2026-04-04T10:11:30Z</time></trkpt><trkpt lat="43.48248942993226" lon="10.828196983106091"><ele>199.25</ele><time>2026-04-04T10:11:31Z</time></trkpt><trkpt lat="43.482441519489015" lon="10.828066519860297"><ele>198.5</ele><time>2026-04-04T10:11:32Z</time></trkpt><trkpt lat="43.482403290371174" lon="10.827921132359066"><ele>197.75</ele><time>2026-04-04T10:11:33Z</time></trkpt><trkpt lat="43.482374306172986" lon="10.827763458248892"><ele>197.0</ele><time>2026-04-04T10:11:34Z</time></trkpt><trkpt lat="43.482369918320515" lon="10.827554778010892"><ele>194.66666666666669</ele><time>2026-04-04T10:11:35Z</time></trkpt><trkpt lat="43.482385169479144" lon="10.827336401238881"><ele>192.33333333333334</ele><time>2026-04-04T10:11:36Z</time></trkpt><trkpt lat="43.48240114209767" lon="10.82711988601877"><ele>190.0</ele><time>2026-04-04T10:11:37Z</time></trkpt><trkpt lat="43.482424228547195" lon="10.826896403998804"><ele>188.66666666666669</ele><time>2026-04-04T10:11:38Z</time></trkpt><trkpt lat="43.4824524943723" lon="10.826674656403496"><ele>187.33333333333334</ele><time>2026-04-04T10:11:39Z</time></trkpt><trkpt lat="43.482481610319994" lon="10.826448044883298"><ele>186.0</ele><time>2026-04-04T10:11:40Z</time></trkpt><trkpt lat="43.48250903026399" lon="10.826215374607937"><ele>186.0</ele><time>2026-04-04T10:11:41Z</time></trkpt><trkpt lat="43.48253563837663" lon="10.82599409380495"><ele>186.0</ele><time>2026-04-04T10:11:42Z</time></trkpt><trkpt lat="43.48256466243919" lon="10.825778760750689"><ele>186.0</ele><time>2026-04-04T10:11:43Z</time></trkpt><trkpt lat="43.482590955247275" lon="10.825555041586625"><ele>184.33333333333334</ele><time>2026-04-04T10:11:44Z</time></trkpt><trkpt lat="43.4826174270458" lon="10.825321429892538"><ele>182.66666666666669</ele><time>2026-04-04T10:11:45Z</time></trkpt><trkpt lat="43.482646169134185" lon="10.82507518329062"><ele>181.0</ele><time>2026-04-04T10:11:46Z</time></trkpt><trkpt lat="43.48266405058777" lon="10.82480846553628"><ele>178.0</ele><time>2026-04-04T10:11:47Z</time></trkpt><trkpt lat="43.48266458722156" lon="10.82455453181438"><ele>175.0</ele><time>2026-04-04T10:11:48Z</time></trkpt><trkpt lat="43.48265582976587" lon="10.824322044095268"><ele>172.0</ele><time>2026-04-04T10:11:49Z</time></trkpt><trkpt lat="43.48264224926199" lon="10.824108458792962"><ele>171.5</ele><time>2026-04-04T10:11:50Z</time></trkpt><trkpt lat="43.482630461307885" lon="10.823899271919952"><ele>171.0</ele><time>2026-04-04T10:11:51Z</time></trkpt><trkpt lat="43.48262722625707" lon="10.823694847456965"><ele>170.5</ele><time>2026-04-04T10:11:52Z</time></trkpt><trkpt lat="43.48264622459041" lon="10.82350121418766"><ele>170.0</ele><time>2026-04-04T10:11:53Z</time></trkpt><trkpt lat="43.482679568950864" lon="10.823320027225455"><ele>170.0</ele><time>2026-04-04T10:11:54Z</time></trkpt><trkpt lat="43.48271148522144" lon="10.823155586018993"><ele>170.0</ele><time>2026-04-04T10:11:55Z</time></trkpt><trkpt lat="43.48274339051912" lon="10.822991132453913"><ele>170.0</ele><time>2026-04-04T10:11:56Z</time></trkpt><trkpt lat="43.482768857444825" lon="10.822825550917551"><ele>170.0</ele><time>2026-04-04T10:11:57Z</time></trkpt><trkpt lat="43.48277886548941" lon="10.822651066795297"><ele>169.75</ele><time>2026-04-04T10:11:58Z</time></trkpt><trkpt lat="43.48277527634147" lon="10.822470536080871"><ele>169.5</ele><time>2026-04-04T10:11:59Z</time></trkpt><trkpt lat="43.48275735894363" lon="10.822288947266507"><ele>169.25</ele><time>2026-04-04T10:12:00Z</time></trkpt><trkpt lat="43.482734197232915" lon="10.822108437943017"><ele>169.0</ele><time>2026-04-04T10:12:01Z</time></trkpt><trkpt lat="43.482713432119425" lon="10.821931565722654"><ele>167.75</ele><time>2026-04-04T10:12:02Z</time></trkpt><trkpt lat="43.48269289140956" lon="10.821756629314027"><ele>166.5</ele><time>2026-04-04T10:12:03Z</time></trkpt><trkpt lat="43.48267035018148" lon="10.821576263765044"><ele>165.25</ele><time>2026-04-04T10:12:04Z</time></trkpt><trkpt lat="43.48265211267401" lon="10.82140900955409"><ele>164.0</ele><time>2026-04-04T10:12:05Z</time></trkpt><trkpt lat="43.48263272593932" lon="10.821246441063545"><ele>164.0</ele><time>2026-04-04T10:12:06Z</time></trkpt><trkpt lat="43.48261276357594" lon="10.821086087336525"><ele>164.0</ele><time>2026-04-04T10:12:07Z</time></trkpt><trkpt lat="43.48259595516272" lon="10.820922675038195"><ele>164.0</ele><time>2026-04-04T10:12:08Z</time></trkpt><trkpt lat="43.48258620266199" lon="10.820760293380127"><ele>164.0</ele><time>2026-04-04T10:12:09Z</time></trkpt><trkpt lat="43.48258358750472" lon="10.82057937156706"><ele>163.75</ele><time>2026-04-04T10:12:10Z</time></trkpt><trkpt lat="43.48259208826983" lon="10.820394213841883"><ele>163.5</ele><time>2026-04-04T10:12:11Z</time></trkpt><trkpt lat="43.48260959830047" lon="10.82019918903984"><ele>163.25</ele><time>2026-04-04T10:12:12Z</time></trkpt><trkpt lat="43.48263227145316" lon="10.820004792721797"><ele>163.0</ele><time>2026-04-04T10:12:13Z</time></trkpt><trkpt lat="43.482654823142866" lon="10.819820609598755"><ele>162.75</ele><time>2026-04-04T10:12:14Z</time></trkpt><trkpt lat="43.48266315452964" lon="10.819634191720919"><ele>162.5</ele><time>2026-04-04T10:12:15Z</time></trkpt><trkpt lat="43.48265820347364" lon="10.819449848913044"><ele>162.25</ele><time>2026-04-04T10:12:16Z</time></trkpt><trkpt lat="43.48264261647688" lon="10.819265372568637"><ele>162.0</ele><time>2026-04-04T10:12:17Z</time></trkpt><trkpt lat="43.48262794777492" lon="10.819091534879384"><ele>161.5</ele><time>2026-04-04T10:12:18Z</time></trkpt><trkpt lat="43.482615545269134" lon="10.81892248949399"><ele>161.0</ele><time>2026-04-04T10:12:19Z</time></trkpt><trkpt lat="43.48259699576779" lon="10.818746033865022"><ele>160.5</ele><time>2026-04-04T10:12:20Z</time></trkpt><trkpt lat="43.48257061442751" lon="10.818563540318543"><ele>160.0</ele><time>2026-04-04T10:12:21Z</time></trkpt><trkpt lat="43.4825355529638" lon="10.818368742721269"><ele>158.5</ele><time>2026-04-04T10:12:22Z</time></trkpt><trkpt lat="43.48250175239123" lon="10.818185835530869"><ele>157.0</ele><time>2026-04-04T10:12:23Z</time></trkpt><trkpt lat="43.48247172667962" lon="10.818019276391079"><ele>155.5</ele><time>2026-04-04T10:12:24Z</time></trkpt><trkpt lat="43.482441750370675" lon="10.817860127201664"><ele>154.0</ele><time>2026-04-04T10:12:25Z</time></trkpt><trkpt lat="43.482413959364365" lon="10.817709259641411"><ele>152.4</ele><time>2026-04-04T10:12:26Z</time></trkpt><trkpt lat="43.482383770371534" lon="10.817571107072482"><ele>150.8</ele><time>2026-04-04T10:12:27Z</time></trkpt><trkpt lat="43.482354780987734" lon="10.817441184960652"><ele>149.2</ele><time>2026-04-04T10:12:28Z</time></trkpt><trkpt lat="43.482327496071434" lon="10.817304985282243"><ele>147.6</ele><time>2026-04-04T10:12:29Z</time></trkpt><trkpt lat="43.48231593219489" lon="10.817148659474249"><ele>146.0</ele><time>2026-04-04T10:12:30Z</time></trkpt><trkpt lat="43.48233272455811" lon="10.816975913134256"><ele>144.33333333333331</ele><time>2026-04-04T10:12:31Z</time></trkpt><trkpt lat="43.48237783687388" lon="10.816794325204619"><ele>142.66666666666666</ele><time>2026-04-04T10:12:32Z</time></trkpt><trkpt lat="43.48245198861183" lon="10.816597929218123"><ele>141.0</ele><time>2026-04-04T10:12:33Z</time></trkpt><trkpt lat="43.48253446386179" lon="10.816398902407782"><ele>141.0</ele><time>2026-04-04T10:12:34Z</time></trkpt><trkpt lat="43.482613194650376" lon="10.816185944211439"><ele>141.0</ele><time>2026-04-04T10:12:35Z</time></trkpt><trkpt lat="43.48269071833062" lon="10.81596631304208"><ele>141.0</ele><time>2026-04-04T10:12:36Z</time></trkpt><trkpt lat="43.48276964845453" lon="10.815748191546113"><ele>140.0</ele><time>2026-04-04T10:12:37Z</time></trkpt><trkpt lat="43.48284946550923" lon="10.815533811863775"><ele>139.0</ele><time>2026-04-04T10:12:38Z</time></trkpt><trkpt lat="43.482927152103215" lon="10.81532438066639"><ele>138.0</ele><time>2026-04-04T10:12:39Z</time></trkpt><trkpt lat="43.48300229000574" lon="10.815114063805252"><ele>136.33333333333334</ele><time>2026-04-04T10:12:40Z</time></trkpt><trkpt lat="43.483070041524144" lon="10.814914684865853"><ele>134.66666666666669</ele><time>2026-04-04T10:12:41Z</time></trkpt><trkpt lat="43.48313661704387" lon="10.814724147736628"><ele>133.0</ele><time>2026-04-04T10:12:42Z</time></trkpt><trkpt lat="43.48320036015865" lon="10.81454944548228"><ele>133.0</ele><time>2026-04-04T10:12:43Z</time></trkpt><trkpt lat="43.48326075522777" lon="10.814388884574383"><ele>133.0</ele><time>2026-04-04T10:12:44Z</time></trkpt><trkpt lat="43.4833200903267" lon="10.814234856156352"><ele>133.0</ele><time>2026-04-04T10:12:45Z</time></trkpt><trkpt lat="43.483379555363214" lon="10.814081267036093"><ele>133.0</ele><time>2026-04-04T10:12:46Z</time></trkpt><trkpt lat="43.48344195555" lon="10.813917895199038"><ele>134.0</ele><time>2026-04-04T10:12:47Z</time></trkpt><trkpt lat="43.483523623207134" lon="10.813753412350064"><ele>135.0</ele><time>2026-04-04T10:12:48Z</time></trkpt><trkpt lat="43.4836386573863" lon="10.813606293921548"><ele>136.0</ele><time>2026-04-04T10:12:49Z</time></trkpt><trkpt lat="43.483784315517816" lon="10.813464762909634"><ele>136.33333333333334</ele><time>2026-04-04T10:12:50Z</time></trkpt><trkpt lat="43.483949114984796" lon="10.813311715695976"><ele>136.66666666666666</ele><time>2026-04-04T10:12:51Z</time></trkpt><trkpt lat="43.484129892839476" lon="10.813133620864612"><ele>137.0</ele><time>2026-04-04T10:12:52Z</time></trkpt><trkpt lat="43.484293305230636" lon="10.812963727869747"><ele>137.0</ele><time>2026-04-04T10:12:53Z</time></trkpt><trkpt lat="43.48443705026411" lon="10.812817311018987"><ele>137.0</ele><time>2026-04-04T10:12:54Z</time></trkpt><trkpt lat="43.48457050009909" lon="10.812679757480893"><ele>137.0</ele><time>2026-04-04T10:12:55Z</time></trkpt><trkpt lat="43.48469217340279" lon="10.812549033880098"><ele>137.33333333333331</ele><time>2026-04-04T10:12:56Z</time></trkpt><trkpt lat="43.48479645860556" lon="10.812407618275111"><ele>137.66666666666666</ele><time>2026-04-04T10:12:57Z</time></trkpt><trkpt lat="43.48487825166076" lon="10.812240329452761"><ele>138.0</ele><time>2026-04-04T10:12:58Z</time></trkpt><trkpt lat="43.48496121455099" lon="10.81202337479589"><ele>137.0</ele><time>2026-04-04T10:12:59Z</time></trkpt><trkpt lat="43.48503173865383" lon="10.811777417446633"><ele>136.0</ele><time>2026-04-04T10:13:00Z</time></trkpt><trkpt lat="43.485098873589614" lon="10.811527057421051"><ele>135.0</ele><time>2026-04-04T10:13:01Z</time></trkpt><trkpt lat="43.48517252976804" lon="10.811303727689584"><ele>135.0</ele><time>2026-04-04T10:13:02Z</time></trkpt><trkpt lat="43.48524618595256" lon="10.81108641890577"><ele>135.0</ele><time>2026-04-04T10:13:03Z</time></trkpt><trkpt lat="43.485322312164456" lon="10.810854996818245"><ele>135.0</ele><time>2026-04-04T10:13:04Z</time></trkpt><trkpt lat="43.4853978098917" lon="10.810590932342215"><ele>133.66666666666666</ele><time>2026-04-04T10:13:05Z</time></trkpt><trkpt lat="43.48546493545331" lon="10.810318536943818"><ele>132.33333333333331</ele><time>2026-04-04T10:13:06Z</time></trkpt><trkpt lat="43.48552094797836" lon="10.810079928054556"><ele>131.0</ele><time>2026-04-04T10:13:07Z</time></trkpt><trkpt lat="43.48557508138329" lon="10.809845562864634"><ele>131.0</ele><time>2026-04-04T10:13:08Z</time></trkpt><trkpt lat="43.48562720868059" lon="10.809618576916243"><ele>131.0</ele><time>2026-04-04T10:13:09Z</time></trkpt><trkpt lat="43.48568175419179" lon="10.809386904127601"><ele>131.0</ele><time>2026-04-04T10:13:10Z</time></trkpt><trkpt lat="43.485740022338405" lon="10.809165061078549"><ele>132.33333333333331</ele><time>2026-04-04T10:13:11Z</time></trkpt><trkpt lat="43.4857887885768" lon="10.808956131668204"><ele>133.66666666666666</ele><time>2026-04-04T10:13:12Z</time></trkpt><trkpt lat="43.48582730846151" lon="10.808726206322966"><ele>135.0</ele><time>2026-04-04T10:13:13Z</time></trkpt><trkpt lat="43.48584777766349" lon="10.808485686057379"><ele>135.66666666666666</ele><time>2026-04-04T10:13:14Z</time></trkpt><trkpt lat="43.48585342176802" lon="10.808239889123392"><ele>136.33333333333331</ele><time>2026-04-04T10:13:15Z</time></trkpt><trkpt lat="43.48585112779697" lon="10.807994417911281"><ele>137.0</ele><time>2026-04-04T10:13:16Z</time></trkpt><trkpt lat="43.48584492269256" lon="10.807757718340806"><ele>137.66666666666666</ele><time>2026-04-04T10:13:17Z</time></trkpt><trkpt lat="43.485825277502165" lon="10.80753660822115"><ele>138.33333333333334</ele><time>2026-04-04T10:13:18Z</time></trkpt><trkpt lat="43.48577390575678" lon="10.807320237709797"><ele>139.0</ele><time>2026-04-04T10:13:19Z</time></trkpt><trkpt lat="43.48570299460763" lon="10.807112869166767"><ele>139.0</ele><time>2026-04-04T10:13:20Z</time></trkpt><trkpt lat="43.4856216370662" lon="10.80690191037118"><ele>139.0</ele><time>2026-04-04T10:13:21Z</time></trkpt><trkpt lat="43.485534426011135" lon="10.806664674909886"><ele>139.0</ele><time>2026-04-04T10:13:22Z</time></trkpt><trkpt lat="43.48543795921481" lon="10.806386624522872"><ele>137.66666666666669</ele><time>2026-04-04T10:13:23Z</time></trkpt><trkpt lat="43.48535516200871" lon="10.806142472403417"><ele>136.33333333333334</ele><time>2026-04-04T10:13:24Z</time></trkpt><trkpt lat="43.48527700764776" lon="10.805920015105256"><ele>135.0</ele><time>2026-04-04T10:13:25Z</time></trkpt><trkpt lat="43.485193101425665" lon="10.805687093844924"><ele>135.0</ele><time>2026-04-04T10:13:26Z</time></trkpt><trkpt lat="43.48511790756967" lon="10.805474676332315"><ele>135.0</ele><time>2026-04-04T10:13:27Z</time></trkpt><trkpt lat="43.48504991179895" lon="10.80527384342789"><ele>135.0</ele><time>2026-04-04T10:13:28Z</time></trkpt><trkpt lat="43.4849794892083" lon="10.805076157769504"><ele>136.33333333333334</ele><time>2026-04-04T10:13:29Z</time></trkpt><trkpt lat="43.48491196397097" lon="10.80486890574806"><ele>137.66666666666669</ele><time>2026-04-04T10:13:30Z</time></trkpt><trkpt lat="43.484861450584056" lon="10.804652370064256"><ele>139.0</ele><time>2026-04-04T10:13:31Z</time></trkpt><trkpt lat="43.48483012545166" lon="10.804410306074693"><ele>140.0</ele><time>2026-04-04T10:13:32Z</time></trkpt><trkpt lat="43.48481169373232" lon="10.804166717144268"><ele>141.0</ele><time>2026-04-04T10:13:33Z</time></trkpt><trkpt lat="43.48479357618971" lon="10.803936554468493"><ele>142.0</ele><time>2026-04-04T10:13:34Z</time></trkpt><trkpt lat="43.48477725971594" lon="10.803714223451143"><ele>142.0</ele><time>2026-04-04T10:13:35Z</time></trkpt><trkpt lat="43.48476986657991" lon="10.803522348450254"><ele>142.0</ele><time>2026-04-04T10:13:36Z</time></trkpt><trkpt lat="43.484784243911726" lon="10.80333808721235"><ele>142.0</ele><time>2026-04-04T10:13:37Z</time></trkpt><trkpt lat="43.48482198612968" lon="10.803129071204184"><ele>142.0</ele><time>2026-04-04T10:13:38Z</time></trkpt><trkpt lat="43.484889158517824" lon="10.802897165988796"><ele>142.0</ele><time>2026-04-04T10:13:39Z</time></trkpt><trkpt lat="43.484974160486566" lon="10.802656085084518"><ele>142.0</ele><time>2026-04-04T10:13:40Z</time></trkpt><trkpt lat="43.48505513072413" lon="10.802447708853894"><ele>142.0</ele><time>2026-04-04T10:13:41Z</time></trkpt><trkpt lat="43.48512816656818" lon="10.802271422643441"><ele>142.0</ele><time>2026-04-04T10:13:42Z</time></trkpt><trkpt lat="43.485205641514575" lon="10.802114908745597"><ele>142.0</ele><time>2026-04-04T10:13:43Z</time></trkpt><trkpt lat="43.48530826664804" lon="10.801969088284109"><ele>142.0</ele><time>2026-04-04T10:13:44Z</time></trkpt><trkpt lat="43.485442222259" lon="10.801815598130974"><ele>141.66666666666669</ele><time>2026-04-04T10:13:45Z</time></trkpt><trkpt lat="43.485598735727564" lon="10.801655997196702"><ele>141.33333333333334</ele><time>2026-04-04T10:13:46Z</time></trkpt><trkpt lat="43.48574688689023" lon="10.801512880843154"><ele>141.0</ele><time>2026-04-04T10:13:47Z</time></trkpt><trkpt lat="43.485871324969146" lon="10.801388999318561"><ele>141.0</ele><time>2026-04-04T10:13:48Z</time></trkpt><trkpt lat="43.4859825694728" lon="10.801271553031906"><ele>141.0</ele><time>2026-04-04T10:13:49Z</time></trkpt><trkpt lat="43.48607968121088" lon="10.801155461126003"><ele>141.0</ele><time>2026-04-04T10:13:50Z</time></trkpt><trkpt lat="43.486163195323215" lon="10.801008773870828"><ele>141.0</ele><time>2026-04-04T10:13:51Z</time></trkpt><trkpt lat="43.48622140299185" lon="10.800818669542384"><ele>139.66666666666666</ele><time>2026-04-04T10:13:52Z</time></trkpt><trkpt lat="43.48625641863462" lon="10.800587685206215"><ele>138.33333333333331</ele><time>2026-04-04T10:13:53Z</time></trkpt><trkpt lat="43.48628700798696" lon="10.800323458951569"><ele>137.0</ele><time>2026-04-04T10:13:54Z</time></trkpt><trkpt lat="43.486326874269004" lon="10.80006405127781"><ele>134.33333333333331</ele><time>2026-04-04T10:13:55Z</time></trkpt><trkpt lat="43.486366654856404" lon="10.799824958036622"><ele>131.66666666666666</ele><time>2026-04-04T10:13:56Z</time></trkpt><trkpt lat="43.48640137027949" lon="10.799601439727963"><ele>129.0</ele><time>2026-04-04T10:13:57Z</time></trkpt><trkpt lat="43.48643261419176" lon="10.799387963009027"><ele>128.5</ele><time>2026-04-04T10:13:58Z</time></trkpt><trkpt lat="43.48646578109387" lon="10.799189945055485"><ele>128.0</ele><time>2026-04-04T10:13:59Z</time></trkpt><trkpt lat="43.486500004097834" lon="10.799009672054291"><ele>127.5</ele><time>2026-04-04T10:14:00Z</time></trkpt><trkpt lat="43.48653434184091" lon="10.798835039635957"><ele>127.0</ele><time>2026-04-04T10:14:01Z</time></trkpt><trkpt lat="43.48657987019175" lon="10.7986643377159"><ele>127.5</ele><time>2026-04-04T10:14:02Z</time></trkpt><trkpt lat="43.48664558971208" lon="10.7984910213314"><ele>128.0</ele><time>2026-04-04T10:14:03Z</time></trkpt><trkpt lat="43.486719699000375" lon="10.798321055030733"><ele>128.5</ele><time>2026-04-04T10:14:04Z</time></trkpt><trkpt lat="43.48679325989731" lon="10.798176757903638"><ele>129.0</ele><time>2026-04-04T10:14:05Z</time></trkpt><trkpt lat="43.486863952213206" lon="10.798017188421383"><ele>129.0</ele><time>2026-04-04T10:14:06Z</time></trkpt><trkpt lat="43.48693093140106" lon="10.797862614010205"><ele>129.0</ele><time>2026-04-04T10:14:07Z</time></trkpt><trkpt lat="43.48699960131609" lon="10.797702039413146"><ele>129.0</ele><time>2026-04-04T10:14:08Z</time></trkpt><trkpt lat="43.4870694746924" lon="10.797540291883884"><ele>129.0</ele><time>2026-04-04T10:14:09Z</time></trkpt><trkpt lat="43.48714628916133" lon="10.79736277548874"><ele>128.33333333333334</ele><time>2026-04-04T10:14:10Z</time></trkpt><trkpt lat="43.48723434131808" lon="10.797166277707204"><ele>127.66666666666667</ele><time>2026-04-04T10:14:11Z</time></trkpt><trkpt lat="43.48731931249148" lon="10.796976371495328"><ele>127.0</ele><time>2026-04-04T10:14:12Z</time></trkpt><trkpt lat="43.48739135246868" lon="10.796808526853848"><ele>127.0</ele><time>2026-04-04T10:14:13Z</time></trkpt><trkpt lat="43.48745994460176" lon="10.796649111399026"><ele>127.0</ele><time>2026-04-04T10:14:14Z</time></trkpt><trkpt lat="43.48753435017982" lon="10.796496141714096"><ele>127.0</ele><time>2026-04-04T10:14:15Z</time></trkpt><trkpt lat="43.487630624604" lon="10.796368968477076"><ele>127.0</ele><time>2026-04-04T10:14:16Z</time></trkpt><trkpt lat="43.48776724736808" lon="10.796294244709058"><ele>125.0</ele><time>2026-04-04T10:14:17Z</time></trkpt><trkpt lat="43.48792828594283" lon="10.796256583011152"><ele>123.0</ele><time>2026-04-04T10:14:18Z</time></trkpt><trkpt lat="43.48811200340736" lon="10.79626882862504"><ele>121.0</ele><time>2026-04-04T10:14:19Z</time></trkpt><trkpt lat="43.48831062083065" lon="10.796301835093772"><ele>121.0</ele><time>2026-04-04T10:14:20Z</time></trkpt><trkpt lat="43.48849274219692" lon="10.796317308935318"><ele>121.0</ele><time>2026-04-04T10:14:21Z</time></trkpt><trkpt lat="43.488686687540515" lon="10.796297263522336"><ele>121.0</ele><time>2026-04-04T10:14:22Z</time></trkpt><trkpt lat="43.488857987895095" lon="10.796249419738768"><ele>120.25</ele><time>2026-04-04T10:14:23Z</time></trkpt><trkpt lat="43.48900849732465" lon="10.796196121871127"><ele>119.5</ele><time>2026-04-04T10:14:24Z</time></trkpt><trkpt lat="43.48913718258151" lon="10.796145928358257"><ele>118.75</ele><time>2026-04-04T10:14:25Z</time></trkpt><trkpt lat="43.48925096451876" lon="10.796091726746022"><ele>118.0</ele><time>2026-04-04T10:14:26Z</time></trkpt><trkpt lat="43.489351249348005" lon="10.796024783291804"><ele>117.75</ele><time>2026-04-04T10:14:27Z</time></trkpt><trkpt lat="43.48943590998552" lon="10.795928204558239"><ele>117.5</ele><time>2026-04-04T10:14:28Z</time></trkpt><trkpt lat="43.48951108723119" lon="10.795776763434848"><ele>117.25</ele><time>2026-04-04T10:14:29Z</time></trkpt><trkpt lat="43.48957799134944" lon="10.795568830872448"><ele>117.0</ele><time>2026-04-04T10:14:30Z</time></trkpt><trkpt lat="43.48965427734301" lon="10.795306579579849"><ele>118.66666666666666</ele><time>2026-04-04T10:14:31Z</time></trkpt><trkpt lat="43.48973893118411" lon="10.795042902925525"><ele>120.33333333333333</ele><time>2026-04-04T10:14:32Z</time></trkpt><trkpt lat="43.48981005977625" lon="10.794815753518407"><ele>122.0</ele><time>2026-04-04T10:14:33Z</time></trkpt><trkpt lat="43.48987575786976" lon="10.79459742911151"><ele>122.0</ele><time>2026-04-04T10:14:34Z</time></trkpt><trkpt lat="43.48993928507966" lon="10.794392593920369"><ele>122.0</ele><time>2026-04-04T10:14:35Z</time></trkpt><trkpt lat="43.48999910043371" lon="10.794204316374"><ele>122.0</ele><time>2026-04-04T10:14:36Z</time></trkpt><trkpt lat="43.490057598186134" lon="10.794012301371234"><ele>123.66666666666666</ele><time>2026-04-04T10:14:37Z</time></trkpt><trkpt lat="43.490115571662905" lon="10.793826446277441"><ele>125.33333333333334</ele><time>2026-04-04T10:14:38Z</time></trkpt><trkpt lat="43.490179092193955" lon="10.793633422161115"><ele>127.0</ele><time>2026-04-04T10:14:39Z</time></trkpt><trkpt lat="43.4902453235198" lon="10.793427137605557"><ele>127.0</ele><time>2026-04-04T10:14:40Z</time></trkpt><trkpt lat="43.49031403245162" lon="10.793218396707452"><ele>127.0</ele><time>2026-04-04T10:14:41Z</time></trkpt><trkpt lat="43.49038524710599" lon="10.79300629225395"><ele>127.0</ele><time>2026-04-04T10:14:42Z</time></trkpt><trkpt lat="43.490448816717965" lon="10.792817315765113"><ele>127.75</ele><time>2026-04-04T10:14:43Z</time></trkpt><trkpt lat="43.490512729066104" lon="10.792629774394022"><ele>128.5</ele><time>2026-04-04T10:14:44Z</time></trkpt><trkpt lat="43.49057924690636" lon="10.792447135896154"><ele>129.25</ele><time>2026-04-04T10:14:45Z</time></trkpt><trkpt lat="43.490648459099944" lon="10.792281393451162"><ele>130.0</ele><time>2026-04-04T10:14:46Z</time></trkpt><trkpt lat="43.490723877207" lon="10.792126295404836"><ele>130.0</ele><time>2026-04-04T10:14:47Z</time></trkpt><trkpt lat="43.490794210977256" lon="10.791976234309097"><ele>130.0</ele><time>2026-04-04T10:14:48Z</time></trkpt><trkpt lat="43.490863960858555" lon="10.791819764126007"><ele>130.0</ele><time>2026-04-04T10:14:49Z</time></trkpt><trkpt lat="43.49093061890987" lon="10.79165491337116"><ele>130.0</ele><time>2026-04-04T10:14:50Z</time></trkpt><trkpt lat="43.491005336067566" lon="10.791493174231464"><ele>130.5</ele><time>2026-04-04T10:14:51Z</time></trkpt><trkpt lat="43.491084571564954" lon="10.791335026003447"><ele>131.0</ele><time>2026-04-04T10:14:52Z</time></trkpt><trkpt lat="43.49115855172818" lon="10.79118316069757"><ele>131.5</ele><time>2026-04-04T10:14:53Z</time></trkpt><trkpt lat="43.49123238306774" lon="10.791029617145625"><ele>132.0</ele><time>2026-04-04T10:14:54Z</time></trkpt><trkpt lat="43.49130961350086" lon="10.790876370945801"><ele>129.5</ele><time>2026-04-04T10:14:55Z</time></trkpt><trkpt lat="43.4913880080083" lon="10.790734944015734"><ele>127.0</ele><time>2026-04-04T10:14:56Z</time></trkpt><trkpt lat="43.49147004930887" lon="10.79059681959046"><ele>124.5</ele><time>2026-04-04T10:14:57Z</time></trkpt><trkpt lat="43.491556440541665" lon="10.790459793112346"><ele>122.0</ele><time>2026-04-04T10:14:58Z</time></trkpt><trkpt lat="43.49164471804256" lon="10.790322350255403"><ele>122.0</ele><time>2026-04-04T10:14:59Z</time></trkpt><trkpt lat="43.49172641749711" lon="10.790187157558861"><ele>122.0</ele><time>2026-04-04T10:15:00Z</time></trkpt><trkpt lat="43.49180400616355" lon="10.790044223828216"><ele>122.0</ele><time>2026-04-04T10:15:01Z</time></trkpt><trkpt lat="43.49188094348584" lon="10.789920586234453"><ele>122.0</ele><time>2026-04-04T10:15:02Z</time></trkpt><trkpt lat="43.49195568687689" lon="10.789799854383773"><ele>122.19999999999999</ele><time>2026-04-04T10:15:03Z</time></trkpt><trkpt lat="43.492026454415374" lon="10.789682295530397"><ele>122.39999999999999</ele><time>2026-04-04T10:15:04Z</time></trkpt><trkpt lat="43.49209353424062" lon="10.789571343357526"><ele>122.60000000000001</ele><time>2026-04-04T10:15:05Z</time></trkpt><trkpt lat="43.492155613076505" lon="10.789465734264677"><ele>122.80000000000001</ele><time>2026-04-04T10:15:06Z</time></trkpt><trkpt lat="43.49221263093493" lon="10.789365893434102"><ele>123.0</ele><time>2026-04-04T10:15:07Z</time></trkpt><trkpt lat="43.49227008632064" lon="10.789280461087008"><ele>122.0</ele><time>2026-04-04T10:15:08Z</time></trkpt><trkpt lat="43.49231451998913" lon="10.789216648139277"><ele>121.00000000000001</ele><time>2026-04-04T10:15:09Z</time></trkpt><trkpt lat="43.49238290044074" lon="10.789106149841198"><ele>120.00000000000001</ele><time>2026-04-04T10:15:11Z</time></trkpt><trkpt lat="43.492445712447875" lon="10.788991237754505"><ele>119.0</ele><time>2026-04-04T10:15:13Z</time></trkpt><trkpt lat="43.49250600292617" lon="10.788854465850372"><ele>118.0</ele><time>2026-04-04T10:15:15Z</time></trkpt><trkpt lat="43.49254416187995" lon="10.78877797228434"><ele>118.00000000000001</ele><time>2026-04-04T10:15:16Z</time></trkpt><trkpt lat="43.492626320369986" lon="10.788649190883289"><ele>118.0</ele><time>2026-04-04T10:15:18Z</time></trkpt><trkpt lat="43.49267319408033" lon="10.788579742960142"><ele>118.0</ele><time>2026-04-04T10:15:19Z</time></trkpt><trkpt lat="43.49272397692917" lon="10.78850567272727"><ele>118.0</ele><time>2026-04-04T10:15:20Z</time></trkpt><trkpt lat="43.49277633196056" lon="10.788434596845896"><ele>118.00000000000001</ele><time>2026-04-04T10:15:21Z</time></trkpt><trkpt lat="43.49282945867695" lon="10.788352497469734"><ele>118.0</ele><time>2026-04-04T10:15:22Z</time></trkpt><trkpt lat="43.49287849444494" lon="10.78827238455594"><ele>118.66666666666667</ele><time>2026-04-04T10:15:23Z</time></trkpt><trkpt lat="43.49292942573479" lon="10.788186472523218"><ele>119.33333333333334</ele><time>2026-04-04T10:15:24Z</time></trkpt><trkpt lat="43.49298508383981" lon="10.788097246526712"><ele>120.0</ele><time>2026-04-04T10:15:25Z</time></trkpt><trkpt lat="43.49303527556179" lon="10.788014565180085"><ele>120.66666666666666</ele><time>2026-04-04T10:15:26Z</time></trkpt><trkpt lat="43.49308559559291" lon="10.787921223588047"><ele>121.33333333333333</ele><time>2026-04-04T10:15:27Z</time></trkpt><trkpt lat="43.493133230243" lon="10.787823577132928"><ele>122.0</ele><time>2026-04-04T10:15:28Z</time></trkpt><trkpt lat="43.493178394313695" lon="10.787713570615917"><ele>123.0</ele><time>2026-04-04T10:15:29Z</time></trkpt><trkpt lat="43.49322293472427" lon="10.787576220744688"><ele>124.0</ele><time>2026-04-04T10:15:30Z</time></trkpt><trkpt lat="43.493266097662584" lon="10.787421430513984"><ele>125.0</ele><time>2026-04-04T10:15:31Z</time></trkpt><trkpt lat="43.49330599375428" lon="10.787241813849263"><ele>126.0</ele><time>2026-04-04T10:15:32Z</time></trkpt><trkpt lat="43.49334729331951" lon="10.787038898358226"><ele>126.0</ele><time>2026-04-04T10:15:33Z</time></trkpt><trkpt lat="43.49338172965825" lon="10.786862124078898"><ele>126.0</ele><time>2026-04-04T10:15:34Z</time></trkpt><trkpt lat="43.49341458513615" lon="10.786709866825733"><ele>126.0</ele><time>2026-04-04T10:15:35Z</time></trkpt><trkpt lat="43.49344748366921" lon="10.78655610411077"><ele>126.0</ele><time>2026-04-04T10:15:36Z</time></trkpt><trkpt lat="43.49347977069072" lon="10.7863940710174"><ele>126.5</ele><time>2026-04-04T10:15:37Z</time></trkpt><trkpt lat="43.49350725991209" lon="10.786223951862633"><ele>127.0</ele><time>2026-04-04T10:15:38Z</time></trkpt><trkpt lat="43.49353114663188" lon="10.786043466429504"><ele>127.5</ele><time>2026-04-04T10:15:39Z</time></trkpt><trkpt lat="43.49355382475628" lon="10.785866570815614"><ele>128.0</ele><time>2026-04-04T10:15:40Z</time></trkpt><trkpt lat="43.49357758548834" lon="10.785690909084808"><ele>128.75</ele><time>2026-04-04T10:15:41Z</time></trkpt><trkpt lat="43.493600490310754" lon="10.785519874769784"><ele>129.5</ele><time>2026-04-04T10:15:42Z</time></trkpt><trkpt lat="43.49362666701272" lon="10.785348862128085"><ele>130.25</ele><time>2026-04-04T10:15:43Z</time></trkpt><trkpt lat="43.49365524518805" lon="10.785189838821823"><ele>131.0</ele><time>2026-04-04T10:15:44Z</time></trkpt><trkpt lat="43.49368879825641" lon="10.785060017973207"><ele>130.16666666666666</ele><time>2026-04-04T10:15:45Z</time></trkpt><trkpt lat="43.49372257133539" lon="10.78494677279224"><ele>129.33333333333331</ele><time>2026-04-04T10:15:46Z</time></trkpt><trkpt lat="43.493753991323565" lon="10.784840320997535"><ele>128.5</ele><time>2026-04-04T10:15:47Z</time></trkpt><trkpt lat="43.49377467855162" lon="10.784747202011795"><ele>127.66666666666666</ele><time>2026-04-04T10:15:48Z</time></trkpt><trkpt lat="43.49378849012318" lon="10.784640840946517"><ele>126.83333333333333</ele><time>2026-04-04T10:15:49Z</time></trkpt><trkpt lat="43.49380690405243" lon="10.784535066938965"><ele>126.0</ele><time>2026-04-04T10:15:50Z</time></trkpt><trkpt lat="43.493841774018186" lon="10.784438755582961"><ele>126.0</ele><time>2026-04-04T10:15:51Z</time></trkpt><trkpt lat="43.49389609780804" lon="10.784360105276615"><ele>126.0</ele><time>2026-04-04T10:15:52Z</time></trkpt><trkpt lat="43.493959883329765" lon="10.78429114113065"><ele>126.0</ele><time>2026-04-04T10:15:53Z</time></trkpt><trkpt lat="43.49403278735527" lon="10.784222756432008"><ele>126.0</ele><time>2026-04-04T10:15:54Z</time></trkpt><trkpt lat="43.49411449612167" lon="10.784153077885966"><ele>126.0</ele><time>2026-04-04T10:15:55Z</time></trkpt><trkpt lat="43.49419931838932" lon="10.784089969091411"><ele>126.0</ele><time>2026-04-04T10:15:56Z</time></trkpt><trkpt lat="43.494282481617134" lon="10.784024540277892"><ele>126.19999999999999</ele><time>2026-04-04T10:15:57Z</time></trkpt><trkpt lat="43.494360700306885" lon="10.783962193519542"><ele>126.39999999999999</ele><time>2026-04-04T10:15:58Z</time></trkpt><trkpt lat="43.49443223057704" lon="10.783902047299213"><ele>126.6</ele><time>2026-04-04T10:15:59Z</time></trkpt><trkpt lat="43.49451536637762" lon="10.783839231609036"><ele>126.8</ele><time>2026-04-04T10:16:00Z</time></trkpt><trkpt lat="43.49459402598271" lon="10.783784331935466"><ele>127.0</ele><time>2026-04-04T10:16:01Z</time></trkpt><trkpt lat="43.4946772169575" lon="10.783725765515133"><ele>127.0</ele><time>2026-04-04T10:16:02Z</time></trkpt><trkpt lat="43.494760244022004" lon="10.783657447134644"><ele>126.99999999999999</ele><time>2026-04-04T10:16:03Z</time></trkpt><trkpt lat="43.49483872246887" lon="10.783599147491936"><ele>126.99999999999999</ele><time>2026-04-04T10:16:04Z</time></trkpt><trkpt lat="43.49492140961205" lon="10.783541105785652"><ele>127.0</ele><time>2026-04-04T10:16:05Z</time></trkpt><trkpt lat="43.49500088723879" lon="10.783482839645885"><ele>127.0</ele><time>2026-04-04T10:16:06Z</time></trkpt><trkpt lat="43.49507418173533" lon="10.783427208589856"><ele>126.50000000000001</ele><time>2026-04-04T10:16:07Z</time></trkpt><trkpt lat="43.49514390589429" lon="10.783376538919619"><ele>126.0</ele><time>2026-04-04T10:16:08Z</time></trkpt><trkpt lat="43.49521723874441" lon="10.783325351082048"><ele>125.5</ele><time>2026-04-04T10:16:09Z</time></trkpt><trkpt lat="43.495287468155595" lon="10.783272205253578"><ele>125.0</ele><time>2026-04-04T10:16:10Z</time></trkpt><trkpt lat="43.49535599503568" lon="10.783224117422309"><ele>124.50000000000001</ele><time>2026-04-04T10:16:11Z</time></trkpt><trkpt lat="43.49542544514355" lon="10.783176844859378"><ele>124.0</ele><time>2026-04-04T10:16:12Z</time></trkpt><trkpt lat="43.4954939322703" lon="10.783130200582836"><ele>123.00000000000001</ele><time>2026-04-04T10:16:13Z</time></trkpt><trkpt lat="43.49556655879474" lon="10.783087149396517"><ele>122.0</ele><time>2026-04-04T10:16:14Z</time></trkpt><trkpt lat="43.49562776670103" lon="10.783059943290649"><ele>121.0</ele><time>2026-04-04T10:16:15Z</time></trkpt><trkpt lat="43.49569260948048" lon="10.783053804174555"><ele>120.0</ele><time>2026-04-04T10:16:16Z</time></trkpt><trkpt lat="43.495761379987215" lon="10.783056387507532"><ele>119.00000000000001</ele><time>2026-04-04T10:16:17Z</time></trkpt><trkpt lat="43.495844669280885" lon="10.783084953849555"><ele>118.0</ele><time>2026-04-04T10:16:18Z</time></trkpt><trkpt lat="43.49592478000422" lon="10.783131039391074"><ele>118.00000000000001</ele><time>2026-04-04T10:16:19Z</time></trkpt><trkpt lat="43.49601049057908" lon="10.783169726645951"><ele>118.0</ele><time>2026-04-04T10:16:20Z</time></trkpt><trkpt lat="43.496094532437084" lon="10.78318879878064"><ele>118.0</ele><time>2026-04-04T10:16:21Z</time></trkpt><trkpt lat="43.496184401509815" lon="10.78319936811107"><ele>118.0</ele><time>2026-04-04T10:16:22Z</time></trkpt><trkpt lat="43.49626930840316" lon="10.783196767200325"><ele>118.00000000000001</ele><time>2026-04-04T10:16:23Z</time></trkpt><trkpt lat="43.496352725109574" lon="10.783171956079704"><ele>118.0</ele><time>2026-04-04T10:16:24Z</time></trkpt><trkpt lat="43.49643340972725" lon="10.783136487878785"><ele>118.66666666666667</ele><time>2026-04-04T10:16:25Z</time></trkpt><trkpt lat="43.49650079877271" lon="10.783096175649101"><ele>119.33333333333334</ele><time>2026-04-04T10:16:26Z</time></trkpt><trkpt lat="43.49657362557554" lon="10.783067438054093"><ele>120.0</ele><time>2026-04-04T10:16:27Z</time></trkpt><trkpt lat="43.496652582851404" lon="10.783039438375276"><ele>120.66666666666666</ele><time>2026-04-04T10:16:28Z</time></trkpt><trkpt lat="43.496722609859816" lon="10.783009986931027"><ele>121.33333333333333</ele><time>2026-04-04T10:16:29Z</time></trkpt><trkpt lat="43.4967902755457" lon="10.782995535179763"><ele>122.0</ele><time>2026-04-04T10:16:30Z</time></trkpt><trkpt lat="43.496879350821835" lon="10.782966304989904"><ele>121.99999999999999</ele><time>2026-04-04T10:16:31Z</time></trkpt><trkpt lat="43.49696035319976" lon="10.782939913608184"><ele>122.0</ele><time>2026-04-04T10:16:32Z</time></trkpt><trkpt lat="43.497043549195475" lon="10.782901468013915"><ele>122.0</ele><time>2026-04-04T10:16:33Z</time></trkpt><trkpt lat="43.497118849527915" lon="10.782860328741728"><ele>122.0</ele><time>2026-04-04T10:16:34Z</time></trkpt><trkpt lat="43.497190558503185" lon="10.782806350378966"><ele>121.99999999999999</ele><time>2026-04-04T10:16:35Z</time></trkpt><trkpt lat="43.49725495874047" lon="10.78274381195608"><ele>122.0</ele><time>2026-04-04T10:16:36Z</time></trkpt><trkpt lat="43.49731677071803" lon="10.782671398872758"><ele>122.57142857142856</ele><time>2026-04-04T10:16:37Z</time></trkpt><trkpt lat="43.49737586933471" lon="10.7826010670143"><ele>123.14285714285714</ele><time>2026-04-04T10:16:38Z</time></trkpt><trkpt lat="43.497435320566915" lon="10.782540234416958"><ele>123.71428571428571</ele><time>2026-04-04T10:16:39Z</time></trkpt><trkpt lat="43.497492601704806" lon="10.782483283424861"><ele>124.28571428571428</ele><time>2026-04-04T10:16:40Z</time></trkpt><trkpt lat="43.497542120545454" lon="10.782421270185488"><ele>124.85714285714286</ele><time>2026-04-04T10:16:41Z</time></trkpt><trkpt lat="43.49758288519097" lon="10.782350751896933"><ele>125.42857142857143</ele><time>2026-04-04T10:16:42Z</time></trkpt><trkpt lat="43.49761282029836" lon="10.782268168189669"><ele>126.0</ele><time>2026-04-04T10:16:43Z</time></trkpt><trkpt lat="43.4976406209414" lon="10.782178837566436"><ele>126.0</ele><time>2026-04-04T10:16:44Z</time></trkpt><trkpt lat="43.49765675083824" lon="10.782080147990618"><ele>126.0</ele><time>2026-04-04T10:16:45Z</time></trkpt><trkpt lat="43.49766636008324" lon="10.78197094956034"><ele>126.0</ele><time>2026-04-04T10:16:46Z</time></trkpt><trkpt lat="43.497676275093625" lon="10.78185697998197"><ele>126.0</ele><time>2026-04-04T10:16:47Z</time></trkpt><trkpt lat="43.497682596096" lon="10.781747711851212"><ele>126.0</ele><time>2026-04-04T10:16:48Z</time></trkpt><trkpt lat="43.49768496440481" lon="10.781627434486138"><ele>126.0</ele><time>2026-04-04T10:16:49Z</time></trkpt><trkpt lat="43.49768233720903" lon="10.781490636999845"><ele>126.8</ele><time>2026-04-04T10:16:50Z</time></trkpt><trkpt lat="43.49768448736518" lon="10.7813475915235"><ele>127.6</ele><time>2026-04-04T10:16:51Z</time></trkpt><trkpt lat="43.49769031807132" lon="10.781194587253518"><ele>128.4</ele><time>2026-04-04T10:16:52Z</time></trkpt><trkpt lat="43.49770155838102" lon="10.78106757558843"><ele>129.2</ele><time>2026-04-04T10:16:53Z</time></trkpt><trkpt lat="43.49771073108215" lon="10.780938326549753"><ele>130.0</ele><time>2026-04-04T10:16:54Z</time></trkpt><trkpt lat="43.49772346300295" lon="10.780809247229497"><ele>130.0</ele><time>2026-04-04T10:16:55Z</time></trkpt><trkpt lat="43.49773810130712" lon="10.780686813115045"><ele>130.0</ele><time>2026-04-04T10:16:56Z</time></trkpt><trkpt lat="43.49774960184399" lon="10.780576194711816"><ele>130.0</ele><time>2026-04-04T10:16:57Z</time></trkpt><trkpt lat="43.49775887785511" lon="10.780449094482721"><ele>130.0</ele><time>2026-04-04T10:16:58Z</time></trkpt><trkpt lat="43.4977616795667" lon="10.780317869910636"><ele>130.0</ele><time>2026-04-04T10:16:59Z</time></trkpt><trkpt lat="43.49775938332269" lon="10.780182965184729"><ele>129.6</ele><time>2026-04-04T10:17:00Z</time></trkpt><trkpt lat="43.49775961215657" lon="10.78004369401221"><ele>129.2</ele><time>2026-04-04T10:17:01Z</time></trkpt><trkpt lat="43.497763503333815" lon="10.77991246946243"><ele>128.8</ele><time>2026-04-04T10:17:02Z</time></trkpt><trkpt lat="43.49777073678656" lon="10.779776068831069"><ele>128.4</ele><time>2026-04-04T10:17:03Z</time></trkpt><trkpt lat="43.49777974701436" lon="10.779647558326667"><ele>128.0</ele><time>2026-04-04T10:17:04Z</time></trkpt><trkpt lat="43.49778859954552" lon="10.779513074820336"><ele>128.0</ele><time>2026-04-04T10:17:05Z</time></trkpt><trkpt lat="43.497792591469356" lon="10.779389627601036"><ele>128.0</ele><time>2026-04-04T10:17:06Z</time></trkpt><trkpt lat="43.497798666263364" lon="10.77925376309529"><ele>128.0</ele><time>2026-04-04T10:17:07Z</time></trkpt><trkpt lat="43.49780588854903" lon="10.779124275511768"><ele>128.0</ele><time>2026-04-04T10:17:08Z</time></trkpt><trkpt lat="43.4978153313947" lon="10.778993324687734"><ele>128.0</ele><time>2026-04-04T10:17:09Z</time></trkpt><trkpt lat="43.49782720209179" lon="10.778862456689424"><ele>128.0</ele><time>2026-04-04T10:17:10Z</time></trkpt><trkpt lat="43.497842646555654" lon="10.778713488302555"><ele>128.0</ele><time>2026-04-04T10:17:11Z</time></trkpt><trkpt lat="43.49786187861374" lon="10.778562458337822"><ele>128.0</ele><time>2026-04-04T10:17:12Z</time></trkpt><trkpt lat="43.49788408841502" lon="10.778421651221715"><ele>128.0</ele><time>2026-04-04T10:17:13Z</time></trkpt><trkpt lat="43.497906688284445" lon="10.778290066817512"><ele>128.0</ele><time>2026-04-04T10:17:14Z</time></trkpt><trkpt lat="43.497911122782824" lon="10.778161610635074"><ele>130.0</ele><time>2026-04-04T10:17:15Z</time></trkpt><trkpt lat="43.49790578464835" lon="10.778037476839096"><ele>132.0</ele><time>2026-04-04T10:17:16Z</time></trkpt><trkpt lat="43.4979005153157" lon="10.77791295039436"><ele>134.0</ele><time>2026-04-04T10:17:17Z</time></trkpt><trkpt lat="43.497893282537945" lon="10.777794106098634"><ele>136.0</ele><time>2026-04-04T10:17:18Z</time></trkpt><trkpt lat="43.497885331359264" lon="10.77768355743058"><ele>138.0</ele><time>2026-04-04T10:17:19Z</time></trkpt><trkpt lat="43.49788277794908" lon="10.777518206630997"><ele>139.0</ele><time>2026-04-04T10:17:21Z</time></trkpt><trkpt lat="43.497876802979164" lon="10.77740657005995"><ele>139.0</ele><time>2026-04-04T10:17:23Z</time></trkpt><trkpt lat="43.497868072678784" lon="10.777304312173003"><ele>139.0</ele><time>2026-04-04T10:17:25Z</time></trkpt><trkpt lat="43.4978544192256" lon="10.777214341474437"><ele>139.0</ele><time>2026-04-04T10:17:28Z</time></trkpt><trkpt lat="43.49783521036539" lon="10.777124870246574"><ele>139.0</ele><time>2026-04-04T10:17:32Z</time></trkpt><trkpt lat="43.49776990715781" lon="10.777106611078548"><ele>139.0</ele><time>2026-04-04T10:17:37Z</time></trkpt><trkpt lat="43.497701500543364" lon="10.777128383308204"><ele>139.0</ele><time>2026-04-04T10:17:46Z</time></trkpt></trkseg></trk></gpx>